<?xml version='1.0' encoding='UTF-8'?><gpx version="1.1" creator="JPX - https://github.com/jenetics/jpx" xmlns="http://www.topografix.com/GPX/1/1"><trk><trkseg><trkpt lat="44.1812735" lon="16.3683056"><ele>873.9999999999999</ele><time>2026-04-28T08:49:39.327Z</time></trkpt><trkpt lat="44.1812044" lon="16.3683613"><ele>874.0</ele><time>2026-04-28T08:49:40.326Z</time></trkpt><trkpt lat="44.1811457" lon="16.3683977"><ele>874.0</ele><time>2026-04-28T08:49:41.326Z</time></trkpt><trkpt lat="44.1810702" lon="16.3684561"><ele>874.0</ele><time>2026-04-28T08:49:42.326Z</time></trkpt><trkpt lat="44.180995" lon="16.368503"><ele>873.9999999999999</ele><time>2026-04-28T08:49:43.326Z</time></trkpt><trkpt lat="44.1809095" lon="16.368561"><ele>874.0</ele><time>2026-04-28T08:49:44.327Z</time></trkpt><trkpt lat="44.1808184" lon="16.3686247"><ele>874.0</ele><time>2026-04-28T08:49:45.326Z</time></trkpt><trkpt lat="44.1807248" lon="16.3686939"><ele>874.0</ele><time>2026-04-28T08:49:46.326Z</time></trkpt><trkpt lat="44.1806225" lon="16.3687614"><ele>874.0</ele><time>2026-04-28T08:49:47.326Z</time></trkpt><trkpt lat="44.1805072" lon="16.3688261"><ele>874.0</ele><time>2026-04-28T08:49:48.327Z</time></trkpt><trkpt lat="44.1803877" lon="16.368892"><ele>871.75</ele><time>2026-04-28T08:49:49.326Z</time></trkpt><trkpt lat="44.1802653" lon="16.3689655"><ele>869.5</ele><time>2026-04-28T08:49:50.326Z</time></trkpt><trkpt lat="44.1801374" lon="16.3690386"><ele>867.25</ele><time>2026-04-28T08:49:51.326Z</time></trkpt><trkpt lat="44.1800082" lon="16.369105"><ele>865.0</ele><time>2026-04-28T08:49:52.326Z</time></trkpt><trkpt lat="44.1798627" lon="16.3691686"><ele>864.3333333333333</ele><time>2026-04-28T08:49:53.326Z</time></trkpt><trkpt lat="44.1797146" lon="16.3692254"><ele>863.6666666666667</ele><time>2026-04-28T08:49:54.326Z</time></trkpt><trkpt lat="44.1795574" lon="16.3692824"><ele>863.0</ele><time>2026-04-28T08:49:55.327Z</time></trkpt><trkpt lat="44.1794005" lon="16.3693389"><ele>863.0</ele><time>2026-04-28T08:49:56.327Z</time></trkpt><trkpt lat="44.1792305" lon="16.3693946"><ele>863.0</ele><time>2026-04-28T08:49:57.327Z</time></trkpt><trkpt lat="44.1790619" lon="16.3694458"><ele>863.0</ele><time>2026-04-28T08:49:58.326Z</time></trkpt><trkpt lat="44.1788978" lon="16.3695012"><ele>860.6666666666667</ele><time>2026-04-28T08:49:59.327Z</time></trkpt><trkpt lat="44.1787334" lon="16.3695546"><ele>858.3333333333333</ele><time>2026-04-28T08:50:00.326Z</time></trkpt><trkpt lat="44.1785632" lon="16.369616"><ele>856.0</ele><time>2026-04-28T08:50:01.326Z</time></trkpt><trkpt lat="44.1783942" lon="16.3696873"><ele>854.0</ele><time>2026-04-28T08:50:02.327Z</time></trkpt><trkpt lat="44.1782293" lon="16.3697685"><ele>852.0</ele><time>2026-04-28T08:50:03.327Z</time></trkpt><trkpt lat="44.1780647" lon="16.3698625"><ele>850.0</ele><time>2026-04-28T08:50:04.326Z</time></trkpt><trkpt lat="44.1779078" lon="16.3699721"><ele>850.0</ele><time>2026-04-28T08:50:05.326Z</time></trkpt><trkpt lat="44.1777489" lon="16.370094"><ele>850.0</ele><time>2026-04-28T08:50:06.327Z</time></trkpt><trkpt lat="44.1775854" lon="16.3702146"><ele>850.0</ele><time>2026-04-28T08:50:07.326Z</time></trkpt><trkpt lat="44.1774265" lon="16.3703419"><ele>852.3333333333333</ele><time>2026-04-28T08:50:08.326Z</time></trkpt><trkpt lat="44.177272" lon="16.3704821"><ele>854.6666666666667</ele><time>2026-04-28T08:50:09.326Z</time></trkpt><trkpt lat="44.177118" lon="16.3706274"><ele>857.0</ele><time>2026-04-28T08:50:10.326Z</time></trkpt><trkpt lat="44.1769616" lon="16.3707708"><ele>850.6666666666667</ele><time>2026-04-28T08:50:11.326Z</time></trkpt><trkpt lat="44.1768086" lon="16.370922"><ele>844.3333333333333</ele><time>2026-04-28T08:50:12.326Z</time></trkpt><trkpt lat="44.1766503" lon="16.3710711"><ele>838.0</ele><time>2026-04-28T08:50:13.326Z</time></trkpt><trkpt lat="44.1764898" lon="16.3712189"><ele>834.3333333333333</ele><time>2026-04-28T08:50:14.326Z</time></trkpt><trkpt lat="44.1763301" lon="16.3713691"><ele>830.6666666666667</ele><time>2026-04-28T08:50:15.326Z</time></trkpt><trkpt lat="44.1761662" lon="16.3715176"><ele>827.0</ele><time>2026-04-28T08:50:16.326Z</time></trkpt><trkpt lat="44.1760062" lon="16.3716601"><ele>827.0</ele><time>2026-04-28T08:50:17.327Z</time></trkpt><trkpt lat="44.1758464" lon="16.3717761"><ele>827.0</ele><time>2026-04-28T08:50:18.326Z</time></trkpt><trkpt lat="44.1756841" lon="16.3718615"><ele>827.0</ele><time>2026-04-28T08:50:19.326Z</time></trkpt><trkpt lat="44.1755132" lon="16.371917"><ele>825.3333333333334</ele><time>2026-04-28T08:50:20.326Z</time></trkpt><trkpt lat="44.1753384" lon="16.3719475"><ele>823.6666666666667</ele><time>2026-04-28T08:50:21.327Z</time></trkpt><trkpt lat="44.1751735" lon="16.3719535"><ele>822.0</ele><time>2026-04-28T08:50:22.326Z</time></trkpt><trkpt lat="44.1750175" lon="16.3719418"><ele>822.0</ele><time>2026-04-28T08:50:23.326Z</time></trkpt><trkpt lat="44.1748689" lon="16.3719126"><ele>822.0</ele><time>2026-04-28T08:50:24.327Z</time></trkpt><trkpt lat="44.1747317" lon="16.3718771"><ele>822.0</ele><time>2026-04-28T08:50:25.326Z</time></trkpt><trkpt lat="44.1745951" lon="16.3718415"><ele>822.0</ele><time>2026-04-28T08:50:26.327Z</time></trkpt><trkpt lat="44.1744609" lon="16.3718047"><ele>822.0</ele><time>2026-04-28T08:50:27.326Z</time></trkpt><trkpt lat="44.1743215" lon="16.3717644"><ele>822.0</ele><time>2026-04-28T08:50:28.326Z</time></trkpt><trkpt lat="44.1741804" lon="16.3717261"><ele>822.0</ele><time>2026-04-28T08:50:29.327Z</time></trkpt><trkpt lat="44.1740401" lon="16.3716867"><ele>822.0</ele><time>2026-04-28T08:50:30.327Z</time></trkpt><trkpt lat="44.1738951" lon="16.3716538"><ele>822.0</ele><time>2026-04-28T08:50:31.326Z</time></trkpt><trkpt lat="44.1737496" lon="16.3716268"><ele>822.0</ele><time>2026-04-28T08:50:32.326Z</time></trkpt><trkpt lat="44.1736037" lon="16.3716174"><ele>822.0</ele><time>2026-04-28T08:50:33.326Z</time></trkpt><trkpt lat="44.1734645" lon="16.3716288"><ele>822.0</ele><time>2026-04-28T08:50:34.327Z</time></trkpt><trkpt lat="44.1733235" lon="16.3716652"><ele>823.0</ele><time>2026-04-28T08:50:35.326Z</time></trkpt><trkpt lat="44.173183" lon="16.3717185"><ele>824.0</ele><time>2026-04-28T08:50:36.327Z</time></trkpt><trkpt lat="44.1730462" lon="16.3717952"><ele>825.0</ele><time>2026-04-28T08:50:37.326Z</time></trkpt><trkpt lat="44.1729199" lon="16.3719013"><ele>826.0</ele><time>2026-04-28T08:50:38.326Z</time></trkpt><trkpt lat="44.172799" lon="16.3720251"><ele>826.0</ele><time>2026-04-28T08:50:39.326Z</time></trkpt><trkpt lat="44.1726866" lon="16.3721691"><ele>826.0</ele><time>2026-04-28T08:50:40.326Z</time></trkpt><trkpt lat="44.172582" lon="16.3723283"><ele>826.0</ele><time>2026-04-28T08:50:41.326Z</time></trkpt><trkpt lat="44.1724765" lon="16.3724986"><ele>825.3333333333333</ele><time>2026-04-28T08:50:42.327Z</time></trkpt><trkpt lat="44.1723745" lon="16.3726737"><ele>824.6666666666667</ele><time>2026-04-28T08:50:43.327Z</time></trkpt><trkpt lat="44.1722741" lon="16.372851"><ele>824.0</ele><time>2026-04-28T08:50:44.326Z</time></trkpt><trkpt lat="44.1721766" lon="16.373019"><ele>822.6666666666667</ele><time>2026-04-28T08:50:45.326Z</time></trkpt><trkpt lat="44.172067" lon="16.3731706"><ele>821.3333333333333</ele><time>2026-04-28T08:50:46.326Z</time></trkpt><trkpt lat="44.1719454" lon="16.373301"><ele>820.0</ele><time>2026-04-28T08:50:47.326Z</time></trkpt><trkpt lat="44.1718118" lon="16.3734115"><ele>820.0</ele><time>2026-04-28T08:50:48.326Z</time></trkpt><trkpt lat="44.1716638" lon="16.3734955"><ele>820.0</ele><time>2026-04-28T08:50:49.326Z</time></trkpt><trkpt lat="44.1715062" lon="16.3735651"><ele>820.0</ele><time>2026-04-28T08:50:50.327Z</time></trkpt><trkpt lat="44.1713396" lon="16.3736365"><ele>819.6666666666666</ele><time>2026-04-28T08:50:51.327Z</time></trkpt><trkpt lat="44.1711714" lon="16.37371"><ele>819.3333333333333</ele><time>2026-04-28T08:50:52.326Z</time></trkpt><trkpt lat="44.1710043" lon="16.3738061"><ele>819.0</ele><time>2026-04-28T08:50:53.326Z</time></trkpt><trkpt lat="44.1708375" lon="16.3739201"><ele>819.0</ele><time>2026-04-28T08:50:54.326Z</time></trkpt><trkpt lat="44.1706741" lon="16.3740527"><ele>819.0</ele><time>2026-04-28T08:50:55.327Z</time></trkpt><trkpt lat="44.1705189" lon="16.3742024"><ele>819.0</ele><time>2026-04-28T08:50:56.326Z</time></trkpt><trkpt lat="44.1703719" lon="16.374372"><ele>819.0</ele><time>2026-04-28T08:50:57.326Z</time></trkpt><trkpt lat="44.1702301" lon="16.3745474"><ele>819.0</ele><time>2026-04-28T08:50:58.326Z</time></trkpt><trkpt lat="44.1700877" lon="16.3747309"><ele>819.0</ele><time>2026-04-28T08:50:59.326Z</time></trkpt><trkpt lat="44.1699451" lon="16.3749109"><ele>817.6666666666667</ele><time>2026-04-28T08:51:00.326Z</time></trkpt><trkpt lat="44.169801" lon="16.3750723"><ele>816.3333333333334</ele><time>2026-04-28T08:51:01.326Z</time></trkpt><trkpt lat="44.1696525" lon="16.37521"><ele>815.0</ele><time>2026-04-28T08:51:02.326Z</time></trkpt><trkpt lat="44.1694942" lon="16.3753303"><ele>815.0</ele><time>2026-04-28T08:51:03.326Z</time></trkpt><trkpt lat="44.1693184" lon="16.375432"><ele>815.0</ele><time>2026-04-28T08:51:04.326Z</time></trkpt><trkpt lat="44.1691305" lon="16.3755263"><ele>815.0</ele><time>2026-04-28T08:51:05.326Z</time></trkpt><trkpt lat="44.1689363" lon="16.3756176"><ele>814.3333333333334</ele><time>2026-04-28T08:51:06.326Z</time></trkpt><trkpt lat="44.1687362" lon="16.3757107"><ele>813.6666666666667</ele><time>2026-04-28T08:51:07.326Z</time></trkpt><trkpt lat="44.1685475" lon="16.3758053"><ele>813.0</ele><time>2026-04-28T08:51:08.326Z</time></trkpt><trkpt lat="44.1683642" lon="16.3758991"><ele>813.3333333333333</ele><time>2026-04-28T08:51:09.326Z</time></trkpt><trkpt lat="44.1681861" lon="16.3759999"><ele>813.6666666666666</ele><time>2026-04-28T08:51:10.326Z</time></trkpt><trkpt lat="44.1680118" lon="16.3761121"><ele>814.0</ele><time>2026-04-28T08:51:11.326Z</time></trkpt><trkpt lat="44.1678379" lon="16.3762366"><ele>814.0</ele><time>2026-04-28T08:51:12.326Z</time></trkpt><trkpt lat="44.1676657" lon="16.3763697"><ele>814.0</ele><time>2026-04-28T08:51:13.326Z</time></trkpt><trkpt lat="44.1674979" lon="16.3764998"><ele>814.0</ele><time>2026-04-28T08:51:14.326Z</time></trkpt><trkpt lat="44.1673306" lon="16.3766336"><ele>812.6666666666666</ele><time>2026-04-28T08:51:15.326Z</time></trkpt><trkpt lat="44.1671563" lon="16.3767708"><ele>811.3333333333333</ele><time>2026-04-28T08:51:16.326Z</time></trkpt><trkpt lat="44.1669761" lon="16.3769012"><ele>810.0</ele><time>2026-04-28T08:51:17.326Z</time></trkpt><trkpt lat="44.1667943" lon="16.3770289"><ele>810.0</ele><time>2026-04-28T08:51:18.326Z</time></trkpt><trkpt lat="44.1666078" lon="16.3771467"><ele>810.0</ele><time>2026-04-28T08:51:19.327Z</time></trkpt><trkpt lat="44.1664209" lon="16.3772641"><ele>810.0</ele><time>2026-04-28T08:51:20.326Z</time></trkpt><trkpt lat="44.1662286" lon="16.3773782"><ele>809.6666666666667</ele><time>2026-04-28T08:51:21.326Z</time></trkpt><trkpt lat="44.1660341" lon="16.3774876"><ele>809.3333333333334</ele><time>2026-04-28T08:51:22.326Z</time></trkpt><trkpt lat="44.1658362" lon="16.3775945"><ele>809.0</ele><time>2026-04-28T08:51:23.326Z</time></trkpt><trkpt lat="44.1656391" lon="16.3777047"><ele>808.6666666666667</ele><time>2026-04-28T08:51:24.326Z</time></trkpt><trkpt lat="44.1654468" lon="16.3778241"><ele>808.3333333333333</ele><time>2026-04-28T08:51:25.326Z</time></trkpt><trkpt lat="44.1652554" lon="16.3779546"><ele>808.0</ele><time>2026-04-28T08:51:26.326Z</time></trkpt><trkpt lat="44.1650662" lon="16.3780967"><ele>806.6666666666666</ele><time>2026-04-28T08:51:27.326Z</time></trkpt><trkpt lat="44.164885" lon="16.3782608"><ele>805.3333333333333</ele><time>2026-04-28T08:51:28.326Z</time></trkpt><trkpt lat="44.1647058" lon="16.3784429"><ele>804.0</ele><time>2026-04-28T08:51:29.326Z</time></trkpt><trkpt lat="44.1645312" lon="16.3786349"><ele>803.5</ele><time>2026-04-28T08:51:30.327Z</time></trkpt><trkpt lat="44.1643576" lon="16.3788303"><ele>803.0</ele><time>2026-04-28T08:51:31.327Z</time></trkpt><trkpt lat="44.164181" lon="16.3790306"><ele>803.0</ele><time>2026-04-28T08:51:32.327Z</time></trkpt><trkpt lat="44.1640021" lon="16.3792338"><ele>803.0</ele><time>2026-04-28T08:51:33.326Z</time></trkpt><trkpt lat="44.1638249" lon="16.3794402"><ele>803.0</ele><time>2026-04-28T08:51:34.327Z</time></trkpt><trkpt lat="44.1636469" lon="16.3796523"><ele>803.0</ele><time>2026-04-28T08:51:35.326Z</time></trkpt><trkpt lat="44.1634749" lon="16.3798747"><ele>801.5</ele><time>2026-04-28T08:51:36.326Z</time></trkpt><trkpt lat="44.1633098" lon="16.3801151"><ele>800.0</ele><time>2026-04-28T08:51:37.326Z</time></trkpt><trkpt lat="44.1631513" lon="16.3803659"><ele>799.0</ele><time>2026-04-28T08:51:38.326Z</time></trkpt><trkpt lat="44.1630023" lon="16.3806247"><ele>798.0</ele><time>2026-04-28T08:51:39.327Z</time></trkpt><trkpt lat="44.1628653" lon="16.3808931"><ele>798.0</ele><time>2026-04-28T08:51:40.326Z</time></trkpt><trkpt lat="44.1627338" lon="16.3811557"><ele>798.0</ele><time>2026-04-28T08:51:41.326Z</time></trkpt><trkpt lat="44.1626187" lon="16.3814005"><ele>798.0</ele><time>2026-04-28T08:51:42.326Z</time></trkpt><trkpt lat="44.1625272" lon="16.3816485"><ele>797.3333333333333</ele><time>2026-04-28T08:51:43.326Z</time></trkpt><trkpt lat="44.1624631" lon="16.3819095"><ele>796.6666666666666</ele><time>2026-04-28T08:51:44.326Z</time></trkpt><trkpt lat="44.1624187" lon="16.3821903"><ele>796.0</ele><time>2026-04-28T08:51:45.326Z</time></trkpt><trkpt lat="44.1623902" lon="16.3824721"><ele>795.6666666666666</ele><time>2026-04-28T08:51:46.326Z</time></trkpt><trkpt lat="44.1623658" lon="16.3827539"><ele>795.3333333333333</ele><time>2026-04-28T08:51:47.327Z</time></trkpt><trkpt lat="44.1623229" lon="16.3830073"><ele>795.0</ele><time>2026-04-28T08:51:48.326Z</time></trkpt><trkpt lat="44.1622637" lon="16.3832476"><ele>794.6666666666667</ele><time>2026-04-28T08:51:49.326Z</time></trkpt><trkpt lat="44.1621806" lon="16.3834897"><ele>794.3333333333334</ele><time>2026-04-28T08:51:50.326Z</time></trkpt><trkpt lat="44.1620688" lon="16.3837264"><ele>794.0</ele><time>2026-04-28T08:51:51.327Z</time></trkpt><trkpt lat="44.1619334" lon="16.3839775"><ele>794.0</ele><time>2026-04-28T08:51:52.326Z</time></trkpt><trkpt lat="44.1618011" lon="16.3842182"><ele>794.0</ele><time>2026-04-28T08:51:53.326Z</time></trkpt><trkpt lat="44.1616735" lon="16.3844537"><ele>794.0</ele><time>2026-04-28T08:51:54.326Z</time></trkpt><trkpt lat="44.1615635" lon="16.3846989"><ele>794.3333333333334</ele><time>2026-04-28T08:51:55.326Z</time></trkpt><trkpt lat="44.1614778" lon="16.384963"><ele>794.6666666666667</ele><time>2026-04-28T08:51:56.327Z</time></trkpt><trkpt lat="44.1614207" lon="16.3852437"><ele>795.0</ele><time>2026-04-28T08:51:57.326Z</time></trkpt><trkpt lat="44.1613904" lon="16.3855399"><ele>795.3333333333333</ele><time>2026-04-28T08:51:58.326Z</time></trkpt><trkpt lat="44.1613797" lon="16.3858394"><ele>795.6666666666666</ele><time>2026-04-28T08:51:59.326Z</time></trkpt><trkpt lat="44.1613716" lon="16.3861435"><ele>796.0</ele><time>2026-04-28T08:52:00.327Z</time></trkpt><trkpt lat="44.1613497" lon="16.3864507"><ele>797.0</ele><time>2026-04-28T08:52:01.326Z</time></trkpt><trkpt lat="44.1613153" lon="16.386753"><ele>798.0</ele><time>2026-04-28T08:52:02.326Z</time></trkpt><trkpt lat="44.1612563" lon="16.3870427"><ele>799.0</ele><time>2026-04-28T08:52:03.326Z</time></trkpt><trkpt lat="44.1611734" lon="16.3873202"><ele>799.0</ele><time>2026-04-28T08:52:04.326Z</time></trkpt><trkpt lat="44.1610617" lon="16.3875805"><ele>799.0</ele><time>2026-04-28T08:52:05.327Z</time></trkpt><trkpt lat="44.1609373" lon="16.3878487"><ele>799.0</ele><time>2026-04-28T08:52:06.326Z</time></trkpt><trkpt lat="44.1608041" lon="16.3881091"><ele>799.0</ele><time>2026-04-28T08:52:07.326Z</time></trkpt><trkpt lat="44.1606634" lon="16.3883721"><ele>799.0</ele><time>2026-04-28T08:52:08.326Z</time></trkpt><trkpt lat="44.1605204" lon="16.3886282"><ele>797.5</ele><time>2026-04-28T08:52:09.326Z</time></trkpt><trkpt lat="44.1603767" lon="16.3888863"><ele>796.0</ele><time>2026-04-28T08:52:10.326Z</time></trkpt><trkpt lat="44.1602316" lon="16.3891478"><ele>796.0</ele><time>2026-04-28T08:52:11.326Z</time></trkpt><trkpt lat="44.1600811" lon="16.3894136"><ele>796.0</ele><time>2026-04-28T08:52:12.326Z</time></trkpt><trkpt lat="44.1599303" lon="16.3896839"><ele>796.5</ele><time>2026-04-28T08:52:13.327Z</time></trkpt><trkpt lat="44.1597777" lon="16.3899593"><ele>797.0</ele><time>2026-04-28T08:52:14.326Z</time></trkpt><trkpt lat="44.1596238" lon="16.3902361"><ele>796.0</ele><time>2026-04-28T08:52:15.326Z</time></trkpt><trkpt lat="44.1594703" lon="16.3905218"><ele>795.0</ele><time>2026-04-28T08:52:16.327Z</time></trkpt><trkpt lat="44.159313" lon="16.3908057"><ele>795.0</ele><time>2026-04-28T08:52:17.327Z</time></trkpt><trkpt lat="44.1591538" lon="16.3910877"><ele>795.0</ele><time>2026-04-28T08:52:18.326Z</time></trkpt><trkpt lat="44.159008" lon="16.3913593"><ele>794.5</ele><time>2026-04-28T08:52:19.324Z</time></trkpt><trkpt lat="44.1588649" lon="16.3916257"><ele>794.0</ele><time>2026-04-28T08:52:20.326Z</time></trkpt><trkpt lat="44.1587355" lon="16.3918905"><ele>793.0</ele><time>2026-04-28T08:52:21.327Z</time></trkpt><trkpt lat="44.15862" lon="16.3921781"><ele>792.0</ele><time>2026-04-28T08:52:22.326Z</time></trkpt><trkpt lat="44.1585376" lon="16.3924681"><ele>792.0</ele><time>2026-04-28T08:52:23.326Z</time></trkpt><trkpt lat="44.1584641" lon="16.392777"><ele>792.0</ele><time>2026-04-28T08:52:24.326Z</time></trkpt><trkpt lat="44.1584094" lon="16.3930851"><ele>793.0</ele><time>2026-04-28T08:52:25.326Z</time></trkpt><trkpt lat="44.158361" lon="16.393396"><ele>794.0</ele><time>2026-04-28T08:52:26.327Z</time></trkpt><trkpt lat="44.1583261" lon="16.3937084"><ele>793.0</ele><time>2026-04-28T08:52:27.326Z</time></trkpt><trkpt lat="44.1583111" lon="16.3940339"><ele>792.0</ele><time>2026-04-28T08:52:28.326Z</time></trkpt><trkpt lat="44.1583129" lon="16.3943678"><ele>792.0</ele><time>2026-04-28T08:52:29.326Z</time></trkpt><trkpt lat="44.1583158" lon="16.3947029"><ele>792.0</ele><time>2026-04-28T08:52:30.326Z</time></trkpt><trkpt lat="44.1583296" lon="16.3950412"><ele>792.0</ele><time>2026-04-28T08:52:31.326Z</time></trkpt><trkpt lat="44.1583485" lon="16.3953832"><ele>792.0</ele><time>2026-04-28T08:52:32.327Z</time></trkpt><trkpt lat="44.1583797" lon="16.3957235"><ele>792.0</ele><time>2026-04-28T08:52:33.327Z</time></trkpt><trkpt lat="44.1584164" lon="16.396062"><ele>792.0</ele><time>2026-04-28T08:52:34.326Z</time></trkpt><trkpt lat="44.1584576" lon="16.3963979"><ele>792.5</ele><time>2026-04-28T08:52:35.327Z</time></trkpt><trkpt lat="44.1585" lon="16.3967346"><ele>793.0</ele><time>2026-04-28T08:52:36.327Z</time></trkpt><trkpt lat="44.158538" lon="16.397065"><ele>793.5</ele><time>2026-04-28T08:52:37.326Z</time></trkpt><trkpt lat="44.1585809" lon="16.3973993"><ele>794.0</ele><time>2026-04-28T08:52:38.327Z</time></trkpt><trkpt lat="44.1586225" lon="16.3977342"><ele>793.0</ele><time>2026-04-28T08:52:39.326Z</time></trkpt><trkpt lat="44.1586576" lon="16.3980665"><ele>792.0</ele><time>2026-04-28T08:52:40.327Z</time></trkpt><trkpt lat="44.1586773" lon="16.3983984"><ele>792.0</ele><time>2026-04-28T08:52:41.327Z</time></trkpt><trkpt lat="44.1586675" lon="16.3987251"><ele>792.0</ele><time>2026-04-28T08:52:42.327Z</time></trkpt><trkpt lat="44.1586309" lon="16.3990478"><ele>791.5</ele><time>2026-04-28T08:52:43.327Z</time></trkpt><trkpt lat="44.1585784" lon="16.399371"><ele>791.0</ele><time>2026-04-28T08:52:44.326Z</time></trkpt><trkpt lat="44.1585248" lon="16.399686"><ele>791.0</ele><time>2026-04-28T08:52:45.326Z</time></trkpt><trkpt lat="44.1584852" lon="16.3999988"><ele>791.0</ele><time>2026-04-28T08:52:46.326Z</time></trkpt><trkpt lat="44.1584686" lon="16.4003233"><ele>793.5</ele><time>2026-04-28T08:52:47.327Z</time></trkpt><trkpt lat="44.1584722" lon="16.4006413"><ele>796.0</ele><time>2026-04-28T08:52:48.327Z</time></trkpt><trkpt lat="44.1584925" lon="16.400952"><ele>796.0</ele><time>2026-04-28T08:52:49.326Z</time></trkpt><trkpt lat="44.1585188" lon="16.4012524"><ele>796.0</ele><time>2026-04-28T08:52:50.327Z</time></trkpt><trkpt lat="44.1585461" lon="16.4015453"><ele>796.0</ele><time>2026-04-28T08:52:51.327Z</time></trkpt><trkpt lat="44.158584" lon="16.4018439"><ele>797.3333333333333</ele><time>2026-04-28T08:52:52.326Z</time></trkpt><trkpt lat="44.1586041" lon="16.4021295"><ele>798.6666666666667</ele><time>2026-04-28T08:52:53.326Z</time></trkpt><trkpt lat="44.1586022" lon="16.4024175"><ele>800.0</ele><time>2026-04-28T08:52:54.326Z</time></trkpt><trkpt lat="44.1585764" lon="16.4027052"><ele>800.3333333333334</ele><time>2026-04-28T08:52:55.326Z</time></trkpt><trkpt lat="44.1585237" lon="16.4029889"><ele>800.6666666666667</ele><time>2026-04-28T08:52:56.326Z</time></trkpt><trkpt lat="44.1584637" lon="16.4032825"><ele>801.0</ele><time>2026-04-28T08:52:57.326Z</time></trkpt><trkpt lat="44.1584012" lon="16.403587"><ele>800.5</ele><time>2026-04-28T08:52:58.326Z</time></trkpt><trkpt lat="44.1583442" lon="16.4038974"><ele>800.0</ele><time>2026-04-28T08:52:59.326Z</time></trkpt><trkpt lat="44.1582889" lon="16.4042108"><ele>800.0</ele><time>2026-04-28T08:53:00.326Z</time></trkpt><trkpt lat="44.158253" lon="16.4045326"><ele>800.0</ele><time>2026-04-28T08:53:01.326Z</time></trkpt><trkpt lat="44.1582211" lon="16.4048193"><ele>800.0</ele><time>2026-04-28T08:53:02.326Z</time></trkpt><trkpt lat="44.1581895" lon="16.4050953"><ele>802.3333333333334</ele><time>2026-04-28T08:53:03.327Z</time></trkpt><trkpt lat="44.1581556" lon="16.4053375"><ele>804.6666666666667</ele><time>2026-04-28T08:53:04.326Z</time></trkpt><trkpt lat="44.1581107" lon="16.4055697"><ele>807.0</ele><time>2026-04-28T08:53:05.326Z</time></trkpt><trkpt lat="44.1580468" lon="16.4058016"><ele>807.6666666666667</ele><time>2026-04-28T08:53:06.326Z</time></trkpt><trkpt lat="44.157963" lon="16.4060165"><ele>808.3333333333334</ele><time>2026-04-28T08:53:07.326Z</time></trkpt><trkpt lat="44.1578679" lon="16.4062162"><ele>809.0</ele><time>2026-04-28T08:53:08.326Z</time></trkpt><trkpt lat="44.1577774" lon="16.406425"><ele>809.0</ele><time>2026-04-28T08:53:09.326Z</time></trkpt><trkpt lat="44.1576994" lon="16.4066481"><ele>809.0</ele><time>2026-04-28T08:53:10.326Z</time></trkpt><trkpt lat="44.1576406" lon="16.4068817"><ele>809.0</ele><time>2026-04-28T08:53:11.326Z</time></trkpt><trkpt lat="44.1576042" lon="16.407133"><ele>808.3333333333334</ele><time>2026-04-28T08:53:12.326Z</time></trkpt><trkpt lat="44.1575979" lon="16.4073946"><ele>807.6666666666667</ele><time>2026-04-28T08:53:13.326Z</time></trkpt><trkpt lat="44.1576205" lon="16.4076646"><ele>807.0</ele><time>2026-04-28T08:53:14.326Z</time></trkpt><trkpt lat="44.1576454" lon="16.407944"><ele>807.6666666666667</ele><time>2026-04-28T08:53:15.326Z</time></trkpt><trkpt lat="44.1576764" lon="16.4082358"><ele>808.3333333333334</ele><time>2026-04-28T08:53:16.326Z</time></trkpt><trkpt lat="44.1577031" lon="16.4085271"><ele>809.0</ele><time>2026-04-28T08:53:17.326Z</time></trkpt><trkpt lat="44.1577376" lon="16.4088127"><ele>810.0</ele><time>2026-04-28T08:53:18.326Z</time></trkpt><trkpt lat="44.1577851" lon="16.409092"><ele>811.0</ele><time>2026-04-28T08:53:19.326Z</time></trkpt><trkpt lat="44.1578374" lon="16.4093622"><ele>812.0</ele><time>2026-04-28T08:53:20.326Z</time></trkpt><trkpt lat="44.1579011" lon="16.4096276"><ele>813.0</ele><time>2026-04-28T08:53:21.326Z</time></trkpt><trkpt lat="44.157968" lon="16.4098902"><ele>814.0</ele><time>2026-04-28T08:53:22.326Z</time></trkpt><trkpt lat="44.1580355" lon="16.4101562"><ele>815.0</ele><time>2026-04-28T08:53:23.326Z</time></trkpt><trkpt lat="44.1581014" lon="16.4104194"><ele>814.6666666666667</ele><time>2026-04-28T08:53:24.326Z</time></trkpt><trkpt lat="44.1581742" lon="16.4106859"><ele>814.3333333333333</ele><time>2026-04-28T08:53:25.327Z</time></trkpt><trkpt lat="44.1582419" lon="16.4109565"><ele>814.0</ele><time>2026-04-28T08:53:26.326Z</time></trkpt><trkpt lat="44.1583115" lon="16.4112206"><ele>813.6666666666666</ele><time>2026-04-28T08:53:27.326Z</time></trkpt><trkpt lat="44.1583783" lon="16.411493"><ele>813.3333333333333</ele><time>2026-04-28T08:53:28.326Z</time></trkpt><trkpt lat="44.1584267" lon="16.4117468"><ele>813.0</ele><time>2026-04-28T08:53:29.326Z</time></trkpt><trkpt lat="44.1584526" lon="16.411996"><ele>812.6666666666667</ele><time>2026-04-28T08:53:30.326Z</time></trkpt><trkpt lat="44.1584589" lon="16.4122484"><ele>812.3333333333334</ele><time>2026-04-28T08:53:31.326Z</time></trkpt><trkpt lat="44.1584344" lon="16.4125019"><ele>812.0</ele><time>2026-04-28T08:53:32.326Z</time></trkpt><trkpt lat="44.1583807" lon="16.4127556"><ele>812.6666666666667</ele><time>2026-04-28T08:53:33.326Z</time></trkpt><trkpt lat="44.1583197" lon="16.41302"><ele>813.3333333333333</ele><time>2026-04-28T08:53:34.326Z</time></trkpt><trkpt lat="44.1582556" lon="16.4132873"><ele>814.0</ele><time>2026-04-28T08:53:35.326Z</time></trkpt><trkpt lat="44.158188" lon="16.4135518"><ele>814.3333333333333</ele><time>2026-04-28T08:53:36.326Z</time></trkpt><trkpt lat="44.1581309" lon="16.4138322"><ele>814.6666666666667</ele><time>2026-04-28T08:53:37.327Z</time></trkpt><trkpt lat="44.158101" lon="16.4141143"><ele>815.0</ele><time>2026-04-28T08:53:38.327Z</time></trkpt><trkpt lat="44.1581026" lon="16.4143992"><ele>815.3333333333334</ele><time>2026-04-28T08:53:39.326Z</time></trkpt><trkpt lat="44.1581255" lon="16.4146982"><ele>815.6666666666667</ele><time>2026-04-28T08:53:40.326Z</time></trkpt><trkpt lat="44.1581533" lon="16.4150053"><ele>816.0</ele><time>2026-04-28T08:53:41.326Z</time></trkpt><trkpt lat="44.1581887" lon="16.4153104"><ele>816.5</ele><time>2026-04-28T08:53:42.326Z</time></trkpt><trkpt lat="44.1582268" lon="16.4156151"><ele>817.0</ele><time>2026-04-28T08:53:43.327Z</time></trkpt><trkpt lat="44.1582651" lon="16.415928"><ele>817.0</ele><time>2026-04-28T08:53:44.326Z</time></trkpt><trkpt lat="44.1583045" lon="16.4162432"><ele>817.0</ele><time>2026-04-28T08:53:45.325Z</time></trkpt><trkpt lat="44.1583428" lon="16.4165521"><ele>816.0</ele><time>2026-04-28T08:53:46.327Z</time></trkpt><trkpt lat="44.1583849" lon="16.4168665"><ele>815.0</ele><time>2026-04-28T08:53:47.327Z</time></trkpt><trkpt lat="44.1584308" lon="16.4171775"><ele>814.5</ele><time>2026-04-28T08:53:48.326Z</time></trkpt><trkpt lat="44.1584818" lon="16.4174876"><ele>814.0</ele><time>2026-04-28T08:53:49.326Z</time></trkpt><trkpt lat="44.1585368" lon="16.4177934"><ele>814.6666666666666</ele><time>2026-04-28T08:53:50.326Z</time></trkpt><trkpt lat="44.1586009" lon="16.4180973"><ele>815.3333333333333</ele><time>2026-04-28T08:53:51.326Z</time></trkpt><trkpt lat="44.158672" lon="16.4183859"><ele>816.0</ele><time>2026-04-28T08:53:52.326Z</time></trkpt><trkpt lat="44.1587555" lon="16.4186792"><ele>816.6666666666667</ele><time>2026-04-28T08:53:53.326Z</time></trkpt><trkpt lat="44.1588385" lon="16.4189662"><ele>817.3333333333334</ele><time>2026-04-28T08:53:54.326Z</time></trkpt><trkpt lat="44.1589177" lon="16.419254"><ele>818.0</ele><time>2026-04-28T08:53:55.326Z</time></trkpt><trkpt lat="44.159001" lon="16.4195472"><ele>818.6666666666667</ele><time>2026-04-28T08:53:56.326Z</time></trkpt><trkpt lat="44.1590823" lon="16.41983"><ele>819.3333333333333</ele><time>2026-04-28T08:53:57.326Z</time></trkpt><trkpt lat="44.1591629" lon="16.4201169"><ele>820.0</ele><time>2026-04-28T08:53:58.326Z</time></trkpt><trkpt lat="44.1592411" lon="16.4204066"><ele>820.6666666666666</ele><time>2026-04-28T08:53:59.327Z</time></trkpt><trkpt lat="44.1593059" lon="16.420696"><ele>821.3333333333333</ele><time>2026-04-28T08:54:00.326Z</time></trkpt><trkpt lat="44.159361" lon="16.4209847"><ele>822.0</ele><time>2026-04-28T08:54:01.326Z</time></trkpt><trkpt lat="44.1594054" lon="16.4212766"><ele>823.0</ele><time>2026-04-28T08:54:02.326Z</time></trkpt><trkpt lat="44.159442" lon="16.4215711"><ele>824.0</ele><time>2026-04-28T08:54:03.326Z</time></trkpt><trkpt lat="44.1594685" lon="16.4218715"><ele>825.0</ele><time>2026-04-28T08:54:04.327Z</time></trkpt><trkpt lat="44.1594889" lon="16.4221643"><ele>826.0</ele><time>2026-04-28T08:54:05.327Z</time></trkpt><trkpt lat="44.1595022" lon="16.4224161"><ele>827.0</ele><time>2026-04-28T08:54:06.327Z</time></trkpt><trkpt lat="44.1594996" lon="16.4226698"><ele>828.0</ele><time>2026-04-28T08:54:07.326Z</time></trkpt><trkpt lat="44.1594844" lon="16.4229307"><ele>827.0</ele><time>2026-04-28T08:54:08.327Z</time></trkpt><trkpt lat="44.1594265" lon="16.4231829"><ele>826.0</ele><time>2026-04-28T08:54:09.326Z</time></trkpt><trkpt lat="44.1593473" lon="16.4234456"><ele>825.0</ele><time>2026-04-28T08:54:10.326Z</time></trkpt><trkpt lat="44.1592453" lon="16.4237008"><ele>825.0</ele><time>2026-04-28T08:54:11.326Z</time></trkpt><trkpt lat="44.1591226" lon="16.4239395"><ele>825.0</ele><time>2026-04-28T08:54:12.326Z</time></trkpt><trkpt lat="44.1589942" lon="16.4241848"><ele>825.0</ele><time>2026-04-28T08:54:13.327Z</time></trkpt><trkpt lat="44.1588596" lon="16.4244285"><ele>825.0</ele><time>2026-04-28T08:54:14.326Z</time></trkpt><trkpt lat="44.1587245" lon="16.4246793"><ele>825.0</ele><time>2026-04-28T08:54:15.326Z</time></trkpt><trkpt lat="44.1585873" lon="16.424933"><ele>825.0</ele><time>2026-04-28T08:54:16.327Z</time></trkpt><trkpt lat="44.1584511" lon="16.4251916"><ele>825.0</ele><time>2026-04-28T08:54:17.326Z</time></trkpt><trkpt lat="44.1583247" lon="16.425452"><ele>823.5</ele><time>2026-04-28T08:54:18.326Z</time></trkpt><trkpt lat="44.1581971" lon="16.4257219"><ele>822.0</ele><time>2026-04-28T08:54:19.327Z</time></trkpt><trkpt lat="44.1580788" lon="16.4259895"><ele>822.0</ele><time>2026-04-28T08:54:20.327Z</time></trkpt><trkpt lat="44.1579674" lon="16.4262694"><ele>822.0</ele><time>2026-04-28T08:54:21.326Z</time></trkpt><trkpt lat="44.1578614" lon="16.4265572"><ele>821.0</ele><time>2026-04-28T08:54:22.327Z</time></trkpt><trkpt lat="44.1577563" lon="16.4268445"><ele>820.0</ele><time>2026-04-28T08:54:23.326Z</time></trkpt><trkpt lat="44.1576486" lon="16.4271295"><ele>817.5</ele><time>2026-04-28T08:54:24.326Z</time></trkpt><trkpt lat="44.1575382" lon="16.4274263"><ele>815.0</ele><time>2026-04-28T08:54:25.326Z</time></trkpt><trkpt lat="44.1574217" lon="16.4277074"><ele>815.5</ele><time>2026-04-28T08:54:26.326Z</time></trkpt><trkpt lat="44.1573053" lon="16.4279871"><ele>816.0</ele><time>2026-04-28T08:54:27.327Z</time></trkpt><trkpt lat="44.1571935" lon="16.4282659"><ele>816.0</ele><time>2026-04-28T08:54:28.327Z</time></trkpt><trkpt lat="44.1570799" lon="16.4285441"><ele>816.0</ele><time>2026-04-28T08:54:29.326Z</time></trkpt><trkpt lat="44.1569711" lon="16.4288196"><ele>815.6666666666667</ele><time>2026-04-28T08:54:30.326Z</time></trkpt><trkpt lat="44.1568721" lon="16.4290987"><ele>815.3333333333334</ele><time>2026-04-28T08:54:31.326Z</time></trkpt><trkpt lat="44.1567783" lon="16.4293845"><ele>815.0</ele><time>2026-04-28T08:54:32.326Z</time></trkpt><trkpt lat="44.1566925" lon="16.42967"><ele>815.6666666666667</ele><time>2026-04-28T08:54:33.326Z</time></trkpt><trkpt lat="44.1566075" lon="16.4299625"><ele>816.3333333333333</ele><time>2026-04-28T08:54:34.326Z</time></trkpt><trkpt lat="44.1565291" lon="16.4302536"><ele>817.0</ele><time>2026-04-28T08:54:35.327Z</time></trkpt><trkpt lat="44.1564496" lon="16.430542"><ele>817.6666666666666</ele><time>2026-04-28T08:54:36.326Z</time></trkpt><trkpt lat="44.1563714" lon="16.4308344"><ele>818.3333333333333</ele><time>2026-04-28T08:54:37.327Z</time></trkpt><trkpt lat="44.1562955" lon="16.4311252"><ele>819.0</ele><time>2026-04-28T08:54:38.327Z</time></trkpt><trkpt lat="44.1562223" lon="16.4314168"><ele>819.0</ele><time>2026-04-28T08:54:39.327Z</time></trkpt><trkpt lat="44.1561431" lon="16.4317088"><ele>819.0</ele><time>2026-04-28T08:54:40.327Z</time></trkpt><trkpt lat="44.1560645" lon="16.4320052"><ele>818.0</ele><time>2026-04-28T08:54:41.327Z</time></trkpt><trkpt lat="44.1559882" lon="16.4322985"><ele>817.0</ele><time>2026-04-28T08:54:42.326Z</time></trkpt><trkpt lat="44.1559058" lon="16.4325946"><ele>817.0</ele><time>2026-04-28T08:54:43.326Z</time></trkpt><trkpt lat="44.1558112" lon="16.43288"><ele>817.0</ele><time>2026-04-28T08:54:44.327Z</time></trkpt><trkpt lat="44.1557007" lon="16.4331503"><ele>817.0</ele><time>2026-04-28T08:54:45.326Z</time></trkpt><trkpt lat="44.1555616" lon="16.4333967"><ele>817.0</ele><time>2026-04-28T08:54:46.326Z</time></trkpt><trkpt lat="44.1554089" lon="16.4336263"><ele>817.0</ele><time>2026-04-28T08:54:47.326Z</time></trkpt><trkpt lat="44.1552519" lon="16.433849"><ele>817.0</ele><time>2026-04-28T08:54:48.326Z</time></trkpt><trkpt lat="44.1550917" lon="16.4340703"><ele>817.0</ele><time>2026-04-28T08:54:49.327Z</time></trkpt><trkpt lat="44.1549317" lon="16.4342977"><ele>817.0</ele><time>2026-04-28T08:54:50.327Z</time></trkpt><trkpt lat="44.1547882" lon="16.4345377"><ele>818.0</ele><time>2026-04-28T08:54:51.326Z</time></trkpt><trkpt lat="44.1546481" lon="16.4347838"><ele>819.0</ele><time>2026-04-28T08:54:52.326Z</time></trkpt><trkpt lat="44.1545201" lon="16.4350385"><ele>820.0</ele><time>2026-04-28T08:54:53.326Z</time></trkpt><trkpt lat="44.1543932" lon="16.4352998"><ele>818.0</ele><time>2026-04-28T08:54:54.327Z</time></trkpt><trkpt lat="44.154263" lon="16.4355586"><ele>816.0</ele><time>2026-04-28T08:54:55.327Z</time></trkpt><trkpt lat="44.1541257" lon="16.4358092"><ele>819.5</ele><time>2026-04-28T08:54:56.327Z</time></trkpt><trkpt lat="44.1539759" lon="16.4360518"><ele>823.0</ele><time>2026-04-28T08:54:57.326Z</time></trkpt><trkpt lat="44.1538211" lon="16.4362795"><ele>821.0</ele><time>2026-04-28T08:54:58.327Z</time></trkpt><trkpt lat="44.1536611" lon="16.4364973"><ele>819.0</ele><time>2026-04-28T08:54:59.326Z</time></trkpt><trkpt lat="44.1534985" lon="16.4367164"><ele>819.0</ele><time>2026-04-28T08:55:00.326Z</time></trkpt><trkpt lat="44.1533379" lon="16.436936"><ele>819.0</ele><time>2026-04-28T08:55:01.327Z</time></trkpt><trkpt lat="44.1531765" lon="16.437167"><ele>818.0</ele><time>2026-04-28T08:55:02.327Z</time></trkpt><trkpt lat="44.1530136" lon="16.4373976"><ele>817.0</ele><time>2026-04-28T08:55:03.326Z</time></trkpt><trkpt lat="44.1528522" lon="16.4376312"><ele>817.0</ele><time>2026-04-28T08:55:04.326Z</time></trkpt><trkpt lat="44.1526957" lon="16.4378708"><ele>817.0</ele><time>2026-04-28T08:55:05.327Z</time></trkpt><trkpt lat="44.1525397" lon="16.4381129"><ele>818.0</ele><time>2026-04-28T08:55:06.326Z</time></trkpt><trkpt lat="44.1523863" lon="16.438361"><ele>819.0</ele><time>2026-04-28T08:55:07.326Z</time></trkpt><trkpt lat="44.1522368" lon="16.4386095"><ele>818.5</ele><time>2026-04-28T08:55:08.327Z</time></trkpt><trkpt lat="44.1520912" lon="16.4388585"><ele>818.0</ele><time>2026-04-28T08:55:09.326Z</time></trkpt><trkpt lat="44.1519435" lon="16.4391079"><ele>818.0</ele><time>2026-04-28T08:55:10.327Z</time></trkpt><trkpt lat="44.1517932" lon="16.4393454"><ele>818.0</ele><time>2026-04-28T08:55:11.326Z</time></trkpt><trkpt lat="44.1516325" lon="16.4395745"><ele>817.5</ele><time>2026-04-28T08:55:12.327Z</time></trkpt><trkpt lat="44.1514619" lon="16.4398019"><ele>817.0</ele><time>2026-04-28T08:55:13.327Z</time></trkpt><trkpt lat="44.1512892" lon="16.4400064"><ele>817.0</ele><time>2026-04-28T08:55:14.326Z</time></trkpt><trkpt lat="44.151107" lon="16.4401924"><ele>817.0</ele><time>2026-04-28T08:55:15.326Z</time></trkpt><trkpt lat="44.150917" lon="16.4403657"><ele>816.0</ele><time>2026-04-28T08:55:16.326Z</time></trkpt><trkpt lat="44.1507212" lon="16.4405305"><ele>815.0</ele><time>2026-04-28T08:55:17.326Z</time></trkpt><trkpt lat="44.1505276" lon="16.440682"><ele>815.0</ele><time>2026-04-28T08:55:18.326Z</time></trkpt><trkpt lat="44.1503357" lon="16.4408344"><ele>815.0</ele><time>2026-04-28T08:55:19.326Z</time></trkpt><trkpt lat="44.1501412" lon="16.4409876"><ele>815.0</ele><time>2026-04-28T08:55:20.327Z</time></trkpt><trkpt lat="44.1499711" lon="16.4411442"><ele>815.6666666666667</ele><time>2026-04-28T08:55:21.326Z</time></trkpt><trkpt lat="44.1498233" lon="16.4413222"><ele>816.3333333333333</ele><time>2026-04-28T08:55:22.327Z</time></trkpt><trkpt lat="44.1496953" lon="16.4415309"><ele>817.0</ele><time>2026-04-28T08:55:23.327Z</time></trkpt><trkpt lat="44.1496007" lon="16.4417624"><ele>817.0</ele><time>2026-04-28T08:55:24.326Z</time></trkpt><trkpt lat="44.1495382" lon="16.4420164"><ele>817.0</ele><time>2026-04-28T08:55:25.326Z</time></trkpt><trkpt lat="44.1495112" lon="16.442281"><ele>817.0</ele><time>2026-04-28T08:55:26.326Z</time></trkpt><trkpt lat="44.14952" lon="16.442557"><ele>817.3333333333333</ele><time>2026-04-28T08:55:27.327Z</time></trkpt><trkpt lat="44.1495539" lon="16.4428393"><ele>817.6666666666667</ele><time>2026-04-28T08:55:28.326Z</time></trkpt><trkpt lat="44.1495924" lon="16.4431333"><ele>818.0</ele><time>2026-04-28T08:55:29.326Z</time></trkpt><trkpt lat="44.1496346" lon="16.4434388"><ele>818.0</ele><time>2026-04-28T08:55:30.326Z</time></trkpt><trkpt lat="44.1496825" lon="16.4437492"><ele>818.0</ele><time>2026-04-28T08:55:31.326Z</time></trkpt><trkpt lat="44.1497295" lon="16.4440584"><ele>818.0</ele><time>2026-04-28T08:55:32.326Z</time></trkpt><trkpt lat="44.1497687" lon="16.4443334"><ele>818.0</ele><time>2026-04-28T08:55:33.327Z</time></trkpt><trkpt lat="44.1497986" lon="16.4446094"><ele>818.0</ele><time>2026-04-28T08:55:34.326Z</time></trkpt><trkpt lat="44.149811" lon="16.4448689"><ele>817.3333333333334</ele><time>2026-04-28T08:55:35.326Z</time></trkpt><trkpt lat="44.1497887" lon="16.4451354"><ele>816.6666666666667</ele><time>2026-04-28T08:55:36.326Z</time></trkpt><trkpt lat="44.149717" lon="16.4453865"><ele>816.0</ele><time>2026-04-28T08:55:37.327Z</time></trkpt><trkpt lat="44.1496364" lon="16.4456583"><ele>816.0</ele><time>2026-04-28T08:55:38.326Z</time></trkpt><trkpt lat="44.1495434" lon="16.4459425"><ele>816.0</ele><time>2026-04-28T08:55:39.326Z</time></trkpt><trkpt lat="44.1494419" lon="16.4462338"><ele>817.0</ele><time>2026-04-28T08:55:40.326Z</time></trkpt><trkpt lat="44.1493401" lon="16.4465386"><ele>818.0</ele><time>2026-04-28T08:55:41.326Z</time></trkpt><trkpt lat="44.1492349" lon="16.4468457"><ele>817.5</ele><time>2026-04-28T08:55:42.326Z</time></trkpt><trkpt lat="44.1491385" lon="16.4471637"><ele>817.0</ele><time>2026-04-28T08:55:43.326Z</time></trkpt><trkpt lat="44.1490512" lon="16.4474925"><ele>816.5</ele><time>2026-04-28T08:55:44.327Z</time></trkpt><trkpt lat="44.148986" lon="16.447831"><ele>816.0</ele><time>2026-04-28T08:55:45.326Z</time></trkpt><trkpt lat="44.1489328" lon="16.4481751"><ele>815.5</ele><time>2026-04-28T08:55:46.327Z</time></trkpt><trkpt lat="44.1488901" lon="16.4485096"><ele>815.0</ele><time>2026-04-28T08:55:47.327Z</time></trkpt><trkpt lat="44.148849" lon="16.4488461"><ele>813.5</ele><time>2026-04-28T08:55:48.326Z</time></trkpt><trkpt lat="44.1487982" lon="16.4491823"><ele>812.0</ele><time>2026-04-28T08:55:49.327Z</time></trkpt><trkpt lat="44.1487285" lon="16.4495133"><ele>812.0</ele><time>2026-04-28T08:55:50.326Z</time></trkpt><trkpt lat="44.1486414" lon="16.4498245"><ele>812.0</ele><time>2026-04-28T08:55:51.326Z</time></trkpt><trkpt lat="44.1485427" lon="16.4501378"><ele>812.0</ele><time>2026-04-28T08:55:52.327Z</time></trkpt><trkpt lat="44.1484386" lon="16.4504485"><ele>812.0</ele><time>2026-04-28T08:55:53.326Z</time></trkpt><trkpt lat="44.1483255" lon="16.4507495"><ele>811.5</ele><time>2026-04-28T08:55:54.326Z</time></trkpt><trkpt lat="44.1481987" lon="16.4510367"><ele>811.0</ele><time>2026-04-28T08:55:55.326Z</time></trkpt><trkpt lat="44.148046" lon="16.4513018"><ele>811.0</ele><time>2026-04-28T08:55:56.326Z</time></trkpt><trkpt lat="44.1478869" lon="16.4515538"><ele>811.0</ele><time>2026-04-28T08:55:57.326Z</time></trkpt><trkpt lat="44.147732" lon="16.4518031"><ele>811.0</ele><time>2026-04-28T08:55:58.326Z</time></trkpt><trkpt lat="44.1475925" lon="16.4520504"><ele>811.0</ele><time>2026-04-28T08:55:59.326Z</time></trkpt><trkpt lat="44.1474836" lon="16.4523157"><ele>811.0</ele><time>2026-04-28T08:56:00.327Z</time></trkpt><trkpt lat="44.1473973" lon="16.4526029"><ele>811.0</ele><time>2026-04-28T08:56:01.326Z</time></trkpt><trkpt lat="44.1473333" lon="16.4529066"><ele>811.0</ele><time>2026-04-28T08:56:02.326Z</time></trkpt><trkpt lat="44.1472788" lon="16.4532143"><ele>811.0</ele><time>2026-04-28T08:56:03.327Z</time></trkpt><trkpt lat="44.1472188" lon="16.4535348"><ele>811.0</ele><time>2026-04-28T08:56:04.326Z</time></trkpt><trkpt lat="44.1471667" lon="16.4538498"><ele>810.5</ele><time>2026-04-28T08:56:05.326Z</time></trkpt><trkpt lat="44.1471044" lon="16.4541718"><ele>810.0</ele><time>2026-04-28T08:56:06.326Z</time></trkpt><trkpt lat="44.1470474" lon="16.4545022"><ele>810.0</ele><time>2026-04-28T08:56:07.326Z</time></trkpt><trkpt lat="44.1469912" lon="16.4548387"><ele>810.0</ele><time>2026-04-28T08:56:08.327Z</time></trkpt><trkpt lat="44.14695" lon="16.4551867"><ele>809.5</ele><time>2026-04-28T08:56:09.326Z</time></trkpt><trkpt lat="44.1469103" lon="16.455527"><ele>809.0</ele><time>2026-04-28T08:56:10.326Z</time></trkpt><trkpt lat="44.1468824" lon="16.4558518"><ele>809.0</ele><time>2026-04-28T08:56:11.326Z</time></trkpt><trkpt lat="44.1468553" lon="16.4561267"><ele>809.0</ele><time>2026-04-28T08:56:12.326Z</time></trkpt><trkpt lat="44.1468215" lon="16.456385"><ele>809.0</ele><time>2026-04-28T08:56:13.326Z</time></trkpt><trkpt lat="44.1467599" lon="16.456632"><ele>809.3333333333334</ele><time>2026-04-28T08:56:14.326Z</time></trkpt><trkpt lat="44.1466715" lon="16.4568612"><ele>809.6666666666667</ele><time>2026-04-28T08:56:15.326Z</time></trkpt><trkpt lat="44.1465509" lon="16.4570745"><ele>810.0</ele><time>2026-04-28T08:56:16.326Z</time></trkpt><trkpt lat="44.1464138" lon="16.4572826"><ele>809.3333333333333</ele><time>2026-04-28T08:56:17.326Z</time></trkpt><trkpt lat="44.146267" lon="16.4574824"><ele>808.6666666666666</ele><time>2026-04-28T08:56:18.326Z</time></trkpt><trkpt lat="44.1461284" lon="16.4576858"><ele>808.0</ele><time>2026-04-28T08:56:19.326Z</time></trkpt><trkpt lat="44.1459993" lon="16.4578784"><ele>807.6666666666666</ele><time>2026-04-28T08:56:20.327Z</time></trkpt><trkpt lat="44.1458839" lon="16.4580691"><ele>807.3333333333333</ele><time>2026-04-28T08:56:21.326Z</time></trkpt><trkpt lat="44.1457816" lon="16.4582631"><ele>807.0</ele><time>2026-04-28T08:56:22.326Z</time></trkpt><trkpt lat="44.1456893" lon="16.4584731"><ele>807.0</ele><time>2026-04-28T08:56:23.326Z</time></trkpt><trkpt lat="44.1456016" lon="16.4586916"><ele>807.0</ele><time>2026-04-28T08:56:24.327Z</time></trkpt><trkpt lat="44.1455228" lon="16.4589078"><ele>807.0</ele><time>2026-04-28T08:56:25.326Z</time></trkpt><trkpt lat="44.1454527" lon="16.4591357"><ele>807.0</ele><time>2026-04-28T08:56:26.327Z</time></trkpt><trkpt lat="44.1453903" lon="16.4593639"><ele>807.0</ele><time>2026-04-28T08:56:27.326Z</time></trkpt><trkpt lat="44.1453331" lon="16.4595999"><ele>807.0</ele><time>2026-04-28T08:56:28.327Z</time></trkpt><trkpt lat="44.1452776" lon="16.4598317"><ele>807.0</ele><time>2026-04-28T08:56:29.327Z</time></trkpt><trkpt lat="44.145221" lon="16.4600569"><ele>807.0</ele><time>2026-04-28T08:56:30.327Z</time></trkpt><trkpt lat="44.145165" lon="16.4602779"><ele>807.0</ele><time>2026-04-28T08:56:31.326Z</time></trkpt><trkpt lat="44.1451148" lon="16.4604861"><ele>807.0</ele><time>2026-04-28T08:56:32.326Z</time></trkpt><trkpt lat="44.1450512" lon="16.4606801"><ele>807.0</ele><time>2026-04-28T08:56:33.326Z</time></trkpt><trkpt lat="44.1449668" lon="16.4608598"><ele>807.0</ele><time>2026-04-28T08:56:34.327Z</time></trkpt><trkpt lat="44.1448673" lon="16.4610492"><ele>807.0</ele><time>2026-04-28T08:56:35.326Z</time></trkpt><trkpt lat="44.1447603" lon="16.4612297"><ele>807.0</ele><time>2026-04-28T08:56:36.326Z</time></trkpt><trkpt lat="44.1446438" lon="16.4614271"><ele>807.0</ele><time>2026-04-28T08:56:37.326Z</time></trkpt><trkpt lat="44.1445152" lon="16.4616293"><ele>806.6666666666667</ele><time>2026-04-28T08:56:38.327Z</time></trkpt><trkpt lat="44.1443872" lon="16.4618376"><ele>806.3333333333334</ele><time>2026-04-28T08:56:39.327Z</time></trkpt><trkpt lat="44.1442763" lon="16.4620313"><ele>806.0</ele><time>2026-04-28T08:56:40.326Z</time></trkpt><trkpt lat="44.1441756" lon="16.4622117"><ele>806.0</ele><time>2026-04-28T08:56:41.326Z</time></trkpt><trkpt lat="44.1440918" lon="16.4623998"><ele>806.0</ele><time>2026-04-28T08:56:42.326Z</time></trkpt><trkpt lat="44.1440192" lon="16.4626101"><ele>806.0</ele><time>2026-04-28T08:56:43.326Z</time></trkpt><trkpt lat="44.1439699" lon="16.4628396"><ele>806.3333333333334</ele><time>2026-04-28T08:56:44.327Z</time></trkpt><trkpt lat="44.1439292" lon="16.4630733"><ele>806.6666666666667</ele><time>2026-04-28T08:56:45.327Z</time></trkpt><trkpt lat="44.1438818" lon="16.4633175"><ele>807.0</ele><time>2026-04-28T08:56:46.326Z</time></trkpt><trkpt lat="44.1438227" lon="16.4635363"><ele>807.0</ele><time>2026-04-28T08:56:47.327Z</time></trkpt><trkpt lat="44.1437469" lon="16.4637316"><ele>807.0</ele><time>2026-04-28T08:56:48.326Z</time></trkpt><trkpt lat="44.1436316" lon="16.463897"><ele>807.0</ele><time>2026-04-28T08:56:49.326Z</time></trkpt><trkpt lat="44.1435001" lon="16.4640396"><ele>806.3333333333333</ele><time>2026-04-28T08:56:50.326Z</time></trkpt><trkpt lat="44.1433579" lon="16.4641858"><ele>805.6666666666666</ele><time>2026-04-28T08:56:51.326Z</time></trkpt><trkpt lat="44.1432121" lon="16.4643443"><ele>805.0</ele><time>2026-04-28T08:56:52.326Z</time></trkpt><trkpt lat="44.1430799" lon="16.4645288"><ele>805.6666666666666</ele><time>2026-04-28T08:56:53.326Z</time></trkpt><trkpt lat="44.1429631" lon="16.4647423"><ele>806.3333333333333</ele><time>2026-04-28T08:56:54.326Z</time></trkpt><trkpt lat="44.1428558" lon="16.4649641"><ele>807.0</ele><time>2026-04-28T08:56:55.326Z</time></trkpt><trkpt lat="44.1427487" lon="16.4651979"><ele>807.0</ele><time>2026-04-28T08:56:56.326Z</time></trkpt><trkpt lat="44.1426399" lon="16.4654346"><ele>807.0</ele><time>2026-04-28T08:56:57.326Z</time></trkpt><trkpt lat="44.1425253" lon="16.4656713"><ele>807.0</ele><time>2026-04-28T08:56:58.326Z</time></trkpt><trkpt lat="44.1424072" lon="16.4659096"><ele>807.0</ele><time>2026-04-28T08:56:59.326Z</time></trkpt><trkpt lat="44.1422798" lon="16.4661393"><ele>807.0</ele><time>2026-04-28T08:57:00.326Z</time></trkpt><trkpt lat="44.1421472" lon="16.4663626"><ele>807.0</ele><time>2026-04-28T08:57:01.326Z</time></trkpt><trkpt lat="44.1420113" lon="16.4665781"><ele>807.3333333333333</ele><time>2026-04-28T08:57:02.326Z</time></trkpt><trkpt lat="44.1418741" lon="16.4667956"><ele>807.6666666666666</ele><time>2026-04-28T08:57:03.326Z</time></trkpt><trkpt lat="44.1417395" lon="16.4670131"><ele>808.0</ele><time>2026-04-28T08:57:04.326Z</time></trkpt><trkpt lat="44.1416044" lon="16.4672393"><ele>807.0</ele><time>2026-04-28T08:57:05.326Z</time></trkpt><trkpt lat="44.1414675" lon="16.467468"><ele>806.0</ele><time>2026-04-28T08:57:06.326Z</time></trkpt><trkpt lat="44.1413294" lon="16.4676895"><ele>805.0</ele><time>2026-04-28T08:57:07.326Z</time></trkpt><trkpt lat="44.1411779" lon="16.4679051"><ele>805.5</ele><time>2026-04-28T08:57:08.326Z</time></trkpt><trkpt lat="44.1410145" lon="16.4681185"><ele>806.0</ele><time>2026-04-28T08:57:09.326Z</time></trkpt><trkpt lat="44.1408455" lon="16.4683277"><ele>805.6666666666667</ele><time>2026-04-28T08:57:10.326Z</time></trkpt><trkpt lat="44.1406776" lon="16.468526"><ele>805.3333333333333</ele><time>2026-04-28T08:57:11.326Z</time></trkpt><trkpt lat="44.1405136" lon="16.4687453"><ele>805.0</ele><time>2026-04-28T08:57:12.327Z</time></trkpt><trkpt lat="44.1403571" lon="16.4689845"><ele>805.0</ele><time>2026-04-28T08:57:13.327Z</time></trkpt><trkpt lat="44.1402121" lon="16.4692414"><ele>805.0</ele><time>2026-04-28T08:57:14.326Z</time></trkpt><trkpt lat="44.1400677" lon="16.4695124"><ele>805.0</ele><time>2026-04-28T08:57:15.326Z</time></trkpt><trkpt lat="44.1399306" lon="16.4697935"><ele>805.0</ele><time>2026-04-28T08:57:16.326Z</time></trkpt><trkpt lat="44.1397873" lon="16.4700669"><ele>804.5</ele><time>2026-04-28T08:57:17.326Z</time></trkpt><trkpt lat="44.1396473" lon="16.4703467"><ele>804.0</ele><time>2026-04-28T08:57:18.326Z</time></trkpt><trkpt lat="44.1395196" lon="16.4706289"><ele>804.0</ele><time>2026-04-28T08:57:19.327Z</time></trkpt><trkpt lat="44.1393961" lon="16.4709228"><ele>804.0</ele><time>2026-04-28T08:57:20.326Z</time></trkpt><trkpt lat="44.1392826" lon="16.4712187"><ele>803.5</ele><time>2026-04-28T08:57:21.327Z</time></trkpt><trkpt lat="44.1391748" lon="16.4715253"><ele>803.0</ele><time>2026-04-28T08:57:22.327Z</time></trkpt><trkpt lat="44.1390736" lon="16.4718306"><ele>803.0</ele><time>2026-04-28T08:57:23.326Z</time></trkpt><trkpt lat="44.1389666" lon="16.4721411"><ele>803.0</ele><time>2026-04-28T08:57:24.326Z</time></trkpt><trkpt lat="44.1388529" lon="16.4724339"><ele>803.0</ele><time>2026-04-28T08:57:25.327Z</time></trkpt><trkpt lat="44.1387247" lon="16.4727044"><ele>803.0</ele><time>2026-04-28T08:57:26.326Z</time></trkpt><trkpt lat="44.1385809" lon="16.4729465"><ele>802.0</ele><time>2026-04-28T08:57:27.326Z</time></trkpt><trkpt lat="44.1384152" lon="16.4731562"><ele>801.0</ele><time>2026-04-28T08:57:28.326Z</time></trkpt><trkpt lat="44.1382213" lon="16.4733289"><ele>802.5</ele><time>2026-04-28T08:57:29.327Z</time></trkpt><trkpt lat="44.1380136" lon="16.4734808"><ele>804.0</ele><time>2026-04-28T08:57:30.327Z</time></trkpt><trkpt lat="44.1378027" lon="16.4736163"><ele>804.0</ele><time>2026-04-28T08:57:31.326Z</time></trkpt><trkpt lat="44.1375977" lon="16.4737634"><ele>804.0</ele><time>2026-04-28T08:57:32.327Z</time></trkpt><trkpt lat="44.1374063" lon="16.4739354"><ele>808.5</ele><time>2026-04-28T08:57:33.326Z</time></trkpt><trkpt lat="44.1372391" lon="16.4741437"><ele>813.0</ele><time>2026-04-28T08:57:34.326Z</time></trkpt><trkpt lat="44.1370846" lon="16.4743786"><ele>809.5</ele><time>2026-04-28T08:57:35.326Z</time></trkpt><trkpt lat="44.1369442" lon="16.4746337"><ele>806.0</ele><time>2026-04-28T08:57:36.326Z</time></trkpt><trkpt lat="44.1368105" lon="16.4748923"><ele>806.0</ele><time>2026-04-28T08:57:37.326Z</time></trkpt><trkpt lat="44.1366705" lon="16.4751433"><ele>806.0</ele><time>2026-04-28T08:57:38.326Z</time></trkpt><trkpt lat="44.1365073" lon="16.4753818"><ele>806.6666666666667</ele><time>2026-04-28T08:57:39.327Z</time></trkpt><trkpt lat="44.1363389" lon="16.4755941"><ele>807.3333333333333</ele><time>2026-04-28T08:57:40.326Z</time></trkpt><trkpt lat="44.1361718" lon="16.4757593"><ele>808.0</ele><time>2026-04-28T08:57:41.326Z</time></trkpt><trkpt lat="44.1359909" lon="16.4759035"><ele>808.0</ele><time>2026-04-28T08:57:42.327Z</time></trkpt><trkpt lat="44.1358022" lon="16.4760271"><ele>808.0</ele><time>2026-04-28T08:57:43.327Z</time></trkpt><trkpt lat="44.1356067" lon="16.4761392"><ele>808.0</ele><time>2026-04-28T08:57:44.326Z</time></trkpt><trkpt lat="44.1354071" lon="16.4762481"><ele>805.5</ele><time>2026-04-28T08:57:45.326Z</time></trkpt><trkpt lat="44.1351936" lon="16.4763287"><ele>803.0</ele><time>2026-04-28T08:57:46.326Z</time></trkpt><trkpt lat="44.1349642" lon="16.476393"><ele>802.3333333333334</ele><time>2026-04-28T08:57:47.326Z</time></trkpt><trkpt lat="44.134759" lon="16.4763496"><ele>801.6666666666667</ele><time>2026-04-28T08:57:48.326Z</time></trkpt><trkpt lat="44.1345555" lon="16.4763033"><ele>801.0</ele><time>2026-04-28T08:57:49.326Z</time></trkpt><trkpt lat="44.1343635" lon="16.4762501"><ele>801.0</ele><time>2026-04-28T08:57:50.326Z</time></trkpt><trkpt lat="44.1341697" lon="16.4762279"><ele>801.0</ele><time>2026-04-28T08:57:51.326Z</time></trkpt><trkpt lat="44.1339818" lon="16.4762458"><ele>801.0</ele><time>2026-04-28T08:57:52.326Z</time></trkpt><trkpt lat="44.1338049" lon="16.4762913"><ele>801.0</ele><time>2026-04-28T08:57:53.326Z</time></trkpt><trkpt lat="44.1336481" lon="16.4763751"><ele>801.0</ele><time>2026-04-28T08:57:54.326Z</time></trkpt><trkpt lat="44.1334895" lon="16.476512"><ele>801.0</ele><time>2026-04-28T08:57:55.326Z</time></trkpt><trkpt lat="44.1333436" lon="16.4766766"><ele>801.0</ele><time>2026-04-28T08:57:56.326Z</time></trkpt><trkpt lat="44.1332246" lon="16.4768822"><ele>801.0</ele><time>2026-04-28T08:57:57.326Z</time></trkpt><trkpt lat="44.1331276" lon="16.4771104"><ele>801.0</ele><time>2026-04-28T08:57:58.327Z</time></trkpt><trkpt lat="44.1330322" lon="16.4773497"><ele>801.0</ele><time>2026-04-28T08:57:59.326Z</time></trkpt><trkpt lat="44.1329456" lon="16.4776015"><ele>801.0</ele><time>2026-04-28T08:58:00.327Z</time></trkpt><trkpt lat="44.1328573" lon="16.4778471"><ele>801.0</ele><time>2026-04-28T08:58:01.326Z</time></trkpt><trkpt lat="44.1327771" lon="16.4780892"><ele>801.0</ele><time>2026-04-28T08:58:02.326Z</time></trkpt><trkpt lat="44.1326866" lon="16.4783453"><ele>801.0</ele><time>2026-04-28T08:58:03.326Z</time></trkpt><trkpt lat="44.1325947" lon="16.4785984"><ele>801.0</ele><time>2026-04-28T08:58:04.326Z</time></trkpt><trkpt lat="44.1325034" lon="16.4788535"><ele>801.0</ele><time>2026-04-28T08:58:05.326Z</time></trkpt><trkpt lat="44.1324138" lon="16.4791204"><ele>801.0</ele><time>2026-04-28T08:58:06.326Z</time></trkpt><trkpt lat="44.1323166" lon="16.4793908"><ele>801.0</ele><time>2026-04-28T08:58:07.326Z</time></trkpt><trkpt lat="44.1322224" lon="16.4796533"><ele>800.6666666666667</ele><time>2026-04-28T08:58:08.326Z</time></trkpt><trkpt lat="44.1321247" lon="16.4799234"><ele>800.3333333333334</ele><time>2026-04-28T08:58:09.326Z</time></trkpt><trkpt lat="44.1320305" lon="16.480191"><ele>800.0</ele><time>2026-04-28T08:58:10.327Z</time></trkpt><trkpt lat="44.1319402" lon="16.4804512"><ele>800.0</ele><time>2026-04-28T08:58:11.327Z</time></trkpt><trkpt lat="44.1318655" lon="16.4807175"><ele>800.0</ele><time>2026-04-28T08:58:12.326Z</time></trkpt><trkpt lat="44.1318166" lon="16.4809775"><ele>800.0</ele><time>2026-04-28T08:58:13.326Z</time></trkpt><trkpt lat="44.1317755" lon="16.4812502"><ele>799.0</ele><time>2026-04-28T08:58:14.326Z</time></trkpt><trkpt lat="44.1317568" lon="16.4815206"><ele>798.0</ele><time>2026-04-28T08:58:15.327Z</time></trkpt><trkpt lat="44.1317657" lon="16.4817901"><ele>797.0</ele><time>2026-04-28T08:58:16.327Z</time></trkpt><trkpt lat="44.131794" lon="16.482063"><ele>797.6666666666667</ele><time>2026-04-28T08:58:17.326Z</time></trkpt><trkpt lat="44.1318384" lon="16.4823389"><ele>798.3333333333333</ele><time>2026-04-28T08:58:18.326Z</time></trkpt><trkpt lat="44.1319045" lon="16.4826105"><ele>799.0</ele><time>2026-04-28T08:58:19.327Z</time></trkpt><trkpt lat="44.131993" lon="16.4828724"><ele>799.6666666666666</ele><time>2026-04-28T08:58:20.326Z</time></trkpt><trkpt lat="44.1320926" lon="16.4831392"><ele>800.3333333333333</ele><time>2026-04-28T08:58:21.326Z</time></trkpt><trkpt lat="44.1321801" lon="16.4834133"><ele>801.0</ele><time>2026-04-28T08:58:22.326Z</time></trkpt><trkpt lat="44.1322712" lon="16.4836788"><ele>801.6666666666667</ele><time>2026-04-28T08:58:23.327Z</time></trkpt><trkpt lat="44.1323318" lon="16.4839264"><ele>802.3333333333334</ele><time>2026-04-28T08:58:24.326Z</time></trkpt><trkpt lat="44.1323762" lon="16.4841781"><ele>803.0</ele><time>2026-04-28T08:58:25.327Z</time></trkpt><trkpt lat="44.1323913" lon="16.4844332"><ele>803.0</ele><time>2026-04-28T08:58:26.326Z</time></trkpt><trkpt lat="44.1323766" lon="16.4846957"><ele>803.0</ele><time>2026-04-28T08:58:27.327Z</time></trkpt><trkpt lat="44.1323368" lon="16.484964"><ele>803.0</ele><time>2026-04-28T08:58:28.327Z</time></trkpt><trkpt lat="44.1322752" lon="16.485223"><ele>803.3333333333334</ele><time>2026-04-28T08:58:29.326Z</time></trkpt><trkpt lat="44.1321962" lon="16.4854638"><ele>803.6666666666667</ele><time>2026-04-28T08:58:30.327Z</time></trkpt><trkpt lat="44.1321216" lon="16.4857168"><ele>804.0</ele><time>2026-04-28T08:58:31.327Z</time></trkpt><trkpt lat="44.1320389" lon="16.4859641"><ele>804.0</ele><time>2026-04-28T08:58:32.326Z</time></trkpt><trkpt lat="44.131957" lon="16.4862091"><ele>804.0</ele><time>2026-04-28T08:58:33.326Z</time></trkpt><trkpt lat="44.1318719" lon="16.4864606"><ele>804.0</ele><time>2026-04-28T08:58:34.326Z</time></trkpt><trkpt lat="44.131787" lon="16.4867188"><ele>804.0</ele><time>2026-04-28T08:58:35.326Z</time></trkpt><trkpt lat="44.1317067" lon="16.4869767"><ele>804.0</ele><time>2026-04-28T08:58:36.326Z</time></trkpt><trkpt lat="44.1316237" lon="16.4872333"><ele>804.0</ele><time>2026-04-28T08:58:37.327Z</time></trkpt><trkpt lat="44.1315474" lon="16.4874839"><ele>804.6666666666667</ele><time>2026-04-28T08:58:38.326Z</time></trkpt><trkpt lat="44.1314734" lon="16.4877399"><ele>805.3333333333334</ele><time>2026-04-28T08:58:39.326Z</time></trkpt><trkpt lat="44.1314033" lon="16.4880002"><ele>806.0</ele><time>2026-04-28T08:58:40.326Z</time></trkpt><trkpt lat="44.1313317" lon="16.4882576"><ele>806.0</ele><time>2026-04-28T08:58:41.326Z</time></trkpt><trkpt lat="44.1312634" lon="16.4885157"><ele>806.0</ele><time>2026-04-28T08:58:42.326Z</time></trkpt><trkpt lat="44.1311933" lon="16.4887728"><ele>806.0</ele><time>2026-04-28T08:58:43.326Z</time></trkpt><trkpt lat="44.1311288" lon="16.4890318"><ele>807.0</ele><time>2026-04-28T08:58:44.326Z</time></trkpt><trkpt lat="44.1310699" lon="16.4892811"><ele>808.0</ele><time>2026-04-28T08:58:45.327Z</time></trkpt><trkpt lat="44.1310111" lon="16.4895255"><ele>809.0</ele><time>2026-04-28T08:58:46.326Z</time></trkpt><trkpt lat="44.1309494" lon="16.4897657"><ele>809.3333333333334</ele><time>2026-04-28T08:58:47.326Z</time></trkpt><trkpt lat="44.1308981" lon="16.489996"><ele>809.6666666666667</ele><time>2026-04-28T08:58:48.327Z</time></trkpt><trkpt lat="44.1308548" lon="16.4902313"><ele>810.0</ele><time>2026-04-28T08:58:49.327Z</time></trkpt><trkpt lat="44.1308211" lon="16.4904847"><ele>810.3333333333333</ele><time>2026-04-28T08:58:50.326Z</time></trkpt><trkpt lat="44.1307948" lon="16.4907425"><ele>810.6666666666666</ele><time>2026-04-28T08:58:51.326Z</time></trkpt><trkpt lat="44.1307736" lon="16.4910053"><ele>811.0</ele><time>2026-04-28T08:58:52.326Z</time></trkpt><trkpt lat="44.1307515" lon="16.4912729"><ele>812.0</ele><time>2026-04-28T08:58:53.326Z</time></trkpt><trkpt lat="44.1307035" lon="16.4915291"><ele>813.0</ele><time>2026-04-28T08:58:54.327Z</time></trkpt><trkpt lat="44.1306287" lon="16.4917787"><ele>814.0</ele><time>2026-04-28T08:58:55.326Z</time></trkpt><trkpt lat="44.1305401" lon="16.4920073"><ele>814.6666666666666</ele><time>2026-04-28T08:58:56.326Z</time></trkpt><trkpt lat="44.1304371" lon="16.4922315"><ele>815.3333333333333</ele><time>2026-04-28T08:58:57.326Z</time></trkpt><trkpt lat="44.1303315" lon="16.4924507"><ele>816.0</ele><time>2026-04-28T08:58:58.326Z</time></trkpt><trkpt lat="44.1302313" lon="16.4926677"><ele>816.0</ele><time>2026-04-28T08:58:59.326Z</time></trkpt><trkpt lat="44.1301368" lon="16.4928822"><ele>816.0</ele><time>2026-04-28T08:59:00.326Z</time></trkpt><trkpt lat="44.1300481" lon="16.4930978"><ele>816.0</ele><time>2026-04-28T08:59:01.327Z</time></trkpt><trkpt lat="44.1299626" lon="16.4933096"><ele>818.3333333333333</ele><time>2026-04-28T08:59:02.326Z</time></trkpt><trkpt lat="44.1298934" lon="16.4935163"><ele>820.6666666666666</ele><time>2026-04-28T08:59:03.326Z</time></trkpt><trkpt lat="44.1298363" lon="16.4937237"><ele>823.0</ele><time>2026-04-28T08:59:04.326Z</time></trkpt><trkpt lat="44.1297828" lon="16.4939351"><ele>824.6666666666666</ele><time>2026-04-28T08:59:05.326Z</time></trkpt><trkpt lat="44.1297318" lon="16.4941435"><ele>826.3333333333333</ele><time>2026-04-28T08:59:06.326Z</time></trkpt><trkpt lat="44.1296891" lon="16.4943564"><ele>828.0</ele><time>2026-04-28T08:59:07.326Z</time></trkpt><trkpt lat="44.1296488" lon="16.4945669"><ele>828.6666666666667</ele><time>2026-04-28T08:59:08.326Z</time></trkpt><trkpt lat="44.1296073" lon="16.4947826"><ele>829.3333333333334</ele><time>2026-04-28T08:59:09.326Z</time></trkpt><trkpt lat="44.1295659" lon="16.4950095"><ele>830.0</ele><time>2026-04-28T08:59:10.326Z</time></trkpt><trkpt lat="44.129521" lon="16.4952348"><ele>831.3333333333334</ele><time>2026-04-28T08:59:11.326Z</time></trkpt><trkpt lat="44.1294784" lon="16.4954674"><ele>832.6666666666667</ele><time>2026-04-28T08:59:12.326Z</time></trkpt><trkpt lat="44.1294315" lon="16.4957022"><ele>834.0</ele><time>2026-04-28T08:59:13.326Z</time></trkpt><trkpt lat="44.1293891" lon="16.495928"><ele>834.0</ele><time>2026-04-28T08:59:14.326Z</time></trkpt><trkpt lat="44.1293444" lon="16.4961403"><ele>834.0</ele><time>2026-04-28T08:59:15.326Z</time></trkpt><trkpt lat="44.1292923" lon="16.4963267"><ele>834.0</ele><time>2026-04-28T08:59:16.326Z</time></trkpt><trkpt lat="44.129241" lon="16.4964881"><ele>834.0</ele><time>2026-04-28T08:59:17.326Z</time></trkpt><trkpt lat="44.1291818" lon="16.4966531"><ele>834.4000000000001</ele><time>2026-04-28T08:59:18.326Z</time></trkpt><trkpt lat="44.1291162" lon="16.4968087"><ele>834.8</ele><time>2026-04-28T08:59:19.326Z</time></trkpt><trkpt lat="44.129049" lon="16.4969342"><ele>835.2</ele><time>2026-04-28T08:59:20.326Z</time></trkpt><trkpt lat="44.1289801" lon="16.4970404"><ele>835.5999999999999</ele><time>2026-04-28T08:59:21.326Z</time></trkpt><trkpt lat="44.1289181" lon="16.4971269"><ele>836.0</ele><time>2026-04-28T08:59:22.326Z</time></trkpt><trkpt lat="44.1288599" lon="16.4972048"><ele>836.6666666666667</ele><time>2026-04-28T08:59:23.327Z</time></trkpt><trkpt lat="44.1288123" lon="16.4972634"><ele>837.3333333333334</ele><time>2026-04-28T08:59:24.326Z</time></trkpt><trkpt lat="44.1287627" lon="16.4973179"><ele>838.0</ele><time>2026-04-28T08:59:25.326Z</time></trkpt><trkpt lat="44.1286915" lon="16.4974105"><ele>838.6666666666667</ele><time>2026-04-28T08:59:27.327Z</time></trkpt><trkpt lat="44.1286533" lon="16.4974926"><ele>839.3333333333334</ele><time>2026-04-28T09:00:30.327Z</time></trkpt><trkpt lat="44.1287216" lon="16.4974268"><ele>840.0</ele><time>2026-04-28T09:00:43.326Z</time></trkpt><trkpt lat="44.1287835" lon="16.4973337"><ele>840.0</ele><time>2026-04-28T09:00:45.327Z</time></trkpt><trkpt lat="44.1288609" lon="16.4973266"><ele>840.0</ele><time>2026-04-28T09:00:47.326Z</time></trkpt><trkpt lat="44.1288938" lon="16.4974392"><ele>840.0</ele><time>2026-04-28T09:00:50.327Z</time></trkpt><trkpt lat="44.128887" lon="16.4976206"><ele>840.0</ele><time>2026-04-28T09:00:52.326Z</time></trkpt><trkpt lat="44.1288817" lon="16.4977248"><ele>840.0</ele><time>2026-04-28T09:00:53.326Z</time></trkpt><trkpt lat="44.1288814" lon="16.497866"><ele>840.5</ele><time>2026-04-28T09:00:54.326Z</time></trkpt><trkpt lat="44.1288834" lon="16.4980327"><ele>841.0</ele><time>2026-04-28T09:00:55.327Z</time></trkpt><trkpt lat="44.1289049" lon="16.4982027"><ele>841.5</ele><time>2026-04-28T09:00:56.326Z</time></trkpt><trkpt lat="44.1289399" lon="16.4983831"><ele>842.0</ele><time>2026-04-28T09:00:57.326Z</time></trkpt><trkpt lat="44.128985" lon="16.4985566"><ele>842.0</ele><time>2026-04-28T09:00:58.326Z</time></trkpt><trkpt lat="44.1290443" lon="16.4987265"><ele>842.0</ele><time>2026-04-28T09:00:59.326Z</time></trkpt><trkpt lat="44.1291232" lon="16.4988893"><ele>842.0</ele><time>2026-04-28T09:01:00.326Z</time></trkpt><trkpt lat="44.1292058" lon="16.499056"><ele>842.0</ele><time>2026-04-28T09:01:01.327Z</time></trkpt><trkpt lat="44.1292927" lon="16.4992247"><ele>844.3333333333334</ele><time>2026-04-28T09:01:02.326Z</time></trkpt><trkpt lat="44.1293784" lon="16.4993971"><ele>846.6666666666667</ele><time>2026-04-28T09:01:03.326Z</time></trkpt><trkpt lat="44.1294697" lon="16.4995804"><ele>849.0</ele><time>2026-04-28T09:01:04.327Z</time></trkpt><trkpt lat="44.1295513" lon="16.499784"><ele>849.6666666666667</ele><time>2026-04-28T09:01:05.326Z</time></trkpt><trkpt lat="44.1296207" lon="16.4999948"><ele>850.3333333333334</ele><time>2026-04-28T09:01:06.326Z</time></trkpt><trkpt lat="44.1296826" lon="16.5002092"><ele>851.0</ele><time>2026-04-28T09:01:07.326Z</time></trkpt><trkpt lat="44.1297363" lon="16.5004477"><ele>852.0</ele><time>2026-04-28T09:01:08.327Z</time></trkpt><trkpt lat="44.129782" lon="16.5006875"><ele>853.0</ele><time>2026-04-28T09:01:09.327Z</time></trkpt><trkpt lat="44.1298269" lon="16.5009233"><ele>854.0</ele><time>2026-04-28T09:01:10.326Z</time></trkpt><trkpt lat="44.1298685" lon="16.5011588"><ele>849.3333333333334</ele><time>2026-04-28T09:01:11.326Z</time></trkpt><trkpt lat="44.1299212" lon="16.5013775"><ele>844.6666666666667</ele><time>2026-04-28T09:01:12.327Z</time></trkpt><trkpt lat="44.1299852" lon="16.5015928"><ele>840.0</ele><time>2026-04-28T09:01:13.326Z</time></trkpt><trkpt lat="44.1300673" lon="16.5018006"><ele>840.0</ele><time>2026-04-28T09:01:14.327Z</time></trkpt><trkpt lat="44.1301643" lon="16.5020107"><ele>840.0</ele><time>2026-04-28T09:01:15.326Z</time></trkpt><trkpt lat="44.1302699" lon="16.5022173"><ele>840.0</ele><time>2026-04-28T09:01:16.326Z</time></trkpt><trkpt lat="44.1303801" lon="16.5024199"><ele>839.6666666666667</ele><time>2026-04-28T09:01:17.327Z</time></trkpt><trkpt lat="44.1304941" lon="16.5026292"><ele>839.3333333333334</ele><time>2026-04-28T09:01:18.326Z</time></trkpt><trkpt lat="44.1306023" lon="16.5028333"><ele>839.0</ele><time>2026-04-28T09:01:19.327Z</time></trkpt><trkpt lat="44.1307081" lon="16.5030451"><ele>835.3333333333334</ele><time>2026-04-28T09:01:20.326Z</time></trkpt><trkpt lat="44.1308082" lon="16.5032669"><ele>831.6666666666667</ele><time>2026-04-28T09:01:21.326Z</time></trkpt><trkpt lat="44.1308989" lon="16.503494"><ele>828.0</ele><time>2026-04-28T09:01:22.326Z</time></trkpt><trkpt lat="44.1309906" lon="16.5037205"><ele>827.6666666666667</ele><time>2026-04-28T09:01:23.326Z</time></trkpt><trkpt lat="44.1310816" lon="16.5039466"><ele>827.3333333333334</ele><time>2026-04-28T09:01:24.326Z</time></trkpt><trkpt lat="44.131165" lon="16.5041637"><ele>827.0</ele><time>2026-04-28T09:01:25.326Z</time></trkpt><trkpt lat="44.1312455" lon="16.5043734"><ele>827.0</ele><time>2026-04-28T09:01:26.326Z</time></trkpt><trkpt lat="44.1313179" lon="16.5045751"><ele>827.0</ele><time>2026-04-28T09:01:27.326Z</time></trkpt><trkpt lat="44.1313891" lon="16.5047779"><ele>827.0</ele><time>2026-04-28T09:01:28.326Z</time></trkpt><trkpt lat="44.1314608" lon="16.504977"><ele>826.0</ele><time>2026-04-28T09:01:29.326Z</time></trkpt><trkpt lat="44.1315338" lon="16.5051685"><ele>825.0</ele><time>2026-04-28T09:01:30.327Z</time></trkpt><trkpt lat="44.1316024" lon="16.5053539"><ele>824.0</ele><time>2026-04-28T09:01:31.326Z</time></trkpt><trkpt lat="44.1316678" lon="16.5055303"><ele>823.0</ele><time>2026-04-28T09:01:32.326Z</time></trkpt><trkpt lat="44.131734" lon="16.5057029"><ele>821.75</ele><time>2026-04-28T09:01:33.327Z</time></trkpt><trkpt lat="44.1317951" lon="16.5058766"><ele>820.5</ele><time>2026-04-28T09:01:34.326Z</time></trkpt><trkpt lat="44.1318527" lon="16.5060546"><ele>819.25</ele><time>2026-04-28T09:01:35.326Z</time></trkpt><trkpt lat="44.1318968" lon="16.5062329"><ele>818.0</ele><time>2026-04-28T09:01:36.327Z</time></trkpt><trkpt lat="44.1319285" lon="16.5064269"><ele>816.6666666666667</ele><time>2026-04-28T09:01:37.327Z</time></trkpt><trkpt lat="44.1319468" lon="16.5066335"><ele>815.3333333333333</ele><time>2026-04-28T09:01:38.326Z</time></trkpt><trkpt lat="44.1319488" lon="16.5068512"><ele>814.0</ele><time>2026-04-28T09:01:39.326Z</time></trkpt><trkpt lat="44.1319326" lon="16.5070645"><ele>813.0</ele><time>2026-04-28T09:01:40.327Z</time></trkpt><trkpt lat="44.1318959" lon="16.5072806"><ele>812.0</ele><time>2026-04-28T09:01:41.327Z</time></trkpt><trkpt lat="44.1318377" lon="16.5075035"><ele>811.0</ele><time>2026-04-28T09:01:42.322Z</time></trkpt><trkpt lat="44.1317711" lon="16.5077323"><ele>810.0</ele><time>2026-04-28T09:01:43.327Z</time></trkpt><trkpt lat="44.1317024" lon="16.5079743"><ele>809.0</ele><time>2026-04-28T09:01:44.327Z</time></trkpt><trkpt lat="44.131625" lon="16.5082129"><ele>808.0</ele><time>2026-04-28T09:01:45.326Z</time></trkpt><trkpt lat="44.1315444" lon="16.5084664"><ele>807.6666666666666</ele><time>2026-04-28T09:01:46.326Z</time></trkpt><trkpt lat="44.1314634" lon="16.5087174"><ele>807.3333333333333</ele><time>2026-04-28T09:01:47.327Z</time></trkpt><trkpt lat="44.1313809" lon="16.5089755"><ele>807.0</ele><time>2026-04-28T09:01:48.326Z</time></trkpt><trkpt lat="44.1312979" lon="16.5092401"><ele>807.0</ele><time>2026-04-28T09:01:49.326Z</time></trkpt><trkpt lat="44.1312232" lon="16.5095015"><ele>807.0</ele><time>2026-04-28T09:01:50.326Z</time></trkpt><trkpt lat="44.1311385" lon="16.5097679"><ele>807.0</ele><time>2026-04-28T09:01:51.326Z</time></trkpt><trkpt lat="44.1310636" lon="16.5100278"><ele>806.3333333333333</ele><time>2026-04-28T09:01:52.326Z</time></trkpt><trkpt lat="44.1309832" lon="16.5102944"><ele>805.6666666666666</ele><time>2026-04-28T09:01:53.326Z</time></trkpt><trkpt lat="44.1308981" lon="16.5105627"><ele>805.0</ele><time>2026-04-28T09:01:54.327Z</time></trkpt><trkpt lat="44.1308152" lon="16.5108249"><ele>804.6666666666666</ele><time>2026-04-28T09:01:55.326Z</time></trkpt><trkpt lat="44.1307327" lon="16.5110931"><ele>804.3333333333333</ele><time>2026-04-28T09:01:56.326Z</time></trkpt><trkpt lat="44.1306474" lon="16.5113603"><ele>804.0</ele><time>2026-04-28T09:01:57.326Z</time></trkpt><trkpt lat="44.1305607" lon="16.5116212"><ele>804.0</ele><time>2026-04-28T09:01:58.326Z</time></trkpt><trkpt lat="44.130457" lon="16.5118698"><ele>804.0</ele><time>2026-04-28T09:01:59.326Z</time></trkpt><trkpt lat="44.1303333" lon="16.5121072"><ele>804.0</ele><time>2026-04-28T09:02:00.327Z</time></trkpt><trkpt lat="44.1302054" lon="16.5123266"><ele>804.6666666666667</ele><time>2026-04-28T09:02:01.327Z</time></trkpt><trkpt lat="44.130062" lon="16.5125391"><ele>805.3333333333334</ele><time>2026-04-28T09:02:02.326Z</time></trkpt><trkpt lat="44.129918" lon="16.5127396"><ele>806.0</ele><time>2026-04-28T09:02:03.327Z</time></trkpt><trkpt lat="44.1297741" lon="16.5129435"><ele>807.0</ele><time>2026-04-28T09:02:04.326Z</time></trkpt><trkpt lat="44.1296303" lon="16.5131523"><ele>808.0</ele><time>2026-04-28T09:02:05.326Z</time></trkpt><trkpt lat="44.1294851" lon="16.5133605"><ele>809.0</ele><time>2026-04-28T09:02:06.327Z</time></trkpt><trkpt lat="44.1293375" lon="16.5135671"><ele>809.3333333333334</ele><time>2026-04-28T09:02:07.326Z</time></trkpt><trkpt lat="44.1291886" lon="16.5137718"><ele>809.6666666666667</ele><time>2026-04-28T09:02:08.326Z</time></trkpt><trkpt lat="44.1290384" lon="16.5139718"><ele>810.0</ele><time>2026-04-28T09:02:09.327Z</time></trkpt><trkpt lat="44.1288888" lon="16.5141715"><ele>811.3333333333333</ele><time>2026-04-28T09:02:10.326Z</time></trkpt><trkpt lat="44.1287433" lon="16.51437"><ele>812.6666666666666</ele><time>2026-04-28T09:02:11.326Z</time></trkpt><trkpt lat="44.1285965" lon="16.5145745"><ele>814.0</ele><time>2026-04-28T09:02:12.326Z</time></trkpt><trkpt lat="44.1284464" lon="16.5147782"><ele>814.6666666666666</ele><time>2026-04-28T09:02:13.326Z</time></trkpt><trkpt lat="44.1283021" lon="16.5149831"><ele>815.3333333333333</ele><time>2026-04-28T09:02:14.326Z</time></trkpt><trkpt lat="44.1281643" lon="16.5152032"><ele>816.0</ele><time>2026-04-28T09:02:15.326Z</time></trkpt><trkpt lat="44.1280363" lon="16.515418"><ele>817.6666666666667</ele><time>2026-04-28T09:02:16.327Z</time></trkpt><trkpt lat="44.1279118" lon="16.5156388"><ele>819.3333333333334</ele><time>2026-04-28T09:02:17.326Z</time></trkpt><trkpt lat="44.1277952" lon="16.5158694"><ele>821.0</ele><time>2026-04-28T09:02:18.326Z</time></trkpt><trkpt lat="44.1276804" lon="16.5161057"><ele>821.0</ele><time>2026-04-28T09:02:19.326Z</time></trkpt><trkpt lat="44.1275677" lon="16.5163486"><ele>821.0</ele><time>2026-04-28T09:02:20.326Z</time></trkpt><trkpt lat="44.1274538" lon="16.5165885"><ele>821.0</ele><time>2026-04-28T09:02:21.327Z</time></trkpt><trkpt lat="44.1273476" lon="16.5168273"><ele>821.3333333333334</ele><time>2026-04-28T09:02:22.326Z</time></trkpt><trkpt lat="44.1272409" lon="16.5170664"><ele>821.6666666666667</ele><time>2026-04-28T09:02:23.326Z</time></trkpt><trkpt lat="44.1271354" lon="16.5173059"><ele>822.0</ele><time>2026-04-28T09:02:24.326Z</time></trkpt><trkpt lat="44.1270379" lon="16.5175559"><ele>824.0</ele><time>2026-04-28T09:02:25.326Z</time></trkpt><trkpt lat="44.126946" lon="16.5178146"><ele>826.0</ele><time>2026-04-28T09:02:26.326Z</time></trkpt><trkpt lat="44.1268622" lon="16.5180839"><ele>828.0</ele><time>2026-04-28T09:02:27.326Z</time></trkpt><trkpt lat="44.1267935" lon="16.5183482"><ele>828.3333333333333</ele><time>2026-04-28T09:02:28.326Z</time></trkpt><trkpt lat="44.126724" lon="16.5186235"><ele>828.6666666666666</ele><time>2026-04-28T09:02:29.326Z</time></trkpt><trkpt lat="44.126657" lon="16.5188891"><ele>829.0</ele><time>2026-04-28T09:02:30.326Z</time></trkpt><trkpt lat="44.1265812" lon="16.5191594"><ele>829.3333333333333</ele><time>2026-04-28T09:02:31.326Z</time></trkpt><trkpt lat="44.1264936" lon="16.5194262"><ele>829.6666666666667</ele><time>2026-04-28T09:02:32.327Z</time></trkpt><trkpt lat="44.1264014" lon="16.51969"><ele>830.0</ele><time>2026-04-28T09:02:33.326Z</time></trkpt><trkpt lat="44.1263104" lon="16.5199445"><ele>830.0</ele><time>2026-04-28T09:02:34.326Z</time></trkpt><trkpt lat="44.12621" lon="16.5201948"><ele>830.0</ele><time>2026-04-28T09:02:35.326Z</time></trkpt><trkpt lat="44.126115" lon="16.5204464"><ele>830.0</ele><time>2026-04-28T09:02:36.327Z</time></trkpt><trkpt lat="44.1260142" lon="16.5206982"><ele>832.0</ele><time>2026-04-28T09:02:37.326Z</time></trkpt><trkpt lat="44.1259104" lon="16.5209486"><ele>834.0</ele><time>2026-04-28T09:02:38.326Z</time></trkpt><trkpt lat="44.1258106" lon="16.5212131"><ele>836.0</ele><time>2026-04-28T09:02:39.327Z</time></trkpt><trkpt lat="44.1257119" lon="16.5214672"><ele>836.0</ele><time>2026-04-28T09:02:40.327Z</time></trkpt><trkpt lat="44.1256129" lon="16.5217142"><ele>836.0</ele><time>2026-04-28T09:02:41.326Z</time></trkpt><trkpt lat="44.1255122" lon="16.5219702"><ele>836.0</ele><time>2026-04-28T09:02:42.326Z</time></trkpt><trkpt lat="44.1254174" lon="16.5222249"><ele>837.0</ele><time>2026-04-28T09:02:43.327Z</time></trkpt><trkpt lat="44.1253218" lon="16.5224923"><ele>838.0</ele><time>2026-04-28T09:02:44.327Z</time></trkpt><trkpt lat="44.1252335" lon="16.5227635"><ele>839.0</ele><time>2026-04-28T09:02:45.327Z</time></trkpt><trkpt lat="44.1251444" lon="16.5230397"><ele>839.6666666666667</ele><time>2026-04-28T09:02:46.327Z</time></trkpt><trkpt lat="44.1250576" lon="16.523312"><ele>840.3333333333333</ele><time>2026-04-28T09:02:47.326Z</time></trkpt><trkpt lat="44.1249688" lon="16.5235845"><ele>841.0</ele><time>2026-04-28T09:02:48.326Z</time></trkpt><trkpt lat="44.1248766" lon="16.5238524"><ele>841.6666666666666</ele><time>2026-04-28T09:02:49.326Z</time></trkpt><trkpt lat="44.1247887" lon="16.5241156"><ele>842.3333333333333</ele><time>2026-04-28T09:02:50.326Z</time></trkpt><trkpt lat="44.1247041" lon="16.5243797"><ele>843.0</ele><time>2026-04-28T09:02:51.326Z</time></trkpt><trkpt lat="44.1246189" lon="16.524638"><ele>844.0</ele><time>2026-04-28T09:02:52.327Z</time></trkpt><trkpt lat="44.1245306" lon="16.5248998"><ele>845.0</ele><time>2026-04-28T09:02:53.327Z</time></trkpt><trkpt lat="44.124444" lon="16.5251607"><ele>846.0</ele><time>2026-04-28T09:02:54.327Z</time></trkpt><trkpt lat="44.1243619" lon="16.5254206"><ele>847.0</ele><time>2026-04-28T09:02:55.326Z</time></trkpt><trkpt lat="44.1242812" lon="16.5256785"><ele>848.0</ele><time>2026-04-28T09:02:56.326Z</time></trkpt><trkpt lat="44.1242062" lon="16.5259499"><ele>849.0</ele><time>2026-04-28T09:02:57.326Z</time></trkpt><trkpt lat="44.1241363" lon="16.5262227"><ele>850.0</ele><time>2026-04-28T09:02:58.326Z</time></trkpt><trkpt lat="44.1240687" lon="16.5264925"><ele>851.0</ele><time>2026-04-28T09:02:59.327Z</time></trkpt><trkpt lat="44.12399" lon="16.5267593"><ele>852.0</ele><time>2026-04-28T09:03:00.326Z</time></trkpt><trkpt lat="44.1239011" lon="16.5270175"><ele>853.6666666666667</ele><time>2026-04-28T09:03:01.326Z</time></trkpt><trkpt lat="44.1237973" lon="16.5272714"><ele>855.3333333333334</ele><time>2026-04-28T09:03:02.326Z</time></trkpt><trkpt lat="44.1236907" lon="16.5275248"><ele>857.0</ele><time>2026-04-28T09:03:03.326Z</time></trkpt><trkpt lat="44.1235847" lon="16.5277704"><ele>858.6666666666667</ele><time>2026-04-28T09:03:04.326Z</time></trkpt><trkpt lat="44.123482" lon="16.5280193"><ele>860.3333333333333</ele><time>2026-04-28T09:03:05.326Z</time></trkpt><trkpt lat="44.1233808" lon="16.5282783"><ele>862.0</ele><time>2026-04-28T09:03:06.326Z</time></trkpt><trkpt lat="44.1232781" lon="16.5285387"><ele>863.3333333333333</ele><time>2026-04-28T09:03:07.326Z</time></trkpt><trkpt lat="44.1231787" lon="16.5288042"><ele>864.6666666666667</ele><time>2026-04-28T09:03:08.327Z</time></trkpt><trkpt lat="44.1230876" lon="16.5290685"><ele>866.0</ele><time>2026-04-28T09:03:09.326Z</time></trkpt><trkpt lat="44.122998" lon="16.5293126"><ele>866.0</ele><time>2026-04-28T09:03:10.327Z</time></trkpt><trkpt lat="44.1229157" lon="16.529534"><ele>866.0</ele><time>2026-04-28T09:03:11.326Z</time></trkpt><trkpt lat="44.1228195" lon="16.5297317"><ele>866.0</ele><time>2026-04-28T09:03:12.326Z</time></trkpt><trkpt lat="44.1227126" lon="16.5299063"><ele>866.6666666666667</ele><time>2026-04-28T09:03:13.327Z</time></trkpt><trkpt lat="44.1225853" lon="16.5300801"><ele>867.3333333333333</ele><time>2026-04-28T09:03:14.326Z</time></trkpt><trkpt lat="44.1224489" lon="16.5302394"><ele>868.0</ele><time>2026-04-28T09:03:15.327Z</time></trkpt><trkpt lat="44.1223035" lon="16.530407"><ele>868.3333333333333</ele><time>2026-04-28T09:03:16.327Z</time></trkpt><trkpt lat="44.1221599" lon="16.5305849"><ele>868.6666666666667</ele><time>2026-04-28T09:03:17.326Z</time></trkpt><trkpt lat="44.1220154" lon="16.5307653"><ele>869.0</ele><time>2026-04-28T09:03:18.326Z</time></trkpt><trkpt lat="44.1218842" lon="16.5309539"><ele>869.0</ele><time>2026-04-28T09:03:19.326Z</time></trkpt><trkpt lat="44.1217475" lon="16.5311707"><ele>869.0</ele><time>2026-04-28T09:03:20.326Z</time></trkpt><trkpt lat="44.1216216" lon="16.5313908"><ele>869.0</ele><time>2026-04-28T09:03:21.326Z</time></trkpt><trkpt lat="44.1214967" lon="16.5316146"><ele>869.0</ele><time>2026-04-28T09:03:22.326Z</time></trkpt><trkpt lat="44.1213652" lon="16.531839"><ele>869.0</ele><time>2026-04-28T09:03:23.326Z</time></trkpt><trkpt lat="44.1212373" lon="16.5320582"><ele>869.0</ele><time>2026-04-28T09:03:24.327Z</time></trkpt><trkpt lat="44.1211133" lon="16.5322795"><ele>869.6666666666667</ele><time>2026-04-28T09:03:25.326Z</time></trkpt><trkpt lat="44.1209964" lon="16.5324985"><ele>870.3333333333333</ele><time>2026-04-28T09:03:26.327Z</time></trkpt><trkpt lat="44.1208802" lon="16.5327264"><ele>871.0</ele><time>2026-04-28T09:03:27.326Z</time></trkpt><trkpt lat="44.1207688" lon="16.5329525"><ele>871.6666666666666</ele><time>2026-04-28T09:03:28.327Z</time></trkpt><trkpt lat="44.1206661" lon="16.5331673"><ele>872.3333333333333</ele><time>2026-04-28T09:03:29.326Z</time></trkpt><trkpt lat="44.120576" lon="16.5333652"><ele>873.0</ele><time>2026-04-28T09:03:30.326Z</time></trkpt><trkpt lat="44.1204849" lon="16.5335524"><ele>873.6666666666667</ele><time>2026-04-28T09:03:31.326Z</time></trkpt><trkpt lat="44.1203942" lon="16.5337308"><ele>874.3333333333334</ele><time>2026-04-28T09:03:32.327Z</time></trkpt><trkpt lat="44.1202981" lon="16.5339066"><ele>875.0</ele><time>2026-04-28T09:03:33.326Z</time></trkpt><trkpt lat="44.1201842" lon="16.5340832"><ele>875.0</ele><time>2026-04-28T09:03:34.326Z</time></trkpt><trkpt lat="44.120067" lon="16.534247"><ele>875.0</ele><time>2026-04-28T09:03:35.327Z</time></trkpt><trkpt lat="44.1199515" lon="16.5344244"><ele>875.0</ele><time>2026-04-28T09:03:36.326Z</time></trkpt><trkpt lat="44.1198345" lon="16.5346043"><ele>874.6666666666667</ele><time>2026-04-28T09:03:37.326Z</time></trkpt><trkpt lat="44.1197218" lon="16.5347936"><ele>874.3333333333333</ele><time>2026-04-28T09:03:38.326Z</time></trkpt><trkpt lat="44.1196141" lon="16.5349733"><ele>874.0</ele><time>2026-04-28T09:03:39.326Z</time></trkpt><trkpt lat="44.1195192" lon="16.5351434"><ele>874.0</ele><time>2026-04-28T09:03:40.326Z</time></trkpt><trkpt lat="44.1194262" lon="16.5353083"><ele>874.0</ele><time>2026-04-28T09:03:41.327Z</time></trkpt><trkpt lat="44.1193411" lon="16.5354683"><ele>874.0</ele><time>2026-04-28T09:03:42.326Z</time></trkpt><trkpt lat="44.1192525" lon="16.5356292"><ele>874.0</ele><time>2026-04-28T09:03:43.326Z</time></trkpt><trkpt lat="44.1191609" lon="16.5358145"><ele>874.0</ele><time>2026-04-28T09:03:44.326Z</time></trkpt><trkpt lat="44.119062" lon="16.5360049"><ele>874.0</ele><time>2026-04-28T09:03:45.326Z</time></trkpt><trkpt lat="44.1189528" lon="16.5361875"><ele>874.0</ele><time>2026-04-28T09:03:46.327Z</time></trkpt><trkpt lat="44.1188433" lon="16.5363449"><ele>873.6666666666666</ele><time>2026-04-28T09:03:47.326Z</time></trkpt><trkpt lat="44.1186991" lon="16.5364654"><ele>873.3333333333333</ele><time>2026-04-28T09:03:48.326Z</time></trkpt><trkpt lat="44.1185412" lon="16.5365663"><ele>873.0</ele><time>2026-04-28T09:03:49.326Z</time></trkpt><trkpt lat="44.118363" lon="16.5366584"><ele>871.6666666666667</ele><time>2026-04-28T09:03:50.327Z</time></trkpt><trkpt lat="44.1181762" lon="16.536755"><ele>870.3333333333334</ele><time>2026-04-28T09:03:51.327Z</time></trkpt><trkpt lat="44.1179828" lon="16.5368441"><ele>869.0</ele><time>2026-04-28T09:03:52.326Z</time></trkpt><trkpt lat="44.117784" lon="16.5369396"><ele>869.0</ele><time>2026-04-28T09:03:53.326Z</time></trkpt><trkpt lat="44.1175909" lon="16.5370326"><ele>869.0</ele><time>2026-04-28T09:03:54.326Z</time></trkpt><trkpt lat="44.1174026" lon="16.5371216"><ele>869.0</ele><time>2026-04-28T09:03:55.327Z</time></trkpt><trkpt lat="44.117221" lon="16.5372066"><ele>869.0</ele><time>2026-04-28T09:03:56.326Z</time></trkpt><trkpt lat="44.1170422" lon="16.5372845"><ele>869.0</ele><time>2026-04-28T09:03:57.326Z</time></trkpt><trkpt lat="44.1168632" lon="16.5373566"><ele>869.0</ele><time>2026-04-28T09:03:58.327Z</time></trkpt><trkpt lat="44.1166833" lon="16.5374185"><ele>867.3333333333334</ele><time>2026-04-28T09:03:59.326Z</time></trkpt><trkpt lat="44.1165018" lon="16.537477"><ele>865.6666666666667</ele><time>2026-04-28T09:04:00.327Z</time></trkpt><trkpt lat="44.1163312" lon="16.5375367"><ele>864.0</ele><time>2026-04-28T09:04:01.326Z</time></trkpt><trkpt lat="44.1161623" lon="16.5376011"><ele>864.0</ele><time>2026-04-28T09:04:02.326Z</time></trkpt><trkpt lat="44.1160021" lon="16.5376734"><ele>864.0</ele><time>2026-04-28T09:04:03.326Z</time></trkpt><trkpt lat="44.1158552" lon="16.5377566"><ele>864.0</ele><time>2026-04-28T09:04:04.326Z</time></trkpt><trkpt lat="44.1157087" lon="16.5378533"><ele>862.6666666666667</ele><time>2026-04-28T09:04:05.326Z</time></trkpt><trkpt lat="44.1155615" lon="16.5379623"><ele>861.3333333333334</ele><time>2026-04-28T09:04:06.326Z</time></trkpt><trkpt lat="44.1154153" lon="16.5380933"><ele>860.0</ele><time>2026-04-28T09:04:07.326Z</time></trkpt><trkpt lat="44.115271" lon="16.5382299"><ele>860.0</ele><time>2026-04-28T09:04:08.326Z</time></trkpt><trkpt lat="44.1151276" lon="16.5383727"><ele>860.0</ele><time>2026-04-28T09:04:09.326Z</time></trkpt><trkpt lat="44.1149851" lon="16.5385251"><ele>860.0</ele><time>2026-04-28T09:04:10.327Z</time></trkpt><trkpt lat="44.1148382" lon="16.5386766"><ele>860.3333333333334</ele><time>2026-04-28T09:04:11.326Z</time></trkpt><trkpt lat="44.1146974" lon="16.5388223"><ele>860.6666666666667</ele><time>2026-04-28T09:04:12.327Z</time></trkpt><trkpt lat="44.1145602" lon="16.5389613"><ele>861.0</ele><time>2026-04-28T09:04:13.326Z</time></trkpt><trkpt lat="44.1144293" lon="16.5391006"><ele>861.0</ele><time>2026-04-28T09:04:14.326Z</time></trkpt><trkpt lat="44.1143036" lon="16.5392299"><ele>861.0</ele><time>2026-04-28T09:04:15.326Z</time></trkpt><trkpt lat="44.1141783" lon="16.5393665"><ele>861.0</ele><time>2026-04-28T09:04:16.326Z</time></trkpt><trkpt lat="44.1140582" lon="16.5394901"><ele>859.8</ele><time>2026-04-28T09:04:17.326Z</time></trkpt><trkpt lat="44.1139459" lon="16.5395963"><ele>858.5999999999999</ele><time>2026-04-28T09:04:18.326Z</time></trkpt><trkpt lat="44.1138468" lon="16.539701"><ele>857.4</ele><time>2026-04-28T09:04:19.327Z</time></trkpt><trkpt lat="44.1137676" lon="16.5397812"><ele>856.2</ele><time>2026-04-28T09:04:20.327Z</time></trkpt><trkpt lat="44.1137059" lon="16.5398416"><ele>855.0</ele><time>2026-04-28T09:04:21.326Z</time></trkpt><trkpt lat="44.1136385" lon="16.5398434"><ele>855.0</ele><time>2026-04-28T09:04:23.327Z</time></trkpt><trkpt lat="44.1135814" lon="16.5397886"><ele>855.0</ele><time>2026-04-28T09:04:25.327Z</time></trkpt><trkpt lat="44.1135491" lon="16.5397077"><ele>855.0</ele><time>2026-04-28T09:04:27.326Z</time></trkpt><trkpt lat="44.1134796" lon="16.5396473"><ele>855.0</ele><time>2026-04-28T09:04:30.327Z</time></trkpt><trkpt lat="44.1134007" lon="16.5396238"><ele>855.0</ele><time>2026-04-28T09:04:32.326Z</time></trkpt><trkpt lat="44.1133065" lon="16.5396076"><ele>855.0</ele><time>2026-04-28T09:04:34.326Z</time></trkpt><trkpt lat="44.1132133" lon="16.5395474"><ele>855.0</ele><time>2026-04-28T09:04:36.326Z</time></trkpt><trkpt lat="44.1131247" lon="16.5394792"><ele>855.0</ele><time>2026-04-28T09:04:38.326Z</time></trkpt><trkpt lat="44.1130216" lon="16.5394122"><ele>855.0</ele><time>2026-04-28T09:04:40.327Z</time></trkpt><trkpt lat="44.1129187" lon="16.5393515"><ele>855.0</ele><time>2026-04-28T09:04:42.327Z</time></trkpt><trkpt lat="44.1128078" lon="16.5392884"><ele>855.0</ele><time>2026-04-28T09:04:44.327Z</time></trkpt><trkpt lat="44.112705" lon="16.53923"><ele>855.0</ele><time>2026-04-28T09:04:46.326Z</time></trkpt><trkpt lat="44.1126075" lon="16.5391655"><ele>855.0</ele><time>2026-04-28T09:04:48.326Z</time></trkpt><trkpt lat="44.1125182" lon="16.5391087"><ele>855.0</ele><time>2026-04-28T09:04:50.326Z</time></trkpt><trkpt lat="44.1124492" lon="16.5390487"><ele>855.0</ele><time>2026-04-28T09:04:52.327Z</time></trkpt><trkpt lat="44.1123687" lon="16.5389891"><ele>855.0</ele><time>2026-04-28T09:04:54.327Z</time></trkpt><trkpt lat="44.1122832" lon="16.5389236"><ele>854.2</ele><time>2026-04-28T09:04:56.326Z</time></trkpt><trkpt lat="44.1121826" lon="16.5388674"><ele>853.4</ele><time>2026-04-28T09:04:58.326Z</time></trkpt><trkpt lat="44.1120883" lon="16.5387979"><ele>852.5999999999999</ele><time>2026-04-28T09:05:00.327Z</time></trkpt><trkpt lat="44.1119942" lon="16.5387476"><ele>851.8</ele><time>2026-04-28T09:05:02.326Z</time></trkpt><trkpt lat="44.1118975" lon="16.5387574"><ele>851.0</ele><time>2026-04-28T09:05:04.327Z</time></trkpt><trkpt lat="44.1118215" lon="16.5387764"><ele>851.0</ele><time>2026-04-28T09:05:06.326Z</time></trkpt><trkpt lat="44.1117618" lon="16.5388293"><ele>851.0</ele><time>2026-04-28T09:05:09.326Z</time></trkpt><trkpt lat="44.1117177" lon="16.5388926"><ele>851.0</ele><time>2026-04-28T09:05:11.326Z</time></trkpt><trkpt lat="44.11166" lon="16.5389485"><ele>851.0</ele><time>2026-04-28T09:05:13.327Z</time></trkpt><trkpt lat="44.1115876" lon="16.5389943"><ele>851.0</ele><time>2026-04-28T09:05:15.326Z</time></trkpt><trkpt lat="44.1115274" lon="16.5390342"><ele>851.0</ele><time>2026-04-28T09:05:18.327Z</time></trkpt><trkpt lat="44.1114661" lon="16.5390646"><ele>851.0</ele><time>2026-04-28T09:39:26.326Z</time></trkpt><trkpt lat="44.1115489" lon="16.5389892"><ele>851.0000000000001</ele><time>2026-04-28T09:39:30.326Z</time></trkpt><trkpt lat="44.1116334" lon="16.5389751"><ele>851.0</ele><time>2026-04-28T09:39:32.326Z</time></trkpt><trkpt lat="44.1117066" lon="16.5389205"><ele>851.0</ele><time>2026-04-28T09:39:34.326Z</time></trkpt><trkpt lat="44.1117687" lon="16.5388487"><ele>851.0</ele><time>2026-04-28T09:39:36.327Z</time></trkpt><trkpt lat="44.1118657" lon="16.5387735"><ele>851.0000000000001</ele><time>2026-04-28T09:39:38.326Z</time></trkpt><trkpt lat="44.1119335" lon="16.5387593"><ele>851.0</ele><time>2026-04-28T09:39:39.326Z</time></trkpt><trkpt lat="44.1120017" lon="16.5387665"><ele>851.0</ele><time>2026-04-28T09:39:40.327Z</time></trkpt><trkpt lat="44.11207" lon="16.538801"><ele>851.0</ele><time>2026-04-28T09:39:41.327Z</time></trkpt><trkpt lat="44.1121457" lon="16.5388615"><ele>851.0</ele><time>2026-04-28T09:39:42.327Z</time></trkpt><trkpt lat="44.1122359" lon="16.5389222"><ele>851.0</ele><time>2026-04-28T09:39:43.326Z</time></trkpt><trkpt lat="44.1123268" lon="16.5389833"><ele>851.0</ele><time>2026-04-28T09:39:44.327Z</time></trkpt><trkpt lat="44.1124196" lon="16.5390375"><ele>851.8</ele><time>2026-04-28T09:39:45.326Z</time></trkpt><trkpt lat="44.1125088" lon="16.5391051"><ele>852.5999999999999</ele><time>2026-04-28T09:39:46.326Z</time></trkpt><trkpt lat="44.1125982" lon="16.5391662"><ele>853.4</ele><time>2026-04-28T09:39:47.327Z</time></trkpt><trkpt lat="44.1126853" lon="16.5392189"><ele>854.2</ele><time>2026-04-28T09:39:48.326Z</time></trkpt><trkpt lat="44.1127742" lon="16.5392782"><ele>855.0</ele><time>2026-04-28T09:39:49.326Z</time></trkpt><trkpt lat="44.1128678" lon="16.5393401"><ele>855.0</ele><time>2026-04-28T09:39:50.326Z</time></trkpt><trkpt lat="44.1129629" lon="16.5393945"><ele>855.0</ele><time>2026-04-28T09:39:51.326Z</time></trkpt><trkpt lat="44.1130458" lon="16.539445"><ele>855.0</ele><time>2026-04-28T09:39:52.326Z</time></trkpt><trkpt lat="44.1131291" lon="16.5395051"><ele>855.0</ele><time>2026-04-28T09:39:53.327Z</time></trkpt><trkpt lat="44.1132131" lon="16.5395651"><ele>855.0</ele><time>2026-04-28T09:39:54.326Z</time></trkpt><trkpt lat="44.1133022" lon="16.5396268"><ele>855.0</ele><time>2026-04-28T09:39:55.326Z</time></trkpt><trkpt lat="44.1133873" lon="16.5396816"><ele>855.0</ele><time>2026-04-28T09:39:56.326Z</time></trkpt><trkpt lat="44.1134583" lon="16.5397205"><ele>855.0</ele><time>2026-04-28T09:39:57.326Z</time></trkpt><trkpt lat="44.1135222" lon="16.539755"><ele>855.0</ele><time>2026-04-28T09:39:58.327Z</time></trkpt><trkpt lat="44.1136114" lon="16.5398215"><ele>855.0</ele><time>2026-04-28T09:40:00.327Z</time></trkpt><trkpt lat="44.1136267" lon="16.5399234"><ele>855.0</ele><time>2026-04-28T09:40:03.326Z</time></trkpt><trkpt lat="44.1135503" lon="16.5400341"><ele>855.0</ele><time>2026-04-28T09:40:05.327Z</time></trkpt><trkpt lat="44.1134845" lon="16.5400965"><ele>855.0</ele><time>2026-04-28T09:40:06.326Z</time></trkpt><trkpt lat="44.1134098" lon="16.5401747"><ele>855.0</ele><time>2026-04-28T09:40:07.327Z</time></trkpt><trkpt lat="44.1133302" lon="16.5402645"><ele>855.0</ele><time>2026-04-28T09:40:08.326Z</time></trkpt><trkpt lat="44.1132432" lon="16.540371"><ele>855.0</ele><time>2026-04-28T09:40:09.326Z</time></trkpt><trkpt lat="44.1131471" lon="16.5404885"><ele>854.5</ele><time>2026-04-28T09:40:10.326Z</time></trkpt><trkpt lat="44.1130453" lon="16.5406195"><ele>854.0</ele><time>2026-04-28T09:40:11.326Z</time></trkpt><trkpt lat="44.112938" lon="16.5407586"><ele>853.5</ele><time>2026-04-28T09:40:12.326Z</time></trkpt><trkpt lat="44.1128406" lon="16.5408784"><ele>853.0</ele><time>2026-04-28T09:40:13.326Z</time></trkpt><trkpt lat="44.1127381" lon="16.5410106"><ele>853.0</ele><time>2026-04-28T09:40:14.326Z</time></trkpt><trkpt lat="44.1126317" lon="16.5411503"><ele>853.0</ele><time>2026-04-28T09:40:15.327Z</time></trkpt><trkpt lat="44.1125244" lon="16.5412954"><ele>853.0</ele><time>2026-04-28T09:40:16.327Z</time></trkpt><trkpt lat="44.1124078" lon="16.5414486"><ele>851.6666666666666</ele><time>2026-04-28T09:40:17.326Z</time></trkpt><trkpt lat="44.112291" lon="16.5416032"><ele>850.3333333333333</ele><time>2026-04-28T09:40:18.327Z</time></trkpt><trkpt lat="44.1121733" lon="16.5417675"><ele>849.0</ele><time>2026-04-28T09:40:19.326Z</time></trkpt><trkpt lat="44.1120495" lon="16.5419425"><ele>849.6666666666667</ele><time>2026-04-28T09:40:20.326Z</time></trkpt><trkpt lat="44.1119239" lon="16.5421168"><ele>850.3333333333334</ele><time>2026-04-28T09:40:21.327Z</time></trkpt><trkpt lat="44.1118001" lon="16.5422976"><ele>851.0</ele><time>2026-04-28T09:40:22.326Z</time></trkpt><trkpt lat="44.1116769" lon="16.5424868"><ele>849.3333333333334</ele><time>2026-04-28T09:40:23.326Z</time></trkpt><trkpt lat="44.1115519" lon="16.5426853"><ele>847.6666666666667</ele><time>2026-04-28T09:40:24.326Z</time></trkpt><trkpt lat="44.1114272" lon="16.5428904"><ele>846.0</ele><time>2026-04-28T09:40:25.326Z</time></trkpt><trkpt lat="44.1113033" lon="16.5431013"><ele>845.3333333333333</ele><time>2026-04-28T09:40:26.327Z</time></trkpt><trkpt lat="44.111184" lon="16.5433189"><ele>844.6666666666666</ele><time>2026-04-28T09:40:27.326Z</time></trkpt><trkpt lat="44.1110658" lon="16.5435416"><ele>844.0</ele><time>2026-04-28T09:40:28.326Z</time></trkpt><trkpt lat="44.1109447" lon="16.5437558"><ele>843.6666666666666</ele><time>2026-04-28T09:40:29.326Z</time></trkpt><trkpt lat="44.1108267" lon="16.5439794"><ele>843.3333333333333</ele><time>2026-04-28T09:40:30.326Z</time></trkpt><trkpt lat="44.110714" lon="16.5442053"><ele>843.0</ele><time>2026-04-28T09:40:31.326Z</time></trkpt><trkpt lat="44.1105992" lon="16.5444295"><ele>843.0</ele><time>2026-04-28T09:40:32.326Z</time></trkpt><trkpt lat="44.1104848" lon="16.5446647"><ele>843.0</ele><time>2026-04-28T09:40:33.327Z</time></trkpt><trkpt lat="44.110383" lon="16.5449086"><ele>843.0</ele><time>2026-04-28T09:40:34.326Z</time></trkpt><trkpt lat="44.1102935" lon="16.5451607"><ele>843.0</ele><time>2026-04-28T09:40:35.326Z</time></trkpt><trkpt lat="44.1102077" lon="16.5454229"><ele>843.0</ele><time>2026-04-28T09:40:36.326Z</time></trkpt><trkpt lat="44.1101338" lon="16.5456935"><ele>843.0</ele><time>2026-04-28T09:40:37.326Z</time></trkpt><trkpt lat="44.1100775" lon="16.5459679"><ele>844.0</ele><time>2026-04-28T09:40:38.326Z</time></trkpt><trkpt lat="44.1100358" lon="16.5462404"><ele>845.0</ele><time>2026-04-28T09:40:39.327Z</time></trkpt><trkpt lat="44.110003" lon="16.546486"><ele>846.0</ele><time>2026-04-28T09:40:40.326Z</time></trkpt><trkpt lat="44.1099687" lon="16.5467137"><ele>846.0</ele><time>2026-04-28T09:40:41.327Z</time></trkpt><trkpt lat="44.1099262" lon="16.5469218"><ele>846.0</ele><time>2026-04-28T09:40:42.326Z</time></trkpt><trkpt lat="44.1098723" lon="16.5471185"><ele>846.0</ele><time>2026-04-28T09:40:43.327Z</time></trkpt><trkpt lat="44.1097948" lon="16.5473038"><ele>845.3333333333333</ele><time>2026-04-28T09:40:44.326Z</time></trkpt><trkpt lat="44.1096915" lon="16.5474703"><ele>844.6666666666666</ele><time>2026-04-28T09:40:45.327Z</time></trkpt><trkpt lat="44.1095708" lon="16.5476209"><ele>844.0</ele><time>2026-04-28T09:40:46.327Z</time></trkpt><trkpt lat="44.1094284" lon="16.5477474"><ele>844.0</ele><time>2026-04-28T09:40:47.327Z</time></trkpt><trkpt lat="44.1092713" lon="16.5478416"><ele>844.0</ele><time>2026-04-28T09:40:48.326Z</time></trkpt><trkpt lat="44.1090994" lon="16.5479261"><ele>844.0</ele><time>2026-04-28T09:40:49.327Z</time></trkpt><trkpt lat="44.1089231" lon="16.5480076"><ele>841.6666666666666</ele><time>2026-04-28T09:40:50.327Z</time></trkpt><trkpt lat="44.1087371" lon="16.548093"><ele>839.3333333333333</ele><time>2026-04-28T09:40:51.326Z</time></trkpt><trkpt lat="44.1085483" lon="16.5481757"><ele>837.0</ele><time>2026-04-28T09:40:52.326Z</time></trkpt><trkpt lat="44.1083553" lon="16.5482679"><ele>834.3333333333333</ele><time>2026-04-28T09:40:53.326Z</time></trkpt><trkpt lat="44.1081622" lon="16.5483603"><ele>831.6666666666666</ele><time>2026-04-28T09:40:54.327Z</time></trkpt><trkpt lat="44.1079617" lon="16.548453"><ele>829.0</ele><time>2026-04-28T09:40:55.327Z</time></trkpt><trkpt lat="44.1077607" lon="16.5485415"><ele>829.0</ele><time>2026-04-28T09:40:56.326Z</time></trkpt><trkpt lat="44.1075608" lon="16.5486313"><ele>829.0</ele><time>2026-04-28T09:40:57.326Z</time></trkpt><trkpt lat="44.1073566" lon="16.5487226"><ele>829.0</ele><time>2026-04-28T09:40:58.327Z</time></trkpt><trkpt lat="44.1071515" lon="16.548818"><ele>827.0</ele><time>2026-04-28T09:40:59.326Z</time></trkpt><trkpt lat="44.1069517" lon="16.5489043"><ele>825.0</ele><time>2026-04-28T09:41:00.326Z</time></trkpt><trkpt lat="44.1067419" lon="16.5489995"><ele>823.0</ele><time>2026-04-28T09:41:01.326Z</time></trkpt><trkpt lat="44.106537" lon="16.5490899"><ele>822.3333333333333</ele><time>2026-04-28T09:41:02.327Z</time></trkpt><trkpt lat="44.1063337" lon="16.5491887"><ele>821.6666666666667</ele><time>2026-04-28T09:41:03.326Z</time></trkpt><trkpt lat="44.1061291" lon="16.5492796"><ele>821.0</ele><time>2026-04-28T09:41:04.326Z</time></trkpt><trkpt lat="44.1059298" lon="16.5493716"><ele>819.0</ele><time>2026-04-28T09:41:05.326Z</time></trkpt><trkpt lat="44.1057267" lon="16.5494684"><ele>817.0</ele><time>2026-04-28T09:41:06.326Z</time></trkpt><trkpt lat="44.1055232" lon="16.5495658"><ele>815.0</ele><time>2026-04-28T09:41:07.326Z</time></trkpt><trkpt lat="44.105321" lon="16.5496573"><ele>815.0</ele><time>2026-04-28T09:41:08.326Z</time></trkpt><trkpt lat="44.105113" lon="16.549752"><ele>815.0</ele><time>2026-04-28T09:41:09.327Z</time></trkpt><trkpt lat="44.1049024" lon="16.5498428"><ele>815.0</ele><time>2026-04-28T09:41:10.326Z</time></trkpt><trkpt lat="44.104692" lon="16.5499446"><ele>814.5</ele><time>2026-04-28T09:41:11.327Z</time></trkpt><trkpt lat="44.1044816" lon="16.550039"><ele>814.0</ele><time>2026-04-28T09:41:12.327Z</time></trkpt><trkpt lat="44.1042646" lon="16.5501434"><ele>811.0</ele><time>2026-04-28T09:41:13.326Z</time></trkpt><trkpt lat="44.1040526" lon="16.5502469"><ele>808.0</ele><time>2026-04-28T09:41:14.327Z</time></trkpt><trkpt lat="44.1038414" lon="16.5503577"><ele>808.5</ele><time>2026-04-28T09:41:15.326Z</time></trkpt><trkpt lat="44.1036311" lon="16.5504721"><ele>809.0</ele><time>2026-04-28T09:41:16.326Z</time></trkpt><trkpt lat="44.1034165" lon="16.5505984"><ele>808.0</ele><time>2026-04-28T09:41:17.326Z</time></trkpt><trkpt lat="44.1032046" lon="16.5507206"><ele>807.0</ele><time>2026-04-28T09:41:18.326Z</time></trkpt><trkpt lat="44.1029873" lon="16.550842"><ele>807.0</ele><time>2026-04-28T09:41:19.326Z</time></trkpt><trkpt lat="44.1027693" lon="16.5509623"><ele>807.0</ele><time>2026-04-28T09:41:20.327Z</time></trkpt><trkpt lat="44.1025477" lon="16.5510873"><ele>805.0</ele><time>2026-04-28T09:41:21.326Z</time></trkpt><trkpt lat="44.1023256" lon="16.5512118"><ele>803.0</ele><time>2026-04-28T09:41:22.327Z</time></trkpt><trkpt lat="44.1021066" lon="16.551335"><ele>803.0</ele><time>2026-04-28T09:41:23.326Z</time></trkpt><trkpt lat="44.1018868" lon="16.5514577"><ele>803.0</ele><time>2026-04-28T09:41:24.327Z</time></trkpt><trkpt lat="44.1016685" lon="16.5515879"><ele>801.5</ele><time>2026-04-28T09:41:25.326Z</time></trkpt><trkpt lat="44.1014488" lon="16.5517168"><ele>800.0</ele><time>2026-04-28T09:41:26.326Z</time></trkpt><trkpt lat="44.1012335" lon="16.5518466"><ele>800.0</ele><time>2026-04-28T09:41:27.326Z</time></trkpt><trkpt lat="44.1010103" lon="16.5519706"><ele>800.0</ele><time>2026-04-28T09:41:28.326Z</time></trkpt><trkpt lat="44.1007925" lon="16.5520944"><ele>799.0</ele><time>2026-04-28T09:41:29.326Z</time></trkpt><trkpt lat="44.100578" lon="16.5522196"><ele>798.0</ele><time>2026-04-28T09:41:30.326Z</time></trkpt><trkpt lat="44.1003717" lon="16.5523546"><ele>798.0</ele><time>2026-04-28T09:41:31.326Z</time></trkpt><trkpt lat="44.1001708" lon="16.5525084"><ele>798.0</ele><time>2026-04-28T09:41:32.326Z</time></trkpt><trkpt lat="44.0999837" lon="16.5526808"><ele>795.5</ele><time>2026-04-28T09:41:33.327Z</time></trkpt><trkpt lat="44.0998122" lon="16.5528812"><ele>793.0</ele><time>2026-04-28T09:41:34.327Z</time></trkpt><trkpt lat="44.0996415" lon="16.5530957"><ele>793.0</ele><time>2026-04-28T09:41:35.327Z</time></trkpt><trkpt lat="44.099469" lon="16.5532957"><ele>793.0</ele><time>2026-04-28T09:41:36.327Z</time></trkpt><trkpt lat="44.099296" lon="16.5535061"><ele>793.0</ele><time>2026-04-28T09:41:37.326Z</time></trkpt><trkpt lat="44.0991261" lon="16.5537253"><ele>793.0</ele><time>2026-04-28T09:41:38.326Z</time></trkpt><trkpt lat="44.0989554" lon="16.553934"><ele>792.0</ele><time>2026-04-28T09:41:39.326Z</time></trkpt><trkpt lat="44.0987816" lon="16.5541442"><ele>791.0</ele><time>2026-04-28T09:41:40.326Z</time></trkpt><trkpt lat="44.0985981" lon="16.5543249"><ele>791.0</ele><time>2026-04-28T09:41:41.326Z</time></trkpt><trkpt lat="44.0984019" lon="16.5544716"><ele>791.0</ele><time>2026-04-28T09:41:42.326Z</time></trkpt><trkpt lat="44.098195" lon="16.5545851"><ele>791.0</ele><time>2026-04-28T09:41:43.326Z</time></trkpt><trkpt lat="44.0979858" lon="16.5546665"><ele>790.0</ele><time>2026-04-28T09:41:44.327Z</time></trkpt><trkpt lat="44.0977726" lon="16.5547277"><ele>789.0</ele><time>2026-04-28T09:41:45.326Z</time></trkpt><trkpt lat="44.0975595" lon="16.554801"><ele>788.0</ele><time>2026-04-28T09:41:46.327Z</time></trkpt><trkpt lat="44.0973455" lon="16.5548694"><ele>787.3333333333334</ele><time>2026-04-28T09:41:47.326Z</time></trkpt><trkpt lat="44.0971318" lon="16.554953"><ele>786.6666666666667</ele><time>2026-04-28T09:41:48.326Z</time></trkpt><trkpt lat="44.0969218" lon="16.5550557"><ele>786.0</ele><time>2026-04-28T09:41:49.326Z</time></trkpt><trkpt lat="44.0967184" lon="16.5551766"><ele>784.3333333333333</ele><time>2026-04-28T09:41:50.327Z</time></trkpt><trkpt lat="44.0965271" lon="16.5553214"><ele>782.6666666666666</ele><time>2026-04-28T09:41:51.326Z</time></trkpt><trkpt lat="44.096337" lon="16.555487"><ele>781.0</ele><time>2026-04-28T09:41:52.327Z</time></trkpt><trkpt lat="44.0961596" lon="16.5556784"><ele>781.0</ele><time>2026-04-28T09:41:53.326Z</time></trkpt><trkpt lat="44.0959875" lon="16.555892"><ele>781.0</ele><time>2026-04-28T09:41:54.326Z</time></trkpt><trkpt lat="44.0958214" lon="16.5561265"><ele>779.5</ele><time>2026-04-28T09:41:55.326Z</time></trkpt><trkpt lat="44.0956606" lon="16.5563629"><ele>778.0</ele><time>2026-04-28T09:41:56.326Z</time></trkpt><trkpt lat="44.0954902" lon="16.5566121"><ele>778.0</ele><time>2026-04-28T09:41:57.327Z</time></trkpt><trkpt lat="44.0953239" lon="16.5568633"><ele>778.0</ele><time>2026-04-28T09:41:58.327Z</time></trkpt><trkpt lat="44.0951594" lon="16.5571207"><ele>777.5</ele><time>2026-04-28T09:41:59.326Z</time></trkpt><trkpt lat="44.0950017" lon="16.5573832"><ele>777.0</ele><time>2026-04-28T09:42:00.327Z</time></trkpt><trkpt lat="44.0948476" lon="16.5576554"><ele>776.5</ele><time>2026-04-28T09:42:01.326Z</time></trkpt><trkpt lat="44.0947055" lon="16.5579415"><ele>776.0</ele><time>2026-04-28T09:42:02.326Z</time></trkpt><trkpt lat="44.0945714" lon="16.558226"><ele>776.0</ele><time>2026-04-28T09:42:03.327Z</time></trkpt><trkpt lat="44.0944276" lon="16.5585138"><ele>776.0</ele><time>2026-04-28T09:42:04.326Z</time></trkpt><trkpt lat="44.0942839" lon="16.5587983"><ele>775.0</ele><time>2026-04-28T09:42:05.326Z</time></trkpt><trkpt lat="44.0941389" lon="16.559075"><ele>774.0</ele><time>2026-04-28T09:42:06.326Z</time></trkpt><trkpt lat="44.0939872" lon="16.5593487"><ele>773.0</ele><time>2026-04-28T09:42:07.326Z</time></trkpt><trkpt lat="44.0938373" lon="16.5596208"><ele>772.0</ele><time>2026-04-28T09:42:08.327Z</time></trkpt><trkpt lat="44.0936884" lon="16.5598893"><ele>772.0</ele><time>2026-04-28T09:42:09.326Z</time></trkpt><trkpt lat="44.0935399" lon="16.5601587"><ele>772.0</ele><time>2026-04-28T09:42:10.326Z</time></trkpt><trkpt lat="44.0933959" lon="16.5604367"><ele>771.0</ele><time>2026-04-28T09:42:11.327Z</time></trkpt><trkpt lat="44.0932567" lon="16.5607217"><ele>770.0</ele><time>2026-04-28T09:42:12.327Z</time></trkpt><trkpt lat="44.0931269" lon="16.5610121"><ele>768.0</ele><time>2026-04-28T09:42:13.326Z</time></trkpt><trkpt lat="44.0929973" lon="16.5613063"><ele>766.0</ele><time>2026-04-28T09:42:14.327Z</time></trkpt><trkpt lat="44.0928694" lon="16.5615877"><ele>766.0</ele><time>2026-04-28T09:42:15.327Z</time></trkpt><trkpt lat="44.0927433" lon="16.5618414"><ele>766.0</ele><time>2026-04-28T09:42:16.326Z</time></trkpt><trkpt lat="44.0926219" lon="16.5620735"><ele>766.0</ele><time>2026-04-28T09:42:17.327Z</time></trkpt><trkpt lat="44.092497" lon="16.5622943"><ele>765.0</ele><time>2026-04-28T09:42:18.326Z</time></trkpt><trkpt lat="44.0923677" lon="16.5624978"><ele>764.0</ele><time>2026-04-28T09:42:19.327Z</time></trkpt><trkpt lat="44.0922387" lon="16.5626893"><ele>763.0</ele><time>2026-04-28T09:42:20.326Z</time></trkpt><trkpt lat="44.0921065" lon="16.5628722"><ele>763.0</ele><time>2026-04-28T09:42:21.326Z</time></trkpt><trkpt lat="44.0919709" lon="16.5630331"><ele>763.0</ele><time>2026-04-28T09:42:22.326Z</time></trkpt><trkpt lat="44.0918341" lon="16.5631859"><ele>763.0</ele><time>2026-04-28T09:42:23.326Z</time></trkpt><trkpt lat="44.0916907" lon="16.56333"><ele>762.0</ele><time>2026-04-28T09:42:24.326Z</time></trkpt><trkpt lat="44.0915467" lon="16.5634691"><ele>761.0</ele><time>2026-04-28T09:42:25.326Z</time></trkpt><trkpt lat="44.0913955" lon="16.563605"><ele>760.0</ele><time>2026-04-28T09:42:26.326Z</time></trkpt><trkpt lat="44.0912468" lon="16.5637428"><ele>759.6666666666667</ele><time>2026-04-28T09:42:27.326Z</time></trkpt><trkpt lat="44.0910998" lon="16.563869"><ele>759.3333333333334</ele><time>2026-04-28T09:42:28.326Z</time></trkpt><trkpt lat="44.0909548" lon="16.5639961"><ele>759.0</ele><time>2026-04-28T09:42:29.326Z</time></trkpt><trkpt lat="44.0908163" lon="16.5641147"><ele>758.3333333333334</ele><time>2026-04-28T09:42:30.326Z</time></trkpt><trkpt lat="44.0906822" lon="16.5642344"><ele>757.6666666666667</ele><time>2026-04-28T09:42:31.326Z</time></trkpt><trkpt lat="44.0905495" lon="16.564333"><ele>757.0</ele><time>2026-04-28T09:42:32.326Z</time></trkpt><trkpt lat="44.090405" lon="16.564432"><ele>757.0</ele><time>2026-04-28T09:42:33.326Z</time></trkpt><trkpt lat="44.0902612" lon="16.564526"><ele>757.0</ele><time>2026-04-28T09:42:34.326Z</time></trkpt><trkpt lat="44.0901147" lon="16.5646284"><ele>757.0</ele><time>2026-04-28T09:42:35.327Z</time></trkpt><trkpt lat="44.0899667" lon="16.5647252"><ele>755.6666666666667</ele><time>2026-04-28T09:42:36.327Z</time></trkpt><trkpt lat="44.0898121" lon="16.5648296"><ele>754.3333333333334</ele><time>2026-04-28T09:42:37.327Z</time></trkpt><trkpt lat="44.0896483" lon="16.5649348"><ele>753.0</ele><time>2026-04-28T09:42:38.326Z</time></trkpt><trkpt lat="44.0894814" lon="16.565042"><ele>753.0</ele><time>2026-04-28T09:42:39.326Z</time></trkpt><trkpt lat="44.0893127" lon="16.5651455"><ele>753.0</ele><time>2026-04-28T09:42:40.326Z</time></trkpt><trkpt lat="44.0891403" lon="16.5652603"><ele>753.0</ele><time>2026-04-28T09:42:41.326Z</time></trkpt><trkpt lat="44.0889643" lon="16.5653717"><ele>752.3333333333334</ele><time>2026-04-28T09:42:42.327Z</time></trkpt><trkpt lat="44.0887878" lon="16.5654896"><ele>751.6666666666667</ele><time>2026-04-28T09:42:43.325Z</time></trkpt><trkpt lat="44.0886085" lon="16.5656143"><ele>751.0</ele><time>2026-04-28T09:42:44.326Z</time></trkpt><trkpt lat="44.0884276" lon="16.5657471"><ele>750.6666666666667</ele><time>2026-04-28T09:42:45.326Z</time></trkpt><trkpt lat="44.0882548" lon="16.5658921"><ele>750.3333333333334</ele><time>2026-04-28T09:42:46.327Z</time></trkpt><trkpt lat="44.0880815" lon="16.5660464"><ele>750.0</ele><time>2026-04-28T09:42:47.326Z</time></trkpt><trkpt lat="44.0879174" lon="16.5662139"><ele>749.6666666666666</ele><time>2026-04-28T09:42:48.326Z</time></trkpt><trkpt lat="44.0877577" lon="16.5663944"><ele>749.3333333333333</ele><time>2026-04-28T09:42:49.326Z</time></trkpt><trkpt lat="44.0876004" lon="16.5665786"><ele>749.0</ele><time>2026-04-28T09:42:50.326Z</time></trkpt><trkpt lat="44.0874485" lon="16.5667628"><ele>749.0</ele><time>2026-04-28T09:42:51.326Z</time></trkpt><trkpt lat="44.0872959" lon="16.5669506"><ele>749.0</ele><time>2026-04-28T09:42:52.326Z</time></trkpt><trkpt lat="44.087144" lon="16.5671345"><ele>749.0</ele><time>2026-04-28T09:42:53.326Z</time></trkpt><trkpt lat="44.0869923" lon="16.5673135"><ele>748.6666666666666</ele><time>2026-04-28T09:42:54.326Z</time></trkpt><trkpt lat="44.0868377" lon="16.5674869"><ele>748.3333333333334</ele><time>2026-04-28T09:42:55.326Z</time></trkpt><trkpt lat="44.0866782" lon="16.5676525"><ele>748.0</ele><time>2026-04-28T09:42:56.326Z</time></trkpt><trkpt lat="44.0865098" lon="16.5678032"><ele>747.0</ele><time>2026-04-28T09:42:57.326Z</time></trkpt><trkpt lat="44.0863372" lon="16.5679424"><ele>746.0</ele><time>2026-04-28T09:42:58.326Z</time></trkpt><trkpt lat="44.086157" lon="16.5680705"><ele>745.0</ele><time>2026-04-28T09:42:59.327Z</time></trkpt><trkpt lat="44.0859763" lon="16.5681992"><ele>745.0</ele><time>2026-04-28T09:43:00.326Z</time></trkpt><trkpt lat="44.0857949" lon="16.5683241"><ele>745.0</ele><time>2026-04-28T09:43:01.327Z</time></trkpt><trkpt lat="44.0856082" lon="16.5684302"><ele>745.0</ele><time>2026-04-28T09:43:02.326Z</time></trkpt><trkpt lat="44.085421" lon="16.5685181"><ele>745.3333333333334</ele><time>2026-04-28T09:43:03.326Z</time></trkpt><trkpt lat="44.0852288" lon="16.5685846"><ele>745.6666666666666</ele><time>2026-04-28T09:43:04.326Z</time></trkpt><trkpt lat="44.0850319" lon="16.5686503"><ele>746.0</ele><time>2026-04-28T09:43:05.326Z</time></trkpt><trkpt lat="44.0848458" lon="16.5687312"><ele>746.3333333333333</ele><time>2026-04-28T09:43:06.326Z</time></trkpt><trkpt lat="44.0846644" lon="16.5688161"><ele>746.6666666666666</ele><time>2026-04-28T09:43:07.327Z</time></trkpt><trkpt lat="44.0844842" lon="16.5689081"><ele>747.0</ele><time>2026-04-28T09:43:08.327Z</time></trkpt><trkpt lat="44.0843024" lon="16.5689998"><ele>747.0</ele><time>2026-04-28T09:43:09.326Z</time></trkpt><trkpt lat="44.0841226" lon="16.5690963"><ele>747.0</ele><time>2026-04-28T09:43:10.326Z</time></trkpt><trkpt lat="44.0839404" lon="16.5691861"><ele>747.0</ele><time>2026-04-28T09:43:11.326Z</time></trkpt><trkpt lat="44.0837567" lon="16.5692814"><ele>748.0</ele><time>2026-04-28T09:43:12.327Z</time></trkpt><trkpt lat="44.0835769" lon="16.5693758"><ele>749.0</ele><time>2026-04-28T09:43:13.326Z</time></trkpt><trkpt lat="44.0833947" lon="16.5694708"><ele>750.0</ele><time>2026-04-28T09:43:14.326Z</time></trkpt><trkpt lat="44.0832125" lon="16.5695644"><ele>748.0</ele><time>2026-04-28T09:43:15.326Z</time></trkpt><trkpt lat="44.0830328" lon="16.5696634"><ele>746.0</ele><time>2026-04-28T09:43:16.326Z</time></trkpt><trkpt lat="44.082851" lon="16.5697608"><ele>744.0</ele><time>2026-04-28T09:43:17.326Z</time></trkpt><trkpt lat="44.0826663" lon="16.5698509"><ele>744.0</ele><time>2026-04-28T09:43:18.327Z</time></trkpt><trkpt lat="44.0824811" lon="16.5699408"><ele>744.0</ele><time>2026-04-28T09:43:19.326Z</time></trkpt><trkpt lat="44.0822901" lon="16.5700315"><ele>744.0</ele><time>2026-04-28T09:43:20.326Z</time></trkpt><trkpt lat="44.0821041" lon="16.5700999"><ele>746.0</ele><time>2026-04-28T09:43:21.326Z</time></trkpt><trkpt lat="44.0819181" lon="16.5701542"><ele>748.0</ele><time>2026-04-28T09:43:22.326Z</time></trkpt><trkpt lat="44.0817266" lon="16.5702061"><ele>750.0</ele><time>2026-04-28T09:43:23.326Z</time></trkpt><trkpt lat="44.0815286" lon="16.5702519"><ele>751.0</ele><time>2026-04-28T09:43:24.326Z</time></trkpt><trkpt lat="44.0813356" lon="16.570302"><ele>752.0</ele><time>2026-04-28T09:43:25.327Z</time></trkpt><trkpt lat="44.081141" lon="16.5703559"><ele>753.0</ele><time>2026-04-28T09:43:26.326Z</time></trkpt><trkpt lat="44.080953" lon="16.570394"><ele>750.6666666666666</ele><time>2026-04-28T09:43:27.326Z</time></trkpt><trkpt lat="44.0807727" lon="16.5704299"><ele>748.3333333333333</ele><time>2026-04-28T09:43:28.327Z</time></trkpt><trkpt lat="44.0805981" lon="16.5704695"><ele>746.0</ele><time>2026-04-28T09:43:29.326Z</time></trkpt><trkpt lat="44.080427" lon="16.5705147"><ele>746.0</ele><time>2026-04-28T09:43:30.326Z</time></trkpt><trkpt lat="44.0802683" lon="16.5705587"><ele>746.0</ele><time>2026-04-28T09:43:31.327Z</time></trkpt><trkpt lat="44.0801158" lon="16.5706028"><ele>746.0</ele><time>2026-04-28T09:43:32.326Z</time></trkpt><trkpt lat="44.0799761" lon="16.5706421"><ele>745.0</ele><time>2026-04-28T09:43:33.327Z</time></trkpt><trkpt lat="44.0798336" lon="16.5706857"><ele>744.0</ele><time>2026-04-28T09:43:34.326Z</time></trkpt><trkpt lat="44.0797018" lon="16.570725"><ele>743.0</ele><time>2026-04-28T09:43:35.326Z</time></trkpt><trkpt lat="44.0795727" lon="16.5707627"><ele>742.0</ele><time>2026-04-28T09:43:36.327Z</time></trkpt><trkpt lat="44.0794575" lon="16.5707955"><ele>742.0</ele><time>2026-04-28T09:43:37.327Z</time></trkpt><trkpt lat="44.0793462" lon="16.5708322"><ele>742.0</ele><time>2026-04-28T09:43:38.327Z</time></trkpt><trkpt lat="44.0792359" lon="16.5708677"><ele>742.0</ele><time>2026-04-28T09:43:39.327Z</time></trkpt><trkpt lat="44.079111" lon="16.5709114"><ele>742.0</ele><time>2026-04-28T09:43:40.326Z</time></trkpt><trkpt lat="44.0789746" lon="16.5709491"><ele>742.0</ele><time>2026-04-28T09:43:41.326Z</time></trkpt><trkpt lat="44.0788279" lon="16.5709848"><ele>742.0</ele><time>2026-04-28T09:43:42.326Z</time></trkpt><trkpt lat="44.0786734" lon="16.5710093"><ele>742.0</ele><time>2026-04-28T09:43:43.326Z</time></trkpt><trkpt lat="44.0785099" lon="16.5710269"><ele>742.0</ele><time>2026-04-28T09:43:44.326Z</time></trkpt><trkpt lat="44.0783357" lon="16.5710421"><ele>742.0</ele><time>2026-04-28T09:43:45.326Z</time></trkpt><trkpt lat="44.0781579" lon="16.57105"><ele>742.0</ele><time>2026-04-28T09:43:46.326Z</time></trkpt><trkpt lat="44.0779768" lon="16.5710538"><ele>740.0</ele><time>2026-04-28T09:43:47.326Z</time></trkpt><trkpt lat="44.0777888" lon="16.5710684"><ele>738.0</ele><time>2026-04-28T09:43:48.326Z</time></trkpt><trkpt lat="44.0775952" lon="16.5710801"><ele>736.0</ele><time>2026-04-28T09:43:49.326Z</time></trkpt><trkpt lat="44.0773952" lon="16.5711044"><ele>734.3333333333334</ele><time>2026-04-28T09:43:50.326Z</time></trkpt><trkpt lat="44.0771916" lon="16.5711253"><ele>732.6666666666666</ele><time>2026-04-28T09:43:51.327Z</time></trkpt><trkpt lat="44.0769846" lon="16.5711485"><ele>731.0</ele><time>2026-04-28T09:43:52.326Z</time></trkpt><trkpt lat="44.0767732" lon="16.5711722"><ele>728.6666666666666</ele><time>2026-04-28T09:43:53.327Z</time></trkpt><trkpt lat="44.0765646" lon="16.5712012"><ele>726.3333333333334</ele><time>2026-04-28T09:43:54.326Z</time></trkpt><trkpt lat="44.0763536" lon="16.5712245"><ele>724.0</ele><time>2026-04-28T09:43:55.326Z</time></trkpt><trkpt lat="44.0761435" lon="16.5712533"><ele>724.0</ele><time>2026-04-28T09:43:56.326Z</time></trkpt><trkpt lat="44.0759348" lon="16.5712769"><ele>724.0</ele><time>2026-04-28T09:43:57.326Z</time></trkpt><trkpt lat="44.0757242" lon="16.5712968"><ele>724.0</ele><time>2026-04-28T09:43:58.326Z</time></trkpt><trkpt lat="44.075522" lon="16.5713182"><ele>724.0</ele><time>2026-04-28T09:43:59.326Z</time></trkpt><trkpt lat="44.0753283" lon="16.5713405"><ele>724.0</ele><time>2026-04-28T09:44:00.326Z</time></trkpt><trkpt lat="44.0751568" lon="16.5713599"><ele>724.0</ele><time>2026-04-28T09:44:01.326Z</time></trkpt><trkpt lat="44.0750022" lon="16.5713903"><ele>724.5</ele><time>2026-04-28T09:44:02.326Z</time></trkpt><trkpt lat="44.0748682" lon="16.5714446"><ele>725.0</ele><time>2026-04-28T09:44:03.326Z</time></trkpt><trkpt lat="44.0747417" lon="16.5715255"><ele>725.5</ele><time>2026-04-28T09:44:04.326Z</time></trkpt><trkpt lat="44.0746295" lon="16.571649"><ele>726.0</ele><time>2026-04-28T09:44:05.327Z</time></trkpt><trkpt lat="44.0745269" lon="16.571809"><ele>726.0</ele><time>2026-04-28T09:44:06.327Z</time></trkpt><trkpt lat="44.0744245" lon="16.5719875"><ele>726.0</ele><time>2026-04-28T09:44:07.326Z</time></trkpt><trkpt lat="44.0743173" lon="16.5721765"><ele>726.0</ele><time>2026-04-28T09:44:08.326Z</time></trkpt><trkpt lat="44.0742033" lon="16.5723701"><ele>726.6666666666666</ele><time>2026-04-28T09:44:09.326Z</time></trkpt><trkpt lat="44.0740847" lon="16.572572"><ele>727.3333333333333</ele><time>2026-04-28T09:44:10.327Z</time></trkpt><trkpt lat="44.0739603" lon="16.5727663"><ele>728.0</ele><time>2026-04-28T09:44:11.326Z</time></trkpt><trkpt lat="44.0738282" lon="16.5729608"><ele>725.6666666666666</ele><time>2026-04-28T09:44:12.327Z</time></trkpt><trkpt lat="44.0736869" lon="16.5731585"><ele>723.3333333333334</ele><time>2026-04-28T09:44:13.327Z</time></trkpt><trkpt lat="44.0735402" lon="16.5733556"><ele>721.0</ele><time>2026-04-28T09:44:14.326Z</time></trkpt><trkpt lat="44.0733877" lon="16.5735565"><ele>721.0</ele><time>2026-04-28T09:44:15.326Z</time></trkpt><trkpt lat="44.073222" lon="16.5737605"><ele>721.0</ele><time>2026-04-28T09:44:16.326Z</time></trkpt><trkpt lat="44.0730645" lon="16.5739616"><ele>721.0</ele><time>2026-04-28T09:44:17.326Z</time></trkpt><trkpt lat="44.0729044" lon="16.5741613"><ele>721.0</ele><time>2026-04-28T09:44:18.326Z</time></trkpt><trkpt lat="44.0727514" lon="16.5743649"><ele>721.0</ele><time>2026-04-28T09:44:19.326Z</time></trkpt><trkpt lat="44.0726" lon="16.574549"><ele>721.0</ele><time>2026-04-28T09:44:20.326Z</time></trkpt><trkpt lat="44.0724503" lon="16.5747269"><ele>720.0</ele><time>2026-04-28T09:44:21.327Z</time></trkpt><trkpt lat="44.072305" lon="16.5748969"><ele>719.0</ele><time>2026-04-28T09:44:22.327Z</time></trkpt><trkpt lat="44.0721623" lon="16.5750493"><ele>718.0</ele><time>2026-04-28T09:44:23.327Z</time></trkpt><trkpt lat="44.07202" lon="16.5751935"><ele>718.0</ele><time>2026-04-28T09:44:24.327Z</time></trkpt><trkpt lat="44.0718764" lon="16.5753422"><ele>718.0</ele><time>2026-04-28T09:44:25.327Z</time></trkpt><trkpt lat="44.0717308" lon="16.5754793"><ele>718.0</ele><time>2026-04-28T09:44:26.326Z</time></trkpt><trkpt lat="44.0715804" lon="16.5756063"><ele>717.6666666666667</ele><time>2026-04-28T09:44:27.326Z</time></trkpt><trkpt lat="44.0714255" lon="16.5757108"><ele>717.3333333333334</ele><time>2026-04-28T09:44:28.326Z</time></trkpt><trkpt lat="44.0712598" lon="16.5758121"><ele>717.0</ele><time>2026-04-28T09:44:29.326Z</time></trkpt><trkpt lat="44.0710837" lon="16.5759048"><ele>717.0</ele><time>2026-04-28T09:44:30.327Z</time></trkpt><trkpt lat="44.0709029" lon="16.5759842"><ele>717.0</ele><time>2026-04-28T09:44:31.327Z</time></trkpt><trkpt lat="44.0707175" lon="16.5760538"><ele>717.0</ele><time>2026-04-28T09:44:32.326Z</time></trkpt><trkpt lat="44.0705301" lon="16.5761271"><ele>716.0</ele><time>2026-04-28T09:44:33.326Z</time></trkpt><trkpt lat="44.0703439" lon="16.5761892"><ele>715.0</ele><time>2026-04-28T09:44:34.326Z</time></trkpt><trkpt lat="44.0701481" lon="16.5762613"><ele>714.0</ele><time>2026-04-28T09:44:35.326Z</time></trkpt><trkpt lat="44.0699525" lon="16.5763351"><ele>715.6666666666666</ele><time>2026-04-28T09:44:36.327Z</time></trkpt><trkpt lat="44.0697547" lon="16.5764115"><ele>717.3333333333333</ele><time>2026-04-28T09:44:37.326Z</time></trkpt><trkpt lat="44.0695561" lon="16.5764986"><ele>719.0</ele><time>2026-04-28T09:44:38.326Z</time></trkpt><trkpt lat="44.0693634" lon="16.5766004"><ele>719.0</ele><time>2026-04-28T09:44:39.327Z</time></trkpt><trkpt lat="44.0691726" lon="16.5767171"><ele>719.0</ele><time>2026-04-28T09:44:40.326Z</time></trkpt><trkpt lat="44.0689864" lon="16.5768437"><ele>719.0</ele><time>2026-04-28T09:44:41.326Z</time></trkpt><trkpt lat="44.0688024" lon="16.5769861"><ele>719.3333333333333</ele><time>2026-04-28T09:44:42.326Z</time></trkpt><trkpt lat="44.0686167" lon="16.5771348"><ele>719.6666666666666</ele><time>2026-04-28T09:44:43.326Z</time></trkpt><trkpt lat="44.0684349" lon="16.5772842"><ele>720.0</ele><time>2026-04-28T09:44:44.326Z</time></trkpt><trkpt lat="44.0682577" lon="16.5774418"><ele>720.0</ele><time>2026-04-28T09:44:45.326Z</time></trkpt><trkpt lat="44.0680774" lon="16.5776002"><ele>720.0</ele><time>2026-04-28T09:44:46.327Z</time></trkpt><trkpt lat="44.0678975" lon="16.5777569"><ele>720.0</ele><time>2026-04-28T09:44:47.327Z</time></trkpt><trkpt lat="44.0677193" lon="16.5779067"><ele>719.0</ele><time>2026-04-28T09:44:48.327Z</time></trkpt><trkpt lat="44.0675402" lon="16.5780588"><ele>718.0</ele><time>2026-04-28T09:44:49.327Z</time></trkpt><trkpt lat="44.0673562" lon="16.578205"><ele>717.0</ele><time>2026-04-28T09:44:50.326Z</time></trkpt><trkpt lat="44.0671713" lon="16.5783471"><ele>717.0</ele><time>2026-04-28T09:44:51.327Z</time></trkpt><trkpt lat="44.0669884" lon="16.5784791"><ele>717.0</ele><time>2026-04-28T09:44:52.326Z</time></trkpt><trkpt lat="44.066806" lon="16.5786193"><ele>717.0</ele><time>2026-04-28T09:44:53.326Z</time></trkpt><trkpt lat="44.0666236" lon="16.5787531"><ele>717.3333333333334</ele><time>2026-04-28T09:44:54.327Z</time></trkpt><trkpt lat="44.0664439" lon="16.5788898"><ele>717.6666666666667</ele><time>2026-04-28T09:44:55.326Z</time></trkpt><trkpt lat="44.0662674" lon="16.5790239"><ele>718.0</ele><time>2026-04-28T09:44:56.327Z</time></trkpt><trkpt lat="44.0660868" lon="16.5791579"><ele>718.0</ele><time>2026-04-28T09:44:57.327Z</time></trkpt><trkpt lat="44.0659089" lon="16.5792923"><ele>718.0</ele><time>2026-04-28T09:44:58.326Z</time></trkpt><trkpt lat="44.0657327" lon="16.5794295"><ele>718.0</ele><time>2026-04-28T09:44:59.326Z</time></trkpt><trkpt lat="44.0655556" lon="16.5795633"><ele>718.3333333333334</ele><time>2026-04-28T09:45:00.326Z</time></trkpt><trkpt lat="44.0653801" lon="16.5796909"><ele>718.6666666666666</ele><time>2026-04-28T09:45:01.326Z</time></trkpt><trkpt lat="44.0652015" lon="16.5798254"><ele>719.0</ele><time>2026-04-28T09:45:02.326Z</time></trkpt><trkpt lat="44.065026" lon="16.5799609"><ele>721.3333333333333</ele><time>2026-04-28T09:45:03.326Z</time></trkpt><trkpt lat="44.0648498" lon="16.5800924"><ele>723.6666666666666</ele><time>2026-04-28T09:45:04.326Z</time></trkpt><trkpt lat="44.0646757" lon="16.5802261"><ele>726.0</ele><time>2026-04-28T09:45:05.327Z</time></trkpt><trkpt lat="44.0645055" lon="16.5803618"><ele>726.0</ele><time>2026-04-28T09:45:06.327Z</time></trkpt><trkpt lat="44.0643371" lon="16.5804949"><ele>726.0</ele><time>2026-04-28T09:45:07.326Z</time></trkpt><trkpt lat="44.0641699" lon="16.5806261"><ele>726.0</ele><time>2026-04-28T09:45:08.327Z</time></trkpt><trkpt lat="44.0640009" lon="16.5807641"><ele>727.3333333333334</ele><time>2026-04-28T09:45:09.327Z</time></trkpt><trkpt lat="44.0638347" lon="16.5809036"><ele>728.6666666666667</ele><time>2026-04-28T09:45:10.326Z</time></trkpt><trkpt lat="44.0636645" lon="16.581027"><ele>730.0</ele><time>2026-04-28T09:45:11.327Z</time></trkpt><trkpt lat="44.0634891" lon="16.5811655"><ele>730.0</ele><time>2026-04-28T09:45:12.326Z</time></trkpt><trkpt lat="44.0633149" lon="16.5813028"><ele>730.0</ele><time>2026-04-28T09:45:13.327Z</time></trkpt><trkpt lat="44.0631401" lon="16.5814362"><ele>730.0</ele><time>2026-04-28T09:45:14.327Z</time></trkpt><trkpt lat="44.062963" lon="16.5815865"><ele>730.0</ele><time>2026-04-28T09:45:15.326Z</time></trkpt><trkpt lat="44.0627904" lon="16.5817261"><ele>730.0</ele><time>2026-04-28T09:45:16.326Z</time></trkpt><trkpt lat="44.0626143" lon="16.5818667"><ele>730.0</ele><time>2026-04-28T09:45:17.326Z</time></trkpt><trkpt lat="44.0624335" lon="16.5820088"><ele>730.0</ele><time>2026-04-28T09:45:18.326Z</time></trkpt><trkpt lat="44.0622576" lon="16.5821506"><ele>730.0</ele><time>2026-04-28T09:45:19.326Z</time></trkpt><trkpt lat="44.0620752" lon="16.5822891"><ele>730.0</ele><time>2026-04-28T09:45:20.326Z</time></trkpt><trkpt lat="44.0618984" lon="16.5824309"><ele>730.0</ele><time>2026-04-28T09:45:21.326Z</time></trkpt><trkpt lat="44.0617188" lon="16.5825787"><ele>730.0</ele><time>2026-04-28T09:45:22.326Z</time></trkpt><trkpt lat="44.061534" lon="16.5827186"><ele>730.0</ele><time>2026-04-28T09:45:23.326Z</time></trkpt><trkpt lat="44.0613502" lon="16.5828586"><ele>729.0</ele><time>2026-04-28T09:45:24.327Z</time></trkpt><trkpt lat="44.061165" lon="16.5829949"><ele>728.0</ele><time>2026-04-28T09:45:25.326Z</time></trkpt><trkpt lat="44.0609764" lon="16.5831342"><ele>727.0</ele><time>2026-04-28T09:45:26.327Z</time></trkpt><trkpt lat="44.0607844" lon="16.5832544"><ele>728.6666666666667</ele><time>2026-04-28T09:45:27.326Z</time></trkpt><trkpt lat="44.0605825" lon="16.5833696"><ele>730.3333333333334</ele><time>2026-04-28T09:45:28.326Z</time></trkpt><trkpt lat="44.0603746" lon="16.5834698"><ele>732.0</ele><time>2026-04-28T09:45:29.326Z</time></trkpt><trkpt lat="44.0601606" lon="16.5835578"><ele>732.0</ele><time>2026-04-28T09:45:30.326Z</time></trkpt><trkpt lat="44.0599533" lon="16.5836401"><ele>732.0</ele><time>2026-04-28T09:45:31.326Z</time></trkpt><trkpt lat="44.0597376" lon="16.583718"><ele>732.0</ele><time>2026-04-28T09:45:32.326Z</time></trkpt><trkpt lat="44.0595248" lon="16.5837898"><ele>730.6666666666666</ele><time>2026-04-28T09:45:33.326Z</time></trkpt><trkpt lat="44.0593129" lon="16.5838545"><ele>729.3333333333333</ele><time>2026-04-28T09:45:34.326Z</time></trkpt><trkpt lat="44.0590972" lon="16.5839199"><ele>728.0</ele><time>2026-04-28T09:45:35.326Z</time></trkpt><trkpt lat="44.0588844" lon="16.5839801"><ele>728.0</ele><time>2026-04-28T09:45:36.327Z</time></trkpt><trkpt lat="44.0586751" lon="16.5840393"><ele>728.0</ele><time>2026-04-28T09:45:37.326Z</time></trkpt><trkpt lat="44.0584613" lon="16.5840944"><ele>728.0</ele><time>2026-04-28T09:45:38.327Z</time></trkpt><trkpt lat="44.0582584" lon="16.5841496"><ele>728.3333333333333</ele><time>2026-04-28T09:45:39.327Z</time></trkpt><trkpt lat="44.0580647" lon="16.5842091"><ele>728.6666666666666</ele><time>2026-04-28T09:45:40.326Z</time></trkpt><trkpt lat="44.0578718" lon="16.5842668"><ele>729.0</ele><time>2026-04-28T09:45:41.327Z</time></trkpt><trkpt lat="44.0576778" lon="16.5843268"><ele>729.0</ele><time>2026-04-28T09:45:42.326Z</time></trkpt><trkpt lat="44.0574814" lon="16.5843793"><ele>729.0</ele><time>2026-04-28T09:45:43.326Z</time></trkpt><trkpt lat="44.0572888" lon="16.5844281"><ele>729.0</ele><time>2026-04-28T09:45:44.326Z</time></trkpt><trkpt lat="44.0570976" lon="16.5844818"><ele>727.3333333333334</ele><time>2026-04-28T09:45:45.326Z</time></trkpt><trkpt lat="44.0569161" lon="16.5845344"><ele>725.6666666666667</ele><time>2026-04-28T09:45:46.326Z</time></trkpt><trkpt lat="44.0567378" lon="16.5845826"><ele>724.0</ele><time>2026-04-28T09:45:47.327Z</time></trkpt><trkpt lat="44.0565711" lon="16.5846323"><ele>723.3333333333334</ele><time>2026-04-28T09:45:48.327Z</time></trkpt><trkpt lat="44.0564079" lon="16.5846834"><ele>722.6666666666666</ele><time>2026-04-28T09:45:49.326Z</time></trkpt><trkpt lat="44.056239" lon="16.5847382"><ele>722.0</ele><time>2026-04-28T09:45:50.327Z</time></trkpt><trkpt lat="44.0560705" lon="16.5847897"><ele>722.0</ele><time>2026-04-28T09:45:51.327Z</time></trkpt><trkpt lat="44.0559055" lon="16.5848431"><ele>722.0</ele><time>2026-04-28T09:45:52.326Z</time></trkpt><trkpt lat="44.05574" lon="16.5849014"><ele>722.0</ele><time>2026-04-28T09:45:53.327Z</time></trkpt><trkpt lat="44.0555767" lon="16.58496"><ele>721.6666666666666</ele><time>2026-04-28T09:45:54.326Z</time></trkpt><trkpt lat="44.0554177" lon="16.5850114"><ele>721.3333333333334</ele><time>2026-04-28T09:45:55.327Z</time></trkpt><trkpt lat="44.0552544" lon="16.5850681"><ele>721.0</ele><time>2026-04-28T09:45:56.326Z</time></trkpt><trkpt lat="44.055097" lon="16.5851205"><ele>720.3333333333334</ele><time>2026-04-28T09:45:57.327Z</time></trkpt><trkpt lat="44.0549381" lon="16.5851673"><ele>719.6666666666666</ele><time>2026-04-28T09:45:58.327Z</time></trkpt><trkpt lat="44.054774" lon="16.5852112"><ele>719.0</ele><time>2026-04-28T09:45:59.326Z</time></trkpt><trkpt lat="44.0546174" lon="16.5852564"><ele>719.0</ele><time>2026-04-28T09:46:00.326Z</time></trkpt><trkpt lat="44.0544626" lon="16.585298"><ele>719.0</ele><time>2026-04-28T09:46:01.326Z</time></trkpt><trkpt lat="44.0543085" lon="16.5853288"><ele>719.0</ele><time>2026-04-28T09:46:02.326Z</time></trkpt><trkpt lat="44.0541533" lon="16.5853483"><ele>717.75</ele><time>2026-04-28T09:46:03.327Z</time></trkpt><trkpt lat="44.0539953" lon="16.5853664"><ele>716.5</ele><time>2026-04-28T09:46:04.327Z</time></trkpt><trkpt lat="44.0538553" lon="16.5853877"><ele>715.25</ele><time>2026-04-28T09:46:05.326Z</time></trkpt><trkpt lat="44.0537165" lon="16.585408"><ele>714.0</ele><time>2026-04-28T09:46:06.326Z</time></trkpt><trkpt lat="44.0535758" lon="16.5854334"><ele>714.0</ele><time>2026-04-28T09:46:07.326Z</time></trkpt><trkpt lat="44.0534242" lon="16.5854614"><ele>714.0</ele><time>2026-04-28T09:46:08.326Z</time></trkpt><trkpt lat="44.0532881" lon="16.585502"><ele>714.0</ele><time>2026-04-28T09:46:09.326Z</time></trkpt><trkpt lat="44.05314" lon="16.5855716"><ele>714.0</ele><time>2026-04-28T09:46:10.326Z</time></trkpt><trkpt lat="44.0529847" lon="16.5856718"><ele>714.3333333333334</ele><time>2026-04-28T09:46:11.326Z</time></trkpt><trkpt lat="44.052813" lon="16.5857704"><ele>714.6666666666667</ele><time>2026-04-28T09:46:12.326Z</time></trkpt><trkpt lat="44.0526205" lon="16.5858779"><ele>715.0</ele><time>2026-04-28T09:46:13.327Z</time></trkpt><trkpt lat="44.0524149" lon="16.5859969"><ele>715.6666666666667</ele><time>2026-04-28T09:46:14.326Z</time></trkpt><trkpt lat="44.0522115" lon="16.5861187"><ele>716.3333333333334</ele><time>2026-04-28T09:46:15.326Z</time></trkpt><trkpt lat="44.0520254" lon="16.5862516"><ele>717.0</ele><time>2026-04-28T09:46:16.326Z</time></trkpt><trkpt lat="44.0518448" lon="16.5863908"><ele>716.3333333333334</ele><time>2026-04-28T09:46:17.326Z</time></trkpt><trkpt lat="44.051671" lon="16.5865328"><ele>715.6666666666667</ele><time>2026-04-28T09:46:18.327Z</time></trkpt><trkpt lat="44.0515014" lon="16.5866687"><ele>715.0</ele><time>2026-04-28T09:46:19.326Z</time></trkpt><trkpt lat="44.0513264" lon="16.5868047"><ele>715.0</ele><time>2026-04-28T09:46:20.327Z</time></trkpt><trkpt lat="44.0511546" lon="16.586937"><ele>715.0</ele><time>2026-04-28T09:46:21.327Z</time></trkpt><trkpt lat="44.0509886" lon="16.5870641"><ele>715.0</ele><time>2026-04-28T09:46:22.326Z</time></trkpt><trkpt lat="44.0508174" lon="16.5871851"><ele>713.6666666666667</ele><time>2026-04-28T09:46:23.327Z</time></trkpt><trkpt lat="44.0506432" lon="16.5872831"><ele>712.3333333333334</ele><time>2026-04-28T09:46:24.326Z</time></trkpt><trkpt lat="44.0504588" lon="16.5873673"><ele>711.0</ele><time>2026-04-28T09:46:25.327Z</time></trkpt><trkpt lat="44.0502687" lon="16.5874492"><ele>711.0</ele><time>2026-04-28T09:46:26.326Z</time></trkpt><trkpt lat="44.050078" lon="16.587525"><ele>711.0</ele><time>2026-04-28T09:46:27.327Z</time></trkpt><trkpt lat="44.0498836" lon="16.5875864"><ele>711.0</ele><time>2026-04-28T09:46:28.326Z</time></trkpt><trkpt lat="44.0496818" lon="16.5876389"><ele>711.0</ele><time>2026-04-28T09:46:29.326Z</time></trkpt><trkpt lat="44.0494744" lon="16.5876842"><ele>711.0</ele><time>2026-04-28T09:46:30.326Z</time></trkpt><trkpt lat="44.0492706" lon="16.5877227"><ele>711.0</ele><time>2026-04-28T09:46:31.326Z</time></trkpt><trkpt lat="44.0490693" lon="16.5877624"><ele>711.0</ele><time>2026-04-28T09:46:32.326Z</time></trkpt><trkpt lat="44.0488628" lon="16.5878193"><ele>711.0</ele><time>2026-04-28T09:46:33.326Z</time></trkpt><trkpt lat="44.0486644" lon="16.5878894"><ele>711.0</ele><time>2026-04-28T09:46:34.326Z</time></trkpt><trkpt lat="44.0484752" lon="16.587971"><ele>711.3333333333334</ele><time>2026-04-28T09:46:35.326Z</time></trkpt><trkpt lat="44.0482832" lon="16.5880552"><ele>711.6666666666667</ele><time>2026-04-28T09:46:36.326Z</time></trkpt><trkpt lat="44.0480972" lon="16.5881408"><ele>712.0</ele><time>2026-04-28T09:46:37.326Z</time></trkpt><trkpt lat="44.0479151" lon="16.5882253"><ele>712.0</ele><time>2026-04-28T09:46:38.326Z</time></trkpt><trkpt lat="44.047735" lon="16.5883181"><ele>712.0</ele><time>2026-04-28T09:46:39.327Z</time></trkpt><trkpt lat="44.0475632" lon="16.5883988"><ele>712.0</ele><time>2026-04-28T09:46:40.326Z</time></trkpt><trkpt lat="44.0473963" lon="16.5884714"><ele>711.6666666666667</ele><time>2026-04-28T09:46:41.327Z</time></trkpt><trkpt lat="44.0472219" lon="16.5885526"><ele>711.3333333333334</ele><time>2026-04-28T09:46:42.326Z</time></trkpt><trkpt lat="44.0470396" lon="16.5886339"><ele>711.0</ele><time>2026-04-28T09:46:43.326Z</time></trkpt><trkpt lat="44.0468535" lon="16.5887157"><ele>711.0</ele><time>2026-04-28T09:46:44.327Z</time></trkpt><trkpt lat="44.0466638" lon="16.5887977"><ele>711.0</ele><time>2026-04-28T09:46:45.326Z</time></trkpt><trkpt lat="44.046468" lon="16.5888821"><ele>711.0</ele><time>2026-04-28T09:46:46.327Z</time></trkpt><trkpt lat="44.046263" lon="16.5889671"><ele>711.3333333333334</ele><time>2026-04-28T09:46:47.326Z</time></trkpt><trkpt lat="44.0460558" lon="16.5890564"><ele>711.6666666666667</ele><time>2026-04-28T09:46:48.326Z</time></trkpt><trkpt lat="44.0458415" lon="16.5891281"><ele>712.0</ele><time>2026-04-28T09:46:49.327Z</time></trkpt><trkpt lat="44.0456235" lon="16.589206"><ele>714.0</ele><time>2026-04-28T09:46:50.326Z</time></trkpt><trkpt lat="44.045403" lon="16.5892826"><ele>716.0</ele><time>2026-04-28T09:46:51.327Z</time></trkpt><trkpt lat="44.0451805" lon="16.5893574"><ele>716.0</ele><time>2026-04-28T09:46:52.327Z</time></trkpt><trkpt lat="44.0449636" lon="16.5894374"><ele>716.0</ele><time>2026-04-28T09:46:53.326Z</time></trkpt><trkpt lat="44.0447597" lon="16.5895104"><ele>716.0</ele><time>2026-04-28T09:46:54.326Z</time></trkpt><trkpt lat="44.0445635" lon="16.5895911"><ele>715.0</ele><time>2026-04-28T09:46:55.326Z</time></trkpt><trkpt lat="44.0443655" lon="16.5896867"><ele>714.0</ele><time>2026-04-28T09:46:56.326Z</time></trkpt><trkpt lat="44.0441661" lon="16.5897949"><ele>713.0</ele><time>2026-04-28T09:46:57.326Z</time></trkpt><trkpt lat="44.0439719" lon="16.5899046"><ele>715.0</ele><time>2026-04-28T09:46:58.326Z</time></trkpt><trkpt lat="44.0437801" lon="16.5900151"><ele>717.0</ele><time>2026-04-28T09:46:59.327Z</time></trkpt><trkpt lat="44.043585" lon="16.5901243"><ele>719.0</ele><time>2026-04-28T09:47:00.327Z</time></trkpt><trkpt lat="44.0433909" lon="16.5902347"><ele>719.6666666666666</ele><time>2026-04-28T09:47:01.326Z</time></trkpt><trkpt lat="44.0431981" lon="16.5903394"><ele>720.3333333333334</ele><time>2026-04-28T09:47:02.326Z</time></trkpt><trkpt lat="44.0430129" lon="16.5904429"><ele>721.0</ele><time>2026-04-28T09:47:03.327Z</time></trkpt><trkpt lat="44.042819" lon="16.590545"><ele>721.0</ele><time>2026-04-28T09:47:04.326Z</time></trkpt><trkpt lat="44.0426266" lon="16.5906536"><ele>721.0</ele><time>2026-04-28T09:47:05.327Z</time></trkpt><trkpt lat="44.0424316" lon="16.590763"><ele>721.0</ele><time>2026-04-28T09:47:06.327Z</time></trkpt><trkpt lat="44.0422406" lon="16.5908765"><ele>720.3333333333334</ele><time>2026-04-28T09:47:07.326Z</time></trkpt><trkpt lat="44.0420484" lon="16.5909967"><ele>719.6666666666666</ele><time>2026-04-28T09:47:08.326Z</time></trkpt><trkpt lat="44.0418577" lon="16.5911334"><ele>719.0</ele><time>2026-04-28T09:47:09.326Z</time></trkpt><trkpt lat="44.0416644" lon="16.5912703"><ele>720.3333333333333</ele><time>2026-04-28T09:47:10.326Z</time></trkpt><trkpt lat="44.0414723" lon="16.5914133"><ele>721.6666666666666</ele><time>2026-04-28T09:47:11.326Z</time></trkpt><trkpt lat="44.0412758" lon="16.5915525"><ele>723.0</ele><time>2026-04-28T09:47:12.327Z</time></trkpt><trkpt lat="44.0410815" lon="16.5916934"><ele>723.0</ele><time>2026-04-28T09:47:13.326Z</time></trkpt><trkpt lat="44.0408785" lon="16.5918393"><ele>723.0</ele><time>2026-04-28T09:47:14.326Z</time></trkpt><trkpt lat="44.0406818" lon="16.5919836"><ele>722.0</ele><time>2026-04-28T09:47:15.327Z</time></trkpt><trkpt lat="44.0404786" lon="16.592138"><ele>721.0</ele><time>2026-04-28T09:47:16.326Z</time></trkpt><trkpt lat="44.0402811" lon="16.5922875"><ele>721.0</ele><time>2026-04-28T09:47:17.326Z</time></trkpt><trkpt lat="44.0400773" lon="16.5924424"><ele>721.0</ele><time>2026-04-28T09:47:18.327Z</time></trkpt><trkpt lat="44.0398716" lon="16.5925915"><ele>720.0</ele><time>2026-04-28T09:47:19.326Z</time></trkpt><trkpt lat="44.0396689" lon="16.5927426"><ele>719.0</ele><time>2026-04-28T09:47:20.327Z</time></trkpt><trkpt lat="44.0394622" lon="16.5928861"><ele>719.0</ele><time>2026-04-28T09:47:21.326Z</time></trkpt><trkpt lat="44.0392525" lon="16.5930357"><ele>719.0</ele><time>2026-04-28T09:47:22.327Z</time></trkpt><trkpt lat="44.0390432" lon="16.5931904"><ele>721.0</ele><time>2026-04-28T09:47:23.326Z</time></trkpt><trkpt lat="44.0388325" lon="16.593347"><ele>723.0</ele><time>2026-04-28T09:47:24.327Z</time></trkpt><trkpt lat="44.0386287" lon="16.5935027"><ele>723.0</ele><time>2026-04-28T09:47:25.326Z</time></trkpt><trkpt lat="44.0384242" lon="16.5936518"><ele>723.0</ele><time>2026-04-28T09:47:26.326Z</time></trkpt><trkpt lat="44.0382215" lon="16.5938061"><ele>723.5</ele><time>2026-04-28T09:47:27.326Z</time></trkpt><trkpt lat="44.0380193" lon="16.593961"><ele>724.0</ele><time>2026-04-28T09:47:28.326Z</time></trkpt><trkpt lat="44.0378243" lon="16.5941232"><ele>724.0</ele><time>2026-04-28T09:47:29.326Z</time></trkpt><trkpt lat="44.0376265" lon="16.5942809"><ele>724.0</ele><time>2026-04-28T09:47:30.326Z</time></trkpt><trkpt lat="44.0374334" lon="16.5944376"><ele>724.3333333333334</ele><time>2026-04-28T09:47:31.327Z</time></trkpt><trkpt lat="44.0372368" lon="16.5945929"><ele>724.6666666666666</ele><time>2026-04-28T09:47:32.326Z</time></trkpt><trkpt lat="44.0370406" lon="16.5947412"><ele>725.0</ele><time>2026-04-28T09:47:33.326Z</time></trkpt><trkpt lat="44.0368358" lon="16.5948682"><ele>725.0</ele><time>2026-04-28T09:47:34.327Z</time></trkpt><trkpt lat="44.0366177" lon="16.5949775"><ele>725.0</ele><time>2026-04-28T09:47:35.326Z</time></trkpt><trkpt lat="44.0363964" lon="16.5950595"><ele>725.0</ele><time>2026-04-28T09:47:36.327Z</time></trkpt><trkpt lat="44.0361708" lon="16.5951293"><ele>725.0</ele><time>2026-04-28T09:47:37.326Z</time></trkpt><trkpt lat="44.0359502" lon="16.5951813"><ele>726.5</ele><time>2026-04-28T09:47:38.326Z</time></trkpt><trkpt lat="44.0357286" lon="16.5952341"><ele>728.0</ele><time>2026-04-28T09:47:39.327Z</time></trkpt><trkpt lat="44.0355002" lon="16.5952928"><ele>726.5</ele><time>2026-04-28T09:47:40.327Z</time></trkpt><trkpt lat="44.0352773" lon="16.5953495"><ele>725.0</ele><time>2026-04-28T09:47:41.326Z</time></trkpt><trkpt lat="44.0350481" lon="16.5954034"><ele>725.0</ele><time>2026-04-28T09:47:42.327Z</time></trkpt><trkpt lat="44.0348256" lon="16.5954561"><ele>725.0</ele><time>2026-04-28T09:47:43.326Z</time></trkpt><trkpt lat="44.0345991" lon="16.5955063"><ele>725.0</ele><time>2026-04-28T09:47:44.327Z</time></trkpt><trkpt lat="44.0343671" lon="16.5955602"><ele>725.0</ele><time>2026-04-28T09:47:45.326Z</time></trkpt><trkpt lat="44.0341427" lon="16.5956071"><ele>723.0</ele><time>2026-04-28T09:47:46.326Z</time></trkpt><trkpt lat="44.0339178" lon="16.5956573"><ele>721.0</ele><time>2026-04-28T09:47:47.326Z</time></trkpt><trkpt lat="44.0336895" lon="16.5957019"><ele>721.0</ele><time>2026-04-28T09:47:48.326Z</time></trkpt><trkpt lat="44.033456" lon="16.5957421"><ele>721.0</ele><time>2026-04-28T09:47:49.327Z</time></trkpt><trkpt lat="44.0332227" lon="16.5957757"><ele>721.5</ele><time>2026-04-28T09:47:50.326Z</time></trkpt><trkpt lat="44.0329877" lon="16.5958009"><ele>722.0</ele><time>2026-04-28T09:47:51.326Z</time></trkpt><trkpt lat="44.032753" lon="16.5958268"><ele>722.0</ele><time>2026-04-28T09:47:52.327Z</time></trkpt><trkpt lat="44.0325132" lon="16.5958489"><ele>722.0</ele><time>2026-04-28T09:47:53.326Z</time></trkpt><trkpt lat="44.0322759" lon="16.5958713"><ele>722.5</ele><time>2026-04-28T09:47:54.326Z</time></trkpt><trkpt lat="44.0320405" lon="16.5958931"><ele>723.0</ele><time>2026-04-28T09:47:55.327Z</time></trkpt><trkpt lat="44.0318055" lon="16.5959022"><ele>724.0</ele><time>2026-04-28T09:47:56.327Z</time></trkpt><trkpt lat="44.031567" lon="16.5959226"><ele>725.0</ele><time>2026-04-28T09:47:57.326Z</time></trkpt><trkpt lat="44.0313293" lon="16.5959415"><ele>725.0</ele><time>2026-04-28T09:47:58.327Z</time></trkpt><trkpt lat="44.0311013" lon="16.595969"><ele>725.0</ele><time>2026-04-28T09:47:59.326Z</time></trkpt><trkpt lat="44.0308715" lon="16.5960016"><ele>726.5</ele><time>2026-04-28T09:48:00.327Z</time></trkpt><trkpt lat="44.030644" lon="16.5960433"><ele>728.0</ele><time>2026-04-28T09:48:01.326Z</time></trkpt><trkpt lat="44.0304177" lon="16.5960921"><ele>728.0</ele><time>2026-04-28T09:48:02.327Z</time></trkpt><trkpt lat="44.0301968" lon="16.5961381"><ele>728.0</ele><time>2026-04-28T09:48:03.327Z</time></trkpt><trkpt lat="44.0299779" lon="16.596196"><ele>728.0</ele><time>2026-04-28T09:48:04.326Z</time></trkpt><trkpt lat="44.0297586" lon="16.5962583"><ele>727.6666666666666</ele><time>2026-04-28T09:48:05.326Z</time></trkpt><trkpt lat="44.0295501" lon="16.596325"><ele>727.3333333333334</ele><time>2026-04-28T09:48:06.327Z</time></trkpt><trkpt lat="44.0293357" lon="16.5963897"><ele>727.0</ele><time>2026-04-28T09:48:07.326Z</time></trkpt><trkpt lat="44.0291206" lon="16.596458"><ele>727.0</ele><time>2026-04-28T09:48:08.326Z</time></trkpt><trkpt lat="44.0289035" lon="16.5965329"><ele>727.0</ele><time>2026-04-28T09:48:09.326Z</time></trkpt><trkpt lat="44.0286812" lon="16.5966122"><ele>727.0</ele><time>2026-04-28T09:48:10.326Z</time></trkpt><trkpt lat="44.0284572" lon="16.5966821"><ele>727.0</ele><time>2026-04-28T09:48:11.326Z</time></trkpt><trkpt lat="44.0282327" lon="16.5967597"><ele>727.0</ele><time>2026-04-28T09:48:12.326Z</time></trkpt><trkpt lat="44.0280044" lon="16.5968375"><ele>727.0</ele><time>2026-04-28T09:48:13.326Z</time></trkpt><trkpt lat="44.0277813" lon="16.5969175"><ele>727.0</ele><time>2026-04-28T09:48:14.327Z</time></trkpt><trkpt lat="44.0275484" lon="16.5969986"><ele>727.0</ele><time>2026-04-28T09:48:15.326Z</time></trkpt><trkpt lat="44.0273186" lon="16.5970808"><ele>724.5</ele><time>2026-04-28T09:48:16.327Z</time></trkpt><trkpt lat="44.0270875" lon="16.597165"><ele>722.0</ele><time>2026-04-28T09:48:17.326Z</time></trkpt><trkpt lat="44.0268535" lon="16.5972488"><ele>722.0</ele><time>2026-04-28T09:48:18.326Z</time></trkpt><trkpt lat="44.0266213" lon="16.5973354"><ele>722.0</ele><time>2026-04-28T09:48:19.326Z</time></trkpt><trkpt lat="44.0263854" lon="16.5974286"><ele>722.0</ele><time>2026-04-28T09:48:20.327Z</time></trkpt><trkpt lat="44.0261516" lon="16.5975157"><ele>722.0</ele><time>2026-04-28T09:48:21.326Z</time></trkpt><trkpt lat="44.0259191" lon="16.5976019"><ele>724.0</ele><time>2026-04-28T09:48:22.326Z</time></trkpt><trkpt lat="44.0256903" lon="16.5976868"><ele>726.0</ele><time>2026-04-28T09:48:23.326Z</time></trkpt><trkpt lat="44.0254622" lon="16.5977764"><ele>724.0</ele><time>2026-04-28T09:48:24.326Z</time></trkpt><trkpt lat="44.0252404" lon="16.5978686"><ele>722.0</ele><time>2026-04-28T09:48:25.326Z</time></trkpt><trkpt lat="44.0250161" lon="16.5979638"><ele>722.5</ele><time>2026-04-28T09:48:26.326Z</time></trkpt><trkpt lat="44.0247866" lon="16.5980597"><ele>723.0</ele><time>2026-04-28T09:48:27.326Z</time></trkpt><trkpt lat="44.0245597" lon="16.5981513"><ele>723.0</ele><time>2026-04-28T09:48:28.326Z</time></trkpt><trkpt lat="44.0243383" lon="16.5982406"><ele>723.0</ele><time>2026-04-28T09:48:29.326Z</time></trkpt><trkpt lat="44.0241157" lon="16.5983342"><ele>724.5</ele><time>2026-04-28T09:48:30.326Z</time></trkpt><trkpt lat="44.0238929" lon="16.5984221"><ele>726.0</ele><time>2026-04-28T09:48:31.326Z</time></trkpt><trkpt lat="44.0236715" lon="16.5985179"><ele>726.0</ele><time>2026-04-28T09:48:32.327Z</time></trkpt><trkpt lat="44.0234495" lon="16.5986164"><ele>726.0</ele><time>2026-04-28T09:48:33.327Z</time></trkpt><trkpt lat="44.0232288" lon="16.5987101"><ele>723.0</ele><time>2026-04-28T09:48:34.326Z</time></trkpt><trkpt lat="44.0230055" lon="16.5988022"><ele>720.0</ele><time>2026-04-28T09:48:35.326Z</time></trkpt><trkpt lat="44.0227842" lon="16.598896"><ele>720.0</ele><time>2026-04-28T09:48:36.326Z</time></trkpt><trkpt lat="44.0225648" lon="16.5989979"><ele>720.0</ele><time>2026-04-28T09:48:37.326Z</time></trkpt><trkpt lat="44.0223417" lon="16.5990905"><ele>722.0</ele><time>2026-04-28T09:48:38.326Z</time></trkpt><trkpt lat="44.0221176" lon="16.59919"><ele>724.0</ele><time>2026-04-28T09:48:39.326Z</time></trkpt><trkpt lat="44.0218973" lon="16.5992895"><ele>724.0</ele><time>2026-04-28T09:48:40.327Z</time></trkpt><trkpt lat="44.0216755" lon="16.5993931"><ele>724.0</ele><time>2026-04-28T09:48:41.326Z</time></trkpt><trkpt lat="44.0214523" lon="16.5994949"><ele>720.5</ele><time>2026-04-28T09:48:42.327Z</time></trkpt><trkpt lat="44.0212289" lon="16.5996002"><ele>717.0</ele><time>2026-04-28T09:48:43.326Z</time></trkpt><trkpt lat="44.0210036" lon="16.599717"><ele>717.0</ele><time>2026-04-28T09:48:44.326Z</time></trkpt><trkpt lat="44.0207813" lon="16.5998245"><ele>717.0</ele><time>2026-04-28T09:48:45.326Z</time></trkpt><trkpt lat="44.0205573" lon="16.599928"><ele>717.0</ele><time>2026-04-28T09:48:46.326Z</time></trkpt><trkpt lat="44.0203308" lon="16.6000354"><ele>717.0</ele><time>2026-04-28T09:48:47.326Z</time></trkpt><trkpt lat="44.0201097" lon="16.6001421"><ele>719.0</ele><time>2026-04-28T09:48:48.326Z</time></trkpt><trkpt lat="44.0198904" lon="16.6002482"><ele>721.0</ele><time>2026-04-28T09:48:49.327Z</time></trkpt><trkpt lat="44.0196692" lon="16.6003627"><ele>716.5</ele><time>2026-04-28T09:48:50.326Z</time></trkpt><trkpt lat="44.0194476" lon="16.6004696"><ele>712.0</ele><time>2026-04-28T09:48:51.326Z</time></trkpt><trkpt lat="44.0192288" lon="16.6005774"><ele>715.0</ele><time>2026-04-28T09:48:52.327Z</time></trkpt><trkpt lat="44.0190083" lon="16.6006809"><ele>718.0</ele><time>2026-04-28T09:48:53.326Z</time></trkpt><trkpt lat="44.0187897" lon="16.600786"><ele>718.0</ele><time>2026-04-28T09:48:54.326Z</time></trkpt><trkpt lat="44.0185758" lon="16.6008881"><ele>718.0</ele><time>2026-04-28T09:48:55.326Z</time></trkpt><trkpt lat="44.0183561" lon="16.6009954"><ele>717.5</ele><time>2026-04-28T09:48:56.326Z</time></trkpt><trkpt lat="44.0181368" lon="16.6010973"><ele>717.0</ele><time>2026-04-28T09:48:57.326Z</time></trkpt><trkpt lat="44.0179191" lon="16.601201"><ele>717.0</ele><time>2026-04-28T09:48:58.326Z</time></trkpt><trkpt lat="44.0176938" lon="16.6013068"><ele>717.0</ele><time>2026-04-28T09:48:59.327Z</time></trkpt><trkpt lat="44.0174758" lon="16.601409"><ele>718.0</ele><time>2026-04-28T09:49:00.326Z</time></trkpt><trkpt lat="44.0172527" lon="16.6015151"><ele>719.0</ele><time>2026-04-28T09:49:01.326Z</time></trkpt><trkpt lat="44.0170267" lon="16.6016194"><ele>719.0</ele><time>2026-04-28T09:49:02.326Z</time></trkpt><trkpt lat="44.0168013" lon="16.6017145"><ele>719.0</ele><time>2026-04-28T09:49:03.326Z</time></trkpt><trkpt lat="44.0165807" lon="16.6018123"><ele>719.3333333333333</ele><time>2026-04-28T09:49:04.327Z</time></trkpt><trkpt lat="44.0163647" lon="16.6019026"><ele>719.6666666666666</ele><time>2026-04-28T09:49:05.326Z</time></trkpt><trkpt lat="44.0161556" lon="16.601987"><ele>720.0</ele><time>2026-04-28T09:49:06.326Z</time></trkpt><trkpt lat="44.0159508" lon="16.6020621"><ele>717.3333333333334</ele><time>2026-04-28T09:49:07.326Z</time></trkpt><trkpt lat="44.0157506" lon="16.6021479"><ele>714.6666666666667</ele><time>2026-04-28T09:49:08.327Z</time></trkpt><trkpt lat="44.015549" lon="16.602222"><ele>712.0</ele><time>2026-04-28T09:49:09.326Z</time></trkpt><trkpt lat="44.0153461" lon="16.6023013"><ele>712.0</ele><time>2026-04-28T09:49:10.326Z</time></trkpt><trkpt lat="44.0151475" lon="16.6023768"><ele>712.0</ele><time>2026-04-28T09:49:11.326Z</time></trkpt><trkpt lat="44.0149469" lon="16.6024528"><ele>712.0</ele><time>2026-04-28T09:49:12.326Z</time></trkpt><trkpt lat="44.014748" lon="16.6025308"><ele>712.3333333333334</ele><time>2026-04-28T09:49:13.326Z</time></trkpt><trkpt lat="44.0145441" lon="16.6026117"><ele>712.6666666666666</ele><time>2026-04-28T09:49:14.326Z</time></trkpt><trkpt lat="44.0143468" lon="16.6026864"><ele>713.0</ele><time>2026-04-28T09:49:15.326Z</time></trkpt><trkpt lat="44.0141469" lon="16.6027653"><ele>711.6666666666666</ele><time>2026-04-28T09:49:16.326Z</time></trkpt><trkpt lat="44.0139428" lon="16.6028411"><ele>710.3333333333334</ele><time>2026-04-28T09:49:17.326Z</time></trkpt><trkpt lat="44.0137394" lon="16.6029135"><ele>709.0</ele><time>2026-04-28T09:49:18.326Z</time></trkpt><trkpt lat="44.013533" lon="16.6029969"><ele>709.0</ele><time>2026-04-28T09:49:19.326Z</time></trkpt><trkpt lat="44.0133327" lon="16.6030755"><ele>709.0</ele><time>2026-04-28T09:49:20.326Z</time></trkpt><trkpt lat="44.0131295" lon="16.6031518"><ele>709.0</ele><time>2026-04-28T09:49:21.326Z</time></trkpt><trkpt lat="44.0129314" lon="16.6032282"><ele>709.6666666666667</ele><time>2026-04-28T09:49:22.327Z</time></trkpt><trkpt lat="44.0127277" lon="16.603288"><ele>710.3333333333334</ele><time>2026-04-28T09:49:23.327Z</time></trkpt><trkpt lat="44.0125248" lon="16.6033326"><ele>711.0</ele><time>2026-04-28T09:49:24.326Z</time></trkpt><trkpt lat="44.0123238" lon="16.6033496"><ele>711.0</ele><time>2026-04-28T09:49:25.327Z</time></trkpt><trkpt lat="44.0121188" lon="16.6033594"><ele>711.0</ele><time>2026-04-28T09:49:26.326Z</time></trkpt><trkpt lat="44.0119137" lon="16.6033586"><ele>711.0</ele><time>2026-04-28T09:49:27.327Z</time></trkpt><trkpt lat="44.0117077" lon="16.6033607"><ele>711.3333333333334</ele><time>2026-04-28T09:49:28.326Z</time></trkpt><trkpt lat="44.0115048" lon="16.6033646"><ele>711.6666666666667</ele><time>2026-04-28T09:49:29.326Z</time></trkpt><trkpt lat="44.0112994" lon="16.6033715"><ele>712.0</ele><time>2026-04-28T09:49:30.326Z</time></trkpt><trkpt lat="44.0110929" lon="16.6033743"><ele>712.0</ele><time>2026-04-28T09:49:31.327Z</time></trkpt><trkpt lat="44.0108856" lon="16.6033868"><ele>712.0</ele><time>2026-04-28T09:49:32.326Z</time></trkpt><trkpt lat="44.0106816" lon="16.6033998"><ele>712.0</ele><time>2026-04-28T09:49:33.326Z</time></trkpt><trkpt lat="44.0104757" lon="16.6034212"><ele>711.6666666666667</ele><time>2026-04-28T09:49:34.326Z</time></trkpt><trkpt lat="44.0102684" lon="16.6034505"><ele>711.3333333333334</ele><time>2026-04-28T09:49:35.326Z</time></trkpt><trkpt lat="44.01006" lon="16.603485"><ele>711.0</ele><time>2026-04-28T09:49:36.326Z</time></trkpt><trkpt lat="44.0098497" lon="16.603524"><ele>710.6666666666666</ele><time>2026-04-28T09:49:37.326Z</time></trkpt><trkpt lat="44.0096448" lon="16.603553"><ele>710.3333333333333</ele><time>2026-04-28T09:49:38.327Z</time></trkpt><trkpt lat="44.009436" lon="16.6035833"><ele>710.0</ele><time>2026-04-28T09:49:39.327Z</time></trkpt><trkpt lat="44.0092252" lon="16.6036122"><ele>710.3333333333333</ele><time>2026-04-28T09:49:40.326Z</time></trkpt><trkpt lat="44.0090107" lon="16.6036419"><ele>710.6666666666666</ele><time>2026-04-28T09:49:41.326Z</time></trkpt><trkpt lat="44.0087997" lon="16.6036742"><ele>711.0</ele><time>2026-04-28T09:49:42.327Z</time></trkpt><trkpt lat="44.0085843" lon="16.6037018"><ele>710.0</ele><time>2026-04-28T09:49:43.326Z</time></trkpt><trkpt lat="44.0083679" lon="16.6037386"><ele>709.0</ele><time>2026-04-28T09:49:44.327Z</time></trkpt><trkpt lat="44.0081501" lon="16.6037723"><ele>708.0</ele><time>2026-04-28T09:49:45.326Z</time></trkpt><trkpt lat="44.0079346" lon="16.6038073"><ele>708.0</ele><time>2026-04-28T09:49:46.326Z</time></trkpt><trkpt lat="44.007717" lon="16.6038438"><ele>708.0</ele><time>2026-04-28T09:49:47.326Z</time></trkpt><trkpt lat="44.0074968" lon="16.6038875"><ele>708.0</ele><time>2026-04-28T09:49:48.326Z</time></trkpt><trkpt lat="44.0072793" lon="16.603952"><ele>708.3333333333334</ele><time>2026-04-28T09:49:49.326Z</time></trkpt><trkpt lat="44.0070706" lon="16.6040453"><ele>708.6666666666667</ele><time>2026-04-28T09:49:50.327Z</time></trkpt><trkpt lat="44.0068677" lon="16.6041656"><ele>709.0</ele><time>2026-04-28T09:49:51.327Z</time></trkpt><trkpt lat="44.0066638" lon="16.6042994"><ele>709.0</ele><time>2026-04-28T09:49:52.326Z</time></trkpt><trkpt lat="44.006461" lon="16.6044387"><ele>709.0</ele><time>2026-04-28T09:49:53.326Z</time></trkpt><trkpt lat="44.0062648" lon="16.6045818"><ele>709.0</ele><time>2026-04-28T09:49:54.327Z</time></trkpt><trkpt lat="44.0060602" lon="16.6047174"><ele>709.0</ele><time>2026-04-28T09:49:55.327Z</time></trkpt><trkpt lat="44.0058554" lon="16.6048456"><ele>709.0</ele><time>2026-04-28T09:49:56.327Z</time></trkpt><trkpt lat="44.005646" lon="16.6049555"><ele>709.0</ele><time>2026-04-28T09:49:57.327Z</time></trkpt><trkpt lat="44.0054322" lon="16.6050373"><ele>708.6666666666667</ele><time>2026-04-28T09:49:58.326Z</time></trkpt><trkpt lat="44.0052161" lon="16.6051019"><ele>708.3333333333334</ele><time>2026-04-28T09:49:59.327Z</time></trkpt><trkpt lat="44.0049979" lon="16.6051542"><ele>708.0</ele><time>2026-04-28T09:50:00.326Z</time></trkpt><trkpt lat="44.0047807" lon="16.6052087"><ele>708.0</ele><time>2026-04-28T09:50:01.327Z</time></trkpt><trkpt lat="44.0045631" lon="16.6052654"><ele>708.0</ele><time>2026-04-28T09:50:02.327Z</time></trkpt><trkpt lat="44.0043517" lon="16.6053541"><ele>708.0</ele><time>2026-04-28T09:50:03.326Z</time></trkpt><trkpt lat="44.0041479" lon="16.6054583"><ele>708.6666666666666</ele><time>2026-04-28T09:50:04.327Z</time></trkpt><trkpt lat="44.003945" lon="16.605585"><ele>709.3333333333333</ele><time>2026-04-28T09:50:05.326Z</time></trkpt><trkpt lat="44.0037557" lon="16.6057346"><ele>710.0</ele><time>2026-04-28T09:50:06.326Z</time></trkpt><trkpt lat="44.0035688" lon="16.6058931"><ele>710.0</ele><time>2026-04-28T09:50:07.326Z</time></trkpt><trkpt lat="44.0033862" lon="16.6060604"><ele>710.0</ele><time>2026-04-28T09:50:08.326Z</time></trkpt><trkpt lat="44.0032" lon="16.6062254"><ele>710.0</ele><time>2026-04-28T09:50:09.326Z</time></trkpt><trkpt lat="44.0030203" lon="16.6063943"><ele>709.6666666666666</ele><time>2026-04-28T09:50:10.326Z</time></trkpt><trkpt lat="44.0028484" lon="16.6065689"><ele>709.3333333333334</ele><time>2026-04-28T09:50:11.326Z</time></trkpt><trkpt lat="44.0026929" lon="16.6067749"><ele>709.0</ele><time>2026-04-28T09:50:12.327Z</time></trkpt><trkpt lat="44.0025513" lon="16.6069959"><ele>709.6666666666667</ele><time>2026-04-28T09:50:13.326Z</time></trkpt><trkpt lat="44.0024255" lon="16.6072242"><ele>710.3333333333334</ele><time>2026-04-28T09:50:14.327Z</time></trkpt><trkpt lat="44.0023068" lon="16.6074665"><ele>711.0</ele><time>2026-04-28T09:50:15.327Z</time></trkpt><trkpt lat="44.002189" lon="16.6077105"><ele>711.0</ele><time>2026-04-28T09:50:16.326Z</time></trkpt><trkpt lat="44.0020714" lon="16.6079445"><ele>711.0</ele><time>2026-04-28T09:50:17.326Z</time></trkpt><trkpt lat="44.001953" lon="16.6081359"><ele>711.0</ele><time>2026-04-28T09:50:18.327Z</time></trkpt><trkpt lat="44.0018187" lon="16.6082824"><ele>711.0</ele><time>2026-04-28T09:50:19.327Z</time></trkpt><trkpt lat="44.0016682" lon="16.6083839"><ele>711.0</ele><time>2026-04-28T09:50:20.327Z</time></trkpt><trkpt lat="44.0014963" lon="16.6084542"><ele>711.0</ele><time>2026-04-28T09:50:21.327Z</time></trkpt><trkpt lat="44.0013158" lon="16.6085008"><ele>711.6666666666666</ele><time>2026-04-28T09:50:22.326Z</time></trkpt><trkpt lat="44.0011385" lon="16.6085558"><ele>712.3333333333333</ele><time>2026-04-28T09:50:23.326Z</time></trkpt><trkpt lat="44.0009808" lon="16.608664"><ele>713.0</ele><time>2026-04-28T09:50:24.327Z</time></trkpt><trkpt lat="44.0008285" lon="16.6088156"><ele>714.3333333333333</ele><time>2026-04-28T09:50:25.326Z</time></trkpt><trkpt lat="44.0006789" lon="16.6089906"><ele>715.6666666666666</ele><time>2026-04-28T09:50:26.326Z</time></trkpt><trkpt lat="44.0005233" lon="16.6091663"><ele>717.0</ele><time>2026-04-28T09:50:27.326Z</time></trkpt><trkpt lat="44.0003625" lon="16.6093478"><ele>715.0</ele><time>2026-04-28T09:50:28.327Z</time></trkpt><trkpt lat="44.0001921" lon="16.609521"><ele>713.0</ele><time>2026-04-28T09:50:29.326Z</time></trkpt><trkpt lat="44.0000163" lon="16.6096987"><ele>711.0</ele><time>2026-04-28T09:50:30.326Z</time></trkpt><trkpt lat="43.9998401" lon="16.6098601"><ele>711.0</ele><time>2026-04-28T09:50:31.326Z</time></trkpt><trkpt lat="43.9996577" lon="16.6100187"><ele>711.0</ele><time>2026-04-28T09:50:32.327Z</time></trkpt><trkpt lat="43.9994711" lon="16.610183"><ele>711.0</ele><time>2026-04-28T09:50:33.326Z</time></trkpt><trkpt lat="43.9992857" lon="16.6103419"><ele>710.0</ele><time>2026-04-28T09:50:34.326Z</time></trkpt><trkpt lat="43.9991015" lon="16.6105082"><ele>709.0</ele><time>2026-04-28T09:50:35.326Z</time></trkpt><trkpt lat="43.9989192" lon="16.6106791"><ele>708.0</ele><time>2026-04-28T09:50:36.327Z</time></trkpt><trkpt lat="43.9987352" lon="16.6108629"><ele>708.0</ele><time>2026-04-28T09:50:37.327Z</time></trkpt><trkpt lat="43.9985599" lon="16.6110475"><ele>708.0</ele><time>2026-04-28T09:50:38.326Z</time></trkpt><trkpt lat="43.9983766" lon="16.6112415"><ele>707.5</ele><time>2026-04-28T09:50:39.326Z</time></trkpt><trkpt lat="43.998197" lon="16.6114371"><ele>707.0</ele><time>2026-04-28T09:50:40.327Z</time></trkpt><trkpt lat="43.9980172" lon="16.611626"><ele>707.0</ele><time>2026-04-28T09:50:41.326Z</time></trkpt><trkpt lat="43.9978422" lon="16.6118118"><ele>707.0</ele><time>2026-04-28T09:50:42.327Z</time></trkpt><trkpt lat="43.9976609" lon="16.6120078"><ele>707.0</ele><time>2026-04-28T09:50:43.326Z</time></trkpt><trkpt lat="43.9974801" lon="16.6121976"><ele>707.0</ele><time>2026-04-28T09:50:44.327Z</time></trkpt><trkpt lat="43.9973053" lon="16.6123908"><ele>707.0</ele><time>2026-04-28T09:50:45.327Z</time></trkpt><trkpt lat="43.9971314" lon="16.6125876"><ele>707.0</ele><time>2026-04-28T09:50:46.326Z</time></trkpt><trkpt lat="43.9969666" lon="16.6127882"><ele>707.0</ele><time>2026-04-28T09:50:47.327Z</time></trkpt><trkpt lat="43.996804" lon="16.613002"><ele>707.0</ele><time>2026-04-28T09:50:48.326Z</time></trkpt><trkpt lat="43.9966398" lon="16.6132176"><ele>707.0</ele><time>2026-04-28T09:50:49.327Z</time></trkpt><trkpt lat="43.9964906" lon="16.6134447"><ele>707.0</ele><time>2026-04-28T09:50:50.326Z</time></trkpt><trkpt lat="43.9963454" lon="16.6136731"><ele>706.3333333333333</ele><time>2026-04-28T09:50:51.326Z</time></trkpt><trkpt lat="43.9962067" lon="16.6139055"><ele>705.6666666666666</ele><time>2026-04-28T09:50:52.326Z</time></trkpt><trkpt lat="43.9960755" lon="16.6141495"><ele>705.0</ele><time>2026-04-28T09:50:53.326Z</time></trkpt><trkpt lat="43.9959471" lon="16.6143971"><ele>705.3333333333334</ele><time>2026-04-28T09:50:54.326Z</time></trkpt><trkpt lat="43.9958202" lon="16.6146467"><ele>705.6666666666667</ele><time>2026-04-28T09:50:55.327Z</time></trkpt><trkpt lat="43.9956936" lon="16.6148984"><ele>706.0</ele><time>2026-04-28T09:50:56.327Z</time></trkpt><trkpt lat="43.9955786" lon="16.61515"><ele>705.3333333333334</ele><time>2026-04-28T09:50:57.326Z</time></trkpt><trkpt lat="43.9954539" lon="16.6153963"><ele>704.6666666666666</ele><time>2026-04-28T09:50:58.326Z</time></trkpt><trkpt lat="43.9953239" lon="16.6156307"><ele>704.0</ele><time>2026-04-28T09:50:59.327Z</time></trkpt><trkpt lat="43.9951902" lon="16.6158698"><ele>704.0</ele><time>2026-04-28T09:51:00.326Z</time></trkpt><trkpt lat="43.9950446" lon="16.6160949"><ele>704.0</ele><time>2026-04-28T09:51:01.327Z</time></trkpt><trkpt lat="43.9948964" lon="16.6163063"><ele>704.0</ele><time>2026-04-28T09:51:02.326Z</time></trkpt><trkpt lat="43.994736" lon="16.6165143"><ele>704.0</ele><time>2026-04-28T09:51:03.327Z</time></trkpt><trkpt lat="43.9945752" lon="16.6167142"><ele>704.0</ele><time>2026-04-28T09:51:04.327Z</time></trkpt><trkpt lat="43.9944163" lon="16.6169208"><ele>704.0</ele><time>2026-04-28T09:51:05.326Z</time></trkpt><trkpt lat="43.9942551" lon="16.617126"><ele>704.0</ele><time>2026-04-28T09:51:06.327Z</time></trkpt><trkpt lat="43.9940922" lon="16.6173375"><ele>704.0</ele><time>2026-04-28T09:51:07.327Z</time></trkpt><trkpt lat="43.9939318" lon="16.6175421"><ele>704.0</ele><time>2026-04-28T09:51:08.327Z</time></trkpt><trkpt lat="43.9937628" lon="16.617757"><ele>704.3333333333333</ele><time>2026-04-28T09:51:09.326Z</time></trkpt><trkpt lat="43.9936006" lon="16.617966"><ele>704.6666666666666</ele><time>2026-04-28T09:51:10.326Z</time></trkpt><trkpt lat="43.9934365" lon="16.618181"><ele>705.0</ele><time>2026-04-28T09:51:11.326Z</time></trkpt><trkpt lat="43.9932638" lon="16.6183876"><ele>704.5</ele><time>2026-04-28T09:51:12.326Z</time></trkpt><trkpt lat="43.993081" lon="16.618589"><ele>704.0</ele><time>2026-04-28T09:51:13.326Z</time></trkpt><trkpt lat="43.9928919" lon="16.6187773"><ele>704.0</ele><time>2026-04-28T09:51:14.326Z</time></trkpt><trkpt lat="43.9927002" lon="16.6189454"><ele>704.0</ele><time>2026-04-28T09:51:15.326Z</time></trkpt><trkpt lat="43.9925024" lon="16.6191041"><ele>706.5</ele><time>2026-04-28T09:51:16.326Z</time></trkpt><trkpt lat="43.9922973" lon="16.6192519"><ele>709.0</ele><time>2026-04-28T09:51:17.326Z</time></trkpt><trkpt lat="43.9920945" lon="16.6193875"><ele>709.0</ele><time>2026-04-28T09:51:18.326Z</time></trkpt><trkpt lat="43.9918945" lon="16.6195237"><ele>709.0</ele><time>2026-04-28T09:51:19.327Z</time></trkpt><trkpt lat="43.9916944" lon="16.6196641"><ele>709.0</ele><time>2026-04-28T09:51:20.326Z</time></trkpt><trkpt lat="43.9915002" lon="16.6198202"><ele>709.0</ele><time>2026-04-28T09:51:21.327Z</time></trkpt><trkpt lat="43.9913106" lon="16.6199876"><ele>709.0</ele><time>2026-04-28T09:51:22.327Z</time></trkpt><trkpt lat="43.9911283" lon="16.6201613"><ele>709.0</ele><time>2026-04-28T09:51:23.326Z</time></trkpt><trkpt lat="43.9909441" lon="16.6203362"><ele>711.0</ele><time>2026-04-28T09:51:24.327Z</time></trkpt><trkpt lat="43.9907618" lon="16.6205174"><ele>713.0</ele><time>2026-04-28T09:51:25.326Z</time></trkpt><trkpt lat="43.9905786" lon="16.6207026"><ele>713.0</ele><time>2026-04-28T09:51:26.326Z</time></trkpt><trkpt lat="43.9903928" lon="16.6208819"><ele>713.0</ele><time>2026-04-28T09:51:27.326Z</time></trkpt><trkpt lat="43.9902028" lon="16.6210522"><ele>712.0</ele><time>2026-04-28T09:51:28.326Z</time></trkpt><trkpt lat="43.9900342" lon="16.6212031"><ele>711.0</ele><time>2026-04-28T09:51:29.326Z</time></trkpt><trkpt lat="43.9898959" lon="16.6213261"><ele>710.0</ele><time>2026-04-28T09:51:30.327Z</time></trkpt><trkpt lat="43.9897611" lon="16.6214738"><ele>710.0</ele><time>2026-04-28T09:51:31.326Z</time></trkpt><trkpt lat="43.9896422" lon="16.6216551"><ele>710.0</ele><time>2026-04-28T09:51:32.326Z</time></trkpt><trkpt lat="43.9895439" lon="16.621863"><ele>710.0</ele><time>2026-04-28T09:51:33.326Z</time></trkpt><trkpt lat="43.9894459" lon="16.62211"><ele>708.6666666666666</ele><time>2026-04-28T09:51:34.326Z</time></trkpt><trkpt lat="43.9893603" lon="16.6223611"><ele>707.3333333333334</ele><time>2026-04-28T09:51:35.327Z</time></trkpt><trkpt lat="43.9892686" lon="16.6226335"><ele>706.0</ele><time>2026-04-28T09:51:36.326Z</time></trkpt><trkpt lat="43.9891826" lon="16.622909"><ele>706.6666666666667</ele><time>2026-04-28T09:51:37.326Z</time></trkpt><trkpt lat="43.9891005" lon="16.6231895"><ele>707.3333333333334</ele><time>2026-04-28T09:51:38.327Z</time></trkpt><trkpt lat="43.9890205" lon="16.6234809"><ele>708.0</ele><time>2026-04-28T09:51:39.326Z</time></trkpt><trkpt lat="43.9889351" lon="16.6237583"><ele>708.0</ele><time>2026-04-28T09:51:40.326Z</time></trkpt><trkpt lat="43.9888336" lon="16.62403"><ele>708.0</ele><time>2026-04-28T09:51:41.326Z</time></trkpt><trkpt lat="43.9887247" lon="16.6242931"><ele>708.0</ele><time>2026-04-28T09:51:42.326Z</time></trkpt><trkpt lat="43.9886109" lon="16.6245577"><ele>707.0</ele><time>2026-04-28T09:51:43.326Z</time></trkpt><trkpt lat="43.9884983" lon="16.6248352"><ele>706.0</ele><time>2026-04-28T09:51:44.327Z</time></trkpt><trkpt lat="43.9883943" lon="16.6251163"><ele>707.5</ele><time>2026-04-28T09:51:45.326Z</time></trkpt><trkpt lat="43.9883016" lon="16.6254133"><ele>709.0</ele><time>2026-04-28T09:51:46.327Z</time></trkpt><trkpt lat="43.9882068" lon="16.6257068"><ele>709.0</ele><time>2026-04-28T09:51:47.326Z</time></trkpt><trkpt lat="43.9881127" lon="16.6260037"><ele>709.0</ele><time>2026-04-28T09:51:48.326Z</time></trkpt><trkpt lat="43.9880218" lon="16.626302"><ele>708.0</ele><time>2026-04-28T09:51:49.327Z</time></trkpt><trkpt lat="43.9879404" lon="16.6266032"><ele>707.0</ele><time>2026-04-28T09:51:50.326Z</time></trkpt><trkpt lat="43.9878769" lon="16.6269133"><ele>706.5</ele><time>2026-04-28T09:51:51.326Z</time></trkpt><trkpt lat="43.9878264" lon="16.6272252"><ele>706.0</ele><time>2026-04-28T09:51:52.327Z</time></trkpt><trkpt lat="43.9877858" lon="16.6275329"><ele>705.6666666666667</ele><time>2026-04-28T09:51:53.326Z</time></trkpt><trkpt lat="43.9877415" lon="16.6278395"><ele>705.3333333333334</ele><time>2026-04-28T09:51:54.327Z</time></trkpt><trkpt lat="43.9876805" lon="16.6281388"><ele>705.0</ele><time>2026-04-28T09:51:55.326Z</time></trkpt><trkpt lat="43.9876081" lon="16.6284106"><ele>707.3333333333334</ele><time>2026-04-28T09:51:56.327Z</time></trkpt><trkpt lat="43.9875074" lon="16.6286548"><ele>709.6666666666667</ele><time>2026-04-28T09:51:57.326Z</time></trkpt><trkpt lat="43.9873925" lon="16.6288834"><ele>712.0</ele><time>2026-04-28T09:51:58.326Z</time></trkpt><trkpt lat="43.9872449" lon="16.6290656"><ele>712.0</ele><time>2026-04-28T09:51:59.326Z</time></trkpt><trkpt lat="43.9870807" lon="16.6292436"><ele>712.0</ele><time>2026-04-28T09:52:00.326Z</time></trkpt><trkpt lat="43.9869255" lon="16.6294368"><ele>712.0</ele><time>2026-04-28T09:52:01.327Z</time></trkpt><trkpt lat="43.9867815" lon="16.6296526"><ele>712.3333333333334</ele><time>2026-04-28T09:52:02.326Z</time></trkpt><trkpt lat="43.9866593" lon="16.6299013"><ele>712.6666666666666</ele><time>2026-04-28T09:52:03.326Z</time></trkpt><trkpt lat="43.9865491" lon="16.6301753"><ele>713.0</ele><time>2026-04-28T09:52:04.326Z</time></trkpt><trkpt lat="43.9864532" lon="16.6304583"><ele>711.5</ele><time>2026-04-28T09:52:05.327Z</time></trkpt><trkpt lat="43.9863582" lon="16.6307472"><ele>710.0</ele><time>2026-04-28T09:52:06.326Z</time></trkpt><trkpt lat="43.9862567" lon="16.6310552"><ele>708.0</ele><time>2026-04-28T09:52:07.326Z</time></trkpt><trkpt lat="43.98615" lon="16.631358"><ele>706.0</ele><time>2026-04-28T09:52:08.326Z</time></trkpt><trkpt lat="43.9860386" lon="16.631648"><ele>706.0</ele><time>2026-04-28T09:52:09.326Z</time></trkpt><trkpt lat="43.9859224" lon="16.6319448"><ele>706.0</ele><time>2026-04-28T09:52:10.326Z</time></trkpt><trkpt lat="43.9858065" lon="16.6322423"><ele>705.5</ele><time>2026-04-28T09:52:11.326Z</time></trkpt><trkpt lat="43.9856883" lon="16.6325347"><ele>705.0</ele><time>2026-04-28T09:52:12.326Z</time></trkpt><trkpt lat="43.9855704" lon="16.6328234"><ele>704.5</ele><time>2026-04-28T09:52:13.326Z</time></trkpt><trkpt lat="43.9854451" lon="16.6331174"><ele>704.0</ele><time>2026-04-28T09:52:14.327Z</time></trkpt><trkpt lat="43.9853256" lon="16.6334"><ele>704.0</ele><time>2026-04-28T09:52:15.326Z</time></trkpt><trkpt lat="43.9852046" lon="16.6336803"><ele>704.0</ele><time>2026-04-28T09:52:16.327Z</time></trkpt><trkpt lat="43.9850813" lon="16.6339645"><ele>705.0</ele><time>2026-04-28T09:52:17.326Z</time></trkpt><trkpt lat="43.9849613" lon="16.6342401"><ele>706.0</ele><time>2026-04-28T09:52:18.326Z</time></trkpt><trkpt lat="43.9848431" lon="16.6345183"><ele>706.0</ele><time>2026-04-28T09:52:19.326Z</time></trkpt><trkpt lat="43.9847254" lon="16.6347933"><ele>706.0</ele><time>2026-04-28T09:52:20.326Z</time></trkpt><trkpt lat="43.9846081" lon="16.6350643"><ele>705.5</ele><time>2026-04-28T09:52:21.327Z</time></trkpt><trkpt lat="43.9844899" lon="16.6353355"><ele>705.0</ele><time>2026-04-28T09:52:22.327Z</time></trkpt><trkpt lat="43.9843701" lon="16.6356057"><ele>705.0</ele><time>2026-04-28T09:52:23.326Z</time></trkpt><trkpt lat="43.9842493" lon="16.6358716"><ele>705.0</ele><time>2026-04-28T09:52:24.326Z</time></trkpt><trkpt lat="43.9841264" lon="16.6361323"><ele>705.0</ele><time>2026-04-28T09:52:25.327Z</time></trkpt><trkpt lat="43.9840015" lon="16.6363936"><ele>705.0</ele><time>2026-04-28T09:52:26.326Z</time></trkpt><trkpt lat="43.9838741" lon="16.636654"><ele>705.0</ele><time>2026-04-28T09:52:27.326Z</time></trkpt><trkpt lat="43.9837458" lon="16.636898"><ele>705.0</ele><time>2026-04-28T09:52:28.327Z</time></trkpt><trkpt lat="43.9836148" lon="16.6371385"><ele>705.0</ele><time>2026-04-28T09:52:29.327Z</time></trkpt><trkpt lat="43.9835015" lon="16.637353"><ele>704.6666666666666</ele><time>2026-04-28T09:52:30.326Z</time></trkpt><trkpt lat="43.9833912" lon="16.6375642"><ele>704.3333333333333</ele><time>2026-04-28T09:52:31.326Z</time></trkpt><trkpt lat="43.9832835" lon="16.6377615"><ele>704.0</ele><time>2026-04-28T09:52:32.326Z</time></trkpt><trkpt lat="43.98318" lon="16.6379559"><ele>704.6666666666666</ele><time>2026-04-28T09:52:33.327Z</time></trkpt><trkpt lat="43.9830747" lon="16.6381511"><ele>705.3333333333334</ele><time>2026-04-28T09:52:34.326Z</time></trkpt><trkpt lat="43.9829666" lon="16.638359"><ele>706.0</ele><time>2026-04-28T09:52:35.326Z</time></trkpt><trkpt lat="43.9828576" lon="16.6385531"><ele>705.6666666666667</ele><time>2026-04-28T09:52:36.327Z</time></trkpt><trkpt lat="43.9827537" lon="16.6387603"><ele>705.3333333333334</ele><time>2026-04-28T09:52:37.326Z</time></trkpt><trkpt lat="43.9826503" lon="16.6389496"><ele>705.0</ele><time>2026-04-28T09:52:38.326Z</time></trkpt><trkpt lat="43.9825527" lon="16.6391289"><ele>705.6666666666666</ele><time>2026-04-28T09:52:39.326Z</time></trkpt><trkpt lat="43.9824519" lon="16.6393087"><ele>706.3333333333333</ele><time>2026-04-28T09:52:40.326Z</time></trkpt><trkpt lat="43.9823505" lon="16.639491"><ele>707.0</ele><time>2026-04-28T09:52:41.326Z</time></trkpt><trkpt lat="43.9822532" lon="16.6396677"><ele>707.0</ele><time>2026-04-28T09:52:42.326Z</time></trkpt><trkpt lat="43.9821562" lon="16.6398421"><ele>707.0</ele><time>2026-04-28T09:52:43.327Z</time></trkpt><trkpt lat="43.9820645" lon="16.6400123"><ele>707.0</ele><time>2026-04-28T09:52:44.327Z</time></trkpt><trkpt lat="43.9819782" lon="16.6401795"><ele>706.25</ele><time>2026-04-28T09:52:45.326Z</time></trkpt><trkpt lat="43.9818985" lon="16.6403481"><ele>705.5</ele><time>2026-04-28T09:52:46.327Z</time></trkpt><trkpt lat="43.9818267" lon="16.640516"><ele>704.75</ele><time>2026-04-28T09:52:47.326Z</time></trkpt><trkpt lat="43.9817741" lon="16.640692"><ele>704.0</ele><time>2026-04-28T09:52:48.326Z</time></trkpt><trkpt lat="43.9817371" lon="16.640875"><ele>704.0</ele><time>2026-04-28T09:52:49.326Z</time></trkpt><trkpt lat="43.9817166" lon="16.6410763"><ele>704.0</ele><time>2026-04-28T09:52:50.326Z</time></trkpt><trkpt lat="43.9817087" lon="16.6412776"><ele>704.0</ele><time>2026-04-28T09:52:51.326Z</time></trkpt><trkpt lat="43.9817098" lon="16.6415015"><ele>704.0</ele><time>2026-04-28T09:52:52.326Z</time></trkpt><trkpt lat="43.9817207" lon="16.6417306"><ele>704.0</ele><time>2026-04-28T09:52:53.327Z</time></trkpt><trkpt lat="43.9817357" lon="16.6419707"><ele>704.0</ele><time>2026-04-28T09:52:54.326Z</time></trkpt><trkpt lat="43.9817531" lon="16.6422109"><ele>704.0</ele><time>2026-04-28T09:52:55.326Z</time></trkpt><trkpt lat="43.9817722" lon="16.6424618"><ele>704.0</ele><time>2026-04-28T09:52:56.326Z</time></trkpt><trkpt lat="43.9817866" lon="16.6427085"><ele>704.0</ele><time>2026-04-28T09:52:57.326Z</time></trkpt><trkpt lat="43.9818063" lon="16.6429572"><ele>704.0</ele><time>2026-04-28T09:52:58.326Z</time></trkpt><trkpt lat="43.9818242" lon="16.6432042"><ele>704.0</ele><time>2026-04-28T09:52:59.326Z</time></trkpt><trkpt lat="43.9818399" lon="16.6434462"><ele>704.0</ele><time>2026-04-28T09:53:00.326Z</time></trkpt><trkpt lat="43.9818513" lon="16.6436977"><ele>704.3333333333333</ele><time>2026-04-28T09:53:01.327Z</time></trkpt><trkpt lat="43.9818662" lon="16.6439491"><ele>704.6666666666666</ele><time>2026-04-28T09:53:02.327Z</time></trkpt><trkpt lat="43.9818785" lon="16.6441986"><ele>705.0</ele><time>2026-04-28T09:53:03.327Z</time></trkpt><trkpt lat="43.9818968" lon="16.6444467"><ele>704.6666666666666</ele><time>2026-04-28T09:53:04.326Z</time></trkpt><trkpt lat="43.9819188" lon="16.6446927"><ele>704.3333333333333</ele><time>2026-04-28T09:53:05.326Z</time></trkpt><trkpt lat="43.9819383" lon="16.6449488"><ele>704.0</ele><time>2026-04-28T09:53:06.326Z</time></trkpt><trkpt lat="43.9819533" lon="16.6452133"><ele>703.6666666666666</ele><time>2026-04-28T09:53:07.326Z</time></trkpt><trkpt lat="43.981973" lon="16.6454856"><ele>703.3333333333334</ele><time>2026-04-28T09:53:08.326Z</time></trkpt><trkpt lat="43.9819903" lon="16.6457589"><ele>703.0</ele><time>2026-04-28T09:53:09.326Z</time></trkpt><trkpt lat="43.9820077" lon="16.6460384"><ele>703.6666666666667</ele><time>2026-04-28T09:53:10.326Z</time></trkpt><trkpt lat="43.982032" lon="16.6463212"><ele>704.3333333333334</ele><time>2026-04-28T09:53:11.326Z</time></trkpt><trkpt lat="43.9820464" lon="16.6466107"><ele>705.0</ele><time>2026-04-28T09:53:12.326Z</time></trkpt><trkpt lat="43.9820631" lon="16.6469098"><ele>706.0</ele><time>2026-04-28T09:53:13.327Z</time></trkpt><trkpt lat="43.9820809" lon="16.6472072"><ele>707.0</ele><time>2026-04-28T09:53:14.326Z</time></trkpt><trkpt lat="43.9820987" lon="16.6474956"><ele>708.0</ele><time>2026-04-28T09:53:15.326Z</time></trkpt><trkpt lat="43.9821209" lon="16.6477919"><ele>707.6666666666666</ele><time>2026-04-28T09:53:16.327Z</time></trkpt><trkpt lat="43.9821465" lon="16.6481026"><ele>707.3333333333333</ele><time>2026-04-28T09:53:17.326Z</time></trkpt><trkpt lat="43.9821701" lon="16.648406"><ele>707.0</ele><time>2026-04-28T09:53:18.326Z</time></trkpt><trkpt lat="43.982189" lon="16.6487241"><ele>706.5</ele><time>2026-04-28T09:53:19.327Z</time></trkpt><trkpt lat="43.982206" lon="16.6490391"><ele>706.0</ele><time>2026-04-28T09:53:20.326Z</time></trkpt><trkpt lat="43.9822301" lon="16.6493502"><ele>705.5</ele><time>2026-04-28T09:53:21.327Z</time></trkpt><trkpt lat="43.9822319" lon="16.6496681"><ele>705.0</ele><time>2026-04-28T09:53:22.326Z</time></trkpt><trkpt lat="43.9822541" lon="16.6499902"><ele>705.0</ele><time>2026-04-28T09:53:23.326Z</time></trkpt><trkpt lat="43.9822797" lon="16.6503144"><ele>705.0</ele><time>2026-04-28T09:53:24.326Z</time></trkpt><trkpt lat="43.9822875" lon="16.6506382"><ele>705.0</ele><time>2026-04-28T09:53:25.326Z</time></trkpt><trkpt lat="43.9823073" lon="16.6509691"><ele>705.0</ele><time>2026-04-28T09:53:26.326Z</time></trkpt><trkpt lat="43.9823327" lon="16.6512912"><ele>704.5</ele><time>2026-04-28T09:53:27.327Z</time></trkpt><trkpt lat="43.9823566" lon="16.6516191"><ele>704.0</ele><time>2026-04-28T09:53:28.326Z</time></trkpt><trkpt lat="43.9823823" lon="16.6519409"><ele>703.0</ele><time>2026-04-28T09:53:29.326Z</time></trkpt><trkpt lat="43.9824004" lon="16.6522615"><ele>702.0</ele><time>2026-04-28T09:53:30.326Z</time></trkpt><trkpt lat="43.9824265" lon="16.652589"><ele>702.5</ele><time>2026-04-28T09:53:31.327Z</time></trkpt><trkpt lat="43.9824536" lon="16.6529068"><ele>703.0</ele><time>2026-04-28T09:53:32.327Z</time></trkpt><trkpt lat="43.9824718" lon="16.6532352"><ele>703.0</ele><time>2026-04-28T09:53:33.327Z</time></trkpt><trkpt lat="43.9824894" lon="16.6535617"><ele>703.0</ele><time>2026-04-28T09:53:34.326Z</time></trkpt><trkpt lat="43.9825062" lon="16.6538789"><ele>703.5</ele><time>2026-04-28T09:53:35.326Z</time></trkpt><trkpt lat="43.9825319" lon="16.6541968"><ele>704.0</ele><time>2026-04-28T09:53:36.327Z</time></trkpt><trkpt lat="43.9825511" lon="16.6545217"><ele>704.5</ele><time>2026-04-28T09:53:37.327Z</time></trkpt><trkpt lat="43.9825769" lon="16.6548468"><ele>705.0</ele><time>2026-04-28T09:53:38.326Z</time></trkpt><trkpt lat="43.9825983" lon="16.6551696"><ele>704.0</ele><time>2026-04-28T09:53:39.326Z</time></trkpt><trkpt lat="43.9826198" lon="16.6554995"><ele>703.0</ele><time>2026-04-28T09:53:40.326Z</time></trkpt><trkpt lat="43.9826398" lon="16.6558258"><ele>703.5</ele><time>2026-04-28T09:53:41.326Z</time></trkpt><trkpt lat="43.9826634" lon="16.6561538"><ele>704.0</ele><time>2026-04-28T09:53:42.327Z</time></trkpt><trkpt lat="43.9826868" lon="16.6564755"><ele>704.0</ele><time>2026-04-28T09:53:43.326Z</time></trkpt><trkpt lat="43.982705" lon="16.6567933"><ele>704.0</ele><time>2026-04-28T09:53:44.326Z</time></trkpt><trkpt lat="43.9827221" lon="16.657108"><ele>704.0</ele><time>2026-04-28T09:53:45.326Z</time></trkpt><trkpt lat="43.9827374" lon="16.6574197"><ele>704.0</ele><time>2026-04-28T09:53:46.326Z</time></trkpt><trkpt lat="43.9827515" lon="16.6577359"><ele>704.0</ele><time>2026-04-28T09:53:47.326Z</time></trkpt><trkpt lat="43.9827723" lon="16.6580438"><ele>704.0</ele><time>2026-04-28T09:53:48.327Z</time></trkpt><trkpt lat="43.9827942" lon="16.6583613"><ele>704.0</ele><time>2026-04-28T09:53:49.327Z</time></trkpt><trkpt lat="43.9828108" lon="16.6586703"><ele>704.0</ele><time>2026-04-28T09:53:50.326Z</time></trkpt><trkpt lat="43.9828324" lon="16.6589849"><ele>704.0</ele><time>2026-04-28T09:53:51.326Z</time></trkpt><trkpt lat="43.9828545" lon="16.6593026"><ele>704.0</ele><time>2026-04-28T09:53:52.326Z</time></trkpt><trkpt lat="43.9828756" lon="16.6596121"><ele>703.5</ele><time>2026-04-28T09:53:53.326Z</time></trkpt><trkpt lat="43.9828941" lon="16.6599286"><ele>703.0</ele><time>2026-04-28T09:53:54.327Z</time></trkpt><trkpt lat="43.9829135" lon="16.6602476"><ele>703.0</ele><time>2026-04-28T09:53:55.326Z</time></trkpt><trkpt lat="43.9829423" lon="16.6605645"><ele>703.0</ele><time>2026-04-28T09:53:56.327Z</time></trkpt><trkpt lat="43.9829656" lon="16.6608869"><ele>704.0</ele><time>2026-04-28T09:53:57.326Z</time></trkpt><trkpt lat="43.9829887" lon="16.6612063"><ele>705.0</ele><time>2026-04-28T09:53:58.326Z</time></trkpt><trkpt lat="43.9830071" lon="16.661537"><ele>705.0</ele><time>2026-04-28T09:53:59.326Z</time></trkpt><trkpt lat="43.9830286" lon="16.6618607"><ele>705.0</ele><time>2026-04-28T09:54:00.327Z</time></trkpt><trkpt lat="43.983049" lon="16.6621877"><ele>704.0</ele><time>2026-04-28T09:54:01.326Z</time></trkpt><trkpt lat="43.9830634" lon="16.6625149"><ele>703.0</ele><time>2026-04-28T09:54:02.326Z</time></trkpt><trkpt lat="43.9830881" lon="16.6628425"><ele>703.0</ele><time>2026-04-28T09:54:03.326Z</time></trkpt><trkpt lat="43.9831088" lon="16.6631749"><ele>703.0</ele><time>2026-04-28T09:54:04.326Z</time></trkpt><trkpt lat="43.9831327" lon="16.66351"><ele>703.0</ele><time>2026-04-28T09:54:05.326Z</time></trkpt><trkpt lat="43.9831529" lon="16.6638449"><ele>703.0</ele><time>2026-04-28T09:54:06.326Z</time></trkpt><trkpt lat="43.983172" lon="16.6641787"><ele>702.5</ele><time>2026-04-28T09:54:07.327Z</time></trkpt><trkpt lat="43.9831924" lon="16.6645164"><ele>702.0</ele><time>2026-04-28T09:54:08.327Z</time></trkpt><trkpt lat="43.9832119" lon="16.6648465"><ele>702.0</ele><time>2026-04-28T09:54:09.327Z</time></trkpt><trkpt lat="43.9832307" lon="16.6651838"><ele>702.0</ele><time>2026-04-28T09:54:10.326Z</time></trkpt><trkpt lat="43.9832513" lon="16.6655228"><ele>702.0</ele><time>2026-04-28T09:54:11.326Z</time></trkpt><trkpt lat="43.983275" lon="16.6658554"><ele>702.0</ele><time>2026-04-28T09:54:12.326Z</time></trkpt><trkpt lat="43.9832984" lon="16.6661874"><ele>702.0</ele><time>2026-04-28T09:54:13.327Z</time></trkpt><trkpt lat="43.98332" lon="16.6665201"><ele>702.0</ele><time>2026-04-28T09:54:14.326Z</time></trkpt><trkpt lat="43.9833413" lon="16.6668538"><ele>702.5</ele><time>2026-04-28T09:54:15.326Z</time></trkpt><trkpt lat="43.9833613" lon="16.6671891"><ele>703.0</ele><time>2026-04-28T09:54:16.327Z</time></trkpt><trkpt lat="43.9833796" lon="16.667519"><ele>702.5</ele><time>2026-04-28T09:54:17.326Z</time></trkpt><trkpt lat="43.9833971" lon="16.6678477"><ele>702.0</ele><time>2026-04-28T09:54:18.327Z</time></trkpt><trkpt lat="43.9834217" lon="16.6681712"><ele>702.0</ele><time>2026-04-28T09:54:19.326Z</time></trkpt><trkpt lat="43.9834464" lon="16.6684976"><ele>702.0</ele><time>2026-04-28T09:54:20.326Z</time></trkpt><trkpt lat="43.9834668" lon="16.6688283"><ele>702.5</ele><time>2026-04-28T09:54:21.326Z</time></trkpt><trkpt lat="43.9834909" lon="16.6691569"><ele>703.0</ele><time>2026-04-28T09:54:22.326Z</time></trkpt><trkpt lat="43.9835089" lon="16.6694821"><ele>703.0</ele><time>2026-04-28T09:54:23.327Z</time></trkpt><trkpt lat="43.9835304" lon="16.6697975"><ele>703.0</ele><time>2026-04-28T09:54:24.326Z</time></trkpt><trkpt lat="43.9835474" lon="16.6701215"><ele>702.5</ele><time>2026-04-28T09:54:25.326Z</time></trkpt><trkpt lat="43.9835645" lon="16.6704418"><ele>702.0</ele><time>2026-04-28T09:54:26.326Z</time></trkpt><trkpt lat="43.983586" lon="16.6707645"><ele>702.0</ele><time>2026-04-28T09:54:27.326Z</time></trkpt><trkpt lat="43.9836092" lon="16.6710848"><ele>702.0</ele><time>2026-04-28T09:54:28.326Z</time></trkpt><trkpt lat="43.9836298" lon="16.6714045"><ele>702.0</ele><time>2026-04-28T09:54:29.326Z</time></trkpt><trkpt lat="43.9836489" lon="16.671725"><ele>702.0</ele><time>2026-04-28T09:54:30.326Z</time></trkpt><trkpt lat="43.983667" lon="16.6720413"><ele>702.6666666666666</ele><time>2026-04-28T09:54:31.327Z</time></trkpt><trkpt lat="43.983688" lon="16.6723399"><ele>703.3333333333333</ele><time>2026-04-28T09:54:32.326Z</time></trkpt><trkpt lat="43.9837083" lon="16.6726443"><ele>704.0</ele><time>2026-04-28T09:54:33.326Z</time></trkpt><trkpt lat="43.9837219" lon="16.6729352"><ele>704.0</ele><time>2026-04-28T09:54:34.326Z</time></trkpt><trkpt lat="43.9837395" lon="16.6732253"><ele>704.0</ele><time>2026-04-28T09:54:35.326Z</time></trkpt><trkpt lat="43.9837598" lon="16.6735158"><ele>704.0</ele><time>2026-04-28T09:54:36.326Z</time></trkpt><trkpt lat="43.9837802" lon="16.673809"><ele>704.0</ele><time>2026-04-28T09:54:37.326Z</time></trkpt><trkpt lat="43.9837983" lon="16.6741024"><ele>704.0</ele><time>2026-04-28T09:54:38.327Z</time></trkpt><trkpt lat="43.9838176" lon="16.6744014"><ele>704.0</ele><time>2026-04-28T09:54:39.326Z</time></trkpt><trkpt lat="43.9838375" lon="16.6747078"><ele>703.6666666666666</ele><time>2026-04-28T09:54:40.326Z</time></trkpt><trkpt lat="43.9838561" lon="16.6750021"><ele>703.3333333333334</ele><time>2026-04-28T09:54:41.327Z</time></trkpt><trkpt lat="43.9838718" lon="16.6753071"><ele>703.0</ele><time>2026-04-28T09:54:42.326Z</time></trkpt><trkpt lat="43.9838896" lon="16.6756117"><ele>703.3333333333334</ele><time>2026-04-28T09:54:43.326Z</time></trkpt><trkpt lat="43.9839099" lon="16.6759162"><ele>703.6666666666666</ele><time>2026-04-28T09:54:44.326Z</time></trkpt><trkpt lat="43.9839325" lon="16.6762235"><ele>704.0</ele><time>2026-04-28T09:54:45.326Z</time></trkpt><trkpt lat="43.9839536" lon="16.6765277"><ele>704.0</ele><time>2026-04-28T09:54:46.326Z</time></trkpt><trkpt lat="43.9839797" lon="16.67684"><ele>704.0</ele><time>2026-04-28T09:54:47.327Z</time></trkpt><trkpt lat="43.9840075" lon="16.677149"><ele>703.5</ele><time>2026-04-28T09:54:48.326Z</time></trkpt><trkpt lat="43.9840248" lon="16.6774613"><ele>703.0</ele><time>2026-04-28T09:54:49.327Z</time></trkpt><trkpt lat="43.9840417" lon="16.6777814"><ele>702.5</ele><time>2026-04-28T09:54:50.326Z</time></trkpt><trkpt lat="43.9840612" lon="16.678106"><ele>702.0</ele><time>2026-04-28T09:54:51.326Z</time></trkpt><trkpt lat="43.9840875" lon="16.6784178"><ele>703.0</ele><time>2026-04-28T09:54:52.327Z</time></trkpt><trkpt lat="43.9841051" lon="16.6787441"><ele>704.0</ele><time>2026-04-28T09:54:53.327Z</time></trkpt><trkpt lat="43.984125" lon="16.679066"><ele>704.0</ele><time>2026-04-28T09:54:54.326Z</time></trkpt><trkpt lat="43.9841471" lon="16.6793878"><ele>704.0</ele><time>2026-04-28T09:54:55.326Z</time></trkpt><trkpt lat="43.9841669" lon="16.6797138"><ele>703.0</ele><time>2026-04-28T09:54:56.326Z</time></trkpt><trkpt lat="43.9841867" lon="16.6800384"><ele>702.0</ele><time>2026-04-28T09:54:57.326Z</time></trkpt><trkpt lat="43.9842095" lon="16.6803662"><ele>702.0</ele><time>2026-04-28T09:54:58.327Z</time></trkpt><trkpt lat="43.9842346" lon="16.6806965"><ele>702.0</ele><time>2026-04-28T09:54:59.326Z</time></trkpt><trkpt lat="43.984255" lon="16.6810218"><ele>703.0</ele><time>2026-04-28T09:55:00.326Z</time></trkpt><trkpt lat="43.9842744" lon="16.6813575"><ele>704.0</ele><time>2026-04-28T09:55:01.326Z</time></trkpt><trkpt lat="43.9842987" lon="16.6816915"><ele>704.5</ele><time>2026-04-28T09:55:02.327Z</time></trkpt><trkpt lat="43.9843257" lon="16.6820253"><ele>705.0</ele><time>2026-04-28T09:55:03.326Z</time></trkpt><trkpt lat="43.9843448" lon="16.6823598"><ele>705.0</ele><time>2026-04-28T09:55:04.326Z</time></trkpt><trkpt lat="43.9843673" lon="16.6826929"><ele>705.0</ele><time>2026-04-28T09:55:05.327Z</time></trkpt><trkpt lat="43.9843886" lon="16.683028"><ele>704.5</ele><time>2026-04-28T09:55:06.327Z</time></trkpt><trkpt lat="43.9844071" lon="16.6833539"><ele>704.0</ele><time>2026-04-28T09:55:07.326Z</time></trkpt><trkpt lat="43.9844272" lon="16.6836794"><ele>704.0</ele><time>2026-04-28T09:55:08.327Z</time></trkpt><trkpt lat="43.9844439" lon="16.6840034"><ele>704.0</ele><time>2026-04-28T09:55:09.327Z</time></trkpt><trkpt lat="43.9844583" lon="16.6843284"><ele>704.0</ele><time>2026-04-28T09:55:10.327Z</time></trkpt><trkpt lat="43.9844697" lon="16.6846537"><ele>704.0</ele><time>2026-04-28T09:55:11.326Z</time></trkpt><trkpt lat="43.9844731" lon="16.684966"><ele>704.0</ele><time>2026-04-28T09:55:12.326Z</time></trkpt><trkpt lat="43.9844735" lon="16.6852645"><ele>704.0</ele><time>2026-04-28T09:55:13.327Z</time></trkpt><trkpt lat="43.9844757" lon="16.6855621"><ele>704.0</ele><time>2026-04-28T09:55:14.326Z</time></trkpt><trkpt lat="43.9844771" lon="16.6858514"><ele>705.0</ele><time>2026-04-28T09:55:15.327Z</time></trkpt><trkpt lat="43.9844789" lon="16.6861425"><ele>706.0</ele><time>2026-04-28T09:55:16.326Z</time></trkpt><trkpt lat="43.9844755" lon="16.6864321"><ele>707.0</ele><time>2026-04-28T09:55:17.326Z</time></trkpt><trkpt lat="43.9844721" lon="16.686715"><ele>706.0</ele><time>2026-04-28T09:55:18.327Z</time></trkpt><trkpt lat="43.9844671" lon="16.6870015"><ele>705.0</ele><time>2026-04-28T09:55:19.326Z</time></trkpt><trkpt lat="43.9844561" lon="16.687289"><ele>704.0</ele><time>2026-04-28T09:55:20.327Z</time></trkpt><trkpt lat="43.9844391" lon="16.6875717"><ele>703.6666666666666</ele><time>2026-04-28T09:55:21.327Z</time></trkpt><trkpt lat="43.9844254" lon="16.6878465"><ele>703.3333333333334</ele><time>2026-04-28T09:55:22.327Z</time></trkpt><trkpt lat="43.9844036" lon="16.6881321"><ele>703.0</ele><time>2026-04-28T09:55:23.326Z</time></trkpt><trkpt lat="43.9843825" lon="16.6884115"><ele>702.6666666666667</ele><time>2026-04-28T09:55:24.327Z</time></trkpt><trkpt lat="43.9843575" lon="16.6886889"><ele>702.3333333333334</ele><time>2026-04-28T09:55:25.326Z</time></trkpt><trkpt lat="43.9843269" lon="16.6889595"><ele>702.0</ele><time>2026-04-28T09:55:26.326Z</time></trkpt><trkpt lat="43.9842965" lon="16.6892349"><ele>701.6666666666666</ele><time>2026-04-28T09:55:27.326Z</time></trkpt><trkpt lat="43.9842655" lon="16.6895037"><ele>701.3333333333333</ele><time>2026-04-28T09:55:28.326Z</time></trkpt><trkpt lat="43.9842292" lon="16.6897655"><ele>701.0</ele><time>2026-04-28T09:55:29.326Z</time></trkpt><trkpt lat="43.9841949" lon="16.6900229"><ele>701.0</ele><time>2026-04-28T09:55:30.327Z</time></trkpt><trkpt lat="43.9841587" lon="16.6902716"><ele>701.0</ele><time>2026-04-28T09:55:31.326Z</time></trkpt><trkpt lat="43.9841228" lon="16.6905129"><ele>701.0</ele><time>2026-04-28T09:55:32.326Z</time></trkpt><trkpt lat="43.9840857" lon="16.6907538"><ele>701.0</ele><time>2026-04-28T09:55:33.326Z</time></trkpt><trkpt lat="43.984043" lon="16.6909854"><ele>701.0</ele><time>2026-04-28T09:55:34.326Z</time></trkpt><trkpt lat="43.9840036" lon="16.6912025"><ele>701.0</ele><time>2026-04-28T09:55:35.326Z</time></trkpt><trkpt lat="43.9839648" lon="16.6914131"><ele>700.3333333333333</ele><time>2026-04-28T09:55:36.326Z</time></trkpt><trkpt lat="43.9839217" lon="16.691616"><ele>699.6666666666666</ele><time>2026-04-28T09:55:37.327Z</time></trkpt><trkpt lat="43.9838854" lon="16.6918145"><ele>699.0</ele><time>2026-04-28T09:55:38.326Z</time></trkpt><trkpt lat="43.9838415" lon="16.692015"><ele>698.75</ele><time>2026-04-28T09:55:39.326Z</time></trkpt><trkpt lat="43.9837955" lon="16.6922098"><ele>698.5</ele><time>2026-04-28T09:55:40.327Z</time></trkpt><trkpt lat="43.9837519" lon="16.6924051"><ele>698.25</ele><time>2026-04-28T09:55:41.326Z</time></trkpt><trkpt lat="43.9837016" lon="16.6925973"><ele>698.0</ele><time>2026-04-28T09:55:42.326Z</time></trkpt><trkpt lat="43.983654" lon="16.6927778"><ele>699.25</ele><time>2026-04-28T09:55:43.326Z</time></trkpt><trkpt lat="43.9836063" lon="16.6929574"><ele>700.5</ele><time>2026-04-28T09:55:44.326Z</time></trkpt><trkpt lat="43.9835658" lon="16.6931221"><ele>701.75</ele><time>2026-04-28T09:55:45.326Z</time></trkpt><trkpt lat="43.9835245" lon="16.6932862"><ele>703.0</ele><time>2026-04-28T09:55:46.327Z</time></trkpt><trkpt lat="43.9834796" lon="16.6934495"><ele>703.0</ele><time>2026-04-28T09:55:47.327Z</time></trkpt><trkpt lat="43.9834397" lon="16.6935986"><ele>703.0</ele><time>2026-04-28T09:55:48.326Z</time></trkpt><trkpt lat="43.9833989" lon="16.6937451"><ele>703.0</ele><time>2026-04-28T09:55:49.327Z</time></trkpt><trkpt lat="43.9833561" lon="16.693901"><ele>703.0</ele><time>2026-04-28T09:55:50.326Z</time></trkpt><trkpt lat="43.9833041" lon="16.6940765"><ele>703.0</ele><time>2026-04-28T09:55:51.326Z</time></trkpt><trkpt lat="43.9832458" lon="16.6942733"><ele>703.0</ele><time>2026-04-28T09:55:52.327Z</time></trkpt><trkpt lat="43.9831844" lon="16.6944753"><ele>703.0</ele><time>2026-04-28T09:55:53.326Z</time></trkpt><trkpt lat="43.9831134" lon="16.6946938"><ele>703.0</ele><time>2026-04-28T09:55:54.326Z</time></trkpt><trkpt lat="43.9830415" lon="16.6949185"><ele>703.0</ele><time>2026-04-28T09:55:55.326Z</time></trkpt><trkpt lat="43.9829626" lon="16.6951565"><ele>703.0</ele><time>2026-04-28T09:55:56.326Z</time></trkpt><trkpt lat="43.9828816" lon="16.6953927"><ele>702.6666666666667</ele><time>2026-04-28T09:55:57.326Z</time></trkpt><trkpt lat="43.9828023" lon="16.6956363"><ele>702.3333333333334</ele><time>2026-04-28T09:55:58.326Z</time></trkpt><trkpt lat="43.9827154" lon="16.6958913"><ele>702.0</ele><time>2026-04-28T09:55:59.326Z</time></trkpt><trkpt lat="43.9826232" lon="16.6961353"><ele>702.3333333333334</ele><time>2026-04-28T09:56:00.326Z</time></trkpt><trkpt lat="43.9825279" lon="16.6963927"><ele>702.6666666666667</ele><time>2026-04-28T09:56:01.326Z</time></trkpt><trkpt lat="43.9824277" lon="16.6966418"><ele>703.0</ele><time>2026-04-28T09:56:02.326Z</time></trkpt><trkpt lat="43.9823243" lon="16.6968961"><ele>703.3333333333334</ele><time>2026-04-28T09:56:03.326Z</time></trkpt><trkpt lat="43.9822199" lon="16.6971477"><ele>703.6666666666666</ele><time>2026-04-28T09:56:04.327Z</time></trkpt><trkpt lat="43.9821172" lon="16.6973962"><ele>704.0</ele><time>2026-04-28T09:56:05.326Z</time></trkpt><trkpt lat="43.9820172" lon="16.6976521"><ele>703.6666666666666</ele><time>2026-04-28T09:56:06.327Z</time></trkpt><trkpt lat="43.9819124" lon="16.6979073"><ele>703.3333333333334</ele><time>2026-04-28T09:56:07.326Z</time></trkpt><trkpt lat="43.9818096" lon="16.698157"><ele>703.0</ele><time>2026-04-28T09:56:08.326Z</time></trkpt><trkpt lat="43.9817073" lon="16.6984047"><ele>703.0</ele><time>2026-04-28T09:56:09.326Z</time></trkpt><trkpt lat="43.9816009" lon="16.6986457"><ele>703.0</ele><time>2026-04-28T09:56:10.327Z</time></trkpt><trkpt lat="43.9814982" lon="16.6988885"><ele>703.0</ele><time>2026-04-28T09:56:11.327Z</time></trkpt><trkpt lat="43.9813997" lon="16.699115"><ele>703.0</ele><time>2026-04-28T09:56:12.326Z</time></trkpt><trkpt lat="43.9813118" lon="16.6993231"><ele>703.0</ele><time>2026-04-28T09:56:13.326Z</time></trkpt><trkpt lat="43.9812186" lon="16.6995362"><ele>703.0</ele><time>2026-04-28T09:56:14.326Z</time></trkpt><trkpt lat="43.9811223" lon="16.6997537"><ele>703.0</ele><time>2026-04-28T09:56:15.326Z</time></trkpt><trkpt lat="43.9810317" lon="16.6999734"><ele>703.0</ele><time>2026-04-28T09:56:16.326Z</time></trkpt><trkpt lat="43.9809395" lon="16.7001983"><ele>703.0</ele><time>2026-04-28T09:56:17.327Z</time></trkpt><trkpt lat="43.9808482" lon="16.7004246"><ele>703.0</ele><time>2026-04-28T09:56:18.326Z</time></trkpt><trkpt lat="43.9807522" lon="16.7006498"><ele>703.0</ele><time>2026-04-28T09:56:19.327Z</time></trkpt><trkpt lat="43.980651" lon="16.7008782"><ele>703.0</ele><time>2026-04-28T09:56:20.326Z</time></trkpt><trkpt lat="43.9805476" lon="16.7011122"><ele>702.6666666666667</ele><time>2026-04-28T09:56:21.326Z</time></trkpt><trkpt lat="43.9804465" lon="16.7013514"><ele>702.3333333333334</ele><time>2026-04-28T09:56:22.326Z</time></trkpt><trkpt lat="43.9803452" lon="16.7015865"><ele>702.0</ele><time>2026-04-28T09:56:23.327Z</time></trkpt><trkpt lat="43.980249" lon="16.7018219"><ele>701.6666666666666</ele><time>2026-04-28T09:56:24.326Z</time></trkpt><trkpt lat="43.9801531" lon="16.7020597"><ele>701.3333333333333</ele><time>2026-04-28T09:56:25.327Z</time></trkpt><trkpt lat="43.9800657" lon="16.7022813"><ele>701.0</ele><time>2026-04-28T09:56:26.326Z</time></trkpt><trkpt lat="43.9799688" lon="16.7025201"><ele>701.6666666666666</ele><time>2026-04-28T09:56:27.326Z</time></trkpt><trkpt lat="43.9798666" lon="16.70278"><ele>702.3333333333334</ele><time>2026-04-28T09:56:28.327Z</time></trkpt><trkpt lat="43.9797567" lon="16.7030467"><ele>703.0</ele><time>2026-04-28T09:56:29.326Z</time></trkpt><trkpt lat="43.9796443" lon="16.7033233"><ele>702.0</ele><time>2026-04-28T09:56:30.326Z</time></trkpt><trkpt lat="43.9795217" lon="16.7036001"><ele>701.0</ele><time>2026-04-28T09:56:31.326Z</time></trkpt><trkpt lat="43.9793959" lon="16.7038861"><ele>701.0</ele><time>2026-04-28T09:56:32.327Z</time></trkpt><trkpt lat="43.979267" lon="16.7041633"><ele>701.0</ele><time>2026-04-28T09:56:33.327Z</time></trkpt><trkpt lat="43.9791413" lon="16.70445"><ele>701.5</ele><time>2026-04-28T09:56:34.327Z</time></trkpt><trkpt lat="43.9790182" lon="16.7047322"><ele>702.0</ele><time>2026-04-28T09:56:35.327Z</time></trkpt><trkpt lat="43.9788948" lon="16.7050113"><ele>702.0</ele><time>2026-04-28T09:56:36.326Z</time></trkpt><trkpt lat="43.9787757" lon="16.7052875"><ele>702.0</ele><time>2026-04-28T09:56:37.326Z</time></trkpt><trkpt lat="43.978659" lon="16.7055732"><ele>702.0</ele><time>2026-04-28T09:56:38.326Z</time></trkpt><trkpt lat="43.9785423" lon="16.705853"><ele>702.0</ele><time>2026-04-28T09:56:39.326Z</time></trkpt><trkpt lat="43.9784264" lon="16.7061214"><ele>701.5</ele><time>2026-04-28T09:56:40.327Z</time></trkpt><trkpt lat="43.9783059" lon="16.7064037"><ele>701.0</ele><time>2026-04-28T09:56:41.327Z</time></trkpt><trkpt lat="43.97819" lon="16.706685"><ele>700.5</ele><time>2026-04-28T09:56:42.326Z</time></trkpt><trkpt lat="43.9780664" lon="16.7069736"><ele>700.0</ele><time>2026-04-28T09:56:43.326Z</time></trkpt><trkpt lat="43.9779458" lon="16.7072584"><ele>700.0</ele><time>2026-04-28T09:56:44.326Z</time></trkpt><trkpt lat="43.9778212" lon="16.7075525"><ele>700.0</ele><time>2026-04-28T09:56:45.326Z</time></trkpt><trkpt lat="43.9776959" lon="16.707841"><ele>700.0</ele><time>2026-04-28T09:56:46.327Z</time></trkpt><trkpt lat="43.977574" lon="16.7081312"><ele>700.0</ele><time>2026-04-28T09:56:47.326Z</time></trkpt><trkpt lat="43.9774522" lon="16.7084252"><ele>700.0</ele><time>2026-04-28T09:56:48.326Z</time></trkpt><trkpt lat="43.9773291" lon="16.7087168"><ele>700.0</ele><time>2026-04-28T09:56:49.326Z</time></trkpt><trkpt lat="43.9772059" lon="16.7090106"><ele>700.0</ele><time>2026-04-28T09:56:50.327Z</time></trkpt><trkpt lat="43.9770813" lon="16.709303"><ele>700.0</ele><time>2026-04-28T09:56:51.327Z</time></trkpt><trkpt lat="43.9769567" lon="16.7095934"><ele>700.5</ele><time>2026-04-28T09:56:52.326Z</time></trkpt><trkpt lat="43.9768353" lon="16.7098852"><ele>701.0</ele><time>2026-04-28T09:56:53.326Z</time></trkpt><trkpt lat="43.9767131" lon="16.7101779"><ele>702.5</ele><time>2026-04-28T09:56:54.327Z</time></trkpt><trkpt lat="43.9765915" lon="16.7104641"><ele>704.0</ele><time>2026-04-28T09:56:55.326Z</time></trkpt><trkpt lat="43.9764694" lon="16.7107572"><ele>704.0</ele><time>2026-04-28T09:56:56.326Z</time></trkpt><trkpt lat="43.9763508" lon="16.7110401"><ele>704.0</ele><time>2026-04-28T09:56:57.326Z</time></trkpt><trkpt lat="43.9762255" lon="16.711326"><ele>703.5</ele><time>2026-04-28T09:56:58.326Z</time></trkpt><trkpt lat="43.9761048" lon="16.7116188"><ele>703.0</ele><time>2026-04-28T09:56:59.326Z</time></trkpt><trkpt lat="43.9759814" lon="16.7119168"><ele>703.0</ele><time>2026-04-28T09:57:00.326Z</time></trkpt><trkpt lat="43.9758586" lon="16.7122035"><ele>703.0</ele><time>2026-04-28T09:57:01.326Z</time></trkpt><trkpt lat="43.9757361" lon="16.712495"><ele>702.0</ele><time>2026-04-28T09:57:02.327Z</time></trkpt><trkpt lat="43.9756148" lon="16.7127816"><ele>701.0</ele><time>2026-04-28T09:57:03.326Z</time></trkpt><trkpt lat="43.9754951" lon="16.7130639"><ele>701.0</ele><time>2026-04-28T09:57:04.326Z</time></trkpt><trkpt lat="43.9753722" lon="16.713349"><ele>701.0</ele><time>2026-04-28T09:57:05.326Z</time></trkpt><trkpt lat="43.9752516" lon="16.7136368"><ele>701.0</ele><time>2026-04-28T09:57:06.327Z</time></trkpt><trkpt lat="43.9751316" lon="16.7139196"><ele>701.0</ele><time>2026-04-28T09:57:07.326Z</time></trkpt><trkpt lat="43.9750106" lon="16.7142038"><ele>700.5</ele><time>2026-04-28T09:57:08.326Z</time></trkpt><trkpt lat="43.9748928" lon="16.7144861"><ele>700.0</ele><time>2026-04-28T09:57:09.327Z</time></trkpt><trkpt lat="43.9747747" lon="16.7147729"><ele>700.0</ele><time>2026-04-28T09:57:10.326Z</time></trkpt><trkpt lat="43.9746531" lon="16.7150535"><ele>700.0</ele><time>2026-04-28T09:57:11.326Z</time></trkpt><trkpt lat="43.974534" lon="16.7153342"><ele>700.5</ele><time>2026-04-28T09:57:12.326Z</time></trkpt><trkpt lat="43.9744103" lon="16.7156228"><ele>701.0</ele><time>2026-04-28T09:57:13.327Z</time></trkpt><trkpt lat="43.9742869" lon="16.7159092"><ele>701.0</ele><time>2026-04-28T09:57:14.326Z</time></trkpt><trkpt lat="43.9741648" lon="16.7162"><ele>701.0</ele><time>2026-04-28T09:57:15.327Z</time></trkpt><trkpt lat="43.9740396" lon="16.7164903"><ele>701.0</ele><time>2026-04-28T09:57:16.327Z</time></trkpt><trkpt lat="43.973917" lon="16.7167836"><ele>701.0</ele><time>2026-04-28T09:57:17.327Z</time></trkpt><trkpt lat="43.9737951" lon="16.7170746"><ele>700.5</ele><time>2026-04-28T09:57:18.327Z</time></trkpt><trkpt lat="43.9736745" lon="16.7173657"><ele>700.0</ele><time>2026-04-28T09:57:19.327Z</time></trkpt><trkpt lat="43.9735471" lon="16.7176561"><ele>700.0</ele><time>2026-04-28T09:57:20.326Z</time></trkpt><trkpt lat="43.9734275" lon="16.7179489"><ele>700.0</ele><time>2026-04-28T09:57:21.326Z</time></trkpt><trkpt lat="43.9733044" lon="16.7182303"><ele>700.0</ele><time>2026-04-28T09:57:22.326Z</time></trkpt><trkpt lat="43.9731782" lon="16.7185184"><ele>700.0</ele><time>2026-04-28T09:57:23.327Z</time></trkpt><trkpt lat="43.9730559" lon="16.7188065"><ele>700.0</ele><time>2026-04-28T09:57:24.326Z</time></trkpt><trkpt lat="43.9729346" lon="16.7190888"><ele>700.0</ele><time>2026-04-28T09:57:25.326Z</time></trkpt><trkpt lat="43.9728121" lon="16.7193771"><ele>699.5</ele><time>2026-04-28T09:57:26.326Z</time></trkpt><trkpt lat="43.9726896" lon="16.7196696"><ele>699.0</ele><time>2026-04-28T09:57:27.326Z</time></trkpt><trkpt lat="43.9725688" lon="16.719959"><ele>699.5</ele><time>2026-04-28T09:57:28.326Z</time></trkpt><trkpt lat="43.9724485" lon="16.7202447"><ele>700.0</ele><time>2026-04-28T09:57:29.326Z</time></trkpt><trkpt lat="43.9723198" lon="16.7205332"><ele>700.0</ele><time>2026-04-28T09:57:30.326Z</time></trkpt><trkpt lat="43.9721974" lon="16.7208256"><ele>700.0</ele><time>2026-04-28T09:57:31.326Z</time></trkpt><trkpt lat="43.9720795" lon="16.7211197"><ele>700.5</ele><time>2026-04-28T09:57:32.326Z</time></trkpt><trkpt lat="43.9719568" lon="16.7214145"><ele>701.0</ele><time>2026-04-28T09:57:33.326Z</time></trkpt><trkpt lat="43.9718303" lon="16.7217077"><ele>701.5</ele><time>2026-04-28T09:57:34.327Z</time></trkpt><trkpt lat="43.9717044" lon="16.7220002"><ele>702.0</ele><time>2026-04-28T09:57:35.326Z</time></trkpt><trkpt lat="43.9715858" lon="16.7222889"><ele>700.5</ele><time>2026-04-28T09:57:36.326Z</time></trkpt><trkpt lat="43.9714612" lon="16.7225811"><ele>699.0</ele><time>2026-04-28T09:57:37.326Z</time></trkpt><trkpt lat="43.9713395" lon="16.7228731"><ele>699.0</ele><time>2026-04-28T09:57:38.326Z</time></trkpt><trkpt lat="43.9712167" lon="16.7231632"><ele>699.0</ele><time>2026-04-28T09:57:39.326Z</time></trkpt><trkpt lat="43.971091" lon="16.7234589"><ele>699.5</ele><time>2026-04-28T09:57:40.326Z</time></trkpt><trkpt lat="43.9709689" lon="16.7237471"><ele>700.0</ele><time>2026-04-28T09:57:41.326Z</time></trkpt><trkpt lat="43.9708469" lon="16.7240413"><ele>700.0</ele><time>2026-04-28T09:57:42.326Z</time></trkpt><trkpt lat="43.9707225" lon="16.7243288"><ele>700.0</ele><time>2026-04-28T09:57:43.327Z</time></trkpt><trkpt lat="43.9706002" lon="16.7246151"><ele>700.0</ele><time>2026-04-28T09:57:44.327Z</time></trkpt><trkpt lat="43.9704812" lon="16.724902"><ele>700.0</ele><time>2026-04-28T09:57:45.326Z</time></trkpt><trkpt lat="43.9703632" lon="16.7251961"><ele>699.5</ele><time>2026-04-28T09:57:46.327Z</time></trkpt><trkpt lat="43.9702414" lon="16.7254843"><ele>699.0</ele><time>2026-04-28T09:57:47.326Z</time></trkpt><trkpt lat="43.9701225" lon="16.7257706"><ele>700.5</ele><time>2026-04-28T09:57:48.327Z</time></trkpt><trkpt lat="43.970001" lon="16.7260571"><ele>702.0</ele><time>2026-04-28T09:57:49.326Z</time></trkpt><trkpt lat="43.9698759" lon="16.7263454"><ele>702.5</ele><time>2026-04-28T09:57:50.327Z</time></trkpt><trkpt lat="43.9697531" lon="16.7266363"><ele>703.0</ele><time>2026-04-28T09:57:51.327Z</time></trkpt><trkpt lat="43.9696322" lon="16.7269227"><ele>703.0</ele><time>2026-04-28T09:57:52.326Z</time></trkpt><trkpt lat="43.9695111" lon="16.7272114"><ele>703.0</ele><time>2026-04-28T09:57:53.326Z</time></trkpt><trkpt lat="43.9693904" lon="16.727499"><ele>702.0</ele><time>2026-04-28T09:57:54.327Z</time></trkpt><trkpt lat="43.9692678" lon="16.7277808"><ele>701.0</ele><time>2026-04-28T09:57:55.326Z</time></trkpt><trkpt lat="43.9691449" lon="16.7280626"><ele>701.0</ele><time>2026-04-28T09:57:56.327Z</time></trkpt><trkpt lat="43.9690245" lon="16.7283432"><ele>701.0</ele><time>2026-04-28T09:57:57.327Z</time></trkpt><trkpt lat="43.968907" lon="16.7286218"><ele>701.0</ele><time>2026-04-28T09:57:58.327Z</time></trkpt><trkpt lat="43.9687873" lon="16.7288961"><ele>701.0</ele><time>2026-04-28T09:57:59.327Z</time></trkpt><trkpt lat="43.9686677" lon="16.729177"><ele>700.5</ele><time>2026-04-28T09:58:00.326Z</time></trkpt><trkpt lat="43.9685484" lon="16.7294578"><ele>700.0</ele><time>2026-04-28T09:58:01.326Z</time></trkpt><trkpt lat="43.9684339" lon="16.7297335"><ele>700.0</ele><time>2026-04-28T09:58:02.326Z</time></trkpt><trkpt lat="43.9683138" lon="16.7300077"><ele>700.0</ele><time>2026-04-28T09:58:03.326Z</time></trkpt><trkpt lat="43.9682014" lon="16.7302848"><ele>701.5</ele><time>2026-04-28T09:58:04.327Z</time></trkpt><trkpt lat="43.9680871" lon="16.7305557"><ele>703.0</ele><time>2026-04-28T09:58:05.327Z</time></trkpt><trkpt lat="43.9679724" lon="16.7308235"><ele>703.0</ele><time>2026-04-28T09:58:06.326Z</time></trkpt><trkpt lat="43.9678564" lon="16.7310857"><ele>703.0</ele><time>2026-04-28T09:58:07.327Z</time></trkpt><trkpt lat="43.9677405" lon="16.7313569"><ele>703.0</ele><time>2026-04-28T09:58:08.326Z</time></trkpt><trkpt lat="43.9676285" lon="16.731623"><ele>702.0</ele><time>2026-04-28T09:58:09.326Z</time></trkpt><trkpt lat="43.9675149" lon="16.7318966"><ele>701.0</ele><time>2026-04-28T09:58:10.326Z</time></trkpt><trkpt lat="43.967403" lon="16.7321671"><ele>701.0</ele><time>2026-04-28T09:58:11.326Z</time></trkpt><trkpt lat="43.9672859" lon="16.7324424"><ele>701.0</ele><time>2026-04-28T09:58:12.326Z</time></trkpt><trkpt lat="43.9671702" lon="16.7327146"><ele>701.0</ele><time>2026-04-28T09:58:13.326Z</time></trkpt><trkpt lat="43.9670564" lon="16.7329859"><ele>701.0</ele><time>2026-04-28T09:58:14.327Z</time></trkpt><trkpt lat="43.9669386" lon="16.733266"><ele>701.0</ele><time>2026-04-28T09:58:15.326Z</time></trkpt><trkpt lat="43.9668265" lon="16.7335401"><ele>701.0</ele><time>2026-04-28T09:58:16.326Z</time></trkpt><trkpt lat="43.9667118" lon="16.7338111"><ele>701.0</ele><time>2026-04-28T09:58:17.327Z</time></trkpt><trkpt lat="43.9665951" lon="16.7340918"><ele>701.0</ele><time>2026-04-28T09:58:18.327Z</time></trkpt><trkpt lat="43.966357" lon="16.7346578"><ele>701.5</ele><time>2026-04-28T09:58:20.326Z</time></trkpt><trkpt lat="43.9662379" lon="16.7349355"><ele>702.0</ele><time>2026-04-28T09:58:21.327Z</time></trkpt><trkpt lat="43.9661232" lon="16.7352077"><ele>702.0</ele><time>2026-04-28T09:58:22.326Z</time></trkpt><trkpt lat="43.9660117" lon="16.7354723"><ele>702.0</ele><time>2026-04-28T09:58:23.327Z</time></trkpt><trkpt lat="43.9659066" lon="16.7357192"><ele>702.0</ele><time>2026-04-28T09:58:24.327Z</time></trkpt><trkpt lat="43.9658031" lon="16.7359505"><ele>703.0</ele><time>2026-04-28T09:58:25.326Z</time></trkpt><trkpt lat="43.9657092" lon="16.7361641"><ele>704.0</ele><time>2026-04-28T09:58:26.326Z</time></trkpt><trkpt lat="43.9656154" lon="16.7363657"><ele>705.0</ele><time>2026-04-28T09:58:27.326Z</time></trkpt><trkpt lat="43.9655186" lon="16.7365543"><ele>705.0</ele><time>2026-04-28T09:58:28.326Z</time></trkpt><trkpt lat="43.9654129" lon="16.7367218"><ele>705.0</ele><time>2026-04-28T09:58:29.326Z</time></trkpt><trkpt lat="43.965302" lon="16.7368712"><ele>705.0</ele><time>2026-04-28T09:58:30.326Z</time></trkpt><trkpt lat="43.965178" lon="16.7370036"><ele>706.3333333333334</ele><time>2026-04-28T09:58:31.327Z</time></trkpt><trkpt lat="43.9650416" lon="16.7371204"><ele>707.6666666666667</ele><time>2026-04-28T09:58:32.326Z</time></trkpt><trkpt lat="43.9648933" lon="16.7372197"><ele>709.0</ele><time>2026-04-28T09:58:33.326Z</time></trkpt><trkpt lat="43.9647307" lon="16.7373097"><ele>709.0</ele><time>2026-04-28T09:58:34.327Z</time></trkpt><trkpt lat="43.9645584" lon="16.7373884"><ele>709.0</ele><time>2026-04-28T09:58:35.326Z</time></trkpt><trkpt lat="43.9643823" lon="16.7374566"><ele>709.0</ele><time>2026-04-28T09:58:36.327Z</time></trkpt><trkpt lat="43.9641974" lon="16.7375228"><ele>707.0</ele><time>2026-04-28T09:58:37.326Z</time></trkpt><trkpt lat="43.9640079" lon="16.7375892"><ele>705.0</ele><time>2026-04-28T09:58:38.326Z</time></trkpt><trkpt lat="43.9636207" lon="16.7377348"><ele>708.3333333333334</ele><time>2026-04-28T09:58:40.326Z</time></trkpt><trkpt lat="43.963422" lon="16.737812"><ele>711.6666666666667</ele><time>2026-04-28T09:58:41.326Z</time></trkpt><trkpt lat="43.9632211" lon="16.7378902"><ele>715.0</ele><time>2026-04-28T09:58:42.327Z</time></trkpt><trkpt lat="43.9630171" lon="16.7379737"><ele>715.0</ele><time>2026-04-28T09:58:43.326Z</time></trkpt><trkpt lat="43.9628154" lon="16.7380491"><ele>715.0</ele><time>2026-04-28T09:58:44.326Z</time></trkpt><trkpt lat="43.9626143" lon="16.7381251"><ele>715.0</ele><time>2026-04-28T09:58:45.326Z</time></trkpt><trkpt lat="43.9624096" lon="16.7382017"><ele>712.3333333333334</ele><time>2026-04-28T09:58:46.327Z</time></trkpt><trkpt lat="43.962203" lon="16.7382823"><ele>709.6666666666666</ele><time>2026-04-28T09:58:47.327Z</time></trkpt><trkpt lat="43.9619984" lon="16.738368"><ele>707.0</ele><time>2026-04-28T09:58:48.327Z</time></trkpt><trkpt lat="43.9617969" lon="16.7384698"><ele>707.3333333333333</ele><time>2026-04-28T09:58:49.327Z</time></trkpt><trkpt lat="43.9616007" lon="16.7385878"><ele>707.6666666666666</ele><time>2026-04-28T09:58:50.326Z</time></trkpt><trkpt lat="43.9614073" lon="16.7387289"><ele>708.0</ele><time>2026-04-28T09:58:51.326Z</time></trkpt><trkpt lat="43.9612179" lon="16.7388703"><ele>708.0</ele><time>2026-04-28T09:58:52.327Z</time></trkpt><trkpt lat="43.9610232" lon="16.7390216"><ele>708.0</ele><time>2026-04-28T09:58:53.326Z</time></trkpt><trkpt lat="43.9608213" lon="16.7391765"><ele>709.5</ele><time>2026-04-28T09:58:54.327Z</time></trkpt><trkpt lat="43.9606222" lon="16.7393297"><ele>711.0</ele><time>2026-04-28T09:58:55.326Z</time></trkpt><trkpt lat="43.9604227" lon="16.7394926"><ele>711.0</ele><time>2026-04-28T09:58:56.326Z</time></trkpt><trkpt lat="43.9602224" lon="16.7396517"><ele>711.0</ele><time>2026-04-28T09:58:57.326Z</time></trkpt><trkpt lat="43.9600143" lon="16.7398049"><ele>707.5</ele><time>2026-04-28T09:58:58.326Z</time></trkpt><trkpt lat="43.959813" lon="16.7399634"><ele>704.0</ele><time>2026-04-28T09:58:59.327Z</time></trkpt><trkpt lat="43.9596116" lon="16.7401172"><ele>707.0</ele><time>2026-04-28T09:59:00.326Z</time></trkpt><trkpt lat="43.959406" lon="16.7402803"><ele>710.0</ele><time>2026-04-28T09:59:01.326Z</time></trkpt><trkpt lat="43.9592015" lon="16.7404411"><ele>707.0</ele><time>2026-04-28T09:59:02.326Z</time></trkpt><trkpt lat="43.9589992" lon="16.7406022"><ele>704.0</ele><time>2026-04-28T09:59:03.326Z</time></trkpt><trkpt lat="43.9587912" lon="16.7407645"><ele>704.0</ele><time>2026-04-28T09:59:04.326Z</time></trkpt><trkpt lat="43.9585875" lon="16.7409215"><ele>704.0</ele><time>2026-04-28T09:59:05.327Z</time></trkpt><trkpt lat="43.9583837" lon="16.7410832"><ele>703.5</ele><time>2026-04-28T09:59:06.326Z</time></trkpt><trkpt lat="43.9581802" lon="16.7412441"><ele>703.0</ele><time>2026-04-28T09:59:07.327Z</time></trkpt><trkpt lat="43.9579762" lon="16.7414074"><ele>703.0</ele><time>2026-04-28T09:59:08.326Z</time></trkpt><trkpt lat="43.9577731" lon="16.7415692"><ele>703.0</ele><time>2026-04-28T09:59:09.326Z</time></trkpt><trkpt lat="43.9575731" lon="16.7417303"><ele>704.5</ele><time>2026-04-28T09:59:10.327Z</time></trkpt><trkpt lat="43.9573709" lon="16.7418872"><ele>706.0</ele><time>2026-04-28T09:59:11.326Z</time></trkpt><trkpt lat="43.9571755" lon="16.7420491"><ele>706.0</ele><time>2026-04-28T09:59:12.327Z</time></trkpt><trkpt lat="43.9569796" lon="16.7421978"><ele>706.0</ele><time>2026-04-28T09:59:13.326Z</time></trkpt><trkpt lat="43.9567825" lon="16.7423556"><ele>705.6666666666667</ele><time>2026-04-28T09:59:14.326Z</time></trkpt><trkpt lat="43.9565893" lon="16.7425108"><ele>705.3333333333334</ele><time>2026-04-28T09:59:15.326Z</time></trkpt><trkpt lat="43.9563948" lon="16.742663"><ele>705.0</ele><time>2026-04-28T09:59:16.326Z</time></trkpt><trkpt lat="43.9562011" lon="16.7428143"><ele>705.0</ele><time>2026-04-28T09:59:17.326Z</time></trkpt><trkpt lat="43.9559997" lon="16.7429564"><ele>705.0</ele><time>2026-04-28T09:59:18.326Z</time></trkpt><trkpt lat="43.955793" lon="16.7430887"><ele>704.5</ele><time>2026-04-28T09:59:19.327Z</time></trkpt><trkpt lat="43.95558" lon="16.7432136"><ele>704.0</ele><time>2026-04-28T09:59:20.326Z</time></trkpt><trkpt lat="43.9553704" lon="16.7433303"><ele>704.0</ele><time>2026-04-28T09:59:21.327Z</time></trkpt><trkpt lat="43.9551517" lon="16.7434453"><ele>704.0</ele><time>2026-04-28T09:59:22.327Z</time></trkpt><trkpt lat="43.9549372" lon="16.7435657"><ele>707.5</ele><time>2026-04-28T09:59:23.327Z</time></trkpt><trkpt lat="43.9547196" lon="16.7436809"><ele>711.0</ele><time>2026-04-28T09:59:24.326Z</time></trkpt><trkpt lat="43.9545091" lon="16.7438007"><ele>711.0</ele><time>2026-04-28T09:59:25.327Z</time></trkpt><trkpt lat="43.9542949" lon="16.743914"><ele>711.0</ele><time>2026-04-28T09:59:26.326Z</time></trkpt><trkpt lat="43.9540836" lon="16.7440252"><ele>711.3333333333334</ele><time>2026-04-28T09:59:27.326Z</time></trkpt><trkpt lat="43.9538786" lon="16.744131"><ele>711.6666666666667</ele><time>2026-04-28T09:59:28.326Z</time></trkpt><trkpt lat="43.9536781" lon="16.7442377"><ele>712.0</ele><time>2026-04-28T09:59:29.326Z</time></trkpt><trkpt lat="43.9534833" lon="16.7443467"><ele>713.6666666666667</ele><time>2026-04-28T09:59:30.326Z</time></trkpt><trkpt lat="43.9532886" lon="16.7444548"><ele>715.3333333333334</ele><time>2026-04-28T09:59:31.326Z</time></trkpt><trkpt lat="43.9531023" lon="16.7445609"><ele>717.0</ele><time>2026-04-28T09:59:32.327Z</time></trkpt><trkpt lat="43.952921" lon="16.7446695"><ele>717.0</ele><time>2026-04-28T09:59:33.326Z</time></trkpt><trkpt lat="43.9527384" lon="16.7447748"><ele>717.0</ele><time>2026-04-28T09:59:34.326Z</time></trkpt><trkpt lat="43.9525658" lon="16.744882"><ele>717.0</ele><time>2026-04-28T09:59:35.326Z</time></trkpt><trkpt lat="43.9523935" lon="16.7450017"><ele>717.0</ele><time>2026-04-28T09:59:36.326Z</time></trkpt><trkpt lat="43.9522206" lon="16.7451308"><ele>717.0</ele><time>2026-04-28T09:59:37.326Z</time></trkpt><trkpt lat="43.9520545" lon="16.74527"><ele>717.0</ele><time>2026-04-28T09:59:38.327Z</time></trkpt><trkpt lat="43.9518866" lon="16.7454196"><ele>719.0</ele><time>2026-04-28T09:59:39.327Z</time></trkpt><trkpt lat="43.9517235" lon="16.7455708"><ele>721.0</ele><time>2026-04-28T09:59:40.326Z</time></trkpt><trkpt lat="43.951559" lon="16.7457294"><ele>723.0</ele><time>2026-04-28T09:59:41.326Z</time></trkpt><trkpt lat="43.9513976" lon="16.7458902"><ele>723.0</ele><time>2026-04-28T09:59:42.326Z</time></trkpt><trkpt lat="43.9512361" lon="16.7460429"><ele>723.0</ele><time>2026-04-28T09:59:43.326Z</time></trkpt><trkpt lat="43.9510692" lon="16.7461974"><ele>723.0</ele><time>2026-04-28T09:59:44.326Z</time></trkpt><trkpt lat="43.9508989" lon="16.7463556"><ele>725.0</ele><time>2026-04-28T09:59:45.327Z</time></trkpt><trkpt lat="43.9507254" lon="16.7465213"><ele>727.0</ele><time>2026-04-28T09:59:46.326Z</time></trkpt><trkpt lat="43.9505596" lon="16.7466958"><ele>729.0</ele><time>2026-04-28T09:59:47.326Z</time></trkpt><trkpt lat="43.9503841" lon="16.74687"><ele>730.3333333333334</ele><time>2026-04-28T09:59:48.326Z</time></trkpt><trkpt lat="43.9502092" lon="16.7470348"><ele>731.6666666666667</ele><time>2026-04-28T09:59:49.326Z</time></trkpt><trkpt lat="43.9500374" lon="16.7471896"><ele>733.0</ele><time>2026-04-28T09:59:50.327Z</time></trkpt><trkpt lat="43.9498704" lon="16.7473191"><ele>733.6666666666667</ele><time>2026-04-28T09:59:51.327Z</time></trkpt><trkpt lat="43.9497058" lon="16.7474354"><ele>734.3333333333334</ele><time>2026-04-28T09:59:52.326Z</time></trkpt><trkpt lat="43.9495435" lon="16.7475426"><ele>735.0</ele><time>2026-04-28T09:59:53.327Z</time></trkpt><trkpt lat="43.9493821" lon="16.7476467"><ele>736.0</ele><time>2026-04-28T09:59:54.326Z</time></trkpt><trkpt lat="43.9492185" lon="16.7477595"><ele>737.0</ele><time>2026-04-28T09:59:55.326Z</time></trkpt><trkpt lat="43.9490578" lon="16.7478876"><ele>738.0</ele><time>2026-04-28T09:59:56.326Z</time></trkpt><trkpt lat="43.9489011" lon="16.7480337"><ele>738.0</ele><time>2026-04-28T09:59:57.326Z</time></trkpt><trkpt lat="43.9487477" lon="16.7481915"><ele>738.0</ele><time>2026-04-28T09:59:58.327Z</time></trkpt><trkpt lat="43.9485961" lon="16.7483463"><ele>738.0</ele><time>2026-04-28T09:59:59.326Z</time></trkpt><trkpt lat="43.9484368" lon="16.7485038"><ele>739.6666666666666</ele><time>2026-04-28T10:00:00.327Z</time></trkpt><trkpt lat="43.9482804" lon="16.7486588"><ele>741.3333333333333</ele><time>2026-04-28T10:00:01.326Z</time></trkpt><trkpt lat="43.9481147" lon="16.7488129"><ele>743.0</ele><time>2026-04-28T10:00:02.327Z</time></trkpt><trkpt lat="43.9479433" lon="16.7489692"><ele>743.0</ele><time>2026-04-28T10:00:03.326Z</time></trkpt><trkpt lat="43.9477691" lon="16.749122"><ele>743.0</ele><time>2026-04-28T10:00:04.326Z</time></trkpt><trkpt lat="43.9475889" lon="16.7492806"><ele>743.0</ele><time>2026-04-28T10:00:05.326Z</time></trkpt><trkpt lat="43.9474015" lon="16.7494167"><ele>743.6666666666666</ele><time>2026-04-28T10:00:06.326Z</time></trkpt><trkpt lat="43.9472025" lon="16.7495339"><ele>744.3333333333334</ele><time>2026-04-28T10:00:07.327Z</time></trkpt><trkpt lat="43.94699" lon="16.7496391"><ele>745.0</ele><time>2026-04-28T10:00:08.326Z</time></trkpt><trkpt lat="43.9467731" lon="16.7497288"><ele>742.5</ele><time>2026-04-28T10:00:09.326Z</time></trkpt><trkpt lat="43.9465474" lon="16.7498188"><ele>740.0</ele><time>2026-04-28T10:00:10.326Z</time></trkpt><trkpt lat="43.9463251" lon="16.7499206"><ele>740.0</ele><time>2026-04-28T10:00:11.326Z</time></trkpt><trkpt lat="43.9461091" lon="16.750059"><ele>740.0</ele><time>2026-04-28T10:00:12.327Z</time></trkpt><trkpt lat="43.9458989" lon="16.7502315"><ele>738.0</ele><time>2026-04-28T10:00:13.326Z</time></trkpt><trkpt lat="43.9456914" lon="16.7504051"><ele>736.0</ele><time>2026-04-28T10:00:14.326Z</time></trkpt><trkpt lat="43.9454847" lon="16.7505833"><ele>736.0</ele><time>2026-04-28T10:00:15.326Z</time></trkpt><trkpt lat="43.9452771" lon="16.7507633"><ele>736.0</ele><time>2026-04-28T10:00:16.327Z</time></trkpt><trkpt lat="43.94507" lon="16.7509551"><ele>733.5</ele><time>2026-04-28T10:00:17.326Z</time></trkpt><trkpt lat="43.9448626" lon="16.7511378"><ele>731.0</ele><time>2026-04-28T10:00:18.326Z</time></trkpt><trkpt lat="43.9446501" lon="16.7513308"><ele>731.0</ele><time>2026-04-28T10:00:19.326Z</time></trkpt><trkpt lat="43.9444386" lon="16.7515225"><ele>731.0</ele><time>2026-04-28T10:00:20.326Z</time></trkpt><trkpt lat="43.9442296" lon="16.7517097"><ele>727.0</ele><time>2026-04-28T10:00:21.326Z</time></trkpt><trkpt lat="43.9440171" lon="16.7518955"><ele>723.0</ele><time>2026-04-28T10:00:22.326Z</time></trkpt><trkpt lat="43.9437981" lon="16.7520633"><ele>723.0</ele><time>2026-04-28T10:00:23.326Z</time></trkpt><trkpt lat="43.9435794" lon="16.7522098"><ele>723.0</ele><time>2026-04-28T10:00:24.326Z</time></trkpt><trkpt lat="43.9433599" lon="16.7523471"><ele>720.0</ele><time>2026-04-28T10:00:25.327Z</time></trkpt><trkpt lat="43.9431466" lon="16.7524848"><ele>717.0</ele><time>2026-04-28T10:00:26.327Z</time></trkpt><trkpt lat="43.9429335" lon="16.7526324"><ele>717.5</ele><time>2026-04-28T10:00:27.326Z</time></trkpt><trkpt lat="43.9427311" lon="16.7527983"><ele>718.0</ele><time>2026-04-28T10:00:28.326Z</time></trkpt><trkpt lat="43.9425396" lon="16.7529852"><ele>718.0</ele><time>2026-04-28T10:00:29.326Z</time></trkpt><trkpt lat="43.9423522" lon="16.7531916"><ele>718.0</ele><time>2026-04-28T10:00:30.327Z</time></trkpt><trkpt lat="43.9421752" lon="16.753412"><ele>718.5</ele><time>2026-04-28T10:00:31.326Z</time></trkpt><trkpt lat="43.9420026" lon="16.7536271"><ele>719.0</ele><time>2026-04-28T10:00:32.326Z</time></trkpt><trkpt lat="43.9418286" lon="16.7538466"><ele>716.0</ele><time>2026-04-28T10:00:33.326Z</time></trkpt><trkpt lat="43.9416553" lon="16.7540609"><ele>713.0</ele><time>2026-04-28T10:00:34.326Z</time></trkpt><trkpt lat="43.9414807" lon="16.754271"><ele>714.0</ele><time>2026-04-28T10:00:35.327Z</time></trkpt><trkpt lat="43.9413031" lon="16.7544813"><ele>715.0</ele><time>2026-04-28T10:00:36.327Z</time></trkpt><trkpt lat="43.9411275" lon="16.754693"><ele>715.0</ele><time>2026-04-28T10:00:37.327Z</time></trkpt><trkpt lat="43.9409543" lon="16.7549011"><ele>715.0</ele><time>2026-04-28T10:00:38.327Z</time></trkpt><trkpt lat="43.9407744" lon="16.7551083"><ele>716.5</ele><time>2026-04-28T10:00:39.326Z</time></trkpt><trkpt lat="43.9405849" lon="16.7553118"><ele>718.0</ele><time>2026-04-28T10:00:40.327Z</time></trkpt><trkpt lat="43.9403993" lon="16.7555214"><ele>718.0</ele><time>2026-04-28T10:00:41.326Z</time></trkpt><trkpt lat="43.9402152" lon="16.7557435"><ele>718.0</ele><time>2026-04-28T10:00:42.327Z</time></trkpt><trkpt lat="43.9400388" lon="16.7559648"><ele>714.5</ele><time>2026-04-28T10:00:43.326Z</time></trkpt><trkpt lat="43.939868" lon="16.7562005"><ele>711.0</ele><time>2026-04-28T10:00:44.326Z</time></trkpt><trkpt lat="43.9396993" lon="16.7564396"><ele>711.0</ele><time>2026-04-28T10:00:45.326Z</time></trkpt><trkpt lat="43.9395317" lon="16.7566837"><ele>711.0</ele><time>2026-04-28T10:00:46.326Z</time></trkpt><trkpt lat="43.9393645" lon="16.7569313"><ele>710.5</ele><time>2026-04-28T10:00:47.326Z</time></trkpt><trkpt lat="43.9392007" lon="16.7571847"><ele>710.0</ele><time>2026-04-28T10:00:48.326Z</time></trkpt><trkpt lat="43.9390477" lon="16.7574471"><ele>710.0</ele><time>2026-04-28T10:00:49.326Z</time></trkpt><trkpt lat="43.938894" lon="16.7577162"><ele>710.0</ele><time>2026-04-28T10:00:50.326Z</time></trkpt><trkpt lat="43.9387498" lon="16.7579794"><ele>710.0</ele><time>2026-04-28T10:00:51.326Z</time></trkpt><trkpt lat="43.9386172" lon="16.7582311"><ele>710.0</ele><time>2026-04-28T10:00:52.327Z</time></trkpt><trkpt lat="43.9384862" lon="16.7584793"><ele>710.0</ele><time>2026-04-28T10:00:53.327Z</time></trkpt><trkpt lat="43.9383516" lon="16.7587189"><ele>709.3333333333333</ele><time>2026-04-28T10:00:54.326Z</time></trkpt><trkpt lat="43.938211" lon="16.758948"><ele>708.6666666666666</ele><time>2026-04-28T10:00:55.326Z</time></trkpt><trkpt lat="43.9380672" lon="16.7591675"><ele>708.0</ele><time>2026-04-28T10:00:56.326Z</time></trkpt><trkpt lat="43.9379161" lon="16.7593564"><ele>707.6666666666666</ele><time>2026-04-28T10:00:57.327Z</time></trkpt><trkpt lat="43.9377566" lon="16.7595244"><ele>707.3333333333333</ele><time>2026-04-28T10:00:58.326Z</time></trkpt><trkpt lat="43.9375891" lon="16.759684"><ele>707.0</ele><time>2026-04-28T10:00:59.326Z</time></trkpt><trkpt lat="43.9374215" lon="16.7598495"><ele>707.0</ele><time>2026-04-28T10:01:00.327Z</time></trkpt><trkpt lat="43.9372619" lon="16.7600234"><ele>707.0</ele><time>2026-04-28T10:01:01.326Z</time></trkpt><trkpt lat="43.9371067" lon="16.7602167"><ele>707.0</ele><time>2026-04-28T10:01:02.326Z</time></trkpt><trkpt lat="43.9369569" lon="16.7604314"><ele>707.3333333333333</ele><time>2026-04-28T10:01:03.326Z</time></trkpt><trkpt lat="43.9368119" lon="16.7606619"><ele>707.6666666666666</ele><time>2026-04-28T10:01:04.327Z</time></trkpt><trkpt lat="43.9366653" lon="16.7609035"><ele>708.0</ele><time>2026-04-28T10:01:05.327Z</time></trkpt><trkpt lat="43.9365289" lon="16.7611288"><ele>706.6666666666666</ele><time>2026-04-28T10:01:06.327Z</time></trkpt><trkpt lat="43.9363938" lon="16.7613513"><ele>705.3333333333333</ele><time>2026-04-28T10:01:07.326Z</time></trkpt><trkpt lat="43.9362699" lon="16.7615626"><ele>704.0</ele><time>2026-04-28T10:01:08.326Z</time></trkpt><trkpt lat="43.9361446" lon="16.7617606"><ele>704.6666666666666</ele><time>2026-04-28T10:01:09.326Z</time></trkpt><trkpt lat="43.9360273" lon="16.7619504"><ele>705.3333333333334</ele><time>2026-04-28T10:01:10.326Z</time></trkpt><trkpt lat="43.9359036" lon="16.7621279"><ele>706.0</ele><time>2026-04-28T10:01:11.326Z</time></trkpt><trkpt lat="43.9357737" lon="16.7623048"><ele>706.0</ele><time>2026-04-28T10:01:12.326Z</time></trkpt><trkpt lat="43.9356382" lon="16.7624959"><ele>706.0</ele><time>2026-04-28T10:01:13.327Z</time></trkpt><trkpt lat="43.9354939" lon="16.7626846"><ele>706.0</ele><time>2026-04-28T10:01:14.326Z</time></trkpt><trkpt lat="43.935341" lon="16.7628744"><ele>705.6666666666667</ele><time>2026-04-28T10:01:15.326Z</time></trkpt><trkpt lat="43.9351836" lon="16.7630687"><ele>705.3333333333334</ele><time>2026-04-28T10:01:16.327Z</time></trkpt><trkpt lat="43.9350299" lon="16.7632723"><ele>705.0</ele><time>2026-04-28T10:01:17.326Z</time></trkpt><trkpt lat="43.9348839" lon="16.7634828"><ele>706.0</ele><time>2026-04-28T10:01:18.326Z</time></trkpt><trkpt lat="43.9347456" lon="16.763703"><ele>707.0</ele><time>2026-04-28T10:01:19.327Z</time></trkpt><trkpt lat="43.9346193" lon="16.7639444"><ele>708.0</ele><time>2026-04-28T10:01:20.326Z</time></trkpt><trkpt lat="43.9344887" lon="16.7641848"><ele>707.6666666666666</ele><time>2026-04-28T10:01:21.326Z</time></trkpt><trkpt lat="43.9343574" lon="16.7644336"><ele>707.3333333333333</ele><time>2026-04-28T10:01:22.326Z</time></trkpt><trkpt lat="43.9342335" lon="16.7646806"><ele>707.0</ele><time>2026-04-28T10:01:23.326Z</time></trkpt><trkpt lat="43.9341061" lon="16.7649268"><ele>707.0</ele><time>2026-04-28T10:01:24.326Z</time></trkpt><trkpt lat="43.9339759" lon="16.7651629"><ele>707.0</ele><time>2026-04-28T10:01:25.326Z</time></trkpt><trkpt lat="43.9338395" lon="16.7653932"><ele>707.0</ele><time>2026-04-28T10:01:26.326Z</time></trkpt><trkpt lat="43.9336965" lon="16.7656216"><ele>707.0</ele><time>2026-04-28T10:01:27.326Z</time></trkpt><trkpt lat="43.9335517" lon="16.7658453"><ele>707.0</ele><time>2026-04-28T10:01:28.327Z</time></trkpt><trkpt lat="43.9334026" lon="16.7660759"><ele>707.0</ele><time>2026-04-28T10:01:29.326Z</time></trkpt><trkpt lat="43.9332575" lon="16.766309"><ele>707.6666666666666</ele><time>2026-04-28T10:01:30.326Z</time></trkpt><trkpt lat="43.9331121" lon="16.7665429"><ele>708.3333333333334</ele><time>2026-04-28T10:01:31.326Z</time></trkpt><trkpt lat="43.9329675" lon="16.7667769"><ele>709.0</ele><time>2026-04-28T10:01:32.326Z</time></trkpt><trkpt lat="43.9328227" lon="16.7670137"><ele>710.5</ele><time>2026-04-28T10:01:33.327Z</time></trkpt><trkpt lat="43.9326767" lon="16.7672541"><ele>712.0</ele><time>2026-04-28T10:01:34.326Z</time></trkpt><trkpt lat="43.9325364" lon="16.7675001"><ele>710.0</ele><time>2026-04-28T10:01:35.327Z</time></trkpt><trkpt lat="43.9324019" lon="16.7677525"><ele>708.0</ele><time>2026-04-28T10:01:36.326Z</time></trkpt><trkpt lat="43.9322691" lon="16.7680072"><ele>708.0</ele><time>2026-04-28T10:01:37.326Z</time></trkpt><trkpt lat="43.9321406" lon="16.7682732"><ele>708.0</ele><time>2026-04-28T10:01:38.326Z</time></trkpt><trkpt lat="43.9320104" lon="16.7685432"><ele>710.0</ele><time>2026-04-28T10:01:39.326Z</time></trkpt><trkpt lat="43.9318829" lon="16.7688097"><ele>712.0</ele><time>2026-04-28T10:01:40.326Z</time></trkpt><trkpt lat="43.9317497" lon="16.7690826"><ele>709.5</ele><time>2026-04-28T10:01:41.326Z</time></trkpt><trkpt lat="43.9315996" lon="16.7693424"><ele>707.0</ele><time>2026-04-28T10:01:42.326Z</time></trkpt><trkpt lat="43.9314464" lon="16.7695888"><ele>707.0</ele><time>2026-04-28T10:01:43.326Z</time></trkpt><trkpt lat="43.9312929" lon="16.7698331"><ele>707.0</ele><time>2026-04-28T10:01:44.326Z</time></trkpt><trkpt lat="43.9311332" lon="16.7700722"><ele>705.5</ele><time>2026-04-28T10:01:45.327Z</time></trkpt><trkpt lat="43.9309691" lon="16.7703103"><ele>704.0</ele><time>2026-04-28T10:01:46.326Z</time></trkpt><trkpt lat="43.9308087" lon="16.7705469"><ele>704.0</ele><time>2026-04-28T10:01:47.326Z</time></trkpt><trkpt lat="43.9306553" lon="16.7707837"><ele>704.0</ele><time>2026-04-28T10:01:48.326Z</time></trkpt><trkpt lat="43.9304974" lon="16.7710245"><ele>706.5</ele><time>2026-04-28T10:01:49.327Z</time></trkpt><trkpt lat="43.930343" lon="16.7712566"><ele>709.0</ele><time>2026-04-28T10:01:50.326Z</time></trkpt><trkpt lat="43.9301875" lon="16.7715023"><ele>708.5</ele><time>2026-04-28T10:01:51.326Z</time></trkpt><trkpt lat="43.9300371" lon="16.7717519"><ele>708.0</ele><time>2026-04-28T10:01:52.326Z</time></trkpt><trkpt lat="43.9298867" lon="16.7720106"><ele>708.0</ele><time>2026-04-28T10:01:53.327Z</time></trkpt><trkpt lat="43.9297366" lon="16.7722684"><ele>708.0</ele><time>2026-04-28T10:01:54.326Z</time></trkpt><trkpt lat="43.9295812" lon="16.7725194"><ele>716.0</ele><time>2026-04-28T10:01:55.326Z</time></trkpt><trkpt lat="43.9294195" lon="16.7727641"><ele>724.0</ele><time>2026-04-28T10:01:56.326Z</time></trkpt><trkpt lat="43.9292514" lon="16.7730076"><ele>717.0</ele><time>2026-04-28T10:01:57.326Z</time></trkpt><trkpt lat="43.9290817" lon="16.7732437"><ele>710.0</ele><time>2026-04-28T10:01:58.326Z</time></trkpt><trkpt lat="43.9289053" lon="16.7734772"><ele>713.5</ele><time>2026-04-28T10:01:59.326Z</time></trkpt><trkpt lat="43.9287323" lon="16.7737087"><ele>717.0</ele><time>2026-04-28T10:02:00.326Z</time></trkpt><trkpt lat="43.9285558" lon="16.7739472"><ele>715.5</ele><time>2026-04-28T10:02:01.326Z</time></trkpt><trkpt lat="43.9283817" lon="16.7741788"><ele>714.0</ele><time>2026-04-28T10:02:02.326Z</time></trkpt><trkpt lat="43.9282066" lon="16.7744063"><ele>714.0</ele><time>2026-04-28T10:02:03.326Z</time></trkpt><trkpt lat="43.9280304" lon="16.7746387"><ele>714.0</ele><time>2026-04-28T10:02:04.326Z</time></trkpt><trkpt lat="43.9278492" lon="16.774862"><ele>714.0</ele><time>2026-04-28T10:02:05.326Z</time></trkpt><trkpt lat="43.9276672" lon="16.7750845"><ele>714.0</ele><time>2026-04-28T10:02:06.326Z</time></trkpt><trkpt lat="43.9274838" lon="16.7752988"><ele>714.0</ele><time>2026-04-28T10:02:07.326Z</time></trkpt><trkpt lat="43.9273035" lon="16.7755014"><ele>714.0</ele><time>2026-04-28T10:02:08.327Z</time></trkpt><trkpt lat="43.9271176" lon="16.7756985"><ele>714.0</ele><time>2026-04-28T10:02:09.326Z</time></trkpt><trkpt lat="43.9269272" lon="16.7759005"><ele>714.0</ele><time>2026-04-28T10:02:10.327Z</time></trkpt><trkpt lat="43.9267361" lon="16.7760985"><ele>714.0</ele><time>2026-04-28T10:02:11.327Z</time></trkpt><trkpt lat="43.926549" lon="16.7762896"><ele>714.0</ele><time>2026-04-28T10:02:12.326Z</time></trkpt><trkpt lat="43.9263555" lon="16.7764843"><ele>714.0</ele><time>2026-04-28T10:02:13.327Z</time></trkpt><trkpt lat="43.9261678" lon="16.7766718"><ele>714.0</ele><time>2026-04-28T10:02:14.326Z</time></trkpt><trkpt lat="43.9259802" lon="16.7768551"><ele>714.3333333333334</ele><time>2026-04-28T10:02:15.326Z</time></trkpt><trkpt lat="43.9258039" lon="16.777028"><ele>714.6666666666667</ele><time>2026-04-28T10:02:16.326Z</time></trkpt><trkpt lat="43.9256316" lon="16.7771911"><ele>715.0</ele><time>2026-04-28T10:02:17.326Z</time></trkpt><trkpt lat="43.9253179" lon="16.77751"><ele>715.0</ele><time>2026-04-28T10:02:19.327Z</time></trkpt><trkpt lat="43.9251719" lon="16.7776772"><ele>715.0</ele><time>2026-04-28T10:02:20.326Z</time></trkpt><trkpt lat="43.9250331" lon="16.777862"><ele>715.0</ele><time>2026-04-28T10:02:21.326Z</time></trkpt><trkpt lat="43.9248938" lon="16.7780364"><ele>714.3333333333334</ele><time>2026-04-28T10:02:22.326Z</time></trkpt><trkpt lat="43.9247519" lon="16.7782212"><ele>713.6666666666666</ele><time>2026-04-28T10:02:23.327Z</time></trkpt><trkpt lat="43.924616" lon="16.7784043"><ele>713.0</ele><time>2026-04-28T10:02:24.326Z</time></trkpt><trkpt lat="43.9244795" lon="16.7785837"><ele>712.6666666666666</ele><time>2026-04-28T10:02:25.326Z</time></trkpt><trkpt lat="43.9243447" lon="16.7787603"><ele>712.3333333333334</ele><time>2026-04-28T10:02:26.327Z</time></trkpt><trkpt lat="43.9242151" lon="16.7789254"><ele>712.0</ele><time>2026-04-28T10:02:27.327Z</time></trkpt><trkpt lat="43.9240803" lon="16.7790698"><ele>712.0</ele><time>2026-04-28T10:02:28.326Z</time></trkpt><trkpt lat="43.9239506" lon="16.7792114"><ele>712.0</ele><time>2026-04-28T10:02:29.326Z</time></trkpt><trkpt lat="43.9238212" lon="16.7793421"><ele>712.0</ele><time>2026-04-28T10:02:30.326Z</time></trkpt><trkpt lat="43.9236922" lon="16.779466"><ele>713.0</ele><time>2026-04-28T10:02:31.327Z</time></trkpt><trkpt lat="43.923437" lon="16.7797376"><ele>714.0</ele><time>2026-04-28T10:02:33.326Z</time></trkpt><trkpt lat="43.923324" lon="16.7798763"><ele>713.3333333333334</ele><time>2026-04-28T10:02:34.326Z</time></trkpt><trkpt lat="43.9232137" lon="16.7800262"><ele>712.6666666666667</ele><time>2026-04-28T10:02:35.327Z</time></trkpt><trkpt lat="43.9231079" lon="16.780181"><ele>712.0</ele><time>2026-04-28T10:02:36.327Z</time></trkpt><trkpt lat="43.923004" lon="16.7803379"><ele>712.0</ele><time>2026-04-28T10:02:37.326Z</time></trkpt><trkpt lat="43.9228963" lon="16.7804966"><ele>712.0</ele><time>2026-04-28T10:02:38.326Z</time></trkpt><trkpt lat="43.9227929" lon="16.7806576"><ele>712.0</ele><time>2026-04-28T10:02:39.326Z</time></trkpt><trkpt lat="43.9226814" lon="16.7808194"><ele>712.0</ele><time>2026-04-28T10:02:40.326Z</time></trkpt><trkpt lat="43.9225752" lon="16.7809803"><ele>712.0</ele><time>2026-04-28T10:02:41.327Z</time></trkpt><trkpt lat="43.9224677" lon="16.7811534"><ele>712.0</ele><time>2026-04-28T10:02:42.326Z</time></trkpt><trkpt lat="43.9223593" lon="16.7813361"><ele>712.0</ele><time>2026-04-28T10:02:43.326Z</time></trkpt><trkpt lat="43.9222597" lon="16.7815213"><ele>712.0</ele><time>2026-04-28T10:02:44.326Z</time></trkpt><trkpt lat="43.9221529" lon="16.7817186"><ele>712.0</ele><time>2026-04-28T10:02:45.326Z</time></trkpt><trkpt lat="43.9220561" lon="16.7819206"><ele>711.6666666666667</ele><time>2026-04-28T10:02:46.326Z</time></trkpt><trkpt lat="43.921962" lon="16.7821306"><ele>711.3333333333334</ele><time>2026-04-28T10:02:47.327Z</time></trkpt><trkpt lat="43.921867" lon="16.7823365"><ele>711.0</ele><time>2026-04-28T10:02:48.326Z</time></trkpt><trkpt lat="43.9217799" lon="16.7825335"><ele>709.6666666666666</ele><time>2026-04-28T10:02:49.326Z</time></trkpt><trkpt lat="43.921694" lon="16.7827269"><ele>708.3333333333333</ele><time>2026-04-28T10:02:50.326Z</time></trkpt><trkpt lat="43.9216102" lon="16.7829196"><ele>707.0</ele><time>2026-04-28T10:02:51.326Z</time></trkpt><trkpt lat="43.9215201" lon="16.7831156"><ele>707.0</ele><time>2026-04-28T10:02:52.326Z</time></trkpt><trkpt lat="43.9214277" lon="16.7833136"><ele>707.0</ele><time>2026-04-28T10:02:53.326Z</time></trkpt><trkpt lat="43.9213308" lon="16.7835148"><ele>707.0</ele><time>2026-04-28T10:02:54.327Z</time></trkpt><trkpt lat="43.9212299" lon="16.783719"><ele>707.3333333333333</ele><time>2026-04-28T10:02:55.326Z</time></trkpt><trkpt lat="43.921129" lon="16.7839283"><ele>707.6666666666666</ele><time>2026-04-28T10:02:56.326Z</time></trkpt><trkpt lat="43.9210276" lon="16.7841242"><ele>708.0</ele><time>2026-04-28T10:02:57.327Z</time></trkpt><trkpt lat="43.9209335" lon="16.7843135"><ele>708.0</ele><time>2026-04-28T10:02:58.326Z</time></trkpt><trkpt lat="43.9208375" lon="16.7844915"><ele>708.0</ele><time>2026-04-28T10:02:59.326Z</time></trkpt><trkpt lat="43.9207478" lon="16.7846616"><ele>708.0</ele><time>2026-04-28T10:03:00.326Z</time></trkpt><trkpt lat="43.9206593" lon="16.7848132"><ele>708.0</ele><time>2026-04-28T10:03:01.326Z</time></trkpt><trkpt lat="43.9205752" lon="16.7849611"><ele>708.0</ele><time>2026-04-28T10:03:02.326Z</time></trkpt><trkpt lat="43.920505" lon="16.7850901"><ele>708.0</ele><time>2026-04-28T10:03:03.326Z</time></trkpt><trkpt lat="43.9204517" lon="16.7851853"><ele>708.0</ele><time>2026-04-28T10:03:04.327Z</time></trkpt><trkpt lat="43.9203729" lon="16.785246"><ele>708.0</ele><time>2026-04-28T10:03:06.327Z</time></trkpt><trkpt lat="43.9202742" lon="16.7852159"><ele>708.0</ele><time>2026-04-28T10:03:08.326Z</time></trkpt><trkpt lat="43.9201945" lon="16.7851713"><ele>708.0</ele><time>2026-04-28T10:03:09.326Z</time></trkpt><trkpt lat="43.9201011" lon="16.7851219"><ele>708.0</ele><time>2026-04-28T10:03:10.326Z</time></trkpt><trkpt lat="43.9200004" lon="16.7850713"><ele>708.0</ele><time>2026-04-28T10:03:11.326Z</time></trkpt><trkpt lat="43.919888" lon="16.7850183"><ele>708.0</ele><time>2026-04-28T10:03:12.326Z</time></trkpt><trkpt lat="43.9197705" lon="16.7849652"><ele>706.75</ele><time>2026-04-28T10:03:13.326Z</time></trkpt><trkpt lat="43.9196479" lon="16.7849084"><ele>705.5</ele><time>2026-04-28T10:03:14.326Z</time></trkpt><trkpt lat="43.9195203" lon="16.7848552"><ele>704.25</ele><time>2026-04-28T10:03:15.326Z</time></trkpt><trkpt lat="43.9193881" lon="16.7847924"><ele>703.0</ele><time>2026-04-28T10:03:16.327Z</time></trkpt><trkpt lat="43.9192586" lon="16.7847269"><ele>702.5</ele><time>2026-04-28T10:03:17.326Z</time></trkpt><trkpt lat="43.9191263" lon="16.7846652"><ele>702.0</ele><time>2026-04-28T10:03:18.327Z</time></trkpt><trkpt lat="43.9189961" lon="16.7845956"><ele>701.5</ele><time>2026-04-28T10:03:19.326Z</time></trkpt><trkpt lat="43.9188596" lon="16.7845341"><ele>701.0</ele><time>2026-04-28T10:03:20.327Z</time></trkpt><trkpt lat="43.9187267" lon="16.7844752"><ele>701.0</ele><time>2026-04-28T10:03:21.326Z</time></trkpt><trkpt lat="43.9185872" lon="16.7844209"><ele>701.0</ele><time>2026-04-28T10:03:22.327Z</time></trkpt><trkpt lat="43.9184502" lon="16.784355"><ele>701.0</ele><time>2026-04-28T10:03:23.326Z</time></trkpt><trkpt lat="43.9183143" lon="16.784288"><ele>701.0</ele><time>2026-04-28T10:03:24.327Z</time></trkpt><trkpt lat="43.9181749" lon="16.7842328"><ele>701.0</ele><time>2026-04-28T10:03:25.326Z</time></trkpt><trkpt lat="43.9180351" lon="16.7841745"><ele>701.0</ele><time>2026-04-28T10:03:26.327Z</time></trkpt><trkpt lat="43.9178974" lon="16.7841172"><ele>701.0</ele><time>2026-04-28T10:03:27.326Z</time></trkpt><trkpt lat="43.9177594" lon="16.784052"><ele>701.0</ele><time>2026-04-28T10:03:28.326Z</time></trkpt><trkpt lat="43.9176251" lon="16.783984"><ele>701.25</ele><time>2026-04-28T10:03:29.327Z</time></trkpt><trkpt lat="43.9174828" lon="16.7839308"><ele>701.5</ele><time>2026-04-28T10:03:30.326Z</time></trkpt><trkpt lat="43.9173465" lon="16.7838797"><ele>701.75</ele><time>2026-04-28T10:03:31.327Z</time></trkpt><trkpt lat="43.9172132" lon="16.7838232"><ele>702.0</ele><time>2026-04-28T10:03:32.326Z</time></trkpt><trkpt lat="43.9170766" lon="16.7837658"><ele>702.0</ele><time>2026-04-28T10:03:33.326Z</time></trkpt><trkpt lat="43.9169393" lon="16.7837119"><ele>702.0</ele><time>2026-04-28T10:03:34.326Z</time></trkpt><trkpt lat="43.916803" lon="16.7836521"><ele>702.0</ele><time>2026-04-28T10:03:35.326Z</time></trkpt><trkpt lat="43.9166671" lon="16.7835943"><ele>702.0</ele><time>2026-04-28T10:03:36.327Z</time></trkpt><trkpt lat="43.9165229" lon="16.783541"><ele>702.25</ele><time>2026-04-28T10:03:37.326Z</time></trkpt><trkpt lat="43.9163761" lon="16.7834791"><ele>702.5</ele><time>2026-04-28T10:03:38.327Z</time></trkpt><trkpt lat="43.9162422" lon="16.783425"><ele>702.75</ele><time>2026-04-28T10:03:39.326Z</time></trkpt><trkpt lat="43.9161219" lon="16.7833826"><ele>703.0</ele><time>2026-04-28T10:03:40.327Z</time></trkpt><trkpt lat="43.9160215" lon="16.7833438"><ele>703.0</ele><time>2026-04-28T10:03:41.326Z</time></trkpt><trkpt lat="43.9159314" lon="16.783315"><ele>703.0</ele><time>2026-04-28T10:03:42.326Z</time></trkpt><trkpt lat="43.9158412" lon="16.7833023"><ele>703.0</ele><time>2026-04-28T10:03:43.326Z</time></trkpt><trkpt lat="43.9157335" lon="16.7832934"><ele>703.0</ele><time>2026-04-28T10:03:44.327Z</time></trkpt><trkpt lat="43.915612" lon="16.7832732"><ele>703.0</ele><time>2026-04-28T10:03:45.326Z</time></trkpt><trkpt lat="43.915486" lon="16.7832504"><ele>703.0</ele><time>2026-04-28T10:03:46.326Z</time></trkpt><trkpt lat="43.9153604" lon="16.7832215"><ele>703.0</ele><time>2026-04-28T10:03:47.326Z</time></trkpt><trkpt lat="43.9152593" lon="16.7831949"><ele>703.0</ele><time>2026-04-28T10:03:48.327Z</time></trkpt><trkpt lat="43.9151587" lon="16.7831755"><ele>703.0</ele><time>2026-04-28T10:03:49.327Z</time></trkpt><trkpt lat="43.9150537" lon="16.7831572"><ele>703.0</ele><time>2026-04-28T10:03:50.326Z</time></trkpt><trkpt lat="43.9149593" lon="16.7831447"><ele>702.8333333333334</ele><time>2026-04-28T10:03:51.327Z</time></trkpt><trkpt lat="43.9148821" lon="16.7831393"><ele>702.6666666666667</ele><time>2026-04-28T10:03:52.327Z</time></trkpt><trkpt lat="43.9147737" lon="16.7831325"><ele>702.5</ele><time>2026-04-28T10:03:54.327Z</time></trkpt><trkpt lat="43.9147073" lon="16.783121"><ele>702.3333333333334</ele><time>2026-04-28T10:03:57.327Z</time></trkpt><trkpt lat="43.9146449" lon="16.7830914"><ele>702.1666666666666</ele><time>2026-04-28T10:06:51.326Z</time></trkpt><trkpt lat="43.914578" lon="16.7830564"><ele>702.0</ele><time>2026-04-28T10:06:53.326Z</time></trkpt><trkpt lat="43.9145024" lon="16.7830266"><ele>702.0</ele><time>2026-04-28T10:06:56.327Z</time></trkpt><trkpt lat="43.9144117" lon="16.7830266"><ele>702.0</ele><time>2026-04-28T10:06:59.326Z</time></trkpt><trkpt lat="43.914344" lon="16.7830384"><ele>702.0</ele><time>2026-04-28T10:07:02.327Z</time></trkpt><trkpt lat="43.9142658" lon="16.7829903"><ele>702.0</ele><time>2026-04-28T10:07:09.326Z</time></trkpt><trkpt lat="43.9142379" lon="16.7830771"><ele>702.0</ele><time>2026-04-28T10:07:12.326Z</time></trkpt><trkpt lat="43.9143204" lon="16.7831066"><ele>702.0</ele><time>2026-04-28T10:07:15.327Z</time></trkpt><trkpt lat="43.9144087" lon="16.7830476"><ele>702.0</ele><time>2026-04-28T10:09:50.326Z</time></trkpt><trkpt lat="43.914491" lon="16.7830387"><ele>702.0</ele><time>2026-04-28T10:09:52.326Z</time></trkpt><trkpt lat="43.9145631" lon="16.7830564"><ele>702.0</ele><time>2026-04-28T10:09:54.327Z</time></trkpt><trkpt lat="43.9146442" lon="16.7830944"><ele>702.0</ele><time>2026-04-28T10:09:56.326Z</time></trkpt><trkpt lat="43.9147452" lon="16.783133"><ele>702.0</ele><time>2026-04-28T10:09:58.327Z</time></trkpt><trkpt lat="43.9148519" lon="16.7831385"><ele>702.0</ele><time>2026-04-28T10:10:00.327Z</time></trkpt><trkpt lat="43.9149506" lon="16.7831443"><ele>702.0</ele><time>2026-04-28T10:10:02.326Z</time></trkpt><trkpt lat="43.9150657" lon="16.7831568"><ele>702.0</ele><time>2026-04-28T10:10:04.326Z</time></trkpt><trkpt lat="43.9151625" lon="16.7831755"><ele>702.0</ele><time>2026-04-28T10:10:06.326Z</time></trkpt><trkpt lat="43.9152252" lon="16.783188"><ele>702.0</ele><time>2026-04-28T10:10:33.327Z</time></trkpt><trkpt lat="43.9153004" lon="16.7832188"><ele>702.0</ele><time>2026-04-28T10:10:37.326Z</time></trkpt><trkpt lat="43.9152195" lon="16.7832026"><ele>702.0</ele><time>2026-04-28T10:10:59.327Z</time></trkpt><trkpt lat="43.915123" lon="16.7831753"><ele>702.0</ele><time>2026-04-28T10:11:01.327Z</time></trkpt><trkpt lat="43.9150489" lon="16.7831599"><ele>702.0</ele><time>2026-04-28T10:11:02.327Z</time></trkpt><trkpt lat="43.914971" lon="16.7831488"><ele>702.0</ele><time>2026-04-28T10:11:03.326Z</time></trkpt><trkpt lat="43.9148899" lon="16.7831379"><ele>702.0</ele><time>2026-04-28T10:11:04.326Z</time></trkpt><trkpt lat="43.9148158" lon="16.7831371"><ele>702.0</ele><time>2026-04-28T10:11:05.326Z</time></trkpt><trkpt lat="43.9147501" lon="16.7831316"><ele>702.0</ele><time>2026-04-28T10:11:06.326Z</time></trkpt><trkpt lat="43.9146363" lon="16.7830901"><ele>702.0</ele><time>2026-04-28T10:11:08.327Z</time></trkpt><trkpt lat="43.9145573" lon="16.7830555"><ele>702.0</ele><time>2026-04-28T10:11:10.326Z</time></trkpt><trkpt lat="43.9144822" lon="16.7830357"><ele>702.0</ele><time>2026-04-28T10:11:12.327Z</time></trkpt><trkpt lat="43.9144125" lon="16.783047"><ele>702.0</ele><time>2026-04-28T10:11:14.326Z</time></trkpt><trkpt lat="43.9143276" lon="16.7830453"><ele>702.0</ele><time>2026-04-28T10:11:16.326Z</time></trkpt><trkpt lat="43.9142637" lon="16.7829548"><ele>702.0</ele><time>2026-04-28T10:11:19.327Z</time></trkpt><trkpt lat="43.9141742" lon="16.7829105"><ele>702.0</ele><time>2026-04-28T10:22:30.326Z</time></trkpt><trkpt lat="43.9140687" lon="16.7828609"><ele>702.0</ele><time>2026-04-28T10:22:32.326Z</time></trkpt><trkpt lat="43.9140026" lon="16.7828319"><ele>702.0</ele><time>2026-04-28T10:22:33.326Z</time></trkpt><trkpt lat="43.9138856" lon="16.7828028"><ele>702.0</ele><time>2026-04-28T10:22:35.327Z</time></trkpt><trkpt lat="43.9138177" lon="16.7827963"><ele>702.0</ele><time>2026-04-28T10:22:36.327Z</time></trkpt><trkpt lat="43.9137398" lon="16.7827852"><ele>702.0</ele><time>2026-04-28T10:22:37.326Z</time></trkpt><trkpt lat="43.913652" lon="16.7827752"><ele>702.0</ele><time>2026-04-28T10:22:38.327Z</time></trkpt><trkpt lat="43.9135602" lon="16.7827747"><ele>702.0</ele><time>2026-04-28T10:22:39.327Z</time></trkpt><trkpt lat="43.9134565" lon="16.7827788"><ele>702.0</ele><time>2026-04-28T10:22:40.327Z</time></trkpt><trkpt lat="43.9133538" lon="16.7827831"><ele>702.0</ele><time>2026-04-28T10:22:41.326Z</time></trkpt><trkpt lat="43.9132506" lon="16.7827866"><ele>702.0</ele><time>2026-04-28T10:22:42.326Z</time></trkpt><trkpt lat="43.9131432" lon="16.7827785"><ele>702.0</ele><time>2026-04-28T10:22:43.327Z</time></trkpt><trkpt lat="43.9130366" lon="16.7827564"><ele>702.0</ele><time>2026-04-28T10:22:44.327Z</time></trkpt><trkpt lat="43.9129319" lon="16.7827061"><ele>702.0</ele><time>2026-04-28T10:22:45.326Z</time></trkpt><trkpt lat="43.9128286" lon="16.7826281"><ele>701.75</ele><time>2026-04-28T10:22:46.327Z</time></trkpt><trkpt lat="43.912738" lon="16.7825327"><ele>701.5</ele><time>2026-04-28T10:22:47.327Z</time></trkpt><trkpt lat="43.9126466" lon="16.7824406"><ele>701.25</ele><time>2026-04-28T10:22:48.327Z</time></trkpt><trkpt lat="43.912544" lon="16.7823682"><ele>701.0</ele><time>2026-04-28T10:22:49.327Z</time></trkpt><trkpt lat="43.9124474" lon="16.7822937"><ele>701.0</ele><time>2026-04-28T10:22:50.327Z</time></trkpt><trkpt lat="43.9123493" lon="16.7822214"><ele>701.0</ele><time>2026-04-28T10:22:51.326Z</time></trkpt><trkpt lat="43.9122783" lon="16.7821443"><ele>701.0</ele><time>2026-04-28T10:22:52.327Z</time></trkpt><trkpt lat="43.9122277" lon="16.7820529"><ele>701.0</ele><time>2026-04-28T10:22:53.327Z</time></trkpt><trkpt lat="43.9121882" lon="16.7819542"><ele>701.0</ele><time>2026-04-28T10:22:54.327Z</time></trkpt><trkpt lat="43.9121492" lon="16.7818561"><ele>701.0</ele><time>2026-04-28T10:22:55.327Z</time></trkpt><trkpt lat="43.9120943" lon="16.7817562"><ele>701.0</ele><time>2026-04-28T10:22:56.326Z</time></trkpt><trkpt lat="43.912026" lon="16.7816659"><ele>701.0</ele><time>2026-04-28T10:22:57.326Z</time></trkpt><trkpt lat="43.9119386" lon="16.7815803"><ele>701.0</ele><time>2026-04-28T10:22:58.327Z</time></trkpt><trkpt lat="43.9118437" lon="16.7814877"><ele>701.0</ele><time>2026-04-28T10:22:59.327Z</time></trkpt><trkpt lat="43.9117404" lon="16.7814153"><ele>701.0</ele><time>2026-04-28T10:23:00.326Z</time></trkpt><trkpt lat="43.911638" lon="16.7813689"><ele>701.0</ele><time>2026-04-28T10:23:01.326Z</time></trkpt><trkpt lat="43.9115332" lon="16.7813146"><ele>701.0</ele><time>2026-04-28T10:23:02.327Z</time></trkpt><trkpt lat="43.9114268" lon="16.7812624"><ele>701.0</ele><time>2026-04-28T10:23:03.327Z</time></trkpt><trkpt lat="43.9113227" lon="16.7812118"><ele>701.0</ele><time>2026-04-28T10:23:04.327Z</time></trkpt><trkpt lat="43.9112299" lon="16.7811704"><ele>701.0</ele><time>2026-04-28T10:23:05.326Z</time></trkpt><trkpt lat="43.9111346" lon="16.7811209"><ele>701.0</ele><time>2026-04-28T10:23:06.326Z</time></trkpt><trkpt lat="43.9110393" lon="16.7810703"><ele>701.0</ele><time>2026-04-28T10:23:07.326Z</time></trkpt><trkpt lat="43.9109447" lon="16.7810221"><ele>701.0</ele><time>2026-04-28T10:23:08.326Z</time></trkpt><trkpt lat="43.9108432" lon="16.7809763"><ele>701.0</ele><time>2026-04-28T10:23:09.326Z</time></trkpt><trkpt lat="43.9107547" lon="16.7809357"><ele>701.0</ele><time>2026-04-28T10:23:10.326Z</time></trkpt><trkpt lat="43.9106675" lon="16.7808983"><ele>701.1999999999999</ele><time>2026-04-28T10:23:11.326Z</time></trkpt><trkpt lat="43.9105781" lon="16.7808552"><ele>701.4</ele><time>2026-04-28T10:23:12.326Z</time></trkpt><trkpt lat="43.9104843" lon="16.7808066"><ele>701.6</ele><time>2026-04-28T10:23:13.327Z</time></trkpt><trkpt lat="43.9103894" lon="16.7807579"><ele>701.8</ele><time>2026-04-28T10:23:14.327Z</time></trkpt><trkpt lat="43.910295" lon="16.7807119"><ele>702.0</ele><time>2026-04-28T10:23:15.326Z</time></trkpt><trkpt lat="43.9102038" lon="16.7806679"><ele>702.0</ele><time>2026-04-28T10:23:16.326Z</time></trkpt><trkpt lat="43.9101109" lon="16.7806205"><ele>702.0</ele><time>2026-04-28T10:23:17.326Z</time></trkpt><trkpt lat="43.9100213" lon="16.7805764"><ele>702.0</ele><time>2026-04-28T10:23:18.327Z</time></trkpt><trkpt lat="43.9099308" lon="16.780536"><ele>702.0</ele><time>2026-04-28T10:23:19.326Z</time></trkpt><trkpt lat="43.9098429" lon="16.780495"><ele>702.0</ele><time>2026-04-28T10:23:20.326Z</time></trkpt><trkpt lat="43.9097503" lon="16.780453"><ele>702.0</ele><time>2026-04-28T10:23:21.327Z</time></trkpt><trkpt lat="43.9096557" lon="16.7804134"><ele>702.0</ele><time>2026-04-28T10:23:22.327Z</time></trkpt><trkpt lat="43.9095635" lon="16.7803721"><ele>702.0</ele><time>2026-04-28T10:23:23.327Z</time></trkpt><trkpt lat="43.909472" lon="16.7803237"><ele>702.0</ele><time>2026-04-28T10:23:24.327Z</time></trkpt><trkpt lat="43.9093797" lon="16.7802772"><ele>702.0</ele><time>2026-04-28T10:23:25.327Z</time></trkpt><trkpt lat="43.9092888" lon="16.780231"><ele>702.0</ele><time>2026-04-28T10:23:26.326Z</time></trkpt><trkpt lat="43.9091993" lon="16.7801857"><ele>702.0</ele><time>2026-04-28T10:23:27.327Z</time></trkpt><trkpt lat="43.9091073" lon="16.7801415"><ele>702.0</ele><time>2026-04-28T10:23:28.326Z</time></trkpt><trkpt lat="43.9090197" lon="16.7800955"><ele>702.0</ele><time>2026-04-28T10:23:29.326Z</time></trkpt><trkpt lat="43.9089364" lon="16.7800498"><ele>702.0</ele><time>2026-04-28T10:23:30.326Z</time></trkpt><trkpt lat="43.9088554" lon="16.7800074"><ele>702.0</ele><time>2026-04-28T10:23:31.327Z</time></trkpt><trkpt lat="43.9087653" lon="16.7799608"><ele>702.0</ele><time>2026-04-28T10:23:32.327Z</time></trkpt><trkpt lat="43.9086715" lon="16.7799172"><ele>702.0</ele><time>2026-04-28T10:23:33.326Z</time></trkpt><trkpt lat="43.9085845" lon="16.7798723"><ele>702.0</ele><time>2026-04-28T10:23:34.327Z</time></trkpt><trkpt lat="43.9084969" lon="16.7798344"><ele>702.0</ele><time>2026-04-28T10:23:35.326Z</time></trkpt><trkpt lat="43.9084067" lon="16.7797901"><ele>701.5</ele><time>2026-04-28T10:23:36.327Z</time></trkpt><trkpt lat="43.9083187" lon="16.7797477"><ele>701.0</ele><time>2026-04-28T10:23:37.326Z</time></trkpt><trkpt lat="43.9082335" lon="16.7797076"><ele>700.5</ele><time>2026-04-28T10:23:38.327Z</time></trkpt><trkpt lat="43.9081525" lon="16.7796782"><ele>700.0</ele><time>2026-04-28T10:23:39.327Z</time></trkpt><trkpt lat="43.9080682" lon="16.7796586"><ele>699.5</ele><time>2026-04-28T10:23:40.326Z</time></trkpt><trkpt lat="43.9079849" lon="16.779643"><ele>699.0</ele><time>2026-04-28T10:23:41.326Z</time></trkpt><trkpt lat="43.9079052" lon="16.7796187"><ele>699.0</ele><time>2026-04-28T10:23:42.327Z</time></trkpt><trkpt lat="43.9078328" lon="16.7795972"><ele>699.0</ele><time>2026-04-28T10:23:43.326Z</time></trkpt><trkpt lat="43.9077184" lon="16.7795578"><ele>699.0</ele><time>2026-04-28T10:23:45.326Z</time></trkpt><trkpt lat="43.90762" lon="16.7795131"><ele>699.0</ele><time>2026-04-28T10:23:47.326Z</time></trkpt><trkpt lat="43.9075543" lon="16.7794637"><ele>699.0</ele><time>2026-04-28T10:23:49.326Z</time></trkpt><trkpt lat="43.9074793" lon="16.7794184"><ele>699.2</ele><time>2026-04-28T10:23:51.327Z</time></trkpt><trkpt lat="43.9073555" lon="16.7793668"><ele>699.4000000000001</ele><time>2026-04-28T10:23:53.327Z</time></trkpt><trkpt lat="43.9072769" lon="16.7793351"><ele>699.6</ele><time>2026-04-28T10:23:54.327Z</time></trkpt><trkpt lat="43.9071975" lon="16.7793"><ele>699.8</ele><time>2026-04-28T10:23:55.326Z</time></trkpt><trkpt lat="43.9071181" lon="16.7792572"><ele>700.0</ele><time>2026-04-28T10:23:56.327Z</time></trkpt><trkpt lat="43.9070489" lon="16.7792134"><ele>700.0</ele><time>2026-04-28T10:23:57.326Z</time></trkpt><trkpt lat="43.9069908" lon="16.7791662"><ele>700.0</ele><time>2026-04-28T10:23:58.327Z</time></trkpt><trkpt lat="43.9069347" lon="16.7791102"><ele>700.0</ele><time>2026-04-28T10:23:59.326Z</time></trkpt><trkpt lat="43.9068773" lon="16.7790456"><ele>700.0</ele><time>2026-04-28T10:24:00.326Z</time></trkpt><trkpt lat="43.9068072" lon="16.7789942"><ele>700.0</ele><time>2026-04-28T10:24:01.327Z</time></trkpt><trkpt lat="43.9067252" lon="16.7789474"><ele>700.0</ele><time>2026-04-28T10:24:02.326Z</time></trkpt><trkpt lat="43.9066454" lon="16.7789081"><ele>700.3333333333334</ele><time>2026-04-28T10:24:03.326Z</time></trkpt><trkpt lat="43.9065735" lon="16.7788797"><ele>700.6666666666667</ele><time>2026-04-28T10:24:04.326Z</time></trkpt><trkpt lat="43.9064995" lon="16.7788464"><ele>701.0</ele><time>2026-04-28T10:24:05.326Z</time></trkpt><trkpt lat="43.9064157" lon="16.7788031"><ele>701.3333333333334</ele><time>2026-04-28T10:24:06.326Z</time></trkpt><trkpt lat="43.9063344" lon="16.7787623"><ele>701.6666666666666</ele><time>2026-04-28T10:24:07.326Z</time></trkpt><trkpt lat="43.9062481" lon="16.7787194"><ele>702.0</ele><time>2026-04-28T10:24:08.326Z</time></trkpt><trkpt lat="43.9061683" lon="16.7786754"><ele>702.0</ele><time>2026-04-28T10:24:09.326Z</time></trkpt><trkpt lat="43.9060847" lon="16.7786322"><ele>702.0</ele><time>2026-04-28T10:24:10.326Z</time></trkpt><trkpt lat="43.9059989" lon="16.77859"><ele>702.0</ele><time>2026-04-28T10:24:11.327Z</time></trkpt><trkpt lat="43.905912" lon="16.7785549"><ele>702.0</ele><time>2026-04-28T10:24:12.327Z</time></trkpt><trkpt lat="43.9058224" lon="16.7785189"><ele>702.0</ele><time>2026-04-28T10:24:13.326Z</time></trkpt><trkpt lat="43.9057352" lon="16.7784758"><ele>702.1666666666666</ele><time>2026-04-28T10:24:14.326Z</time></trkpt><trkpt lat="43.9056511" lon="16.7784394"><ele>702.3333333333334</ele><time>2026-04-28T10:24:15.326Z</time></trkpt><trkpt lat="43.9055736" lon="16.7784049"><ele>702.5</ele><time>2026-04-28T10:24:16.326Z</time></trkpt><trkpt lat="43.9054945" lon="16.7783607"><ele>702.6666666666667</ele><time>2026-04-28T10:24:17.327Z</time></trkpt><trkpt lat="43.9054166" lon="16.7783139"><ele>702.8333333333334</ele><time>2026-04-28T10:24:18.326Z</time></trkpt><trkpt lat="43.9053377" lon="16.7782661"><ele>703.0</ele><time>2026-04-28T10:24:19.327Z</time></trkpt><trkpt lat="43.9052538" lon="16.7782265"><ele>703.0</ele><time>2026-04-28T10:24:20.326Z</time></trkpt><trkpt lat="43.9051671" lon="16.778188"><ele>703.0</ele><time>2026-04-28T10:24:21.326Z</time></trkpt><trkpt lat="43.9050767" lon="16.77815"><ele>703.0</ele><time>2026-04-28T10:24:22.327Z</time></trkpt><trkpt lat="43.9049843" lon="16.7781082"><ele>703.0</ele><time>2026-04-28T10:24:23.326Z</time></trkpt><trkpt lat="43.9048952" lon="16.7780644"><ele>703.0</ele><time>2026-04-28T10:24:24.326Z</time></trkpt><trkpt lat="43.9048079" lon="16.7780266"><ele>703.0</ele><time>2026-04-28T10:24:25.326Z</time></trkpt><trkpt lat="43.9047226" lon="16.7779853"><ele>703.0</ele><time>2026-04-28T10:24:26.326Z</time></trkpt><trkpt lat="43.9046306" lon="16.7779367"><ele>703.0</ele><time>2026-04-28T10:24:27.326Z</time></trkpt><trkpt lat="43.9045367" lon="16.7778901"><ele>703.0</ele><time>2026-04-28T10:24:28.326Z</time></trkpt><trkpt lat="43.9044332" lon="16.7778407"><ele>703.0</ele><time>2026-04-28T10:24:29.326Z</time></trkpt><trkpt lat="43.9043338" lon="16.7777925"><ele>702.8</ele><time>2026-04-28T10:24:30.326Z</time></trkpt><trkpt lat="43.9042324" lon="16.7777472"><ele>702.5999999999999</ele><time>2026-04-28T10:24:31.326Z</time></trkpt><trkpt lat="43.9041333" lon="16.7776992"><ele>702.4000000000001</ele><time>2026-04-28T10:24:32.326Z</time></trkpt><trkpt lat="43.9040356" lon="16.7776516"><ele>702.2</ele><time>2026-04-28T10:24:33.326Z</time></trkpt><trkpt lat="43.9039397" lon="16.7776048"><ele>702.0</ele><time>2026-04-28T10:24:34.326Z</time></trkpt><trkpt lat="43.9038441" lon="16.7775555"><ele>702.0</ele><time>2026-04-28T10:24:35.326Z</time></trkpt><trkpt lat="43.903751" lon="16.7775079"><ele>702.0</ele><time>2026-04-28T10:24:36.327Z</time></trkpt><trkpt lat="43.9036577" lon="16.7774564"><ele>702.0</ele><time>2026-04-28T10:24:37.326Z</time></trkpt><trkpt lat="43.9035655" lon="16.7774064"><ele>702.0</ele><time>2026-04-28T10:24:38.327Z</time></trkpt><trkpt lat="43.9034723" lon="16.7773579"><ele>702.0</ele><time>2026-04-28T10:24:39.327Z</time></trkpt><trkpt lat="43.9033764" lon="16.7773097"><ele>702.0</ele><time>2026-04-28T10:24:40.326Z</time></trkpt><trkpt lat="43.9032766" lon="16.777255"><ele>702.0</ele><time>2026-04-28T10:24:41.326Z</time></trkpt><trkpt lat="43.903179" lon="16.777206"><ele>702.0</ele><time>2026-04-28T10:24:42.326Z</time></trkpt><trkpt lat="43.903077" lon="16.7771544"><ele>702.0</ele><time>2026-04-28T10:24:43.326Z</time></trkpt><trkpt lat="43.9029753" lon="16.7771073"><ele>702.0</ele><time>2026-04-28T10:24:44.327Z</time></trkpt><trkpt lat="43.9028694" lon="16.7770576"><ele>702.0</ele><time>2026-04-28T10:24:45.327Z</time></trkpt><trkpt lat="43.9027641" lon="16.7770033"><ele>702.0</ele><time>2026-04-28T10:24:46.326Z</time></trkpt><trkpt lat="43.9026601" lon="16.7769483"><ele>702.0</ele><time>2026-04-28T10:24:47.327Z</time></trkpt><trkpt lat="43.9025527" lon="16.7768965"><ele>702.0</ele><time>2026-04-28T10:24:48.326Z</time></trkpt><trkpt lat="43.9024468" lon="16.7768396"><ele>702.25</ele><time>2026-04-28T10:24:49.327Z</time></trkpt><trkpt lat="43.9023395" lon="16.7767801"><ele>702.5</ele><time>2026-04-28T10:24:50.326Z</time></trkpt><trkpt lat="43.9022339" lon="16.7767263"><ele>702.75</ele><time>2026-04-28T10:24:51.326Z</time></trkpt><trkpt lat="43.9021268" lon="16.7766774"><ele>703.0</ele><time>2026-04-28T10:24:52.326Z</time></trkpt><trkpt lat="43.9020186" lon="16.7766259"><ele>703.0</ele><time>2026-04-28T10:24:53.326Z</time></trkpt><trkpt lat="43.9019176" lon="16.7765741"><ele>703.0</ele><time>2026-04-28T10:24:54.326Z</time></trkpt><trkpt lat="43.9018135" lon="16.7765247"><ele>703.0</ele><time>2026-04-28T10:24:55.326Z</time></trkpt><trkpt lat="43.9017132" lon="16.7764785"><ele>703.0</ele><time>2026-04-28T10:24:56.326Z</time></trkpt><trkpt lat="43.9016101" lon="16.7764377"><ele>703.0</ele><time>2026-04-28T10:24:57.327Z</time></trkpt><trkpt lat="43.901507" lon="16.7763934"><ele>702.75</ele><time>2026-04-28T10:24:58.327Z</time></trkpt><trkpt lat="43.9014039" lon="16.7763383"><ele>702.5</ele><time>2026-04-28T10:24:59.326Z</time></trkpt><trkpt lat="43.9013011" lon="16.7762752"><ele>702.25</ele><time>2026-04-28T10:25:00.326Z</time></trkpt><trkpt lat="43.9011926" lon="16.7762201"><ele>702.0</ele><time>2026-04-28T10:25:01.327Z</time></trkpt><trkpt lat="43.9010822" lon="16.7761697"><ele>702.0</ele><time>2026-04-28T10:25:02.327Z</time></trkpt><trkpt lat="43.900973" lon="16.7761132"><ele>702.0</ele><time>2026-04-28T10:25:03.326Z</time></trkpt><trkpt lat="43.9008731" lon="16.7760557"><ele>702.0</ele><time>2026-04-28T10:25:04.327Z</time></trkpt><trkpt lat="43.9007774" lon="16.7759951"><ele>702.0</ele><time>2026-04-28T10:25:05.326Z</time></trkpt><trkpt lat="43.9006793" lon="16.7759332"><ele>702.0</ele><time>2026-04-28T10:25:06.326Z</time></trkpt><trkpt lat="43.9005908" lon="16.7758818"><ele>702.4000000000001</ele><time>2026-04-28T10:25:07.326Z</time></trkpt><trkpt lat="43.900503" lon="16.7758408"><ele>702.8000000000001</ele><time>2026-04-28T10:25:08.326Z</time></trkpt><trkpt lat="43.9004111" lon="16.7757986"><ele>703.2</ele><time>2026-04-28T10:25:09.326Z</time></trkpt><trkpt lat="43.9003151" lon="16.7757565"><ele>703.6</ele><time>2026-04-28T10:25:10.326Z</time></trkpt><trkpt lat="43.9002133" lon="16.7757187"><ele>704.0</ele><time>2026-04-28T10:25:11.327Z</time></trkpt><trkpt lat="43.9001073" lon="16.7756756"><ele>703.25</ele><time>2026-04-28T10:25:12.326Z</time></trkpt><trkpt lat="43.9000005" lon="16.7756342"><ele>702.5</ele><time>2026-04-28T10:25:13.326Z</time></trkpt><trkpt lat="43.8998834" lon="16.7755879"><ele>701.75</ele><time>2026-04-28T10:25:14.326Z</time></trkpt><trkpt lat="43.8997715" lon="16.7755334"><ele>701.0</ele><time>2026-04-28T10:25:15.326Z</time></trkpt><trkpt lat="43.8996749" lon="16.7754829"><ele>701.0</ele><time>2026-04-28T10:25:16.327Z</time></trkpt><trkpt lat="43.8995777" lon="16.7754336"><ele>701.0</ele><time>2026-04-28T10:25:17.326Z</time></trkpt><trkpt lat="43.8994727" lon="16.7753816"><ele>701.0</ele><time>2026-04-28T10:25:18.326Z</time></trkpt><trkpt lat="43.8993695" lon="16.7753283"><ele>701.0</ele><time>2026-04-28T10:25:19.326Z</time></trkpt><trkpt lat="43.8992707" lon="16.7752729"><ele>701.0</ele><time>2026-04-28T10:25:20.326Z</time></trkpt><trkpt lat="43.8991745" lon="16.7752169"><ele>701.5999999999999</ele><time>2026-04-28T10:25:21.327Z</time></trkpt><trkpt lat="43.8990815" lon="16.7751659"><ele>702.2</ele><time>2026-04-28T10:25:22.327Z</time></trkpt><trkpt lat="43.898988" lon="16.7751164"><ele>702.8</ele><time>2026-04-28T10:25:23.326Z</time></trkpt><trkpt lat="43.8988963" lon="16.7750685"><ele>703.4000000000001</ele><time>2026-04-28T10:25:24.326Z</time></trkpt><trkpt lat="43.8988126" lon="16.7750278"><ele>704.0</ele><time>2026-04-28T10:25:25.327Z</time></trkpt><trkpt lat="43.8987314" lon="16.7749874"><ele>704.0</ele><time>2026-04-28T10:25:26.326Z</time></trkpt><trkpt lat="43.898648" lon="16.7749413"><ele>704.0</ele><time>2026-04-28T10:25:27.327Z</time></trkpt><trkpt lat="43.8985597" lon="16.7748924"><ele>704.0</ele><time>2026-04-28T10:25:28.326Z</time></trkpt><trkpt lat="43.89847" lon="16.774847"><ele>704.0</ele><time>2026-04-28T10:25:29.326Z</time></trkpt><trkpt lat="43.8983781" lon="16.7747979"><ele>704.0</ele><time>2026-04-28T10:25:30.326Z</time></trkpt><trkpt lat="43.8982828" lon="16.7747508"><ele>703.6</ele><time>2026-04-28T10:25:31.327Z</time></trkpt><trkpt lat="43.8981928" lon="16.7747078"><ele>703.2</ele><time>2026-04-28T10:25:32.326Z</time></trkpt><trkpt lat="43.8980964" lon="16.7746713"><ele>702.8000000000001</ele><time>2026-04-28T10:25:33.326Z</time></trkpt><trkpt lat="43.8980101" lon="16.7746256"><ele>702.4000000000001</ele><time>2026-04-28T10:25:34.326Z</time></trkpt><trkpt lat="43.8979155" lon="16.7745846"><ele>702.0</ele><time>2026-04-28T10:25:35.326Z</time></trkpt><trkpt lat="43.8978252" lon="16.7745505"><ele>702.0</ele><time>2026-04-28T10:25:36.327Z</time></trkpt><trkpt lat="43.897738" lon="16.7745133"><ele>702.0</ele><time>2026-04-28T10:25:37.327Z</time></trkpt><trkpt lat="43.8976453" lon="16.7744793"><ele>702.0</ele><time>2026-04-28T10:25:38.326Z</time></trkpt><trkpt lat="43.8975538" lon="16.7744448"><ele>702.0</ele><time>2026-04-28T10:25:39.326Z</time></trkpt><trkpt lat="43.897459" lon="16.774416"><ele>702.0</ele><time>2026-04-28T10:25:40.326Z</time></trkpt><trkpt lat="43.8973644" lon="16.7743815"><ele>702.0</ele><time>2026-04-28T10:25:41.326Z</time></trkpt><trkpt lat="43.8972705" lon="16.7743446"><ele>702.0</ele><time>2026-04-28T10:25:42.326Z</time></trkpt><trkpt lat="43.8971797" lon="16.7743041"><ele>702.0</ele><time>2026-04-28T10:25:43.326Z</time></trkpt><trkpt lat="43.8970903" lon="16.7742661"><ele>702.0</ele><time>2026-04-28T10:25:44.326Z</time></trkpt><trkpt lat="43.8969942" lon="16.7742266"><ele>702.0</ele><time>2026-04-28T10:25:45.326Z</time></trkpt><trkpt lat="43.8969005" lon="16.7741817"><ele>702.0</ele><time>2026-04-28T10:25:46.326Z</time></trkpt><trkpt lat="43.8968145" lon="16.7741377"><ele>702.0</ele><time>2026-04-28T10:25:47.327Z</time></trkpt><trkpt lat="43.8967302" lon="16.7740935"><ele>702.0</ele><time>2026-04-28T10:25:48.326Z</time></trkpt><trkpt lat="43.8966409" lon="16.7740515"><ele>702.0</ele><time>2026-04-28T10:25:49.327Z</time></trkpt><trkpt lat="43.8965515" lon="16.7740067"><ele>702.0</ele><time>2026-04-28T10:25:50.326Z</time></trkpt><trkpt lat="43.8964634" lon="16.7739612"><ele>702.4000000000001</ele><time>2026-04-28T10:25:51.327Z</time></trkpt><trkpt lat="43.8963773" lon="16.7739184"><ele>702.8000000000001</ele><time>2026-04-28T10:25:52.326Z</time></trkpt><trkpt lat="43.8962862" lon="16.7738674"><ele>703.2</ele><time>2026-04-28T10:25:53.326Z</time></trkpt><trkpt lat="43.8961951" lon="16.7738237"><ele>703.6</ele><time>2026-04-28T10:25:54.327Z</time></trkpt><trkpt lat="43.8960997" lon="16.7737752"><ele>704.0</ele><time>2026-04-28T10:25:55.327Z</time></trkpt><trkpt lat="43.8960043" lon="16.7737281"><ele>704.1666666666666</ele><time>2026-04-28T10:25:56.327Z</time></trkpt><trkpt lat="43.8959125" lon="16.7736828"><ele>704.3333333333333</ele><time>2026-04-28T10:25:57.327Z</time></trkpt><trkpt lat="43.8958314" lon="16.7736505"><ele>704.5</ele><time>2026-04-28T10:25:58.327Z</time></trkpt><trkpt lat="43.8957506" lon="16.7736158"><ele>704.6666666666666</ele><time>2026-04-28T10:25:59.327Z</time></trkpt><trkpt lat="43.8956693" lon="16.7735777"><ele>704.8333333333334</ele><time>2026-04-28T10:26:00.326Z</time></trkpt><trkpt lat="43.8955984" lon="16.773551"><ele>705.0</ele><time>2026-04-28T10:26:01.326Z</time></trkpt><trkpt lat="43.8955337" lon="16.7735308"><ele>705.2</ele><time>2026-04-28T10:26:02.326Z</time></trkpt><trkpt lat="43.8954553" lon="16.7735052"><ele>705.4</ele><time>2026-04-28T10:26:04.326Z</time></trkpt><trkpt lat="43.8954103" lon="16.7734349"><ele>705.5999999999999</ele><time>2026-04-28T10:26:08.326Z</time></trkpt><trkpt lat="43.8954306" lon="16.7732883"><ele>705.8</ele><time>2026-04-28T10:26:10.326Z</time></trkpt><trkpt lat="43.8954497" lon="16.7731193"><ele>706.0</ele><time>2026-04-28T10:26:12.326Z</time></trkpt><trkpt lat="43.895466" lon="16.773007"><ele>706.0</ele><time>2026-04-28T10:26:13.326Z</time></trkpt><trkpt lat="43.8954879" lon="16.7728825"><ele>706.0</ele><time>2026-04-28T10:26:14.326Z</time></trkpt><trkpt lat="43.8955179" lon="16.7727513"><ele>706.0</ele><time>2026-04-28T10:26:15.326Z</time></trkpt><trkpt lat="43.8955552" lon="16.7726206"><ele>706.0</ele><time>2026-04-28T10:26:16.326Z</time></trkpt><trkpt lat="43.8955961" lon="16.7724867"><ele>706.0</ele><time>2026-04-28T10:26:17.327Z</time></trkpt><trkpt lat="43.8956294" lon="16.772358"><ele>706.1999999999999</ele><time>2026-04-28T10:26:18.326Z</time></trkpt><trkpt lat="43.8956613" lon="16.772236"><ele>706.4</ele><time>2026-04-28T10:26:19.327Z</time></trkpt><trkpt lat="43.8956964" lon="16.7721063"><ele>706.6</ele><time>2026-04-28T10:26:20.326Z</time></trkpt><trkpt lat="43.895736" lon="16.7719652"><ele>706.8</ele><time>2026-04-28T10:26:21.326Z</time></trkpt><trkpt lat="43.895768" lon="16.7718212"><ele>707.0</ele><time>2026-04-28T10:26:22.326Z</time></trkpt><trkpt lat="43.895804" lon="16.7716752"><ele>707.0</ele><time>2026-04-28T10:26:23.326Z</time></trkpt><trkpt lat="43.8958472" lon="16.7715436"><ele>707.0</ele><time>2026-04-28T10:26:24.326Z</time></trkpt><trkpt lat="43.8958927" lon="16.7714077"><ele>707.0</ele><time>2026-04-28T10:26:25.327Z</time></trkpt><trkpt lat="43.895931" lon="16.7712883"><ele>707.0</ele><time>2026-04-28T10:26:26.327Z</time></trkpt><trkpt lat="43.8959488" lon="16.7711721"><ele>707.0</ele><time>2026-04-28T10:26:27.327Z</time></trkpt><trkpt lat="43.8959463" lon="16.7710518"><ele>706.8</ele><time>2026-04-28T10:26:28.327Z</time></trkpt><trkpt lat="43.8959311" lon="16.770915"><ele>706.6</ele><time>2026-04-28T10:26:29.326Z</time></trkpt><trkpt lat="43.8959186" lon="16.7707743"><ele>706.4</ele><time>2026-04-28T10:26:30.327Z</time></trkpt><trkpt lat="43.8959049" lon="16.7706245"><ele>706.1999999999999</ele><time>2026-04-28T10:26:31.327Z</time></trkpt><trkpt lat="43.8958725" lon="16.7704877"><ele>706.0</ele><time>2026-04-28T10:26:32.326Z</time></trkpt><trkpt lat="43.8958208" lon="16.7703535"><ele>705.8</ele><time>2026-04-28T10:26:33.327Z</time></trkpt><trkpt lat="43.8957608" lon="16.7702262"><ele>705.5999999999999</ele><time>2026-04-28T10:26:34.326Z</time></trkpt><trkpt lat="43.8957004" lon="16.7701026"><ele>705.4</ele><time>2026-04-28T10:26:35.327Z</time></trkpt><trkpt lat="43.8956397" lon="16.7699739"><ele>705.2</ele><time>2026-04-28T10:26:36.326Z</time></trkpt><trkpt lat="43.8955873" lon="16.7698614"><ele>705.0</ele><time>2026-04-28T10:26:37.326Z</time></trkpt><trkpt lat="43.895529" lon="16.7697564"><ele>704.7142857142857</ele><time>2026-04-28T10:26:38.326Z</time></trkpt><trkpt lat="43.8954801" lon="16.7696723"><ele>704.4285714285714</ele><time>2026-04-28T10:26:39.327Z</time></trkpt><trkpt lat="43.8954276" lon="16.7695961"><ele>704.1428571428571</ele><time>2026-04-28T10:26:40.326Z</time></trkpt><trkpt lat="43.8953765" lon="16.7695275"><ele>703.8571428571429</ele><time>2026-04-28T10:26:41.327Z</time></trkpt><trkpt lat="43.8953206" lon="16.7694602"><ele>703.5714285714286</ele><time>2026-04-28T10:26:42.326Z</time></trkpt><trkpt lat="43.895264" lon="16.7693931"><ele>703.2857142857142</ele><time>2026-04-28T10:26:43.326Z</time></trkpt><trkpt lat="43.8952092" lon="16.7693213"><ele>703.0</ele><time>2026-04-28T10:26:44.326Z</time></trkpt><trkpt lat="43.8951252" lon="16.7692064"><ele>703.0</ele><time>2026-04-28T10:26:46.326Z</time></trkpt><trkpt lat="43.895039" lon="16.7691184"><ele>703.0</ele><time>2026-04-28T10:26:48.326Z</time></trkpt><trkpt lat="43.8949643" lon="16.7690656"><ele>703.0</ele><time>2026-04-28T10:26:50.327Z</time></trkpt><trkpt lat="43.8948762" lon="16.768972"><ele>703.0</ele><time>2026-04-28T10:26:52.326Z</time></trkpt><trkpt lat="43.8948198" lon="16.7689044"><ele>703.0</ele><time>2026-04-28T10:26:53.326Z</time></trkpt><trkpt lat="43.8947562" lon="16.7688299"><ele>703.0</ele><time>2026-04-28T10:26:54.327Z</time></trkpt><trkpt lat="43.8946906" lon="16.7687581"><ele>703.0</ele><time>2026-04-28T10:26:55.326Z</time></trkpt><trkpt lat="43.8946214" lon="16.7686811"><ele>703.0</ele><time>2026-04-28T10:26:56.326Z</time></trkpt><trkpt lat="43.8945431" lon="16.7686042"><ele>703.0</ele><time>2026-04-28T10:26:57.326Z</time></trkpt><trkpt lat="43.8944606" lon="16.7685232"><ele>703.0</ele><time>2026-04-28T10:26:58.327Z</time></trkpt><trkpt lat="43.8943764" lon="16.7684444"><ele>703.0</ele><time>2026-04-28T10:26:59.327Z</time></trkpt><trkpt lat="43.8942951" lon="16.7683579"><ele>703.0</ele><time>2026-04-28T10:27:00.327Z</time></trkpt><trkpt lat="43.8942188" lon="16.7682725"><ele>703.0</ele><time>2026-04-28T10:27:01.327Z</time></trkpt><trkpt lat="43.8941426" lon="16.7681799"><ele>703.0</ele><time>2026-04-28T10:27:02.326Z</time></trkpt><trkpt lat="43.8940691" lon="16.7680909"><ele>703.0</ele><time>2026-04-28T10:27:03.326Z</time></trkpt><trkpt lat="43.893999" lon="16.7680061"><ele>703.0</ele><time>2026-04-28T10:27:04.327Z</time></trkpt><trkpt lat="43.8939287" lon="16.767916"><ele>703.0</ele><time>2026-04-28T10:27:05.326Z</time></trkpt><trkpt lat="43.8938558" lon="16.7678229"><ele>703.0</ele><time>2026-04-28T10:27:06.327Z</time></trkpt><trkpt lat="43.8937864" lon="16.7677418"><ele>703.0</ele><time>2026-04-28T10:27:07.326Z</time></trkpt><trkpt lat="43.8937219" lon="16.7676744"><ele>703.0</ele><time>2026-04-28T10:27:08.326Z</time></trkpt><trkpt lat="43.8936501" lon="16.7676159"><ele>703.0</ele><time>2026-04-28T10:27:09.326Z</time></trkpt><trkpt lat="43.893579" lon="16.7675677"><ele>702.8333333333334</ele><time>2026-04-28T10:27:10.327Z</time></trkpt><trkpt lat="43.893503" lon="16.7675197"><ele>702.6666666666667</ele><time>2026-04-28T10:27:11.326Z</time></trkpt><trkpt lat="43.8934317" lon="16.76746"><ele>702.5</ele><time>2026-04-28T10:27:12.326Z</time></trkpt><trkpt lat="43.8933629" lon="16.7673975"><ele>702.3333333333334</ele><time>2026-04-28T10:27:13.326Z</time></trkpt><trkpt lat="43.8932914" lon="16.76733"><ele>702.1666666666666</ele><time>2026-04-28T10:27:14.326Z</time></trkpt><trkpt lat="43.8932212" lon="16.7672692"><ele>702.0</ele><time>2026-04-28T10:27:15.327Z</time></trkpt><trkpt lat="43.8931497" lon="16.7672311"><ele>701.8333333333334</ele><time>2026-04-28T10:27:16.326Z</time></trkpt><trkpt lat="43.8930871" lon="16.7672031"><ele>701.6666666666666</ele><time>2026-04-28T10:27:17.326Z</time></trkpt><trkpt lat="43.8930248" lon="16.7671819"><ele>701.5</ele><time>2026-04-28T10:27:18.326Z</time></trkpt><trkpt lat="43.8929145" lon="16.7671607"><ele>701.3333333333333</ele><time>2026-04-28T10:27:20.327Z</time></trkpt><trkpt lat="43.8928504" lon="16.7671527"><ele>701.1666666666666</ele><time>2026-04-28T10:27:21.326Z</time></trkpt><trkpt lat="43.8927855" lon="16.7671452"><ele>701.0</ele><time>2026-04-28T10:27:22.326Z</time></trkpt><trkpt lat="43.8926711" lon="16.7671754"><ele>701.1999999999999</ele><time>2026-04-28T10:27:24.327Z</time></trkpt><trkpt lat="43.8925546" lon="16.7671682"><ele>701.4</ele><time>2026-04-28T10:27:26.326Z</time></trkpt><trkpt lat="43.8924398" lon="16.7671413"><ele>701.6</ele><time>2026-04-28T10:27:28.326Z</time></trkpt><trkpt lat="43.8923803" lon="16.7671098"><ele>701.8</ele><time>2026-04-28T10:27:29.326Z</time></trkpt><trkpt lat="43.8923192" lon="16.7670774"><ele>702.0</ele><time>2026-04-28T10:27:30.326Z</time></trkpt><trkpt lat="43.8922193" lon="16.767007"><ele>702.0</ele><time>2026-04-28T10:27:32.326Z</time></trkpt><trkpt lat="43.892128" lon="16.766941"><ele>702.0</ele><time>2026-04-28T10:27:34.326Z</time></trkpt><trkpt lat="43.8920268" lon="16.7668524"><ele>702.0</ele><time>2026-04-28T10:27:36.326Z</time></trkpt><trkpt lat="43.8919497" lon="16.7667507"><ele>702.0</ele><time>2026-04-28T10:27:38.327Z</time></trkpt><trkpt lat="43.8918897" lon="16.7666594"><ele>702.0</ele><time>2026-04-28T10:27:40.327Z</time></trkpt><trkpt lat="43.8918157" lon="16.7665532"><ele>701.8333333333334</ele><time>2026-04-28T10:27:42.326Z</time></trkpt><trkpt lat="43.8917697" lon="16.7664832"><ele>701.6666666666666</ele><time>2026-04-28T10:27:43.326Z</time></trkpt><trkpt lat="43.8917171" lon="16.7664158"><ele>701.5</ele><time>2026-04-28T10:27:44.326Z</time></trkpt><trkpt lat="43.8916629" lon="16.7663462"><ele>701.3333333333333</ele><time>2026-04-28T10:27:45.326Z</time></trkpt><trkpt lat="43.8916073" lon="16.7662864"><ele>701.1666666666666</ele><time>2026-04-28T10:27:46.326Z</time></trkpt><trkpt lat="43.8914974" lon="16.7661752"><ele>701.0</ele><time>2026-04-28T10:27:48.326Z</time></trkpt><trkpt lat="43.8914308" lon="16.7661241"><ele>701.1666666666666</ele><time>2026-04-28T10:27:49.326Z</time></trkpt><trkpt lat="43.8913512" lon="16.7660757"><ele>701.3333333333333</ele><time>2026-04-28T10:27:50.327Z</time></trkpt><trkpt lat="43.8912698" lon="16.7660215"><ele>701.5</ele><time>2026-04-28T10:27:51.326Z</time></trkpt><trkpt lat="43.8911887" lon="16.7659742"><ele>701.6666666666666</ele><time>2026-04-28T10:27:52.326Z</time></trkpt><trkpt lat="43.8911092" lon="16.7659188"><ele>701.8333333333334</ele><time>2026-04-28T10:27:53.326Z</time></trkpt><trkpt lat="43.8910311" lon="16.7658655"><ele>702.0</ele><time>2026-04-28T10:27:54.327Z</time></trkpt><trkpt lat="43.8909553" lon="16.7658164"><ele>702.1428571428572</ele><time>2026-04-28T10:27:55.326Z</time></trkpt><trkpt lat="43.8908935" lon="16.7657695"><ele>702.2857142857143</ele><time>2026-04-28T10:27:56.326Z</time></trkpt><trkpt lat="43.8908273" lon="16.765727"><ele>702.4285714285714</ele><time>2026-04-28T10:27:57.327Z</time></trkpt><trkpt lat="43.8907566" lon="16.7656909"><ele>702.5714285714287</ele><time>2026-04-28T10:27:58.326Z</time></trkpt><trkpt lat="43.8906861" lon="16.765665"><ele>702.7142857142858</ele><time>2026-04-28T10:27:59.326Z</time></trkpt><trkpt lat="43.8906217" lon="16.7656618"><ele>702.8571428571429</ele><time>2026-04-28T10:28:00.326Z</time></trkpt><trkpt lat="43.8905575" lon="16.7656607"><ele>703.0</ele><time>2026-04-28T10:28:01.326Z</time></trkpt><trkpt lat="43.890496" lon="16.7656415"><ele>703.0</ele><time>2026-04-28T10:28:02.326Z</time></trkpt><trkpt lat="43.8903763" lon="16.765571"><ele>703.0</ele><time>2026-04-28T10:28:04.326Z</time></trkpt><trkpt lat="43.890315" lon="16.7655362"><ele>703.0</ele><time>2026-04-28T10:28:05.326Z</time></trkpt><trkpt lat="43.8902581" lon="16.7654981"><ele>703.0</ele><time>2026-04-28T10:28:06.326Z</time></trkpt><trkpt lat="43.8901547" lon="16.7654387"><ele>703.0</ele><time>2026-04-28T10:28:08.327Z</time></trkpt><trkpt lat="43.8900764" lon="16.7653674"><ele>703.2</ele><time>2026-04-28T10:28:10.326Z</time></trkpt><trkpt lat="43.8899752" lon="16.7653248"><ele>703.4</ele><time>2026-04-28T10:28:12.326Z</time></trkpt><trkpt lat="43.8898862" lon="16.76527"><ele>703.6</ele><time>2026-04-28T10:28:14.327Z</time></trkpt><trkpt lat="43.8898118" lon="16.7652513"><ele>703.8000000000001</ele><time>2026-04-28T10:28:16.326Z</time></trkpt><trkpt lat="43.8897184" lon="16.7652279"><ele>704.0</ele><time>2026-04-28T10:28:18.326Z</time></trkpt><trkpt lat="43.8896212" lon="16.7651929"><ele>704.0</ele><time>2026-04-28T10:28:20.327Z</time></trkpt><trkpt lat="43.8895113" lon="16.7651619"><ele>704.0</ele><time>2026-04-28T10:28:22.326Z</time></trkpt><trkpt lat="43.8894127" lon="16.7651434"><ele>704.0</ele><time>2026-04-28T10:28:24.326Z</time></trkpt><trkpt lat="43.8893378" lon="16.7651575"><ele>704.0</ele><time>2026-04-28T10:28:26.327Z</time></trkpt><trkpt lat="43.8892694" lon="16.7652157"><ele>704.0</ele><time>2026-04-28T10:28:28.326Z</time></trkpt><trkpt lat="43.8892251" lon="16.7653361"><ele>704.0</ele><time>2026-04-28T10:28:30.326Z</time></trkpt><trkpt lat="43.8891902" lon="16.7654814"><ele>704.0</ele><time>2026-04-28T10:28:32.327Z</time></trkpt><trkpt lat="43.8891612" lon="16.7656202"><ele>704.0</ele><time>2026-04-28T10:28:34.326Z</time></trkpt><trkpt lat="43.8891316" lon="16.7657892"><ele>704.0</ele><time>2026-04-28T10:28:36.326Z</time></trkpt><trkpt lat="43.8891209" lon="16.7658853"><ele>704.0</ele><time>2026-04-28T10:28:37.326Z</time></trkpt><trkpt lat="43.8891114" lon="16.7659881"><ele>703.8333333333333</ele><time>2026-04-28T10:28:38.326Z</time></trkpt><trkpt lat="43.8890838" lon="16.7661039"><ele>703.6666666666666</ele><time>2026-04-28T10:28:39.327Z</time></trkpt><trkpt lat="43.8890626" lon="16.7662168"><ele>703.5</ele><time>2026-04-28T10:28:40.327Z</time></trkpt><trkpt lat="43.8890398" lon="16.7663241"><ele>703.3333333333334</ele><time>2026-04-28T10:28:41.326Z</time></trkpt><trkpt lat="43.889013" lon="16.7664407"><ele>703.1666666666667</ele><time>2026-04-28T10:28:42.326Z</time></trkpt><trkpt lat="43.8889814" lon="16.7665632"><ele>703.0</ele><time>2026-04-28T10:28:43.327Z</time></trkpt><trkpt lat="43.8889499" lon="16.7666758"><ele>703.0</ele><time>2026-04-28T10:28:44.326Z</time></trkpt><trkpt lat="43.8889127" lon="16.7668062"><ele>703.0</ele><time>2026-04-28T10:28:45.326Z</time></trkpt><trkpt lat="43.8888754" lon="16.7669372"><ele>703.0</ele><time>2026-04-28T10:28:46.326Z</time></trkpt><trkpt lat="43.8888406" lon="16.7670759"><ele>703.0</ele><time>2026-04-28T10:28:47.326Z</time></trkpt><trkpt lat="43.8888142" lon="16.767202"><ele>703.0</ele><time>2026-04-28T10:28:48.327Z</time></trkpt><trkpt lat="43.8887931" lon="16.7673338"><ele>703.2</ele><time>2026-04-28T10:28:49.326Z</time></trkpt><trkpt lat="43.8887752" lon="16.7674675"><ele>703.4</ele><time>2026-04-28T10:28:50.326Z</time></trkpt><trkpt lat="43.8887562" lon="16.7675961"><ele>703.6</ele><time>2026-04-28T10:28:51.326Z</time></trkpt><trkpt lat="43.88874" lon="16.767735"><ele>703.8000000000001</ele><time>2026-04-28T10:28:52.326Z</time></trkpt><trkpt lat="43.8887278" lon="16.7678596"><ele>704.0</ele><time>2026-04-28T10:28:53.326Z</time></trkpt><trkpt lat="43.8887197" lon="16.7679582"><ele>704.0</ele><time>2026-04-28T10:28:54.327Z</time></trkpt><trkpt lat="43.8887018" lon="16.7680593"><ele>704.0</ele><time>2026-04-28T10:28:55.327Z</time></trkpt><trkpt lat="43.8886907" lon="16.7681464"><ele>704.0</ele><time>2026-04-28T10:28:56.327Z</time></trkpt><trkpt lat="43.888661" lon="16.7682753"><ele>704.0</ele><time>2026-04-28T10:28:58.326Z</time></trkpt><trkpt lat="43.8885861" lon="16.7683149"><ele>704.0</ele><time>2026-04-28T10:29:00.326Z</time></trkpt><trkpt lat="43.8884849" lon="16.7682842"><ele>704.0</ele><time>2026-04-28T10:29:02.326Z</time></trkpt><trkpt lat="43.8884185" lon="16.7682498"><ele>704.0</ele><time>2026-04-28T10:29:03.326Z</time></trkpt><trkpt lat="43.8883433" lon="16.7682013"><ele>704.0</ele><time>2026-04-28T10:29:04.327Z</time></trkpt><trkpt lat="43.8882659" lon="16.7681481"><ele>704.0</ele><time>2026-04-28T10:29:05.326Z</time></trkpt><trkpt lat="43.8881821" lon="16.7680896"><ele>704.0</ele><time>2026-04-28T10:29:06.326Z</time></trkpt><trkpt lat="43.8880964" lon="16.7680316"><ele>704.0</ele><time>2026-04-28T10:29:07.327Z</time></trkpt><trkpt lat="43.8880117" lon="16.7679784"><ele>704.0</ele><time>2026-04-28T10:29:08.327Z</time></trkpt><trkpt lat="43.8879366" lon="16.7679261"><ele>704.0</ele><time>2026-04-28T10:29:09.326Z</time></trkpt><trkpt lat="43.887871" lon="16.7678778"><ele>704.0</ele><time>2026-04-28T10:29:10.326Z</time></trkpt><trkpt lat="43.887808" lon="16.7678429"><ele>704.0</ele><time>2026-04-28T10:29:11.326Z</time></trkpt><trkpt lat="43.8877398" lon="16.7677955"><ele>704.0</ele><time>2026-04-28T10:29:12.326Z</time></trkpt><trkpt lat="43.8876686" lon="16.7677491"><ele>704.0</ele><time>2026-04-28T10:29:13.326Z</time></trkpt><trkpt lat="43.8875888" lon="16.7677015"><ele>703.6666666666666</ele><time>2026-04-28T10:29:14.326Z</time></trkpt><trkpt lat="43.8875125" lon="16.7676495"><ele>703.3333333333333</ele><time>2026-04-28T10:29:15.327Z</time></trkpt><trkpt lat="43.8874359" lon="16.7675909"><ele>703.0</ele><time>2026-04-28T10:29:16.326Z</time></trkpt><trkpt lat="43.8873588" lon="16.7675321"><ele>702.6666666666666</ele><time>2026-04-28T10:29:17.327Z</time></trkpt><trkpt lat="43.8872755" lon="16.7674785"><ele>702.3333333333334</ele><time>2026-04-28T10:29:18.326Z</time></trkpt><trkpt lat="43.8871936" lon="16.7674267"><ele>702.0</ele><time>2026-04-28T10:29:19.326Z</time></trkpt><trkpt lat="43.8871155" lon="16.7673724"><ele>702.0</ele><time>2026-04-28T10:29:20.326Z</time></trkpt><trkpt lat="43.8870406" lon="16.7673155"><ele>702.0</ele><time>2026-04-28T10:29:21.326Z</time></trkpt><trkpt lat="43.886969" lon="16.7672587"><ele>702.0</ele><time>2026-04-28T10:29:22.326Z</time></trkpt><trkpt lat="43.8868869" lon="16.7672051"><ele>702.0</ele><time>2026-04-28T10:29:23.326Z</time></trkpt><trkpt lat="43.8868109" lon="16.7671486"><ele>702.0</ele><time>2026-04-28T10:29:24.326Z</time></trkpt><trkpt lat="43.8867417" lon="16.7670921"><ele>702.0</ele><time>2026-04-28T10:29:25.326Z</time></trkpt><trkpt lat="43.8866634" lon="16.767033"><ele>702.0</ele><time>2026-04-28T10:29:26.326Z</time></trkpt><trkpt lat="43.8865823" lon="16.7669753"><ele>702.0</ele><time>2026-04-28T10:29:27.326Z</time></trkpt><trkpt lat="43.8865054" lon="16.7669101"><ele>702.0</ele><time>2026-04-28T10:29:28.327Z</time></trkpt><trkpt lat="43.8864235" lon="16.7668427"><ele>702.0</ele><time>2026-04-28T10:29:29.326Z</time></trkpt><trkpt lat="43.8863369" lon="16.7667728"><ele>702.0</ele><time>2026-04-28T10:29:30.326Z</time></trkpt><trkpt lat="43.8862488" lon="16.7667028"><ele>702.4000000000001</ele><time>2026-04-28T10:29:31.326Z</time></trkpt><trkpt lat="43.8861622" lon="16.7666337"><ele>702.8000000000001</ele><time>2026-04-28T10:29:32.326Z</time></trkpt><trkpt lat="43.8860774" lon="16.7665659"><ele>703.2</ele><time>2026-04-28T10:29:33.327Z</time></trkpt><trkpt lat="43.8859952" lon="16.7665007"><ele>703.6</ele><time>2026-04-28T10:29:34.327Z</time></trkpt><trkpt lat="43.8859091" lon="16.76643"><ele>704.0</ele><time>2026-04-28T10:29:35.326Z</time></trkpt><trkpt lat="43.8858267" lon="16.7663637"><ele>704.1666666666666</ele><time>2026-04-28T10:29:36.326Z</time></trkpt><trkpt lat="43.8857498" lon="16.7662921"><ele>704.3333333333333</ele><time>2026-04-28T10:29:37.327Z</time></trkpt><trkpt lat="43.8856754" lon="16.7662255"><ele>704.5</ele><time>2026-04-28T10:29:38.327Z</time></trkpt><trkpt lat="43.8856135" lon="16.7661534"><ele>704.6666666666666</ele><time>2026-04-28T10:29:39.326Z</time></trkpt><trkpt lat="43.8855512" lon="16.7660709"><ele>704.8333333333334</ele><time>2026-04-28T10:29:40.326Z</time></trkpt><trkpt lat="43.885495" lon="16.7659844"><ele>705.0</ele><time>2026-04-28T10:29:41.326Z</time></trkpt><trkpt lat="43.8854359" lon="16.7659028"><ele>705.0</ele><time>2026-04-28T10:29:42.326Z</time></trkpt><trkpt lat="43.8853805" lon="16.7658349"><ele>705.0</ele><time>2026-04-28T10:29:43.326Z</time></trkpt><trkpt lat="43.8853187" lon="16.7657811"><ele>705.0</ele><time>2026-04-28T10:29:44.326Z</time></trkpt><trkpt lat="43.88526" lon="16.765733"><ele>705.0</ele><time>2026-04-28T10:29:45.327Z</time></trkpt><trkpt lat="43.8851934" lon="16.7656853"><ele>705.0</ele><time>2026-04-28T10:29:46.326Z</time></trkpt><trkpt lat="43.8851192" lon="16.7656415"><ele>705.0</ele><time>2026-04-28T10:29:47.326Z</time></trkpt><trkpt lat="43.8850374" lon="16.7655852"><ele>705.6666666666666</ele><time>2026-04-28T10:29:48.326Z</time></trkpt><trkpt lat="43.8849595" lon="16.7655329"><ele>706.3333333333334</ele><time>2026-04-28T10:29:49.326Z</time></trkpt><trkpt lat="43.8848727" lon="16.7654825"><ele>707.0</ele><time>2026-04-28T10:29:50.326Z</time></trkpt><trkpt lat="43.8847938" lon="16.7654287"><ele>707.6666666666667</ele><time>2026-04-28T10:29:51.326Z</time></trkpt><trkpt lat="43.8847112" lon="16.7653726"><ele>708.3333333333334</ele><time>2026-04-28T10:29:52.327Z</time></trkpt><trkpt lat="43.8846391" lon="16.7653202"><ele>709.0</ele><time>2026-04-28T10:29:53.327Z</time></trkpt><trkpt lat="43.8845616" lon="16.7652731"><ele>709.0</ele><time>2026-04-28T10:29:54.327Z</time></trkpt><trkpt lat="43.8844925" lon="16.7652401"><ele>709.0</ele><time>2026-04-28T10:29:55.326Z</time></trkpt><trkpt lat="43.8844285" lon="16.7652085"><ele>709.0</ele><time>2026-04-28T10:29:56.326Z</time></trkpt><trkpt lat="43.8843621" lon="16.7651837"><ele>709.0</ele><time>2026-04-28T10:29:57.326Z</time></trkpt><trkpt lat="43.8842678" lon="16.7651429"><ele>709.0</ele><time>2026-04-28T10:29:59.326Z</time></trkpt><trkpt lat="43.8841713" lon="16.7651201"><ele>709.0</ele><time>2026-04-28T10:30:01.327Z</time></trkpt><trkpt lat="43.8840563" lon="16.7651339"><ele>709.8000000000001</ele><time>2026-04-28T10:30:03.327Z</time></trkpt><trkpt lat="43.8839322" lon="16.7651703"><ele>710.6</ele><time>2026-04-28T10:30:05.327Z</time></trkpt><trkpt lat="43.8838389" lon="16.7651902"><ele>711.4</ele><time>2026-04-28T10:30:07.327Z</time></trkpt><trkpt lat="43.8837579" lon="16.7652054"><ele>712.2</ele><time>2026-04-28T10:30:10.326Z</time></trkpt><trkpt lat="43.8836885" lon="16.765184"><ele>713.0</ele><time>2026-04-28T10:30:12.326Z</time></trkpt><trkpt lat="43.883615" lon="16.765131"><ele>714.0</ele><time>2026-04-28T10:30:14.326Z</time></trkpt><trkpt lat="43.8835672" lon="16.7650381"><ele>715.0</ele><time>2026-04-28T10:30:16.326Z</time></trkpt><trkpt lat="43.8835141" lon="16.7649395"><ele>716.0</ele><time>2026-04-28T10:30:18.327Z</time></trkpt><trkpt lat="43.8834401" lon="16.7648789"><ele>717.0</ele><time>2026-04-28T10:30:20.326Z</time></trkpt><trkpt lat="43.8833583" lon="16.7648814"><ele>718.0</ele><time>2026-04-28T10:30:22.326Z</time></trkpt><trkpt lat="43.8832847" lon="16.7649651"><ele>719.0</ele><time>2026-04-28T10:30:24.326Z</time></trkpt><trkpt lat="43.8832014" lon="16.7651207"><ele>719.5</ele><time>2026-04-28T10:30:26.326Z</time></trkpt><trkpt lat="43.8831568" lon="16.7652053"><ele>720.0</ele><time>2026-04-28T10:30:27.327Z</time></trkpt><trkpt lat="43.8831118" lon="16.7653006"><ele>720.5</ele><time>2026-04-28T10:30:28.326Z</time></trkpt><trkpt lat="43.8830696" lon="16.7653986"><ele>721.0</ele><time>2026-04-28T10:30:29.327Z</time></trkpt><trkpt lat="43.8830279" lon="16.7654881"><ele>721.5</ele><time>2026-04-28T10:30:30.327Z</time></trkpt><trkpt lat="43.8829847" lon="16.7655754"><ele>722.0</ele><time>2026-04-28T10:30:31.327Z</time></trkpt><trkpt lat="43.8829332" lon="16.7656696"><ele>722.0</ele><time>2026-04-28T10:30:32.326Z</time></trkpt><trkpt lat="43.8828841" lon="16.7657598"><ele>722.0</ele><time>2026-04-28T10:30:33.326Z</time></trkpt><trkpt lat="43.8828306" lon="16.7658392"><ele>722.0</ele><time>2026-04-28T10:30:34.326Z</time></trkpt><trkpt lat="43.8827643" lon="16.7658792"><ele>722.0</ele><time>2026-04-28T10:30:35.326Z</time></trkpt><trkpt lat="43.88268" lon="16.7659006"><ele>722.0</ele><time>2026-04-28T10:30:36.327Z</time></trkpt><trkpt lat="43.8825917" lon="16.7659113"><ele>722.0</ele><time>2026-04-28T10:30:37.326Z</time></trkpt><trkpt lat="43.8824963" lon="16.7659056"><ele>723.0</ele><time>2026-04-28T10:30:38.326Z</time></trkpt><trkpt lat="43.882387" lon="16.7658883"><ele>724.0</ele><time>2026-04-28T10:30:39.326Z</time></trkpt><trkpt lat="43.8822896" lon="16.7658586"><ele>725.0</ele><time>2026-04-28T10:30:40.326Z</time></trkpt><trkpt lat="43.8821685" lon="16.7658311"><ele>726.0</ele><time>2026-04-28T10:30:41.327Z</time></trkpt><trkpt lat="43.8820545" lon="16.7657943"><ele>727.0</ele><time>2026-04-28T10:30:42.327Z</time></trkpt><trkpt lat="43.8819449" lon="16.7657328"><ele>727.0</ele><time>2026-04-28T10:30:43.326Z</time></trkpt><trkpt lat="43.8818318" lon="16.765679"><ele>727.0</ele><time>2026-04-28T10:30:44.326Z</time></trkpt><trkpt lat="43.8817165" lon="16.7656143"><ele>727.0</ele><time>2026-04-28T10:30:45.326Z</time></trkpt><trkpt lat="43.8816114" lon="16.7655498"><ele>727.0</ele><time>2026-04-28T10:30:46.327Z</time></trkpt><trkpt lat="43.8815075" lon="16.7654804"><ele>727.0</ele><time>2026-04-28T10:30:47.326Z</time></trkpt><trkpt lat="43.8814007" lon="16.7654139"><ele>727.0</ele><time>2026-04-28T10:30:48.327Z</time></trkpt><trkpt lat="43.881297" lon="16.7653424"><ele>727.0</ele><time>2026-04-28T10:30:49.326Z</time></trkpt><trkpt lat="43.8811867" lon="16.7652972"><ele>727.0</ele><time>2026-04-28T10:30:50.326Z</time></trkpt><trkpt lat="43.881077" lon="16.765277"><ele>727.0</ele><time>2026-04-28T10:30:51.326Z</time></trkpt><trkpt lat="43.880968" lon="16.7652977"><ele>727.0</ele><time>2026-04-28T10:30:52.327Z</time></trkpt><trkpt lat="43.8808598" lon="16.7653372"><ele>727.0</ele><time>2026-04-28T10:30:53.326Z</time></trkpt><trkpt lat="43.8807462" lon="16.7653802"><ele>727.0</ele><time>2026-04-28T10:30:54.326Z</time></trkpt><trkpt lat="43.8806263" lon="16.7654268"><ele>727.0</ele><time>2026-04-28T10:30:55.326Z</time></trkpt><trkpt lat="43.8804943" lon="16.7654618"><ele>727.0</ele><time>2026-04-28T10:30:56.326Z</time></trkpt><trkpt lat="43.8803609" lon="16.7654939"><ele>727.0</ele><time>2026-04-28T10:30:57.326Z</time></trkpt><trkpt lat="43.8802246" lon="16.7655075"><ele>727.0</ele><time>2026-04-28T10:30:58.326Z</time></trkpt><trkpt lat="43.8800889" lon="16.7655048"><ele>729.0</ele><time>2026-04-28T10:30:59.327Z</time></trkpt><trkpt lat="43.8799458" lon="16.765502"><ele>731.0</ele><time>2026-04-28T10:31:00.326Z</time></trkpt><trkpt lat="43.8798219" lon="16.7655031"><ele>733.0</ele><time>2026-04-28T10:31:01.326Z</time></trkpt><trkpt lat="43.879718" lon="16.7654811"><ele>735.0</ele><time>2026-04-28T10:31:02.326Z</time></trkpt><trkpt lat="43.8796141" lon="16.7654393"><ele>735.0</ele><time>2026-04-28T10:31:03.327Z</time></trkpt><trkpt lat="43.8795139" lon="16.7653795"><ele>735.0</ele><time>2026-04-28T10:31:04.327Z</time></trkpt><trkpt lat="43.8794277" lon="16.7652838"><ele>735.0</ele><time>2026-04-28T10:31:05.326Z</time></trkpt><trkpt lat="43.8793438" lon="16.7651683"><ele>735.0</ele><time>2026-04-28T10:31:06.326Z</time></trkpt><trkpt lat="43.8792647" lon="16.7650305"><ele>735.4</ele><time>2026-04-28T10:31:07.327Z</time></trkpt><trkpt lat="43.8791841" lon="16.7648985"><ele>735.8</ele><time>2026-04-28T10:31:08.326Z</time></trkpt><trkpt lat="43.8791053" lon="16.7647854"><ele>736.2</ele><time>2026-04-28T10:31:09.326Z</time></trkpt><trkpt lat="43.8790197" lon="16.7646896"><ele>736.6</ele><time>2026-04-28T10:31:10.327Z</time></trkpt><trkpt lat="43.8789415" lon="16.7646271"><ele>737.0</ele><time>2026-04-28T10:31:11.326Z</time></trkpt><trkpt lat="43.8788782" lon="16.7645746"><ele>737.0</ele><time>2026-04-28T10:31:12.326Z</time></trkpt><trkpt lat="43.8788162" lon="16.7645239"><ele>737.0</ele><time>2026-04-28T10:31:14.326Z</time></trkpt><trkpt lat="43.8787066" lon="16.7646079"><ele>737.0</ele><time>2026-04-28T10:31:20.326Z</time></trkpt><trkpt lat="43.8786723" lon="16.7646852"><ele>737.0</ele><time>2026-04-28T10:31:21.326Z</time></trkpt><trkpt lat="43.8786356" lon="16.7647843"><ele>737.0</ele><time>2026-04-28T10:31:22.327Z</time></trkpt><trkpt lat="43.8785911" lon="16.7648956"><ele>737.0</ele><time>2026-04-28T10:31:23.327Z</time></trkpt><trkpt lat="43.87854" lon="16.7650186"><ele>737.0</ele><time>2026-04-28T10:31:24.327Z</time></trkpt><trkpt lat="43.8784902" lon="16.7651475"><ele>737.0</ele><time>2026-04-28T10:31:25.326Z</time></trkpt><trkpt lat="43.8784351" lon="16.7652907"><ele>737.0</ele><time>2026-04-28T10:31:26.326Z</time></trkpt><trkpt lat="43.8783774" lon="16.7654384"><ele>737.0</ele><time>2026-04-28T10:31:27.326Z</time></trkpt><trkpt lat="43.8783212" lon="16.7655974"><ele>736.5</ele><time>2026-04-28T10:31:28.326Z</time></trkpt><trkpt lat="43.8782576" lon="16.7657624"><ele>736.0</ele><time>2026-04-28T10:31:29.326Z</time></trkpt><trkpt lat="43.8781896" lon="16.7659284"><ele>735.5</ele><time>2026-04-28T10:31:30.326Z</time></trkpt><trkpt lat="43.878119" lon="16.7660995"><ele>735.0</ele><time>2026-04-28T10:31:31.326Z</time></trkpt><trkpt lat="43.878053" lon="16.7662867"><ele>735.0</ele><time>2026-04-28T10:31:32.326Z</time></trkpt><trkpt lat="43.877982" lon="16.7664663"><ele>735.0</ele><time>2026-04-28T10:31:33.326Z</time></trkpt><trkpt lat="43.8779062" lon="16.7666503"><ele>735.0</ele><time>2026-04-28T10:31:34.327Z</time></trkpt><trkpt lat="43.877832" lon="16.7668346"><ele>734.3333333333334</ele><time>2026-04-28T10:31:35.326Z</time></trkpt><trkpt lat="43.8777549" lon="16.7670166"><ele>733.6666666666667</ele><time>2026-04-28T10:31:36.326Z</time></trkpt><trkpt lat="43.8776699" lon="16.7671914"><ele>733.0</ele><time>2026-04-28T10:31:37.326Z</time></trkpt><trkpt lat="43.8775822" lon="16.7673528"><ele>733.0</ele><time>2026-04-28T10:31:38.327Z</time></trkpt><trkpt lat="43.8774914" lon="16.7675009"><ele>733.0</ele><time>2026-04-28T10:31:39.326Z</time></trkpt><trkpt lat="43.8773946" lon="16.7676403"><ele>733.0</ele><time>2026-04-28T10:31:40.326Z</time></trkpt><trkpt lat="43.8772936" lon="16.7677775"><ele>733.0</ele><time>2026-04-28T10:31:41.327Z</time></trkpt><trkpt lat="43.8771876" lon="16.7679243"><ele>733.0</ele><time>2026-04-28T10:31:42.326Z</time></trkpt><trkpt lat="43.8770786" lon="16.7680739"><ele>733.0</ele><time>2026-04-28T10:31:43.326Z</time></trkpt><trkpt lat="43.87697" lon="16.7682212"><ele>733.0</ele><time>2026-04-28T10:31:44.327Z</time></trkpt><trkpt lat="43.8768614" lon="16.7683701"><ele>732.5999999999999</ele><time>2026-04-28T10:31:45.326Z</time></trkpt><trkpt lat="43.8767681" lon="16.7684948"><ele>732.1999999999999</ele><time>2026-04-28T10:31:46.326Z</time></trkpt><trkpt lat="43.8766851" lon="16.7686126"><ele>731.8</ele><time>2026-04-28T10:31:47.326Z</time></trkpt><trkpt lat="43.8766163" lon="16.7687179"><ele>731.4</ele><time>2026-04-28T10:31:48.326Z</time></trkpt><trkpt lat="43.876553" lon="16.7688154"><ele>731.0</ele><time>2026-04-28T10:31:49.326Z</time></trkpt><trkpt lat="43.8764872" lon="16.7689161"><ele>731.0</ele><time>2026-04-28T10:31:50.327Z</time></trkpt><trkpt lat="43.8764149" lon="16.7690219"><ele>731.0</ele><time>2026-04-28T10:31:51.326Z</time></trkpt><trkpt lat="43.8763386" lon="16.7691393"><ele>731.0</ele><time>2026-04-28T10:31:52.327Z</time></trkpt><trkpt lat="43.8762581" lon="16.7692607"><ele>731.0</ele><time>2026-04-28T10:31:53.326Z</time></trkpt><trkpt lat="43.8761772" lon="16.7693884"><ele>731.25</ele><time>2026-04-28T10:31:54.326Z</time></trkpt><trkpt lat="43.8760892" lon="16.7695179"><ele>731.5</ele><time>2026-04-28T10:31:55.327Z</time></trkpt><trkpt lat="43.8760007" lon="16.7696596"><ele>731.75</ele><time>2026-04-28T10:31:56.327Z</time></trkpt><trkpt lat="43.8759139" lon="16.7697897"><ele>732.0</ele><time>2026-04-28T10:31:57.326Z</time></trkpt><trkpt lat="43.8758323" lon="16.7699046"><ele>732.0</ele><time>2026-04-28T10:31:58.327Z</time></trkpt><trkpt lat="43.875754" lon="16.7700135"><ele>732.0</ele><time>2026-04-28T10:31:59.326Z</time></trkpt><trkpt lat="43.8756846" lon="16.7701068"><ele>732.0</ele><time>2026-04-28T10:32:00.327Z</time></trkpt><trkpt lat="43.8756103" lon="16.7701886"><ele>732.0</ele><time>2026-04-28T10:32:01.326Z</time></trkpt><trkpt lat="43.8755368" lon="16.7702723"><ele>732.0</ele><time>2026-04-28T10:32:02.326Z</time></trkpt><trkpt lat="43.8754584" lon="16.7703525"><ele>732.0</ele><time>2026-04-28T10:32:03.326Z</time></trkpt><trkpt lat="43.8753809" lon="16.7704207"><ele>732.0</ele><time>2026-04-28T10:32:04.326Z</time></trkpt><trkpt lat="43.8753083" lon="16.7704754"><ele>732.0</ele><time>2026-04-28T10:32:05.326Z</time></trkpt><trkpt lat="43.8752518" lon="16.7705248"><ele>732.0</ele><time>2026-04-28T10:32:06.326Z</time></trkpt><trkpt lat="43.8751681" lon="16.7706244"><ele>732.0</ele><time>2026-04-28T10:32:08.327Z</time></trkpt><trkpt lat="43.87514" lon="16.7707462"><ele>732.0</ele><time>2026-04-28T10:32:10.327Z</time></trkpt><trkpt lat="43.8751543" lon="16.7708434"><ele>732.0</ele><time>2026-04-28T10:32:12.326Z</time></trkpt><trkpt lat="43.8751195" lon="16.7709329"><ele>732.0</ele><time>2026-04-28T10:42:49.326Z</time></trkpt><trkpt lat="43.875047" lon="16.7709151"><ele>732.0</ele><time>2026-04-28T10:42:51.326Z</time></trkpt><trkpt lat="43.8749487" lon="16.7708865"><ele>732.0</ele><time>2026-04-28T10:42:53.326Z</time></trkpt><trkpt lat="43.8748216" lon="16.7708937"><ele>732.0</ele><time>2026-04-28T10:42:55.326Z</time></trkpt><trkpt lat="43.8747383" lon="16.7709232"><ele>731.8</ele><time>2026-04-28T10:42:56.326Z</time></trkpt><trkpt lat="43.8746524" lon="16.7709836"><ele>731.6</ele><time>2026-04-28T10:42:57.326Z</time></trkpt><trkpt lat="43.8745565" lon="16.7710603"><ele>731.4</ele><time>2026-04-28T10:42:58.326Z</time></trkpt><trkpt lat="43.8744601" lon="16.771138"><ele>731.1999999999999</ele><time>2026-04-28T10:42:59.326Z</time></trkpt><trkpt lat="43.8743605" lon="16.7712191"><ele>731.0</ele><time>2026-04-28T10:43:00.327Z</time></trkpt><trkpt lat="43.8742501" lon="16.7713052"><ele>730.0</ele><time>2026-04-28T10:43:01.326Z</time></trkpt><trkpt lat="43.8741315" lon="16.7713945"><ele>729.0</ele><time>2026-04-28T10:43:02.326Z</time></trkpt><trkpt lat="43.8740052" lon="16.7714846"><ele>728.0</ele><time>2026-04-28T10:43:03.326Z</time></trkpt><trkpt lat="43.873877" lon="16.7715836"><ele>727.0</ele><time>2026-04-28T10:43:04.326Z</time></trkpt><trkpt lat="43.8737396" lon="16.7716902"><ele>727.0</ele><time>2026-04-28T10:43:05.327Z</time></trkpt><trkpt lat="43.8736066" lon="16.7718093"><ele>727.0</ele><time>2026-04-28T10:43:06.327Z</time></trkpt><trkpt lat="43.8734658" lon="16.771946"><ele>727.0</ele><time>2026-04-28T10:43:07.327Z</time></trkpt><trkpt lat="43.8733296" lon="16.7721"><ele>727.3333333333334</ele><time>2026-04-28T10:43:08.326Z</time></trkpt><trkpt lat="43.8731927" lon="16.7722706"><ele>727.6666666666666</ele><time>2026-04-28T10:43:09.326Z</time></trkpt><trkpt lat="43.873068" lon="16.7724664"><ele>728.0</ele><time>2026-04-28T10:43:10.326Z</time></trkpt><trkpt lat="43.872949" lon="16.7726791"><ele>727.6666666666666</ele><time>2026-04-28T10:43:11.326Z</time></trkpt><trkpt lat="43.8728669" lon="16.7729348"><ele>727.3333333333334</ele><time>2026-04-28T10:43:12.327Z</time></trkpt><trkpt lat="43.8727738" lon="16.7731772"><ele>727.0</ele><time>2026-04-28T10:43:13.327Z</time></trkpt><trkpt lat="43.872682" lon="16.7734369"><ele>726.6666666666667</ele><time>2026-04-28T10:43:14.326Z</time></trkpt><trkpt lat="43.8725868" lon="16.7736889"><ele>726.3333333333334</ele><time>2026-04-28T10:43:15.326Z</time></trkpt><trkpt lat="43.8724831" lon="16.7739411"><ele>726.0</ele><time>2026-04-28T10:43:16.326Z</time></trkpt><trkpt lat="43.8723673" lon="16.7741817"><ele>726.3333333333334</ele><time>2026-04-28T10:43:17.326Z</time></trkpt><trkpt lat="43.8722406" lon="16.7744126"><ele>726.6666666666667</ele><time>2026-04-28T10:43:18.326Z</time></trkpt><trkpt lat="43.8721074" lon="16.7746275"><ele>727.0</ele><time>2026-04-28T10:43:19.327Z</time></trkpt><trkpt lat="43.8719641" lon="16.7748307"><ele>727.0</ele><time>2026-04-28T10:43:20.327Z</time></trkpt><trkpt lat="43.8718308" lon="16.7750357"><ele>727.0</ele><time>2026-04-28T10:43:21.326Z</time></trkpt><trkpt lat="43.8717049" lon="16.7752395"><ele>727.0</ele><time>2026-04-28T10:43:22.327Z</time></trkpt><trkpt lat="43.8715846" lon="16.7754608"><ele>728.3333333333334</ele><time>2026-04-28T10:43:23.326Z</time></trkpt><trkpt lat="43.8714725" lon="16.7756995"><ele>729.6666666666666</ele><time>2026-04-28T10:43:24.327Z</time></trkpt><trkpt lat="43.8713725" lon="16.7759438"><ele>731.0</ele><time>2026-04-28T10:43:25.326Z</time></trkpt><trkpt lat="43.8712843" lon="16.7762053"><ele>731.0</ele><time>2026-04-28T10:43:26.326Z</time></trkpt><trkpt lat="43.8712169" lon="16.7764812"><ele>731.0</ele><time>2026-04-28T10:43:27.326Z</time></trkpt><trkpt lat="43.87116" lon="16.7767702"><ele>731.0</ele><time>2026-04-28T10:43:28.326Z</time></trkpt><trkpt lat="43.8710976" lon="16.7770515"><ele>730.3333333333333</ele><time>2026-04-28T10:43:29.326Z</time></trkpt><trkpt lat="43.8710206" lon="16.7773368"><ele>729.6666666666666</ele><time>2026-04-28T10:43:30.327Z</time></trkpt><trkpt lat="43.8709369" lon="16.7776237"><ele>729.0</ele><time>2026-04-28T10:43:31.326Z</time></trkpt><trkpt lat="43.8708504" lon="16.7779053"><ele>728.3333333333334</ele><time>2026-04-28T10:43:32.326Z</time></trkpt><trkpt lat="43.8707654" lon="16.7781829"><ele>727.6666666666667</ele><time>2026-04-28T10:43:33.326Z</time></trkpt><trkpt lat="43.8706785" lon="16.7784594"><ele>727.0</ele><time>2026-04-28T10:43:34.326Z</time></trkpt><trkpt lat="43.8705927" lon="16.7787258"><ele>728.3333333333334</ele><time>2026-04-28T10:43:35.326Z</time></trkpt><trkpt lat="43.8705058" lon="16.7789938"><ele>729.6666666666666</ele><time>2026-04-28T10:43:36.327Z</time></trkpt><trkpt lat="43.8704253" lon="16.7792468"><ele>731.0</ele><time>2026-04-28T10:43:37.326Z</time></trkpt><trkpt lat="43.8703485" lon="16.7794903"><ele>731.0</ele><time>2026-04-28T10:43:38.326Z</time></trkpt><trkpt lat="43.8702698" lon="16.7797296"><ele>731.0</ele><time>2026-04-28T10:43:39.326Z</time></trkpt><trkpt lat="43.8701909" lon="16.7799695"><ele>731.0</ele><time>2026-04-28T10:43:40.327Z</time></trkpt><trkpt lat="43.8701152" lon="16.7802052"><ele>731.0</ele><time>2026-04-28T10:43:41.327Z</time></trkpt><trkpt lat="43.8700357" lon="16.7804349"><ele>731.0</ele><time>2026-04-28T10:43:42.326Z</time></trkpt><trkpt lat="43.8699482" lon="16.7806564"><ele>731.0</ele><time>2026-04-28T10:43:43.326Z</time></trkpt><trkpt lat="43.8698562" lon="16.7808728"><ele>730.6666666666666</ele><time>2026-04-28T10:43:44.327Z</time></trkpt><trkpt lat="43.869762" lon="16.7810897"><ele>730.3333333333334</ele><time>2026-04-28T10:43:45.326Z</time></trkpt><trkpt lat="43.8696694" lon="16.7813098"><ele>730.0</ele><time>2026-04-28T10:43:46.326Z</time></trkpt><trkpt lat="43.8695788" lon="16.7815301"><ele>730.0</ele><time>2026-04-28T10:43:47.326Z</time></trkpt><trkpt lat="43.8694936" lon="16.7817437"><ele>730.0</ele><time>2026-04-28T10:43:48.326Z</time></trkpt><trkpt lat="43.8694127" lon="16.7819645"><ele>730.0</ele><time>2026-04-28T10:43:49.327Z</time></trkpt><trkpt lat="43.8693424" lon="16.7821952"><ele>732.0</ele><time>2026-04-28T10:43:50.326Z</time></trkpt><trkpt lat="43.8692745" lon="16.7824311"><ele>734.0</ele><time>2026-04-28T10:43:51.327Z</time></trkpt><trkpt lat="43.8692086" lon="16.7826654"><ele>736.0</ele><time>2026-04-28T10:43:52.326Z</time></trkpt><trkpt lat="43.8691388" lon="16.7828957"><ele>736.0</ele><time>2026-04-28T10:43:53.326Z</time></trkpt><trkpt lat="43.8690574" lon="16.783117"><ele>736.0</ele><time>2026-04-28T10:43:54.326Z</time></trkpt><trkpt lat="43.8689693" lon="16.7833376"><ele>736.0</ele><time>2026-04-28T10:43:55.326Z</time></trkpt><trkpt lat="43.8688786" lon="16.7835487"><ele>735.6666666666667</ele><time>2026-04-28T10:43:56.327Z</time></trkpt><trkpt lat="43.8688079" lon="16.783767"><ele>735.3333333333334</ele><time>2026-04-28T10:43:57.327Z</time></trkpt><trkpt lat="43.8687555" lon="16.7839784"><ele>735.0</ele><time>2026-04-28T10:43:58.326Z</time></trkpt><trkpt lat="43.868737" lon="16.7841795"><ele>735.0</ele><time>2026-04-28T10:43:59.326Z</time></trkpt><trkpt lat="43.8687378" lon="16.7843684"><ele>735.0</ele><time>2026-04-28T10:44:00.327Z</time></trkpt><trkpt lat="43.8687422" lon="16.7845515"><ele>735.0</ele><time>2026-04-28T10:44:01.327Z</time></trkpt><trkpt lat="43.8687454" lon="16.7847309"><ele>735.0</ele><time>2026-04-28T10:44:02.326Z</time></trkpt><trkpt lat="43.8687422" lon="16.7849151"><ele>735.0</ele><time>2026-04-28T10:44:03.326Z</time></trkpt><trkpt lat="43.868731" lon="16.7851009"><ele>735.0</ele><time>2026-04-28T10:44:04.327Z</time></trkpt><trkpt lat="43.8687187" lon="16.7852936"><ele>735.0</ele><time>2026-04-28T10:44:05.327Z</time></trkpt><trkpt lat="43.868706" lon="16.7854832"><ele>735.0</ele><time>2026-04-28T10:44:06.327Z</time></trkpt><trkpt lat="43.8686858" lon="16.7856739"><ele>734.0</ele><time>2026-04-28T10:44:07.327Z</time></trkpt><trkpt lat="43.8686695" lon="16.7858719"><ele>733.0</ele><time>2026-04-28T10:44:08.326Z</time></trkpt><trkpt lat="43.8686437" lon="16.7860651"><ele>732.0</ele><time>2026-04-28T10:44:09.326Z</time></trkpt><trkpt lat="43.868604" lon="16.7862617"><ele>731.0</ele><time>2026-04-28T10:44:10.326Z</time></trkpt><trkpt lat="43.868554" lon="16.7864535"><ele>731.0</ele><time>2026-04-28T10:44:11.327Z</time></trkpt><trkpt lat="43.8684964" lon="16.7866469"><ele>731.0</ele><time>2026-04-28T10:44:12.326Z</time></trkpt><trkpt lat="43.8684345" lon="16.7868354"><ele>731.0</ele><time>2026-04-28T10:44:13.327Z</time></trkpt><trkpt lat="43.8683674" lon="16.7870282"><ele>731.0</ele><time>2026-04-28T10:44:14.326Z</time></trkpt><trkpt lat="43.8682975" lon="16.7872278"><ele>731.0</ele><time>2026-04-28T10:44:15.327Z</time></trkpt><trkpt lat="43.8682309" lon="16.7874331"><ele>731.0</ele><time>2026-04-28T10:44:16.326Z</time></trkpt><trkpt lat="43.8681627" lon="16.7876386"><ele>730.0</ele><time>2026-04-28T10:44:17.327Z</time></trkpt><trkpt lat="43.8680944" lon="16.7878503"><ele>729.0</ele><time>2026-04-28T10:44:18.326Z</time></trkpt><trkpt lat="43.8680208" lon="16.7880573"><ele>728.0</ele><time>2026-04-28T10:44:19.327Z</time></trkpt><trkpt lat="43.8679453" lon="16.7882658"><ele>728.0</ele><time>2026-04-28T10:44:20.326Z</time></trkpt><trkpt lat="43.867877" lon="16.788482"><ele>728.0</ele><time>2026-04-28T10:44:21.326Z</time></trkpt><trkpt lat="43.8678068" lon="16.7886956"><ele>728.0</ele><time>2026-04-28T10:44:22.326Z</time></trkpt><trkpt lat="43.867734" lon="16.7889035"><ele>728.0</ele><time>2026-04-28T10:44:23.327Z</time></trkpt><trkpt lat="43.8676622" lon="16.7891117"><ele>728.0</ele><time>2026-04-28T10:44:24.326Z</time></trkpt><trkpt lat="43.8675783" lon="16.7893133"><ele>728.0</ele><time>2026-04-28T10:44:25.326Z</time></trkpt><trkpt lat="43.8674813" lon="16.7895025"><ele>728.0</ele><time>2026-04-28T10:44:26.326Z</time></trkpt><trkpt lat="43.8673714" lon="16.7896718"><ele>728.0</ele><time>2026-04-28T10:44:27.327Z</time></trkpt><trkpt lat="43.8672481" lon="16.7898192"><ele>728.0</ele><time>2026-04-28T10:44:28.327Z</time></trkpt><trkpt lat="43.8671199" lon="16.7899666"><ele>728.0</ele><time>2026-04-28T10:44:29.327Z</time></trkpt><trkpt lat="43.8669979" lon="16.7901257"><ele>728.0</ele><time>2026-04-28T10:44:30.326Z</time></trkpt><trkpt lat="43.8668837" lon="16.7903006"><ele>728.0</ele><time>2026-04-28T10:44:31.327Z</time></trkpt><trkpt lat="43.8667802" lon="16.7904869"><ele>728.0</ele><time>2026-04-28T10:44:32.326Z</time></trkpt><trkpt lat="43.8666766" lon="16.7906868"><ele>728.0</ele><time>2026-04-28T10:44:33.326Z</time></trkpt><trkpt lat="43.8665784" lon="16.7908789"><ele>728.0</ele><time>2026-04-28T10:44:34.326Z</time></trkpt><trkpt lat="43.8664719" lon="16.791066"><ele>726.0</ele><time>2026-04-28T10:44:35.326Z</time></trkpt><trkpt lat="43.8663564" lon="16.7912656"><ele>724.0</ele><time>2026-04-28T10:44:36.326Z</time></trkpt><trkpt lat="43.8662292" lon="16.7914499"><ele>722.0</ele><time>2026-04-28T10:44:37.326Z</time></trkpt><trkpt lat="43.8660944" lon="16.7916249"><ele>722.0</ele><time>2026-04-28T10:44:38.327Z</time></trkpt><trkpt lat="43.865955" lon="16.7918022"><ele>722.0</ele><time>2026-04-28T10:44:39.326Z</time></trkpt><trkpt lat="43.8658096" lon="16.79197"><ele>722.0</ele><time>2026-04-28T10:44:40.326Z</time></trkpt><trkpt lat="43.8656597" lon="16.7921307"><ele>721.6666666666666</ele><time>2026-04-28T10:44:41.326Z</time></trkpt><trkpt lat="43.8655077" lon="16.7922898"><ele>721.3333333333334</ele><time>2026-04-28T10:44:42.326Z</time></trkpt><trkpt lat="43.8653629" lon="16.7924511"><ele>721.0</ele><time>2026-04-28T10:44:43.326Z</time></trkpt><trkpt lat="43.8652118" lon="16.79261"><ele>721.3333333333334</ele><time>2026-04-28T10:44:44.326Z</time></trkpt><trkpt lat="43.8650585" lon="16.7927578"><ele>721.6666666666666</ele><time>2026-04-28T10:44:45.326Z</time></trkpt><trkpt lat="43.8648999" lon="16.7928989"><ele>722.0</ele><time>2026-04-28T10:44:46.326Z</time></trkpt><trkpt lat="43.8647412" lon="16.7930347"><ele>722.0</ele><time>2026-04-28T10:44:47.327Z</time></trkpt><trkpt lat="43.8645781" lon="16.7931727"><ele>722.0</ele><time>2026-04-28T10:44:48.327Z</time></trkpt><trkpt lat="43.8644164" lon="16.7933062"><ele>722.0</ele><time>2026-04-28T10:44:49.326Z</time></trkpt><trkpt lat="43.8642514" lon="16.7934337"><ele>721.6666666666666</ele><time>2026-04-28T10:44:50.327Z</time></trkpt><trkpt lat="43.8640842" lon="16.7935473"><ele>721.3333333333334</ele><time>2026-04-28T10:44:51.326Z</time></trkpt><trkpt lat="43.8639089" lon="16.7936576"><ele>721.0</ele><time>2026-04-28T10:44:52.326Z</time></trkpt><trkpt lat="43.8637269" lon="16.7937642"><ele>721.0</ele><time>2026-04-28T10:44:53.327Z</time></trkpt><trkpt lat="43.8635509" lon="16.793863"><ele>721.0</ele><time>2026-04-28T10:44:54.326Z</time></trkpt><trkpt lat="43.8633716" lon="16.7939623"><ele>721.0</ele><time>2026-04-28T10:44:55.326Z</time></trkpt><trkpt lat="43.8631917" lon="16.7940817"><ele>721.3333333333334</ele><time>2026-04-28T10:44:56.326Z</time></trkpt><trkpt lat="43.8630226" lon="16.7942133"><ele>721.6666666666666</ele><time>2026-04-28T10:44:57.326Z</time></trkpt><trkpt lat="43.8628608" lon="16.794363"><ele>722.0</ele><time>2026-04-28T10:44:58.327Z</time></trkpt><trkpt lat="43.8627018" lon="16.7945262"><ele>721.0</ele><time>2026-04-28T10:44:59.327Z</time></trkpt><trkpt lat="43.8625454" lon="16.7946971"><ele>720.0</ele><time>2026-04-28T10:45:00.326Z</time></trkpt><trkpt lat="43.8623884" lon="16.7948699"><ele>719.0</ele><time>2026-04-28T10:45:01.326Z</time></trkpt><trkpt lat="43.862235" lon="16.7950456"><ele>718.6666666666666</ele><time>2026-04-28T10:45:02.327Z</time></trkpt><trkpt lat="43.862074" lon="16.7952213"><ele>718.3333333333334</ele><time>2026-04-28T10:45:03.326Z</time></trkpt><trkpt lat="43.861907" lon="16.7953975"><ele>718.0</ele><time>2026-04-28T10:45:04.327Z</time></trkpt><trkpt lat="43.8617364" lon="16.7955576"><ele>718.0</ele><time>2026-04-28T10:45:05.327Z</time></trkpt><trkpt lat="43.8615585" lon="16.7957126"><ele>718.0</ele><time>2026-04-28T10:45:06.326Z</time></trkpt><trkpt lat="43.8613764" lon="16.7958502"><ele>718.0</ele><time>2026-04-28T10:45:07.327Z</time></trkpt><trkpt lat="43.861184" lon="16.7959786"><ele>716.0</ele><time>2026-04-28T10:45:08.326Z</time></trkpt><trkpt lat="43.8609895" lon="16.7961072"><ele>714.0</ele><time>2026-04-28T10:45:09.327Z</time></trkpt><trkpt lat="43.8607934" lon="16.7962346"><ele>712.0</ele><time>2026-04-28T10:45:10.326Z</time></trkpt><trkpt lat="43.8606006" lon="16.7963517"><ele>712.0</ele><time>2026-04-28T10:45:11.327Z</time></trkpt><trkpt lat="43.8604042" lon="16.7964732"><ele>712.0</ele><time>2026-04-28T10:45:12.326Z</time></trkpt><trkpt lat="43.8602126" lon="16.7965954"><ele>712.0</ele><time>2026-04-28T10:45:13.326Z</time></trkpt><trkpt lat="43.8600256" lon="16.7967224"><ele>712.3333333333334</ele><time>2026-04-28T10:45:14.326Z</time></trkpt><trkpt lat="43.8598412" lon="16.7968573"><ele>712.6666666666666</ele><time>2026-04-28T10:45:15.326Z</time></trkpt><trkpt lat="43.8596642" lon="16.7970081"><ele>713.0</ele><time>2026-04-28T10:45:16.326Z</time></trkpt><trkpt lat="43.8595051" lon="16.7971784"><ele>713.0</ele><time>2026-04-28T10:45:17.326Z</time></trkpt><trkpt lat="43.8593595" lon="16.7973751"><ele>713.0</ele><time>2026-04-28T10:45:18.326Z</time></trkpt><trkpt lat="43.8592168" lon="16.7975684"><ele>713.0</ele><time>2026-04-28T10:45:19.327Z</time></trkpt><trkpt lat="43.8590676" lon="16.7977528"><ele>713.0</ele><time>2026-04-28T10:45:20.326Z</time></trkpt><trkpt lat="43.8589129" lon="16.7979186"><ele>713.0</ele><time>2026-04-28T10:45:21.326Z</time></trkpt><trkpt lat="43.8587489" lon="16.7980792"><ele>713.0</ele><time>2026-04-28T10:45:22.326Z</time></trkpt><trkpt lat="43.8585822" lon="16.7982244"><ele>714.3333333333333</ele><time>2026-04-28T10:45:23.327Z</time></trkpt><trkpt lat="43.8584095" lon="16.7983637"><ele>715.6666666666666</ele><time>2026-04-28T10:45:24.326Z</time></trkpt><trkpt lat="43.8582308" lon="16.7984863"><ele>717.0</ele><time>2026-04-28T10:45:25.326Z</time></trkpt><trkpt lat="43.8580512" lon="16.798601"><ele>717.0</ele><time>2026-04-28T10:45:26.327Z</time></trkpt><trkpt lat="43.8578657" lon="16.7987143"><ele>717.0</ele><time>2026-04-28T10:45:27.326Z</time></trkpt><trkpt lat="43.8576755" lon="16.7988276"><ele>717.0</ele><time>2026-04-28T10:45:28.327Z</time></trkpt><trkpt lat="43.8574882" lon="16.7989292"><ele>716.6666666666666</ele><time>2026-04-28T10:45:29.326Z</time></trkpt><trkpt lat="43.8572963" lon="16.7990257"><ele>716.3333333333333</ele><time>2026-04-28T10:45:30.326Z</time></trkpt><trkpt lat="43.8571112" lon="16.7991094"><ele>716.0</ele><time>2026-04-28T10:45:31.327Z</time></trkpt><trkpt lat="43.8569256" lon="16.7991909"><ele>716.0</ele><time>2026-04-28T10:45:32.326Z</time></trkpt><trkpt lat="43.8567446" lon="16.7992854"><ele>716.0</ele><time>2026-04-28T10:45:33.327Z</time></trkpt><trkpt lat="43.856566" lon="16.7993948"><ele>716.0</ele><time>2026-04-28T10:45:34.326Z</time></trkpt><trkpt lat="43.8563931" lon="16.7995082"><ele>716.0</ele><time>2026-04-28T10:45:35.327Z</time></trkpt><trkpt lat="43.8562172" lon="16.7996276"><ele>716.0</ele><time>2026-04-28T10:45:36.326Z</time></trkpt><trkpt lat="43.8560434" lon="16.7997534"><ele>716.0</ele><time>2026-04-28T10:45:37.327Z</time></trkpt><trkpt lat="43.8558827" lon="16.7999019"><ele>716.0</ele><time>2026-04-28T10:45:38.326Z</time></trkpt><trkpt lat="43.855723" lon="16.8000572"><ele>716.0</ele><time>2026-04-28T10:45:39.326Z</time></trkpt><trkpt lat="43.8555766" lon="16.8002326"><ele>716.0</ele><time>2026-04-28T10:45:40.327Z</time></trkpt><trkpt lat="43.8554157" lon="16.8003899"><ele>715.3333333333333</ele><time>2026-04-28T10:45:41.327Z</time></trkpt><trkpt lat="43.8552436" lon="16.8005414"><ele>714.6666666666666</ele><time>2026-04-28T10:45:42.327Z</time></trkpt><trkpt lat="43.8550674" lon="16.8006583"><ele>714.0</ele><time>2026-04-28T10:45:43.327Z</time></trkpt><trkpt lat="43.8548893" lon="16.8007663"><ele>714.0</ele><time>2026-04-28T10:45:44.326Z</time></trkpt><trkpt lat="43.8547066" lon="16.8008781"><ele>714.0</ele><time>2026-04-28T10:45:45.326Z</time></trkpt><trkpt lat="43.8545269" lon="16.8009865"><ele>714.0</ele><time>2026-04-28T10:45:46.326Z</time></trkpt><trkpt lat="43.8543478" lon="16.8010988"><ele>713.6666666666666</ele><time>2026-04-28T10:45:47.327Z</time></trkpt><trkpt lat="43.8541776" lon="16.8012333"><ele>713.3333333333333</ele><time>2026-04-28T10:45:48.326Z</time></trkpt><trkpt lat="43.85401" lon="16.8013843"><ele>713.0</ele><time>2026-04-28T10:45:49.327Z</time></trkpt><trkpt lat="43.8538496" lon="16.8015484"><ele>713.0</ele><time>2026-04-28T10:45:50.327Z</time></trkpt><trkpt lat="43.8537" lon="16.8017167"><ele>713.0</ele><time>2026-04-28T10:45:51.326Z</time></trkpt><trkpt lat="43.8535462" lon="16.8018836"><ele>713.0</ele><time>2026-04-28T10:45:52.326Z</time></trkpt><trkpt lat="43.8533885" lon="16.8020363"><ele>712.6666666666666</ele><time>2026-04-28T10:45:53.327Z</time></trkpt><trkpt lat="43.8532251" lon="16.8021715"><ele>712.3333333333334</ele><time>2026-04-28T10:45:54.326Z</time></trkpt><trkpt lat="43.8530573" lon="16.8022915"><ele>712.0</ele><time>2026-04-28T10:45:55.326Z</time></trkpt><trkpt lat="43.8528819" lon="16.8023979"><ele>712.0</ele><time>2026-04-28T10:45:56.326Z</time></trkpt><trkpt lat="43.8526991" lon="16.8025026"><ele>712.0</ele><time>2026-04-28T10:45:57.326Z</time></trkpt><trkpt lat="43.852518" lon="16.8026057"><ele>712.0</ele><time>2026-04-28T10:45:58.327Z</time></trkpt><trkpt lat="43.8523403" lon="16.8027152"><ele>712.6666666666667</ele><time>2026-04-28T10:45:59.326Z</time></trkpt><trkpt lat="43.8521678" lon="16.8028461"><ele>713.3333333333334</ele><time>2026-04-28T10:46:00.326Z</time></trkpt><trkpt lat="43.8520067" lon="16.8029937"><ele>714.0</ele><time>2026-04-28T10:46:01.326Z</time></trkpt><trkpt lat="43.8518553" lon="16.8031551"><ele>714.0</ele><time>2026-04-28T10:46:02.327Z</time></trkpt><trkpt lat="43.8517122" lon="16.803325"><ele>714.0</ele><time>2026-04-28T10:46:03.326Z</time></trkpt><trkpt lat="43.8515728" lon="16.8034979"><ele>714.0</ele><time>2026-04-28T10:46:04.327Z</time></trkpt><trkpt lat="43.8514341" lon="16.8036595"><ele>714.3333333333334</ele><time>2026-04-28T10:46:05.326Z</time></trkpt><trkpt lat="43.8512989" lon="16.8037991"><ele>714.6666666666667</ele><time>2026-04-28T10:46:06.327Z</time></trkpt><trkpt lat="43.851164" lon="16.8039214"><ele>715.0</ele><time>2026-04-28T10:46:07.326Z</time></trkpt><trkpt lat="43.8510255" lon="16.8040361"><ele>715.3333333333334</ele><time>2026-04-28T10:46:08.326Z</time></trkpt><trkpt lat="43.8508863" lon="16.8041507"><ele>715.6666666666666</ele><time>2026-04-28T10:46:09.326Z</time></trkpt><trkpt lat="43.8507477" lon="16.8042663"><ele>716.0</ele><time>2026-04-28T10:46:10.326Z</time></trkpt><trkpt lat="43.8506136" lon="16.8043823"><ele>716.0</ele><time>2026-04-28T10:46:11.326Z</time></trkpt><trkpt lat="43.8504767" lon="16.8045099"><ele>716.0</ele><time>2026-04-28T10:46:12.327Z</time></trkpt><trkpt lat="43.8503399" lon="16.8046248"><ele>716.0</ele><time>2026-04-28T10:46:13.326Z</time></trkpt><trkpt lat="43.850203" lon="16.8047493"><ele>715.0</ele><time>2026-04-28T10:46:14.326Z</time></trkpt><trkpt lat="43.8500643" lon="16.8048556"><ele>714.0</ele><time>2026-04-28T10:46:15.326Z</time></trkpt><trkpt lat="43.8497624" lon="16.8050437"><ele>714.0</ele><time>2026-04-28T10:46:17.326Z</time></trkpt><trkpt lat="43.849607" lon="16.8051274"><ele>714.0</ele><time>2026-04-28T10:46:18.326Z</time></trkpt><trkpt lat="43.849447" lon="16.8051978"><ele>714.0</ele><time>2026-04-28T10:46:19.326Z</time></trkpt><trkpt lat="43.8492828" lon="16.8052655"><ele>712.6666666666666</ele><time>2026-04-28T10:46:20.327Z</time></trkpt><trkpt lat="43.8491199" lon="16.805333"><ele>711.3333333333333</ele><time>2026-04-28T10:46:21.326Z</time></trkpt><trkpt lat="43.848955" lon="16.8053975"><ele>710.0</ele><time>2026-04-28T10:46:22.326Z</time></trkpt><trkpt lat="43.8487817" lon="16.8054634"><ele>710.0</ele><time>2026-04-28T10:46:23.326Z</time></trkpt><trkpt lat="43.8486213" lon="16.8055304"><ele>710.0</ele><time>2026-04-28T10:46:24.327Z</time></trkpt><trkpt lat="43.8484524" lon="16.8055971"><ele>710.0</ele><time>2026-04-28T10:46:25.326Z</time></trkpt><trkpt lat="43.8482782" lon="16.8056617"><ele>710.3333333333333</ele><time>2026-04-28T10:46:26.326Z</time></trkpt><trkpt lat="43.8481035" lon="16.8057274"><ele>710.6666666666666</ele><time>2026-04-28T10:46:27.326Z</time></trkpt><trkpt lat="43.847926" lon="16.8057946"><ele>711.0</ele><time>2026-04-28T10:46:28.326Z</time></trkpt><trkpt lat="43.847747" lon="16.8058673"><ele>711.0</ele><time>2026-04-28T10:46:29.326Z</time></trkpt><trkpt lat="43.8475675" lon="16.8059371"><ele>711.0</ele><time>2026-04-28T10:46:30.327Z</time></trkpt><trkpt lat="43.8473867" lon="16.8060105"><ele>711.0</ele><time>2026-04-28T10:46:31.326Z</time></trkpt><trkpt lat="43.8472088" lon="16.8060857"><ele>711.6666666666666</ele><time>2026-04-28T10:46:32.326Z</time></trkpt><trkpt lat="43.8470297" lon="16.8061572"><ele>712.3333333333333</ele><time>2026-04-28T10:46:33.327Z</time></trkpt><trkpt lat="43.8468492" lon="16.8062293"><ele>713.0</ele><time>2026-04-28T10:46:34.326Z</time></trkpt><trkpt lat="43.8466708" lon="16.8063003"><ele>713.6666666666666</ele><time>2026-04-28T10:46:35.326Z</time></trkpt><trkpt lat="43.8464875" lon="16.8063681"><ele>714.3333333333334</ele><time>2026-04-28T10:46:36.326Z</time></trkpt><trkpt lat="43.8463067" lon="16.8064356"><ele>715.0</ele><time>2026-04-28T10:46:37.326Z</time></trkpt><trkpt lat="43.8461276" lon="16.8065027"><ele>715.3333333333334</ele><time>2026-04-28T10:46:38.326Z</time></trkpt><trkpt lat="43.8459506" lon="16.8065686"><ele>715.6666666666666</ele><time>2026-04-28T10:46:39.326Z</time></trkpt><trkpt lat="43.8457735" lon="16.8066375"><ele>716.0</ele><time>2026-04-28T10:46:40.326Z</time></trkpt><trkpt lat="43.8455978" lon="16.8067065"><ele>716.0</ele><time>2026-04-28T10:46:41.327Z</time></trkpt><trkpt lat="43.8454262" lon="16.8067782"><ele>716.0</ele><time>2026-04-28T10:46:42.326Z</time></trkpt><trkpt lat="43.8452587" lon="16.8068583"><ele>716.0</ele><time>2026-04-28T10:46:43.326Z</time></trkpt><trkpt lat="43.8450891" lon="16.8069439"><ele>716.0</ele><time>2026-04-28T10:46:44.326Z</time></trkpt><trkpt lat="43.8449215" lon="16.8070374"><ele>716.0</ele><time>2026-04-28T10:46:45.327Z</time></trkpt><trkpt lat="43.8447558" lon="16.8071335"><ele>716.0</ele><time>2026-04-28T10:46:46.326Z</time></trkpt><trkpt lat="43.8445858" lon="16.8072306"><ele>716.0</ele><time>2026-04-28T10:46:47.327Z</time></trkpt><trkpt lat="43.8444145" lon="16.8073221"><ele>716.0</ele><time>2026-04-28T10:46:48.326Z</time></trkpt><trkpt lat="43.8442408" lon="16.8074044"><ele>716.0</ele><time>2026-04-28T10:46:49.326Z</time></trkpt><trkpt lat="43.8440662" lon="16.8074805"><ele>715.3333333333333</ele><time>2026-04-28T10:46:50.327Z</time></trkpt><trkpt lat="43.8438879" lon="16.8075507"><ele>714.6666666666666</ele><time>2026-04-28T10:46:51.327Z</time></trkpt><trkpt lat="43.8437063" lon="16.8076196"><ele>714.0</ele><time>2026-04-28T10:46:52.327Z</time></trkpt><trkpt lat="43.8435196" lon="16.8076942"><ele>713.3333333333334</ele><time>2026-04-28T10:46:53.327Z</time></trkpt><trkpt lat="43.8433356" lon="16.8077638"><ele>712.6666666666667</ele><time>2026-04-28T10:46:54.326Z</time></trkpt><trkpt lat="43.8431518" lon="16.8078293"><ele>712.0</ele><time>2026-04-28T10:46:55.326Z</time></trkpt><trkpt lat="43.8429657" lon="16.8078984"><ele>712.0</ele><time>2026-04-28T10:46:56.327Z</time></trkpt><trkpt lat="43.8427796" lon="16.8079677"><ele>712.0</ele><time>2026-04-28T10:46:57.326Z</time></trkpt><trkpt lat="43.8425915" lon="16.8080471"><ele>712.0</ele><time>2026-04-28T10:46:58.326Z</time></trkpt><trkpt lat="43.8424093" lon="16.8081351"><ele>712.3333333333334</ele><time>2026-04-28T10:46:59.326Z</time></trkpt><trkpt lat="43.8422264" lon="16.8082383"><ele>712.6666666666666</ele><time>2026-04-28T10:47:00.326Z</time></trkpt><trkpt lat="43.8420471" lon="16.8083422"><ele>713.0</ele><time>2026-04-28T10:47:01.326Z</time></trkpt><trkpt lat="43.8418684" lon="16.8084473"><ele>714.6666666666666</ele><time>2026-04-28T10:47:02.326Z</time></trkpt><trkpt lat="43.8416926" lon="16.8085703"><ele>716.3333333333334</ele><time>2026-04-28T10:47:03.327Z</time></trkpt><trkpt lat="43.84152" lon="16.8087024"><ele>718.0</ele><time>2026-04-28T10:47:04.326Z</time></trkpt><trkpt lat="43.8413505" lon="16.8088436"><ele>718.0</ele><time>2026-04-28T10:47:05.326Z</time></trkpt><trkpt lat="43.8411854" lon="16.8089903"><ele>718.0</ele><time>2026-04-28T10:47:06.327Z</time></trkpt><trkpt lat="43.8410208" lon="16.8091412"><ele>718.0</ele><time>2026-04-28T10:47:07.326Z</time></trkpt><trkpt lat="43.8408601" lon="16.809291"><ele>717.0</ele><time>2026-04-28T10:47:08.327Z</time></trkpt><trkpt lat="43.8406945" lon="16.8094448"><ele>716.0</ele><time>2026-04-28T10:47:09.326Z</time></trkpt><trkpt lat="43.8405372" lon="16.8096054"><ele>715.0</ele><time>2026-04-28T10:47:10.326Z</time></trkpt><trkpt lat="43.8403806" lon="16.8097719"><ele>715.0</ele><time>2026-04-28T10:47:11.326Z</time></trkpt><trkpt lat="43.8402292" lon="16.8099501"><ele>715.0</ele><time>2026-04-28T10:47:12.327Z</time></trkpt><trkpt lat="43.8400794" lon="16.8101218"><ele>715.0</ele><time>2026-04-28T10:47:13.326Z</time></trkpt><trkpt lat="43.8399311" lon="16.8103039"><ele>714.6666666666667</ele><time>2026-04-28T10:47:14.327Z</time></trkpt><trkpt lat="43.8397844" lon="16.8104846"><ele>714.3333333333334</ele><time>2026-04-28T10:47:15.326Z</time></trkpt><trkpt lat="43.8396337" lon="16.8106564"><ele>714.0</ele><time>2026-04-28T10:47:16.326Z</time></trkpt><trkpt lat="43.8394814" lon="16.8108257"><ele>714.0</ele><time>2026-04-28T10:47:17.327Z</time></trkpt><trkpt lat="43.8393199" lon="16.8109796"><ele>714.0</ele><time>2026-04-28T10:47:18.326Z</time></trkpt><trkpt lat="43.8391593" lon="16.8111245"><ele>714.0</ele><time>2026-04-28T10:47:19.326Z</time></trkpt><trkpt lat="43.8389948" lon="16.8112714"><ele>713.3333333333334</ele><time>2026-04-28T10:47:20.326Z</time></trkpt><trkpt lat="43.8388261" lon="16.8114008"><ele>712.6666666666667</ele><time>2026-04-28T10:47:21.326Z</time></trkpt><trkpt lat="43.8386482" lon="16.8115196"><ele>712.0</ele><time>2026-04-28T10:47:22.326Z</time></trkpt><trkpt lat="43.8384648" lon="16.8116145"><ele>711.3333333333334</ele><time>2026-04-28T10:47:23.327Z</time></trkpt><trkpt lat="43.8382772" lon="16.8116783"><ele>710.6666666666666</ele><time>2026-04-28T10:47:24.327Z</time></trkpt><trkpt lat="43.8380852" lon="16.8117188"><ele>710.0</ele><time>2026-04-28T10:47:25.327Z</time></trkpt><trkpt lat="43.8378955" lon="16.8117449"><ele>710.0</ele><time>2026-04-28T10:47:26.326Z</time></trkpt><trkpt lat="43.8377065" lon="16.8117735"><ele>710.0</ele><time>2026-04-28T10:47:27.327Z</time></trkpt><trkpt lat="43.8375227" lon="16.8118115"><ele>710.0</ele><time>2026-04-28T10:47:28.327Z</time></trkpt><trkpt lat="43.8373357" lon="16.8118643"><ele>709.3333333333333</ele><time>2026-04-28T10:47:29.327Z</time></trkpt><trkpt lat="43.8371565" lon="16.8119237"><ele>708.6666666666666</ele><time>2026-04-28T10:47:30.326Z</time></trkpt><trkpt lat="43.8369795" lon="16.8120049"><ele>708.0</ele><time>2026-04-28T10:47:31.326Z</time></trkpt><trkpt lat="43.8368045" lon="16.8120982"><ele>708.0</ele><time>2026-04-28T10:47:32.327Z</time></trkpt><trkpt lat="43.8366295" lon="16.8121996"><ele>708.0</ele><time>2026-04-28T10:47:33.327Z</time></trkpt><trkpt lat="43.8364553" lon="16.8123085"><ele>708.0</ele><time>2026-04-28T10:47:34.326Z</time></trkpt><trkpt lat="43.8362799" lon="16.8124161"><ele>708.0</ele><time>2026-04-28T10:47:35.326Z</time></trkpt><trkpt lat="43.8361023" lon="16.8125169"><ele>708.0</ele><time>2026-04-28T10:47:36.327Z</time></trkpt><trkpt lat="43.8359253" lon="16.8126209"><ele>708.0</ele><time>2026-04-28T10:47:37.326Z</time></trkpt><trkpt lat="43.8357444" lon="16.8127234"><ele>708.3333333333334</ele><time>2026-04-28T10:47:38.326Z</time></trkpt><trkpt lat="43.8355631" lon="16.8128209"><ele>708.6666666666667</ele><time>2026-04-28T10:47:39.326Z</time></trkpt><trkpt lat="43.8353821" lon="16.8129281"><ele>709.0</ele><time>2026-04-28T10:47:40.326Z</time></trkpt><trkpt lat="43.835201" lon="16.8130308"><ele>707.6666666666667</ele><time>2026-04-28T10:47:41.327Z</time></trkpt><trkpt lat="43.8350184" lon="16.8131284"><ele>706.3333333333334</ele><time>2026-04-28T10:47:42.326Z</time></trkpt><trkpt lat="43.8348364" lon="16.8132331"><ele>705.0</ele><time>2026-04-28T10:47:43.326Z</time></trkpt><trkpt lat="43.8346528" lon="16.813339"><ele>705.0</ele><time>2026-04-28T10:47:44.326Z</time></trkpt><trkpt lat="43.834468" lon="16.8134443"><ele>705.0</ele><time>2026-04-28T10:47:45.326Z</time></trkpt><trkpt lat="43.8342808" lon="16.8135525"><ele>705.0</ele><time>2026-04-28T10:47:46.326Z</time></trkpt><trkpt lat="43.8340912" lon="16.8136583"><ele>704.3333333333334</ele><time>2026-04-28T10:47:47.326Z</time></trkpt><trkpt lat="43.8339001" lon="16.8137554"><ele>703.6666666666667</ele><time>2026-04-28T10:47:48.326Z</time></trkpt><trkpt lat="43.8337078" lon="16.8138461"><ele>703.0</ele><time>2026-04-28T10:47:49.326Z</time></trkpt><trkpt lat="43.833514" lon="16.8139203"><ele>703.3333333333334</ele><time>2026-04-28T10:47:50.326Z</time></trkpt><trkpt lat="43.8333235" lon="16.8139825"><ele>703.6666666666666</ele><time>2026-04-28T10:47:51.327Z</time></trkpt><trkpt lat="43.8331316" lon="16.8140206"><ele>704.0</ele><time>2026-04-28T10:47:52.326Z</time></trkpt><trkpt lat="43.832941" lon="16.814033"><ele>704.0</ele><time>2026-04-28T10:47:53.327Z</time></trkpt><trkpt lat="43.8327465" lon="16.8140366"><ele>704.0</ele><time>2026-04-28T10:47:54.327Z</time></trkpt><trkpt lat="43.8325552" lon="16.8140193"><ele>704.0</ele><time>2026-04-28T10:47:55.326Z</time></trkpt><trkpt lat="43.8323589" lon="16.813993"><ele>704.0</ele><time>2026-04-28T10:47:56.326Z</time></trkpt><trkpt lat="43.8321644" lon="16.8139627"><ele>704.0</ele><time>2026-04-28T10:47:57.326Z</time></trkpt><trkpt lat="43.8319775" lon="16.8139312"><ele>704.0</ele><time>2026-04-28T10:47:58.327Z</time></trkpt><trkpt lat="43.8317876" lon="16.8138886"><ele>704.0</ele><time>2026-04-28T10:47:59.326Z</time></trkpt><trkpt lat="43.8316023" lon="16.813827"><ele>704.0</ele><time>2026-04-28T10:48:00.327Z</time></trkpt><trkpt lat="43.8314219" lon="16.8137539"><ele>704.0</ele><time>2026-04-28T10:48:01.326Z</time></trkpt><trkpt lat="43.8312472" lon="16.8136697"><ele>704.0</ele><time>2026-04-28T10:48:02.327Z</time></trkpt><trkpt lat="43.8310747" lon="16.8135786"><ele>704.0</ele><time>2026-04-28T10:48:03.327Z</time></trkpt><trkpt lat="43.8309105" lon="16.8134834"><ele>704.0</ele><time>2026-04-28T10:48:04.326Z</time></trkpt><trkpt lat="43.8307499" lon="16.8133828"><ele>705.3333333333333</ele><time>2026-04-28T10:48:05.326Z</time></trkpt><trkpt lat="43.8305865" lon="16.8132917"><ele>706.6666666666666</ele><time>2026-04-28T10:48:06.327Z</time></trkpt><trkpt lat="43.8304258" lon="16.8131951"><ele>708.0</ele><time>2026-04-28T10:48:07.326Z</time></trkpt><trkpt lat="43.8302659" lon="16.8131052"><ele>707.6666666666666</ele><time>2026-04-28T10:48:08.326Z</time></trkpt><trkpt lat="43.8301097" lon="16.8130261"><ele>707.3333333333333</ele><time>2026-04-28T10:48:09.326Z</time></trkpt><trkpt lat="43.8299474" lon="16.8129689"><ele>707.0</ele><time>2026-04-28T10:48:10.326Z</time></trkpt><trkpt lat="43.8297825" lon="16.8129485"><ele>707.0</ele><time>2026-04-28T10:48:11.327Z</time></trkpt><trkpt lat="43.8296261" lon="16.8129749"><ele>707.0</ele><time>2026-04-28T10:48:12.327Z</time></trkpt><trkpt lat="43.8294701" lon="16.8130509"><ele>707.0</ele><time>2026-04-28T10:48:13.326Z</time></trkpt><trkpt lat="43.8293139" lon="16.8131696"><ele>708.0</ele><time>2026-04-28T10:48:14.327Z</time></trkpt><trkpt lat="43.829163" lon="16.813299"><ele>709.0</ele><time>2026-04-28T10:48:15.326Z</time></trkpt><trkpt lat="43.8290005" lon="16.8134323"><ele>710.0</ele><time>2026-04-28T10:48:16.326Z</time></trkpt><trkpt lat="43.828845" lon="16.8135728"><ele>710.0</ele><time>2026-04-28T10:48:17.326Z</time></trkpt><trkpt lat="43.8286869" lon="16.8137036"><ele>710.0</ele><time>2026-04-28T10:48:18.327Z</time></trkpt><trkpt lat="43.828527" lon="16.8138206"><ele>710.0</ele><time>2026-04-28T10:48:19.326Z</time></trkpt><trkpt lat="43.8283544" lon="16.8139026"><ele>714.6666666666666</ele><time>2026-04-28T10:48:20.326Z</time></trkpt><trkpt lat="43.8281739" lon="16.8139446"><ele>719.3333333333334</ele><time>2026-04-28T10:48:21.326Z</time></trkpt><trkpt lat="43.8279794" lon="16.8139701"><ele>724.0</ele><time>2026-04-28T10:48:22.326Z</time></trkpt><trkpt lat="43.827783" lon="16.813986"><ele>725.6666666666667</ele><time>2026-04-28T10:48:23.327Z</time></trkpt><trkpt lat="43.8275826" lon="16.8139897"><ele>727.3333333333334</ele><time>2026-04-28T10:48:24.327Z</time></trkpt><trkpt lat="43.827389" lon="16.8140004"><ele>729.0</ele><time>2026-04-28T10:48:25.327Z</time></trkpt><trkpt lat="43.8271953" lon="16.8140437"><ele>729.0</ele><time>2026-04-28T10:48:26.327Z</time></trkpt><trkpt lat="43.827009" lon="16.8141378"><ele>729.0</ele><time>2026-04-28T10:48:27.326Z</time></trkpt><trkpt lat="43.8268327" lon="16.8142518"><ele>729.0</ele><time>2026-04-28T10:48:28.326Z</time></trkpt><trkpt lat="43.8266535" lon="16.8143707"><ele>725.0</ele><time>2026-04-28T10:48:29.326Z</time></trkpt><trkpt lat="43.8264622" lon="16.814449"><ele>721.0</ele><time>2026-04-28T10:48:30.326Z</time></trkpt><trkpt lat="43.8262697" lon="16.8144819"><ele>717.0</ele><time>2026-04-28T10:48:31.326Z</time></trkpt><trkpt lat="43.826066" lon="16.8144969"><ele>721.3333333333334</ele><time>2026-04-28T10:48:32.327Z</time></trkpt><trkpt lat="43.8258701" lon="16.814502"><ele>725.6666666666667</ele><time>2026-04-28T10:48:33.326Z</time></trkpt><trkpt lat="43.8256671" lon="16.8145464"><ele>730.0</ele><time>2026-04-28T10:48:34.326Z</time></trkpt><trkpt lat="43.8254735" lon="16.8146446"><ele>730.0</ele><time>2026-04-28T10:48:35.327Z</time></trkpt><trkpt lat="43.8252997" lon="16.8147585"><ele>730.0</ele><time>2026-04-28T10:48:36.326Z</time></trkpt><trkpt lat="43.8251373" lon="16.8148787"><ele>730.0</ele><time>2026-04-28T10:48:37.326Z</time></trkpt><trkpt lat="43.8249785" lon="16.8149708"><ele>735.0</ele><time>2026-04-28T10:48:38.326Z</time></trkpt><trkpt lat="43.8248094" lon="16.8150637"><ele>740.0</ele><time>2026-04-28T10:48:39.327Z</time></trkpt><trkpt lat="43.8246339" lon="16.8151137"><ele>745.0</ele><time>2026-04-28T10:48:40.326Z</time></trkpt><trkpt lat="43.8244465" lon="16.8151484"><ele>740.0</ele><time>2026-04-28T10:48:41.326Z</time></trkpt><trkpt lat="43.8242557" lon="16.8151775"><ele>735.0</ele><time>2026-04-28T10:48:42.326Z</time></trkpt><trkpt lat="43.824065" lon="16.8152036"><ele>730.0</ele><time>2026-04-28T10:48:43.326Z</time></trkpt><trkpt lat="43.8238755" lon="16.815224"><ele>730.0</ele><time>2026-04-28T10:48:44.327Z</time></trkpt><trkpt lat="43.8236877" lon="16.8152416"><ele>730.0</ele><time>2026-04-28T10:48:45.326Z</time></trkpt><trkpt lat="43.8234962" lon="16.815253"><ele>730.0</ele><time>2026-04-28T10:48:46.326Z</time></trkpt><trkpt lat="43.8233141" lon="16.8152283"><ele>732.3333333333334</ele><time>2026-04-28T10:48:47.326Z</time></trkpt><trkpt lat="43.823132" lon="16.8151752"><ele>734.6666666666666</ele><time>2026-04-28T10:48:48.326Z</time></trkpt><trkpt lat="43.822963" lon="16.815115"><ele>737.0</ele><time>2026-04-28T10:48:49.326Z</time></trkpt><trkpt lat="43.8227958" lon="16.8150856"><ele>737.0</ele><time>2026-04-28T10:48:50.326Z</time></trkpt><trkpt lat="43.822627" lon="16.8151021"><ele>737.0</ele><time>2026-04-28T10:48:51.326Z</time></trkpt><trkpt lat="43.822466" lon="16.8151663"><ele>737.0</ele><time>2026-04-28T10:48:52.326Z</time></trkpt><trkpt lat="43.8223157" lon="16.8152782"><ele>737.0</ele><time>2026-04-28T10:48:53.326Z</time></trkpt><trkpt lat="43.8221679" lon="16.8153937"><ele>737.0</ele><time>2026-04-28T10:48:54.326Z</time></trkpt><trkpt lat="43.8220152" lon="16.8154708"><ele>737.0</ele><time>2026-04-28T10:48:55.327Z</time></trkpt><trkpt lat="43.8218591" lon="16.8155158"><ele>740.3333333333333</ele><time>2026-04-28T10:48:56.327Z</time></trkpt><trkpt lat="43.8217012" lon="16.8155428"><ele>743.6666666666666</ele><time>2026-04-28T10:48:57.327Z</time></trkpt><trkpt lat="43.8215471" lon="16.8155138"><ele>747.0</ele><time>2026-04-28T10:48:58.326Z</time></trkpt><trkpt lat="43.8213987" lon="16.8154902"><ele>747.0</ele><time>2026-04-28T10:48:59.326Z</time></trkpt><trkpt lat="43.8212494" lon="16.8154965"><ele>747.0</ele><time>2026-04-28T10:49:00.326Z</time></trkpt><trkpt lat="43.8211087" lon="16.8155577"><ele>747.0</ele><time>2026-04-28T10:49:01.327Z</time></trkpt><trkpt lat="43.8209784" lon="16.8156518"><ele>747.0</ele><time>2026-04-28T10:49:02.327Z</time></trkpt><trkpt lat="43.8208638" lon="16.8157804"><ele>745.0</ele><time>2026-04-28T10:49:03.326Z</time></trkpt><trkpt lat="43.8207441" lon="16.8159152"><ele>743.0</ele><time>2026-04-28T10:49:04.326Z</time></trkpt><trkpt lat="43.8206286" lon="16.8160551"><ele>741.0</ele><time>2026-04-28T10:49:05.326Z</time></trkpt><trkpt lat="43.8205085" lon="16.8161831"><ele>741.0</ele><time>2026-04-28T10:49:06.327Z</time></trkpt><trkpt lat="43.8203768" lon="16.8162855"><ele>741.0</ele><time>2026-04-28T10:49:07.327Z</time></trkpt><trkpt lat="43.8202439" lon="16.8163682"><ele>741.0</ele><time>2026-04-28T10:49:08.326Z</time></trkpt><trkpt lat="43.8201032" lon="16.8164503"><ele>741.0</ele><time>2026-04-28T10:49:09.326Z</time></trkpt><trkpt lat="43.8199568" lon="16.816531"><ele>747.3333333333334</ele><time>2026-04-28T10:49:10.327Z</time></trkpt><trkpt lat="43.8198066" lon="16.816615"><ele>753.6666666666667</ele><time>2026-04-28T10:49:11.327Z</time></trkpt><trkpt lat="43.8196536" lon="16.8166993"><ele>760.0</ele><time>2026-04-28T10:49:12.326Z</time></trkpt><trkpt lat="43.8195097" lon="16.8167879"><ele>758.0</ele><time>2026-04-28T10:49:13.326Z</time></trkpt><trkpt lat="43.8193677" lon="16.816875"><ele>756.0</ele><time>2026-04-28T10:49:14.326Z</time></trkpt><trkpt lat="43.819235" lon="16.8169605"><ele>754.0</ele><time>2026-04-28T10:49:15.327Z</time></trkpt><trkpt lat="43.8191033" lon="16.817045"><ele>752.0</ele><time>2026-04-28T10:49:16.327Z</time></trkpt><trkpt lat="43.818971" lon="16.8171247"><ele>752.0</ele><time>2026-04-28T10:49:17.327Z</time></trkpt><trkpt lat="43.8188342" lon="16.8172154"><ele>752.0</ele><time>2026-04-28T10:49:18.326Z</time></trkpt><trkpt lat="43.8187019" lon="16.8173235"><ele>752.0</ele><time>2026-04-28T10:49:19.327Z</time></trkpt><trkpt lat="43.8185747" lon="16.8174345"><ele>755.0</ele><time>2026-04-28T10:49:20.326Z</time></trkpt><trkpt lat="43.8184527" lon="16.8175576"><ele>758.0</ele><time>2026-04-28T10:49:21.326Z</time></trkpt><trkpt lat="43.8183327" lon="16.8176746"><ele>761.0</ele><time>2026-04-28T10:49:22.327Z</time></trkpt><trkpt lat="43.8182127" lon="16.8177922"><ele>764.0</ele><time>2026-04-28T10:49:23.326Z</time></trkpt><trkpt lat="43.8180926" lon="16.8179035"><ele>761.0</ele><time>2026-04-28T10:49:24.327Z</time></trkpt><trkpt lat="43.8179714" lon="16.8180026"><ele>758.0</ele><time>2026-04-28T10:49:25.326Z</time></trkpt><trkpt lat="43.8178384" lon="16.8180941"><ele>755.0</ele><time>2026-04-28T10:49:26.327Z</time></trkpt><trkpt lat="43.817691" lon="16.818166"><ele>752.0</ele><time>2026-04-28T10:49:27.326Z</time></trkpt><trkpt lat="43.8175446" lon="16.8182403"><ele>752.0</ele><time>2026-04-28T10:49:28.326Z</time></trkpt><trkpt lat="43.8173877" lon="16.8183103"><ele>752.0</ele><time>2026-04-28T10:49:29.327Z</time></trkpt><trkpt lat="43.8172339" lon="16.8183841"><ele>752.0</ele><time>2026-04-28T10:49:30.326Z</time></trkpt><trkpt lat="43.8170756" lon="16.8184493"><ele>746.3333333333333</ele><time>2026-04-28T10:49:31.326Z</time></trkpt><trkpt lat="43.8169182" lon="16.8185365"><ele>740.6666666666666</ele><time>2026-04-28T10:49:32.326Z</time></trkpt><trkpt lat="43.8167593" lon="16.8186411"><ele>735.0</ele><time>2026-04-28T10:49:33.327Z</time></trkpt><trkpt lat="43.8166058" lon="16.8187613"><ele>735.0</ele><time>2026-04-28T10:49:34.326Z</time></trkpt><trkpt lat="43.8164501" lon="16.8188779"><ele>735.0</ele><time>2026-04-28T10:49:35.326Z</time></trkpt><trkpt lat="43.8163068" lon="16.8190011"><ele>735.0</ele><time>2026-04-28T10:49:36.327Z</time></trkpt><trkpt lat="43.8161546" lon="16.8191114"><ele>735.0</ele><time>2026-04-28T10:49:37.326Z</time></trkpt><trkpt lat="43.8159959" lon="16.8192083"><ele>735.0</ele><time>2026-04-28T10:49:38.326Z</time></trkpt><trkpt lat="43.815835" lon="16.8192844"><ele>735.0</ele><time>2026-04-28T10:49:39.326Z</time></trkpt><trkpt lat="43.8156706" lon="16.8193498"><ele>731.6666666666666</ele><time>2026-04-28T10:49:40.326Z</time></trkpt><trkpt lat="43.8155022" lon="16.819415"><ele>728.3333333333333</ele><time>2026-04-28T10:49:41.326Z</time></trkpt><trkpt lat="43.8153374" lon="16.8194888"><ele>725.0</ele><time>2026-04-28T10:49:42.326Z</time></trkpt><trkpt lat="43.8151702" lon="16.8195895"><ele>727.3333333333333</ele><time>2026-04-28T10:49:43.326Z</time></trkpt><trkpt lat="43.815016" lon="16.8197231"><ele>729.6666666666666</ele><time>2026-04-28T10:49:44.327Z</time></trkpt><trkpt lat="43.8148665" lon="16.819878"><ele>732.0</ele><time>2026-04-28T10:49:45.327Z</time></trkpt><trkpt lat="43.814722" lon="16.8200312"><ele>729.6666666666666</ele><time>2026-04-28T10:49:46.327Z</time></trkpt><trkpt lat="43.8145787" lon="16.8201858"><ele>727.3333333333333</ele><time>2026-04-28T10:49:47.327Z</time></trkpt><trkpt lat="43.8144333" lon="16.8203448"><ele>725.0</ele><time>2026-04-28T10:49:48.326Z</time></trkpt><trkpt lat="43.8142892" lon="16.8204998"><ele>725.0</ele><time>2026-04-28T10:49:49.326Z</time></trkpt><trkpt lat="43.8141495" lon="16.8206368"><ele>725.0</ele><time>2026-04-28T10:49:50.327Z</time></trkpt><trkpt lat="43.8140064" lon="16.8207521"><ele>725.0</ele><time>2026-04-28T10:49:51.326Z</time></trkpt><trkpt lat="43.8138616" lon="16.8208259"><ele>725.0</ele><time>2026-04-28T10:49:52.326Z</time></trkpt><trkpt lat="43.8137076" lon="16.8208751"><ele>725.0</ele><time>2026-04-28T10:49:53.326Z</time></trkpt><trkpt lat="43.8135639" lon="16.8208806"><ele>725.0</ele><time>2026-04-28T10:49:54.326Z</time></trkpt><trkpt lat="43.8134194" lon="16.8208494"><ele>725.0</ele><time>2026-04-28T10:49:55.326Z</time></trkpt><trkpt lat="43.813273" lon="16.8208104"><ele>725.0</ele><time>2026-04-28T10:49:56.326Z</time></trkpt><trkpt lat="43.8131226" lon="16.8207711"><ele>725.0</ele><time>2026-04-28T10:49:57.327Z</time></trkpt><trkpt lat="43.812972" lon="16.8207285"><ele>725.0</ele><time>2026-04-28T10:49:58.326Z</time></trkpt><trkpt lat="43.8128146" lon="16.8206984"><ele>725.0</ele><time>2026-04-28T10:49:59.326Z</time></trkpt><trkpt lat="43.8126596" lon="16.8206908"><ele>725.0</ele><time>2026-04-28T10:50:00.327Z</time></trkpt><trkpt lat="43.8125127" lon="16.8207245"><ele>725.0</ele><time>2026-04-28T10:50:01.326Z</time></trkpt><trkpt lat="43.8123595" lon="16.8207664"><ele>723.3333333333333</ele><time>2026-04-28T10:50:02.326Z</time></trkpt><trkpt lat="43.8122045" lon="16.8208367"><ele>721.6666666666666</ele><time>2026-04-28T10:50:03.326Z</time></trkpt><trkpt lat="43.8120662" lon="16.8209379"><ele>720.0</ele><time>2026-04-28T10:50:04.326Z</time></trkpt><trkpt lat="43.8119205" lon="16.8210518"><ele>718.6666666666666</ele><time>2026-04-28T10:50:05.326Z</time></trkpt><trkpt lat="43.8117889" lon="16.8211838"><ele>717.3333333333333</ele><time>2026-04-28T10:50:06.327Z</time></trkpt><trkpt lat="43.8116653" lon="16.8213469"><ele>716.0</ele><time>2026-04-28T10:50:07.326Z</time></trkpt><trkpt lat="43.8115558" lon="16.8215213"><ele>716.0</ele><time>2026-04-28T10:50:08.327Z</time></trkpt><trkpt lat="43.8114434" lon="16.8217086"><ele>716.0</ele><time>2026-04-28T10:50:09.326Z</time></trkpt><trkpt lat="43.8113319" lon="16.821894"><ele>716.0</ele><time>2026-04-28T10:50:10.326Z</time></trkpt><trkpt lat="43.8112165" lon="16.8220818"><ele>715.0</ele><time>2026-04-28T10:50:11.326Z</time></trkpt><trkpt lat="43.8110961" lon="16.822276"><ele>714.0</ele><time>2026-04-28T10:50:12.326Z</time></trkpt><trkpt lat="43.8109809" lon="16.82247"><ele>713.0</ele><time>2026-04-28T10:50:13.327Z</time></trkpt><trkpt lat="43.8108633" lon="16.8226716"><ele>711.3333333333333</ele><time>2026-04-28T10:50:14.326Z</time></trkpt><trkpt lat="43.8107408" lon="16.8228689"><ele>709.6666666666666</ele><time>2026-04-28T10:50:15.326Z</time></trkpt><trkpt lat="43.8106148" lon="16.8230702"><ele>708.0</ele><time>2026-04-28T10:50:16.326Z</time></trkpt><trkpt lat="43.8104893" lon="16.8232736"><ele>708.0</ele><time>2026-04-28T10:50:17.326Z</time></trkpt><trkpt lat="43.8103625" lon="16.8234752"><ele>708.0</ele><time>2026-04-28T10:50:18.326Z</time></trkpt><trkpt lat="43.8102336" lon="16.8236802"><ele>708.0</ele><time>2026-04-28T10:50:19.326Z</time></trkpt><trkpt lat="43.8101018" lon="16.8238759"><ele>708.0</ele><time>2026-04-28T10:50:20.327Z</time></trkpt><trkpt lat="43.8099775" lon="16.8240784"><ele>708.0</ele><time>2026-04-28T10:50:21.327Z</time></trkpt><trkpt lat="43.8098629" lon="16.8242629"><ele>708.0</ele><time>2026-04-28T10:50:22.326Z</time></trkpt><trkpt lat="43.8097509" lon="16.8244457"><ele>708.0</ele><time>2026-04-28T10:50:23.326Z</time></trkpt><trkpt lat="43.8096412" lon="16.824618"><ele>708.0</ele><time>2026-04-28T10:50:24.327Z</time></trkpt><trkpt lat="43.8095287" lon="16.824786"><ele>708.0</ele><time>2026-04-28T10:50:25.327Z</time></trkpt><trkpt lat="43.8094207" lon="16.8249569"><ele>707.0</ele><time>2026-04-28T10:50:26.326Z</time></trkpt><trkpt lat="43.8093105" lon="16.8251315"><ele>706.0</ele><time>2026-04-28T10:50:27.327Z</time></trkpt><trkpt lat="43.8092091" lon="16.8253019"><ele>705.0</ele><time>2026-04-28T10:50:28.326Z</time></trkpt><trkpt lat="43.8091148" lon="16.8254676"><ele>704.75</ele><time>2026-04-28T10:50:29.326Z</time></trkpt><trkpt lat="43.8090216" lon="16.8256259"><ele>704.5</ele><time>2026-04-28T10:50:30.326Z</time></trkpt><trkpt lat="43.8089355" lon="16.8257716"><ele>704.25</ele><time>2026-04-28T10:50:31.326Z</time></trkpt><trkpt lat="43.8088551" lon="16.8258985"><ele>704.0</ele><time>2026-04-28T10:50:32.326Z</time></trkpt><trkpt lat="43.8087858" lon="16.8260231"><ele>703.8333333333333</ele><time>2026-04-28T10:50:33.326Z</time></trkpt><trkpt lat="43.8087363" lon="16.8261193"><ele>703.6666666666666</ele><time>2026-04-28T10:50:34.326Z</time></trkpt><trkpt lat="43.8086923" lon="16.8261873"><ele>703.5</ele><time>2026-04-28T10:50:35.326Z</time></trkpt><trkpt lat="43.8086148" lon="16.8262106"><ele>703.3333333333334</ele><time>2026-04-28T10:50:37.327Z</time></trkpt><trkpt lat="43.8085387" lon="16.826193"><ele>703.1666666666667</ele><time>2026-04-28T10:50:39.326Z</time></trkpt><trkpt lat="43.8084765" lon="16.8261753"><ele>703.0</ele><time>2026-04-28T10:50:41.327Z</time></trkpt><trkpt lat="43.8083765" lon="16.8261504"><ele>704.2</ele><time>2026-04-28T10:50:56.326Z</time></trkpt><trkpt lat="43.8082783" lon="16.8261244"><ele>705.4</ele><time>2026-04-28T10:50:58.326Z</time></trkpt><trkpt lat="43.8082012" lon="16.8261149"><ele>706.6</ele><time>2026-04-28T10:50:59.327Z</time></trkpt><trkpt lat="43.808107" lon="16.8261254"><ele>707.8000000000001</ele><time>2026-04-28T10:51:00.326Z</time></trkpt><trkpt lat="43.8080187" lon="16.8261471"><ele>709.0</ele><time>2026-04-28T10:51:01.326Z</time></trkpt><trkpt lat="43.8079213" lon="16.8261766"><ele>709.0</ele><time>2026-04-28T10:51:02.326Z</time></trkpt><trkpt lat="43.8078194" lon="16.8262136"><ele>709.0</ele><time>2026-04-28T10:51:03.326Z</time></trkpt><trkpt lat="43.8077119" lon="16.8262414"><ele>709.0</ele><time>2026-04-28T10:51:04.327Z</time></trkpt><trkpt lat="43.8075999" lon="16.8262761"><ele>709.0</ele><time>2026-04-28T10:51:05.326Z</time></trkpt><trkpt lat="43.8074789" lon="16.8263155"><ele>708.75</ele><time>2026-04-28T10:51:06.327Z</time></trkpt><trkpt lat="43.8073616" lon="16.8263427"><ele>708.5</ele><time>2026-04-28T10:51:07.326Z</time></trkpt><trkpt lat="43.8072361" lon="16.8263935"><ele>708.25</ele><time>2026-04-28T10:51:08.326Z</time></trkpt><trkpt lat="43.8071082" lon="16.8264435"><ele>708.0</ele><time>2026-04-28T10:51:09.326Z</time></trkpt><trkpt lat="43.8069847" lon="16.8264902"><ele>708.0</ele><time>2026-04-28T10:51:10.327Z</time></trkpt><trkpt lat="43.8068604" lon="16.8265596"><ele>708.0</ele><time>2026-04-28T10:51:11.326Z</time></trkpt><trkpt lat="43.8067289" lon="16.8266153"><ele>708.0</ele><time>2026-04-28T10:51:12.326Z</time></trkpt><trkpt lat="43.8065976" lon="16.8266894"><ele>708.0</ele><time>2026-04-28T10:51:13.327Z</time></trkpt><trkpt lat="43.8064765" lon="16.8267777"><ele>707.75</ele><time>2026-04-28T10:51:14.326Z</time></trkpt><trkpt lat="43.8063505" lon="16.8268609"><ele>707.5</ele><time>2026-04-28T10:51:15.326Z</time></trkpt><trkpt lat="43.8062201" lon="16.8269514"><ele>707.25</ele><time>2026-04-28T10:51:16.326Z</time></trkpt><trkpt lat="43.8060932" lon="16.8270388"><ele>707.0</ele><time>2026-04-28T10:51:17.326Z</time></trkpt><trkpt lat="43.8059721" lon="16.8271412"><ele>707.0</ele><time>2026-04-28T10:51:18.326Z</time></trkpt><trkpt lat="43.8058523" lon="16.8272495"><ele>707.0</ele><time>2026-04-28T10:51:19.327Z</time></trkpt><trkpt lat="43.8057316" lon="16.8273555"><ele>707.0</ele><time>2026-04-28T10:51:20.326Z</time></trkpt><trkpt lat="43.8056168" lon="16.8274406"><ele>707.0</ele><time>2026-04-28T10:51:21.326Z</time></trkpt><trkpt lat="43.8054985" lon="16.8275424"><ele>706.75</ele><time>2026-04-28T10:51:22.326Z</time></trkpt><trkpt lat="43.805384" lon="16.8276485"><ele>706.5</ele><time>2026-04-28T10:51:23.326Z</time></trkpt><trkpt lat="43.8052728" lon="16.8277726"><ele>706.25</ele><time>2026-04-28T10:51:24.327Z</time></trkpt><trkpt lat="43.8051647" lon="16.8278975"><ele>706.0</ele><time>2026-04-28T10:51:25.326Z</time></trkpt><trkpt lat="43.805059" lon="16.8280225"><ele>705.75</ele><time>2026-04-28T10:51:26.327Z</time></trkpt><trkpt lat="43.8049541" lon="16.828136"><ele>705.5</ele><time>2026-04-28T10:51:27.326Z</time></trkpt><trkpt lat="43.8048433" lon="16.8282555"><ele>705.25</ele><time>2026-04-28T10:51:28.326Z</time></trkpt><trkpt lat="43.8047442" lon="16.8283803"><ele>705.0</ele><time>2026-04-28T10:51:29.326Z</time></trkpt><trkpt lat="43.8046413" lon="16.8285091"><ele>705.0</ele><time>2026-04-28T10:51:30.326Z</time></trkpt><trkpt lat="43.8045335" lon="16.8286517"><ele>705.0</ele><time>2026-04-28T10:51:31.327Z</time></trkpt><trkpt lat="43.8044239" lon="16.828785"><ele>705.0</ele><time>2026-04-28T10:51:32.326Z</time></trkpt><trkpt lat="43.8043153" lon="16.8289226"><ele>705.0</ele><time>2026-04-28T10:51:33.327Z</time></trkpt><trkpt lat="43.8041962" lon="16.8290553"><ele>705.0</ele><time>2026-04-28T10:51:34.327Z</time></trkpt><trkpt lat="43.8040748" lon="16.829193"><ele>705.0</ele><time>2026-04-28T10:51:35.326Z</time></trkpt><trkpt lat="43.8039556" lon="16.8293292"><ele>705.0</ele><time>2026-04-28T10:51:36.327Z</time></trkpt><trkpt lat="43.8038421" lon="16.8294651"><ele>705.0</ele><time>2026-04-28T10:51:37.327Z</time></trkpt><trkpt lat="43.8037365" lon="16.8295876"><ele>705.0</ele><time>2026-04-28T10:51:38.326Z</time></trkpt><trkpt lat="43.8036361" lon="16.8297111"><ele>705.0</ele><time>2026-04-28T10:51:39.326Z</time></trkpt><trkpt lat="43.8035492" lon="16.8298444"><ele>705.0</ele><time>2026-04-28T10:51:40.326Z</time></trkpt><trkpt lat="43.8034539" lon="16.8299748"><ele>704.5</ele><time>2026-04-28T10:51:41.326Z</time></trkpt><trkpt lat="43.8033511" lon="16.830101"><ele>704.0</ele><time>2026-04-28T10:51:42.327Z</time></trkpt><trkpt lat="43.8032549" lon="16.8302202"><ele>703.5</ele><time>2026-04-28T10:51:43.326Z</time></trkpt><trkpt lat="43.8031532" lon="16.8303397"><ele>703.0</ele><time>2026-04-28T10:51:44.326Z</time></trkpt><trkpt lat="43.8030538" lon="16.8304606"><ele>702.75</ele><time>2026-04-28T10:51:45.326Z</time></trkpt><trkpt lat="43.8029491" lon="16.8305821"><ele>702.5</ele><time>2026-04-28T10:51:46.326Z</time></trkpt><trkpt lat="43.8028426" lon="16.8306928"><ele>702.25</ele><time>2026-04-28T10:51:47.327Z</time></trkpt><trkpt lat="43.8027385" lon="16.830808"><ele>702.0</ele><time>2026-04-28T10:51:48.326Z</time></trkpt><trkpt lat="43.8026307" lon="16.8309214"><ele>702.0</ele><time>2026-04-28T10:51:49.327Z</time></trkpt><trkpt lat="43.8025314" lon="16.8310238"><ele>702.0</ele><time>2026-04-28T10:51:50.326Z</time></trkpt><trkpt lat="43.802435" lon="16.8311299"><ele>702.0</ele><time>2026-04-28T10:51:51.326Z</time></trkpt><trkpt lat="43.8023461" lon="16.8312263"><ele>702.0</ele><time>2026-04-28T10:51:52.326Z</time></trkpt><trkpt lat="43.8022505" lon="16.831312"><ele>702.0</ele><time>2026-04-28T10:51:53.326Z</time></trkpt><trkpt lat="43.8021496" lon="16.831406"><ele>702.0</ele><time>2026-04-28T10:51:54.326Z</time></trkpt><trkpt lat="43.8020495" lon="16.8315084"><ele>702.0</ele><time>2026-04-28T10:51:55.326Z</time></trkpt><trkpt lat="43.8019542" lon="16.8316078"><ele>702.0</ele><time>2026-04-28T10:51:56.326Z</time></trkpt><trkpt lat="43.8018595" lon="16.8316813"><ele>702.0</ele><time>2026-04-28T10:51:57.326Z</time></trkpt><trkpt lat="43.8017649" lon="16.8317655"><ele>702.0</ele><time>2026-04-28T10:51:58.326Z</time></trkpt><trkpt lat="43.8016852" lon="16.8318495"><ele>702.0</ele><time>2026-04-28T10:51:59.326Z</time></trkpt><trkpt lat="43.801609" lon="16.8319222"><ele>702.0</ele><time>2026-04-28T10:52:00.326Z</time></trkpt><trkpt lat="43.8015314" lon="16.8319822"><ele>702.0</ele><time>2026-04-28T10:52:01.326Z</time></trkpt><trkpt lat="43.8014584" lon="16.8320427"><ele>702.0</ele><time>2026-04-28T10:52:02.327Z</time></trkpt><trkpt lat="43.8013919" lon="16.8320972"><ele>702.0</ele><time>2026-04-28T10:52:03.327Z</time></trkpt><trkpt lat="43.8012966" lon="16.8321574"><ele>702.0</ele><time>2026-04-28T10:52:05.326Z</time></trkpt><trkpt lat="43.8012387" lon="16.8322011"><ele>702.0</ele><time>2026-04-28T10:52:07.326Z</time></trkpt><trkpt lat="43.8011595" lon="16.8322591"><ele>702.0</ele><time>2026-04-28T10:54:24.326Z</time></trkpt><trkpt lat="43.8010747" lon="16.832321"><ele>702.0</ele><time>2026-04-28T10:54:26.326Z</time></trkpt><trkpt lat="43.8010093" lon="16.8323669"><ele>702.4000000000001</ele><time>2026-04-28T10:54:27.327Z</time></trkpt><trkpt lat="43.800934" lon="16.8324178"><ele>702.8000000000001</ele><time>2026-04-28T10:54:28.327Z</time></trkpt><trkpt lat="43.8008489" lon="16.8324797"><ele>703.2</ele><time>2026-04-28T10:54:29.327Z</time></trkpt><trkpt lat="43.8007581" lon="16.8325428"><ele>703.6</ele><time>2026-04-28T10:54:30.326Z</time></trkpt><trkpt lat="43.8006584" lon="16.8326004"><ele>704.0</ele><time>2026-04-28T10:54:31.327Z</time></trkpt><trkpt lat="43.8005579" lon="16.8326664"><ele>703.25</ele><time>2026-04-28T10:54:32.326Z</time></trkpt><trkpt lat="43.8004445" lon="16.8327416"><ele>702.5</ele><time>2026-04-28T10:54:33.327Z</time></trkpt><trkpt lat="43.800334" lon="16.8328085"><ele>701.75</ele><time>2026-04-28T10:54:34.326Z</time></trkpt><trkpt lat="43.8002257" lon="16.8328701"><ele>701.0</ele><time>2026-04-28T10:54:35.327Z</time></trkpt><trkpt lat="43.8001078" lon="16.8329332"><ele>701.0</ele><time>2026-04-28T10:54:36.326Z</time></trkpt><trkpt lat="43.7999882" lon="16.8329991"><ele>701.0</ele><time>2026-04-28T10:54:37.326Z</time></trkpt><trkpt lat="43.7998675" lon="16.8330911"><ele>701.0</ele><time>2026-04-28T10:54:38.326Z</time></trkpt><trkpt lat="43.7997382" lon="16.8331863"><ele>701.0</ele><time>2026-04-28T10:54:39.326Z</time></trkpt><trkpt lat="43.7996113" lon="16.8332813"><ele>701.0</ele><time>2026-04-28T10:54:40.326Z</time></trkpt><trkpt lat="43.7994875" lon="16.8333926"><ele>701.0</ele><time>2026-04-28T10:54:41.327Z</time></trkpt><trkpt lat="43.799369" lon="16.8335092"><ele>701.0</ele><time>2026-04-28T10:54:42.327Z</time></trkpt><trkpt lat="43.7992563" lon="16.8336272"><ele>701.0</ele><time>2026-04-28T10:54:43.326Z</time></trkpt><trkpt lat="43.799137" lon="16.8337493"><ele>701.0</ele><time>2026-04-28T10:54:44.326Z</time></trkpt><trkpt lat="43.7990304" lon="16.8338538"><ele>701.0</ele><time>2026-04-28T10:54:45.326Z</time></trkpt><trkpt lat="43.7989339" lon="16.8339485"><ele>701.0</ele><time>2026-04-28T10:54:46.326Z</time></trkpt><trkpt lat="43.7988443" lon="16.8340377"><ele>701.0</ele><time>2026-04-28T10:54:47.326Z</time></trkpt><trkpt lat="43.7987607" lon="16.8341103"><ele>701.0</ele><time>2026-04-28T10:54:48.327Z</time></trkpt><trkpt lat="43.7986794" lon="16.8341866"><ele>701.0</ele><time>2026-04-28T10:54:49.326Z</time></trkpt><trkpt lat="43.7986119" lon="16.8342374"><ele>701.0</ele><time>2026-04-28T10:54:50.327Z</time></trkpt><trkpt lat="43.7985504" lon="16.8342896"><ele>701.0</ele><time>2026-04-28T10:54:51.327Z</time></trkpt><trkpt lat="43.7984927" lon="16.8343408"><ele>701.0</ele><time>2026-04-28T10:54:52.326Z</time></trkpt><trkpt lat="43.7984309" lon="16.8344047"><ele>701.0</ele><time>2026-04-28T10:54:53.326Z</time></trkpt><trkpt lat="43.7983586" lon="16.8344597"><ele>701.4</ele><time>2026-04-28T10:54:54.326Z</time></trkpt><trkpt lat="43.7982757" lon="16.8345224"><ele>701.8</ele><time>2026-04-28T10:54:55.327Z</time></trkpt><trkpt lat="43.7981904" lon="16.8345978"><ele>702.1999999999999</ele><time>2026-04-28T10:54:56.327Z</time></trkpt><trkpt lat="43.7980955" lon="16.8346866"><ele>702.5999999999999</ele><time>2026-04-28T10:54:57.327Z</time></trkpt><trkpt lat="43.7979907" lon="16.8347844"><ele>703.0</ele><time>2026-04-28T10:54:58.326Z</time></trkpt><trkpt lat="43.797872" lon="16.8348894"><ele>703.0</ele><time>2026-04-28T10:54:59.326Z</time></trkpt><trkpt lat="43.7977552" lon="16.835"><ele>703.0</ele><time>2026-04-28T10:55:00.326Z</time></trkpt><trkpt lat="43.7976254" lon="16.835114"><ele>703.0</ele><time>2026-04-28T10:55:01.326Z</time></trkpt><trkpt lat="43.7974867" lon="16.8352322"><ele>703.0</ele><time>2026-04-28T10:55:02.326Z</time></trkpt><trkpt lat="43.7973491" lon="16.8353591"><ele>703.0</ele><time>2026-04-28T10:55:03.326Z</time></trkpt><trkpt lat="43.7972085" lon="16.8354864"><ele>703.0</ele><time>2026-04-28T10:55:04.327Z</time></trkpt><trkpt lat="43.7970662" lon="16.8356042"><ele>703.0</ele><time>2026-04-28T10:55:05.326Z</time></trkpt><trkpt lat="43.7969172" lon="16.835728"><ele>703.0</ele><time>2026-04-28T10:55:06.327Z</time></trkpt><trkpt lat="43.7967712" lon="16.8358631"><ele>703.0</ele><time>2026-04-28T10:55:07.327Z</time></trkpt><trkpt lat="43.7966188" lon="16.835996"><ele>703.6666666666667</ele><time>2026-04-28T10:55:08.326Z</time></trkpt><trkpt lat="43.7964693" lon="16.8361399"><ele>704.3333333333334</ele><time>2026-04-28T10:55:09.326Z</time></trkpt><trkpt lat="43.7963137" lon="16.8362886"><ele>705.0</ele><time>2026-04-28T10:55:10.326Z</time></trkpt><trkpt lat="43.7961754" lon="16.8364392"><ele>705.0</ele><time>2026-04-28T10:55:11.326Z</time></trkpt><trkpt lat="43.7960496" lon="16.8365877"><ele>705.0</ele><time>2026-04-28T10:55:12.326Z</time></trkpt><trkpt lat="43.7959286" lon="16.8367242"><ele>705.0</ele><time>2026-04-28T10:55:13.326Z</time></trkpt><trkpt lat="43.7958145" lon="16.8368603"><ele>704.5</ele><time>2026-04-28T10:55:14.326Z</time></trkpt><trkpt lat="43.7957092" lon="16.8369939"><ele>704.0</ele><time>2026-04-28T10:55:15.326Z</time></trkpt><trkpt lat="43.7956098" lon="16.8371186"><ele>703.5</ele><time>2026-04-28T10:55:16.326Z</time></trkpt><trkpt lat="43.7955163" lon="16.8372358"><ele>703.0</ele><time>2026-04-28T10:55:17.327Z</time></trkpt><trkpt lat="43.7954139" lon="16.8373518"><ele>703.0</ele><time>2026-04-28T10:55:18.327Z</time></trkpt><trkpt lat="43.7953157" lon="16.8374665"><ele>703.0</ele><time>2026-04-28T10:55:19.326Z</time></trkpt><trkpt lat="43.7952127" lon="16.8375864"><ele>703.0</ele><time>2026-04-28T10:55:20.326Z</time></trkpt><trkpt lat="43.7951071" lon="16.837704"><ele>703.0</ele><time>2026-04-28T10:55:21.327Z</time></trkpt><trkpt lat="43.7949979" lon="16.8378158"><ele>702.0</ele><time>2026-04-28T10:55:22.327Z</time></trkpt><trkpt lat="43.7948886" lon="16.8379295"><ele>701.0</ele><time>2026-04-28T10:55:23.326Z</time></trkpt><trkpt lat="43.794778" lon="16.8380465"><ele>700.0</ele><time>2026-04-28T10:55:24.327Z</time></trkpt><trkpt lat="43.7946596" lon="16.8381689"><ele>699.0</ele><time>2026-04-28T10:55:25.326Z</time></trkpt><trkpt lat="43.794549" lon="16.8382949"><ele>699.0</ele><time>2026-04-28T10:55:26.326Z</time></trkpt><trkpt lat="43.7944413" lon="16.8384149"><ele>699.0</ele><time>2026-04-28T10:55:27.326Z</time></trkpt><trkpt lat="43.7943578" lon="16.8385137"><ele>699.0</ele><time>2026-04-28T10:55:28.327Z</time></trkpt><trkpt lat="43.7942929" lon="16.8386008"><ele>699.0</ele><time>2026-04-28T10:55:29.327Z</time></trkpt><trkpt lat="43.7942372" lon="16.838701"><ele>699.0</ele><time>2026-04-28T10:55:31.327Z</time></trkpt><trkpt lat="43.7942383" lon="16.8387974"><ele>699.0</ele><time>2026-04-28T10:55:34.326Z</time></trkpt><trkpt lat="43.7943156" lon="16.8388532"><ele>699.0</ele><time>2026-04-28T10:55:37.326Z</time></trkpt><trkpt lat="43.7943808" lon="16.838915"><ele>699.0</ele><time>2026-04-28T10:55:39.327Z</time></trkpt><trkpt lat="43.7944241" lon="16.8389886"><ele>699.0</ele><time>2026-04-28T10:55:41.326Z</time></trkpt><trkpt lat="43.794475" lon="16.8390941"><ele>699.0</ele><time>2026-04-28T10:55:43.326Z</time></trkpt><trkpt lat="43.7945203" lon="16.8391605"><ele>699.0</ele><time>2026-04-28T10:55:44.326Z</time></trkpt><trkpt lat="43.7945926" lon="16.8392569"><ele>699.2</ele><time>2026-04-28T10:55:45.326Z</time></trkpt><trkpt lat="43.7946374" lon="16.8393486"><ele>699.4000000000001</ele><time>2026-04-28T10:55:46.327Z</time></trkpt><trkpt lat="43.7947196" lon="16.8394807"><ele>699.6</ele><time>2026-04-28T10:55:47.326Z</time></trkpt><trkpt lat="43.7948015" lon="16.8395985"><ele>699.8</ele><time>2026-04-28T10:55:48.326Z</time></trkpt><trkpt lat="43.7948865" lon="16.8397239"><ele>700.0</ele><time>2026-04-28T10:55:49.326Z</time></trkpt><trkpt lat="43.7949786" lon="16.8398649"><ele>700.0</ele><time>2026-04-28T10:55:50.326Z</time></trkpt><trkpt lat="43.7950734" lon="16.840013"><ele>700.0</ele><time>2026-04-28T10:55:51.326Z</time></trkpt><trkpt lat="43.7951704" lon="16.8401584"><ele>700.0</ele><time>2026-04-28T10:55:52.326Z</time></trkpt><trkpt lat="43.7952663" lon="16.8403104"><ele>700.0</ele><time>2026-04-28T10:55:53.326Z</time></trkpt><trkpt lat="43.7953683" lon="16.8404605"><ele>701.0</ele><time>2026-04-28T10:55:54.326Z</time></trkpt><trkpt lat="43.7954719" lon="16.8406112"><ele>702.0</ele><time>2026-04-28T10:55:55.326Z</time></trkpt><trkpt lat="43.7955703" lon="16.8407561"><ele>703.0</ele><time>2026-04-28T10:55:56.326Z</time></trkpt><trkpt lat="43.7956794" lon="16.8409179"><ele>702.6666666666667</ele><time>2026-04-28T10:55:57.326Z</time></trkpt><trkpt lat="43.7957923" lon="16.8410789"><ele>702.3333333333334</ele><time>2026-04-28T10:55:58.326Z</time></trkpt><trkpt lat="43.7959093" lon="16.8412464"><ele>702.0</ele><time>2026-04-28T10:55:59.326Z</time></trkpt><trkpt lat="43.796024" lon="16.8414193"><ele>702.0</ele><time>2026-04-28T10:56:00.326Z</time></trkpt><trkpt lat="43.796139" lon="16.8415976"><ele>702.0</ele><time>2026-04-28T10:56:01.326Z</time></trkpt><trkpt lat="43.7962568" lon="16.8417807"><ele>702.0</ele><time>2026-04-28T10:56:02.326Z</time></trkpt><trkpt lat="43.7963769" lon="16.8419645"><ele>702.6666666666666</ele><time>2026-04-28T10:56:03.327Z</time></trkpt><trkpt lat="43.7964986" lon="16.8421481"><ele>703.3333333333333</ele><time>2026-04-28T10:56:04.326Z</time></trkpt><trkpt lat="43.7966239" lon="16.8423295"><ele>704.0</ele><time>2026-04-28T10:56:05.326Z</time></trkpt><trkpt lat="43.7967506" lon="16.8425166"><ele>704.3333333333333</ele><time>2026-04-28T10:56:06.326Z</time></trkpt><trkpt lat="43.7968712" lon="16.8427036"><ele>704.6666666666666</ele><time>2026-04-28T10:56:07.326Z</time></trkpt><trkpt lat="43.7969893" lon="16.842889"><ele>705.0</ele><time>2026-04-28T10:56:08.326Z</time></trkpt><trkpt lat="43.7971155" lon="16.8430773"><ele>705.0</ele><time>2026-04-28T10:56:09.327Z</time></trkpt><trkpt lat="43.797242" lon="16.8432663"><ele>705.0</ele><time>2026-04-28T10:56:10.326Z</time></trkpt><trkpt lat="43.7973694" lon="16.8434507"><ele>705.0</ele><time>2026-04-28T10:56:11.326Z</time></trkpt><trkpt lat="43.7975027" lon="16.8436393"><ele>705.0</ele><time>2026-04-28T10:56:12.326Z</time></trkpt><trkpt lat="43.7976337" lon="16.8438297"><ele>705.0</ele><time>2026-04-28T10:56:13.326Z</time></trkpt><trkpt lat="43.797766" lon="16.8440191"><ele>705.0</ele><time>2026-04-28T10:56:14.326Z</time></trkpt><trkpt lat="43.7979037" lon="16.8442046"><ele>706.0</ele><time>2026-04-28T10:56:15.326Z</time></trkpt><trkpt lat="43.7980396" lon="16.8443819"><ele>707.0</ele><time>2026-04-28T10:56:16.326Z</time></trkpt><trkpt lat="43.7981708" lon="16.8445426"><ele>708.0</ele><time>2026-04-28T10:56:17.326Z</time></trkpt><trkpt lat="43.7982938" lon="16.8446824"><ele>708.0</ele><time>2026-04-28T10:56:18.326Z</time></trkpt><trkpt lat="43.7984037" lon="16.8448007"><ele>708.0</ele><time>2026-04-28T10:56:19.326Z</time></trkpt><trkpt lat="43.798503" lon="16.844906"><ele>708.0</ele><time>2026-04-28T10:56:20.326Z</time></trkpt><trkpt lat="43.7985919" lon="16.8449988"><ele>708.0</ele><time>2026-04-28T10:56:21.327Z</time></trkpt><trkpt lat="43.7986582" lon="16.8450665"><ele>708.2</ele><time>2026-04-28T10:56:22.326Z</time></trkpt><trkpt lat="43.7987069" lon="16.8451586"><ele>708.4</ele><time>2026-04-28T10:56:24.326Z</time></trkpt><trkpt lat="43.7986817" lon="16.8452886"><ele>708.6</ele><time>2026-04-28T10:56:26.327Z</time></trkpt><trkpt lat="43.7986573" lon="16.8453921"><ele>708.8000000000001</ele><time>2026-04-28T10:56:27.326Z</time></trkpt><trkpt lat="43.7985677" lon="16.8455071"><ele>709.0</ele><time>2026-04-28T10:56:28.327Z</time></trkpt><trkpt lat="43.7984978" lon="16.8456679"><ele>709.0</ele><time>2026-04-28T10:56:29.326Z</time></trkpt><trkpt lat="43.7984335" lon="16.845823"><ele>709.0</ele><time>2026-04-28T10:56:30.326Z</time></trkpt><trkpt lat="43.798354" lon="16.8459945"><ele>709.0</ele><time>2026-04-28T10:56:31.326Z</time></trkpt><trkpt lat="43.798274" lon="16.8461719"><ele>709.0</ele><time>2026-04-28T10:56:32.326Z</time></trkpt><trkpt lat="43.7982015" lon="16.8463544"><ele>707.75</ele><time>2026-04-28T10:56:33.326Z</time></trkpt><trkpt lat="43.798125" lon="16.846525"><ele>706.5</ele><time>2026-04-28T10:56:34.326Z</time></trkpt><trkpt lat="43.7980481" lon="16.8466908"><ele>705.25</ele><time>2026-04-28T10:56:35.326Z</time></trkpt><trkpt lat="43.7979821" lon="16.8468452"><ele>704.0</ele><time>2026-04-28T10:56:36.327Z</time></trkpt><trkpt lat="43.7979193" lon="16.8470016"><ele>703.75</ele><time>2026-04-28T10:56:37.326Z</time></trkpt><trkpt lat="43.7978595" lon="16.8471636"><ele>703.5</ele><time>2026-04-28T10:56:38.326Z</time></trkpt><trkpt lat="43.7977967" lon="16.8473303"><ele>703.25</ele><time>2026-04-28T10:56:39.327Z</time></trkpt><trkpt lat="43.7977278" lon="16.8474965"><ele>703.0</ele><time>2026-04-28T10:56:40.327Z</time></trkpt><trkpt lat="43.797654" lon="16.847671"><ele>703.6666666666667</ele><time>2026-04-28T10:56:41.327Z</time></trkpt><trkpt lat="43.7975805" lon="16.8478493"><ele>704.3333333333334</ele><time>2026-04-28T10:56:42.326Z</time></trkpt><trkpt lat="43.7975049" lon="16.8480423"><ele>705.0</ele><time>2026-04-28T10:56:43.327Z</time></trkpt><trkpt lat="43.7974304" lon="16.8482372"><ele>705.0</ele><time>2026-04-28T10:56:44.327Z</time></trkpt><trkpt lat="43.7973569" lon="16.8484392"><ele>705.0</ele><time>2026-04-28T10:56:45.326Z</time></trkpt><trkpt lat="43.7972833" lon="16.8486555"><ele>705.0</ele><time>2026-04-28T10:56:46.326Z</time></trkpt><trkpt lat="43.7972091" lon="16.8488769"><ele>704.6666666666666</ele><time>2026-04-28T10:56:47.326Z</time></trkpt><trkpt lat="43.7971311" lon="16.8491035"><ele>704.3333333333333</ele><time>2026-04-28T10:56:48.326Z</time></trkpt><trkpt lat="43.7970546" lon="16.8493377"><ele>704.0</ele><time>2026-04-28T10:56:49.326Z</time></trkpt><trkpt lat="43.7969796" lon="16.8495727"><ele>704.0</ele><time>2026-04-28T10:56:50.326Z</time></trkpt><trkpt lat="43.7969054" lon="16.8498101"><ele>704.0</ele><time>2026-04-28T10:56:51.326Z</time></trkpt><trkpt lat="43.7968356" lon="16.8500562"><ele>704.0</ele><time>2026-04-28T10:56:52.326Z</time></trkpt><trkpt lat="43.7967635" lon="16.8503003"><ele>704.6666666666666</ele><time>2026-04-28T10:56:53.326Z</time></trkpt><trkpt lat="43.79669" lon="16.8505545"><ele>705.3333333333334</ele><time>2026-04-28T10:56:54.327Z</time></trkpt><trkpt lat="43.7966175" lon="16.8508067"><ele>706.0</ele><time>2026-04-28T10:56:55.326Z</time></trkpt><trkpt lat="43.79654" lon="16.851067"><ele>706.0</ele><time>2026-04-28T10:56:56.326Z</time></trkpt><trkpt lat="43.7964623" lon="16.8513274"><ele>706.0</ele><time>2026-04-28T10:56:57.327Z</time></trkpt><trkpt lat="43.796382" lon="16.8516036"><ele>706.0</ele><time>2026-04-28T10:56:58.326Z</time></trkpt><trkpt lat="43.7962973" lon="16.8518829"><ele>706.0</ele><time>2026-04-28T10:56:59.327Z</time></trkpt><trkpt lat="43.7962148" lon="16.8521671"><ele>706.0</ele><time>2026-04-28T10:57:00.326Z</time></trkpt><trkpt lat="43.796135" lon="16.8524563"><ele>706.0</ele><time>2026-04-28T10:57:01.327Z</time></trkpt><trkpt lat="43.7960515" lon="16.8527336"><ele>704.0</ele><time>2026-04-28T10:57:02.326Z</time></trkpt><trkpt lat="43.7959679" lon="16.853017"><ele>702.0</ele><time>2026-04-28T10:57:03.326Z</time></trkpt><trkpt lat="43.7958865" lon="16.853314"><ele>704.0</ele><time>2026-04-28T10:57:04.326Z</time></trkpt><trkpt lat="43.7958042" lon="16.853609"><ele>706.0</ele><time>2026-04-28T10:57:05.326Z</time></trkpt><trkpt lat="43.7957252" lon="16.8539091"><ele>706.0</ele><time>2026-04-28T10:57:06.326Z</time></trkpt><trkpt lat="43.7956488" lon="16.8542059"><ele>706.0</ele><time>2026-04-28T10:57:07.326Z</time></trkpt><trkpt lat="43.7955728" lon="16.8545068"><ele>706.5</ele><time>2026-04-28T10:57:08.326Z</time></trkpt><trkpt lat="43.7954982" lon="16.8548058"><ele>707.0</ele><time>2026-04-28T10:57:09.326Z</time></trkpt><trkpt lat="43.7954186" lon="16.8550998"><ele>706.5</ele><time>2026-04-28T10:57:10.326Z</time></trkpt><trkpt lat="43.7953377" lon="16.8553901"><ele>706.0</ele><time>2026-04-28T10:57:11.326Z</time></trkpt><trkpt lat="43.7952543" lon="16.8556828"><ele>705.5</ele><time>2026-04-28T10:57:12.326Z</time></trkpt><trkpt lat="43.7951621" lon="16.8559793"><ele>705.0</ele><time>2026-04-28T10:57:13.326Z</time></trkpt><trkpt lat="43.795073" lon="16.8562658"><ele>705.0</ele><time>2026-04-28T10:57:14.326Z</time></trkpt><trkpt lat="43.7949817" lon="16.856559"><ele>705.0</ele><time>2026-04-28T10:57:15.326Z</time></trkpt><trkpt lat="43.7948891" lon="16.8568487"><ele>705.5</ele><time>2026-04-28T10:57:16.327Z</time></trkpt><trkpt lat="43.7947954" lon="16.8571388"><ele>706.0</ele><time>2026-04-28T10:57:17.326Z</time></trkpt><trkpt lat="43.7947006" lon="16.8574194"><ele>705.5</ele><time>2026-04-28T10:57:18.326Z</time></trkpt><trkpt lat="43.7946099" lon="16.8577017"><ele>705.0</ele><time>2026-04-28T10:57:19.326Z</time></trkpt><trkpt lat="43.7945144" lon="16.8579868"><ele>705.0</ele><time>2026-04-28T10:57:20.327Z</time></trkpt><trkpt lat="43.7944249" lon="16.8582713"><ele>705.0</ele><time>2026-04-28T10:57:21.326Z</time></trkpt><trkpt lat="43.7943406" lon="16.8585496"><ele>705.0</ele><time>2026-04-28T10:57:22.326Z</time></trkpt><trkpt lat="43.7942555" lon="16.8588319"><ele>705.3333333333334</ele><time>2026-04-28T10:57:23.327Z</time></trkpt><trkpt lat="43.794178" lon="16.8591186"><ele>705.6666666666667</ele><time>2026-04-28T10:57:24.326Z</time></trkpt><trkpt lat="43.7940984" lon="16.8593999"><ele>706.0</ele><time>2026-04-28T10:57:25.327Z</time></trkpt><trkpt lat="43.7940229" lon="16.8596868"><ele>706.0</ele><time>2026-04-28T10:57:26.327Z</time></trkpt><trkpt lat="43.7939499" lon="16.8599782"><ele>706.0</ele><time>2026-04-28T10:57:27.326Z</time></trkpt><trkpt lat="43.7938853" lon="16.8602639"><ele>706.0</ele><time>2026-04-28T10:57:28.326Z</time></trkpt><trkpt lat="43.7938275" lon="16.8605504"><ele>706.0</ele><time>2026-04-28T10:57:29.326Z</time></trkpt><trkpt lat="43.7937759" lon="16.8608429"><ele>706.0</ele><time>2026-04-28T10:57:30.326Z</time></trkpt><trkpt lat="43.7937246" lon="16.8611334"><ele>706.0</ele><time>2026-04-28T10:57:31.326Z</time></trkpt><trkpt lat="43.7936809" lon="16.861427"><ele>705.6666666666667</ele><time>2026-04-28T10:57:32.326Z</time></trkpt><trkpt lat="43.7936327" lon="16.8617242"><ele>705.3333333333334</ele><time>2026-04-28T10:57:33.326Z</time></trkpt><trkpt lat="43.7935857" lon="16.8620209"><ele>705.0</ele><time>2026-04-28T10:57:34.327Z</time></trkpt><trkpt lat="43.7935462" lon="16.8623199"><ele>705.0</ele><time>2026-04-28T10:57:35.327Z</time></trkpt><trkpt lat="43.7935161" lon="16.8626202"><ele>705.0</ele><time>2026-04-28T10:57:36.326Z</time></trkpt><trkpt lat="43.7935008" lon="16.862922"><ele>705.0</ele><time>2026-04-28T10:57:37.327Z</time></trkpt><trkpt lat="43.7934922" lon="16.8632256"><ele>704.3333333333334</ele><time>2026-04-28T10:57:38.326Z</time></trkpt><trkpt lat="43.7934917" lon="16.8635277"><ele>703.6666666666667</ele><time>2026-04-28T10:57:39.326Z</time></trkpt><trkpt lat="43.7934846" lon="16.8638234"><ele>703.0</ele><time>2026-04-28T10:57:40.327Z</time></trkpt><trkpt lat="43.7934772" lon="16.8641223"><ele>703.6666666666667</ele><time>2026-04-28T10:57:41.326Z</time></trkpt><trkpt lat="43.7934672" lon="16.8644268"><ele>704.3333333333334</ele><time>2026-04-28T10:57:42.326Z</time></trkpt><trkpt lat="43.7934471" lon="16.8647314"><ele>705.0</ele><time>2026-04-28T10:57:43.326Z</time></trkpt><trkpt lat="43.7934231" lon="16.8650383"><ele>705.0</ele><time>2026-04-28T10:57:44.326Z</time></trkpt><trkpt lat="43.7933949" lon="16.8653463"><ele>705.0</ele><time>2026-04-28T10:57:45.326Z</time></trkpt><trkpt lat="43.7933636" lon="16.8656496"><ele>705.0</ele><time>2026-04-28T10:57:46.326Z</time></trkpt><trkpt lat="43.7933261" lon="16.8659568"><ele>705.5</ele><time>2026-04-28T10:57:47.326Z</time></trkpt><trkpt lat="43.7932882" lon="16.8662745"><ele>706.0</ele><time>2026-04-28T10:57:48.326Z</time></trkpt><trkpt lat="43.7932517" lon="16.8665813"><ele>706.5</ele><time>2026-04-28T10:57:49.326Z</time></trkpt><trkpt lat="43.7932203" lon="16.8668953"><ele>707.0</ele><time>2026-04-28T10:57:50.326Z</time></trkpt><trkpt lat="43.7931883" lon="16.8672088"><ele>707.0</ele><time>2026-04-28T10:57:51.326Z</time></trkpt><trkpt lat="43.7931575" lon="16.86753"><ele>707.0</ele><time>2026-04-28T10:57:52.327Z</time></trkpt><trkpt lat="43.7931234" lon="16.8678505"><ele>706.5</ele><time>2026-04-28T10:57:53.326Z</time></trkpt><trkpt lat="43.7930886" lon="16.8681666"><ele>706.0</ele><time>2026-04-28T10:57:54.326Z</time></trkpt><trkpt lat="43.793057" lon="16.8684857"><ele>706.0</ele><time>2026-04-28T10:57:55.327Z</time></trkpt><trkpt lat="43.7930291" lon="16.8688012"><ele>706.0</ele><time>2026-04-28T10:57:56.326Z</time></trkpt><trkpt lat="43.7929989" lon="16.8691242"><ele>707.0</ele><time>2026-04-28T10:57:57.327Z</time></trkpt><trkpt lat="43.7929761" lon="16.8694522"><ele>708.0</ele><time>2026-04-28T10:57:58.327Z</time></trkpt><trkpt lat="43.7929501" lon="16.8697845"><ele>707.5</ele><time>2026-04-28T10:57:59.326Z</time></trkpt><trkpt lat="43.792922" lon="16.8701085"><ele>707.0</ele><time>2026-04-28T10:58:00.327Z</time></trkpt><trkpt lat="43.792896" lon="16.8704347"><ele>707.0</ele><time>2026-04-28T10:58:01.326Z</time></trkpt><trkpt lat="43.7928707" lon="16.8707666"><ele>707.0</ele><time>2026-04-28T10:58:02.327Z</time></trkpt><trkpt lat="43.7928531" lon="16.8710936"><ele>707.0</ele><time>2026-04-28T10:58:03.326Z</time></trkpt><trkpt lat="43.792828" lon="16.8714233"><ele>707.0</ele><time>2026-04-28T10:58:04.326Z</time></trkpt><trkpt lat="43.7928117" lon="16.8717505"><ele>708.5</ele><time>2026-04-28T10:58:05.326Z</time></trkpt><trkpt lat="43.7927925" lon="16.8720764"><ele>710.0</ele><time>2026-04-28T10:58:06.326Z</time></trkpt><trkpt lat="43.7927831" lon="16.8724042"><ele>708.5</ele><time>2026-04-28T10:58:07.327Z</time></trkpt><trkpt lat="43.7927805" lon="16.8727309"><ele>707.0</ele><time>2026-04-28T10:58:08.326Z</time></trkpt><trkpt lat="43.7927855" lon="16.8730546"><ele>707.0</ele><time>2026-04-28T10:58:09.326Z</time></trkpt><trkpt lat="43.7927921" lon="16.8733847"><ele>707.0</ele><time>2026-04-28T10:58:10.326Z</time></trkpt><trkpt lat="43.7928014" lon="16.8737063"><ele>706.0</ele><time>2026-04-28T10:58:11.327Z</time></trkpt><trkpt lat="43.792814" lon="16.8740281"><ele>705.0</ele><time>2026-04-28T10:58:12.326Z</time></trkpt><trkpt lat="43.7928244" lon="16.8743536"><ele>705.0</ele><time>2026-04-28T10:58:13.326Z</time></trkpt><trkpt lat="43.7928335" lon="16.8746757"><ele>705.0</ele><time>2026-04-28T10:58:14.327Z</time></trkpt><trkpt lat="43.7928479" lon="16.874984"><ele>705.5</ele><time>2026-04-28T10:58:15.327Z</time></trkpt><trkpt lat="43.7928638" lon="16.8752977"><ele>706.0</ele><time>2026-04-28T10:58:16.326Z</time></trkpt><trkpt lat="43.7928792" lon="16.8756084"><ele>706.0</ele><time>2026-04-28T10:58:17.327Z</time></trkpt><trkpt lat="43.7929104" lon="16.8759137"><ele>706.0</ele><time>2026-04-28T10:58:18.326Z</time></trkpt><trkpt lat="43.7929389" lon="16.8762073"><ele>706.0</ele><time>2026-04-28T10:58:19.327Z</time></trkpt><trkpt lat="43.792969" lon="16.8764925"><ele>706.0</ele><time>2026-04-28T10:58:20.326Z</time></trkpt><trkpt lat="43.7929994" lon="16.8767676"><ele>706.0</ele><time>2026-04-28T10:58:21.327Z</time></trkpt><trkpt lat="43.7930285" lon="16.877045"><ele>706.0</ele><time>2026-04-28T10:58:22.327Z</time></trkpt><trkpt lat="43.7930495" lon="16.8773148"><ele>706.0</ele><time>2026-04-28T10:58:23.326Z</time></trkpt><trkpt lat="43.7930744" lon="16.8775808"><ele>706.0</ele><time>2026-04-28T10:58:24.326Z</time></trkpt><trkpt lat="43.793085" lon="16.8778427"><ele>706.0</ele><time>2026-04-28T10:58:25.326Z</time></trkpt><trkpt lat="43.7930941" lon="16.8781033"><ele>705.6666666666667</ele><time>2026-04-28T10:58:26.326Z</time></trkpt><trkpt lat="43.7931083" lon="16.8783538"><ele>705.3333333333334</ele><time>2026-04-28T10:58:27.327Z</time></trkpt><trkpt lat="43.7931157" lon="16.8786112"><ele>705.0</ele><time>2026-04-28T10:58:28.326Z</time></trkpt><trkpt lat="43.7931276" lon="16.8788547"><ele>705.0</ele><time>2026-04-28T10:58:29.326Z</time></trkpt><trkpt lat="43.7931363" lon="16.8790951"><ele>705.0</ele><time>2026-04-28T10:58:30.326Z</time></trkpt><trkpt lat="43.7931478" lon="16.879324"><ele>705.0</ele><time>2026-04-28T10:58:31.326Z</time></trkpt><trkpt lat="43.7931574" lon="16.8795437"><ele>704.5</ele><time>2026-04-28T10:58:32.326Z</time></trkpt><trkpt lat="43.7931645" lon="16.8797475"><ele>704.0</ele><time>2026-04-28T10:58:33.326Z</time></trkpt><trkpt lat="43.7931741" lon="16.879934"><ele>703.5</ele><time>2026-04-28T10:58:34.327Z</time></trkpt><trkpt lat="43.7931815" lon="16.880109"><ele>703.0</ele><time>2026-04-28T10:58:35.326Z</time></trkpt><trkpt lat="43.7931861" lon="16.8802589"><ele>703.5</ele><time>2026-04-28T10:58:36.326Z</time></trkpt><trkpt lat="43.7931891" lon="16.8803678"><ele>704.0</ele><time>2026-04-28T10:58:37.326Z</time></trkpt><trkpt lat="43.7931942" lon="16.8804665"><ele>704.5</ele><time>2026-04-28T10:58:38.326Z</time></trkpt><trkpt lat="43.7932468" lon="16.8805441"><ele>705.0</ele><time>2026-04-28T10:58:40.326Z</time></trkpt><trkpt lat="43.793322" lon="16.8805458"><ele>705.5</ele><time>2026-04-28T10:58:42.326Z</time></trkpt><trkpt lat="43.7934172" lon="16.8805017"><ele>706.0</ele><time>2026-04-28T10:58:44.327Z</time></trkpt><trkpt lat="43.793512" lon="16.8804543"><ele>706.0</ele><time>2026-04-28T10:58:46.326Z</time></trkpt><trkpt lat="43.7935863" lon="16.8803787"><ele>706.0</ele><time>2026-04-28T10:58:48.326Z</time></trkpt><trkpt lat="43.7936661" lon="16.8802776"><ele>706.0</ele><time>2026-04-28T10:58:50.326Z</time></trkpt><trkpt lat="43.793721" lon="16.8802103"><ele>706.0</ele><time>2026-04-28T10:58:52.326Z</time></trkpt><trkpt lat="43.7937843" lon="16.8801625"><ele>706.0</ele><time>2026-04-28T10:59:12.326Z</time></trkpt><trkpt lat="43.7938811" lon="16.8801233"><ele>706.0</ele><time>2026-04-28T10:59:15.326Z</time></trkpt><trkpt lat="43.7939703" lon="16.8800897"><ele>705.8333333333334</ele><time>2026-04-28T10:59:17.326Z</time></trkpt><trkpt lat="43.7940459" lon="16.8800773"><ele>705.6666666666667</ele><time>2026-04-28T10:59:19.326Z</time></trkpt><trkpt lat="43.794136" lon="16.8800465"><ele>705.5</ele><time>2026-04-28T10:59:21.327Z</time></trkpt><trkpt lat="43.7942531" lon="16.8800103"><ele>705.3333333333334</ele><time>2026-04-28T10:59:23.327Z</time></trkpt><trkpt lat="43.7943209" lon="16.8799962"><ele>705.1666666666666</ele><time>2026-04-28T10:59:24.327Z</time></trkpt><trkpt lat="43.7943974" lon="16.8799754"><ele>705.0</ele><time>2026-04-28T10:59:25.327Z</time></trkpt><trkpt lat="43.7944843" lon="16.8799502"><ele>704.8</ele><time>2026-04-28T10:59:26.327Z</time></trkpt><trkpt lat="43.7945717" lon="16.8799208"><ele>704.6</ele><time>2026-04-28T10:59:27.326Z</time></trkpt><trkpt lat="43.7946596" lon="16.8798966"><ele>704.4000000000001</ele><time>2026-04-28T10:59:28.326Z</time></trkpt><trkpt lat="43.7947534" lon="16.8798704"><ele>704.2</ele><time>2026-04-28T10:59:29.327Z</time></trkpt><trkpt lat="43.7948518" lon="16.8798405"><ele>704.0</ele><time>2026-04-28T10:59:30.326Z</time></trkpt><trkpt lat="43.7949503" lon="16.8798189"><ele>704.0</ele><time>2026-04-28T10:59:31.326Z</time></trkpt><trkpt lat="43.7950568" lon="16.8797814"><ele>704.0</ele><time>2026-04-28T10:59:32.326Z</time></trkpt><trkpt lat="43.7951633" lon="16.8797486"><ele>704.0</ele><time>2026-04-28T10:59:33.326Z</time></trkpt><trkpt lat="43.7952763" lon="16.8797114"><ele>704.0</ele><time>2026-04-28T10:59:34.326Z</time></trkpt><trkpt lat="43.7953923" lon="16.8796736"><ele>704.5</ele><time>2026-04-28T10:59:35.327Z</time></trkpt><trkpt lat="43.7955101" lon="16.8796369"><ele>705.0</ele><time>2026-04-28T10:59:36.327Z</time></trkpt><trkpt lat="43.7956297" lon="16.8796036"><ele>705.5</ele><time>2026-04-28T10:59:37.326Z</time></trkpt><trkpt lat="43.7957534" lon="16.8795634"><ele>706.0</ele><time>2026-04-28T10:59:38.327Z</time></trkpt><trkpt lat="43.7958736" lon="16.8795283"><ele>706.0</ele><time>2026-04-28T10:59:39.326Z</time></trkpt><trkpt lat="43.7959895" lon="16.8795001"><ele>706.0</ele><time>2026-04-28T10:59:40.327Z</time></trkpt><trkpt lat="43.7961045" lon="16.8794628"><ele>706.0</ele><time>2026-04-28T10:59:41.326Z</time></trkpt><trkpt lat="43.7962138" lon="16.8794264"><ele>706.0</ele><time>2026-04-28T10:59:42.326Z</time></trkpt><trkpt lat="43.7963218" lon="16.8793951"><ele>706.1666666666667</ele><time>2026-04-28T10:59:43.326Z</time></trkpt><trkpt lat="43.7964291" lon="16.8793776"><ele>706.3333333333334</ele><time>2026-04-28T10:59:44.327Z</time></trkpt><trkpt lat="43.7965308" lon="16.8793687"><ele>706.5</ele><time>2026-04-28T10:59:45.326Z</time></trkpt><trkpt lat="43.7966181" lon="16.879381"><ele>706.6666666666666</ele><time>2026-04-28T10:59:46.326Z</time></trkpt><trkpt lat="43.7966926" lon="16.8794018"><ele>706.8333333333333</ele><time>2026-04-28T10:59:47.326Z</time></trkpt><trkpt lat="43.7967555" lon="16.8794085"><ele>707.0</ele><time>2026-04-28T10:59:48.327Z</time></trkpt><trkpt lat="43.7968673" lon="16.8793708"><ele>706.6</ele><time>2026-04-28T10:59:50.326Z</time></trkpt><trkpt lat="43.7969262" lon="16.8793299"><ele>706.2</ele><time>2026-04-28T10:59:51.326Z</time></trkpt><trkpt lat="43.797001" lon="16.8792747"><ele>705.8</ele><time>2026-04-28T10:59:52.327Z</time></trkpt><trkpt lat="43.7970865" lon="16.879218"><ele>705.4</ele><time>2026-04-28T10:59:53.326Z</time></trkpt><trkpt lat="43.7971826" lon="16.8791691"><ele>705.0</ele><time>2026-04-28T10:59:54.326Z</time></trkpt><trkpt lat="43.7972857" lon="16.8791256"><ele>705.0</ele><time>2026-04-28T10:59:55.326Z</time></trkpt><trkpt lat="43.7973921" lon="16.8790929"><ele>705.0</ele><time>2026-04-28T10:59:56.326Z</time></trkpt><trkpt lat="43.7975067" lon="16.879057"><ele>705.0</ele><time>2026-04-28T10:59:57.326Z</time></trkpt><trkpt lat="43.7976261" lon="16.8790282"><ele>705.0</ele><time>2026-04-28T10:59:58.326Z</time></trkpt><trkpt lat="43.797743" lon="16.8789972"><ele>704.75</ele><time>2026-04-28T10:59:59.326Z</time></trkpt><trkpt lat="43.7978687" lon="16.8789512"><ele>704.5</ele><time>2026-04-28T11:00:00.327Z</time></trkpt><trkpt lat="43.7979977" lon="16.8789091"><ele>704.25</ele><time>2026-04-28T11:00:01.326Z</time></trkpt><trkpt lat="43.7981271" lon="16.8788722"><ele>704.0</ele><time>2026-04-28T11:00:02.326Z</time></trkpt><trkpt lat="43.7982615" lon="16.8788248"><ele>704.0</ele><time>2026-04-28T11:00:03.327Z</time></trkpt><trkpt lat="43.7984004" lon="16.8787834"><ele>704.0</ele><time>2026-04-28T11:00:04.326Z</time></trkpt><trkpt lat="43.7985457" lon="16.8787406"><ele>704.0</ele><time>2026-04-28T11:00:05.326Z</time></trkpt><trkpt lat="43.7986914" lon="16.8786941"><ele>704.0</ele><time>2026-04-28T11:00:06.326Z</time></trkpt><trkpt lat="43.7988389" lon="16.878644"><ele>704.0</ele><time>2026-04-28T11:00:07.326Z</time></trkpt><trkpt lat="43.7989887" lon="16.8786037"><ele>704.0</ele><time>2026-04-28T11:00:08.327Z</time></trkpt><trkpt lat="43.799124" lon="16.8785636"><ele>704.0</ele><time>2026-04-28T11:00:09.327Z</time></trkpt><trkpt lat="43.7992538" lon="16.8785319"><ele>704.0</ele><time>2026-04-28T11:00:10.327Z</time></trkpt><trkpt lat="43.7993735" lon="16.8784977"><ele>704.0</ele><time>2026-04-28T11:00:11.327Z</time></trkpt><trkpt lat="43.7994931" lon="16.8784728"><ele>704.0</ele><time>2026-04-28T11:00:12.326Z</time></trkpt><trkpt lat="43.7996142" lon="16.8784529"><ele>704.0</ele><time>2026-04-28T11:00:13.326Z</time></trkpt><trkpt lat="43.7997332" lon="16.8784446"><ele>704.0</ele><time>2026-04-28T11:00:14.327Z</time></trkpt><trkpt lat="43.799844" lon="16.8784478"><ele>704.0</ele><time>2026-04-28T11:00:15.326Z</time></trkpt><trkpt lat="43.7999492" lon="16.8784579"><ele>704.0</ele><time>2026-04-28T11:00:16.326Z</time></trkpt><trkpt lat="43.8000468" lon="16.8784706"><ele>704.0</ele><time>2026-04-28T11:00:17.326Z</time></trkpt><trkpt lat="43.8001437" lon="16.8784905"><ele>704.0</ele><time>2026-04-28T11:00:18.326Z</time></trkpt><trkpt lat="43.8002416" lon="16.8785232"><ele>704.0</ele><time>2026-04-28T11:00:19.326Z</time></trkpt><trkpt lat="43.8003438" lon="16.8785596"><ele>704.25</ele><time>2026-04-28T11:00:20.326Z</time></trkpt><trkpt lat="43.8004468" lon="16.8786116"><ele>704.5</ele><time>2026-04-28T11:00:21.326Z</time></trkpt><trkpt lat="43.8005505" lon="16.8786742"><ele>704.75</ele><time>2026-04-28T11:00:22.327Z</time></trkpt><trkpt lat="43.8006547" lon="16.8787453"><ele>705.0</ele><time>2026-04-28T11:00:23.327Z</time></trkpt><trkpt lat="43.8007563" lon="16.8788223"><ele>705.0</ele><time>2026-04-28T11:00:24.326Z</time></trkpt><trkpt lat="43.8008606" lon="16.8789139"><ele>705.0</ele><time>2026-04-28T11:00:25.326Z</time></trkpt><trkpt lat="43.8009555" lon="16.8790045"><ele>705.0</ele><time>2026-04-28T11:00:26.326Z</time></trkpt><trkpt lat="43.801045" lon="16.8791018"><ele>705.0</ele><time>2026-04-28T11:00:27.326Z</time></trkpt><trkpt lat="43.8011305" lon="16.8791967"><ele>705.0</ele><time>2026-04-28T11:00:28.326Z</time></trkpt><trkpt lat="43.801218" lon="16.8792933"><ele>705.0</ele><time>2026-04-28T11:00:29.327Z</time></trkpt><trkpt lat="43.801308" lon="16.8793851"><ele>705.0</ele><time>2026-04-28T11:00:30.327Z</time></trkpt><trkpt lat="43.8014057" lon="16.879482"><ele>705.0</ele><time>2026-04-28T11:00:31.326Z</time></trkpt><trkpt lat="43.8015097" lon="16.8795884"><ele>705.0</ele><time>2026-04-28T11:00:32.326Z</time></trkpt><trkpt lat="43.801617" lon="16.8796956"><ele>705.0</ele><time>2026-04-28T11:00:33.326Z</time></trkpt><trkpt lat="43.8017264" lon="16.8798075"><ele>705.0</ele><time>2026-04-28T11:00:34.327Z</time></trkpt><trkpt lat="43.8018394" lon="16.8799298"><ele>705.0</ele><time>2026-04-28T11:00:35.327Z</time></trkpt><trkpt lat="43.8019559" lon="16.8800458"><ele>704.25</ele><time>2026-04-28T11:00:36.326Z</time></trkpt><trkpt lat="43.8020714" lon="16.8801607"><ele>703.5</ele><time>2026-04-28T11:00:37.327Z</time></trkpt><trkpt lat="43.8021915" lon="16.8802723"><ele>702.75</ele><time>2026-04-28T11:00:38.326Z</time></trkpt><trkpt lat="43.802301" lon="16.8803709"><ele>702.0</ele><time>2026-04-28T11:00:39.326Z</time></trkpt><trkpt lat="43.8023995" lon="16.8804679"><ele>702.0</ele><time>2026-04-28T11:00:40.326Z</time></trkpt><trkpt lat="43.8025022" lon="16.8805639"><ele>702.0</ele><time>2026-04-28T11:00:41.327Z</time></trkpt><trkpt lat="43.8026003" lon="16.8806643"><ele>702.0</ele><time>2026-04-28T11:00:42.326Z</time></trkpt><trkpt lat="43.8027023" lon="16.8807548"><ele>702.0</ele><time>2026-04-28T11:00:43.326Z</time></trkpt><trkpt lat="43.8028047" lon="16.880853"><ele>702.25</ele><time>2026-04-28T11:00:44.326Z</time></trkpt><trkpt lat="43.8029037" lon="16.8809541"><ele>702.5</ele><time>2026-04-28T11:00:45.326Z</time></trkpt><trkpt lat="43.8030029" lon="16.8810562"><ele>702.75</ele><time>2026-04-28T11:00:46.326Z</time></trkpt><trkpt lat="43.8030976" lon="16.8811536"><ele>703.0</ele><time>2026-04-28T11:00:47.326Z</time></trkpt><trkpt lat="43.8031913" lon="16.8812494"><ele>703.0</ele><time>2026-04-28T11:00:48.327Z</time></trkpt><trkpt lat="43.803289" lon="16.8813497"><ele>703.0</ele><time>2026-04-28T11:00:49.326Z</time></trkpt><trkpt lat="43.8033888" lon="16.881449"><ele>703.0</ele><time>2026-04-28T11:00:50.326Z</time></trkpt><trkpt lat="43.8034908" lon="16.8815486"><ele>703.0</ele><time>2026-04-28T11:00:51.326Z</time></trkpt><trkpt lat="43.8035896" lon="16.8816554"><ele>703.0</ele><time>2026-04-28T11:00:52.326Z</time></trkpt><trkpt lat="43.8036954" lon="16.8817554"><ele>703.0</ele><time>2026-04-28T11:00:53.326Z</time></trkpt><trkpt lat="43.8037929" lon="16.8818535"><ele>703.0</ele><time>2026-04-28T11:00:54.326Z</time></trkpt><trkpt lat="43.8038864" lon="16.8819566"><ele>703.0</ele><time>2026-04-28T11:00:55.326Z</time></trkpt><trkpt lat="43.8039866" lon="16.8820528"><ele>703.0</ele><time>2026-04-28T11:00:56.326Z</time></trkpt><trkpt lat="43.8040904" lon="16.8821458"><ele>703.0</ele><time>2026-04-28T11:00:57.327Z</time></trkpt><trkpt lat="43.8041899" lon="16.882241"><ele>703.0</ele><time>2026-04-28T11:00:58.327Z</time></trkpt><trkpt lat="43.8042843" lon="16.8823317"><ele>703.0</ele><time>2026-04-28T11:00:59.326Z</time></trkpt><trkpt lat="43.8043842" lon="16.8824234"><ele>702.8</ele><time>2026-04-28T11:01:00.327Z</time></trkpt><trkpt lat="43.8044813" lon="16.882518"><ele>702.5999999999999</ele><time>2026-04-28T11:01:01.327Z</time></trkpt><trkpt lat="43.8045687" lon="16.8826072"><ele>702.4000000000001</ele><time>2026-04-28T11:01:02.326Z</time></trkpt><trkpt lat="43.8046409" lon="16.8827011"><ele>702.2</ele><time>2026-04-28T11:01:03.326Z</time></trkpt><trkpt lat="43.804719" lon="16.8827888"><ele>702.0</ele><time>2026-04-28T11:01:04.326Z</time></trkpt><trkpt lat="43.8048133" lon="16.8828797"><ele>702.2</ele><time>2026-04-28T11:01:05.326Z</time></trkpt><trkpt lat="43.804902" lon="16.8829649"><ele>702.4000000000001</ele><time>2026-04-28T11:01:06.327Z</time></trkpt><trkpt lat="43.8049885" lon="16.8830515"><ele>702.5999999999999</ele><time>2026-04-28T11:01:07.326Z</time></trkpt><trkpt lat="43.805059" lon="16.8831308"><ele>702.8</ele><time>2026-04-28T11:01:08.326Z</time></trkpt><trkpt lat="43.8051484" lon="16.8832087"><ele>703.0</ele><time>2026-04-28T11:01:09.327Z</time></trkpt><trkpt lat="43.8052426" lon="16.8832889"><ele>703.0</ele><time>2026-04-28T11:01:10.326Z</time></trkpt><trkpt lat="43.8053355" lon="16.8833805"><ele>703.0</ele><time>2026-04-28T11:01:11.326Z</time></trkpt><trkpt lat="43.8054262" lon="16.8834637"><ele>703.0</ele><time>2026-04-28T11:01:12.326Z</time></trkpt><trkpt lat="43.8055182" lon="16.8835571"><ele>703.0</ele><time>2026-04-28T11:01:13.326Z</time></trkpt><trkpt lat="43.8056036" lon="16.883643"><ele>703.0</ele><time>2026-04-28T11:01:14.326Z</time></trkpt><trkpt lat="43.8056788" lon="16.8837189"><ele>703.1666666666667</ele><time>2026-04-28T11:01:15.326Z</time></trkpt><trkpt lat="43.8057408" lon="16.8837769"><ele>703.3333333333334</ele><time>2026-04-28T11:01:16.326Z</time></trkpt><trkpt lat="43.8057961" lon="16.8838275"><ele>703.5</ele><time>2026-04-28T11:01:17.326Z</time></trkpt><trkpt lat="43.8058501" lon="16.8838842"><ele>703.6666666666666</ele><time>2026-04-28T11:01:18.326Z</time></trkpt><trkpt lat="43.8059169" lon="16.8839512"><ele>703.8333333333333</ele><time>2026-04-28T11:01:19.326Z</time></trkpt><trkpt lat="43.8059949" lon="16.8840338"><ele>704.0</ele><time>2026-04-28T11:01:20.326Z</time></trkpt><trkpt lat="43.806081" lon="16.8841215"><ele>704.0</ele><time>2026-04-28T11:01:21.327Z</time></trkpt><trkpt lat="43.8061686" lon="16.8842144"><ele>704.0</ele><time>2026-04-28T11:01:22.326Z</time></trkpt><trkpt lat="43.8062535" lon="16.8843007"><ele>704.0</ele><time>2026-04-28T11:01:23.326Z</time></trkpt><trkpt lat="43.8063341" lon="16.8843869"><ele>704.0</ele><time>2026-04-28T11:01:24.326Z</time></trkpt><trkpt lat="43.8064186" lon="16.8844754"><ele>704.0</ele><time>2026-04-28T11:01:25.326Z</time></trkpt><trkpt lat="43.8065029" lon="16.8845647"><ele>704.0</ele><time>2026-04-28T11:01:26.326Z</time></trkpt><trkpt lat="43.8065826" lon="16.8846444"><ele>704.0</ele><time>2026-04-28T11:01:27.326Z</time></trkpt><trkpt lat="43.8066595" lon="16.8847224"><ele>704.0</ele><time>2026-04-28T11:01:28.326Z</time></trkpt><trkpt lat="43.8067434" lon="16.8848073"><ele>704.0</ele><time>2026-04-28T11:01:29.326Z</time></trkpt><trkpt lat="43.8068303" lon="16.8848894"><ele>704.0</ele><time>2026-04-28T11:01:30.327Z</time></trkpt><trkpt lat="43.8069181" lon="16.8849662"><ele>704.0</ele><time>2026-04-28T11:01:31.326Z</time></trkpt><trkpt lat="43.8070079" lon="16.8850499"><ele>704.0</ele><time>2026-04-28T11:01:32.326Z</time></trkpt><trkpt lat="43.8070924" lon="16.8851344"><ele>704.0</ele><time>2026-04-28T11:01:33.326Z</time></trkpt><trkpt lat="43.8071834" lon="16.8852236"><ele>704.0</ele><time>2026-04-28T11:01:34.327Z</time></trkpt><trkpt lat="43.8072688" lon="16.8853159"><ele>704.0</ele><time>2026-04-28T11:01:35.326Z</time></trkpt><trkpt lat="43.807336" lon="16.8854012"><ele>703.8000000000001</ele><time>2026-04-28T11:01:36.326Z</time></trkpt><trkpt lat="43.807405" lon="16.885474"><ele>703.6</ele><time>2026-04-28T11:01:37.326Z</time></trkpt><trkpt lat="43.8074731" lon="16.8855452"><ele>703.4</ele><time>2026-04-28T11:01:38.326Z</time></trkpt><trkpt lat="43.8075521" lon="16.8856175"><ele>703.2</ele><time>2026-04-28T11:01:39.326Z</time></trkpt><trkpt lat="43.8076347" lon="16.8856971"><ele>703.0</ele><time>2026-04-28T11:01:40.326Z</time></trkpt><trkpt lat="43.8077236" lon="16.8857954"><ele>703.0</ele><time>2026-04-28T11:01:41.326Z</time></trkpt><trkpt lat="43.8078133" lon="16.8858863"><ele>703.0</ele><time>2026-04-28T11:01:42.326Z</time></trkpt><trkpt lat="43.8079072" lon="16.8859827"><ele>703.0</ele><time>2026-04-28T11:01:43.326Z</time></trkpt><trkpt lat="43.8080061" lon="16.8860775"><ele>703.0</ele><time>2026-04-28T11:01:44.326Z</time></trkpt><trkpt lat="43.8081076" lon="16.8861785"><ele>703.2</ele><time>2026-04-28T11:01:45.326Z</time></trkpt><trkpt lat="43.8082003" lon="16.8862634"><ele>703.4</ele><time>2026-04-28T11:01:46.326Z</time></trkpt><trkpt lat="43.8082853" lon="16.8863447"><ele>703.6</ele><time>2026-04-28T11:01:47.327Z</time></trkpt><trkpt lat="43.8083589" lon="16.8864149"><ele>703.8000000000001</ele><time>2026-04-28T11:01:48.326Z</time></trkpt><trkpt lat="43.8084377" lon="16.8864875"><ele>704.0</ele><time>2026-04-28T11:01:49.326Z</time></trkpt><trkpt lat="43.808522" lon="16.8865637"><ele>704.0</ele><time>2026-04-28T11:01:50.327Z</time></trkpt><trkpt lat="43.8086032" lon="16.8866503"><ele>704.0</ele><time>2026-04-28T11:01:51.326Z</time></trkpt><trkpt lat="43.8086794" lon="16.8867277"><ele>704.0</ele><time>2026-04-28T11:01:52.327Z</time></trkpt><trkpt lat="43.8087616" lon="16.8868109"><ele>704.0</ele><time>2026-04-28T11:01:53.326Z</time></trkpt><trkpt lat="43.8088375" lon="16.8868935"><ele>704.0</ele><time>2026-04-28T11:01:54.326Z</time></trkpt><trkpt lat="43.8089311" lon="16.886985"><ele>704.2</ele><time>2026-04-28T11:01:55.326Z</time></trkpt><trkpt lat="43.8090237" lon="16.8870835"><ele>704.4000000000001</ele><time>2026-04-28T11:01:56.326Z</time></trkpt><trkpt lat="43.8091036" lon="16.8871772"><ele>704.6</ele><time>2026-04-28T11:01:57.326Z</time></trkpt><trkpt lat="43.8091726" lon="16.887249"><ele>704.8</ele><time>2026-04-28T11:01:58.327Z</time></trkpt><trkpt lat="43.8092398" lon="16.8873135"><ele>705.0</ele><time>2026-04-28T11:01:59.326Z</time></trkpt><trkpt lat="43.8093198" lon="16.887387"><ele>704.8</ele><time>2026-04-28T11:02:00.326Z</time></trkpt><trkpt lat="43.8094088" lon="16.8874706"><ele>704.6</ele><time>2026-04-28T11:02:01.326Z</time></trkpt><trkpt lat="43.8094884" lon="16.8875521"><ele>704.4000000000001</ele><time>2026-04-28T11:02:02.327Z</time></trkpt><trkpt lat="43.8095667" lon="16.8876276"><ele>704.2</ele><time>2026-04-28T11:02:03.326Z</time></trkpt><trkpt lat="43.8096401" lon="16.8876952"><ele>704.0</ele><time>2026-04-28T11:02:04.326Z</time></trkpt><trkpt lat="43.8097114" lon="16.887759"><ele>704.0</ele><time>2026-04-28T11:02:05.326Z</time></trkpt><trkpt lat="43.8097891" lon="16.8878313"><ele>704.0</ele><time>2026-04-28T11:02:06.326Z</time></trkpt><trkpt lat="43.8098785" lon="16.88792"><ele>704.0</ele><time>2026-04-28T11:02:07.326Z</time></trkpt><trkpt lat="43.8099746" lon="16.8880098"><ele>704.0</ele><time>2026-04-28T11:02:08.326Z</time></trkpt><trkpt lat="43.8100749" lon="16.8881089"><ele>704.0</ele><time>2026-04-28T11:02:09.327Z</time></trkpt><trkpt lat="43.8101685" lon="16.8882042"><ele>704.0</ele><time>2026-04-28T11:02:10.326Z</time></trkpt><trkpt lat="43.8102518" lon="16.8882874"><ele>704.0</ele><time>2026-04-28T11:02:11.327Z</time></trkpt><trkpt lat="43.8103245" lon="16.8883589"><ele>704.0</ele><time>2026-04-28T11:02:12.326Z</time></trkpt><trkpt lat="43.810384" lon="16.8884329"><ele>704.0</ele><time>2026-04-28T11:02:13.326Z</time></trkpt><trkpt lat="43.8104331" lon="16.8885029"><ele>704.0</ele><time>2026-04-28T11:02:14.326Z</time></trkpt><trkpt lat="43.8104758" lon="16.888578"><ele>704.0</ele><time>2026-04-28T11:02:15.327Z</time></trkpt><trkpt lat="43.8105168" lon="16.8886533"><ele>704.2</ele><time>2026-04-28T11:02:16.326Z</time></trkpt><trkpt lat="43.8105696" lon="16.8887019"><ele>704.4000000000001</ele><time>2026-04-28T11:02:17.327Z</time></trkpt><trkpt lat="43.8106433" lon="16.8887501"><ele>704.6</ele><time>2026-04-28T11:02:18.327Z</time></trkpt><trkpt lat="43.8107275" lon="16.8888037"><ele>704.8</ele><time>2026-04-28T11:02:19.327Z</time></trkpt><trkpt lat="43.8108152" lon="16.8888708"><ele>705.0</ele><time>2026-04-28T11:02:20.326Z</time></trkpt><trkpt lat="43.8109134" lon="16.8889554"><ele>705.0</ele><time>2026-04-28T11:02:21.327Z</time></trkpt><trkpt lat="43.8110145" lon="16.8890503"><ele>705.0</ele><time>2026-04-28T11:02:22.326Z</time></trkpt><trkpt lat="43.8111129" lon="16.8891459"><ele>705.0</ele><time>2026-04-28T11:02:23.326Z</time></trkpt><trkpt lat="43.8112173" lon="16.8892519"><ele>705.0</ele><time>2026-04-28T11:02:24.326Z</time></trkpt><trkpt lat="43.8113224" lon="16.8893523"><ele>705.0</ele><time>2026-04-28T11:02:25.326Z</time></trkpt><trkpt lat="43.8114217" lon="16.8894483"><ele>705.0</ele><time>2026-04-28T11:02:26.327Z</time></trkpt><trkpt lat="43.8115212" lon="16.8895465"><ele>705.0</ele><time>2026-04-28T11:02:27.327Z</time></trkpt><trkpt lat="43.8116288" lon="16.88966"><ele>705.0</ele><time>2026-04-28T11:02:28.326Z</time></trkpt><trkpt lat="43.811736" lon="16.8897694"><ele>705.0</ele><time>2026-04-28T11:02:29.327Z</time></trkpt><trkpt lat="43.8118521" lon="16.8898784"><ele>705.0</ele><time>2026-04-28T11:02:30.327Z</time></trkpt><trkpt lat="43.8119715" lon="16.8899922"><ele>705.0</ele><time>2026-04-28T11:02:31.326Z</time></trkpt><trkpt lat="43.8120901" lon="16.8901022"><ele>705.0</ele><time>2026-04-28T11:02:32.326Z</time></trkpt><trkpt lat="43.8122126" lon="16.8902204"><ele>705.0</ele><time>2026-04-28T11:02:33.326Z</time></trkpt><trkpt lat="43.8123298" lon="16.8903289"><ele>705.0</ele><time>2026-04-28T11:02:34.326Z</time></trkpt><trkpt lat="43.8124476" lon="16.8904478"><ele>705.0</ele><time>2026-04-28T11:02:35.326Z</time></trkpt><trkpt lat="43.8125668" lon="16.8905647"><ele>705.0</ele><time>2026-04-28T11:02:36.326Z</time></trkpt><trkpt lat="43.812685" lon="16.8906782"><ele>704.6666666666666</ele><time>2026-04-28T11:02:37.327Z</time></trkpt><trkpt lat="43.812808" lon="16.8908028"><ele>704.3333333333333</ele><time>2026-04-28T11:02:38.326Z</time></trkpt><trkpt lat="43.8129308" lon="16.8909255"><ele>704.0</ele><time>2026-04-28T11:02:39.327Z</time></trkpt><trkpt lat="43.8130561" lon="16.891049"><ele>704.0</ele><time>2026-04-28T11:02:40.326Z</time></trkpt><trkpt lat="43.8131835" lon="16.8911775"><ele>704.0</ele><time>2026-04-28T11:02:41.327Z</time></trkpt><trkpt lat="43.813312" lon="16.891304"><ele>704.0</ele><time>2026-04-28T11:02:42.327Z</time></trkpt><trkpt lat="43.8134468" lon="16.8914358"><ele>703.6666666666666</ele><time>2026-04-28T11:02:43.327Z</time></trkpt><trkpt lat="43.8135815" lon="16.891568"><ele>703.3333333333334</ele><time>2026-04-28T11:02:44.327Z</time></trkpt><trkpt lat="43.8137166" lon="16.8917062"><ele>703.0</ele><time>2026-04-28T11:02:45.326Z</time></trkpt><trkpt lat="43.813846" lon="16.8918403"><ele>703.0</ele><time>2026-04-28T11:02:46.326Z</time></trkpt><trkpt lat="43.8139773" lon="16.8919718"><ele>703.0</ele><time>2026-04-28T11:02:47.327Z</time></trkpt><trkpt lat="43.8141079" lon="16.8921055"><ele>703.0</ele><time>2026-04-28T11:02:48.327Z</time></trkpt><trkpt lat="43.8142407" lon="16.892236"><ele>703.0</ele><time>2026-04-28T11:02:49.326Z</time></trkpt><trkpt lat="43.8143709" lon="16.8923668"><ele>703.0</ele><time>2026-04-28T11:02:50.326Z</time></trkpt><trkpt lat="43.8145015" lon="16.892506"><ele>703.0</ele><time>2026-04-28T11:02:51.326Z</time></trkpt><trkpt lat="43.8146343" lon="16.8926339"><ele>703.0</ele><time>2026-04-28T11:02:52.326Z</time></trkpt><trkpt lat="43.8147648" lon="16.8927684"><ele>703.0</ele><time>2026-04-28T11:02:53.326Z</time></trkpt><trkpt lat="43.8148834" lon="16.8928969"><ele>703.0</ele><time>2026-04-28T11:02:54.326Z</time></trkpt><trkpt lat="43.8149907" lon="16.8930098"><ele>703.0</ele><time>2026-04-28T11:02:55.326Z</time></trkpt><trkpt lat="43.8151134" lon="16.8931354"><ele>703.0</ele><time>2026-04-28T11:02:56.327Z</time></trkpt><trkpt lat="43.8152431" lon="16.893246"><ele>703.0</ele><time>2026-04-28T11:02:57.326Z</time></trkpt><trkpt lat="43.8153606" lon="16.8933641"><ele>703.0</ele><time>2026-04-28T11:02:58.326Z</time></trkpt><trkpt lat="43.815484" lon="16.8934811"><ele>703.0</ele><time>2026-04-28T11:02:59.326Z</time></trkpt><trkpt lat="43.8156087" lon="16.8935911"><ele>703.0</ele><time>2026-04-28T11:03:00.326Z</time></trkpt><trkpt lat="43.8157353" lon="16.8937047"><ele>703.0</ele><time>2026-04-28T11:03:01.326Z</time></trkpt><trkpt lat="43.8158637" lon="16.8938234"><ele>703.0</ele><time>2026-04-28T11:03:02.326Z</time></trkpt><trkpt lat="43.8159935" lon="16.8939435"><ele>703.0</ele><time>2026-04-28T11:03:03.326Z</time></trkpt><trkpt lat="43.8161357" lon="16.894055"><ele>703.0</ele><time>2026-04-28T11:03:04.326Z</time></trkpt><trkpt lat="43.8162785" lon="16.8941677"><ele>703.0</ele><time>2026-04-28T11:03:05.326Z</time></trkpt><trkpt lat="43.8164167" lon="16.8942798"><ele>703.0</ele><time>2026-04-28T11:03:06.326Z</time></trkpt><trkpt lat="43.8165576" lon="16.8943909"><ele>703.0</ele><time>2026-04-28T11:03:07.326Z</time></trkpt><trkpt lat="43.8166994" lon="16.8945021"><ele>703.0</ele><time>2026-04-28T11:03:08.326Z</time></trkpt><trkpt lat="43.8168447" lon="16.894604"><ele>702.6666666666667</ele><time>2026-04-28T11:03:09.326Z</time></trkpt><trkpt lat="43.8169872" lon="16.8947093"><ele>702.3333333333334</ele><time>2026-04-28T11:03:10.326Z</time></trkpt><trkpt lat="43.8171331" lon="16.8948166"><ele>702.0</ele><time>2026-04-28T11:03:11.326Z</time></trkpt><trkpt lat="43.8172784" lon="16.89492"><ele>702.0</ele><time>2026-04-28T11:03:12.326Z</time></trkpt><trkpt lat="43.8174267" lon="16.8950177"><ele>702.0</ele><time>2026-04-28T11:03:13.326Z</time></trkpt><trkpt lat="43.8175694" lon="16.8951246"><ele>702.0</ele><time>2026-04-28T11:03:14.327Z</time></trkpt><trkpt lat="43.8177137" lon="16.8952164"><ele>702.6666666666666</ele><time>2026-04-28T11:03:15.327Z</time></trkpt><trkpt lat="43.8178559" lon="16.8953189"><ele>703.3333333333333</ele><time>2026-04-28T11:03:16.326Z</time></trkpt><trkpt lat="43.8180024" lon="16.8954135"><ele>704.0</ele><time>2026-04-28T11:03:17.326Z</time></trkpt><trkpt lat="43.8181502" lon="16.8955005"><ele>704.0</ele><time>2026-04-28T11:03:18.326Z</time></trkpt><trkpt lat="43.8182956" lon="16.8955864"><ele>704.0</ele><time>2026-04-28T11:03:19.326Z</time></trkpt><trkpt lat="43.818447" lon="16.8956697"><ele>704.0</ele><time>2026-04-28T11:03:20.326Z</time></trkpt><trkpt lat="43.8185987" lon="16.8957532"><ele>704.0</ele><time>2026-04-28T11:03:21.326Z</time></trkpt><trkpt lat="43.8187536" lon="16.8958325"><ele>704.0</ele><time>2026-04-28T11:03:22.326Z</time></trkpt><trkpt lat="43.818905" lon="16.8959072"><ele>704.0</ele><time>2026-04-28T11:03:23.327Z</time></trkpt><trkpt lat="43.8190627" lon="16.8959911"><ele>704.0</ele><time>2026-04-28T11:03:24.327Z</time></trkpt><trkpt lat="43.8192194" lon="16.8960784"><ele>704.0</ele><time>2026-04-28T11:03:25.326Z</time></trkpt><trkpt lat="43.8193775" lon="16.8961636"><ele>704.0</ele><time>2026-04-28T11:03:26.327Z</time></trkpt><trkpt lat="43.8195344" lon="16.8962557"><ele>704.0</ele><time>2026-04-28T11:03:27.327Z</time></trkpt><trkpt lat="43.8196976" lon="16.8963433"><ele>704.0</ele><time>2026-04-28T11:03:28.326Z</time></trkpt><trkpt lat="43.8198619" lon="16.8964321"><ele>704.0</ele><time>2026-04-28T11:03:29.326Z</time></trkpt><trkpt lat="43.8200244" lon="16.8965271"><ele>704.0</ele><time>2026-04-28T11:03:30.326Z</time></trkpt><trkpt lat="43.8201879" lon="16.8966234"><ele>704.0</ele><time>2026-04-28T11:03:31.326Z</time></trkpt><trkpt lat="43.8203513" lon="16.8967234"><ele>704.0</ele><time>2026-04-28T11:03:32.327Z</time></trkpt><trkpt lat="43.8205107" lon="16.8968184"><ele>704.0</ele><time>2026-04-28T11:03:33.326Z</time></trkpt><trkpt lat="43.8206754" lon="16.8969118"><ele>704.0</ele><time>2026-04-28T11:03:34.326Z</time></trkpt><trkpt lat="43.8208425" lon="16.8969991"><ele>704.0</ele><time>2026-04-28T11:03:35.326Z</time></trkpt><trkpt lat="43.8210103" lon="16.8970902"><ele>704.0</ele><time>2026-04-28T11:03:36.326Z</time></trkpt><trkpt lat="43.821182" lon="16.8971761"><ele>704.0</ele><time>2026-04-28T11:03:37.326Z</time></trkpt><trkpt lat="43.8213527" lon="16.8972597"><ele>704.0</ele><time>2026-04-28T11:03:38.326Z</time></trkpt><trkpt lat="43.8215224" lon="16.8973472"><ele>704.0</ele><time>2026-04-28T11:03:39.327Z</time></trkpt><trkpt lat="43.8216929" lon="16.8974307"><ele>704.0</ele><time>2026-04-28T11:03:40.327Z</time></trkpt><trkpt lat="43.8218633" lon="16.8975192"><ele>704.0</ele><time>2026-04-28T11:03:41.326Z</time></trkpt><trkpt lat="43.822033" lon="16.8976102"><ele>704.3333333333333</ele><time>2026-04-28T11:03:42.326Z</time></trkpt><trkpt lat="43.8222075" lon="16.8977058"><ele>704.6666666666666</ele><time>2026-04-28T11:03:43.327Z</time></trkpt><trkpt lat="43.8223694" lon="16.8977894"><ele>705.0</ele><time>2026-04-28T11:03:44.327Z</time></trkpt><trkpt lat="43.8225239" lon="16.8978752"><ele>705.0</ele><time>2026-04-28T11:03:45.327Z</time></trkpt><trkpt lat="43.8226732" lon="16.8979615"><ele>705.0</ele><time>2026-04-28T11:03:46.326Z</time></trkpt><trkpt lat="43.8228238" lon="16.898044"><ele>705.0</ele><time>2026-04-28T11:03:47.326Z</time></trkpt><trkpt lat="43.8229745" lon="16.8981272"><ele>705.0</ele><time>2026-04-28T11:03:48.326Z</time></trkpt><trkpt lat="43.8231251" lon="16.898215"><ele>705.0</ele><time>2026-04-28T11:03:49.327Z</time></trkpt><trkpt lat="43.8232728" lon="16.8982964"><ele>705.0</ele><time>2026-04-28T11:03:50.326Z</time></trkpt><trkpt lat="43.8234189" lon="16.8983878"><ele>705.0</ele><time>2026-04-28T11:03:51.327Z</time></trkpt><trkpt lat="43.8235637" lon="16.8984726"><ele>705.0</ele><time>2026-04-28T11:03:52.326Z</time></trkpt><trkpt lat="43.8237089" lon="16.8985615"><ele>705.0</ele><time>2026-04-28T11:03:53.327Z</time></trkpt><trkpt lat="43.8238538" lon="16.8986365"><ele>705.0</ele><time>2026-04-28T11:03:54.326Z</time></trkpt><trkpt lat="43.8240046" lon="16.8987171"><ele>705.0</ele><time>2026-04-28T11:03:55.326Z</time></trkpt><trkpt lat="43.8241504" lon="16.8987898"><ele>705.0</ele><time>2026-04-28T11:03:56.326Z</time></trkpt><trkpt lat="43.8242935" lon="16.8988665"><ele>704.75</ele><time>2026-04-28T11:03:57.326Z</time></trkpt><trkpt lat="43.8244338" lon="16.8989442"><ele>704.5</ele><time>2026-04-28T11:03:58.326Z</time></trkpt><trkpt lat="43.8245697" lon="16.899018"><ele>704.25</ele><time>2026-04-28T11:03:59.326Z</time></trkpt><trkpt lat="43.8247066" lon="16.8990891"><ele>704.0</ele><time>2026-04-28T11:04:00.326Z</time></trkpt><trkpt lat="43.8248445" lon="16.8991635"><ele>704.0</ele><time>2026-04-28T11:04:01.327Z</time></trkpt><trkpt lat="43.8249815" lon="16.8992382"><ele>704.0</ele><time>2026-04-28T11:04:02.326Z</time></trkpt><trkpt lat="43.8251222" lon="16.8993118"><ele>704.0</ele><time>2026-04-28T11:04:03.326Z</time></trkpt><trkpt lat="43.8252647" lon="16.8993847"><ele>704.0</ele><time>2026-04-28T11:04:04.326Z</time></trkpt><trkpt lat="43.8254086" lon="16.8994597"><ele>704.0</ele><time>2026-04-28T11:04:05.326Z</time></trkpt><trkpt lat="43.8255562" lon="16.8995374"><ele>704.0</ele><time>2026-04-28T11:04:06.326Z</time></trkpt><trkpt lat="43.8257014" lon="16.8996212"><ele>704.0</ele><time>2026-04-28T11:04:07.327Z</time></trkpt><trkpt lat="43.8258455" lon="16.8997067"><ele>704.3333333333333</ele><time>2026-04-28T11:04:08.327Z</time></trkpt><trkpt lat="43.8259908" lon="16.8997857"><ele>704.6666666666666</ele><time>2026-04-28T11:04:09.327Z</time></trkpt><trkpt lat="43.8261326" lon="16.8998683"><ele>705.0</ele><time>2026-04-28T11:04:10.326Z</time></trkpt><trkpt lat="43.8262811" lon="16.8999473"><ele>705.0</ele><time>2026-04-28T11:04:11.326Z</time></trkpt><trkpt lat="43.8264212" lon="16.900019"><ele>705.0</ele><time>2026-04-28T11:04:12.326Z</time></trkpt><trkpt lat="43.8265492" lon="16.9000868"><ele>705.0</ele><time>2026-04-28T11:04:13.326Z</time></trkpt><trkpt lat="43.8266565" lon="16.9001508"><ele>705.0</ele><time>2026-04-28T11:04:14.327Z</time></trkpt><trkpt lat="43.8267437" lon="16.9002071"><ele>704.8333333333334</ele><time>2026-04-28T11:04:15.327Z</time></trkpt><trkpt lat="43.826815" lon="16.9002753"><ele>704.6666666666666</ele><time>2026-04-28T11:04:16.326Z</time></trkpt><trkpt lat="43.8268794" lon="16.9003412"><ele>704.5</ele><time>2026-04-28T11:04:17.327Z</time></trkpt><trkpt lat="43.8269268" lon="16.9003988"><ele>704.3333333333333</ele><time>2026-04-28T11:04:18.327Z</time></trkpt><trkpt lat="43.8269878" lon="16.900518"><ele>704.1666666666666</ele><time>2026-04-28T11:04:20.326Z</time></trkpt><trkpt lat="43.8269928" lon="16.9006142"><ele>704.0</ele><time>2026-04-28T11:04:22.326Z</time></trkpt><trkpt lat="43.8269879" lon="16.900763"><ele>704.0</ele><time>2026-04-28T11:04:24.326Z</time></trkpt><trkpt lat="43.8269796" lon="16.9008628"><ele>704.0</ele><time>2026-04-28T11:04:25.327Z</time></trkpt><trkpt lat="43.8269592" lon="16.9009725"><ele>704.0</ele><time>2026-04-28T11:04:26.326Z</time></trkpt><trkpt lat="43.8269192" lon="16.9010987"><ele>704.0</ele><time>2026-04-28T11:04:27.326Z</time></trkpt><trkpt lat="43.8268798" lon="16.9012267"><ele>704.0</ele><time>2026-04-28T11:04:28.326Z</time></trkpt><trkpt lat="43.8268419" lon="16.9013629"><ele>704.2</ele><time>2026-04-28T11:04:29.326Z</time></trkpt><trkpt lat="43.8268014" lon="16.9015025"><ele>704.4000000000001</ele><time>2026-04-28T11:04:30.326Z</time></trkpt><trkpt lat="43.8267603" lon="16.9016496"><ele>704.6</ele><time>2026-04-28T11:04:31.327Z</time></trkpt><trkpt lat="43.8267218" lon="16.9017905"><ele>704.8</ele><time>2026-04-28T11:04:32.326Z</time></trkpt><trkpt lat="43.8266868" lon="16.9019294"><ele>705.0</ele><time>2026-04-28T11:04:33.326Z</time></trkpt><trkpt lat="43.8266497" lon="16.9020528"><ele>705.0</ele><time>2026-04-28T11:04:34.326Z</time></trkpt><trkpt lat="43.8266046" lon="16.9021779"><ele>705.0</ele><time>2026-04-28T11:04:35.327Z</time></trkpt><trkpt lat="43.8265616" lon="16.9023071"><ele>705.0</ele><time>2026-04-28T11:04:36.326Z</time></trkpt><trkpt lat="43.8265205" lon="16.9024267"><ele>705.0</ele><time>2026-04-28T11:04:37.326Z</time></trkpt><trkpt lat="43.8264944" lon="16.9025472"><ele>705.0</ele><time>2026-04-28T11:04:38.326Z</time></trkpt><trkpt lat="43.8264725" lon="16.9026689"><ele>705.0</ele><time>2026-04-28T11:04:39.326Z</time></trkpt><trkpt lat="43.8264434" lon="16.9027778"><ele>705.0</ele><time>2026-04-28T11:04:40.326Z</time></trkpt><trkpt lat="43.8264068" lon="16.9028954"><ele>705.0</ele><time>2026-04-28T11:04:41.327Z</time></trkpt><trkpt lat="43.8263689" lon="16.9030237"><ele>705.0</ele><time>2026-04-28T11:04:42.327Z</time></trkpt><trkpt lat="43.8263306" lon="16.9031404"><ele>705.0</ele><time>2026-04-28T11:04:43.326Z</time></trkpt><trkpt lat="43.8262837" lon="16.9032501"><ele>705.0</ele><time>2026-04-28T11:04:44.327Z</time></trkpt><trkpt lat="43.8262497" lon="16.903372"><ele>705.0</ele><time>2026-04-28T11:04:45.326Z</time></trkpt><trkpt lat="43.826222" lon="16.9035014"><ele>705.0</ele><time>2026-04-28T11:04:46.326Z</time></trkpt><trkpt lat="43.8261911" lon="16.9036281"><ele>705.0</ele><time>2026-04-28T11:04:47.327Z</time></trkpt><trkpt lat="43.826158" lon="16.9037486"><ele>705.0</ele><time>2026-04-28T11:04:48.327Z</time></trkpt><trkpt lat="43.8261315" lon="16.9038529"><ele>704.9999999999999</ele><time>2026-04-28T11:04:49.326Z</time></trkpt><trkpt lat="43.8261016" lon="16.9039509"><ele>705.0</ele><time>2026-04-28T11:04:50.326Z</time></trkpt><trkpt lat="43.8260755" lon="16.9040506"><ele>705.0</ele><time>2026-04-28T11:04:51.327Z</time></trkpt><trkpt lat="43.8260545" lon="16.904147"><ele>705.0</ele><time>2026-04-28T11:04:52.327Z</time></trkpt><trkpt lat="43.8260289" lon="16.9042388"><ele>705.0</ele><time>2026-04-28T11:04:53.326Z</time></trkpt><trkpt lat="43.8260022" lon="16.9043362"><ele>704.9999999999999</ele><time>2026-04-28T11:04:54.326Z</time></trkpt><trkpt lat="43.8259784" lon="16.9044256"><ele>705.0</ele><time>2026-04-28T11:04:55.326Z</time></trkpt><trkpt lat="43.8259354" lon="16.9045629"><ele>705.0</ele><time>2026-04-28T11:04:57.326Z</time></trkpt><trkpt lat="43.825896" lon="16.9046638"><ele>705.0</ele><time>2026-04-28T11:04:59.326Z</time></trkpt><trkpt lat="43.8258655" lon="16.9047628"><ele>705.0</ele><time>2026-04-28T11:05:01.327Z</time></trkpt><trkpt lat="43.8258409" lon="16.9048487"><ele>705.0</ele><time>2026-04-28T11:05:03.327Z</time></trkpt><trkpt lat="43.8258153" lon="16.9049431"><ele>705.0</ele><time>2026-04-28T11:05:05.327Z</time></trkpt><trkpt lat="43.825789" lon="16.9050229"><ele>705.0</ele><time>2026-04-28T11:05:09.326Z</time></trkpt><trkpt lat="43.8257549" lon="16.9051454"><ele>704.8333333333334</ele><time>2026-04-28T11:05:31.326Z</time></trkpt><trkpt lat="43.8257219" lon="16.9052683"><ele>704.6666666666666</ele><time>2026-04-28T11:05:33.326Z</time></trkpt><trkpt lat="43.8256809" lon="16.9054316"><ele>704.5</ele><time>2026-04-28T11:05:35.327Z</time></trkpt><trkpt lat="43.825655" lon="16.9055138"><ele>704.3333333333333</ele><time>2026-04-28T11:05:36.326Z</time></trkpt><trkpt lat="43.8256209" lon="16.9056022"><ele>704.1666666666666</ele><time>2026-04-28T11:05:37.326Z</time></trkpt><trkpt lat="43.8255831" lon="16.9057029"><ele>704.0</ele><time>2026-04-28T11:05:38.326Z</time></trkpt><trkpt lat="43.8255554" lon="16.9057819"><ele>704.0</ele><time>2026-04-28T11:05:39.326Z</time></trkpt><trkpt lat="43.8255332" lon="16.9058793"><ele>704.0</ele><time>2026-04-28T11:05:40.327Z</time></trkpt><trkpt lat="43.8255108" lon="16.9059894"><ele>704.0</ele><time>2026-04-28T11:05:41.327Z</time></trkpt><trkpt lat="43.8254865" lon="16.9061025"><ele>704.0</ele><time>2026-04-28T11:05:42.326Z</time></trkpt><trkpt lat="43.8254639" lon="16.9062142"><ele>704.0</ele><time>2026-04-28T11:05:43.327Z</time></trkpt><trkpt lat="43.8254352" lon="16.9063341"><ele>704.0</ele><time>2026-04-28T11:05:44.326Z</time></trkpt><trkpt lat="43.8254" lon="16.9064549"><ele>704.0</ele><time>2026-04-28T11:05:45.326Z</time></trkpt><trkpt lat="43.8253623" lon="16.9065702"><ele>704.0</ele><time>2026-04-28T11:05:46.327Z</time></trkpt><trkpt lat="43.8253325" lon="16.9066823"><ele>704.0</ele><time>2026-04-28T11:05:47.327Z</time></trkpt><trkpt lat="43.825311" lon="16.9067895"><ele>704.0</ele><time>2026-04-28T11:05:48.327Z</time></trkpt><trkpt lat="43.8252894" lon="16.9068796"><ele>704.0</ele><time>2026-04-28T11:05:49.326Z</time></trkpt><trkpt lat="43.8252658" lon="16.9069638"><ele>704.0</ele><time>2026-04-28T11:05:50.327Z</time></trkpt><trkpt lat="43.8252355" lon="16.907052"><ele>704.1666666666666</ele><time>2026-04-28T11:05:51.327Z</time></trkpt><trkpt lat="43.8252055" lon="16.9071399"><ele>704.3333333333333</ele><time>2026-04-28T11:05:52.327Z</time></trkpt><trkpt lat="43.8251803" lon="16.9072268"><ele>704.5</ele><time>2026-04-28T11:05:53.326Z</time></trkpt><trkpt lat="43.8251568" lon="16.9073141"><ele>704.6666666666666</ele><time>2026-04-28T11:05:54.326Z</time></trkpt><trkpt lat="43.8251394" lon="16.9074005"><ele>704.8333333333334</ele><time>2026-04-28T11:05:55.326Z</time></trkpt><trkpt lat="43.8251118" lon="16.9074808"><ele>705.0</ele><time>2026-04-28T11:05:56.326Z</time></trkpt><trkpt lat="43.8250645" lon="16.9076322"><ele>704.9999999999999</ele><time>2026-04-28T11:05:58.327Z</time></trkpt><trkpt lat="43.8250385" lon="16.9077155"><ele>705.0</ele><time>2026-04-28T11:05:59.326Z</time></trkpt><trkpt lat="43.8250128" lon="16.9078002"><ele>705.0</ele><time>2026-04-28T11:06:00.326Z</time></trkpt><trkpt lat="43.8249845" lon="16.9078989"><ele>705.0</ele><time>2026-04-28T11:06:01.327Z</time></trkpt><trkpt lat="43.8249645" lon="16.9079895"><ele>705.0</ele><time>2026-04-28T11:06:02.326Z</time></trkpt><trkpt lat="43.8249438" lon="16.9080773"><ele>704.9999999999999</ele><time>2026-04-28T11:06:03.326Z</time></trkpt><trkpt lat="43.824919" lon="16.908166"><ele>705.0</ele><time>2026-04-28T11:06:04.326Z</time></trkpt><trkpt lat="43.8248915" lon="16.9082544"><ele>704.9999999999999</ele><time>2026-04-28T11:06:05.327Z</time></trkpt><trkpt lat="43.8248587" lon="16.90834"><ele>705.0</ele><time>2026-04-28T11:06:06.327Z</time></trkpt><trkpt lat="43.8248283" lon="16.9084322"><ele>705.0</ele><time>2026-04-28T11:06:07.326Z</time></trkpt><trkpt lat="43.8248033" lon="16.9085229"><ele>705.0</ele><time>2026-04-28T11:06:08.326Z</time></trkpt><trkpt lat="43.8247738" lon="16.9086258"><ele>705.0</ele><time>2026-04-28T11:06:09.327Z</time></trkpt><trkpt lat="43.8247462" lon="16.9087181"><ele>704.9999999999999</ele><time>2026-04-28T11:06:10.326Z</time></trkpt><trkpt lat="43.8247255" lon="16.9088038"><ele>705.0</ele><time>2026-04-28T11:06:11.326Z</time></trkpt><trkpt lat="43.8246992" lon="16.9088851"><ele>705.0</ele><time>2026-04-28T11:06:12.327Z</time></trkpt><trkpt lat="43.8246504" lon="16.9090427"><ele>705.0</ele><time>2026-04-28T11:06:14.326Z</time></trkpt><trkpt lat="43.8246055" lon="16.9091994"><ele>705.0</ele><time>2026-04-28T11:06:16.327Z</time></trkpt><trkpt lat="43.8245737" lon="16.9093266"><ele>705.0</ele><time>2026-04-28T11:06:18.326Z</time></trkpt><trkpt lat="43.8245384" lon="16.9094111"><ele>705.0</ele><time>2026-04-28T11:06:21.326Z</time></trkpt><trkpt lat="43.8244644" lon="16.9093602"><ele>705.0</ele><time>2026-04-28T11:06:26.327Z</time></trkpt><trkpt lat="43.8243739" lon="16.9093188"><ele>705.0</ele><time>2026-04-28T11:07:36.326Z</time></trkpt><trkpt lat="43.8242457" lon="16.9092552"><ele>705.0</ele><time>2026-04-28T11:07:38.326Z</time></trkpt><trkpt lat="43.824167" lon="16.9092148"><ele>705.0</ele><time>2026-04-28T11:07:39.326Z</time></trkpt><trkpt lat="43.8240854" lon="16.9091684"><ele>705.0</ele><time>2026-04-28T11:07:40.326Z</time></trkpt><trkpt lat="43.8240029" lon="16.9091293"><ele>705.1666666666666</ele><time>2026-04-28T11:07:41.327Z</time></trkpt><trkpt lat="43.8239193" lon="16.9090856"><ele>705.3333333333334</ele><time>2026-04-28T11:07:42.326Z</time></trkpt><trkpt lat="43.8238389" lon="16.9090353"><ele>705.5</ele><time>2026-04-28T11:07:43.326Z</time></trkpt><trkpt lat="43.8237613" lon="16.9089924"><ele>705.6666666666667</ele><time>2026-04-28T11:07:44.326Z</time></trkpt><trkpt lat="43.8236711" lon="16.9089469"><ele>705.8333333333334</ele><time>2026-04-28T11:07:45.326Z</time></trkpt><trkpt lat="43.8235864" lon="16.9089003"><ele>706.0</ele><time>2026-04-28T11:07:46.326Z</time></trkpt><trkpt lat="43.8234923" lon="16.9088472"><ele>705.8</ele><time>2026-04-28T11:07:47.326Z</time></trkpt><trkpt lat="43.8234009" lon="16.9087957"><ele>705.5999999999999</ele><time>2026-04-28T11:07:48.327Z</time></trkpt><trkpt lat="43.8233102" lon="16.9087412"><ele>705.4</ele><time>2026-04-28T11:07:49.326Z</time></trkpt><trkpt lat="43.8232175" lon="16.9086903"><ele>705.2</ele><time>2026-04-28T11:07:50.326Z</time></trkpt><trkpt lat="43.8231237" lon="16.9086405"><ele>705.0</ele><time>2026-04-28T11:07:51.327Z</time></trkpt><trkpt lat="43.8230306" lon="16.9085896"><ele>705.0</ele><time>2026-04-28T11:07:52.326Z</time></trkpt><trkpt lat="43.8229387" lon="16.9085297"><ele>705.0</ele><time>2026-04-28T11:07:53.326Z</time></trkpt><trkpt lat="43.8228472" lon="16.9084792"><ele>705.0</ele><time>2026-04-28T11:07:54.327Z</time></trkpt><trkpt lat="43.8227569" lon="16.9084332"><ele>705.0</ele><time>2026-04-28T11:07:55.327Z</time></trkpt><trkpt lat="43.8226667" lon="16.9083824"><ele>705.0</ele><time>2026-04-28T11:07:56.326Z</time></trkpt><trkpt lat="43.8225717" lon="16.9083331"><ele>704.8</ele><time>2026-04-28T11:07:57.327Z</time></trkpt><trkpt lat="43.8224751" lon="16.9082745"><ele>704.6</ele><time>2026-04-28T11:07:58.326Z</time></trkpt><trkpt lat="43.8223781" lon="16.9082198"><ele>704.4000000000001</ele><time>2026-04-28T11:07:59.326Z</time></trkpt><trkpt lat="43.822278" lon="16.9081694"><ele>704.2</ele><time>2026-04-28T11:08:00.326Z</time></trkpt><trkpt lat="43.822185" lon="16.9081153"><ele>704.0</ele><time>2026-04-28T11:08:01.327Z</time></trkpt><trkpt lat="43.8220981" lon="16.9080659"><ele>704.0</ele><time>2026-04-28T11:08:02.326Z</time></trkpt><trkpt lat="43.8220074" lon="16.9080198"><ele>704.0</ele><time>2026-04-28T11:08:03.327Z</time></trkpt><trkpt lat="43.8219302" lon="16.9079815"><ele>704.0</ele><time>2026-04-28T11:08:04.327Z</time></trkpt><trkpt lat="43.821852" lon="16.9079408"><ele>704.0</ele><time>2026-04-28T11:08:05.327Z</time></trkpt><trkpt lat="43.8217802" lon="16.9079028"><ele>704.0</ele><time>2026-04-28T11:08:06.327Z</time></trkpt><trkpt lat="43.8217153" lon="16.9078564"><ele>704.0</ele><time>2026-04-28T11:08:07.326Z</time></trkpt><trkpt lat="43.8216435" lon="16.9078048"><ele>704.0</ele><time>2026-04-28T11:08:08.326Z</time></trkpt><trkpt lat="43.821567" lon="16.9077539"><ele>704.0</ele><time>2026-04-28T11:08:09.327Z</time></trkpt><trkpt lat="43.8214843" lon="16.9077017"><ele>704.0</ele><time>2026-04-28T11:08:10.327Z</time></trkpt><trkpt lat="43.8213933" lon="16.9076593"><ele>704.0</ele><time>2026-04-28T11:08:11.326Z</time></trkpt><trkpt lat="43.8213092" lon="16.9076198"><ele>704.0</ele><time>2026-04-28T11:08:12.326Z</time></trkpt><trkpt lat="43.821225" lon="16.9075818"><ele>704.0</ele><time>2026-04-28T11:08:13.326Z</time></trkpt><trkpt lat="43.8211489" lon="16.9075391"><ele>704.0</ele><time>2026-04-28T11:08:14.327Z</time></trkpt><trkpt lat="43.8210846" lon="16.9075051"><ele>704.0</ele><time>2026-04-28T11:08:15.326Z</time></trkpt><trkpt lat="43.8210036" lon="16.907464"><ele>704.0</ele><time>2026-04-28T11:08:17.326Z</time></trkpt><trkpt lat="43.8209358" lon="16.9074318"><ele>704.0</ele><time>2026-04-28T12:15:08.326Z</time></trkpt><trkpt lat="43.8208594" lon="16.907382"><ele>704.0</ele><time>2026-04-28T12:15:10.326Z</time></trkpt><trkpt lat="43.8207676" lon="16.9073358"><ele>704.0</ele><time>2026-04-28T12:15:12.326Z</time></trkpt><trkpt lat="43.8206654" lon="16.9072809"><ele>704.1666666666666</ele><time>2026-04-28T12:15:14.326Z</time></trkpt><trkpt lat="43.8205669" lon="16.9072322"><ele>704.3333333333333</ele><time>2026-04-28T12:15:16.327Z</time></trkpt><trkpt lat="43.8204723" lon="16.9071831"><ele>704.5</ele><time>2026-04-28T12:15:18.326Z</time></trkpt><trkpt lat="43.820421" lon="16.907114"><ele>704.6666666666666</ele><time>2026-04-28T12:15:21.326Z</time></trkpt><trkpt lat="43.820359" lon="16.9070855"><ele>704.8333333333334</ele><time>2026-04-28T12:15:25.326Z</time></trkpt><trkpt lat="43.820416" lon="16.9071688"><ele>705.0</ele><time>2026-04-28T12:15:29.326Z</time></trkpt><trkpt lat="43.8205307" lon="16.9072226"><ele>704.9999999999999</ele><time>2026-04-28T12:15:31.326Z</time></trkpt><trkpt lat="43.8205951" lon="16.9072565"><ele>705.0</ele><time>2026-04-28T12:15:32.326Z</time></trkpt><trkpt lat="43.8206605" lon="16.9072907"><ele>705.0</ele><time>2026-04-28T12:15:33.326Z</time></trkpt><trkpt lat="43.8207302" lon="16.9073278"><ele>705.0</ele><time>2026-04-28T12:15:34.326Z</time></trkpt><trkpt lat="43.8207954" lon="16.907364"><ele>705.0</ele><time>2026-04-28T12:15:35.326Z</time></trkpt><trkpt lat="43.8208564" lon="16.9073984"><ele>704.9999999999999</ele><time>2026-04-28T12:15:36.326Z</time></trkpt><trkpt lat="43.8209211" lon="16.9074287"><ele>705.0</ele><time>2026-04-28T12:15:37.326Z</time></trkpt><trkpt lat="43.821021" lon="16.9074816"><ele>704.8</ele><time>2026-04-28T12:15:39.326Z</time></trkpt><trkpt lat="43.8211191" lon="16.9075195"><ele>704.6</ele><time>2026-04-28T12:15:41.326Z</time></trkpt><trkpt lat="43.8212071" lon="16.9075735"><ele>704.4000000000001</ele><time>2026-04-28T12:15:43.327Z</time></trkpt><trkpt lat="43.821317" lon="16.9076294"><ele>704.2</ele><time>2026-04-28T12:15:45.326Z</time></trkpt><trkpt lat="43.8214347" lon="16.9076883"><ele>704.0</ele><time>2026-04-28T12:15:47.327Z</time></trkpt><trkpt lat="43.8214965" lon="16.9077252"><ele>704.0</ele><time>2026-04-28T12:15:48.326Z</time></trkpt><trkpt lat="43.821564" lon="16.9077651"><ele>704.0</ele><time>2026-04-28T12:15:49.326Z</time></trkpt><trkpt lat="43.8216295" lon="16.9078075"><ele>704.0</ele><time>2026-04-28T12:15:50.326Z</time></trkpt><trkpt lat="43.8216871" lon="16.9078498"><ele>704.0</ele><time>2026-04-28T12:15:51.327Z</time></trkpt><trkpt lat="43.8217581" lon="16.9078912"><ele>704.0</ele><time>2026-04-28T12:15:52.327Z</time></trkpt><trkpt lat="43.8218798" lon="16.9079592"><ele>704.0</ele><time>2026-04-28T12:15:54.326Z</time></trkpt><trkpt lat="43.8219489" lon="16.9079996"><ele>704.0</ele><time>2026-04-28T12:15:55.326Z</time></trkpt><trkpt lat="43.8220096" lon="16.9080266"><ele>704.0</ele><time>2026-04-28T12:15:56.326Z</time></trkpt><trkpt lat="43.822078" lon="16.908059"><ele>704.0</ele><time>2026-04-28T12:15:57.326Z</time></trkpt><trkpt lat="43.8221562" lon="16.9081014"><ele>704.0</ele><time>2026-04-28T12:15:58.326Z</time></trkpt><trkpt lat="43.8222336" lon="16.9081417"><ele>704.0</ele><time>2026-04-28T12:15:59.326Z</time></trkpt><trkpt lat="43.8223122" lon="16.908188"><ele>704.0</ele><time>2026-04-28T12:16:00.326Z</time></trkpt><trkpt lat="43.8223892" lon="16.9082308"><ele>704.0</ele><time>2026-04-28T12:16:01.326Z</time></trkpt><trkpt lat="43.8224739" lon="16.9082797"><ele>704.0</ele><time>2026-04-28T12:16:02.326Z</time></trkpt><trkpt lat="43.822562" lon="16.9083287"><ele>704.0</ele><time>2026-04-28T12:16:03.326Z</time></trkpt><trkpt lat="43.8226498" lon="16.9083751"><ele>704.0</ele><time>2026-04-28T12:16:04.326Z</time></trkpt><trkpt lat="43.8227394" lon="16.9084232"><ele>704.0</ele><time>2026-04-28T12:16:05.326Z</time></trkpt><trkpt lat="43.8228297" lon="16.9084717"><ele>704.2</ele><time>2026-04-28T12:16:06.326Z</time></trkpt><trkpt lat="43.8229225" lon="16.908515"><ele>704.4000000000001</ele><time>2026-04-28T12:16:07.326Z</time></trkpt><trkpt lat="43.8230114" lon="16.9085626"><ele>704.6</ele><time>2026-04-28T12:16:08.326Z</time></trkpt><trkpt lat="43.8230968" lon="16.9086098"><ele>704.8</ele><time>2026-04-28T12:16:09.327Z</time></trkpt><trkpt lat="43.8231759" lon="16.9086561"><ele>705.0</ele><time>2026-04-28T12:16:10.327Z</time></trkpt><trkpt lat="43.8232596" lon="16.9086998"><ele>705.0</ele><time>2026-04-28T12:16:11.327Z</time></trkpt><trkpt lat="43.8233442" lon="16.9087455"><ele>705.0</ele><time>2026-04-28T12:16:12.326Z</time></trkpt><trkpt lat="43.8234311" lon="16.9087941"><ele>705.0</ele><time>2026-04-28T12:16:13.326Z</time></trkpt><trkpt lat="43.8235154" lon="16.9088416"><ele>705.0</ele><time>2026-04-28T12:16:14.327Z</time></trkpt><trkpt lat="43.8235999" lon="16.9088892"><ele>705.0</ele><time>2026-04-28T12:16:15.327Z</time></trkpt><trkpt lat="43.8236838" lon="16.9089394"><ele>705.1666666666666</ele><time>2026-04-28T12:16:16.326Z</time></trkpt><trkpt lat="43.8237688" lon="16.9089884"><ele>705.3333333333334</ele><time>2026-04-28T12:16:17.326Z</time></trkpt><trkpt lat="43.8238501" lon="16.9090389"><ele>705.5</ele><time>2026-04-28T12:16:18.326Z</time></trkpt><trkpt lat="43.8239233" lon="16.9090826"><ele>705.6666666666667</ele><time>2026-04-28T12:16:19.326Z</time></trkpt><trkpt lat="43.8240062" lon="16.9091263"><ele>705.8333333333334</ele><time>2026-04-28T12:16:20.327Z</time></trkpt><trkpt lat="43.8240915" lon="16.9091667"><ele>706.0</ele><time>2026-04-28T12:16:21.326Z</time></trkpt><trkpt lat="43.8241767" lon="16.9092138"><ele>706.0</ele><time>2026-04-28T12:16:22.326Z</time></trkpt><trkpt lat="43.8242628" lon="16.9092595"><ele>706.0</ele><time>2026-04-28T12:16:23.326Z</time></trkpt><trkpt lat="43.824337" lon="16.9093022"><ele>706.0</ele><time>2026-04-28T12:16:24.326Z</time></trkpt><trkpt lat="43.8244032" lon="16.909335"><ele>706.0</ele><time>2026-04-28T12:16:25.327Z</time></trkpt><trkpt lat="43.8244785" lon="16.9094101"><ele>706.0</ele><time>2026-04-28T12:16:27.326Z</time></trkpt><trkpt lat="43.824516" lon="16.9095135"><ele>706.0</ele><time>2026-04-28T12:16:29.327Z</time></trkpt><trkpt lat="43.8244967" lon="16.9096557"><ele>705.8333333333334</ele><time>2026-04-28T12:16:31.326Z</time></trkpt><trkpt lat="43.8244769" lon="16.9097463"><ele>705.6666666666667</ele><time>2026-04-28T12:16:32.326Z</time></trkpt><trkpt lat="43.824453" lon="16.9098504"><ele>705.5</ele><time>2026-04-28T12:16:33.327Z</time></trkpt><trkpt lat="43.8244275" lon="16.909957"><ele>705.3333333333334</ele><time>2026-04-28T12:16:34.326Z</time></trkpt><trkpt lat="43.8244006" lon="16.9100571"><ele>705.1666666666666</ele><time>2026-04-28T12:16:35.327Z</time></trkpt><trkpt lat="43.8243668" lon="16.9101656"><ele>705.0</ele><time>2026-04-28T12:16:36.326Z</time></trkpt><trkpt lat="43.8243344" lon="16.9102767"><ele>705.1666666666666</ele><time>2026-04-28T12:16:37.326Z</time></trkpt><trkpt lat="43.8243013" lon="16.9103887"><ele>705.3333333333334</ele><time>2026-04-28T12:16:38.326Z</time></trkpt><trkpt lat="43.8242709" lon="16.9104991"><ele>705.5</ele><time>2026-04-28T12:16:39.326Z</time></trkpt><trkpt lat="43.8242382" lon="16.9106135"><ele>705.6666666666667</ele><time>2026-04-28T12:16:40.327Z</time></trkpt><trkpt lat="43.8242056" lon="16.9107279"><ele>705.8333333333334</ele><time>2026-04-28T12:16:41.326Z</time></trkpt><trkpt lat="43.8241687" lon="16.9108481"><ele>706.0</ele><time>2026-04-28T12:16:42.326Z</time></trkpt><trkpt lat="43.8241344" lon="16.9109571"><ele>705.5999999999999</ele><time>2026-04-28T12:16:43.326Z</time></trkpt><trkpt lat="43.8240996" lon="16.9110751"><ele>705.2</ele><time>2026-04-28T12:16:44.326Z</time></trkpt><trkpt lat="43.8240615" lon="16.9111897"><ele>704.8</ele><time>2026-04-28T12:16:45.326Z</time></trkpt><trkpt lat="43.8240258" lon="16.9113048"><ele>704.4000000000001</ele><time>2026-04-28T12:16:46.326Z</time></trkpt><trkpt lat="43.8239911" lon="16.9114324"><ele>704.0</ele><time>2026-04-28T12:16:47.326Z</time></trkpt><trkpt lat="43.8239604" lon="16.911562"><ele>704.0</ele><time>2026-04-28T12:16:48.326Z</time></trkpt><trkpt lat="43.8239259" lon="16.9116845"><ele>704.0</ele><time>2026-04-28T12:16:49.326Z</time></trkpt><trkpt lat="43.8238927" lon="16.9118107"><ele>704.0</ele><time>2026-04-28T12:16:50.326Z</time></trkpt><trkpt lat="43.8238549" lon="16.9119465"><ele>704.0</ele><time>2026-04-28T12:16:51.326Z</time></trkpt><trkpt lat="43.8238123" lon="16.9120811"><ele>704.0</ele><time>2026-04-28T12:16:52.327Z</time></trkpt><trkpt lat="43.8237762" lon="16.9122059"><ele>704.4000000000001</ele><time>2026-04-28T12:16:53.327Z</time></trkpt><trkpt lat="43.8237373" lon="16.9123378"><ele>704.8</ele><time>2026-04-28T12:16:54.326Z</time></trkpt><trkpt lat="43.8237007" lon="16.9124679"><ele>705.2</ele><time>2026-04-28T12:16:55.327Z</time></trkpt><trkpt lat="43.8236652" lon="16.9125949"><ele>705.5999999999999</ele><time>2026-04-28T12:16:56.326Z</time></trkpt><trkpt lat="43.8236303" lon="16.9127152"><ele>706.0</ele><time>2026-04-28T12:16:57.326Z</time></trkpt><trkpt lat="43.8235983" lon="16.9128335"><ele>706.0</ele><time>2026-04-28T12:16:58.326Z</time></trkpt><trkpt lat="43.8235736" lon="16.912938"><ele>706.0</ele><time>2026-04-28T12:16:59.326Z</time></trkpt><trkpt lat="43.8235531" lon="16.9130377"><ele>706.0</ele><time>2026-04-28T12:17:00.326Z</time></trkpt><trkpt lat="43.8235257" lon="16.9131232"><ele>706.0</ele><time>2026-04-28T12:17:01.327Z</time></trkpt><trkpt lat="43.8234933" lon="16.9132196"><ele>706.0</ele><time>2026-04-28T12:17:02.326Z</time></trkpt><trkpt lat="43.8234603" lon="16.9133288"><ele>706.0</ele><time>2026-04-28T12:17:03.327Z</time></trkpt><trkpt lat="43.8234283" lon="16.9134426"><ele>705.8</ele><time>2026-04-28T12:17:04.326Z</time></trkpt><trkpt lat="43.8233922" lon="16.9135621"><ele>705.5999999999999</ele><time>2026-04-28T12:17:05.327Z</time></trkpt><trkpt lat="43.8233564" lon="16.9136856"><ele>705.4</ele><time>2026-04-28T12:17:06.327Z</time></trkpt><trkpt lat="43.8233253" lon="16.9138018"><ele>705.2</ele><time>2026-04-28T12:17:07.326Z</time></trkpt><trkpt lat="43.8232924" lon="16.9139113"><ele>705.0</ele><time>2026-04-28T12:17:08.326Z</time></trkpt><trkpt lat="43.8232571" lon="16.9140239"><ele>704.9999999999999</ele><time>2026-04-28T12:17:09.327Z</time></trkpt><trkpt lat="43.823226" lon="16.914134"><ele>705.0</ele><time>2026-04-28T12:17:10.326Z</time></trkpt><trkpt lat="43.8232006" lon="16.9142293"><ele>705.0</ele><time>2026-04-28T12:17:11.326Z</time></trkpt><trkpt lat="43.8231832" lon="16.9143247"><ele>705.0</ele><time>2026-04-28T12:17:12.327Z</time></trkpt><trkpt lat="43.8231582" lon="16.9144114"><ele>705.0</ele><time>2026-04-28T12:17:13.327Z</time></trkpt><trkpt lat="43.8231401" lon="16.9145017"><ele>704.9999999999999</ele><time>2026-04-28T12:17:14.326Z</time></trkpt><trkpt lat="43.8231202" lon="16.9145975"><ele>705.0</ele><time>2026-04-28T12:17:15.326Z</time></trkpt><trkpt lat="43.8230892" lon="16.9146947"><ele>705.1428571428571</ele><time>2026-04-28T12:17:16.327Z</time></trkpt><trkpt lat="43.8230575" lon="16.9147801"><ele>705.2857142857142</ele><time>2026-04-28T12:17:17.326Z</time></trkpt><trkpt lat="43.8230298" lon="16.9148814"><ele>705.4285714285713</ele><time>2026-04-28T12:17:18.327Z</time></trkpt><trkpt lat="43.8230064" lon="16.9149758"><ele>705.5714285714286</ele><time>2026-04-28T12:17:19.327Z</time></trkpt><trkpt lat="43.8229745" lon="16.9150786"><ele>705.7142857142858</ele><time>2026-04-28T12:17:20.326Z</time></trkpt><trkpt lat="43.8229479" lon="16.9151757"><ele>705.8571428571428</ele><time>2026-04-28T12:17:21.326Z</time></trkpt><trkpt lat="43.8229159" lon="16.9152582"><ele>706.0</ele><time>2026-04-28T12:17:22.326Z</time></trkpt><trkpt lat="43.8228818" lon="16.9153437"><ele>706.0</ele><time>2026-04-28T12:17:23.326Z</time></trkpt><trkpt lat="43.8228495" lon="16.9154281"><ele>706.0</ele><time>2026-04-28T12:17:24.327Z</time></trkpt><trkpt lat="43.822823" lon="16.9155167"><ele>706.0</ele><time>2026-04-28T12:17:25.326Z</time></trkpt><trkpt lat="43.8227942" lon="16.9156028"><ele>706.0</ele><time>2026-04-28T12:17:26.326Z</time></trkpt><trkpt lat="43.8227684" lon="16.915689"><ele>706.0</ele><time>2026-04-28T12:17:27.326Z</time></trkpt><trkpt lat="43.8227446" lon="16.9157769"><ele>706.0</ele><time>2026-04-28T12:17:28.327Z</time></trkpt><trkpt lat="43.8227223" lon="16.9158701"><ele>706.0</ele><time>2026-04-28T12:17:29.326Z</time></trkpt><trkpt lat="43.8226854" lon="16.9159752"><ele>706.0</ele><time>2026-04-28T12:17:30.326Z</time></trkpt><trkpt lat="43.8226556" lon="16.9160756"><ele>706.0</ele><time>2026-04-28T12:17:31.326Z</time></trkpt><trkpt lat="43.8226256" lon="16.916174"><ele>706.0</ele><time>2026-04-28T12:17:32.326Z</time></trkpt><trkpt lat="43.8225971" lon="16.9162825"><ele>706.0</ele><time>2026-04-28T12:17:33.326Z</time></trkpt><trkpt lat="43.822573" lon="16.9163874"><ele>706.0</ele><time>2026-04-28T12:17:34.327Z</time></trkpt><trkpt lat="43.8225461" lon="16.9164914"><ele>706.0</ele><time>2026-04-28T12:17:35.326Z</time></trkpt><trkpt lat="43.8225148" lon="16.916605"><ele>705.5999999999999</ele><time>2026-04-28T12:17:36.326Z</time></trkpt><trkpt lat="43.8224851" lon="16.916717"><ele>705.2</ele><time>2026-04-28T12:17:37.327Z</time></trkpt><trkpt lat="43.8224506" lon="16.9168295"><ele>704.8</ele><time>2026-04-28T12:17:38.326Z</time></trkpt><trkpt lat="43.8224137" lon="16.9169568"><ele>704.4000000000001</ele><time>2026-04-28T12:17:39.326Z</time></trkpt><trkpt lat="43.8223799" lon="16.9170797"><ele>704.0</ele><time>2026-04-28T12:17:40.326Z</time></trkpt><trkpt lat="43.8223455" lon="16.9172019"><ele>703.8333333333333</ele><time>2026-04-28T12:17:41.326Z</time></trkpt><trkpt lat="43.8223125" lon="16.9173205"><ele>703.6666666666666</ele><time>2026-04-28T12:17:42.326Z</time></trkpt><trkpt lat="43.8222755" lon="16.9174312"><ele>703.5</ele><time>2026-04-28T12:17:43.325Z</time></trkpt><trkpt lat="43.8222408" lon="16.9175419"><ele>703.3333333333334</ele><time>2026-04-28T12:17:44.327Z</time></trkpt><trkpt lat="43.8222087" lon="16.9176543"><ele>703.1666666666667</ele><time>2026-04-28T12:17:45.326Z</time></trkpt><trkpt lat="43.8221776" lon="16.917759"><ele>703.0</ele><time>2026-04-28T12:17:46.326Z</time></trkpt><trkpt lat="43.8221433" lon="16.9178636"><ele>703.3333333333334</ele><time>2026-04-28T12:17:47.326Z</time></trkpt><trkpt lat="43.8221132" lon="16.9179704"><ele>703.6666666666667</ele><time>2026-04-28T12:17:48.326Z</time></trkpt><trkpt lat="43.8220892" lon="16.9180757"><ele>704.0</ele><time>2026-04-28T12:17:49.327Z</time></trkpt><trkpt lat="43.8220647" lon="16.9181777"><ele>704.3333333333334</ele><time>2026-04-28T12:17:50.327Z</time></trkpt><trkpt lat="43.8220289" lon="16.9182976"><ele>704.6666666666666</ele><time>2026-04-28T12:17:51.326Z</time></trkpt><trkpt lat="43.8219963" lon="16.9184169"><ele>705.0</ele><time>2026-04-28T12:17:52.326Z</time></trkpt><trkpt lat="43.8219679" lon="16.9185321"><ele>705.1666666666666</ele><time>2026-04-28T12:17:53.326Z</time></trkpt><trkpt lat="43.8219344" lon="16.9186516"><ele>705.3333333333334</ele><time>2026-04-28T12:17:54.327Z</time></trkpt><trkpt lat="43.8218994" lon="16.9187511"><ele>705.5</ele><time>2026-04-28T12:17:55.327Z</time></trkpt><trkpt lat="43.8218662" lon="16.9188636"><ele>705.6666666666667</ele><time>2026-04-28T12:17:56.326Z</time></trkpt><trkpt lat="43.821834" lon="16.9189741"><ele>705.8333333333334</ele><time>2026-04-28T12:17:57.326Z</time></trkpt><trkpt lat="43.821811" lon="16.9190776"><ele>706.0</ele><time>2026-04-28T12:17:58.326Z</time></trkpt><trkpt lat="43.8217839" lon="16.9191725"><ele>706.0</ele><time>2026-04-28T12:17:59.326Z</time></trkpt><trkpt lat="43.8217564" lon="16.9192646"><ele>706.0</ele><time>2026-04-28T12:18:00.326Z</time></trkpt><trkpt lat="43.8217292" lon="16.9193645"><ele>706.0</ele><time>2026-04-28T12:18:01.326Z</time></trkpt><trkpt lat="43.8216947" lon="16.9194781"><ele>706.0</ele><time>2026-04-28T12:18:02.327Z</time></trkpt><trkpt lat="43.8216605" lon="16.9195923"><ele>706.0</ele><time>2026-04-28T12:18:03.326Z</time></trkpt><trkpt lat="43.8216293" lon="16.9197049"><ele>706.0</ele><time>2026-04-28T12:18:04.326Z</time></trkpt><trkpt lat="43.8215953" lon="16.9198234"><ele>706.0</ele><time>2026-04-28T12:18:05.327Z</time></trkpt><trkpt lat="43.8215593" lon="16.9199465"><ele>706.0</ele><time>2026-04-28T12:18:06.326Z</time></trkpt><trkpt lat="43.8215258" lon="16.9200585"><ele>706.0</ele><time>2026-04-28T12:18:07.326Z</time></trkpt><trkpt lat="43.8214988" lon="16.9201654"><ele>706.0</ele><time>2026-04-28T12:18:08.327Z</time></trkpt><trkpt lat="43.8214702" lon="16.9202854"><ele>706.0</ele><time>2026-04-28T12:18:09.326Z</time></trkpt><trkpt lat="43.8214435" lon="16.9204083"><ele>706.0</ele><time>2026-04-28T12:18:10.326Z</time></trkpt><trkpt lat="43.8214221" lon="16.9205311"><ele>706.0</ele><time>2026-04-28T12:18:11.327Z</time></trkpt><trkpt lat="43.8213947" lon="16.9206572"><ele>706.0</ele><time>2026-04-28T12:18:12.327Z</time></trkpt><trkpt lat="43.8213773" lon="16.9207939"><ele>706.0</ele><time>2026-04-28T12:18:13.326Z</time></trkpt><trkpt lat="43.8213718" lon="16.9209246"><ele>706.0</ele><time>2026-04-28T12:18:14.326Z</time></trkpt><trkpt lat="43.8213671" lon="16.9210671"><ele>706.0</ele><time>2026-04-28T12:18:15.327Z</time></trkpt><trkpt lat="43.8213616" lon="16.921209"><ele>706.0</ele><time>2026-04-28T12:18:16.326Z</time></trkpt><trkpt lat="43.8213531" lon="16.9213505"><ele>706.0</ele><time>2026-04-28T12:18:17.326Z</time></trkpt><trkpt lat="43.8213421" lon="16.9214981"><ele>706.0</ele><time>2026-04-28T12:18:18.326Z</time></trkpt><trkpt lat="43.8213428" lon="16.9216411"><ele>706.0</ele><time>2026-04-28T12:18:19.327Z</time></trkpt><trkpt lat="43.8213448" lon="16.9217987"><ele>706.0</ele><time>2026-04-28T12:18:20.326Z</time></trkpt><trkpt lat="43.8213508" lon="16.9219511"><ele>706.0</ele><time>2026-04-28T12:18:21.326Z</time></trkpt><trkpt lat="43.8213613" lon="16.9220946"><ele>706.0</ele><time>2026-04-28T12:18:22.326Z</time></trkpt><trkpt lat="43.8213758" lon="16.9222327"><ele>706.0</ele><time>2026-04-28T12:18:23.326Z</time></trkpt><trkpt lat="43.8213902" lon="16.9223774"><ele>706.0</ele><time>2026-04-28T12:18:24.327Z</time></trkpt><trkpt lat="43.8214072" lon="16.9225261"><ele>706.0</ele><time>2026-04-28T12:18:25.326Z</time></trkpt><trkpt lat="43.8214299" lon="16.9226817"><ele>706.0</ele><time>2026-04-28T12:18:26.326Z</time></trkpt><trkpt lat="43.8214578" lon="16.9228372"><ele>706.0</ele><time>2026-04-28T12:18:27.326Z</time></trkpt><trkpt lat="43.8214765" lon="16.9229968"><ele>706.0</ele><time>2026-04-28T12:18:28.326Z</time></trkpt><trkpt lat="43.8215012" lon="16.9231676"><ele>706.0</ele><time>2026-04-28T12:18:29.326Z</time></trkpt><trkpt lat="43.8215194" lon="16.9233382"><ele>706.5</ele><time>2026-04-28T12:18:30.327Z</time></trkpt><trkpt lat="43.8215448" lon="16.923503"><ele>707.0</ele><time>2026-04-28T12:18:31.326Z</time></trkpt><trkpt lat="43.8215653" lon="16.9236705"><ele>707.5</ele><time>2026-04-28T12:18:32.326Z</time></trkpt><trkpt lat="43.8215906" lon="16.9238327"><ele>708.0</ele><time>2026-04-28T12:18:33.326Z</time></trkpt><trkpt lat="43.8216171" lon="16.9239961"><ele>708.0</ele><time>2026-04-28T12:18:34.327Z</time></trkpt><trkpt lat="43.8216398" lon="16.9241572"><ele>708.0</ele><time>2026-04-28T12:18:35.326Z</time></trkpt><trkpt lat="43.821663" lon="16.9243224"><ele>708.0</ele><time>2026-04-28T12:18:36.326Z</time></trkpt><trkpt lat="43.8216951" lon="16.9244821"><ele>708.0</ele><time>2026-04-28T12:18:37.326Z</time></trkpt><trkpt lat="43.8217193" lon="16.9246413"><ele>708.2</ele><time>2026-04-28T12:18:38.327Z</time></trkpt><trkpt lat="43.8217422" lon="16.9247845"><ele>708.4</ele><time>2026-04-28T12:18:39.327Z</time></trkpt><trkpt lat="43.8217561" lon="16.9249287"><ele>708.6</ele><time>2026-04-28T12:18:40.327Z</time></trkpt><trkpt lat="43.8217687" lon="16.9250606"><ele>708.8000000000001</ele><time>2026-04-28T12:18:41.326Z</time></trkpt><trkpt lat="43.8217827" lon="16.9251894"><ele>709.0</ele><time>2026-04-28T12:18:42.326Z</time></trkpt><trkpt lat="43.8217986" lon="16.9253316"><ele>709.0</ele><time>2026-04-28T12:18:43.326Z</time></trkpt><trkpt lat="43.82182" lon="16.9254661"><ele>709.0</ele><time>2026-04-28T12:18:44.327Z</time></trkpt><trkpt lat="43.8218437" lon="16.9256054"><ele>709.0</ele><time>2026-04-28T12:18:45.327Z</time></trkpt><trkpt lat="43.8218622" lon="16.9257426"><ele>709.0</ele><time>2026-04-28T12:18:46.326Z</time></trkpt><trkpt lat="43.8218847" lon="16.9258792"><ele>709.0</ele><time>2026-04-28T12:18:47.327Z</time></trkpt><trkpt lat="43.8219076" lon="16.9260181"><ele>709.0</ele><time>2026-04-28T12:18:48.327Z</time></trkpt><trkpt lat="43.8219176" lon="16.9261428"><ele>709.0</ele><time>2026-04-28T12:18:49.326Z</time></trkpt><trkpt lat="43.8219294" lon="16.9262634"><ele>709.0</ele><time>2026-04-28T12:18:50.326Z</time></trkpt><trkpt lat="43.8219468" lon="16.9263969"><ele>709.0</ele><time>2026-04-28T12:18:51.326Z</time></trkpt><trkpt lat="43.8219616" lon="16.926528"><ele>709.0</ele><time>2026-04-28T12:18:52.326Z</time></trkpt><trkpt lat="43.8219731" lon="16.9266314"><ele>709.0</ele><time>2026-04-28T12:18:53.326Z</time></trkpt><trkpt lat="43.821989" lon="16.9267493"><ele>708.6666666666667</ele><time>2026-04-28T12:18:54.326Z</time></trkpt><trkpt lat="43.8220428" lon="16.9268734"><ele>708.3333333333334</ele><time>2026-04-28T12:18:56.326Z</time></trkpt><trkpt lat="43.8221059" lon="16.9268906"><ele>708.0</ele><time>2026-04-28T12:18:58.326Z</time></trkpt><trkpt lat="43.8221858" lon="16.9269179"><ele>707.6666666666666</ele><time>2026-04-28T12:19:00.326Z</time></trkpt><trkpt lat="43.8222393" lon="16.9269984"><ele>707.3333333333333</ele><time>2026-04-28T12:19:02.326Z</time></trkpt><trkpt lat="43.8222617" lon="16.9271404"><ele>707.0</ele><time>2026-04-28T12:19:04.326Z</time></trkpt><trkpt lat="43.822272" lon="16.9272357"><ele>707.0</ele><time>2026-04-28T12:19:05.326Z</time></trkpt><trkpt lat="43.8222904" lon="16.9273466"><ele>707.0</ele><time>2026-04-28T12:19:06.327Z</time></trkpt><trkpt lat="43.8223022" lon="16.9274736"><ele>707.0</ele><time>2026-04-28T12:19:07.327Z</time></trkpt><trkpt lat="43.8223131" lon="16.9276048"><ele>707.0</ele><time>2026-04-28T12:19:08.326Z</time></trkpt><trkpt lat="43.8223327" lon="16.9277406"><ele>707.0</ele><time>2026-04-28T12:19:09.326Z</time></trkpt><trkpt lat="43.8223524" lon="16.9278781"><ele>707.4000000000001</ele><time>2026-04-28T12:19:10.326Z</time></trkpt><trkpt lat="43.8223693" lon="16.9280203"><ele>707.8000000000001</ele><time>2026-04-28T12:19:11.327Z</time></trkpt><trkpt lat="43.8223899" lon="16.9281563"><ele>708.2</ele><time>2026-04-28T12:19:12.327Z</time></trkpt><trkpt lat="43.8224076" lon="16.9283011"><ele>708.6</ele><time>2026-04-28T12:19:13.327Z</time></trkpt><trkpt lat="43.8224241" lon="16.9284502"><ele>709.0</ele><time>2026-04-28T12:19:14.326Z</time></trkpt><trkpt lat="43.8224362" lon="16.9286028"><ele>709.0</ele><time>2026-04-28T12:19:15.327Z</time></trkpt><trkpt lat="43.8224556" lon="16.9287489"><ele>709.0</ele><time>2026-04-28T12:19:16.326Z</time></trkpt><trkpt lat="43.8224789" lon="16.9289001"><ele>709.0</ele><time>2026-04-28T12:19:17.326Z</time></trkpt><trkpt lat="43.8225042" lon="16.929047"><ele>709.0</ele><time>2026-04-28T12:19:18.326Z</time></trkpt><trkpt lat="43.8225347" lon="16.9291973"><ele>709.0</ele><time>2026-04-28T12:19:19.326Z</time></trkpt><trkpt lat="43.822554" lon="16.9293491"><ele>708.75</ele><time>2026-04-28T12:19:20.327Z</time></trkpt><trkpt lat="43.8225749" lon="16.9295102"><ele>708.5</ele><time>2026-04-28T12:19:21.326Z</time></trkpt><trkpt lat="43.8225879" lon="16.9296732"><ele>708.25</ele><time>2026-04-28T12:19:22.326Z</time></trkpt><trkpt lat="43.8226136" lon="16.9298362"><ele>708.0</ele><time>2026-04-28T12:19:23.327Z</time></trkpt><trkpt lat="43.8226399" lon="16.9299923"><ele>708.25</ele><time>2026-04-28T12:19:24.326Z</time></trkpt><trkpt lat="43.8226802" lon="16.9301457"><ele>708.5</ele><time>2026-04-28T12:19:25.327Z</time></trkpt><trkpt lat="43.8227312" lon="16.9302923"><ele>708.75</ele><time>2026-04-28T12:19:26.326Z</time></trkpt><trkpt lat="43.8227819" lon="16.9304418"><ele>709.0</ele><time>2026-04-28T12:19:27.326Z</time></trkpt><trkpt lat="43.8228396" lon="16.9305928"><ele>709.0</ele><time>2026-04-28T12:19:28.326Z</time></trkpt><trkpt lat="43.8228965" lon="16.9307417"><ele>709.0</ele><time>2026-04-28T12:19:29.326Z</time></trkpt><trkpt lat="43.8229559" lon="16.9308866"><ele>709.0</ele><time>2026-04-28T12:19:30.327Z</time></trkpt><trkpt lat="43.8230093" lon="16.9310311"><ele>709.0</ele><time>2026-04-28T12:19:31.326Z</time></trkpt><trkpt lat="43.8230701" lon="16.931171"><ele>709.0</ele><time>2026-04-28T12:19:32.326Z</time></trkpt><trkpt lat="43.8231286" lon="16.9313178"><ele>709.0</ele><time>2026-04-28T12:19:33.326Z</time></trkpt><trkpt lat="43.8231825" lon="16.9314679"><ele>709.0</ele><time>2026-04-28T12:19:34.326Z</time></trkpt><trkpt lat="43.8232234" lon="16.9316203"><ele>709.0</ele><time>2026-04-28T12:19:35.326Z</time></trkpt><trkpt lat="43.8232438" lon="16.9317846"><ele>709.0</ele><time>2026-04-28T12:19:36.327Z</time></trkpt><trkpt lat="43.8232543" lon="16.9319488"><ele>709.0</ele><time>2026-04-28T12:19:37.326Z</time></trkpt><trkpt lat="43.8232583" lon="16.9321223"><ele>709.0</ele><time>2026-04-28T12:19:38.326Z</time></trkpt><trkpt lat="43.8232629" lon="16.932284"><ele>709.0</ele><time>2026-04-28T12:19:39.326Z</time></trkpt><trkpt lat="43.8232694" lon="16.9324386"><ele>709.0</ele><time>2026-04-28T12:19:40.326Z</time></trkpt><trkpt lat="43.8232815" lon="16.9325866"><ele>709.0</ele><time>2026-04-28T12:19:41.326Z</time></trkpt><trkpt lat="43.8233059" lon="16.9327208"><ele>709.0</ele><time>2026-04-28T12:19:42.326Z</time></trkpt><trkpt lat="43.8233466" lon="16.9328476"><ele>709.0</ele><time>2026-04-28T12:19:43.327Z</time></trkpt><trkpt lat="43.8234013" lon="16.9329728"><ele>709.0</ele><time>2026-04-28T12:19:44.326Z</time></trkpt><trkpt lat="43.8234641" lon="16.9331025"><ele>709.0</ele><time>2026-04-28T12:19:45.327Z</time></trkpt><trkpt lat="43.823528" lon="16.9332389"><ele>709.0</ele><time>2026-04-28T12:19:46.327Z</time></trkpt><trkpt lat="43.8235914" lon="16.9333847"><ele>709.0</ele><time>2026-04-28T12:19:47.326Z</time></trkpt><trkpt lat="43.8236523" lon="16.9335387"><ele>709.0</ele><time>2026-04-28T12:19:48.326Z</time></trkpt><trkpt lat="43.8237038" lon="16.9337048"><ele>709.0</ele><time>2026-04-28T12:19:49.327Z</time></trkpt><trkpt lat="43.8237398" lon="16.9338784"><ele>709.0</ele><time>2026-04-28T12:19:50.326Z</time></trkpt><trkpt lat="43.8237585" lon="16.9340603"><ele>709.0</ele><time>2026-04-28T12:19:51.326Z</time></trkpt><trkpt lat="43.823763" lon="16.9342528"><ele>709.0</ele><time>2026-04-28T12:19:52.325Z</time></trkpt><trkpt lat="43.8237777" lon="16.9344392"><ele>708.8000000000001</ele><time>2026-04-28T12:19:53.327Z</time></trkpt><trkpt lat="43.8237855" lon="16.9346156"><ele>708.6</ele><time>2026-04-28T12:19:54.326Z</time></trkpt><trkpt lat="43.8238075" lon="16.9347819"><ele>708.4</ele><time>2026-04-28T12:19:55.327Z</time></trkpt><trkpt lat="43.8238226" lon="16.9349165"><ele>708.2</ele><time>2026-04-28T12:19:56.327Z</time></trkpt><trkpt lat="43.8238337" lon="16.935026"><ele>708.0</ele><time>2026-04-28T12:19:57.326Z</time></trkpt><trkpt lat="43.8238407" lon="16.9351282"><ele>708.0</ele><time>2026-04-28T12:19:58.327Z</time></trkpt><trkpt lat="43.8239082" lon="16.9351315"><ele>708.0</ele><time>2026-04-28T12:20:03.326Z</time></trkpt><trkpt lat="43.8239832" lon="16.9350681"><ele>708.0</ele><time>2026-04-28T12:20:07.327Z</time></trkpt><trkpt lat="43.8240525" lon="16.9350305"><ele>708.0</ele><time>2026-04-28T12:20:10.326Z</time></trkpt><trkpt lat="43.8241117" lon="16.9349989"><ele>708.0</ele><time>2026-04-28T12:20:13.327Z</time></trkpt><trkpt lat="43.824179" lon="16.9349761"><ele>708.0</ele><time>2026-04-28T12:20:17.327Z</time></trkpt><trkpt lat="43.8242684" lon="16.9349298"><ele>707.8</ele><time>2026-04-28T12:21:09.326Z</time></trkpt><trkpt lat="43.8243884" lon="16.9348811"><ele>707.5999999999999</ele><time>2026-04-28T12:21:11.327Z</time></trkpt><trkpt lat="43.8244601" lon="16.934842"><ele>707.4000000000001</ele><time>2026-04-28T12:21:12.326Z</time></trkpt><trkpt lat="43.8245396" lon="16.9347972"><ele>707.2</ele><time>2026-04-28T12:21:13.327Z</time></trkpt><trkpt lat="43.8246208" lon="16.9347404"><ele>707.0</ele><time>2026-04-28T12:21:14.327Z</time></trkpt><trkpt lat="43.8247051" lon="16.9346694"><ele>707.0</ele><time>2026-04-28T12:21:15.326Z</time></trkpt><trkpt lat="43.8247851" lon="16.9345875"><ele>707.0</ele><time>2026-04-28T12:21:16.326Z</time></trkpt><trkpt lat="43.8248651" lon="16.9344967"><ele>707.0</ele><time>2026-04-28T12:21:17.326Z</time></trkpt><trkpt lat="43.8249438" lon="16.9344011"><ele>707.0</ele><time>2026-04-28T12:21:18.326Z</time></trkpt><trkpt lat="43.8250245" lon="16.9343149"><ele>707.0</ele><time>2026-04-28T12:21:19.326Z</time></trkpt><trkpt lat="43.8251152" lon="16.9342525"><ele>707.0</ele><time>2026-04-28T12:21:20.326Z</time></trkpt><trkpt lat="43.8252106" lon="16.9342267"><ele>707.0</ele><time>2026-04-28T12:21:21.327Z</time></trkpt><trkpt lat="43.825312" lon="16.9342294"><ele>707.0</ele><time>2026-04-28T12:21:22.327Z</time></trkpt><trkpt lat="43.8254243" lon="16.9342321"><ele>707.0</ele><time>2026-04-28T12:21:23.327Z</time></trkpt><trkpt lat="43.82553" lon="16.9342279"><ele>707.0</ele><time>2026-04-28T12:21:24.326Z</time></trkpt><trkpt lat="43.8256393" lon="16.9342396"><ele>707.0</ele><time>2026-04-28T12:21:25.326Z</time></trkpt><trkpt lat="43.8257558" lon="16.9342567"><ele>707.0</ele><time>2026-04-28T12:21:26.326Z</time></trkpt><trkpt lat="43.8258708" lon="16.9342777"><ele>707.0</ele><time>2026-04-28T12:21:27.326Z</time></trkpt><trkpt lat="43.8259871" lon="16.9343183"><ele>707.0</ele><time>2026-04-28T12:21:28.327Z</time></trkpt><trkpt lat="43.8261035" lon="16.9343611"><ele>707.4000000000001</ele><time>2026-04-28T12:21:29.326Z</time></trkpt><trkpt lat="43.8262225" lon="16.9343951"><ele>707.8000000000001</ele><time>2026-04-28T12:21:30.327Z</time></trkpt><trkpt lat="43.8263399" lon="16.9344243"><ele>708.2</ele><time>2026-04-28T12:21:31.326Z</time></trkpt><trkpt lat="43.8264462" lon="16.9344555"><ele>708.6</ele><time>2026-04-28T12:21:32.326Z</time></trkpt><trkpt lat="43.8265412" lon="16.9344713"><ele>709.0</ele><time>2026-04-28T12:21:33.327Z</time></trkpt><trkpt lat="43.8266309" lon="16.9344709"><ele>709.0</ele><time>2026-04-28T12:21:34.326Z</time></trkpt><trkpt lat="43.82671" lon="16.9344559"><ele>709.0</ele><time>2026-04-28T12:21:35.326Z</time></trkpt><trkpt lat="43.8268298" lon="16.9344026"><ele>709.0</ele><time>2026-04-28T12:21:37.326Z</time></trkpt><trkpt lat="43.8269044" lon="16.9343476"><ele>709.0</ele><time>2026-04-28T12:21:38.326Z</time></trkpt><trkpt lat="43.826979" lon="16.9342773"><ele>709.0</ele><time>2026-04-28T12:21:39.326Z</time></trkpt><trkpt lat="43.8270359" lon="16.9341867"><ele>708.8000000000001</ele><time>2026-04-28T12:21:40.327Z</time></trkpt><trkpt lat="43.8270824" lon="16.9340766"><ele>708.6</ele><time>2026-04-28T12:21:41.327Z</time></trkpt><trkpt lat="43.8271385" lon="16.9339417"><ele>708.4</ele><time>2026-04-28T12:21:42.326Z</time></trkpt><trkpt lat="43.8272106" lon="16.9338051"><ele>708.2</ele><time>2026-04-28T12:21:43.326Z</time></trkpt><trkpt lat="43.8272932" lon="16.9336791"><ele>708.0</ele><time>2026-04-28T12:21:44.327Z</time></trkpt><trkpt lat="43.827376" lon="16.9335565"><ele>708.0</ele><time>2026-04-28T12:21:45.326Z</time></trkpt><trkpt lat="43.8274622" lon="16.9334478"><ele>708.0</ele><time>2026-04-28T12:21:46.326Z</time></trkpt><trkpt lat="43.8275574" lon="16.9333482"><ele>708.0</ele><time>2026-04-28T12:21:47.326Z</time></trkpt><trkpt lat="43.8276594" lon="16.9332583"><ele>708.0</ele><time>2026-04-28T12:21:48.326Z</time></trkpt><trkpt lat="43.8277495" lon="16.9331756"><ele>707.8</ele><time>2026-04-28T12:21:49.327Z</time></trkpt><trkpt lat="43.8278328" lon="16.9330919"><ele>707.5999999999999</ele><time>2026-04-28T12:21:50.326Z</time></trkpt><trkpt lat="43.8279224" lon="16.9330164"><ele>707.4000000000001</ele><time>2026-04-28T12:21:51.326Z</time></trkpt><trkpt lat="43.828013" lon="16.9329396"><ele>707.2</ele><time>2026-04-28T12:21:52.327Z</time></trkpt><trkpt lat="43.8281097" lon="16.9328556"><ele>707.0</ele><time>2026-04-28T12:21:53.327Z</time></trkpt><trkpt lat="43.828204" lon="16.9327843"><ele>707.0</ele><time>2026-04-28T12:21:54.326Z</time></trkpt><trkpt lat="43.8282974" lon="16.9327104"><ele>707.0</ele><time>2026-04-28T12:21:55.327Z</time></trkpt><trkpt lat="43.828389" lon="16.9326355"><ele>707.0</ele><time>2026-04-28T12:21:56.326Z</time></trkpt><trkpt lat="43.8284792" lon="16.9325517"><ele>707.0</ele><time>2026-04-28T12:21:57.327Z</time></trkpt><trkpt lat="43.8285725" lon="16.9324569"><ele>707.0</ele><time>2026-04-28T12:21:58.326Z</time></trkpt><trkpt lat="43.8286627" lon="16.9323633"><ele>707.0</ele><time>2026-04-28T12:21:59.326Z</time></trkpt><trkpt lat="43.8287405" lon="16.932278"><ele>707.0</ele><time>2026-04-28T12:22:00.326Z</time></trkpt><trkpt lat="43.8288258" lon="16.932197"><ele>707.0</ele><time>2026-04-28T12:22:01.326Z</time></trkpt><trkpt lat="43.8289116" lon="16.9321176"><ele>707.0</ele><time>2026-04-28T12:22:02.326Z</time></trkpt><trkpt lat="43.829004" lon="16.9320141"><ele>707.0</ele><time>2026-04-28T12:22:03.327Z</time></trkpt><trkpt lat="43.8290871" lon="16.9319033"><ele>707.0</ele><time>2026-04-28T12:22:04.326Z</time></trkpt><trkpt lat="43.8291859" lon="16.9317791"><ele>707.0</ele><time>2026-04-28T12:22:05.327Z</time></trkpt><trkpt lat="43.8292699" lon="16.9316739"><ele>707.0</ele><time>2026-04-28T12:22:06.326Z</time></trkpt><trkpt lat="43.8293651" lon="16.9315801"><ele>707.0</ele><time>2026-04-28T12:22:07.327Z</time></trkpt><trkpt lat="43.8294706" lon="16.9315019"><ele>707.0</ele><time>2026-04-28T12:22:08.327Z</time></trkpt><trkpt lat="43.8295729" lon="16.9314145"><ele>707.0</ele><time>2026-04-28T12:22:09.326Z</time></trkpt><trkpt lat="43.8296636" lon="16.9313582"><ele>707.0</ele><time>2026-04-28T12:22:10.326Z</time></trkpt><trkpt lat="43.8297545" lon="16.9313291"><ele>707.0</ele><time>2026-04-28T12:22:11.326Z</time></trkpt><trkpt lat="43.8298506" lon="16.9313088"><ele>707.0</ele><time>2026-04-28T12:22:12.326Z</time></trkpt><trkpt lat="43.8299619" lon="16.9313139"><ele>707.0</ele><time>2026-04-28T12:22:13.327Z</time></trkpt><trkpt lat="43.8300619" lon="16.9313361"><ele>707.0</ele><time>2026-04-28T12:22:14.326Z</time></trkpt><trkpt lat="43.8301616" lon="16.9313637"><ele>707.0</ele><time>2026-04-28T12:22:15.326Z</time></trkpt><trkpt lat="43.8302579" lon="16.9314024"><ele>707.0</ele><time>2026-04-28T12:22:16.327Z</time></trkpt><trkpt lat="43.8303574" lon="16.9314541"><ele>707.0</ele><time>2026-04-28T12:22:17.326Z</time></trkpt><trkpt lat="43.8304535" lon="16.9315214"><ele>707.0</ele><time>2026-04-28T12:22:18.326Z</time></trkpt><trkpt lat="43.8305418" lon="16.9315949"><ele>707.0</ele><time>2026-04-28T12:22:19.326Z</time></trkpt><trkpt lat="43.8306395" lon="16.9316725"><ele>707.0</ele><time>2026-04-28T12:22:20.326Z</time></trkpt><trkpt lat="43.8307377" lon="16.9317403"><ele>707.0</ele><time>2026-04-28T12:22:21.326Z</time></trkpt><trkpt lat="43.8308324" lon="16.9317898"><ele>707.0</ele><time>2026-04-28T12:22:22.326Z</time></trkpt><trkpt lat="43.8309385" lon="16.9318186"><ele>707.0</ele><time>2026-04-28T12:22:23.326Z</time></trkpt><trkpt lat="43.8310467" lon="16.9318364"><ele>707.0</ele><time>2026-04-28T12:22:24.327Z</time></trkpt><trkpt lat="43.8311584" lon="16.9318613"><ele>707.0</ele><time>2026-04-28T12:22:25.326Z</time></trkpt><trkpt lat="43.8312727" lon="16.9318851"><ele>707.0</ele><time>2026-04-28T12:22:26.326Z</time></trkpt><trkpt lat="43.8313772" lon="16.9319133"><ele>707.0</ele><time>2026-04-28T12:22:27.327Z</time></trkpt><trkpt lat="43.8314884" lon="16.9319373"><ele>707.0</ele><time>2026-04-28T12:22:28.327Z</time></trkpt><trkpt lat="43.8315969" lon="16.9319566"><ele>707.0</ele><time>2026-04-28T12:22:29.326Z</time></trkpt><trkpt lat="43.831691" lon="16.9319666"><ele>707.0</ele><time>2026-04-28T12:22:30.326Z</time></trkpt><trkpt lat="43.8317816" lon="16.9319691"><ele>707.0</ele><time>2026-04-28T12:22:31.327Z</time></trkpt><trkpt lat="43.831879" lon="16.931963"><ele>707.0</ele><time>2026-04-28T12:22:32.327Z</time></trkpt><trkpt lat="43.8319744" lon="16.9319454"><ele>706.8</ele><time>2026-04-28T12:22:33.326Z</time></trkpt><trkpt lat="43.8320806" lon="16.9319252"><ele>706.6</ele><time>2026-04-28T12:22:34.326Z</time></trkpt><trkpt lat="43.8321865" lon="16.9319066"><ele>706.4</ele><time>2026-04-28T12:22:35.327Z</time></trkpt><trkpt lat="43.8322974" lon="16.9318926"><ele>706.1999999999999</ele><time>2026-04-28T12:22:36.326Z</time></trkpt><trkpt lat="43.8324081" lon="16.9318752"><ele>706.0</ele><time>2026-04-28T12:22:37.326Z</time></trkpt><trkpt lat="43.832519" lon="16.9318728"><ele>706.0</ele><time>2026-04-28T12:22:38.326Z</time></trkpt><trkpt lat="43.8326348" lon="16.9318792"><ele>706.0</ele><time>2026-04-28T12:22:39.327Z</time></trkpt><trkpt lat="43.8327448" lon="16.9318938"><ele>706.0</ele><time>2026-04-28T12:22:40.326Z</time></trkpt><trkpt lat="43.8328456" lon="16.9319215"><ele>706.0</ele><time>2026-04-28T12:22:41.326Z</time></trkpt><trkpt lat="43.832932" lon="16.9319612"><ele>706.0</ele><time>2026-04-28T12:22:42.327Z</time></trkpt><trkpt lat="43.8330087" lon="16.9320065"><ele>706.0</ele><time>2026-04-28T12:22:43.326Z</time></trkpt><trkpt lat="43.8330728" lon="16.9320581"><ele>706.0</ele><time>2026-04-28T12:22:44.326Z</time></trkpt><trkpt lat="43.8331234" lon="16.9321813"><ele>706.0</ele><time>2026-04-28T12:22:46.326Z</time></trkpt><trkpt lat="43.8331145" lon="16.9323144"><ele>706.0</ele><time>2026-04-28T12:22:48.326Z</time></trkpt><trkpt lat="43.8330873" lon="16.9324409"><ele>706.0</ele><time>2026-04-28T12:22:50.327Z</time></trkpt><trkpt lat="43.833059" lon="16.9325863"><ele>706.1999999999999</ele><time>2026-04-28T12:22:52.326Z</time></trkpt><trkpt lat="43.8330396" lon="16.9327259"><ele>706.4</ele><time>2026-04-28T12:22:54.326Z</time></trkpt><trkpt lat="43.8330017" lon="16.9329227"><ele>706.6</ele><time>2026-04-28T12:22:56.326Z</time></trkpt><trkpt lat="43.8329942" lon="16.9330448"><ele>706.8</ele><time>2026-04-28T12:22:57.327Z</time></trkpt><trkpt lat="43.8329944" lon="16.933178"><ele>707.0</ele><time>2026-04-28T12:22:58.326Z</time></trkpt><trkpt lat="43.8329955" lon="16.9333169"><ele>706.5</ele><time>2026-04-28T12:22:59.326Z</time></trkpt><trkpt lat="43.8329866" lon="16.9334503"><ele>706.0</ele><time>2026-04-28T12:23:00.326Z</time></trkpt><trkpt lat="43.8329747" lon="16.9336082"><ele>705.5</ele><time>2026-04-28T12:23:01.326Z</time></trkpt><trkpt lat="43.8329685" lon="16.9337682"><ele>705.0</ele><time>2026-04-28T12:23:02.326Z</time></trkpt><trkpt lat="43.8329645" lon="16.9339399"><ele>705.0</ele><time>2026-04-28T12:23:03.327Z</time></trkpt><trkpt lat="43.8329582" lon="16.9341084"><ele>705.0</ele><time>2026-04-28T12:23:04.326Z</time></trkpt><trkpt lat="43.8329552" lon="16.9342738"><ele>705.0</ele><time>2026-04-28T12:23:05.326Z</time></trkpt><trkpt lat="43.8329439" lon="16.9344584"><ele>705.0</ele><time>2026-04-28T12:23:06.327Z</time></trkpt><trkpt lat="43.832929" lon="16.9346304"><ele>705.0</ele><time>2026-04-28T12:23:07.326Z</time></trkpt><trkpt lat="43.8329305" lon="16.9347874"><ele>705.0</ele><time>2026-04-28T12:23:08.326Z</time></trkpt><trkpt lat="43.8329256" lon="16.9349543"><ele>705.0</ele><time>2026-04-28T12:23:09.327Z</time></trkpt><trkpt lat="43.8329194" lon="16.9351202"><ele>705.0</ele><time>2026-04-28T12:23:10.326Z</time></trkpt><trkpt lat="43.8329156" lon="16.9352915"><ele>705.0</ele><time>2026-04-28T12:23:11.327Z</time></trkpt><trkpt lat="43.8329081" lon="16.9354673"><ele>705.0</ele><time>2026-04-28T12:23:12.326Z</time></trkpt><trkpt lat="43.8329033" lon="16.9356419"><ele>705.0</ele><time>2026-04-28T12:23:13.326Z</time></trkpt><trkpt lat="43.8329017" lon="16.9358048"><ele>705.0</ele><time>2026-04-28T12:23:14.326Z</time></trkpt><trkpt lat="43.8329021" lon="16.9359675"><ele>705.0</ele><time>2026-04-28T12:23:15.327Z</time></trkpt><trkpt lat="43.8329006" lon="16.9361077"><ele>705.0</ele><time>2026-04-28T12:23:16.326Z</time></trkpt><trkpt lat="43.8328986" lon="16.9362461"><ele>705.0</ele><time>2026-04-28T12:23:17.327Z</time></trkpt><trkpt lat="43.8329014" lon="16.936384"><ele>705.0</ele><time>2026-04-28T12:23:18.326Z</time></trkpt><trkpt lat="43.8328999" lon="16.9365232"><ele>705.0</ele><time>2026-04-28T12:23:19.326Z</time></trkpt><trkpt lat="43.8328954" lon="16.9366599"><ele>705.25</ele><time>2026-04-28T12:23:20.327Z</time></trkpt><trkpt lat="43.8328743" lon="16.9368"><ele>705.5</ele><time>2026-04-28T12:23:21.326Z</time></trkpt><trkpt lat="43.8328603" lon="16.9369528"><ele>705.75</ele><time>2026-04-28T12:23:22.326Z</time></trkpt><trkpt lat="43.8328574" lon="16.9371166"><ele>706.0</ele><time>2026-04-28T12:23:23.326Z</time></trkpt><trkpt lat="43.8328607" lon="16.9372877"><ele>706.0</ele><time>2026-04-28T12:23:24.327Z</time></trkpt><trkpt lat="43.8328563" lon="16.9374511"><ele>706.0</ele><time>2026-04-28T12:23:25.326Z</time></trkpt><trkpt lat="43.8328572" lon="16.9376139"><ele>706.0</ele><time>2026-04-28T12:23:26.326Z</time></trkpt><trkpt lat="43.832848" lon="16.9377739"><ele>706.0</ele><time>2026-04-28T12:23:27.326Z</time></trkpt><trkpt lat="43.8328337" lon="16.9379335"><ele>706.0</ele><time>2026-04-28T12:23:28.326Z</time></trkpt><trkpt lat="43.8328242" lon="16.9380961"><ele>706.0</ele><time>2026-04-28T12:23:29.326Z</time></trkpt><trkpt lat="43.8328122" lon="16.9382602"><ele>706.0</ele><time>2026-04-28T12:23:30.327Z</time></trkpt><trkpt lat="43.8328055" lon="16.9384209"><ele>706.0</ele><time>2026-04-28T12:23:31.326Z</time></trkpt><trkpt lat="43.8328055" lon="16.938589"><ele>706.0</ele><time>2026-04-28T12:23:32.326Z</time></trkpt><trkpt lat="43.8328015" lon="16.9387605"><ele>706.0</ele><time>2026-04-28T12:23:33.326Z</time></trkpt><trkpt lat="43.8327967" lon="16.9389387"><ele>706.0</ele><time>2026-04-28T12:23:34.326Z</time></trkpt><trkpt lat="43.8327921" lon="16.939126"><ele>706.0</ele><time>2026-04-28T12:23:35.326Z</time></trkpt><trkpt lat="43.8327896" lon="16.9393092"><ele>706.0</ele><time>2026-04-28T12:23:36.326Z</time></trkpt><trkpt lat="43.8327846" lon="16.9395061"><ele>706.0</ele><time>2026-04-28T12:23:37.327Z</time></trkpt><trkpt lat="43.832773" lon="16.939703"><ele>706.0</ele><time>2026-04-28T12:23:38.326Z</time></trkpt><trkpt lat="43.8327699" lon="16.9398899"><ele>706.0</ele><time>2026-04-28T12:23:39.326Z</time></trkpt><trkpt lat="43.8327707" lon="16.9400712"><ele>705.75</ele><time>2026-04-28T12:23:40.326Z</time></trkpt><trkpt lat="43.832769" lon="16.9402582"><ele>705.5</ele><time>2026-04-28T12:23:41.326Z</time></trkpt><trkpt lat="43.8327604" lon="16.9404504"><ele>705.25</ele><time>2026-04-28T12:23:42.326Z</time></trkpt><trkpt lat="43.8327541" lon="16.9406293"><ele>705.0</ele><time>2026-04-28T12:23:43.326Z</time></trkpt><trkpt lat="43.8327461" lon="16.9407906"><ele>705.5</ele><time>2026-04-28T12:23:44.326Z</time></trkpt><trkpt lat="43.8327374" lon="16.9409482"><ele>706.0</ele><time>2026-04-28T12:23:45.326Z</time></trkpt><trkpt lat="43.8327277" lon="16.9411103"><ele>706.5</ele><time>2026-04-28T12:23:46.326Z</time></trkpt><trkpt lat="43.8327158" lon="16.9412681"><ele>707.0</ele><time>2026-04-28T12:23:47.327Z</time></trkpt><trkpt lat="43.832705" lon="16.9414341"><ele>707.0</ele><time>2026-04-28T12:23:48.326Z</time></trkpt><trkpt lat="43.8326962" lon="16.9416149"><ele>707.0</ele><time>2026-04-28T12:23:49.326Z</time></trkpt><trkpt lat="43.832694" lon="16.9417984"><ele>707.0</ele><time>2026-04-28T12:23:50.327Z</time></trkpt><trkpt lat="43.8326944" lon="16.9419857"><ele>707.0</ele><time>2026-04-28T12:23:51.326Z</time></trkpt><trkpt lat="43.8326941" lon="16.9421813"><ele>707.25</ele><time>2026-04-28T12:23:52.327Z</time></trkpt><trkpt lat="43.8326904" lon="16.9423643"><ele>707.5</ele><time>2026-04-28T12:23:53.326Z</time></trkpt><trkpt lat="43.832679" lon="16.9425361"><ele>707.75</ele><time>2026-04-28T12:23:54.326Z</time></trkpt><trkpt lat="43.8326769" lon="16.9427105"><ele>708.0</ele><time>2026-04-28T12:23:55.327Z</time></trkpt><trkpt lat="43.8326671" lon="16.9428916"><ele>708.0</ele><time>2026-04-28T12:23:56.327Z</time></trkpt><trkpt lat="43.832657" lon="16.9430712"><ele>708.0</ele><time>2026-04-28T12:23:57.326Z</time></trkpt><trkpt lat="43.8326573" lon="16.9432576"><ele>708.0</ele><time>2026-04-28T12:23:58.326Z</time></trkpt><trkpt lat="43.8326533" lon="16.9434393"><ele>708.0</ele><time>2026-04-28T12:23:59.327Z</time></trkpt><trkpt lat="43.8326544" lon="16.9436215"><ele>708.0</ele><time>2026-04-28T12:24:00.326Z</time></trkpt><trkpt lat="43.8326501" lon="16.9437862"><ele>708.0</ele><time>2026-04-28T12:24:01.326Z</time></trkpt><trkpt lat="43.8326327" lon="16.9439439"><ele>708.0</ele><time>2026-04-28T12:24:02.327Z</time></trkpt><trkpt lat="43.8326173" lon="16.9441141"><ele>708.0</ele><time>2026-04-28T12:24:03.327Z</time></trkpt><trkpt lat="43.8326112" lon="16.9442862"><ele>708.0</ele><time>2026-04-28T12:24:04.327Z</time></trkpt><trkpt lat="43.8326072" lon="16.9444513"><ele>708.0</ele><time>2026-04-28T12:24:05.327Z</time></trkpt><trkpt lat="43.8326069" lon="16.9446089"><ele>708.0</ele><time>2026-04-28T12:24:06.326Z</time></trkpt><trkpt lat="43.8326001" lon="16.9447531"><ele>708.0</ele><time>2026-04-28T12:24:07.326Z</time></trkpt><trkpt lat="43.8325935" lon="16.9448788"><ele>708.0</ele><time>2026-04-28T12:24:08.327Z</time></trkpt><trkpt lat="43.832578" lon="16.9450141"><ele>707.5</ele><time>2026-04-28T12:24:09.326Z</time></trkpt><trkpt lat="43.8325602" lon="16.9451475"><ele>707.0</ele><time>2026-04-28T12:24:10.326Z</time></trkpt><trkpt lat="43.8325585" lon="16.9453004"><ele>706.5</ele><time>2026-04-28T12:24:11.326Z</time></trkpt><trkpt lat="43.8325598" lon="16.9454682"><ele>706.0</ele><time>2026-04-28T12:24:12.327Z</time></trkpt><trkpt lat="43.8325555" lon="16.9456445"><ele>706.0</ele><time>2026-04-28T12:24:13.326Z</time></trkpt><trkpt lat="43.8325586" lon="16.9458217"><ele>706.0</ele><time>2026-04-28T12:24:14.326Z</time></trkpt><trkpt lat="43.8325709" lon="16.9460016"><ele>706.0</ele><time>2026-04-28T12:24:15.326Z</time></trkpt><trkpt lat="43.8325663" lon="16.9461955"><ele>706.0</ele><time>2026-04-28T12:24:16.326Z</time></trkpt><trkpt lat="43.8325581" lon="16.9463714"><ele>706.0</ele><time>2026-04-28T12:24:17.326Z</time></trkpt><trkpt lat="43.8325497" lon="16.9465581"><ele>706.0</ele><time>2026-04-28T12:24:18.326Z</time></trkpt><trkpt lat="43.8325424" lon="16.946743"><ele>706.0</ele><time>2026-04-28T12:24:19.326Z</time></trkpt><trkpt lat="43.8325322" lon="16.9469335"><ele>706.0</ele><time>2026-04-28T12:24:20.326Z</time></trkpt><trkpt lat="43.8325313" lon="16.9471308"><ele>706.5</ele><time>2026-04-28T12:24:21.326Z</time></trkpt><trkpt lat="43.8325255" lon="16.9473298"><ele>707.0</ele><time>2026-04-28T12:24:22.326Z</time></trkpt><trkpt lat="43.8325138" lon="16.9475313"><ele>707.5</ele><time>2026-04-28T12:24:23.326Z</time></trkpt><trkpt lat="43.8325006" lon="16.9477278"><ele>708.0</ele><time>2026-04-28T12:24:24.327Z</time></trkpt><trkpt lat="43.8324922" lon="16.9479338"><ele>708.0</ele><time>2026-04-28T12:24:25.326Z</time></trkpt><trkpt lat="43.8324875" lon="16.9481463"><ele>708.0</ele><time>2026-04-28T12:24:26.326Z</time></trkpt><trkpt lat="43.8324866" lon="16.9483411"><ele>708.0</ele><time>2026-04-28T12:24:27.327Z</time></trkpt><trkpt lat="43.8324819" lon="16.9485318"><ele>708.0</ele><time>2026-04-28T12:24:28.326Z</time></trkpt><trkpt lat="43.8324776" lon="16.9487132"><ele>708.0</ele><time>2026-04-28T12:24:29.326Z</time></trkpt><trkpt lat="43.8324713" lon="16.9488655"><ele>708.0</ele><time>2026-04-28T12:24:30.326Z</time></trkpt><trkpt lat="43.8324688" lon="16.9490139"><ele>708.0</ele><time>2026-04-28T12:24:31.326Z</time></trkpt><trkpt lat="43.8324801" lon="16.9491571"><ele>708.0</ele><time>2026-04-28T12:24:32.327Z</time></trkpt><trkpt lat="43.8325171" lon="16.9492791"><ele>708.0</ele><time>2026-04-28T12:24:33.327Z</time></trkpt><trkpt lat="43.8325642" lon="16.9494029"><ele>707.8</ele><time>2026-04-28T12:24:34.326Z</time></trkpt><trkpt lat="43.8326016" lon="16.9495345"><ele>707.5999999999999</ele><time>2026-04-28T12:24:35.326Z</time></trkpt><trkpt lat="43.8326282" lon="16.9496636"><ele>707.4000000000001</ele><time>2026-04-28T12:24:36.327Z</time></trkpt><trkpt lat="43.8326331" lon="16.9497862"><ele>707.2</ele><time>2026-04-28T12:24:37.326Z</time></trkpt><trkpt lat="43.832618" lon="16.9499102"><ele>707.0</ele><time>2026-04-28T12:24:38.326Z</time></trkpt><trkpt lat="43.8325932" lon="16.9500111"><ele>707.0</ele><time>2026-04-28T12:24:39.326Z</time></trkpt><trkpt lat="43.8325558" lon="16.9500977"><ele>707.0</ele><time>2026-04-28T12:24:40.327Z</time></trkpt><trkpt lat="43.8324991" lon="16.9501733"><ele>707.0</ele><time>2026-04-28T12:24:41.326Z</time></trkpt><trkpt lat="43.8324458" lon="16.9502537"><ele>707.0</ele><time>2026-04-28T12:24:42.326Z</time></trkpt><trkpt lat="43.83241" lon="16.9503568"><ele>707.0</ele><time>2026-04-28T12:24:43.326Z</time></trkpt><trkpt lat="43.8323856" lon="16.9504905"><ele>707.0</ele><time>2026-04-28T12:24:44.327Z</time></trkpt><trkpt lat="43.832382" lon="16.9506412"><ele>707.0</ele><time>2026-04-28T12:24:45.326Z</time></trkpt><trkpt lat="43.8323806" lon="16.9508229"><ele>707.0</ele><time>2026-04-28T12:24:46.327Z</time></trkpt><trkpt lat="43.8323663" lon="16.9510123"><ele>707.0</ele><time>2026-04-28T12:24:47.327Z</time></trkpt><trkpt lat="43.8323547" lon="16.9512039"><ele>707.0</ele><time>2026-04-28T12:24:48.326Z</time></trkpt><trkpt lat="43.8323495" lon="16.9513776"><ele>707.0</ele><time>2026-04-28T12:24:49.326Z</time></trkpt><trkpt lat="43.8323497" lon="16.9515481"><ele>707.0</ele><time>2026-04-28T12:24:50.326Z</time></trkpt><trkpt lat="43.8323445" lon="16.9516946"><ele>707.0</ele><time>2026-04-28T12:24:51.327Z</time></trkpt><trkpt lat="43.8323458" lon="16.9518274"><ele>707.0</ele><time>2026-04-28T12:24:52.326Z</time></trkpt><trkpt lat="43.8323455" lon="16.9519512"><ele>707.0</ele><time>2026-04-28T12:24:53.327Z</time></trkpt><trkpt lat="43.8323468" lon="16.9520756"><ele>707.2</ele><time>2026-04-28T12:24:54.327Z</time></trkpt><trkpt lat="43.8323478" lon="16.9522148"><ele>707.4000000000001</ele><time>2026-04-28T12:24:55.326Z</time></trkpt><trkpt lat="43.832346" lon="16.9523555"><ele>707.5999999999999</ele><time>2026-04-28T12:24:56.326Z</time></trkpt><trkpt lat="43.8323423" lon="16.9524952"><ele>707.8</ele><time>2026-04-28T12:24:57.327Z</time></trkpt><trkpt lat="43.8323299" lon="16.9526322"><ele>708.0</ele><time>2026-04-28T12:24:58.326Z</time></trkpt><trkpt lat="43.8323244" lon="16.9527761"><ele>708.2</ele><time>2026-04-28T12:24:59.326Z</time></trkpt><trkpt lat="43.8323151" lon="16.9529144"><ele>708.4</ele><time>2026-04-28T12:25:00.326Z</time></trkpt><trkpt lat="43.8323086" lon="16.9530629"><ele>708.6</ele><time>2026-04-28T12:25:01.327Z</time></trkpt><trkpt lat="43.8323045" lon="16.9532073"><ele>708.8000000000001</ele><time>2026-04-28T12:25:02.326Z</time></trkpt><trkpt lat="43.8322976" lon="16.9533637"><ele>709.0</ele><time>2026-04-28T12:25:03.326Z</time></trkpt><trkpt lat="43.8322919" lon="16.9535264"><ele>708.8000000000001</ele><time>2026-04-28T12:25:04.326Z</time></trkpt><trkpt lat="43.8322854" lon="16.9536946"><ele>708.6</ele><time>2026-04-28T12:25:05.327Z</time></trkpt><trkpt lat="43.8322864" lon="16.9538598"><ele>708.4</ele><time>2026-04-28T12:25:06.326Z</time></trkpt><trkpt lat="43.8322844" lon="16.9540029"><ele>708.2</ele><time>2026-04-28T12:25:07.326Z</time></trkpt><trkpt lat="43.8322749" lon="16.9541312"><ele>708.0</ele><time>2026-04-28T12:25:08.327Z</time></trkpt><trkpt lat="43.8322771" lon="16.9542875"><ele>708.0</ele><time>2026-04-28T12:25:09.326Z</time></trkpt><trkpt lat="43.8322677" lon="16.9544208"><ele>708.0</ele><time>2026-04-28T12:25:10.326Z</time></trkpt><trkpt lat="43.8322632" lon="16.9545579"><ele>708.0</ele><time>2026-04-28T12:25:11.327Z</time></trkpt><trkpt lat="43.832262" lon="16.9546934"><ele>708.0</ele><time>2026-04-28T12:25:12.327Z</time></trkpt><trkpt lat="43.8322533" lon="16.9548145"><ele>708.0</ele><time>2026-04-28T12:25:13.326Z</time></trkpt><trkpt lat="43.8322412" lon="16.9549256"><ele>708.0</ele><time>2026-04-28T12:25:14.327Z</time></trkpt><trkpt lat="43.8322333" lon="16.955054"><ele>708.0</ele><time>2026-04-28T12:25:15.326Z</time></trkpt><trkpt lat="43.8322326" lon="16.9551819"><ele>708.0</ele><time>2026-04-28T12:25:16.326Z</time></trkpt><trkpt lat="43.832231" lon="16.9553477"><ele>708.0</ele><time>2026-04-28T12:25:17.326Z</time></trkpt><trkpt lat="43.8322237" lon="16.9555246"><ele>708.0</ele><time>2026-04-28T12:25:18.326Z</time></trkpt><trkpt lat="43.8322188" lon="16.9557074"><ele>707.5</ele><time>2026-04-28T12:25:19.327Z</time></trkpt><trkpt lat="43.8322096" lon="16.9558882"><ele>707.0</ele><time>2026-04-28T12:25:20.326Z</time></trkpt><trkpt lat="43.8322028" lon="16.9560488"><ele>706.5</ele><time>2026-04-28T12:25:21.326Z</time></trkpt><trkpt lat="43.8321983" lon="16.9562166"><ele>706.0</ele><time>2026-04-28T12:25:22.326Z</time></trkpt><trkpt lat="43.8321971" lon="16.9563922"><ele>706.0</ele><time>2026-04-28T12:25:23.326Z</time></trkpt><trkpt lat="43.8321944" lon="16.9565675"><ele>706.0</ele><time>2026-04-28T12:25:24.326Z</time></trkpt><trkpt lat="43.8321961" lon="16.9567424"><ele>706.0</ele><time>2026-04-28T12:25:25.326Z</time></trkpt><trkpt lat="43.8321912" lon="16.956928"><ele>706.0</ele><time>2026-04-28T12:25:26.327Z</time></trkpt><trkpt lat="43.8321835" lon="16.9571098"><ele>705.75</ele><time>2026-04-28T12:25:27.326Z</time></trkpt><trkpt lat="43.8321759" lon="16.9573075"><ele>705.5</ele><time>2026-04-28T12:25:28.327Z</time></trkpt><trkpt lat="43.8321708" lon="16.9575071"><ele>705.25</ele><time>2026-04-28T12:25:29.326Z</time></trkpt><trkpt lat="43.8321616" lon="16.9577123"><ele>705.0</ele><time>2026-04-28T12:25:30.327Z</time></trkpt><trkpt lat="43.8321493" lon="16.9579176"><ele>705.6666666666666</ele><time>2026-04-28T12:25:31.326Z</time></trkpt><trkpt lat="43.8321352" lon="16.9581416"><ele>706.3333333333333</ele><time>2026-04-28T12:25:32.326Z</time></trkpt><trkpt lat="43.8321289" lon="16.9583664"><ele>707.0</ele><time>2026-04-28T12:25:33.326Z</time></trkpt><trkpt lat="43.8321233" lon="16.9585961"><ele>707.0</ele><time>2026-04-28T12:25:34.326Z</time></trkpt><trkpt lat="43.832116" lon="16.9588159"><ele>707.0</ele><time>2026-04-28T12:25:35.326Z</time></trkpt><trkpt lat="43.8321117" lon="16.9590419"><ele>707.0</ele><time>2026-04-28T12:25:36.326Z</time></trkpt><trkpt lat="43.8321103" lon="16.9592341"><ele>707.3333333333333</ele><time>2026-04-28T12:25:37.327Z</time></trkpt><trkpt lat="43.8321007" lon="16.9594551"><ele>707.6666666666666</ele><time>2026-04-28T12:25:38.326Z</time></trkpt><trkpt lat="43.832087" lon="16.9596683"><ele>708.0</ele><time>2026-04-28T12:25:39.326Z</time></trkpt><trkpt lat="43.8320783" lon="16.9598715"><ele>707.6666666666666</ele><time>2026-04-28T12:25:40.326Z</time></trkpt><trkpt lat="43.8320707" lon="16.9600783"><ele>707.3333333333333</ele><time>2026-04-28T12:25:41.326Z</time></trkpt><trkpt lat="43.8320713" lon="16.9602898"><ele>707.0</ele><time>2026-04-28T12:25:42.326Z</time></trkpt><trkpt lat="43.8320756" lon="16.9605079"><ele>707.0</ele><time>2026-04-28T12:25:43.326Z</time></trkpt><trkpt lat="43.8320607" lon="16.9607285"><ele>707.0</ele><time>2026-04-28T12:25:44.326Z</time></trkpt><trkpt lat="43.8320486" lon="16.9609519"><ele>707.0</ele><time>2026-04-28T12:25:45.326Z</time></trkpt><trkpt lat="43.8320348" lon="16.9611666"><ele>707.0</ele><time>2026-04-28T12:25:46.326Z</time></trkpt><trkpt lat="43.8320216" lon="16.9613793"><ele>707.0</ele><time>2026-04-28T12:25:47.326Z</time></trkpt><trkpt lat="43.832017" lon="16.9615618"><ele>707.0</ele><time>2026-04-28T12:25:48.327Z</time></trkpt><trkpt lat="43.8320078" lon="16.9617543"><ele>707.0</ele><time>2026-04-28T12:25:49.326Z</time></trkpt><trkpt lat="43.831999" lon="16.9619376"><ele>707.0</ele><time>2026-04-28T12:25:50.326Z</time></trkpt><trkpt lat="43.8319924" lon="16.9621247"><ele>707.0</ele><time>2026-04-28T12:25:51.326Z</time></trkpt><trkpt lat="43.8319885" lon="16.9623157"><ele>707.0</ele><time>2026-04-28T12:25:52.326Z</time></trkpt><trkpt lat="43.8319896" lon="16.9625152"><ele>707.0</ele><time>2026-04-28T12:25:53.327Z</time></trkpt><trkpt lat="43.83199" lon="16.9627012"><ele>707.0</ele><time>2026-04-28T12:25:54.326Z</time></trkpt><trkpt lat="43.8319853" lon="16.9628739"><ele>707.0</ele><time>2026-04-28T12:25:55.326Z</time></trkpt><trkpt lat="43.8319745" lon="16.963025"><ele>707.0</ele><time>2026-04-28T12:25:56.326Z</time></trkpt><trkpt lat="43.8319795" lon="16.9631588"><ele>707.0</ele><time>2026-04-28T12:25:57.326Z</time></trkpt><trkpt lat="43.8319965" lon="16.9632794"><ele>707.0</ele><time>2026-04-28T12:25:58.327Z</time></trkpt><trkpt lat="43.8320332" lon="16.9633856"><ele>707.4000000000001</ele><time>2026-04-28T12:25:59.326Z</time></trkpt><trkpt lat="43.8320755" lon="16.9634825"><ele>707.8000000000001</ele><time>2026-04-28T12:26:00.326Z</time></trkpt><trkpt lat="43.8321366" lon="16.9636193"><ele>708.2</ele><time>2026-04-28T12:26:02.326Z</time></trkpt><trkpt lat="43.8321786" lon="16.9637418"><ele>708.6</ele><time>2026-04-28T12:26:04.326Z</time></trkpt><trkpt lat="43.8322008" lon="16.9638566"><ele>709.0</ele><time>2026-04-28T12:26:06.326Z</time></trkpt><trkpt lat="43.8322342" lon="16.963999"><ele>709.0</ele><time>2026-04-28T12:26:08.327Z</time></trkpt><trkpt lat="43.8322444" lon="16.9640909"><ele>709.0</ele><time>2026-04-28T12:26:09.326Z</time></trkpt><trkpt lat="43.8322544" lon="16.9641877"><ele>709.0</ele><time>2026-04-28T12:26:10.326Z</time></trkpt><trkpt lat="43.8322673" lon="16.9642961"><ele>709.0</ele><time>2026-04-28T12:26:11.326Z</time></trkpt><trkpt lat="43.8322764" lon="16.9644189"><ele>709.0</ele><time>2026-04-28T12:26:12.327Z</time></trkpt><trkpt lat="43.8322823" lon="16.9645473"><ele>709.0</ele><time>2026-04-28T12:26:13.326Z</time></trkpt><trkpt lat="43.8322897" lon="16.9646831"><ele>708.8000000000001</ele><time>2026-04-28T12:26:14.326Z</time></trkpt><trkpt lat="43.8322992" lon="16.9648247"><ele>708.6</ele><time>2026-04-28T12:26:15.326Z</time></trkpt><trkpt lat="43.8323063" lon="16.9649651"><ele>708.4</ele><time>2026-04-28T12:26:16.327Z</time></trkpt><trkpt lat="43.8323148" lon="16.9651013"><ele>708.2</ele><time>2026-04-28T12:26:17.326Z</time></trkpt><trkpt lat="43.8323242" lon="16.9652327"><ele>708.0</ele><time>2026-04-28T12:26:18.326Z</time></trkpt><trkpt lat="43.8323324" lon="16.965355"><ele>708.0</ele><time>2026-04-28T12:26:19.326Z</time></trkpt><trkpt lat="43.8323373" lon="16.9654765"><ele>708.0</ele><time>2026-04-28T12:26:20.327Z</time></trkpt><trkpt lat="43.8323491" lon="16.9655897"><ele>708.0</ele><time>2026-04-28T12:26:21.326Z</time></trkpt><trkpt lat="43.8323572" lon="16.9656912"><ele>708.0</ele><time>2026-04-28T12:26:22.327Z</time></trkpt><trkpt lat="43.8323615" lon="16.9657919"><ele>708.0</ele><time>2026-04-28T12:26:23.326Z</time></trkpt><trkpt lat="43.8323322" lon="16.9659564"><ele>708.0</ele><time>2026-04-28T12:26:25.326Z</time></trkpt><trkpt lat="43.8323374" lon="16.9661389"><ele>708.0</ele><time>2026-04-28T12:26:27.326Z</time></trkpt><trkpt lat="43.8323389" lon="16.9662405"><ele>708.0</ele><time>2026-04-28T12:26:28.326Z</time></trkpt><trkpt lat="43.8323476" lon="16.9663586"><ele>708.0</ele><time>2026-04-28T12:26:29.326Z</time></trkpt><trkpt lat="43.8323586" lon="16.9664687"><ele>708.0</ele><time>2026-04-28T12:26:30.326Z</time></trkpt><trkpt lat="43.8323672" lon="16.9665844"><ele>708.0</ele><time>2026-04-28T12:26:31.326Z</time></trkpt><trkpt lat="43.8323726" lon="16.966705"><ele>708.0</ele><time>2026-04-28T12:26:32.327Z</time></trkpt><trkpt lat="43.8323789" lon="16.9668257"><ele>708.0</ele><time>2026-04-28T12:26:33.326Z</time></trkpt><trkpt lat="43.8323844" lon="16.9669441"><ele>708.0</ele><time>2026-04-28T12:26:34.326Z</time></trkpt><trkpt lat="43.8323845" lon="16.967065"><ele>708.0</ele><time>2026-04-28T12:26:35.326Z</time></trkpt><trkpt lat="43.8323921" lon="16.9671848"><ele>708.0</ele><time>2026-04-28T12:26:36.326Z</time></trkpt><trkpt lat="43.832399" lon="16.9673197"><ele>708.0</ele><time>2026-04-28T12:26:37.327Z</time></trkpt><trkpt lat="43.8324112" lon="16.9674471"><ele>708.0</ele><time>2026-04-28T12:26:38.327Z</time></trkpt><trkpt lat="43.8324193" lon="16.967583"><ele>708.0</ele><time>2026-04-28T12:26:39.327Z</time></trkpt><trkpt lat="43.832435" lon="16.9677102"><ele>708.0</ele><time>2026-04-28T12:26:40.326Z</time></trkpt><trkpt lat="43.8324431" lon="16.9678472"><ele>708.0</ele><time>2026-04-28T12:26:41.326Z</time></trkpt><trkpt lat="43.8324546" lon="16.9679729"><ele>708.0</ele><time>2026-04-28T12:26:42.326Z</time></trkpt><trkpt lat="43.8324675" lon="16.9680977"><ele>708.0</ele><time>2026-04-28T12:26:43.327Z</time></trkpt><trkpt lat="43.832473" lon="16.9682224"><ele>708.0</ele><time>2026-04-28T12:26:44.327Z</time></trkpt><trkpt lat="43.8324745" lon="16.9683486"><ele>708.0</ele><time>2026-04-28T12:26:45.326Z</time></trkpt><trkpt lat="43.832476" lon="16.9684814"><ele>708.0</ele><time>2026-04-28T12:26:46.327Z</time></trkpt><trkpt lat="43.8324872" lon="16.9686115"><ele>708.0</ele><time>2026-04-28T12:26:47.326Z</time></trkpt><trkpt lat="43.8325054" lon="16.9687392"><ele>708.0</ele><time>2026-04-28T12:26:48.326Z</time></trkpt><trkpt lat="43.8325113" lon="16.9688714"><ele>708.0</ele><time>2026-04-28T12:26:49.326Z</time></trkpt><trkpt lat="43.8325188" lon="16.9689959"><ele>708.0</ele><time>2026-04-28T12:26:50.327Z</time></trkpt><trkpt lat="43.8325298" lon="16.9691184"><ele>708.0</ele><time>2026-04-28T12:26:51.327Z</time></trkpt><trkpt lat="43.8325351" lon="16.969228"><ele>708.0</ele><time>2026-04-28T12:26:52.327Z</time></trkpt><trkpt lat="43.8325404" lon="16.9693292"><ele>708.0</ele><time>2026-04-28T12:26:53.326Z</time></trkpt><trkpt lat="43.832545" lon="16.9694217"><ele>708.0</ele><time>2026-04-28T12:26:54.326Z</time></trkpt><trkpt lat="43.8325906" lon="16.9695915"><ele>708.0</ele><time>2026-04-28T12:26:56.327Z</time></trkpt><trkpt lat="43.832612" lon="16.9696856"><ele>708.0</ele><time>2026-04-28T12:26:57.326Z</time></trkpt><trkpt lat="43.8326265" lon="16.9698019"><ele>708.0</ele><time>2026-04-28T12:26:58.326Z</time></trkpt><trkpt lat="43.8326365" lon="16.9699386"><ele>708.0</ele><time>2026-04-28T12:26:59.326Z</time></trkpt><trkpt lat="43.8326487" lon="16.9700954"><ele>708.0</ele><time>2026-04-28T12:27:00.326Z</time></trkpt><trkpt lat="43.8326519" lon="16.9702543"><ele>708.0</ele><time>2026-04-28T12:27:01.326Z</time></trkpt><trkpt lat="43.8326579" lon="16.9704117"><ele>708.0</ele><time>2026-04-28T12:27:02.326Z</time></trkpt><trkpt lat="43.8326719" lon="16.9705843"><ele>708.0</ele><time>2026-04-28T12:27:03.326Z</time></trkpt><trkpt lat="43.83269" lon="16.9707686"><ele>708.0</ele><time>2026-04-28T12:27:04.326Z</time></trkpt><trkpt lat="43.8326939" lon="16.9709483"><ele>708.0</ele><time>2026-04-28T12:27:05.326Z</time></trkpt><trkpt lat="43.8327058" lon="16.9711387"><ele>708.0</ele><time>2026-04-28T12:27:06.326Z</time></trkpt><trkpt lat="43.8327152" lon="16.9713336"><ele>708.0</ele><time>2026-04-28T12:27:07.327Z</time></trkpt><trkpt lat="43.8327287" lon="16.9715416"><ele>708.0</ele><time>2026-04-28T12:27:08.326Z</time></trkpt><trkpt lat="43.8327445" lon="16.9717469"><ele>708.0</ele><time>2026-04-28T12:27:09.326Z</time></trkpt><trkpt lat="43.8327571" lon="16.9719571"><ele>708.0</ele><time>2026-04-28T12:27:10.326Z</time></trkpt><trkpt lat="43.8327752" lon="16.9721689"><ele>708.0</ele><time>2026-04-28T12:27:11.326Z</time></trkpt><trkpt lat="43.8327927" lon="16.9723744"><ele>708.0</ele><time>2026-04-28T12:27:12.327Z</time></trkpt><trkpt lat="43.8328069" lon="16.9725604"><ele>708.0</ele><time>2026-04-28T12:27:13.326Z</time></trkpt><trkpt lat="43.8328105" lon="16.9727405"><ele>708.0</ele><time>2026-04-28T12:27:14.327Z</time></trkpt><trkpt lat="43.8328006" lon="16.9729113"><ele>708.0</ele><time>2026-04-28T12:27:15.326Z</time></trkpt><trkpt lat="43.8327852" lon="16.973058"><ele>708.0</ele><time>2026-04-28T12:27:16.326Z</time></trkpt><trkpt lat="43.8327984" lon="16.9732126"><ele>708.0</ele><time>2026-04-28T12:27:17.327Z</time></trkpt><trkpt lat="43.8328074" lon="16.9733826"><ele>708.0</ele><time>2026-04-28T12:27:18.326Z</time></trkpt><trkpt lat="43.832824" lon="16.9735524"><ele>708.0</ele><time>2026-04-28T12:27:19.327Z</time></trkpt><trkpt lat="43.8328371" lon="16.9737516"><ele>708.0</ele><time>2026-04-28T12:27:20.326Z</time></trkpt><trkpt lat="43.832846" lon="16.9739518"><ele>708.0</ele><time>2026-04-28T12:27:21.327Z</time></trkpt><trkpt lat="43.8328576" lon="16.9741512"><ele>708.0</ele><time>2026-04-28T12:27:22.326Z</time></trkpt><trkpt lat="43.8328663" lon="16.9743552"><ele>708.0</ele><time>2026-04-28T12:27:23.327Z</time></trkpt><trkpt lat="43.8328795" lon="16.9745693"><ele>708.0</ele><time>2026-04-28T12:27:24.326Z</time></trkpt><trkpt lat="43.8328895" lon="16.9747806"><ele>708.0</ele><time>2026-04-28T12:27:25.326Z</time></trkpt><trkpt lat="43.8329021" lon="16.9750039"><ele>707.6666666666666</ele><time>2026-04-28T12:27:26.327Z</time></trkpt><trkpt lat="43.8329271" lon="16.9752295"><ele>707.3333333333333</ele><time>2026-04-28T12:27:27.326Z</time></trkpt><trkpt lat="43.8329452" lon="16.9754609"><ele>707.0</ele><time>2026-04-28T12:27:28.326Z</time></trkpt><trkpt lat="43.8329636" lon="16.9756999"><ele>707.6666666666666</ele><time>2026-04-28T12:27:29.326Z</time></trkpt><trkpt lat="43.8329815" lon="16.9759302"><ele>708.3333333333334</ele><time>2026-04-28T12:27:30.327Z</time></trkpt><trkpt lat="43.8329947" lon="16.9761663"><ele>709.0</ele><time>2026-04-28T12:27:31.327Z</time></trkpt><trkpt lat="43.8330072" lon="16.9764101"><ele>709.0</ele><time>2026-04-28T12:27:32.327Z</time></trkpt><trkpt lat="43.8330257" lon="16.9766445"><ele>709.0</ele><time>2026-04-28T12:27:33.326Z</time></trkpt><trkpt lat="43.8330418" lon="16.9768812"><ele>709.0</ele><time>2026-04-28T12:27:34.327Z</time></trkpt><trkpt lat="43.833051" lon="16.9771267"><ele>709.3333333333334</ele><time>2026-04-28T12:27:35.326Z</time></trkpt><trkpt lat="43.8330655" lon="16.9773706"><ele>709.6666666666666</ele><time>2026-04-28T12:27:36.326Z</time></trkpt><trkpt lat="43.8330821" lon="16.97761"><ele>710.0</ele><time>2026-04-28T12:27:37.327Z</time></trkpt><trkpt lat="43.833097" lon="16.9778547"><ele>710.0</ele><time>2026-04-28T12:27:38.326Z</time></trkpt><trkpt lat="43.8331156" lon="16.9781027"><ele>710.0</ele><time>2026-04-28T12:27:39.326Z</time></trkpt><trkpt lat="43.8331342" lon="16.9783414"><ele>710.0</ele><time>2026-04-28T12:27:40.326Z</time></trkpt><trkpt lat="43.8331496" lon="16.9785827"><ele>709.6666666666666</ele><time>2026-04-28T12:27:41.326Z</time></trkpt><trkpt lat="43.8331643" lon="16.9788304"><ele>709.3333333333334</ele><time>2026-04-28T12:27:42.326Z</time></trkpt><trkpt lat="43.8331786" lon="16.9790811"><ele>709.0</ele><time>2026-04-28T12:27:43.326Z</time></trkpt><trkpt lat="43.8332033" lon="16.9793121"><ele>709.0</ele><time>2026-04-28T12:27:44.327Z</time></trkpt><trkpt lat="43.8332155" lon="16.9795611"><ele>709.0</ele><time>2026-04-28T12:27:45.326Z</time></trkpt><trkpt lat="43.833228" lon="16.9798156"><ele>709.0</ele><time>2026-04-28T12:27:46.326Z</time></trkpt><trkpt lat="43.8332462" lon="16.9800821"><ele>709.25</ele><time>2026-04-28T12:27:47.327Z</time></trkpt><trkpt lat="43.8332564" lon="16.9803132"><ele>709.5</ele><time>2026-04-28T12:27:48.326Z</time></trkpt><trkpt lat="43.8332686" lon="16.98052"><ele>709.75</ele><time>2026-04-28T12:27:49.327Z</time></trkpt><trkpt lat="43.8332865" lon="16.9806993"><ele>710.0</ele><time>2026-04-28T12:27:50.327Z</time></trkpt><trkpt lat="43.833293" lon="16.9808665"><ele>710.0</ele><time>2026-04-28T12:27:51.326Z</time></trkpt><trkpt lat="43.8333053" lon="16.9810089"><ele>710.0</ele><time>2026-04-28T12:27:52.326Z</time></trkpt><trkpt lat="43.8333167" lon="16.981131"><ele>710.0</ele><time>2026-04-28T12:27:53.326Z</time></trkpt><trkpt lat="43.8333125" lon="16.9812333"><ele>710.0</ele><time>2026-04-28T12:27:54.326Z</time></trkpt><trkpt lat="43.8332996" lon="16.9813902"><ele>710.0</ele><time>2026-04-28T12:27:56.327Z</time></trkpt><trkpt lat="43.8333114" lon="16.9815076"><ele>710.0</ele><time>2026-04-28T12:27:58.326Z</time></trkpt><trkpt lat="43.833333" lon="16.9815957"><ele>710.0</ele><time>2026-04-28T12:28:00.327Z</time></trkpt><trkpt lat="43.8333684" lon="16.9816737"><ele>710.0</ele><time>2026-04-28T12:28:04.327Z</time></trkpt><trkpt lat="43.8334255" lon="16.981715"><ele>710.0</ele><time>2026-04-28T12:29:56.326Z</time></trkpt><trkpt lat="43.8333677" lon="16.9816329"><ele>710.0</ele><time>2026-04-28T12:31:05.326Z</time></trkpt><trkpt lat="43.8333225" lon="16.9815472"><ele>710.0</ele><time>2026-04-28T12:31:08.327Z</time></trkpt><trkpt lat="43.8332789" lon="16.9814694"><ele>710.0</ele><time>2026-04-28T12:31:11.326Z</time></trkpt><trkpt lat="43.8332145" lon="16.9814598"><ele>710.0</ele><time>2026-04-28T12:31:41.326Z</time></trkpt><trkpt lat="43.8330995" lon="16.9814525"><ele>710.0</ele><time>2026-04-28T12:31:43.326Z</time></trkpt><trkpt lat="43.8330275" lon="16.9814527"><ele>710.0</ele><time>2026-04-28T12:31:44.326Z</time></trkpt><trkpt lat="43.8329445" lon="16.9814668"><ele>710.0</ele><time>2026-04-28T12:31:45.326Z</time></trkpt><trkpt lat="43.8328475" lon="16.9814844"><ele>710.0</ele><time>2026-04-28T12:31:46.327Z</time></trkpt><trkpt lat="43.8327633" lon="16.9814937"><ele>710.0</ele><time>2026-04-28T12:31:47.326Z</time></trkpt><trkpt lat="43.8326839" lon="16.9815072"><ele>710.0</ele><time>2026-04-28T12:31:48.326Z</time></trkpt><trkpt lat="43.8325969" lon="16.9815241"><ele>710.0</ele><time>2026-04-28T12:31:49.326Z</time></trkpt><trkpt lat="43.8325019" lon="16.9815407"><ele>710.0</ele><time>2026-04-28T12:31:50.326Z</time></trkpt><trkpt lat="43.8324026" lon="16.9815629"><ele>710.0</ele><time>2026-04-28T12:31:51.326Z</time></trkpt><trkpt lat="43.8323094" lon="16.9815828"><ele>710.0</ele><time>2026-04-28T12:31:52.327Z</time></trkpt><trkpt lat="43.8322124" lon="16.9816065"><ele>710.0</ele><time>2026-04-28T12:31:53.326Z</time></trkpt><trkpt lat="43.8321143" lon="16.9816349"><ele>710.0</ele><time>2026-04-28T12:31:54.326Z</time></trkpt><trkpt lat="43.8320204" lon="16.9816665"><ele>710.0</ele><time>2026-04-28T12:31:55.326Z</time></trkpt><trkpt lat="43.8319296" lon="16.9817032"><ele>710.0</ele><time>2026-04-28T12:31:56.326Z</time></trkpt><trkpt lat="43.8318422" lon="16.9817407"><ele>710.0</ele><time>2026-04-28T12:31:57.327Z</time></trkpt><trkpt lat="43.8317654" lon="16.9817793"><ele>710.0</ele><time>2026-04-28T12:31:58.327Z</time></trkpt><trkpt lat="43.8316935" lon="16.981816"><ele>710.0</ele><time>2026-04-28T12:31:59.327Z</time></trkpt><trkpt lat="43.8316337" lon="16.9818573"><ele>710.0</ele><time>2026-04-28T12:32:00.327Z</time></trkpt><trkpt lat="43.8315647" lon="16.981913"><ele>710.0</ele><time>2026-04-28T12:32:01.326Z</time></trkpt><trkpt lat="43.831492" lon="16.9819656"><ele>710.0</ele><time>2026-04-28T12:32:02.326Z</time></trkpt><trkpt lat="43.8314153" lon="16.9820324"><ele>710.0</ele><time>2026-04-28T12:32:03.327Z</time></trkpt><trkpt lat="43.8313458" lon="16.9820905"><ele>710.0</ele><time>2026-04-28T12:32:04.326Z</time></trkpt><trkpt lat="43.8312806" lon="16.9821425"><ele>710.0</ele><time>2026-04-28T12:32:05.327Z</time></trkpt><trkpt lat="43.8312254" lon="16.9821914"><ele>710.0</ele><time>2026-04-28T12:32:06.326Z</time></trkpt><trkpt lat="43.8311445" lon="16.9822905"><ele>710.0</ele><time>2026-04-28T12:32:08.326Z</time></trkpt><trkpt lat="43.8310488" lon="16.9824145"><ele>710.0</ele><time>2026-04-28T12:32:10.326Z</time></trkpt><trkpt lat="43.830997" lon="16.9824792"><ele>710.0</ele><time>2026-04-28T12:32:11.327Z</time></trkpt><trkpt lat="43.8309412" lon="16.9825524"><ele>710.0</ele><time>2026-04-28T12:32:12.326Z</time></trkpt><trkpt lat="43.8308847" lon="16.9826212"><ele>710.0</ele><time>2026-04-28T12:32:13.327Z</time></trkpt><trkpt lat="43.8308403" lon="16.9826899"><ele>710.0</ele><time>2026-04-28T12:32:14.327Z</time></trkpt><trkpt lat="43.8308009" lon="16.9827613"><ele>710.0</ele><time>2026-04-28T12:32:15.327Z</time></trkpt><trkpt lat="43.8307244" lon="16.9828737"><ele>709.8333333333333</ele><time>2026-04-28T12:32:17.326Z</time></trkpt><trkpt lat="43.8306677" lon="16.9829382"><ele>709.6666666666666</ele><time>2026-04-28T12:32:19.326Z</time></trkpt><trkpt lat="43.8305856" lon="16.9830434"><ele>709.5</ele><time>2026-04-28T12:32:40.326Z</time></trkpt><trkpt lat="43.8305385" lon="16.9831154"><ele>709.3333333333334</ele><time>2026-04-28T12:32:41.326Z</time></trkpt><trkpt lat="43.830479" lon="16.9831986"><ele>709.1666666666667</ele><time>2026-04-28T12:32:42.327Z</time></trkpt><trkpt lat="43.8304177" lon="16.9832982"><ele>709.0</ele><time>2026-04-28T12:32:43.326Z</time></trkpt><trkpt lat="43.8303473" lon="16.9833844"><ele>709.0</ele><time>2026-04-28T12:32:44.327Z</time></trkpt><trkpt lat="43.8302743" lon="16.9834672"><ele>709.0</ele><time>2026-04-28T12:32:45.326Z</time></trkpt><trkpt lat="43.8302145" lon="16.9835579"><ele>709.0</ele><time>2026-04-28T12:32:46.326Z</time></trkpt><trkpt lat="43.8301608" lon="16.983657"><ele>709.0</ele><time>2026-04-28T12:32:47.326Z</time></trkpt><trkpt lat="43.8301132" lon="16.9837845"><ele>709.0</ele><time>2026-04-28T12:32:48.326Z</time></trkpt><trkpt lat="43.8300769" lon="16.9839262"><ele>709.0</ele><time>2026-04-28T12:32:49.326Z</time></trkpt><trkpt lat="43.8300421" lon="16.9840747"><ele>709.0</ele><time>2026-04-28T12:32:50.326Z</time></trkpt><trkpt lat="43.8300044" lon="16.9842163"><ele>709.0</ele><time>2026-04-28T12:32:51.326Z</time></trkpt><trkpt lat="43.8299704" lon="16.9843533"><ele>709.0</ele><time>2026-04-28T12:32:52.327Z</time></trkpt><trkpt lat="43.8299374" lon="16.9844852"><ele>709.0</ele><time>2026-04-28T12:32:53.326Z</time></trkpt><trkpt lat="43.829898" lon="16.9846117"><ele>709.0</ele><time>2026-04-28T12:32:54.326Z</time></trkpt><trkpt lat="43.8298442" lon="16.9847383"><ele>709.0</ele><time>2026-04-28T12:32:55.326Z</time></trkpt><trkpt lat="43.8297858" lon="16.9848563"><ele>709.0</ele><time>2026-04-28T12:32:56.327Z</time></trkpt><trkpt lat="43.8297176" lon="16.9849328"><ele>709.0</ele><time>2026-04-28T12:32:57.327Z</time></trkpt><trkpt lat="43.8296404" lon="16.984994"><ele>709.0</ele><time>2026-04-28T12:32:58.326Z</time></trkpt><trkpt lat="43.8295417" lon="16.9850421"><ele>709.2</ele><time>2026-04-28T12:32:59.327Z</time></trkpt><trkpt lat="43.8294311" lon="16.985077"><ele>709.4000000000001</ele><time>2026-04-28T12:33:00.326Z</time></trkpt><trkpt lat="43.8293209" lon="16.9850996"><ele>709.6</ele><time>2026-04-28T12:33:01.327Z</time></trkpt><trkpt lat="43.8292062" lon="16.9851263"><ele>709.8</ele><time>2026-04-28T12:33:02.326Z</time></trkpt><trkpt lat="43.8291189" lon="16.9851695"><ele>710.0</ele><time>2026-04-28T12:33:03.326Z</time></trkpt><trkpt lat="43.8290456" lon="16.9852195"><ele>710.1666666666666</ele><time>2026-04-28T12:33:04.326Z</time></trkpt><trkpt lat="43.8289855" lon="16.9852775"><ele>710.3333333333333</ele><time>2026-04-28T12:33:05.326Z</time></trkpt><trkpt lat="43.8289225" lon="16.9853431"><ele>710.5</ele><time>2026-04-28T12:33:06.327Z</time></trkpt><trkpt lat="43.8288371" lon="16.985419"><ele>710.6666666666666</ele><time>2026-04-28T12:33:07.326Z</time></trkpt><trkpt lat="43.8287582" lon="16.9854997"><ele>710.8333333333334</ele><time>2026-04-28T12:33:08.326Z</time></trkpt><trkpt lat="43.828687" lon="16.9855856"><ele>711.0</ele><time>2026-04-28T12:33:09.326Z</time></trkpt><trkpt lat="43.8286279" lon="16.9856919"><ele>711.0</ele><time>2026-04-28T12:33:10.326Z</time></trkpt><trkpt lat="43.8285829" lon="16.9858124"><ele>711.0</ele><time>2026-04-28T12:33:11.326Z</time></trkpt><trkpt lat="43.8285498" lon="16.9859466"><ele>711.0</ele><time>2026-04-28T12:33:12.326Z</time></trkpt><trkpt lat="43.8285247" lon="16.9860829"><ele>711.0</ele><time>2026-04-28T12:33:13.326Z</time></trkpt><trkpt lat="43.8285071" lon="16.9862119"><ele>711.0</ele><time>2026-04-28T12:33:14.326Z</time></trkpt><trkpt lat="43.828469" lon="16.986339"><ele>711.0</ele><time>2026-04-28T12:33:15.326Z</time></trkpt><trkpt lat="43.8284191" lon="16.9864627"><ele>711.0</ele><time>2026-04-28T12:33:16.326Z</time></trkpt><trkpt lat="43.8283445" lon="16.9865764"><ele>711.0</ele><time>2026-04-28T12:33:17.327Z</time></trkpt><trkpt lat="43.8282693" lon="16.9866979"><ele>711.0</ele><time>2026-04-28T12:33:18.326Z</time></trkpt><trkpt lat="43.828191" lon="16.9868198"><ele>711.0</ele><time>2026-04-28T12:33:19.326Z</time></trkpt><trkpt lat="43.828116" lon="16.9869299"><ele>711.1999999999999</ele><time>2026-04-28T12:33:20.326Z</time></trkpt><trkpt lat="43.8280518" lon="16.9870443"><ele>711.4</ele><time>2026-04-28T12:33:21.327Z</time></trkpt><trkpt lat="43.8279839" lon="16.9871397"><ele>711.6</ele><time>2026-04-28T12:33:22.326Z</time></trkpt><trkpt lat="43.8279091" lon="16.9872178"><ele>711.8</ele><time>2026-04-28T12:33:23.327Z</time></trkpt><trkpt lat="43.8278353" lon="16.9872742"><ele>712.0</ele><time>2026-04-28T12:33:24.326Z</time></trkpt><trkpt lat="43.8277531" lon="16.9873094"><ele>712.0</ele><time>2026-04-28T12:33:25.326Z</time></trkpt><trkpt lat="43.8276736" lon="16.9873295"><ele>712.0</ele><time>2026-04-28T12:33:26.327Z</time></trkpt><trkpt lat="43.8275882" lon="16.9873699"><ele>712.0</ele><time>2026-04-28T12:33:27.326Z</time></trkpt><trkpt lat="43.8274992" lon="16.9874137"><ele>712.0</ele><time>2026-04-28T12:33:28.326Z</time></trkpt><trkpt lat="43.8274189" lon="16.9874466"><ele>712.0</ele><time>2026-04-28T12:33:29.326Z</time></trkpt><trkpt lat="43.8273433" lon="16.9874734"><ele>712.0</ele><time>2026-04-28T12:33:30.326Z</time></trkpt><trkpt lat="43.8272631" lon="16.9875016"><ele>711.5</ele><time>2026-04-28T12:33:31.326Z</time></trkpt><trkpt lat="43.8271739" lon="16.9875343"><ele>711.0</ele><time>2026-04-28T12:33:32.326Z</time></trkpt><trkpt lat="43.8270902" lon="16.9875671"><ele>710.5</ele><time>2026-04-28T12:33:33.326Z</time></trkpt><trkpt lat="43.8270053" lon="16.9875998"><ele>710.0</ele><time>2026-04-28T12:33:34.327Z</time></trkpt><trkpt lat="43.8269287" lon="16.9876248"><ele>709.5</ele><time>2026-04-28T12:33:35.326Z</time></trkpt><trkpt lat="43.8268582" lon="16.98766"><ele>709.0</ele><time>2026-04-28T12:33:36.327Z</time></trkpt><trkpt lat="43.8267926" lon="16.9877137"><ele>709.0</ele><time>2026-04-28T12:33:37.326Z</time></trkpt><trkpt lat="43.8267223" lon="16.9877831"><ele>709.0</ele><time>2026-04-28T12:33:38.326Z</time></trkpt><trkpt lat="43.8266545" lon="16.9878632"><ele>709.0</ele><time>2026-04-28T12:33:39.327Z</time></trkpt><trkpt lat="43.8265987" lon="16.9879573"><ele>709.0</ele><time>2026-04-28T12:33:40.326Z</time></trkpt><trkpt lat="43.8265502" lon="16.9880705"><ele>709.0</ele><time>2026-04-28T12:33:41.326Z</time></trkpt><trkpt lat="43.8264927" lon="16.9881914"><ele>709.0</ele><time>2026-04-28T12:33:42.326Z</time></trkpt><trkpt lat="43.8264306" lon="16.9883039"><ele>709.0</ele><time>2026-04-28T12:33:43.326Z</time></trkpt><trkpt lat="43.8263694" lon="16.98842"><ele>709.0</ele><time>2026-04-28T12:33:44.326Z</time></trkpt><trkpt lat="43.8263182" lon="16.9885325"><ele>709.0</ele><time>2026-04-28T12:33:45.326Z</time></trkpt><trkpt lat="43.8262455" lon="16.9886584"><ele>709.0</ele><time>2026-04-28T12:33:46.326Z</time></trkpt><trkpt lat="43.8261654" lon="16.9887858"><ele>709.2</ele><time>2026-04-28T12:33:47.327Z</time></trkpt><trkpt lat="43.826097" lon="16.988908"><ele>709.4000000000001</ele><time>2026-04-28T12:33:48.327Z</time></trkpt><trkpt lat="43.8260307" lon="16.989036"><ele>709.6</ele><time>2026-04-28T12:33:49.327Z</time></trkpt><trkpt lat="43.8259628" lon="16.989154"><ele>709.8</ele><time>2026-04-28T12:33:50.326Z</time></trkpt><trkpt lat="43.8258936" lon="16.9892755"><ele>710.0</ele><time>2026-04-28T12:33:51.326Z</time></trkpt><trkpt lat="43.8258355" lon="16.9893946"><ele>710.8</ele><time>2026-04-28T12:33:52.326Z</time></trkpt><trkpt lat="43.8257685" lon="16.9895193"><ele>711.6</ele><time>2026-04-28T12:33:53.326Z</time></trkpt><trkpt lat="43.8257086" lon="16.9896385"><ele>712.4000000000001</ele><time>2026-04-28T12:33:54.326Z</time></trkpt><trkpt lat="43.8256387" lon="16.989761"><ele>713.2</ele><time>2026-04-28T12:33:55.326Z</time></trkpt><trkpt lat="43.8255795" lon="16.9898703"><ele>714.0</ele><time>2026-04-28T12:33:56.326Z</time></trkpt><trkpt lat="43.8255256" lon="16.9899828"><ele>714.0</ele><time>2026-04-28T12:33:57.326Z</time></trkpt><trkpt lat="43.8254782" lon="16.9900941"><ele>714.0</ele><time>2026-04-28T12:33:58.326Z</time></trkpt><trkpt lat="43.8254318" lon="16.9901926"><ele>714.0</ele><time>2026-04-28T12:33:59.327Z</time></trkpt><trkpt lat="43.825385" lon="16.9902707"><ele>714.0</ele><time>2026-04-28T12:34:00.327Z</time></trkpt><trkpt lat="43.8253294" lon="16.9903476"><ele>714.0</ele><time>2026-04-28T12:34:01.326Z</time></trkpt><trkpt lat="43.8252842" lon="16.9904161"><ele>714.0</ele><time>2026-04-28T12:34:02.326Z</time></trkpt><trkpt lat="43.8252152" lon="16.9905703"><ele>714.0</ele><time>2026-04-28T12:34:04.327Z</time></trkpt><trkpt lat="43.8251769" lon="16.9906473"><ele>714.0</ele><time>2026-04-28T12:34:05.326Z</time></trkpt><trkpt lat="43.8251355" lon="16.9907288"><ele>714.0</ele><time>2026-04-28T12:34:06.326Z</time></trkpt><trkpt lat="43.825099" lon="16.9908049"><ele>714.0</ele><time>2026-04-28T12:34:07.326Z</time></trkpt><trkpt lat="43.8250575" lon="16.9908869"><ele>714.0</ele><time>2026-04-28T12:34:08.327Z</time></trkpt><trkpt lat="43.8250156" lon="16.9909649"><ele>714.0</ele><time>2026-04-28T12:34:09.327Z</time></trkpt><trkpt lat="43.8249725" lon="16.9910566"><ele>714.0</ele><time>2026-04-28T12:34:10.326Z</time></trkpt><trkpt lat="43.8249313" lon="16.9911471"><ele>713.8333333333334</ele><time>2026-04-28T12:34:11.326Z</time></trkpt><trkpt lat="43.8248835" lon="16.9912337"><ele>713.6666666666666</ele><time>2026-04-28T12:34:12.327Z</time></trkpt><trkpt lat="43.8248382" lon="16.9912959"><ele>713.5</ele><time>2026-04-28T12:34:13.326Z</time></trkpt><trkpt lat="43.8247823" lon="16.9913725"><ele>713.3333333333333</ele><time>2026-04-28T12:34:14.327Z</time></trkpt><trkpt lat="43.8247186" lon="16.9914552"><ele>713.1666666666666</ele><time>2026-04-28T12:34:15.326Z</time></trkpt><trkpt lat="43.8246656" lon="16.991534"><ele>713.0</ele><time>2026-04-28T12:34:16.326Z</time></trkpt><trkpt lat="43.8246086" lon="16.9916098"><ele>713.0</ele><time>2026-04-28T12:34:17.326Z</time></trkpt><trkpt lat="43.8245372" lon="16.991699"><ele>713.0</ele><time>2026-04-28T12:34:18.326Z</time></trkpt><trkpt lat="43.8244732" lon="16.9917774"><ele>713.0</ele><time>2026-04-28T12:34:19.326Z</time></trkpt><trkpt lat="43.8244103" lon="16.9918514"><ele>713.0</ele><time>2026-04-28T12:34:20.327Z</time></trkpt><trkpt lat="43.8243477" lon="16.9919252"><ele>713.0</ele><time>2026-04-28T12:34:21.326Z</time></trkpt><trkpt lat="43.8242954" lon="16.9919905"><ele>713.0</ele><time>2026-04-28T12:34:22.326Z</time></trkpt><trkpt lat="43.8241994" lon="16.9920401"><ele>713.2</ele><time>2026-04-28T12:34:24.326Z</time></trkpt><trkpt lat="43.8240916" lon="16.992055"><ele>713.4</ele><time>2026-04-28T12:34:26.326Z</time></trkpt><trkpt lat="43.8239694" lon="16.9920103"><ele>713.6</ele><time>2026-04-28T12:34:28.327Z</time></trkpt><trkpt lat="43.8239019" lon="16.9919632"><ele>713.8000000000001</ele><time>2026-04-28T12:34:29.327Z</time></trkpt><trkpt lat="43.8238317" lon="16.9919061"><ele>714.0</ele><time>2026-04-28T12:34:30.326Z</time></trkpt><trkpt lat="43.8237631" lon="16.9918675"><ele>714.0</ele><time>2026-04-28T12:34:31.327Z</time></trkpt><trkpt lat="43.8237033" lon="16.9918269"><ele>714.0</ele><time>2026-04-28T12:34:32.327Z</time></trkpt><trkpt lat="43.8236449" lon="16.9917833"><ele>714.0</ele><time>2026-04-28T12:34:33.326Z</time></trkpt><trkpt lat="43.8235602" lon="16.9917013"><ele>714.0</ele><time>2026-04-28T12:34:35.326Z</time></trkpt><trkpt lat="43.8235023" lon="16.9916372"><ele>714.0</ele><time>2026-04-28T12:34:37.326Z</time></trkpt><trkpt lat="43.82341" lon="16.9916612"><ele>714.0</ele><time>2026-04-28T12:34:43.326Z</time></trkpt><trkpt lat="43.8233751" lon="16.9917501"><ele>714.2</ele><time>2026-04-28T12:34:44.326Z</time></trkpt><trkpt lat="43.8233481" lon="16.9918441"><ele>714.4000000000001</ele><time>2026-04-28T12:34:45.327Z</time></trkpt><trkpt lat="43.8233193" lon="16.9919725"><ele>714.6</ele><time>2026-04-28T12:34:46.326Z</time></trkpt><trkpt lat="43.8232975" lon="16.9921109"><ele>714.8</ele><time>2026-04-28T12:34:47.326Z</time></trkpt><trkpt lat="43.8232828" lon="16.9922619"><ele>715.0</ele><time>2026-04-28T12:34:48.326Z</time></trkpt><trkpt lat="43.8232698" lon="16.9924199"><ele>715.25</ele><time>2026-04-28T12:34:49.326Z</time></trkpt><trkpt lat="43.823257" lon="16.9925807"><ele>715.5</ele><time>2026-04-28T12:34:50.326Z</time></trkpt><trkpt lat="43.8232471" lon="16.9927515"><ele>715.75</ele><time>2026-04-28T12:34:51.326Z</time></trkpt><trkpt lat="43.8232491" lon="16.9929159"><ele>716.0</ele><time>2026-04-28T12:34:52.327Z</time></trkpt><trkpt lat="43.8232523" lon="16.9930832"><ele>716.0</ele><time>2026-04-28T12:34:53.326Z</time></trkpt><trkpt lat="43.8232585" lon="16.9932551"><ele>716.0</ele><time>2026-04-28T12:34:54.326Z</time></trkpt><trkpt lat="43.8232704" lon="16.9934252"><ele>716.0</ele><time>2026-04-28T12:34:55.326Z</time></trkpt><trkpt lat="43.823292" lon="16.9935834"><ele>716.0</ele><time>2026-04-28T12:34:56.326Z</time></trkpt><trkpt lat="43.8232974" lon="16.9937503"><ele>716.0</ele><time>2026-04-28T12:34:57.327Z</time></trkpt><trkpt lat="43.823311" lon="16.9939261"><ele>716.0</ele><time>2026-04-28T12:34:58.326Z</time></trkpt><trkpt lat="43.8233194" lon="16.9940865"><ele>716.0</ele><time>2026-04-28T12:34:59.326Z</time></trkpt><trkpt lat="43.8233333" lon="16.9942531"><ele>716.0</ele><time>2026-04-28T12:35:00.326Z</time></trkpt><trkpt lat="43.8233478" lon="16.9944233"><ele>716.0</ele><time>2026-04-28T12:35:01.326Z</time></trkpt><trkpt lat="43.8233658" lon="16.9945928"><ele>716.0</ele><time>2026-04-28T12:35:02.327Z</time></trkpt><trkpt lat="43.8233802" lon="16.994765"><ele>716.0</ele><time>2026-04-28T12:35:03.326Z</time></trkpt><trkpt lat="43.8233952" lon="16.9949293"><ele>716.0</ele><time>2026-04-28T12:35:04.326Z</time></trkpt><trkpt lat="43.8234199" lon="16.9950838"><ele>716.0</ele><time>2026-04-28T12:35:05.327Z</time></trkpt><trkpt lat="43.8234363" lon="16.9952362"><ele>716.0</ele><time>2026-04-28T12:35:06.327Z</time></trkpt><trkpt lat="43.8234594" lon="16.9953896"><ele>716.0</ele><time>2026-04-28T12:35:07.326Z</time></trkpt><trkpt lat="43.8234772" lon="16.9955433"><ele>716.0</ele><time>2026-04-28T12:35:08.326Z</time></trkpt><trkpt lat="43.8234913" lon="16.9956961"><ele>716.0</ele><time>2026-04-28T12:35:09.326Z</time></trkpt><trkpt lat="43.823508" lon="16.9958476"><ele>716.4</ele><time>2026-04-28T12:35:10.326Z</time></trkpt><trkpt lat="43.8235353" lon="16.9959944"><ele>716.8</ele><time>2026-04-28T12:35:11.327Z</time></trkpt><trkpt lat="43.8235483" lon="16.9961337"><ele>717.1999999999999</ele><time>2026-04-28T12:35:12.326Z</time></trkpt><trkpt lat="43.8235621" lon="16.99627"><ele>717.5999999999999</ele><time>2026-04-28T12:35:13.326Z</time></trkpt><trkpt lat="43.8235704" lon="16.9963961"><ele>718.0</ele><time>2026-04-28T12:35:14.327Z</time></trkpt><trkpt lat="43.8235803" lon="16.9964934"><ele>718.0</ele><time>2026-04-28T12:35:15.326Z</time></trkpt><trkpt lat="43.8235915" lon="16.9966025"><ele>718.0</ele><time>2026-04-28T12:35:17.326Z</time></trkpt><trkpt lat="43.8235745" lon="16.9967267"><ele>718.0</ele><time>2026-04-28T12:35:20.326Z</time></trkpt><trkpt lat="43.8235389" lon="16.9968422"><ele>718.0</ele><time>2026-04-28T12:35:22.326Z</time></trkpt><trkpt lat="43.8235508" lon="16.9969929"><ele>718.0</ele><time>2026-04-28T12:35:24.327Z</time></trkpt><trkpt lat="43.8236405" lon="16.9970756"><ele>718.0</ele><time>2026-04-28T12:35:26.326Z</time></trkpt><trkpt lat="43.8237685" lon="16.9970423"><ele>718.0</ele><time>2026-04-28T12:35:28.326Z</time></trkpt><trkpt lat="43.8238406" lon="16.9970174"><ele>718.0</ele><time>2026-04-28T12:35:29.326Z</time></trkpt><trkpt lat="43.8239413" lon="16.9969803"><ele>718.0</ele><time>2026-04-28T12:35:30.326Z</time></trkpt><trkpt lat="43.8240363" lon="16.9969547"><ele>718.0</ele><time>2026-04-28T12:35:31.326Z</time></trkpt><trkpt lat="43.8241354" lon="16.996925"><ele>718.0</ele><time>2026-04-28T12:35:32.326Z</time></trkpt><trkpt lat="43.8242565" lon="16.9968873"><ele>718.0</ele><time>2026-04-28T12:35:33.327Z</time></trkpt><trkpt lat="43.8243824" lon="16.9968674"><ele>718.0</ele><time>2026-04-28T12:35:34.326Z</time></trkpt><trkpt lat="43.8245073" lon="16.9968532"><ele>718.0</ele><time>2026-04-28T12:35:35.327Z</time></trkpt><trkpt lat="43.8246344" lon="16.9968444"><ele>717.75</ele><time>2026-04-28T12:35:36.326Z</time></trkpt><trkpt lat="43.8247562" lon="16.9968328"><ele>717.5</ele><time>2026-04-28T12:35:37.326Z</time></trkpt><trkpt lat="43.8249047" lon="16.9967948"><ele>717.25</ele><time>2026-04-28T12:35:38.327Z</time></trkpt><trkpt lat="43.8250473" lon="16.9967785"><ele>717.0</ele><time>2026-04-28T12:35:39.326Z</time></trkpt><trkpt lat="43.8251779" lon="16.9967469"><ele>717.0</ele><time>2026-04-28T12:35:40.327Z</time></trkpt><trkpt lat="43.8253046" lon="16.9967315"><ele>717.0</ele><time>2026-04-28T12:35:41.326Z</time></trkpt><trkpt lat="43.8254352" lon="16.9967072"><ele>717.0</ele><time>2026-04-28T12:35:42.326Z</time></trkpt><trkpt lat="43.8255621" lon="16.9966886"><ele>717.0</ele><time>2026-04-28T12:35:43.327Z</time></trkpt><trkpt lat="43.8256801" lon="16.9966667"><ele>717.25</ele><time>2026-04-28T12:35:44.326Z</time></trkpt><trkpt lat="43.8258057" lon="16.9966561"><ele>717.5</ele><time>2026-04-28T12:35:45.327Z</time></trkpt><trkpt lat="43.8259395" lon="16.9966355"><ele>717.75</ele><time>2026-04-28T12:35:46.326Z</time></trkpt><trkpt lat="43.8260637" lon="16.9966306"><ele>718.0</ele><time>2026-04-28T12:35:47.327Z</time></trkpt><trkpt lat="43.8261933" lon="16.9966311"><ele>718.0</ele><time>2026-04-28T12:35:48.326Z</time></trkpt><trkpt lat="43.8263215" lon="16.9966474"><ele>718.0</ele><time>2026-04-28T12:35:49.327Z</time></trkpt><trkpt lat="43.8264501" lon="16.9966694"><ele>718.0</ele><time>2026-04-28T12:35:50.326Z</time></trkpt><trkpt lat="43.8265727" lon="16.9966945"><ele>718.0</ele><time>2026-04-28T12:35:51.326Z</time></trkpt><trkpt lat="43.8267045" lon="16.996734"><ele>718.5</ele><time>2026-04-28T12:35:52.326Z</time></trkpt><trkpt lat="43.8268356" lon="16.9967819"><ele>719.0</ele><time>2026-04-28T12:35:53.326Z</time></trkpt><trkpt lat="43.8269719" lon="16.9968349"><ele>719.5</ele><time>2026-04-28T12:35:54.326Z</time></trkpt><trkpt lat="43.8271004" lon="16.996896"><ele>720.0</ele><time>2026-04-28T12:35:55.326Z</time></trkpt><trkpt lat="43.8272082" lon="16.9969546"><ele>720.0</ele><time>2026-04-28T12:35:56.326Z</time></trkpt><trkpt lat="43.827317" lon="16.9970126"><ele>720.0</ele><time>2026-04-28T12:35:57.326Z</time></trkpt><trkpt lat="43.8274159" lon="16.9970686"><ele>720.0</ele><time>2026-04-28T12:35:58.327Z</time></trkpt><trkpt lat="43.8275152" lon="16.9971219"><ele>720.0</ele><time>2026-04-28T12:35:59.326Z</time></trkpt><trkpt lat="43.8276141" lon="16.9971713"><ele>720.0</ele><time>2026-04-28T12:36:00.327Z</time></trkpt><trkpt lat="43.8277032" lon="16.9972232"><ele>721.2</ele><time>2026-04-28T12:36:01.327Z</time></trkpt><trkpt lat="43.8277981" lon="16.9972722"><ele>722.4</ele><time>2026-04-28T12:36:02.326Z</time></trkpt><trkpt lat="43.8278936" lon="16.9973206"><ele>723.5999999999999</ele><time>2026-04-28T12:36:03.326Z</time></trkpt><trkpt lat="43.8279887" lon="16.9973632"><ele>724.8</ele><time>2026-04-28T12:36:04.326Z</time></trkpt><trkpt lat="43.8280716" lon="16.997391"><ele>726.0</ele><time>2026-04-28T12:36:05.326Z</time></trkpt><trkpt lat="43.8281499" lon="16.9974169"><ele>725.9999999999999</ele><time>2026-04-28T12:36:06.326Z</time></trkpt><trkpt lat="43.8282226" lon="16.9974427"><ele>726.0</ele><time>2026-04-28T12:36:07.327Z</time></trkpt><trkpt lat="43.8283024" lon="16.9974592"><ele>726.0</ele><time>2026-04-28T12:36:08.327Z</time></trkpt><trkpt lat="43.8283719" lon="16.9974742"><ele>726.0</ele><time>2026-04-28T12:36:09.326Z</time></trkpt><trkpt lat="43.8284424" lon="16.9974888"><ele>726.0</ele><time>2026-04-28T12:36:10.327Z</time></trkpt><trkpt lat="43.8285209" lon="16.9974977"><ele>725.9999999999999</ele><time>2026-04-28T12:36:11.326Z</time></trkpt><trkpt lat="43.8285844" lon="16.9975006"><ele>726.0</ele><time>2026-04-28T12:36:12.326Z</time></trkpt><trkpt lat="43.8286791" lon="16.9974999"><ele>726.5</ele><time>2026-04-28T12:36:14.327Z</time></trkpt><trkpt lat="43.8287466" lon="16.9975012"><ele>727.0</ele><time>2026-04-28T12:36:17.326Z</time></trkpt><trkpt lat="43.8288151" lon="16.9975058"><ele>727.5</ele><time>2026-04-28T12:36:43.326Z</time></trkpt><trkpt lat="43.8289" lon="16.9975541"><ele>728.0</ele><time>2026-04-28T12:36:45.326Z</time></trkpt><trkpt lat="43.8289543" lon="16.9977041"><ele>728.5</ele><time>2026-04-28T12:36:47.326Z</time></trkpt><trkpt lat="43.8289693" lon="16.9978174"><ele>729.0</ele><time>2026-04-28T12:36:48.326Z</time></trkpt><trkpt lat="43.8289881" lon="16.9979449"><ele>729.0</ele><time>2026-04-28T12:36:49.326Z</time></trkpt><trkpt lat="43.8290121" lon="16.9980879"><ele>729.0</ele><time>2026-04-28T12:36:50.326Z</time></trkpt><trkpt lat="43.8290177" lon="16.9982377"><ele>729.0</ele><time>2026-04-28T12:36:51.327Z</time></trkpt><trkpt lat="43.8290396" lon="16.9984017"><ele>729.0</ele><time>2026-04-28T12:36:52.327Z</time></trkpt><trkpt lat="43.8290417" lon="16.9985616"><ele>729.0</ele><time>2026-04-28T12:36:53.326Z</time></trkpt><trkpt lat="43.8290481" lon="16.9987413"><ele>729.0</ele><time>2026-04-28T12:36:54.327Z</time></trkpt><trkpt lat="43.8290475" lon="16.9989263"><ele>729.0</ele><time>2026-04-28T12:36:55.326Z</time></trkpt><trkpt lat="43.8290322" lon="16.99912"><ele>729.0</ele><time>2026-04-28T12:36:56.326Z</time></trkpt><trkpt lat="43.8290264" lon="16.9993101"><ele>729.25</ele><time>2026-04-28T12:36:57.326Z</time></trkpt><trkpt lat="43.8290094" lon="16.9994975"><ele>729.5</ele><time>2026-04-28T12:36:58.327Z</time></trkpt><trkpt lat="43.8289934" lon="16.9996785"><ele>729.75</ele><time>2026-04-28T12:36:59.327Z</time></trkpt><trkpt lat="43.8289762" lon="16.9998661"><ele>730.0</ele><time>2026-04-28T12:37:00.326Z</time></trkpt><trkpt lat="43.8289494" lon="17.0000506"><ele>730.0</ele><time>2026-04-28T12:37:01.326Z</time></trkpt><trkpt lat="43.8289124" lon="17.0002506"><ele>730.0</ele><time>2026-04-28T12:37:02.327Z</time></trkpt><trkpt lat="43.8288699" lon="17.0004273"><ele>730.0</ele><time>2026-04-28T12:37:03.327Z</time></trkpt><trkpt lat="43.8288244" lon="17.00062"><ele>730.0</ele><time>2026-04-28T12:37:04.326Z</time></trkpt><trkpt lat="43.8287665" lon="17.0008084"><ele>731.0</ele><time>2026-04-28T12:37:05.327Z</time></trkpt><trkpt lat="43.8287181" lon="17.0010059"><ele>732.0</ele><time>2026-04-28T12:37:06.327Z</time></trkpt><trkpt lat="43.8286647" lon="17.0011889"><ele>733.0</ele><time>2026-04-28T12:37:07.326Z</time></trkpt><trkpt lat="43.8286122" lon="17.0013758"><ele>734.0</ele><time>2026-04-28T12:37:08.327Z</time></trkpt><trkpt lat="43.8285425" lon="17.0015669"><ele>733.0</ele><time>2026-04-28T12:37:09.327Z</time></trkpt><trkpt lat="43.8284707" lon="17.0017703"><ele>732.0</ele><time>2026-04-28T12:37:10.327Z</time></trkpt><trkpt lat="43.828399" lon="17.001967"><ele>731.0</ele><time>2026-04-28T12:37:11.326Z</time></trkpt><trkpt lat="43.8283342" lon="17.0021568"><ele>731.0</ele><time>2026-04-28T12:37:12.326Z</time></trkpt><trkpt lat="43.8282621" lon="17.002339"><ele>731.0</ele><time>2026-04-28T12:37:13.327Z</time></trkpt><trkpt lat="43.8281978" lon="17.0024968"><ele>731.0</ele><time>2026-04-28T12:37:14.326Z</time></trkpt><trkpt lat="43.8281329" lon="17.0026577"><ele>731.0</ele><time>2026-04-28T12:37:15.326Z</time></trkpt><trkpt lat="43.8280602" lon="17.0028029"><ele>731.25</ele><time>2026-04-28T12:37:16.324Z</time></trkpt><trkpt lat="43.8279943" lon="17.0029428"><ele>731.5</ele><time>2026-04-28T12:37:17.326Z</time></trkpt><trkpt lat="43.8279268" lon="17.0030796"><ele>731.75</ele><time>2026-04-28T12:37:18.326Z</time></trkpt><trkpt lat="43.8278554" lon="17.0032164"><ele>732.0</ele><time>2026-04-28T12:37:19.326Z</time></trkpt><trkpt lat="43.8278082" lon="17.0033223"><ele>731.3333333333334</ele><time>2026-04-28T12:37:20.326Z</time></trkpt><trkpt lat="43.827761" lon="17.0034327"><ele>730.6666666666666</ele><time>2026-04-28T12:37:21.327Z</time></trkpt><trkpt lat="43.8277093" lon="17.0035221"><ele>730.0</ele><time>2026-04-28T12:37:22.326Z</time></trkpt><trkpt lat="43.8276709" lon="17.0036061"><ele>729.3333333333333</ele><time>2026-04-28T12:37:23.326Z</time></trkpt><trkpt lat="43.8276224" lon="17.0036822"><ele>728.6666666666666</ele><time>2026-04-28T12:37:24.326Z</time></trkpt><trkpt lat="43.827568" lon="17.0037767"><ele>728.0</ele><time>2026-04-28T12:37:25.327Z</time></trkpt><trkpt lat="43.8275145" lon="17.0038724"><ele>727.8333333333333</ele><time>2026-04-28T12:37:26.327Z</time></trkpt><trkpt lat="43.8274621" lon="17.0039576"><ele>727.6666666666666</ele><time>2026-04-28T12:37:27.326Z</time></trkpt><trkpt lat="43.8274064" lon="17.0040485"><ele>727.5</ele><time>2026-04-28T12:37:28.326Z</time></trkpt><trkpt lat="43.8273479" lon="17.0041325"><ele>727.3333333333334</ele><time>2026-04-28T12:37:29.326Z</time></trkpt><trkpt lat="43.8272998" lon="17.0041949"><ele>727.1666666666667</ele><time>2026-04-28T12:37:30.326Z</time></trkpt><trkpt lat="43.8272419" lon="17.004252"><ele>727.0</ele><time>2026-04-28T12:37:31.327Z</time></trkpt><trkpt lat="43.8271679" lon="17.0042755"><ele>727.0</ele><time>2026-04-28T12:37:32.326Z</time></trkpt><trkpt lat="43.8271025" lon="17.0043083"><ele>727.0</ele><time>2026-04-28T12:37:33.326Z</time></trkpt><trkpt lat="43.8270185" lon="17.0043275"><ele>727.0</ele><time>2026-04-28T12:37:34.326Z</time></trkpt><trkpt lat="43.8269422" lon="17.0043426"><ele>727.0</ele><time>2026-04-28T12:37:35.326Z</time></trkpt><trkpt lat="43.8268672" lon="17.0043609"><ele>727.0</ele><time>2026-04-28T12:37:36.326Z</time></trkpt><trkpt lat="43.8267941" lon="17.004363"><ele>727.0</ele><time>2026-04-28T12:37:37.326Z</time></trkpt><trkpt lat="43.8267113" lon="17.0043731"><ele>727.0</ele><time>2026-04-28T12:37:38.326Z</time></trkpt><trkpt lat="43.8266222" lon="17.0043067"><ele>727.0</ele><time>2026-04-28T12:37:39.326Z</time></trkpt><trkpt lat="43.8265462" lon="17.0043005"><ele>727.0</ele><time>2026-04-28T12:37:40.326Z</time></trkpt><trkpt lat="43.8264773" lon="17.0042779"><ele>727.0</ele><time>2026-04-28T12:37:41.326Z</time></trkpt><trkpt lat="43.826406" lon="17.004279"><ele>727.0</ele><time>2026-04-28T12:37:42.326Z</time></trkpt><trkpt lat="43.8263242" lon="17.0042691"><ele>727.0</ele><time>2026-04-28T12:37:43.326Z</time></trkpt><trkpt lat="43.8262379" lon="17.004272"><ele>727.0</ele><time>2026-04-28T12:37:45.326Z</time></trkpt><trkpt lat="43.8261827" lon="17.0043186"><ele>727.0</ele><time>2026-04-28T12:37:47.326Z</time></trkpt><trkpt lat="43.8261359" lon="17.0043815"><ele>727.0</ele><time>2026-04-28T12:37:49.326Z</time></trkpt><trkpt lat="43.8260749" lon="17.004466"><ele>727.0</ele><time>2026-04-28T12:37:51.326Z</time></trkpt><trkpt lat="43.8260067" lon="17.0045915"><ele>727.0</ele><time>2026-04-28T12:37:53.326Z</time></trkpt><trkpt lat="43.8259369" lon="17.0047267"><ele>727.0</ele><time>2026-04-28T12:37:55.327Z</time></trkpt><trkpt lat="43.8258986" lon="17.0047982"><ele>726.4000000000001</ele><time>2026-04-28T12:37:56.326Z</time></trkpt><trkpt lat="43.8258185" lon="17.0049178"><ele>725.8000000000001</ele><time>2026-04-28T12:37:58.326Z</time></trkpt><trkpt lat="43.8257243" lon="17.0050459"><ele>725.2</ele><time>2026-04-28T12:38:00.326Z</time></trkpt><trkpt lat="43.8256759" lon="17.0051186"><ele>724.6</ele><time>2026-04-28T12:38:01.326Z</time></trkpt><trkpt lat="43.8256209" lon="17.0051981"><ele>724.0</ele><time>2026-04-28T12:38:02.327Z</time></trkpt><trkpt lat="43.8255693" lon="17.0052788"><ele>725.0</ele><time>2026-04-28T12:38:03.326Z</time></trkpt><trkpt lat="43.8255275" lon="17.0053541"><ele>726.0</ele><time>2026-04-28T12:38:04.327Z</time></trkpt><trkpt lat="43.8254858" lon="17.0054309"><ele>727.0</ele><time>2026-04-28T12:38:05.326Z</time></trkpt><trkpt lat="43.8254489" lon="17.0055116"><ele>728.0</ele><time>2026-04-28T12:38:06.326Z</time></trkpt><trkpt lat="43.8254132" lon="17.0055949"><ele>729.0</ele><time>2026-04-28T12:38:07.327Z</time></trkpt><trkpt lat="43.8253463" lon="17.0057275"><ele>730.0</ele><time>2026-04-28T12:38:09.326Z</time></trkpt><trkpt lat="43.82529" lon="17.0058602"><ele>730.0</ele><time>2026-04-28T12:38:11.326Z</time></trkpt><trkpt lat="43.8252527" lon="17.0059355"><ele>730.0</ele><time>2026-04-28T12:38:12.326Z</time></trkpt><trkpt lat="43.8252002" lon="17.0060856"><ele>730.0</ele><time>2026-04-28T12:38:14.327Z</time></trkpt><trkpt lat="43.8251864" lon="17.0061766"><ele>730.0</ele><time>2026-04-28T12:38:15.326Z</time></trkpt><trkpt lat="43.8251471" lon="17.0063184"><ele>730.0</ele><time>2026-04-28T12:38:17.326Z</time></trkpt><trkpt lat="43.8251094" lon="17.0064718"><ele>730.0</ele><time>2026-04-28T12:38:19.326Z</time></trkpt><trkpt lat="43.8250828" lon="17.0065631"><ele>730.0</ele><time>2026-04-28T12:38:20.326Z</time></trkpt><trkpt lat="43.8250552" lon="17.0066503"><ele>730.0</ele><time>2026-04-28T12:38:21.327Z</time></trkpt><trkpt lat="43.8250275" lon="17.0067401"><ele>730.0</ele><time>2026-04-28T12:38:22.326Z</time></trkpt><trkpt lat="43.8249803" lon="17.0069017"><ele>730.0</ele><time>2026-04-28T12:38:24.326Z</time></trkpt><trkpt lat="43.824957" lon="17.0069899"><ele>730.0</ele><time>2026-04-28T12:38:26.327Z</time></trkpt><trkpt lat="43.8249313" lon="17.0070741"><ele>730.2</ele><time>2026-04-28T12:38:29.327Z</time></trkpt><trkpt lat="43.8248898" lon="17.0071842"><ele>730.4</ele><time>2026-04-28T12:38:32.326Z</time></trkpt><trkpt lat="43.8248505" lon="17.0073207"><ele>730.5999999999999</ele><time>2026-04-28T12:38:34.327Z</time></trkpt><trkpt lat="43.8248234" lon="17.0074026"><ele>730.8</ele><time>2026-04-28T12:38:35.326Z</time></trkpt><trkpt lat="43.824784" lon="17.0075624"><ele>731.0</ele><time>2026-04-28T12:38:37.327Z</time></trkpt><trkpt lat="43.8247422" lon="17.0077187"><ele>731.5</ele><time>2026-04-28T12:38:39.326Z</time></trkpt><trkpt lat="43.8247099" lon="17.0077963"><ele>732.0</ele><time>2026-04-28T12:38:40.326Z</time></trkpt><trkpt lat="43.8246878" lon="17.0078796"><ele>732.5</ele><time>2026-04-28T12:38:41.326Z</time></trkpt><trkpt lat="43.8246535" lon="17.0080074"><ele>733.0</ele><time>2026-04-28T12:38:43.326Z</time></trkpt><trkpt lat="43.8246235" lon="17.0080975"><ele>733.5</ele><time>2026-04-28T12:38:45.327Z</time></trkpt><trkpt lat="43.8245798" lon="17.0081786"><ele>734.0</ele><time>2026-04-28T12:38:48.326Z</time></trkpt><trkpt lat="43.8245429" lon="17.0082931"><ele>734.8333333333333</ele><time>2026-04-28T12:38:51.326Z</time></trkpt><trkpt lat="43.8244856" lon="17.0084226"><ele>735.6666666666666</ele><time>2026-04-28T12:38:53.326Z</time></trkpt><trkpt lat="43.8244426" lon="17.0085737"><ele>736.5</ele><time>2026-04-28T12:38:55.327Z</time></trkpt><trkpt lat="43.8244218" lon="17.008664"><ele>737.3333333333334</ele><time>2026-04-28T12:38:56.326Z</time></trkpt><trkpt lat="43.824401" lon="17.0087464"><ele>738.1666666666667</ele><time>2026-04-28T12:38:57.326Z</time></trkpt><trkpt lat="43.8243708" lon="17.0088395"><ele>739.0</ele><time>2026-04-28T12:38:58.326Z</time></trkpt><trkpt lat="43.8243444" lon="17.0089274"><ele>738.8571428571429</ele><time>2026-04-28T12:38:59.327Z</time></trkpt><trkpt lat="43.8243097" lon="17.0090342"><ele>738.7142857142858</ele><time>2026-04-28T12:39:00.326Z</time></trkpt><trkpt lat="43.8242806" lon="17.0091316"><ele>738.5714285714286</ele><time>2026-04-28T12:39:01.326Z</time></trkpt><trkpt lat="43.8242501" lon="17.0092173"><ele>738.4285714285714</ele><time>2026-04-28T12:39:02.326Z</time></trkpt><trkpt lat="43.8242154" lon="17.0092962"><ele>738.2857142857142</ele><time>2026-04-28T12:39:03.326Z</time></trkpt><trkpt lat="43.8241897" lon="17.0093779"><ele>738.1428571428571</ele><time>2026-04-28T12:39:04.326Z</time></trkpt><trkpt lat="43.8241527" lon="17.0094691"><ele>738.0</ele><time>2026-04-28T12:39:05.326Z</time></trkpt><trkpt lat="43.8241207" lon="17.0096148"><ele>738.8333333333334</ele><time>2026-04-28T12:39:07.327Z</time></trkpt><trkpt lat="43.8240869" lon="17.0097145"><ele>739.6666666666666</ele><time>2026-04-28T12:39:09.326Z</time></trkpt><trkpt lat="43.8240565" lon="17.0097992"><ele>740.5</ele><time>2026-04-28T12:39:13.326Z</time></trkpt><trkpt lat="43.8240349" lon="17.0098933"><ele>741.3333333333333</ele><time>2026-04-28T12:39:15.326Z</time></trkpt><trkpt lat="43.8239885" lon="17.0100555"><ele>742.1666666666666</ele><time>2026-04-28T12:39:17.326Z</time></trkpt><trkpt lat="43.8239517" lon="17.01014"><ele>743.0</ele><time>2026-04-28T12:39:18.326Z</time></trkpt><trkpt lat="43.8239275" lon="17.0102375"><ele>743.5714285714286</ele><time>2026-04-28T12:39:19.326Z</time></trkpt><trkpt lat="43.8239002" lon="17.0103288"><ele>744.1428571428571</ele><time>2026-04-28T12:39:20.326Z</time></trkpt><trkpt lat="43.8238606" lon="17.0104187"><ele>744.7142857142857</ele><time>2026-04-28T12:39:21.326Z</time></trkpt><trkpt lat="43.8238226" lon="17.0105002"><ele>745.2857142857142</ele><time>2026-04-28T12:39:22.327Z</time></trkpt><trkpt lat="43.8237692" lon="17.0105802"><ele>745.8571428571429</ele><time>2026-04-28T12:39:23.326Z</time></trkpt><trkpt lat="43.8237127" lon="17.0106412"><ele>746.4285714285713</ele><time>2026-04-28T12:39:24.327Z</time></trkpt><trkpt lat="43.8236451" lon="17.0107029"><ele>747.0</ele><time>2026-04-28T12:39:25.326Z</time></trkpt><trkpt lat="43.8235641" lon="17.0107668"><ele>747.4000000000001</ele><time>2026-04-28T12:39:26.326Z</time></trkpt><trkpt lat="43.8234818" lon="17.0108377"><ele>747.8000000000001</ele><time>2026-04-28T12:39:27.326Z</time></trkpt><trkpt lat="43.8233934" lon="17.0109068"><ele>748.2</ele><time>2026-04-28T12:39:28.326Z</time></trkpt><trkpt lat="43.8233132" lon="17.0109608"><ele>748.6</ele><time>2026-04-28T12:39:29.327Z</time></trkpt><trkpt lat="43.8232276" lon="17.0110341"><ele>749.0</ele><time>2026-04-28T12:39:30.326Z</time></trkpt><trkpt lat="43.8231407" lon="17.0111108"><ele>749.0</ele><time>2026-04-28T12:39:31.326Z</time></trkpt><trkpt lat="43.8230542" lon="17.0111905"><ele>749.0</ele><time>2026-04-28T12:39:32.326Z</time></trkpt><trkpt lat="43.8229634" lon="17.011281"><ele>749.0</ele><time>2026-04-28T12:39:33.327Z</time></trkpt><trkpt lat="43.8228749" lon="17.0113741"><ele>749.0</ele><time>2026-04-28T12:39:34.326Z</time></trkpt><trkpt lat="43.8227944" lon="17.0114772"><ele>749.0</ele><time>2026-04-28T12:39:35.326Z</time></trkpt><trkpt lat="43.8227187" lon="17.0115773"><ele>748.8000000000001</ele><time>2026-04-28T12:39:36.326Z</time></trkpt><trkpt lat="43.8226456" lon="17.0116816"><ele>748.6</ele><time>2026-04-28T12:39:37.326Z</time></trkpt><trkpt lat="43.8225722" lon="17.0117877"><ele>748.4</ele><time>2026-04-28T12:39:38.327Z</time></trkpt><trkpt lat="43.8224971" lon="17.0118919"><ele>748.2</ele><time>2026-04-28T12:39:39.327Z</time></trkpt><trkpt lat="43.8224216" lon="17.0120007"><ele>748.0</ele><time>2026-04-28T12:39:40.326Z</time></trkpt><trkpt lat="43.8223462" lon="17.0121105"><ele>748.0</ele><time>2026-04-28T12:39:41.327Z</time></trkpt><trkpt lat="43.822268" lon="17.0122317"><ele>748.0</ele><time>2026-04-28T12:39:42.326Z</time></trkpt><trkpt lat="43.8221984" lon="17.0123515"><ele>748.0</ele><time>2026-04-28T12:39:43.326Z</time></trkpt><trkpt lat="43.8221242" lon="17.0124854"><ele>748.0</ele><time>2026-04-28T12:39:44.327Z</time></trkpt><trkpt lat="43.8220538" lon="17.0126406"><ele>749.25</ele><time>2026-04-28T12:39:45.326Z</time></trkpt><trkpt lat="43.8219966" lon="17.0127896"><ele>750.5</ele><time>2026-04-28T12:39:46.326Z</time></trkpt><trkpt lat="43.8219383" lon="17.0129321"><ele>751.75</ele><time>2026-04-28T12:39:47.327Z</time></trkpt><trkpt lat="43.8218789" lon="17.0130748"><ele>753.0</ele><time>2026-04-28T12:39:48.327Z</time></trkpt><trkpt lat="43.8218245" lon="17.013227"><ele>752.8333333333334</ele><time>2026-04-28T12:39:49.326Z</time></trkpt><trkpt lat="43.8217628" lon="17.0133686"><ele>752.6666666666666</ele><time>2026-04-28T12:39:50.327Z</time></trkpt><trkpt lat="43.8217213" lon="17.0134837"><ele>752.5</ele><time>2026-04-28T12:39:51.326Z</time></trkpt><trkpt lat="43.8216686" lon="17.013588"><ele>752.3333333333333</ele><time>2026-04-28T12:39:52.327Z</time></trkpt><trkpt lat="43.8216172" lon="17.013657"><ele>752.1666666666666</ele><time>2026-04-28T12:39:53.327Z</time></trkpt><trkpt lat="43.8215546" lon="17.0137057"><ele>752.0</ele><time>2026-04-28T12:39:54.326Z</time></trkpt><trkpt lat="43.8214426" lon="17.0137159"><ele>752.0</ele><time>2026-04-28T12:39:56.326Z</time></trkpt><trkpt lat="43.8213355" lon="17.0137355"><ele>752.0</ele><time>2026-04-28T12:39:58.326Z</time></trkpt><trkpt lat="43.8212415" lon="17.0138295"><ele>752.0</ele><time>2026-04-28T12:40:00.326Z</time></trkpt><trkpt lat="43.82123" lon="17.0139949"><ele>752.0</ele><time>2026-04-28T12:40:02.326Z</time></trkpt><trkpt lat="43.8212508" lon="17.0140865"><ele>752.0</ele><time>2026-04-28T12:40:03.326Z</time></trkpt><trkpt lat="43.8212729" lon="17.0141849"><ele>752.8</ele><time>2026-04-28T12:40:04.327Z</time></trkpt><trkpt lat="43.8212784" lon="17.0142949"><ele>753.6</ele><time>2026-04-28T12:40:05.327Z</time></trkpt><trkpt lat="43.8212706" lon="17.0144115"><ele>754.4</ele><time>2026-04-28T12:40:06.326Z</time></trkpt><trkpt lat="43.8212562" lon="17.0145376"><ele>755.1999999999999</ele><time>2026-04-28T12:40:07.326Z</time></trkpt><trkpt lat="43.8212334" lon="17.0146793"><ele>756.0</ele><time>2026-04-28T12:40:08.326Z</time></trkpt><trkpt lat="43.8211992" lon="17.0148202"><ele>756.0</ele><time>2026-04-28T12:40:09.326Z</time></trkpt><trkpt lat="43.8211634" lon="17.0149632"><ele>756.0</ele><time>2026-04-28T12:40:10.326Z</time></trkpt><trkpt lat="43.8211166" lon="17.0151109"><ele>756.0</ele><time>2026-04-28T12:40:11.326Z</time></trkpt><trkpt lat="43.8210546" lon="17.0152698"><ele>756.0</ele><time>2026-04-28T12:40:12.327Z</time></trkpt><trkpt lat="43.8209923" lon="17.0154224"><ele>756.0</ele><time>2026-04-28T12:40:13.326Z</time></trkpt><trkpt lat="43.8209273" lon="17.0155759"><ele>756.0</ele><time>2026-04-28T12:40:14.326Z</time></trkpt><trkpt lat="43.820856" lon="17.0157263"><ele>756.0</ele><time>2026-04-28T12:40:15.326Z</time></trkpt><trkpt lat="43.8207893" lon="17.0158664"><ele>756.0</ele><time>2026-04-28T12:40:16.326Z</time></trkpt><trkpt lat="43.8207343" lon="17.0159776"><ele>756.0</ele><time>2026-04-28T12:40:17.326Z</time></trkpt><trkpt lat="43.8206801" lon="17.0160904"><ele>756.0</ele><time>2026-04-28T12:40:18.326Z</time></trkpt><trkpt lat="43.8206241" lon="17.0162039"><ele>756.0</ele><time>2026-04-28T12:40:19.327Z</time></trkpt><trkpt lat="43.820573" lon="17.0163103"><ele>756.0</ele><time>2026-04-28T12:40:20.326Z</time></trkpt><trkpt lat="43.8205174" lon="17.0164181"><ele>756.0</ele><time>2026-04-28T12:40:21.326Z</time></trkpt><trkpt lat="43.8204612" lon="17.016529"><ele>756.0</ele><time>2026-04-28T12:40:22.327Z</time></trkpt><trkpt lat="43.820412" lon="17.016634"><ele>756.0</ele><time>2026-04-28T12:40:23.327Z</time></trkpt><trkpt lat="43.8203561" lon="17.016754"><ele>756.0</ele><time>2026-04-28T12:40:24.326Z</time></trkpt><trkpt lat="43.8203017" lon="17.0168759"><ele>756.0</ele><time>2026-04-28T12:40:25.327Z</time></trkpt><trkpt lat="43.8202377" lon="17.0170105"><ele>756.0</ele><time>2026-04-28T12:40:26.326Z</time></trkpt><trkpt lat="43.8201763" lon="17.0171471"><ele>756.0</ele><time>2026-04-28T12:40:27.326Z</time></trkpt><trkpt lat="43.8201137" lon="17.0172812"><ele>756.0</ele><time>2026-04-28T12:40:28.326Z</time></trkpt><trkpt lat="43.8200435" lon="17.0174192"><ele>756.0</ele><time>2026-04-28T12:40:29.326Z</time></trkpt><trkpt lat="43.8199689" lon="17.0175647"><ele>756.0</ele><time>2026-04-28T12:40:30.327Z</time></trkpt><trkpt lat="43.8198957" lon="17.0177065"><ele>756.0</ele><time>2026-04-28T12:40:31.326Z</time></trkpt><trkpt lat="43.8198212" lon="17.0178525"><ele>756.0</ele><time>2026-04-28T12:40:32.327Z</time></trkpt><trkpt lat="43.8197401" lon="17.0179959"><ele>756.0</ele><time>2026-04-28T12:40:33.327Z</time></trkpt><trkpt lat="43.8196582" lon="17.0181424"><ele>756.0</ele><time>2026-04-28T12:40:34.326Z</time></trkpt><trkpt lat="43.8195906" lon="17.018302"><ele>757.25</ele><time>2026-04-28T12:40:35.326Z</time></trkpt><trkpt lat="43.8195327" lon="17.0184825"><ele>758.5</ele><time>2026-04-28T12:40:36.326Z</time></trkpt><trkpt lat="43.819475" lon="17.0186632"><ele>759.75</ele><time>2026-04-28T12:40:37.326Z</time></trkpt><trkpt lat="43.8194152" lon="17.0188455"><ele>761.0</ele><time>2026-04-28T12:40:38.326Z</time></trkpt><trkpt lat="43.8193552" lon="17.0190348"><ele>764.0</ele><time>2026-04-28T12:40:39.326Z</time></trkpt><trkpt lat="43.8192896" lon="17.0192246"><ele>767.0</ele><time>2026-04-28T12:40:40.326Z</time></trkpt><trkpt lat="43.8192261" lon="17.0194139"><ele>770.0</ele><time>2026-04-28T12:40:41.327Z</time></trkpt><trkpt lat="43.8191642" lon="17.0196054"><ele>770.0</ele><time>2026-04-28T12:40:42.327Z</time></trkpt><trkpt lat="43.8191035" lon="17.0197972"><ele>770.0</ele><time>2026-04-28T12:40:43.326Z</time></trkpt><trkpt lat="43.8190373" lon="17.019989"><ele>770.0</ele><time>2026-04-28T12:40:44.326Z</time></trkpt><trkpt lat="43.8189603" lon="17.020178"><ele>771.3333333333334</ele><time>2026-04-28T12:40:45.327Z</time></trkpt><trkpt lat="43.8188838" lon="17.0203552"><ele>772.6666666666667</ele><time>2026-04-28T12:40:46.327Z</time></trkpt><trkpt lat="43.8188045" lon="17.0205385"><ele>774.0</ele><time>2026-04-28T12:40:47.327Z</time></trkpt><trkpt lat="43.8187271" lon="17.0207211"><ele>774.3333333333333</ele><time>2026-04-28T12:40:48.326Z</time></trkpt><trkpt lat="43.8186462" lon="17.0209068"><ele>774.6666666666666</ele><time>2026-04-28T12:40:49.326Z</time></trkpt><trkpt lat="43.8185653" lon="17.0210905"><ele>775.0</ele><time>2026-04-28T12:40:50.327Z</time></trkpt><trkpt lat="43.8184855" lon="17.0212676"><ele>777.0</ele><time>2026-04-28T12:40:51.327Z</time></trkpt><trkpt lat="43.8184108" lon="17.0214262"><ele>779.0</ele><time>2026-04-28T12:40:52.326Z</time></trkpt><trkpt lat="43.8183436" lon="17.0215761"><ele>781.0</ele><time>2026-04-28T12:40:53.327Z</time></trkpt><trkpt lat="43.8182728" lon="17.0217286"><ele>783.0</ele><time>2026-04-28T12:40:54.326Z</time></trkpt><trkpt lat="43.8182084" lon="17.0218755"><ele>783.0</ele><time>2026-04-28T12:40:55.326Z</time></trkpt><trkpt lat="43.8181469" lon="17.0220362"><ele>783.0</ele><time>2026-04-28T12:40:56.326Z</time></trkpt><trkpt lat="43.8180901" lon="17.0221917"><ele>783.0</ele><time>2026-04-28T12:40:57.326Z</time></trkpt><trkpt lat="43.8180359" lon="17.0223321"><ele>783.0</ele><time>2026-04-28T12:40:58.326Z</time></trkpt><trkpt lat="43.8179883" lon="17.0224772"><ele>784.25</ele><time>2026-04-28T12:40:59.326Z</time></trkpt><trkpt lat="43.8179363" lon="17.0226257"><ele>785.5</ele><time>2026-04-28T12:41:00.326Z</time></trkpt><trkpt lat="43.8178859" lon="17.0227776"><ele>786.75</ele><time>2026-04-28T12:41:01.326Z</time></trkpt><trkpt lat="43.8178374" lon="17.0229295"><ele>788.0</ele><time>2026-04-28T12:41:02.326Z</time></trkpt><trkpt lat="43.817783" lon="17.0230858"><ele>788.0</ele><time>2026-04-28T12:41:03.326Z</time></trkpt><trkpt lat="43.8177251" lon="17.0232357"><ele>788.0</ele><time>2026-04-28T12:41:04.326Z</time></trkpt><trkpt lat="43.8176733" lon="17.0233555"><ele>788.0</ele><time>2026-04-28T12:41:05.327Z</time></trkpt><trkpt lat="43.8176294" lon="17.0234568"><ele>788.0</ele><time>2026-04-28T12:41:06.326Z</time></trkpt><trkpt lat="43.8175765" lon="17.02354"><ele>788.0</ele><time>2026-04-28T12:41:07.326Z</time></trkpt><trkpt lat="43.8175202" lon="17.0236001"><ele>788.2</ele><time>2026-04-28T12:41:08.326Z</time></trkpt><trkpt lat="43.8174645" lon="17.0236599"><ele>788.4</ele><time>2026-04-28T12:41:09.326Z</time></trkpt><trkpt lat="43.8174048" lon="17.023787"><ele>788.6</ele><time>2026-04-28T12:41:11.327Z</time></trkpt><trkpt lat="43.8174391" lon="17.0239232"><ele>788.8000000000001</ele><time>2026-04-28T12:41:13.326Z</time></trkpt><trkpt lat="43.8175457" lon="17.0240281"><ele>789.0</ele><time>2026-04-28T12:41:15.327Z</time></trkpt><trkpt lat="43.8176013" lon="17.0241078"><ele>789.4000000000001</ele><time>2026-04-28T12:41:16.326Z</time></trkpt><trkpt lat="43.8176456" lon="17.0242107"><ele>789.8</ele><time>2026-04-28T12:41:17.326Z</time></trkpt><trkpt lat="43.8176854" lon="17.0243277"><ele>790.2</ele><time>2026-04-28T12:41:18.326Z</time></trkpt><trkpt lat="43.8177172" lon="17.0244546"><ele>790.5999999999999</ele><time>2026-04-28T12:41:19.326Z</time></trkpt><trkpt lat="43.81775" lon="17.0245942"><ele>791.0</ele><time>2026-04-28T12:41:20.326Z</time></trkpt><trkpt lat="43.8177742" lon="17.0247597"><ele>792.0</ele><time>2026-04-28T12:41:21.326Z</time></trkpt><trkpt lat="43.8177983" lon="17.0249315"><ele>793.0</ele><time>2026-04-28T12:41:22.326Z</time></trkpt><trkpt lat="43.8178274" lon="17.0251184"><ele>794.0</ele><time>2026-04-28T12:41:23.326Z</time></trkpt><trkpt lat="43.8178595" lon="17.0253099"><ele>795.0</ele><time>2026-04-28T12:41:24.326Z</time></trkpt><trkpt lat="43.8178871" lon="17.0255133"><ele>796.6666666666667</ele><time>2026-04-28T12:41:25.327Z</time></trkpt><trkpt lat="43.8179154" lon="17.0257187"><ele>798.3333333333334</ele><time>2026-04-28T12:41:26.326Z</time></trkpt><trkpt lat="43.8179311" lon="17.0259322"><ele>800.0</ele><time>2026-04-28T12:41:27.326Z</time></trkpt><trkpt lat="43.8179525" lon="17.0261346"><ele>801.6666666666667</ele><time>2026-04-28T12:41:28.327Z</time></trkpt><trkpt lat="43.8179652" lon="17.0263551"><ele>803.3333333333333</ele><time>2026-04-28T12:41:29.327Z</time></trkpt><trkpt lat="43.8179737" lon="17.0265792"><ele>805.0</ele><time>2026-04-28T12:41:30.326Z</time></trkpt><trkpt lat="43.8179678" lon="17.0268138"><ele>807.0</ele><time>2026-04-28T12:41:31.326Z</time></trkpt><trkpt lat="43.8179498" lon="17.0270612"><ele>809.0</ele><time>2026-04-28T12:41:32.326Z</time></trkpt><trkpt lat="43.8179172" lon="17.0273068"><ele>811.0</ele><time>2026-04-28T12:41:33.327Z</time></trkpt><trkpt lat="43.8178768" lon="17.0275581"><ele>813.0</ele><time>2026-04-28T12:41:34.326Z</time></trkpt><trkpt lat="43.8178284" lon="17.0278157"><ele>815.0</ele><time>2026-04-28T12:41:35.326Z</time></trkpt><trkpt lat="43.8177691" lon="17.0280715"><ele>817.0</ele><time>2026-04-28T12:41:36.326Z</time></trkpt><trkpt lat="43.8176951" lon="17.0283233"><ele>815.3333333333333</ele><time>2026-04-28T12:41:37.326Z</time></trkpt><trkpt lat="43.8176104" lon="17.0285768"><ele>813.6666666666667</ele><time>2026-04-28T12:41:38.326Z</time></trkpt><trkpt lat="43.8175188" lon="17.0288228"><ele>812.0</ele><time>2026-04-28T12:41:39.327Z</time></trkpt><trkpt lat="43.8174209" lon="17.0290608"><ele>815.6666666666667</ele><time>2026-04-28T12:41:40.327Z</time></trkpt><trkpt lat="43.8173024" lon="17.0293106"><ele>819.3333333333333</ele><time>2026-04-28T12:41:41.327Z</time></trkpt><trkpt lat="43.8171808" lon="17.0295527"><ele>823.0</ele><time>2026-04-28T12:41:42.327Z</time></trkpt><trkpt lat="43.8170393" lon="17.0297867"><ele>825.0</ele><time>2026-04-28T12:41:43.327Z</time></trkpt><trkpt lat="43.8168913" lon="17.0300234"><ele>827.0</ele><time>2026-04-28T12:41:44.326Z</time></trkpt><trkpt lat="43.8167423" lon="17.0302548"><ele>827.0</ele><time>2026-04-28T12:41:45.326Z</time></trkpt><trkpt lat="43.8165856" lon="17.030484"><ele>827.0</ele><time>2026-04-28T12:41:46.326Z</time></trkpt><trkpt lat="43.8164221" lon="17.0307092"><ele>832.0</ele><time>2026-04-28T12:41:47.326Z</time></trkpt><trkpt lat="43.8162523" lon="17.0309392"><ele>837.0</ele><time>2026-04-28T12:41:48.326Z</time></trkpt><trkpt lat="43.8160796" lon="17.0311627"><ele>832.5</ele><time>2026-04-28T12:41:49.326Z</time></trkpt><trkpt lat="43.8159034" lon="17.0313845"><ele>828.0</ele><time>2026-04-28T12:41:50.326Z</time></trkpt><trkpt lat="43.8157402" lon="17.0315899"><ele>831.6666666666667</ele><time>2026-04-28T12:41:51.327Z</time></trkpt><trkpt lat="43.8155804" lon="17.0317894"><ele>835.3333333333334</ele><time>2026-04-28T12:41:52.327Z</time></trkpt><trkpt lat="43.8154341" lon="17.0319734"><ele>839.0</ele><time>2026-04-28T12:41:53.326Z</time></trkpt><trkpt lat="43.815292" lon="17.0321636"><ele>840.6666666666667</ele><time>2026-04-28T12:41:54.326Z</time></trkpt><trkpt lat="43.8151489" lon="17.0323658"><ele>842.3333333333333</ele><time>2026-04-28T12:41:55.326Z</time></trkpt><trkpt lat="43.8150063" lon="17.0325798"><ele>844.0</ele><time>2026-04-28T12:41:56.326Z</time></trkpt><trkpt lat="43.8148712" lon="17.0327877"><ele>844.0</ele><time>2026-04-28T12:41:57.327Z</time></trkpt><trkpt lat="43.8147403" lon="17.0330125"><ele>844.0</ele><time>2026-04-28T12:41:58.327Z</time></trkpt><trkpt lat="43.8146123" lon="17.0332453"><ele>844.0</ele><time>2026-04-28T12:41:59.327Z</time></trkpt><trkpt lat="43.8144902" lon="17.0334797"><ele>845.0</ele><time>2026-04-28T12:42:00.326Z</time></trkpt><trkpt lat="43.8143707" lon="17.033712"><ele>846.0</ele><time>2026-04-28T12:42:01.326Z</time></trkpt><trkpt lat="43.8142599" lon="17.0339535"><ele>847.0</ele><time>2026-04-28T12:42:02.326Z</time></trkpt><trkpt lat="43.814151" lon="17.0342005"><ele>850.0</ele><time>2026-04-28T12:42:03.327Z</time></trkpt><trkpt lat="43.8140494" lon="17.0344506"><ele>853.0</ele><time>2026-04-28T12:42:04.327Z</time></trkpt><trkpt lat="43.8139475" lon="17.0347013"><ele>856.0</ele><time>2026-04-28T12:42:05.326Z</time></trkpt><trkpt lat="43.8138522" lon="17.0349532"><ele>858.3333333333333</ele><time>2026-04-28T12:42:06.323Z</time></trkpt><trkpt lat="43.8137601" lon="17.0352058"><ele>860.6666666666667</ele><time>2026-04-28T12:42:07.327Z</time></trkpt><trkpt lat="43.8136719" lon="17.0354652"><ele>863.0</ele><time>2026-04-28T12:42:08.326Z</time></trkpt><trkpt lat="43.8135813" lon="17.0357314"><ele>862.6666666666667</ele><time>2026-04-28T12:42:09.327Z</time></trkpt><trkpt lat="43.8134884" lon="17.035993"><ele>862.3333333333333</ele><time>2026-04-28T12:42:10.326Z</time></trkpt><trkpt lat="43.8133968" lon="17.036259"><ele>862.0</ele><time>2026-04-28T12:42:11.327Z</time></trkpt><trkpt lat="43.8133049" lon="17.0365232"><ele>864.3333333333333</ele><time>2026-04-28T12:42:12.326Z</time></trkpt><trkpt lat="43.8132179" lon="17.0367925"><ele>866.6666666666667</ele><time>2026-04-28T12:42:13.326Z</time></trkpt><trkpt lat="43.8131303" lon="17.0370647"><ele>869.0</ele><time>2026-04-28T12:42:14.326Z</time></trkpt><trkpt lat="43.8130459" lon="17.0373452"><ele>872.3333333333334</ele><time>2026-04-28T12:42:15.326Z</time></trkpt><trkpt lat="43.8129615" lon="17.0376158"><ele>875.6666666666667</ele><time>2026-04-28T12:42:16.326Z</time></trkpt><trkpt lat="43.8128733" lon="17.0378916"><ele>879.0</ele><time>2026-04-28T12:42:17.326Z</time></trkpt><trkpt lat="43.8127748" lon="17.0381703"><ele>877.3333333333333</ele><time>2026-04-28T12:42:18.326Z</time></trkpt><trkpt lat="43.8126807" lon="17.0384458"><ele>875.6666666666666</ele><time>2026-04-28T12:42:19.326Z</time></trkpt><trkpt lat="43.8125823" lon="17.038725"><ele>874.0</ele><time>2026-04-28T12:42:20.326Z</time></trkpt><trkpt lat="43.8124812" lon="17.0389978"><ele>876.6666666666666</ele><time>2026-04-28T12:42:21.326Z</time></trkpt><trkpt lat="43.812377" lon="17.0392607"><ele>879.3333333333333</ele><time>2026-04-28T12:42:22.326Z</time></trkpt><trkpt lat="43.8122725" lon="17.0395322"><ele>882.0</ele><time>2026-04-28T12:42:23.326Z</time></trkpt><trkpt lat="43.8121706" lon="17.0398022"><ele>884.0</ele><time>2026-04-28T12:42:24.326Z</time></trkpt><trkpt lat="43.812069" lon="17.0400763"><ele>886.0</ele><time>2026-04-28T12:42:25.326Z</time></trkpt><trkpt lat="43.811961" lon="17.0403505"><ele>888.0</ele><time>2026-04-28T12:42:26.326Z</time></trkpt><trkpt lat="43.8118544" lon="17.0406235"><ele>885.5</ele><time>2026-04-28T12:42:27.326Z</time></trkpt><trkpt lat="43.8117407" lon="17.0408957"><ele>883.0</ele><time>2026-04-28T12:42:28.326Z</time></trkpt><trkpt lat="43.8116267" lon="17.0411682"><ele>883.0</ele><time>2026-04-28T12:42:29.326Z</time></trkpt><trkpt lat="43.8115149" lon="17.0414384"><ele>883.0</ele><time>2026-04-28T12:42:30.326Z</time></trkpt><trkpt lat="43.8114101" lon="17.0416945"><ele>883.0</ele><time>2026-04-28T12:42:31.326Z</time></trkpt><trkpt lat="43.8113028" lon="17.0419381"><ele>884.6666666666666</ele><time>2026-04-28T12:42:32.327Z</time></trkpt><trkpt lat="43.8112001" lon="17.0421612"><ele>886.3333333333333</ele><time>2026-04-28T12:42:33.326Z</time></trkpt><trkpt lat="43.8111041" lon="17.0423736"><ele>888.0</ele><time>2026-04-28T12:42:34.326Z</time></trkpt><trkpt lat="43.8110046" lon="17.0425901"><ele>889.3333333333333</ele><time>2026-04-28T12:42:35.327Z</time></trkpt><trkpt lat="43.8109056" lon="17.0428004"><ele>890.6666666666666</ele><time>2026-04-28T12:42:36.326Z</time></trkpt><trkpt lat="43.8108084" lon="17.0430189"><ele>892.0</ele><time>2026-04-28T12:42:37.326Z</time></trkpt><trkpt lat="43.8107111" lon="17.043238"><ele>893.3333333333333</ele><time>2026-04-28T12:42:38.326Z</time></trkpt><trkpt lat="43.8106104" lon="17.0434678"><ele>894.6666666666667</ele><time>2026-04-28T12:42:39.326Z</time></trkpt><trkpt lat="43.8105049" lon="17.0436973"><ele>896.0</ele><time>2026-04-28T12:42:40.327Z</time></trkpt><trkpt lat="43.8103974" lon="17.0439198"><ele>896.0</ele><time>2026-04-28T12:42:41.326Z</time></trkpt><trkpt lat="43.8102902" lon="17.0441348"><ele>896.0</ele><time>2026-04-28T12:42:42.326Z</time></trkpt><trkpt lat="43.8101821" lon="17.0443569"><ele>896.0</ele><time>2026-04-28T12:42:43.326Z</time></trkpt><trkpt lat="43.8100774" lon="17.044578"><ele>896.0</ele><time>2026-04-28T12:42:44.326Z</time></trkpt><trkpt lat="43.8099795" lon="17.0447847"><ele>896.0</ele><time>2026-04-28T12:42:45.326Z</time></trkpt><trkpt lat="43.8098829" lon="17.0449804"><ele>896.0</ele><time>2026-04-28T12:42:46.326Z</time></trkpt><trkpt lat="43.8097841" lon="17.0451675"><ele>897.6666666666667</ele><time>2026-04-28T12:42:47.326Z</time></trkpt><trkpt lat="43.8096941" lon="17.045355"><ele>899.3333333333333</ele><time>2026-04-28T12:42:48.326Z</time></trkpt><trkpt lat="43.8096036" lon="17.0455341"><ele>901.0</ele><time>2026-04-28T12:42:49.326Z</time></trkpt><trkpt lat="43.8095033" lon="17.0457169"><ele>902.0</ele><time>2026-04-28T12:42:50.326Z</time></trkpt><trkpt lat="43.8094093" lon="17.0458957"><ele>903.0</ele><time>2026-04-28T12:42:51.326Z</time></trkpt><trkpt lat="43.809306" lon="17.0460797"><ele>904.0</ele><time>2026-04-28T12:42:52.326Z</time></trkpt><trkpt lat="43.8092025" lon="17.0462604"><ele>904.0</ele><time>2026-04-28T12:42:53.326Z</time></trkpt><trkpt lat="43.8091041" lon="17.0464411"><ele>904.0</ele><time>2026-04-28T12:42:54.326Z</time></trkpt><trkpt lat="43.8090146" lon="17.0466132"><ele>904.0</ele><time>2026-04-28T12:42:55.326Z</time></trkpt><trkpt lat="43.8089285" lon="17.0467716"><ele>904.75</ele><time>2026-04-28T12:42:56.326Z</time></trkpt><trkpt lat="43.8088362" lon="17.0469285"><ele>905.5</ele><time>2026-04-28T12:42:57.326Z</time></trkpt><trkpt lat="43.8087513" lon="17.0470886"><ele>906.25</ele><time>2026-04-28T12:42:58.326Z</time></trkpt><trkpt lat="43.808665" lon="17.0472591"><ele>907.0</ele><time>2026-04-28T12:42:59.326Z</time></trkpt><trkpt lat="43.8085683" lon="17.0474267"><ele>906.6666666666666</ele><time>2026-04-28T12:43:00.326Z</time></trkpt><trkpt lat="43.808474" lon="17.0475993"><ele>906.3333333333333</ele><time>2026-04-28T12:43:01.326Z</time></trkpt><trkpt lat="43.8083774" lon="17.0477763"><ele>906.0</ele><time>2026-04-28T12:43:02.326Z</time></trkpt><trkpt lat="43.8082752" lon="17.0479579"><ele>906.0</ele><time>2026-04-28T12:43:03.326Z</time></trkpt><trkpt lat="43.8081734" lon="17.0481414"><ele>906.0</ele><time>2026-04-28T12:43:04.326Z</time></trkpt><trkpt lat="43.8080723" lon="17.0483355"><ele>906.0</ele><time>2026-04-28T12:43:05.326Z</time></trkpt><trkpt lat="43.807962" lon="17.0485305"><ele>906.0</ele><time>2026-04-28T12:43:06.326Z</time></trkpt><trkpt lat="43.8078598" lon="17.0487174"><ele>906.0</ele><time>2026-04-28T12:43:07.327Z</time></trkpt><trkpt lat="43.8077511" lon="17.0489108"><ele>906.0</ele><time>2026-04-28T12:43:08.327Z</time></trkpt><trkpt lat="43.8076507" lon="17.0491002"><ele>906.6666666666667</ele><time>2026-04-28T12:43:09.326Z</time></trkpt><trkpt lat="43.8075445" lon="17.0492943"><ele>907.3333333333334</ele><time>2026-04-28T12:43:10.326Z</time></trkpt><trkpt lat="43.8074446" lon="17.04949"><ele>908.0</ele><time>2026-04-28T12:43:11.327Z</time></trkpt><trkpt lat="43.8073422" lon="17.0496848"><ele>908.0</ele><time>2026-04-28T12:43:12.326Z</time></trkpt><trkpt lat="43.8072368" lon="17.0498716"><ele>908.0</ele><time>2026-04-28T12:43:13.326Z</time></trkpt><trkpt lat="43.8071354" lon="17.0500548"><ele>908.0</ele><time>2026-04-28T12:43:14.327Z</time></trkpt><trkpt lat="43.8070306" lon="17.0502492"><ele>908.6666666666667</ele><time>2026-04-28T12:43:15.326Z</time></trkpt><trkpt lat="43.8069256" lon="17.0504414"><ele>909.3333333333333</ele><time>2026-04-28T12:43:16.326Z</time></trkpt><trkpt lat="43.8068187" lon="17.0506349"><ele>910.0</ele><time>2026-04-28T12:43:17.326Z</time></trkpt><trkpt lat="43.8067152" lon="17.0508282"><ele>911.3333333333333</ele><time>2026-04-28T12:43:18.326Z</time></trkpt><trkpt lat="43.8066134" lon="17.051019"><ele>912.6666666666667</ele><time>2026-04-28T12:43:19.327Z</time></trkpt><trkpt lat="43.8065062" lon="17.0512143"><ele>914.0</ele><time>2026-04-28T12:43:20.326Z</time></trkpt><trkpt lat="43.8064007" lon="17.051413"><ele>914.0</ele><time>2026-04-28T12:43:21.326Z</time></trkpt><trkpt lat="43.8062911" lon="17.0516159"><ele>914.0</ele><time>2026-04-28T12:43:22.326Z</time></trkpt><trkpt lat="43.8061813" lon="17.0518188"><ele>914.0</ele><time>2026-04-28T12:43:23.327Z</time></trkpt><trkpt lat="43.8060717" lon="17.0520202"><ele>914.3333333333334</ele><time>2026-04-28T12:43:24.326Z</time></trkpt><trkpt lat="43.8059652" lon="17.052216"><ele>914.6666666666667</ele><time>2026-04-28T12:43:25.326Z</time></trkpt><trkpt lat="43.80586" lon="17.0524095"><ele>915.0</ele><time>2026-04-28T12:43:26.326Z</time></trkpt><trkpt lat="43.8057532" lon="17.0526032"><ele>916.3333333333333</ele><time>2026-04-28T12:43:27.326Z</time></trkpt><trkpt lat="43.8056506" lon="17.0527986"><ele>917.6666666666666</ele><time>2026-04-28T12:43:28.326Z</time></trkpt><trkpt lat="43.8055489" lon="17.053001"><ele>919.0</ele><time>2026-04-28T12:43:29.327Z</time></trkpt><trkpt lat="43.8054526" lon="17.0531993"><ele>919.6666666666666</ele><time>2026-04-28T12:43:30.327Z</time></trkpt><trkpt lat="43.8053617" lon="17.0534032"><ele>920.3333333333333</ele><time>2026-04-28T12:43:31.326Z</time></trkpt><trkpt lat="43.8052731" lon="17.0536124"><ele>921.0</ele><time>2026-04-28T12:43:32.326Z</time></trkpt><trkpt lat="43.8051875" lon="17.0538315"><ele>919.3333333333333</ele><time>2026-04-28T12:43:33.327Z</time></trkpt><trkpt lat="43.8051044" lon="17.0540546"><ele>917.6666666666666</ele><time>2026-04-28T12:43:34.327Z</time></trkpt><trkpt lat="43.8050259" lon="17.0542886"><ele>916.0</ele><time>2026-04-28T12:43:35.326Z</time></trkpt><trkpt lat="43.8049528" lon="17.0545256"><ele>915.6666666666666</ele><time>2026-04-28T12:43:36.326Z</time></trkpt><trkpt lat="43.8048795" lon="17.0547729"><ele>915.3333333333333</ele><time>2026-04-28T12:43:37.326Z</time></trkpt><trkpt lat="43.8048061" lon="17.0550085"><ele>915.0</ele><time>2026-04-28T12:43:38.326Z</time></trkpt><trkpt lat="43.8047336" lon="17.0552511"><ele>915.0</ele><time>2026-04-28T12:43:39.327Z</time></trkpt><trkpt lat="43.8046525" lon="17.0554971"><ele>915.0</ele><time>2026-04-28T12:43:40.326Z</time></trkpt><trkpt lat="43.8045779" lon="17.0557387"><ele>915.0</ele><time>2026-04-28T12:43:41.326Z</time></trkpt><trkpt lat="43.804505" lon="17.0559807"><ele>915.6666666666667</ele><time>2026-04-28T12:43:42.326Z</time></trkpt><trkpt lat="43.8044324" lon="17.056222"><ele>916.3333333333334</ele><time>2026-04-28T12:43:43.326Z</time></trkpt><trkpt lat="43.8043593" lon="17.0564621"><ele>917.0</ele><time>2026-04-28T12:43:44.326Z</time></trkpt><trkpt lat="43.8042872" lon="17.0567065"><ele>917.3333333333334</ele><time>2026-04-28T12:43:45.327Z</time></trkpt><trkpt lat="43.8042205" lon="17.0569479"><ele>917.6666666666667</ele><time>2026-04-28T12:43:46.326Z</time></trkpt><trkpt lat="43.8041486" lon="17.0571924"><ele>918.0</ele><time>2026-04-28T12:43:47.326Z</time></trkpt><trkpt lat="43.8040801" lon="17.0574475"><ele>918.6666666666667</ele><time>2026-04-28T12:43:48.326Z</time></trkpt><trkpt lat="43.8040146" lon="17.057701"><ele>919.3333333333334</ele><time>2026-04-28T12:43:49.326Z</time></trkpt><trkpt lat="43.8039504" lon="17.0579659"><ele>920.0</ele><time>2026-04-28T12:43:50.327Z</time></trkpt><trkpt lat="43.8038895" lon="17.0582294"><ele>921.3333333333334</ele><time>2026-04-28T12:43:51.326Z</time></trkpt><trkpt lat="43.8038283" lon="17.0584973"><ele>922.6666666666667</ele><time>2026-04-28T12:43:52.326Z</time></trkpt><trkpt lat="43.8037789" lon="17.05877"><ele>924.0</ele><time>2026-04-28T12:43:53.326Z</time></trkpt><trkpt lat="43.8037329" lon="17.0590441"><ele>924.6666666666667</ele><time>2026-04-28T12:43:54.327Z</time></trkpt><trkpt lat="43.8037003" lon="17.0593167"><ele>925.3333333333334</ele><time>2026-04-28T12:43:55.326Z</time></trkpt><trkpt lat="43.8036663" lon="17.0595914"><ele>926.0</ele><time>2026-04-28T12:43:56.326Z</time></trkpt><trkpt lat="43.8036341" lon="17.0598506"><ele>926.0</ele><time>2026-04-28T12:43:57.326Z</time></trkpt><trkpt lat="43.8036059" lon="17.060107"><ele>926.0</ele><time>2026-04-28T12:43:58.326Z</time></trkpt><trkpt lat="43.8035801" lon="17.0603682"><ele>926.0</ele><time>2026-04-28T12:43:59.327Z</time></trkpt><trkpt lat="43.8035503" lon="17.0606294"><ele>926.3333333333334</ele><time>2026-04-28T12:44:00.326Z</time></trkpt><trkpt lat="43.8035198" lon="17.0608939"><ele>926.6666666666667</ele><time>2026-04-28T12:44:01.327Z</time></trkpt><trkpt lat="43.8034869" lon="17.0611599"><ele>927.0</ele><time>2026-04-28T12:44:02.327Z</time></trkpt><trkpt lat="43.8034427" lon="17.0614281"><ele>926.0</ele><time>2026-04-28T12:44:03.326Z</time></trkpt><trkpt lat="43.8033886" lon="17.0616976"><ele>925.0</ele><time>2026-04-28T12:44:04.326Z</time></trkpt><trkpt lat="43.8033269" lon="17.0619695"><ele>924.0</ele><time>2026-04-28T12:44:05.326Z</time></trkpt><trkpt lat="43.8032546" lon="17.0622433"><ele>924.6666666666667</ele><time>2026-04-28T12:44:06.326Z</time></trkpt><trkpt lat="43.8031737" lon="17.0625081"><ele>925.3333333333334</ele><time>2026-04-28T12:44:07.327Z</time></trkpt><trkpt lat="43.8030855" lon="17.0627774"><ele>926.0</ele><time>2026-04-28T12:44:08.326Z</time></trkpt><trkpt lat="43.8029908" lon="17.0630434"><ele>927.0</ele><time>2026-04-28T12:44:09.326Z</time></trkpt><trkpt lat="43.8028863" lon="17.0633115"><ele>928.0</ele><time>2026-04-28T12:44:10.326Z</time></trkpt><trkpt lat="43.8027835" lon="17.0635642"><ele>929.0</ele><time>2026-04-28T12:44:11.326Z</time></trkpt><trkpt lat="43.8026797" lon="17.0638171"><ele>927.6666666666667</ele><time>2026-04-28T12:44:12.326Z</time></trkpt><trkpt lat="43.8025774" lon="17.0640679"><ele>926.3333333333333</ele><time>2026-04-28T12:44:13.326Z</time></trkpt><trkpt lat="43.8024783" lon="17.0643263"><ele>925.0</ele><time>2026-04-28T12:44:14.327Z</time></trkpt><trkpt lat="43.8023781" lon="17.0645759"><ele>925.0</ele><time>2026-04-28T12:44:15.326Z</time></trkpt><trkpt lat="43.8022772" lon="17.0648288"><ele>925.0</ele><time>2026-04-28T12:44:16.326Z</time></trkpt><trkpt lat="43.8021736" lon="17.0650769"><ele>925.0</ele><time>2026-04-28T12:44:17.326Z</time></trkpt><trkpt lat="43.8020736" lon="17.0653165"><ele>927.0</ele><time>2026-04-28T12:44:18.326Z</time></trkpt><trkpt lat="43.8019763" lon="17.0655652"><ele>929.0</ele><time>2026-04-28T12:44:19.327Z</time></trkpt><trkpt lat="43.8018812" lon="17.0658085"><ele>931.0</ele><time>2026-04-28T12:44:20.326Z</time></trkpt><trkpt lat="43.8017858" lon="17.0660546"><ele>931.0</ele><time>2026-04-28T12:44:21.327Z</time></trkpt><trkpt lat="43.8016867" lon="17.0662929"><ele>931.0</ele><time>2026-04-28T12:44:22.327Z</time></trkpt><trkpt lat="43.8015926" lon="17.0665186"><ele>931.0</ele><time>2026-04-28T12:44:23.326Z</time></trkpt><trkpt lat="43.8015048" lon="17.0667267"><ele>931.6666666666666</ele><time>2026-04-28T12:44:24.327Z</time></trkpt><trkpt lat="43.8014126" lon="17.0669302"><ele>932.3333333333333</ele><time>2026-04-28T12:44:25.326Z</time></trkpt><trkpt lat="43.8013228" lon="17.0671347"><ele>933.0</ele><time>2026-04-28T12:44:26.326Z</time></trkpt><trkpt lat="43.8012258" lon="17.0673344"><ele>933.3333333333333</ele><time>2026-04-28T12:44:27.327Z</time></trkpt><trkpt lat="43.8011343" lon="17.0675245"><ele>933.6666666666666</ele><time>2026-04-28T12:44:28.327Z</time></trkpt><trkpt lat="43.8010368" lon="17.0677242"><ele>934.0</ele><time>2026-04-28T12:44:29.326Z</time></trkpt><trkpt lat="43.8009395" lon="17.0679161"><ele>933.3333333333333</ele><time>2026-04-28T12:44:30.326Z</time></trkpt><trkpt lat="43.8008292" lon="17.068108"><ele>932.6666666666667</ele><time>2026-04-28T12:44:31.326Z</time></trkpt><trkpt lat="43.800719" lon="17.0683036"><ele>932.0</ele><time>2026-04-28T12:44:32.327Z</time></trkpt><trkpt lat="43.8006081" lon="17.0684968"><ele>933.3333333333334</ele><time>2026-04-28T12:44:33.326Z</time></trkpt><trkpt lat="43.8004944" lon="17.0686787"><ele>934.6666666666667</ele><time>2026-04-28T12:44:34.326Z</time></trkpt><trkpt lat="43.8003787" lon="17.0688492"><ele>936.0</ele><time>2026-04-28T12:44:35.326Z</time></trkpt><trkpt lat="43.8002729" lon="17.0690068"><ele>935.0</ele><time>2026-04-28T12:44:36.327Z</time></trkpt><trkpt lat="43.8001565" lon="17.0691659"><ele>934.0</ele><time>2026-04-28T12:44:37.326Z</time></trkpt><trkpt lat="43.8000362" lon="17.0693214"><ele>933.0</ele><time>2026-04-28T12:44:38.327Z</time></trkpt><trkpt lat="43.7999124" lon="17.0694761"><ele>933.0</ele><time>2026-04-28T12:44:39.326Z</time></trkpt><trkpt lat="43.7997926" lon="17.0696227"><ele>933.0</ele><time>2026-04-28T12:44:40.326Z</time></trkpt><trkpt lat="43.7996642" lon="17.0697697"><ele>933.0</ele><time>2026-04-28T12:44:41.326Z</time></trkpt><trkpt lat="43.7995374" lon="17.0699156"><ele>933.3333333333333</ele><time>2026-04-28T12:44:42.326Z</time></trkpt><trkpt lat="43.7994022" lon="17.0700518"><ele>933.6666666666666</ele><time>2026-04-28T12:44:43.326Z</time></trkpt><trkpt lat="43.7992619" lon="17.0701942"><ele>934.0</ele><time>2026-04-28T12:44:44.326Z</time></trkpt><trkpt lat="43.7991125" lon="17.0703323"><ele>932.3333333333333</ele><time>2026-04-28T12:44:45.326Z</time></trkpt><trkpt lat="43.7989623" lon="17.0704708"><ele>930.6666666666667</ele><time>2026-04-28T12:44:46.327Z</time></trkpt><trkpt lat="43.7988048" lon="17.0706043"><ele>929.0</ele><time>2026-04-28T12:44:47.326Z</time></trkpt><trkpt lat="43.7986442" lon="17.0707295"><ele>928.3333333333334</ele><time>2026-04-28T12:44:48.326Z</time></trkpt><trkpt lat="43.7984771" lon="17.0708551"><ele>927.6666666666667</ele><time>2026-04-28T12:44:49.327Z</time></trkpt><trkpt lat="43.798307" lon="17.0709774"><ele>927.0</ele><time>2026-04-28T12:44:50.326Z</time></trkpt><trkpt lat="43.798132" lon="17.0710993"><ele>927.0</ele><time>2026-04-28T12:44:51.326Z</time></trkpt><trkpt lat="43.7979557" lon="17.0712211"><ele>927.0</ele><time>2026-04-28T12:44:52.326Z</time></trkpt><trkpt lat="43.7977739" lon="17.0713492"><ele>927.0</ele><time>2026-04-28T12:44:53.327Z</time></trkpt><trkpt lat="43.7975933" lon="17.0714731"><ele>926.0</ele><time>2026-04-28T12:44:54.326Z</time></trkpt><trkpt lat="43.7974128" lon="17.0716014"><ele>925.0</ele><time>2026-04-28T12:44:55.327Z</time></trkpt><trkpt lat="43.79723" lon="17.0717262"><ele>924.0</ele><time>2026-04-28T12:44:56.326Z</time></trkpt><trkpt lat="43.797045" lon="17.071855"><ele>923.6666666666667</ele><time>2026-04-28T12:44:57.326Z</time></trkpt><trkpt lat="43.7968486" lon="17.0719845"><ele>923.3333333333334</ele><time>2026-04-28T12:44:58.326Z</time></trkpt><trkpt lat="43.7966582" lon="17.0721148"><ele>923.0</ele><time>2026-04-28T12:44:59.326Z</time></trkpt><trkpt lat="43.7964665" lon="17.0722497"><ele>923.0</ele><time>2026-04-28T12:45:00.327Z</time></trkpt><trkpt lat="43.7962752" lon="17.0723884"><ele>923.0</ele><time>2026-04-28T12:45:01.326Z</time></trkpt><trkpt lat="43.7960814" lon="17.0725213"><ele>923.0</ele><time>2026-04-28T12:45:02.326Z</time></trkpt><trkpt lat="43.7958907" lon="17.0726465"><ele>922.0</ele><time>2026-04-28T12:45:03.326Z</time></trkpt><trkpt lat="43.7956987" lon="17.072775"><ele>921.0</ele><time>2026-04-28T12:45:04.326Z</time></trkpt><trkpt lat="43.7955043" lon="17.0729053"><ele>920.0</ele><time>2026-04-28T12:45:05.326Z</time></trkpt><trkpt lat="43.7953099" lon="17.0730402"><ele>919.6666666666667</ele><time>2026-04-28T12:45:06.326Z</time></trkpt><trkpt lat="43.7951137" lon="17.0731772"><ele>919.3333333333333</ele><time>2026-04-28T12:45:07.327Z</time></trkpt><trkpt lat="43.794913" lon="17.0733103"><ele>919.0</ele><time>2026-04-28T12:45:08.326Z</time></trkpt><trkpt lat="43.7947156" lon="17.0734444"><ele>919.0</ele><time>2026-04-28T12:45:09.326Z</time></trkpt><trkpt lat="43.794519" lon="17.0735782"><ele>919.0</ele><time>2026-04-28T12:45:10.326Z</time></trkpt><trkpt lat="43.7943223" lon="17.0737089"><ele>919.0</ele><time>2026-04-28T12:45:11.327Z</time></trkpt><trkpt lat="43.7941235" lon="17.0738493"><ele>918.6666666666666</ele><time>2026-04-28T12:45:12.326Z</time></trkpt><trkpt lat="43.7939256" lon="17.0739846"><ele>918.3333333333333</ele><time>2026-04-28T12:45:13.326Z</time></trkpt><trkpt lat="43.7937299" lon="17.0741165"><ele>918.0</ele><time>2026-04-28T12:45:14.326Z</time></trkpt><trkpt lat="43.7935336" lon="17.0742569"><ele>917.6666666666667</ele><time>2026-04-28T12:45:15.326Z</time></trkpt><trkpt lat="43.793334" lon="17.0743946"><ele>917.3333333333334</ele><time>2026-04-28T12:45:16.326Z</time></trkpt><trkpt lat="43.7931314" lon="17.0745326"><ele>917.0</ele><time>2026-04-28T12:45:17.326Z</time></trkpt><trkpt lat="43.7929302" lon="17.0746734"><ele>917.0</ele><time>2026-04-28T12:45:18.326Z</time></trkpt><trkpt lat="43.7927314" lon="17.074808"><ele>917.0</ele><time>2026-04-28T12:45:19.326Z</time></trkpt><trkpt lat="43.7925309" lon="17.0749447"><ele>917.0</ele><time>2026-04-28T12:45:20.326Z</time></trkpt><trkpt lat="43.7923299" lon="17.0750818"><ele>917.0</ele><time>2026-04-28T12:45:21.326Z</time></trkpt><trkpt lat="43.7921252" lon="17.0752268"><ele>917.0</ele><time>2026-04-28T12:45:22.326Z</time></trkpt><trkpt lat="43.7919274" lon="17.0753659"><ele>917.0</ele><time>2026-04-28T12:45:23.326Z</time></trkpt><trkpt lat="43.791727" lon="17.0755034"><ele>917.0</ele><time>2026-04-28T12:45:24.326Z</time></trkpt><trkpt lat="43.791526" lon="17.0756398"><ele>917.0</ele><time>2026-04-28T12:45:25.327Z</time></trkpt><trkpt lat="43.791324" lon="17.0757805"><ele>917.0</ele><time>2026-04-28T12:45:26.327Z</time></trkpt><trkpt lat="43.7911242" lon="17.0759207"><ele>917.0</ele><time>2026-04-28T12:45:27.326Z</time></trkpt><trkpt lat="43.7909208" lon="17.076057"><ele>916.6666666666667</ele><time>2026-04-28T12:45:28.327Z</time></trkpt><trkpt lat="43.7907207" lon="17.0761888"><ele>916.3333333333333</ele><time>2026-04-28T12:45:29.326Z</time></trkpt><trkpt lat="43.7905165" lon="17.0763262"><ele>916.0</ele><time>2026-04-28T12:45:30.327Z</time></trkpt><trkpt lat="43.7903172" lon="17.0764659"><ele>916.3333333333333</ele><time>2026-04-28T12:45:31.327Z</time></trkpt><trkpt lat="43.7901186" lon="17.0766036"><ele>916.6666666666667</ele><time>2026-04-28T12:45:32.326Z</time></trkpt><trkpt lat="43.7899219" lon="17.0767448"><ele>917.0</ele><time>2026-04-28T12:45:33.326Z</time></trkpt><trkpt lat="43.7897222" lon="17.0768791"><ele>917.0</ele><time>2026-04-28T12:45:34.326Z</time></trkpt><trkpt lat="43.7895258" lon="17.0770254"><ele>917.0</ele><time>2026-04-28T12:45:35.326Z</time></trkpt><trkpt lat="43.7893294" lon="17.0771704"><ele>917.0</ele><time>2026-04-28T12:45:36.326Z</time></trkpt><trkpt lat="43.7891345" lon="17.0773245"><ele>917.6666666666667</ele><time>2026-04-28T12:45:37.326Z</time></trkpt><trkpt lat="43.7889443" lon="17.0774861"><ele>918.3333333333333</ele><time>2026-04-28T12:45:38.326Z</time></trkpt><trkpt lat="43.7887599" lon="17.0776434"><ele>919.0</ele><time>2026-04-28T12:45:39.326Z</time></trkpt><trkpt lat="43.7885791" lon="17.077808"><ele>919.0</ele><time>2026-04-28T12:45:40.326Z</time></trkpt><trkpt lat="43.7883999" lon="17.0779774"><ele>919.0</ele><time>2026-04-28T12:45:41.326Z</time></trkpt><trkpt lat="43.7882249" lon="17.0781545"><ele>919.0</ele><time>2026-04-28T12:45:42.327Z</time></trkpt><trkpt lat="43.7880543" lon="17.0783412"><ele>919.0</ele><time>2026-04-28T12:45:43.326Z</time></trkpt><trkpt lat="43.7878853" lon="17.0785316"><ele>919.0</ele><time>2026-04-28T12:45:44.326Z</time></trkpt><trkpt lat="43.7877197" lon="17.0787211"><ele>919.0</ele><time>2026-04-28T12:45:45.327Z</time></trkpt><trkpt lat="43.7875614" lon="17.0789166"><ele>919.3333333333333</ele><time>2026-04-28T12:45:46.326Z</time></trkpt><trkpt lat="43.7874061" lon="17.0791195"><ele>919.6666666666667</ele><time>2026-04-28T12:45:47.326Z</time></trkpt><trkpt lat="43.7872537" lon="17.0793221"><ele>920.0</ele><time>2026-04-28T12:45:48.326Z</time></trkpt><trkpt lat="43.7871092" lon="17.0795258"><ele>920.0</ele><time>2026-04-28T12:45:49.326Z</time></trkpt><trkpt lat="43.7869649" lon="17.0797412"><ele>920.0</ele><time>2026-04-28T12:45:50.326Z</time></trkpt><trkpt lat="43.7868275" lon="17.0799541"><ele>920.0</ele><time>2026-04-28T12:45:51.326Z</time></trkpt><trkpt lat="43.7866951" lon="17.0801717"><ele>921.6666666666667</ele><time>2026-04-28T12:45:52.326Z</time></trkpt><trkpt lat="43.7865682" lon="17.0803861"><ele>923.3333333333333</ele><time>2026-04-28T12:45:53.326Z</time></trkpt><trkpt lat="43.7864463" lon="17.0806095"><ele>925.0</ele><time>2026-04-28T12:45:54.326Z</time></trkpt><trkpt lat="43.7863287" lon="17.0808333"><ele>925.3333333333333</ele><time>2026-04-28T12:45:55.326Z</time></trkpt><trkpt lat="43.7862161" lon="17.0810554"><ele>925.6666666666667</ele><time>2026-04-28T12:45:56.326Z</time></trkpt><trkpt lat="43.7861063" lon="17.0812785"><ele>926.0</ele><time>2026-04-28T12:45:57.326Z</time></trkpt><trkpt lat="43.7859993" lon="17.0815066"><ele>928.0</ele><time>2026-04-28T12:45:58.326Z</time></trkpt><trkpt lat="43.7858974" lon="17.0817378"><ele>930.0</ele><time>2026-04-28T12:45:59.327Z</time></trkpt><trkpt lat="43.7858015" lon="17.0819659"><ele>932.0</ele><time>2026-04-28T12:46:00.326Z</time></trkpt><trkpt lat="43.7857045" lon="17.0822019"><ele>932.3333333333334</ele><time>2026-04-28T12:46:01.326Z</time></trkpt><trkpt lat="43.7856105" lon="17.0824415"><ele>932.6666666666667</ele><time>2026-04-28T12:46:02.326Z</time></trkpt><trkpt lat="43.7855226" lon="17.0826835"><ele>933.0</ele><time>2026-04-28T12:46:03.326Z</time></trkpt><trkpt lat="43.7854348" lon="17.0829242"><ele>933.0</ele><time>2026-04-28T12:46:04.326Z</time></trkpt><trkpt lat="43.7853443" lon="17.0831815"><ele>933.0</ele><time>2026-04-28T12:46:05.326Z</time></trkpt><trkpt lat="43.7852505" lon="17.083459"><ele>933.0</ele><time>2026-04-28T12:46:06.326Z</time></trkpt><trkpt lat="43.7851562" lon="17.0837411"><ele>935.5</ele><time>2026-04-28T12:46:07.326Z</time></trkpt><trkpt lat="43.7850617" lon="17.0840218"><ele>938.0</ele><time>2026-04-28T12:46:08.326Z</time></trkpt><trkpt lat="43.7849639" lon="17.084304"><ele>939.0</ele><time>2026-04-28T12:46:09.326Z</time></trkpt><trkpt lat="43.7848649" lon="17.0845921"><ele>940.0</ele><time>2026-04-28T12:46:10.326Z</time></trkpt><trkpt lat="43.7847663" lon="17.0848872"><ele>940.5</ele><time>2026-04-28T12:46:11.327Z</time></trkpt><trkpt lat="43.7846641" lon="17.0851846"><ele>941.0</ele><time>2026-04-28T12:46:12.326Z</time></trkpt><trkpt lat="43.7845671" lon="17.0854757"><ele>940.0</ele><time>2026-04-28T12:46:13.326Z</time></trkpt><trkpt lat="43.7844677" lon="17.0857725"><ele>939.0</ele><time>2026-04-28T12:46:14.327Z</time></trkpt><trkpt lat="43.7843686" lon="17.0860645"><ele>941.5</ele><time>2026-04-28T12:46:15.327Z</time></trkpt><trkpt lat="43.7842688" lon="17.086354"><ele>944.0</ele><time>2026-04-28T12:46:16.326Z</time></trkpt><trkpt lat="43.784169" lon="17.0866426"><ele>944.0</ele><time>2026-04-28T12:46:17.326Z</time></trkpt><trkpt lat="43.7840651" lon="17.086929"><ele>944.0</ele><time>2026-04-28T12:46:18.326Z</time></trkpt><trkpt lat="43.7839629" lon="17.0872236"><ele>942.5</ele><time>2026-04-28T12:46:19.326Z</time></trkpt><trkpt lat="43.7838529" lon="17.0875206"><ele>941.0</ele><time>2026-04-28T12:46:20.326Z</time></trkpt><trkpt lat="43.7837344" lon="17.0878126"><ele>941.0</ele><time>2026-04-28T12:46:21.326Z</time></trkpt><trkpt lat="43.783619" lon="17.0881022"><ele>941.0</ele><time>2026-04-28T12:46:22.326Z</time></trkpt><trkpt lat="43.7834958" lon="17.0883948"><ele>942.5</ele><time>2026-04-28T12:46:23.326Z</time></trkpt><trkpt lat="43.783373" lon="17.0886871"><ele>944.0</ele><time>2026-04-28T12:46:24.326Z</time></trkpt><trkpt lat="43.7832461" lon="17.0889809"><ele>943.0</ele><time>2026-04-28T12:46:25.326Z</time></trkpt><trkpt lat="43.7831157" lon="17.0892785"><ele>942.0</ele><time>2026-04-28T12:46:26.326Z</time></trkpt><trkpt lat="43.7829822" lon="17.0895695"><ele>942.0</ele><time>2026-04-28T12:46:27.327Z</time></trkpt><trkpt lat="43.7828483" lon="17.0898573"><ele>942.0</ele><time>2026-04-28T12:46:28.326Z</time></trkpt><trkpt lat="43.7827112" lon="17.0901387"><ele>942.0</ele><time>2026-04-28T12:46:29.327Z</time></trkpt><trkpt lat="43.7825715" lon="17.0904167"><ele>942.0</ele><time>2026-04-28T12:46:30.326Z</time></trkpt><trkpt lat="43.7824253" lon="17.0906944"><ele>940.5</ele><time>2026-04-28T12:46:31.326Z</time></trkpt><trkpt lat="43.7822807" lon="17.0909627"><ele>939.0</ele><time>2026-04-28T12:46:32.326Z</time></trkpt><trkpt lat="43.7821362" lon="17.0912305"><ele>939.0</ele><time>2026-04-28T12:46:33.327Z</time></trkpt><trkpt lat="43.7819873" lon="17.0914907"><ele>939.0</ele><time>2026-04-28T12:46:34.327Z</time></trkpt><trkpt lat="43.7818375" lon="17.0917519"><ele>941.5</ele><time>2026-04-28T12:46:35.326Z</time></trkpt><trkpt lat="43.7816864" lon="17.092007"><ele>944.0</ele><time>2026-04-28T12:46:36.327Z</time></trkpt><trkpt lat="43.7815382" lon="17.092257"><ele>944.0</ele><time>2026-04-28T12:46:37.326Z</time></trkpt><trkpt lat="43.7813929" lon="17.0925075"><ele>944.0</ele><time>2026-04-28T12:46:38.326Z</time></trkpt><trkpt lat="43.7812456" lon="17.092752"><ele>944.0</ele><time>2026-04-28T12:46:39.326Z</time></trkpt><trkpt lat="43.7810953" lon="17.0929959"><ele>944.0</ele><time>2026-04-28T12:46:40.327Z</time></trkpt><trkpt lat="43.7809513" lon="17.0932323"><ele>944.0</ele><time>2026-04-28T12:46:41.327Z</time></trkpt><trkpt lat="43.7808095" lon="17.0934666"><ele>944.0</ele><time>2026-04-28T12:46:42.326Z</time></trkpt><trkpt lat="43.7806704" lon="17.0937029"><ele>944.0</ele><time>2026-04-28T12:46:43.326Z</time></trkpt><trkpt lat="43.7805348" lon="17.0939361"><ele>943.6666666666667</ele><time>2026-04-28T12:46:44.326Z</time></trkpt><trkpt lat="43.7804121" lon="17.0941857"><ele>943.3333333333333</ele><time>2026-04-28T12:46:45.326Z</time></trkpt><trkpt lat="43.7802949" lon="17.0944509"><ele>943.0</ele><time>2026-04-28T12:46:46.327Z</time></trkpt><trkpt lat="43.7801943" lon="17.0947132"><ele>945.6666666666666</ele><time>2026-04-28T12:46:47.326Z</time></trkpt><trkpt lat="43.7801111" lon="17.0949828"><ele>948.3333333333333</ele><time>2026-04-28T12:46:48.326Z</time></trkpt><trkpt lat="43.7800507" lon="17.0952606"><ele>951.0</ele><time>2026-04-28T12:46:49.326Z</time></trkpt><trkpt lat="43.7800107" lon="17.0955482"><ele>952.0</ele><time>2026-04-28T12:46:50.327Z</time></trkpt><trkpt lat="43.7799928" lon="17.0958401"><ele>953.0</ele><time>2026-04-28T12:46:51.326Z</time></trkpt><trkpt lat="43.7799969" lon="17.0961344"><ele>954.0</ele><time>2026-04-28T12:46:52.326Z</time></trkpt><trkpt lat="43.780022" lon="17.09643"><ele>954.6666666666667</ele><time>2026-04-28T12:46:53.326Z</time></trkpt><trkpt lat="43.7800572" lon="17.0967245"><ele>955.3333333333334</ele><time>2026-04-28T12:46:54.326Z</time></trkpt><trkpt lat="43.7801196" lon="17.0970071"><ele>956.0</ele><time>2026-04-28T12:46:55.327Z</time></trkpt><trkpt lat="43.780195" lon="17.0972865"><ele>958.3333333333334</ele><time>2026-04-28T12:46:56.327Z</time></trkpt><trkpt lat="43.7802853" lon="17.0975597"><ele>960.6666666666667</ele><time>2026-04-28T12:46:57.326Z</time></trkpt><trkpt lat="43.7803795" lon="17.0978243"><ele>963.0</ele><time>2026-04-28T12:46:58.326Z</time></trkpt><trkpt lat="43.7804867" lon="17.0980859"><ele>965.0</ele><time>2026-04-28T12:46:59.326Z</time></trkpt><trkpt lat="43.780597" lon="17.098358"><ele>967.0</ele><time>2026-04-28T12:47:00.327Z</time></trkpt><trkpt lat="43.7807013" lon="17.0986301"><ele>969.0</ele><time>2026-04-28T12:47:01.326Z</time></trkpt><trkpt lat="43.7807914" lon="17.098908"><ele>971.3333333333333</ele><time>2026-04-28T12:47:02.326Z</time></trkpt><trkpt lat="43.7808524" lon="17.0991962"><ele>973.6666666666666</ele><time>2026-04-28T12:47:03.327Z</time></trkpt><trkpt lat="43.7809007" lon="17.0994883"><ele>976.0</ele><time>2026-04-28T12:47:04.326Z</time></trkpt><trkpt lat="43.7809201" lon="17.099783"><ele>978.6666666666666</ele><time>2026-04-28T12:47:05.327Z</time></trkpt><trkpt lat="43.7809186" lon="17.1000833"><ele>981.3333333333333</ele><time>2026-04-28T12:47:06.327Z</time></trkpt><trkpt lat="43.7809018" lon="17.1003846"><ele>984.0</ele><time>2026-04-28T12:47:07.327Z</time></trkpt><trkpt lat="43.7808595" lon="17.1006768"><ele>987.0</ele><time>2026-04-28T12:47:08.326Z</time></trkpt><trkpt lat="43.7807998" lon="17.1009771"><ele>990.0</ele><time>2026-04-28T12:47:09.327Z</time></trkpt><trkpt lat="43.780754" lon="17.1012825"><ele>990.0</ele><time>2026-04-28T12:47:10.327Z</time></trkpt><trkpt lat="43.7807026" lon="17.1015786"><ele>990.0</ele><time>2026-04-28T12:47:11.326Z</time></trkpt><trkpt lat="43.7806624" lon="17.1018937"><ele>990.3333333333333</ele><time>2026-04-28T12:47:12.327Z</time></trkpt><trkpt lat="43.7806408" lon="17.1022023"><ele>990.6666666666666</ele><time>2026-04-28T12:47:13.326Z</time></trkpt><trkpt lat="43.7806292" lon="17.1025144"><ele>991.0</ele><time>2026-04-28T12:47:14.326Z</time></trkpt><trkpt lat="43.7806156" lon="17.1028153"><ele>992.0</ele><time>2026-04-28T12:47:15.327Z</time></trkpt><trkpt lat="43.7806131" lon="17.1031315"><ele>993.0</ele><time>2026-04-28T12:47:16.326Z</time></trkpt><trkpt lat="43.7806116" lon="17.1034432"><ele>995.5</ele><time>2026-04-28T12:47:17.326Z</time></trkpt><trkpt lat="43.7806043" lon="17.1037569"><ele>998.0</ele><time>2026-04-28T12:47:18.326Z</time></trkpt><trkpt lat="43.7805884" lon="17.1040726"><ele>999.6666666666667</ele><time>2026-04-28T12:47:19.326Z</time></trkpt><trkpt lat="43.780557" lon="17.1043752"><ele>1001.3333333333333</ele><time>2026-04-28T12:47:20.326Z</time></trkpt><trkpt lat="43.780516" lon="17.104681"><ele>1003.0</ele><time>2026-04-28T12:47:21.327Z</time></trkpt><trkpt lat="43.7804655" lon="17.1049796"><ele>1004.5</ele><time>2026-04-28T12:47:22.326Z</time></trkpt><trkpt lat="43.7803961" lon="17.1052771"><ele>1006.0</ele><time>2026-04-28T12:47:23.326Z</time></trkpt><trkpt lat="43.7803183" lon="17.1055744"><ele>1008.0</ele><time>2026-04-28T12:47:24.326Z</time></trkpt><trkpt lat="43.7802367" lon="17.1058714"><ele>1010.0</ele><time>2026-04-28T12:47:25.326Z</time></trkpt><trkpt lat="43.7801503" lon="17.1061698"><ele>1014.5</ele><time>2026-04-28T12:47:26.326Z</time></trkpt><trkpt lat="43.7800642" lon="17.1064715"><ele>1019.0</ele><time>2026-04-28T12:47:27.327Z</time></trkpt><trkpt lat="43.7799762" lon="17.1067704"><ele>1020.0</ele><time>2026-04-28T12:47:28.326Z</time></trkpt><trkpt lat="43.779897" lon="17.1070676"><ele>1021.0</ele><time>2026-04-28T12:47:29.326Z</time></trkpt><trkpt lat="43.7798207" lon="17.1073768"><ele>1024.5</ele><time>2026-04-28T12:47:30.326Z</time></trkpt><trkpt lat="43.7797598" lon="17.107691"><ele>1028.0</ele><time>2026-04-28T12:47:31.327Z</time></trkpt><trkpt lat="43.7797087" lon="17.1080073"><ele>1029.5</ele><time>2026-04-28T12:47:32.327Z</time></trkpt><trkpt lat="43.7796727" lon="17.1083316"><ele>1031.0</ele><time>2026-04-28T12:47:33.327Z</time></trkpt><trkpt lat="43.7796433" lon="17.1086516"><ele>1031.0</ele><time>2026-04-28T12:47:34.326Z</time></trkpt><trkpt lat="43.7796272" lon="17.1089759"><ele>1031.0</ele><time>2026-04-28T12:47:35.327Z</time></trkpt><trkpt lat="43.7796187" lon="17.1093033"><ele>1033.0</ele><time>2026-04-28T12:47:36.326Z</time></trkpt><trkpt lat="43.779623" lon="17.109625"><ele>1035.0</ele><time>2026-04-28T12:47:37.326Z</time></trkpt><trkpt lat="43.779636" lon="17.1099577"><ele>1036.5</ele><time>2026-04-28T12:47:38.326Z</time></trkpt><trkpt lat="43.779656" lon="17.110285"><ele>1038.0</ele><time>2026-04-28T12:47:39.326Z</time></trkpt><trkpt lat="43.779682" lon="17.1106116"><ele>1041.5</ele><time>2026-04-28T12:47:40.327Z</time></trkpt><trkpt lat="43.7797174" lon="17.1109292"><ele>1045.0</ele><time>2026-04-28T12:47:41.326Z</time></trkpt><trkpt lat="43.7797555" lon="17.1112531"><ele>1048.0</ele><time>2026-04-28T12:47:42.326Z</time></trkpt><trkpt lat="43.7797894" lon="17.1115819"><ele>1051.0</ele><time>2026-04-28T12:47:43.326Z</time></trkpt><trkpt lat="43.779826" lon="17.1119091"><ele>1051.0</ele><time>2026-04-28T12:47:44.326Z</time></trkpt><trkpt lat="43.7798577" lon="17.1122003"><ele>1051.0</ele><time>2026-04-28T12:47:45.326Z</time></trkpt><trkpt lat="43.779875" lon="17.1124896"><ele>1051.0</ele><time>2026-04-28T12:47:46.326Z</time></trkpt><trkpt lat="43.7798731" lon="17.1127749"><ele>1052.3333333333333</ele><time>2026-04-28T12:47:47.326Z</time></trkpt><trkpt lat="43.7798456" lon="17.1130506"><ele>1053.6666666666667</ele><time>2026-04-28T12:47:48.326Z</time></trkpt><trkpt lat="43.7797968" lon="17.11332"><ele>1055.0</ele><time>2026-04-28T12:47:49.327Z</time></trkpt><trkpt lat="43.7797181" lon="17.1135887"><ele>1057.0</ele><time>2026-04-28T12:47:50.326Z</time></trkpt><trkpt lat="43.7796186" lon="17.1138433"><ele>1059.0</ele><time>2026-04-28T12:47:51.327Z</time></trkpt><trkpt lat="43.7794979" lon="17.1140745"><ele>1061.0</ele><time>2026-04-28T12:47:52.326Z</time></trkpt><trkpt lat="43.779355" lon="17.1142775"><ele>1063.6666666666667</ele><time>2026-04-28T12:47:53.326Z</time></trkpt><trkpt lat="43.7791961" lon="17.114436"><ele>1066.3333333333333</ele><time>2026-04-28T12:47:54.327Z</time></trkpt><trkpt lat="43.7790301" lon="17.1145927"><ele>1069.0</ele><time>2026-04-28T12:47:55.326Z</time></trkpt><trkpt lat="43.7788335" lon="17.1146855"><ele>1069.0</ele><time>2026-04-28T12:47:56.326Z</time></trkpt><trkpt lat="43.7786367" lon="17.1147636"><ele>1069.0</ele><time>2026-04-28T12:47:57.326Z</time></trkpt><trkpt lat="43.7784263" lon="17.1148199"><ele>1069.0</ele><time>2026-04-28T12:47:58.327Z</time></trkpt><trkpt lat="43.7782182" lon="17.1148535"><ele>1071.3333333333333</ele><time>2026-04-28T12:47:59.326Z</time></trkpt><trkpt lat="43.7780041" lon="17.1148812"><ele>1073.6666666666667</ele><time>2026-04-28T12:48:00.326Z</time></trkpt><trkpt lat="43.7777837" lon="17.1148981"><ele>1076.0</ele><time>2026-04-28T12:48:01.326Z</time></trkpt><trkpt lat="43.7775643" lon="17.1149047"><ele>1077.0</ele><time>2026-04-28T12:48:02.326Z</time></trkpt><trkpt lat="43.7773463" lon="17.1149122"><ele>1078.0</ele><time>2026-04-28T12:48:03.326Z</time></trkpt><trkpt lat="43.7771236" lon="17.1149266"><ele>1079.0</ele><time>2026-04-28T12:48:04.326Z</time></trkpt><trkpt lat="43.7769054" lon="17.1149418"><ele>1080.6666666666667</ele><time>2026-04-28T12:48:05.326Z</time></trkpt><trkpt lat="43.7766939" lon="17.1149509"><ele>1082.3333333333333</ele><time>2026-04-28T12:48:06.326Z</time></trkpt><trkpt lat="43.7764771" lon="17.1149614"><ele>1084.0</ele><time>2026-04-28T12:48:07.326Z</time></trkpt><trkpt lat="43.7762594" lon="17.1149805"><ele>1084.0</ele><time>2026-04-28T12:48:08.327Z</time></trkpt><trkpt lat="43.7760625" lon="17.1149971"><ele>1084.0</ele><time>2026-04-28T12:48:09.326Z</time></trkpt><trkpt lat="43.7758797" lon="17.1150086"><ele>1084.0</ele><time>2026-04-28T12:48:10.326Z</time></trkpt><trkpt lat="43.7757124" lon="17.1150317"><ele>1086.3333333333333</ele><time>2026-04-28T12:48:11.326Z</time></trkpt><trkpt lat="43.7755479" lon="17.1150658"><ele>1088.6666666666667</ele><time>2026-04-28T12:48:12.327Z</time></trkpt><trkpt lat="43.7753882" lon="17.1151255"><ele>1091.0</ele><time>2026-04-28T12:48:13.326Z</time></trkpt><trkpt lat="43.7752312" lon="17.1151921"><ele>1092.0</ele><time>2026-04-28T12:48:14.326Z</time></trkpt><trkpt lat="43.7750749" lon="17.1152918"><ele>1093.0</ele><time>2026-04-28T12:48:15.327Z</time></trkpt><trkpt lat="43.7749207" lon="17.1154131"><ele>1094.0</ele><time>2026-04-28T12:48:16.326Z</time></trkpt><trkpt lat="43.7747717" lon="17.1155548"><ele>1094.0</ele><time>2026-04-28T12:48:17.326Z</time></trkpt><trkpt lat="43.7746259" lon="17.1157181"><ele>1094.0</ele><time>2026-04-28T12:48:18.326Z</time></trkpt><trkpt lat="43.7744948" lon="17.1159039"><ele>1094.0</ele><time>2026-04-28T12:48:19.326Z</time></trkpt><trkpt lat="43.7743864" lon="17.1161102"><ele>1098.3333333333335</ele><time>2026-04-28T12:48:20.326Z</time></trkpt><trkpt lat="43.7742944" lon="17.1163329"><ele>1102.6666666666667</ele><time>2026-04-28T12:48:21.326Z</time></trkpt><trkpt lat="43.7742209" lon="17.1165723"><ele>1107.0</ele><time>2026-04-28T12:48:22.326Z</time></trkpt><trkpt lat="43.7741715" lon="17.1168164"><ele>1107.3333333333333</ele><time>2026-04-28T12:48:23.326Z</time></trkpt><trkpt lat="43.7741411" lon="17.1170656"><ele>1107.6666666666665</ele><time>2026-04-28T12:48:24.326Z</time></trkpt><trkpt lat="43.77413" lon="17.1173155"><ele>1108.0</ele><time>2026-04-28T12:48:25.326Z</time></trkpt><trkpt lat="43.7741367" lon="17.1175774"><ele>1108.0</ele><time>2026-04-28T12:48:26.326Z</time></trkpt><trkpt lat="43.7741658" lon="17.1178315"><ele>1108.0</ele><time>2026-04-28T12:48:27.326Z</time></trkpt><trkpt lat="43.7742157" lon="17.1180798"><ele>1108.0</ele><time>2026-04-28T12:48:28.327Z</time></trkpt><trkpt lat="43.7742826" lon="17.1183136"><ele>1109.0</ele><time>2026-04-28T12:48:29.327Z</time></trkpt><trkpt lat="43.774372" lon="17.1185451"><ele>1110.0</ele><time>2026-04-28T12:48:30.326Z</time></trkpt><trkpt lat="43.7744775" lon="17.118767"><ele>1111.0</ele><time>2026-04-28T12:48:31.327Z</time></trkpt><trkpt lat="43.7745934" lon="17.1189823"><ele>1114.0</ele><time>2026-04-28T12:48:32.326Z</time></trkpt><trkpt lat="43.7747163" lon="17.1191977"><ele>1117.0</ele><time>2026-04-28T12:48:33.326Z</time></trkpt><trkpt lat="43.7748453" lon="17.1194119"><ele>1120.0</ele><time>2026-04-28T12:48:34.326Z</time></trkpt><trkpt lat="43.7749698" lon="17.1196157"><ele>1120.0</ele><time>2026-04-28T12:48:35.327Z</time></trkpt><trkpt lat="43.7750822" lon="17.1198151"><ele>1120.0</ele><time>2026-04-28T12:48:36.326Z</time></trkpt><trkpt lat="43.7751878" lon="17.1200111"><ele>1120.0</ele><time>2026-04-28T12:48:37.326Z</time></trkpt><trkpt lat="43.775279" lon="17.1202078"><ele>1120.6666666666665</ele><time>2026-04-28T12:48:38.327Z</time></trkpt><trkpt lat="43.7753666" lon="17.1204087"><ele>1121.3333333333333</ele><time>2026-04-28T12:48:39.326Z</time></trkpt><trkpt lat="43.7754481" lon="17.1206053"><ele>1122.0</ele><time>2026-04-28T12:48:40.326Z</time></trkpt><trkpt lat="43.7755123" lon="17.1208061"><ele>1123.5</ele><time>2026-04-28T12:48:41.327Z</time></trkpt><trkpt lat="43.7755628" lon="17.1210029"><ele>1125.0</ele><time>2026-04-28T12:48:42.326Z</time></trkpt><trkpt lat="43.7756034" lon="17.1211656"><ele>1126.5</ele><time>2026-04-28T12:48:43.326Z</time></trkpt><trkpt lat="43.775632" lon="17.1213132"><ele>1128.0</ele><time>2026-04-28T12:48:44.327Z</time></trkpt><trkpt lat="43.7756537" lon="17.1214485"><ele>1128.0</ele><time>2026-04-28T12:48:45.326Z</time></trkpt><trkpt lat="43.7756708" lon="17.1215604"><ele>1128.0</ele><time>2026-04-28T12:48:46.326Z</time></trkpt><trkpt lat="43.7756841" lon="17.1216887"><ele>1128.0</ele><time>2026-04-28T12:48:48.326Z</time></trkpt><trkpt lat="43.7756213" lon="17.1216748"><ele>1128.0</ele><time>2026-04-28T12:48:51.326Z</time></trkpt><trkpt lat="43.7755894" lon="17.1215955"><ele>1128.0</ele><time>2026-04-28T12:48:53.326Z</time></trkpt><trkpt lat="43.7755629" lon="17.121484"><ele>1128.0</ele><time>2026-04-28T12:48:55.326Z</time></trkpt><trkpt lat="43.7755251" lon="17.1213975"><ele>1128.0</ele><time>2026-04-28T12:48:57.326Z</time></trkpt><trkpt lat="43.7754906" lon="17.1213036"><ele>1128.0</ele><time>2026-04-28T12:48:59.326Z</time></trkpt><trkpt lat="43.7754448" lon="17.1212432"><ele>1128.0</ele><time>2026-04-28T12:49:01.326Z</time></trkpt><trkpt lat="43.7753867" lon="17.1212044"><ele>1128.0</ele><time>2026-04-28T12:49:04.326Z</time></trkpt><trkpt lat="43.775341" lon="17.1213094"><ele>1128.0</ele><time>2026-04-28T12:49:08.326Z</time></trkpt><trkpt lat="43.7753005" lon="17.1213936"><ele>1128.0</ele><time>2026-04-28T12:49:11.327Z</time></trkpt><trkpt lat="43.7752284" lon="17.1214584"><ele>1128.8</ele><time>2026-04-28T12:51:57.326Z</time></trkpt><trkpt lat="43.7751219" lon="17.1215045"><ele>1129.6</ele><time>2026-04-28T12:51:59.326Z</time></trkpt><trkpt lat="43.7750023" lon="17.121455"><ele>1130.4</ele><time>2026-04-28T12:52:01.327Z</time></trkpt><trkpt lat="43.7749269" lon="17.1214298"><ele>1131.2</ele><time>2026-04-28T12:52:02.326Z</time></trkpt><trkpt lat="43.7748606" lon="17.1214254"><ele>1132.0</ele><time>2026-04-28T12:52:03.326Z</time></trkpt><trkpt lat="43.7747407" lon="17.1214255"><ele>1132.0</ele><time>2026-04-28T12:52:05.327Z</time></trkpt><trkpt lat="43.7746432" lon="17.1214276"><ele>1132.0</ele><time>2026-04-28T12:52:07.326Z</time></trkpt><trkpt lat="43.774525" lon="17.12143"><ele>1132.0</ele><time>2026-04-28T12:52:09.327Z</time></trkpt><trkpt lat="43.7743964" lon="17.1213336"><ele>1132.0</ele><time>2026-04-28T12:52:11.327Z</time></trkpt><trkpt lat="43.7743437" lon="17.1212771"><ele>1132.0</ele><time>2026-04-28T12:52:12.326Z</time></trkpt><trkpt lat="43.7742608" lon="17.121226"><ele>1132.6</ele><time>2026-04-28T12:52:14.326Z</time></trkpt><trkpt lat="43.7741712" lon="17.1212586"><ele>1133.2</ele><time>2026-04-28T12:52:16.326Z</time></trkpt><trkpt lat="43.7740621" lon="17.121274"><ele>1133.8</ele><time>2026-04-28T12:52:18.326Z</time></trkpt><trkpt lat="43.7739564" lon="17.1211982"><ele>1134.4</ele><time>2026-04-28T12:52:20.327Z</time></trkpt><trkpt lat="43.7738776" lon="17.1211745"><ele>1135.0</ele><time>2026-04-28T12:52:22.326Z</time></trkpt><trkpt lat="43.7737867" lon="17.1211857"><ele>1135.0</ele><time>2026-04-28T12:52:24.326Z</time></trkpt><trkpt lat="43.7737046" lon="17.1212755"><ele>1135.0</ele><time>2026-04-28T12:52:26.326Z</time></trkpt><trkpt lat="43.7736492" lon="17.1214128"><ele>1135.0</ele><time>2026-04-28T12:52:28.326Z</time></trkpt><trkpt lat="43.7735977" lon="17.1215562"><ele>1135.0</ele><time>2026-04-28T12:52:30.326Z</time></trkpt><trkpt lat="43.7735227" lon="17.1216747"><ele>1135.0</ele><time>2026-04-28T12:52:32.327Z</time></trkpt><trkpt lat="43.7734362" lon="17.1217539"><ele>1137.1666666666665</ele><time>2026-04-28T12:52:34.327Z</time></trkpt><trkpt lat="43.7733534" lon="17.121809"><ele>1139.3333333333333</ele><time>2026-04-28T12:52:36.326Z</time></trkpt><trkpt lat="43.7732991" lon="17.1218779"><ele>1141.5</ele><time>2026-04-28T12:52:38.327Z</time></trkpt><trkpt lat="43.7732247" lon="17.1219426"><ele>1143.6666666666667</ele><time>2026-04-28T12:52:40.326Z</time></trkpt><trkpt lat="43.7731371" lon="17.1219965"><ele>1145.8333333333335</ele><time>2026-04-28T12:52:43.326Z</time></trkpt><trkpt lat="43.7730672" lon="17.1220846"><ele>1148.0</ele><time>2026-04-28T12:52:45.326Z</time></trkpt><trkpt lat="43.7730178" lon="17.1221407"><ele>1148.0</ele><time>2026-04-28T12:52:46.326Z</time></trkpt><trkpt lat="43.7729581" lon="17.1222452"><ele>1148.0</ele><time>2026-04-28T12:52:48.326Z</time></trkpt><trkpt lat="43.7729146" lon="17.1223403"><ele>1148.0</ele><time>2026-04-28T12:52:50.327Z</time></trkpt><trkpt lat="43.7728877" lon="17.1224271"><ele>1148.0</ele><time>2026-04-28T12:52:52.327Z</time></trkpt><trkpt lat="43.772842" lon="17.122542"><ele>1148.0</ele><time>2026-04-28T12:52:54.326Z</time></trkpt><trkpt lat="43.772817" lon="17.1226248"><ele>1148.0</ele><time>2026-04-28T12:52:56.327Z</time></trkpt><trkpt lat="43.7727673" lon="17.1227317"><ele>1151.6</ele><time>2026-04-28T12:52:58.327Z</time></trkpt><trkpt lat="43.7726867" lon="17.1228371"><ele>1155.1999999999998</ele><time>2026-04-28T12:53:00.327Z</time></trkpt><trkpt lat="43.7726096" lon="17.1229426"><ele>1158.8</ele><time>2026-04-28T12:53:02.327Z</time></trkpt><trkpt lat="43.7725216" lon="17.1230007"><ele>1162.3999999999999</ele><time>2026-04-28T12:53:05.326Z</time></trkpt><trkpt lat="43.7724507" lon="17.1230525"><ele>1166.0</ele><time>2026-04-28T12:53:07.326Z</time></trkpt><trkpt lat="43.7724039" lon="17.1231453"><ele>1166.6</ele><time>2026-04-28T12:53:09.326Z</time></trkpt><trkpt lat="43.7723322" lon="17.1232471"><ele>1167.1999999999998</ele><time>2026-04-28T12:53:11.327Z</time></trkpt><trkpt lat="43.7722983" lon="17.1233281"><ele>1167.8000000000002</ele><time>2026-04-28T12:53:12.326Z</time></trkpt><trkpt lat="43.7722312" lon="17.1234665"><ele>1168.4</ele><time>2026-04-28T12:53:14.327Z</time></trkpt><trkpt lat="43.7721893" lon="17.1235627"><ele>1169.0</ele><time>2026-04-28T12:53:16.326Z</time></trkpt><trkpt lat="43.7721281" lon="17.1236395"><ele>1169.0</ele><time>2026-04-28T12:53:18.326Z</time></trkpt><trkpt lat="43.7720673" lon="17.1236901"><ele>1169.0</ele><time>2026-04-28T12:53:20.327Z</time></trkpt><trkpt lat="43.7720095" lon="17.1237299"><ele>1169.0</ele><time>2026-04-28T12:53:21.326Z</time></trkpt><trkpt lat="43.7718985" lon="17.123794"><ele>1169.0</ele><time>2026-04-28T12:53:23.326Z</time></trkpt><trkpt lat="43.7718008" lon="17.1238347"><ele>1169.0</ele><time>2026-04-28T12:53:25.326Z</time></trkpt><trkpt lat="43.7717145" lon="17.1238614"><ele>1169.0</ele><time>2026-04-28T12:53:27.326Z</time></trkpt><trkpt lat="43.7716146" lon="17.1238759"><ele>1170.4</ele><time>2026-04-28T12:53:29.326Z</time></trkpt><trkpt lat="43.7715209" lon="17.1238808"><ele>1171.8000000000002</ele><time>2026-04-28T12:53:31.326Z</time></trkpt><trkpt lat="43.7714379" lon="17.1239007"><ele>1173.1999999999998</ele><time>2026-04-28T12:53:33.326Z</time></trkpt><trkpt lat="43.7713555" lon="17.1239121"><ele>1174.6</ele><time>2026-04-28T12:53:35.326Z</time></trkpt><trkpt lat="43.7712452" lon="17.1239373"><ele>1176.0</ele><time>2026-04-28T12:53:37.327Z</time></trkpt><trkpt lat="43.7711487" lon="17.1239482"><ele>1176.0</ele><time>2026-04-28T12:53:39.326Z</time></trkpt><trkpt lat="43.7710787" lon="17.123968"><ele>1176.0</ele><time>2026-04-28T12:53:41.326Z</time></trkpt><trkpt lat="43.7710199" lon="17.1240016"><ele>1176.0</ele><time>2026-04-28T12:53:43.326Z</time></trkpt><trkpt lat="43.7709813" lon="17.1240722"><ele>1176.0</ele><time>2026-04-28T12:53:44.326Z</time></trkpt><trkpt lat="43.7709125" lon="17.1241525"><ele>1176.0</ele><time>2026-04-28T12:53:46.326Z</time></trkpt><trkpt lat="43.7708515" lon="17.1241979"><ele>1176.0</ele><time>2026-04-28T12:53:48.327Z</time></trkpt><trkpt lat="43.7707861" lon="17.12429"><ele>1177.1666666666667</ele><time>2026-04-28T12:53:50.326Z</time></trkpt><trkpt lat="43.7707488" lon="17.1243641"><ele>1178.3333333333333</ele><time>2026-04-28T12:53:51.327Z</time></trkpt><trkpt lat="43.7707104" lon="17.124449"><ele>1179.5</ele><time>2026-04-28T12:53:52.326Z</time></trkpt><trkpt lat="43.7706709" lon="17.1245723"><ele>1180.6666666666665</ele><time>2026-04-28T12:53:54.326Z</time></trkpt><trkpt lat="43.7706237" lon="17.1246857"><ele>1181.8333333333333</ele><time>2026-04-28T12:53:56.326Z</time></trkpt><trkpt lat="43.7705616" lon="17.1247873"><ele>1183.0</ele><time>2026-04-28T12:53:58.327Z</time></trkpt><trkpt lat="43.7704852" lon="17.1248686"><ele>1183.1666666666665</ele><time>2026-04-28T12:54:00.326Z</time></trkpt><trkpt lat="43.7704234" lon="17.1249506"><ele>1183.3333333333333</ele><time>2026-04-28T12:54:02.327Z</time></trkpt><trkpt lat="43.770378" lon="17.1250402"><ele>1183.5</ele><time>2026-04-28T12:54:04.327Z</time></trkpt><trkpt lat="43.7703358" lon="17.1251433"><ele>1183.6666666666667</ele><time>2026-04-28T12:54:06.326Z</time></trkpt><trkpt lat="43.7702955" lon="17.1252221"><ele>1183.8333333333335</ele><time>2026-04-28T12:54:08.326Z</time></trkpt><trkpt lat="43.7702407" lon="17.1252747"><ele>1184.0</ele><time>2026-04-28T12:54:11.326Z</time></trkpt><trkpt lat="43.7701783" lon="17.1253464"><ele>1185.1666666666667</ele><time>2026-04-28T12:54:13.326Z</time></trkpt><trkpt lat="43.7701049" lon="17.1254007"><ele>1186.3333333333335</ele><time>2026-04-28T12:54:15.327Z</time></trkpt><trkpt lat="43.7700246" lon="17.1254138"><ele>1187.5</ele><time>2026-04-28T12:54:17.326Z</time></trkpt><trkpt lat="43.7699319" lon="17.1254319"><ele>1188.6666666666667</ele><time>2026-04-28T12:54:19.327Z</time></trkpt><trkpt lat="43.7698384" lon="17.1254591"><ele>1189.8333333333333</ele><time>2026-04-28T12:54:21.326Z</time></trkpt><trkpt lat="43.7697739" lon="17.1255051"><ele>1191.0</ele><time>2026-04-28T12:54:23.326Z</time></trkpt><trkpt lat="43.7697113" lon="17.1255769"><ele>1191.0</ele><time>2026-04-28T12:54:25.326Z</time></trkpt><trkpt lat="43.7696642" lon="17.1254999"><ele>1191.0</ele><time>2026-04-28T12:54:30.327Z</time></trkpt><trkpt lat="43.7696689" lon="17.1253994"><ele>1191.0</ele><time>2026-04-28T12:54:33.326Z</time></trkpt><trkpt lat="43.769689" lon="17.125315"><ele>1191.0</ele><time>2026-04-28T12:54:35.326Z</time></trkpt><trkpt lat="43.769714" lon="17.1252271"><ele>1191.0</ele><time>2026-04-28T12:54:37.326Z</time></trkpt><trkpt lat="43.7697402" lon="17.1251313"><ele>1191.0</ele><time>2026-04-28T12:54:39.326Z</time></trkpt><trkpt lat="43.769771" lon="17.1250269"><ele>1191.0</ele><time>2026-04-28T12:54:41.326Z</time></trkpt><trkpt lat="43.769814" lon="17.1249341"><ele>1190.8333333333333</ele><time>2026-04-28T12:54:43.327Z</time></trkpt><trkpt lat="43.7698347" lon="17.1248402"><ele>1190.6666666666667</ele><time>2026-04-28T12:54:45.326Z</time></trkpt><trkpt lat="43.7698389" lon="17.1247009"><ele>1190.5</ele><time>2026-04-28T12:54:47.326Z</time></trkpt><trkpt lat="43.7698353" lon="17.1245752"><ele>1190.3333333333335</ele><time>2026-04-28T12:54:49.327Z</time></trkpt><trkpt lat="43.7698046" lon="17.1244475"><ele>1190.1666666666667</ele><time>2026-04-28T12:54:52.327Z</time></trkpt><trkpt lat="43.7697723" lon="17.1243477"><ele>1190.0</ele><time>2026-04-28T12:54:54.327Z</time></trkpt><trkpt lat="43.7697192" lon="17.124262"><ele>1190.0</ele><time>2026-04-28T12:54:58.327Z</time></trkpt><trkpt lat="43.7696925" lon="17.1241338"><ele>1190.0</ele><time>2026-04-28T12:54:59.326Z</time></trkpt><trkpt lat="43.7696578" lon="17.1240166"><ele>1190.0</ele><time>2026-04-28T12:55:01.326Z</time></trkpt><trkpt lat="43.7696127" lon="17.1239119"><ele>1190.0</ele><time>2026-04-28T12:55:03.326Z</time></trkpt><trkpt lat="43.7695743" lon="17.123811"><ele>1190.0</ele><time>2026-04-28T12:55:06.326Z</time></trkpt><trkpt lat="43.769524" lon="17.1237223"><ele>1190.0</ele><time>2026-04-28T12:55:08.326Z</time></trkpt><trkpt lat="43.7695058" lon="17.1235736"><ele>1191.6666666666667</ele><time>2026-04-28T12:55:10.326Z</time></trkpt><trkpt lat="43.7694687" lon="17.1234763"><ele>1193.3333333333335</ele><time>2026-04-28T12:55:12.326Z</time></trkpt><trkpt lat="43.7694281" lon="17.1233835"><ele>1195.0</ele><time>2026-04-28T12:55:14.327Z</time></trkpt><trkpt lat="43.7693881" lon="17.1232955"><ele>1196.6666666666667</ele><time>2026-04-28T12:55:16.326Z</time></trkpt><trkpt lat="43.7693328" lon="17.123218"><ele>1198.3333333333333</ele><time>2026-04-28T12:55:19.326Z</time></trkpt><trkpt lat="43.769287" lon="17.1232912"><ele>1200.0</ele><time>2026-04-28T12:55:22.327Z</time></trkpt><trkpt lat="43.7693016" lon="17.1233904"><ele>1201.0</ele><time>2026-04-28T12:55:24.326Z</time></trkpt><trkpt lat="43.7693066" lon="17.1234843"><ele>1202.0</ele><time>2026-04-28T12:55:26.326Z</time></trkpt><trkpt lat="43.7692667" lon="17.1235815"><ele>1203.0</ele><time>2026-04-28T12:55:29.326Z</time></trkpt><trkpt lat="43.7692057" lon="17.1236308"><ele>1204.0</ele><time>2026-04-28T12:55:31.326Z</time></trkpt><trkpt lat="43.7691325" lon="17.1236459"><ele>1205.0</ele><time>2026-04-28T12:55:33.326Z</time></trkpt><trkpt lat="43.7690675" lon="17.1236485"><ele>1206.0</ele><time>2026-04-28T12:55:35.327Z</time></trkpt><trkpt lat="43.7689781" lon="17.1236087"><ele>1206.0</ele><time>2026-04-28T12:55:37.326Z</time></trkpt><trkpt lat="43.7688998" lon="17.1235672"><ele>1206.0</ele><time>2026-04-28T12:55:39.326Z</time></trkpt><trkpt lat="43.7688286" lon="17.1235294"><ele>1206.0</ele><time>2026-04-28T12:55:41.326Z</time></trkpt><trkpt lat="43.7687517" lon="17.1234957"><ele>1206.0</ele><time>2026-04-28T12:55:43.326Z</time></trkpt><trkpt lat="43.7686828" lon="17.1234637"><ele>1206.0</ele><time>2026-04-28T12:55:45.327Z</time></trkpt><trkpt lat="43.7686031" lon="17.1234009"><ele>1206.0</ele><time>2026-04-28T12:55:48.327Z</time></trkpt><trkpt lat="43.7685563" lon="17.1232997"><ele>1207.3333333333333</ele><time>2026-04-28T12:55:51.327Z</time></trkpt><trkpt lat="43.7684923" lon="17.123216"><ele>1208.6666666666667</ele><time>2026-04-28T12:55:54.327Z</time></trkpt><trkpt lat="43.7684411" lon="17.1231428"><ele>1210.0</ele><time>2026-04-28T12:55:56.326Z</time></trkpt><trkpt lat="43.7683868" lon="17.1230485"><ele>1211.3333333333335</ele><time>2026-04-28T12:55:58.327Z</time></trkpt><trkpt lat="43.7683391" lon="17.1229841"><ele>1212.6666666666667</ele><time>2026-04-28T12:56:00.326Z</time></trkpt><trkpt lat="43.7682543" lon="17.1229578"><ele>1214.0</ele><time>2026-04-28T12:56:02.326Z</time></trkpt><trkpt lat="43.7681682" lon="17.1229602"><ele>1214.0</ele><time>2026-04-28T12:56:04.326Z</time></trkpt><trkpt lat="43.7680825" lon="17.1229985"><ele>1214.0</ele><time>2026-04-28T12:56:06.326Z</time></trkpt><trkpt lat="43.7679908" lon="17.1229922"><ele>1214.0</ele><time>2026-04-28T12:56:08.326Z</time></trkpt><trkpt lat="43.767902" lon="17.1229934"><ele>1214.0</ele><time>2026-04-28T12:56:10.326Z</time></trkpt><trkpt lat="43.7678169" lon="17.1229867"><ele>1214.0</ele><time>2026-04-28T12:56:12.327Z</time></trkpt><trkpt lat="43.7677382" lon="17.1229528"><ele>1214.0</ele><time>2026-04-28T12:56:14.327Z</time></trkpt><trkpt lat="43.7676748" lon="17.1229119"><ele>1215.0</ele><time>2026-04-28T12:56:16.327Z</time></trkpt><trkpt lat="43.7676144" lon="17.1228705"><ele>1216.0</ele><time>2026-04-28T12:56:18.326Z</time></trkpt><trkpt lat="43.7675472" lon="17.1228183"><ele>1217.0</ele><time>2026-04-28T12:56:20.326Z</time></trkpt><trkpt lat="43.7674608" lon="17.1227969"><ele>1218.0</ele><time>2026-04-28T12:56:23.326Z</time></trkpt><trkpt lat="43.7673704" lon="17.1227654"><ele>1219.0</ele><time>2026-04-28T12:56:26.327Z</time></trkpt><trkpt lat="43.7672947" lon="17.122726"><ele>1220.0</ele><time>2026-04-28T12:56:28.326Z</time></trkpt><trkpt lat="43.7671814" lon="17.1226675"><ele>1220.0</ele><time>2026-04-28T12:56:54.326Z</time></trkpt><trkpt lat="43.7671122" lon="17.1226184"><ele>1220.0</ele><time>2026-04-28T12:56:56.326Z</time></trkpt><trkpt lat="43.7670393" lon="17.1225831"><ele>1220.0</ele><time>2026-04-28T12:56:58.326Z</time></trkpt><trkpt lat="43.7669644" lon="17.1225744"><ele>1220.0</ele><time>2026-04-28T12:57:00.326Z</time></trkpt><trkpt lat="43.7669029" lon="17.1226214"><ele>1220.0</ele><time>2026-04-28T12:57:03.326Z</time></trkpt><trkpt lat="43.7668556" lon="17.1226955"><ele>1220.0</ele><time>2026-04-28T12:57:06.326Z</time></trkpt><trkpt lat="43.7668141" lon="17.1227891"><ele>1220.0</ele><time>2026-04-28T12:57:09.327Z</time></trkpt><trkpt lat="43.7667787" lon="17.122863"><ele>1220.0</ele><time>2026-04-28T12:57:13.326Z</time></trkpt><trkpt lat="43.7668022" lon="17.1229516"><ele>1220.0</ele><time>2026-04-28T12:57:57.326Z</time></trkpt><trkpt lat="43.7668732" lon="17.1229854"><ele>1220.0</ele><time>2026-04-28T12:58:00.326Z</time></trkpt><trkpt lat="43.7667833" lon="17.1230004"><ele>1220.0</ele><time>2026-04-28T13:00:21.326Z</time></trkpt><trkpt lat="43.766727" lon="17.1230689"><ele>1220.0</ele><time>2026-04-28T13:00:24.326Z</time></trkpt><trkpt lat="43.766685" lon="17.1231393"><ele>1220.0</ele><time>2026-04-28T13:00:58.326Z</time></trkpt><trkpt lat="43.7666488" lon="17.1232236"><ele>1219.7142857142858</ele><time>2026-04-28T13:01:01.326Z</time></trkpt><trkpt lat="43.7665958" lon="17.1233055"><ele>1219.4285714285713</ele><time>2026-04-28T13:16:52.326Z</time></trkpt><trkpt lat="43.766546" lon="17.1233876"><ele>1219.142857142857</ele><time>2026-04-28T13:16:57.327Z</time></trkpt><trkpt lat="43.766508" lon="17.1234624"><ele>1218.857142857143</ele><time>2026-04-28T13:17:00.326Z</time></trkpt><trkpt lat="43.7664677" lon="17.1235351"><ele>1218.5714285714284</ele><time>2026-04-28T13:17:03.326Z</time></trkpt><trkpt lat="43.7664294" lon="17.1236216"><ele>1218.2857142857142</ele><time>2026-04-28T13:17:06.326Z</time></trkpt><trkpt lat="43.7663865" lon="17.1237143"><ele>1218.0</ele><time>2026-04-28T13:17:09.327Z</time></trkpt><trkpt lat="43.7663387" lon="17.1238007"><ele>1218.0</ele><time>2026-04-28T13:17:12.327Z</time></trkpt><trkpt lat="43.7663213" lon="17.123906"><ele>1218.0</ele><time>2026-04-28T13:17:15.326Z</time></trkpt><trkpt lat="43.7663096" lon="17.1240091"><ele>1218.0</ele><time>2026-04-28T13:17:19.327Z</time></trkpt><trkpt lat="43.7662889" lon="17.1240986"><ele>1218.0</ele><time>2026-04-28T13:17:22.327Z</time></trkpt><trkpt lat="43.7662559" lon="17.124191"><ele>1218.0</ele><time>2026-04-28T13:17:25.326Z</time></trkpt><trkpt lat="43.7662336" lon="17.1242905"><ele>1218.0</ele><time>2026-04-28T13:17:28.326Z</time></trkpt><trkpt lat="43.7661972" lon="17.1244093"><ele>1217.6666666666667</ele><time>2026-04-28T13:17:31.327Z</time></trkpt><trkpt lat="43.7661537" lon="17.1245009"><ele>1217.3333333333333</ele><time>2026-04-28T13:17:33.326Z</time></trkpt><trkpt lat="43.7661073" lon="17.1246018"><ele>1217.0</ele><time>2026-04-28T13:17:36.327Z</time></trkpt><trkpt lat="43.7660809" lon="17.124682"><ele>1216.6666666666665</ele><time>2026-04-28T13:17:38.326Z</time></trkpt><trkpt lat="43.7660577" lon="17.1247634"><ele>1216.3333333333333</ele><time>2026-04-28T13:17:40.326Z</time></trkpt><trkpt lat="43.7660215" lon="17.1248803"><ele>1216.0</ele><time>2026-04-28T13:17:43.326Z</time></trkpt><trkpt lat="43.7659913" lon="17.1249778"><ele>1214.0</ele><time>2026-04-28T13:17:46.326Z</time></trkpt><trkpt lat="43.7659563" lon="17.1250527"><ele>1212.0</ele><time>2026-04-28T13:17:48.326Z</time></trkpt><trkpt lat="43.7658947" lon="17.1251492"><ele>1210.0</ele><time>2026-04-28T13:17:51.326Z</time></trkpt><trkpt lat="43.7658387" lon="17.1252051"><ele>1208.0</ele><time>2026-04-28T13:17:53.326Z</time></trkpt><trkpt lat="43.7657744" lon="17.1252823"><ele>1206.0</ele><time>2026-04-28T13:17:55.326Z</time></trkpt><trkpt lat="43.7657291" lon="17.1253487"><ele>1204.0</ele><time>2026-04-28T13:17:57.327Z</time></trkpt><trkpt lat="43.7656576" lon="17.125432"><ele>1204.0</ele><time>2026-04-28T13:18:00.327Z</time></trkpt><trkpt lat="43.7656225" lon="17.1255074"><ele>1204.0</ele><time>2026-04-28T13:18:03.311Z</time></trkpt><trkpt lat="43.7655521" lon="17.1255611"><ele>1204.0</ele><time>2026-04-28T13:18:05.326Z</time></trkpt><trkpt lat="43.7654835" lon="17.1255676"><ele>1204.0</ele><time>2026-04-28T13:18:07.308Z</time></trkpt><trkpt lat="43.7654155" lon="17.1255472"><ele>1204.0</ele><time>2026-04-28T13:18:09.327Z</time></trkpt><trkpt lat="43.7653431" lon="17.1254848"><ele>1204.0</ele><time>2026-04-28T13:18:11.326Z</time></trkpt><trkpt lat="43.7652788" lon="17.1254324"><ele>1204.0</ele><time>2026-04-28T13:18:12.326Z</time></trkpt><trkpt lat="43.7651978" lon="17.1253675"><ele>1204.3333333333333</ele><time>2026-04-28T13:18:13.326Z</time></trkpt><trkpt lat="43.765121" lon="17.1253091"><ele>1204.6666666666665</ele><time>2026-04-28T13:18:14.326Z</time></trkpt><trkpt lat="43.7650444" lon="17.1252536"><ele>1205.0</ele><time>2026-04-28T13:18:15.327Z</time></trkpt><trkpt lat="43.7649719" lon="17.1251912"><ele>1205.3333333333333</ele><time>2026-04-28T13:18:16.326Z</time></trkpt><trkpt lat="43.7649074" lon="17.1251189"><ele>1205.6666666666667</ele><time>2026-04-28T13:18:17.326Z</time></trkpt><trkpt lat="43.7648521" lon="17.1250336"><ele>1206.0</ele><time>2026-04-28T13:18:18.326Z</time></trkpt><trkpt lat="43.7648024" lon="17.1249402"><ele>1207.5</ele><time>2026-04-28T13:18:19.326Z</time></trkpt><trkpt lat="43.7647534" lon="17.1248483"><ele>1209.0</ele><time>2026-04-28T13:18:20.327Z</time></trkpt><trkpt lat="43.7646977" lon="17.124769"><ele>1210.5</ele><time>2026-04-28T13:18:21.326Z</time></trkpt><trkpt lat="43.7646354" lon="17.1246874"><ele>1212.0</ele><time>2026-04-28T13:18:22.326Z</time></trkpt><trkpt lat="43.7645699" lon="17.124602"><ele>1213.5</ele><time>2026-04-28T13:18:23.326Z</time></trkpt><trkpt lat="43.7645079" lon="17.1244964"><ele>1215.0</ele><time>2026-04-28T13:18:24.326Z</time></trkpt><trkpt lat="43.7644467" lon="17.1243848"><ele>1215.0</ele><time>2026-04-28T13:18:25.326Z</time></trkpt><trkpt lat="43.7643903" lon="17.1242645"><ele>1215.0</ele><time>2026-04-28T13:18:26.326Z</time></trkpt><trkpt lat="43.7643302" lon="17.1241272"><ele>1215.0</ele><time>2026-04-28T13:18:27.326Z</time></trkpt><trkpt lat="43.7642714" lon="17.1239814"><ele>1215.0</ele><time>2026-04-28T13:18:28.326Z</time></trkpt><trkpt lat="43.7642163" lon="17.1238283"><ele>1214.75</ele><time>2026-04-28T13:18:29.326Z</time></trkpt><trkpt lat="43.7641683" lon="17.1236696"><ele>1214.5</ele><time>2026-04-28T13:18:30.326Z</time></trkpt><trkpt lat="43.7641254" lon="17.1235174"><ele>1214.25</ele><time>2026-04-28T13:18:31.326Z</time></trkpt><trkpt lat="43.7640742" lon="17.123378"><ele>1214.0</ele><time>2026-04-28T13:18:32.326Z</time></trkpt><trkpt lat="43.7640234" lon="17.1232419"><ele>1216.4</ele><time>2026-04-28T13:18:33.327Z</time></trkpt><trkpt lat="43.7639706" lon="17.1231135"><ele>1218.8000000000002</ele><time>2026-04-28T13:18:34.326Z</time></trkpt><trkpt lat="43.763921" lon="17.1229876"><ele>1221.1999999999998</ele><time>2026-04-28T13:18:35.326Z</time></trkpt><trkpt lat="43.7638668" lon="17.1228625"><ele>1223.6</ele><time>2026-04-28T13:18:36.326Z</time></trkpt><trkpt lat="43.7638135" lon="17.1227384"><ele>1226.0</ele><time>2026-04-28T13:18:37.326Z</time></trkpt><trkpt lat="43.763754" lon="17.1226056"><ele>1226.0</ele><time>2026-04-28T13:18:38.326Z</time></trkpt><trkpt lat="43.763694" lon="17.1224835"><ele>1226.0</ele><time>2026-04-28T13:18:39.326Z</time></trkpt><trkpt lat="43.7636339" lon="17.1223741"><ele>1226.0</ele><time>2026-04-28T13:18:40.326Z</time></trkpt><trkpt lat="43.7635689" lon="17.1222679"><ele>1226.0</ele><time>2026-04-28T13:18:41.326Z</time></trkpt><trkpt lat="43.7634953" lon="17.1221661"><ele>1226.0</ele><time>2026-04-28T13:18:42.326Z</time></trkpt><trkpt lat="43.7634046" lon="17.1220761"><ele>1228.0</ele><time>2026-04-28T13:18:43.327Z</time></trkpt><trkpt lat="43.7633217" lon="17.1219727"><ele>1230.0</ele><time>2026-04-28T13:18:44.327Z</time></trkpt><trkpt lat="43.7632397" lon="17.1218704"><ele>1232.0</ele><time>2026-04-28T13:18:45.326Z</time></trkpt><trkpt lat="43.7631636" lon="17.121749"><ele>1234.0</ele><time>2026-04-28T13:18:46.326Z</time></trkpt><trkpt lat="43.7630936" lon="17.1216162"><ele>1235.5</ele><time>2026-04-28T13:18:47.327Z</time></trkpt><trkpt lat="43.7630196" lon="17.1214893"><ele>1237.0</ele><time>2026-04-28T13:18:48.326Z</time></trkpt><trkpt lat="43.762932" lon="17.1213623"><ele>1238.5</ele><time>2026-04-28T13:18:49.326Z</time></trkpt><trkpt lat="43.7628375" lon="17.121232"><ele>1240.0</ele><time>2026-04-28T13:18:50.326Z</time></trkpt><trkpt lat="43.7627422" lon="17.1211119"><ele>1240.5</ele><time>2026-04-28T13:18:51.327Z</time></trkpt><trkpt lat="43.7626475" lon="17.1210014"><ele>1241.0</ele><time>2026-04-28T13:18:52.326Z</time></trkpt><trkpt lat="43.7625432" lon="17.1209056"><ele>1241.5</ele><time>2026-04-28T13:18:53.327Z</time></trkpt><trkpt lat="43.7624301" lon="17.1208042"><ele>1242.0</ele><time>2026-04-28T13:18:54.326Z</time></trkpt><trkpt lat="43.7623226" lon="17.1207067"><ele>1243.0</ele><time>2026-04-28T13:18:55.327Z</time></trkpt><trkpt lat="43.7622163" lon="17.1206"><ele>1244.0</ele><time>2026-04-28T13:18:56.326Z</time></trkpt><trkpt lat="43.762122" lon="17.120502"><ele>1245.0</ele><time>2026-04-28T13:18:57.326Z</time></trkpt><trkpt lat="43.7620472" lon="17.1204314"><ele>1246.0</ele><time>2026-04-28T13:18:58.326Z</time></trkpt><trkpt lat="43.7619825" lon="17.1203636"><ele>1247.0</ele><time>2026-04-28T13:18:59.326Z</time></trkpt><trkpt lat="43.7619159" lon="17.1203286"><ele>1247.0</ele><time>2026-04-28T13:19:00.326Z</time></trkpt><trkpt lat="43.7618491" lon="17.1203195"><ele>1247.0</ele><time>2026-04-28T13:19:01.326Z</time></trkpt><trkpt lat="43.7617762" lon="17.1203222"><ele>1247.0</ele><time>2026-04-28T13:19:02.326Z</time></trkpt><trkpt lat="43.7616926" lon="17.1203276"><ele>1247.0</ele><time>2026-04-28T13:19:03.326Z</time></trkpt><trkpt lat="43.7616029" lon="17.1203479"><ele>1247.0</ele><time>2026-04-28T13:19:04.326Z</time></trkpt><trkpt lat="43.7615089" lon="17.120384"><ele>1247.0</ele><time>2026-04-28T13:19:05.326Z</time></trkpt><trkpt lat="43.7614272" lon="17.1204376"><ele>1247.0</ele><time>2026-04-28T13:19:06.327Z</time></trkpt><trkpt lat="43.7613602" lon="17.1205194"><ele>1247.0</ele><time>2026-04-28T13:19:07.326Z</time></trkpt><trkpt lat="43.7613141" lon="17.1206054"><ele>1247.0</ele><time>2026-04-28T13:19:08.326Z</time></trkpt><trkpt lat="43.7612727" lon="17.1207119"><ele>1247.0</ele><time>2026-04-28T13:19:09.327Z</time></trkpt><trkpt lat="43.7612265" lon="17.1208448"><ele>1247.0</ele><time>2026-04-28T13:19:10.326Z</time></trkpt><trkpt lat="43.7611712" lon="17.1210214"><ele>1247.0</ele><time>2026-04-28T13:19:11.327Z</time></trkpt><trkpt lat="43.7611234" lon="17.121157"><ele>1247.0</ele><time>2026-04-28T13:19:12.327Z</time></trkpt><trkpt lat="43.7610548" lon="17.1212673"><ele>1247.0</ele><time>2026-04-28T13:19:13.327Z</time></trkpt><trkpt lat="43.7609812" lon="17.1213737"><ele>1247.0</ele><time>2026-04-28T13:19:14.327Z</time></trkpt><trkpt lat="43.760895" lon="17.1214786"><ele>1247.0</ele><time>2026-04-28T13:19:15.326Z</time></trkpt><trkpt lat="43.760801" lon="17.1215833"><ele>1246.5</ele><time>2026-04-28T13:19:16.327Z</time></trkpt><trkpt lat="43.7607114" lon="17.1216798"><ele>1246.0</ele><time>2026-04-28T13:19:17.326Z</time></trkpt><trkpt lat="43.7606069" lon="17.121797"><ele>1245.5</ele><time>2026-04-28T13:19:18.326Z</time></trkpt><trkpt lat="43.760505" lon="17.121882"><ele>1245.0</ele><time>2026-04-28T13:19:19.326Z</time></trkpt><trkpt lat="43.7603986" lon="17.12199"><ele>1245.0</ele><time>2026-04-28T13:19:20.327Z</time></trkpt><trkpt lat="43.7602992" lon="17.1220806"><ele>1245.0</ele><time>2026-04-28T13:19:21.327Z</time></trkpt><trkpt lat="43.7602135" lon="17.1221647"><ele>1245.0</ele><time>2026-04-28T13:19:22.326Z</time></trkpt><trkpt lat="43.7601417" lon="17.1222455"><ele>1245.0</ele><time>2026-04-28T13:19:23.327Z</time></trkpt><trkpt lat="43.7600538" lon="17.1223744"><ele>1245.0</ele><time>2026-04-28T13:19:24.326Z</time></trkpt><trkpt lat="43.7599837" lon="17.1224857"><ele>1244.8</ele><time>2026-04-28T13:19:25.326Z</time></trkpt><trkpt lat="43.7599144" lon="17.1226142"><ele>1244.6</ele><time>2026-04-28T13:19:26.327Z</time></trkpt><trkpt lat="43.75985" lon="17.1227351"><ele>1244.4</ele><time>2026-04-28T13:19:27.327Z</time></trkpt><trkpt lat="43.7597959" lon="17.1228471"><ele>1244.2</ele><time>2026-04-28T13:19:28.326Z</time></trkpt><trkpt lat="43.7597562" lon="17.1229475"><ele>1244.0</ele><time>2026-04-28T13:19:29.326Z</time></trkpt><trkpt lat="43.7597205" lon="17.1230452"><ele>1244.0</ele><time>2026-04-28T13:19:30.327Z</time></trkpt><trkpt lat="43.7596849" lon="17.1231447"><ele>1244.0</ele><time>2026-04-28T13:19:31.326Z</time></trkpt><trkpt lat="43.7596392" lon="17.1232715"><ele>1244.0</ele><time>2026-04-28T13:19:32.327Z</time></trkpt><trkpt lat="43.7596257" lon="17.123376"><ele>1244.0</ele><time>2026-04-28T13:19:33.326Z</time></trkpt><trkpt lat="43.7596008" lon="17.1234637"><ele>1244.0</ele><time>2026-04-28T13:19:34.327Z</time></trkpt><trkpt lat="43.7595831" lon="17.1235613"><ele>1244.0</ele><time>2026-04-28T13:19:35.326Z</time></trkpt><trkpt lat="43.7595732" lon="17.1236586"><ele>1243.6666666666667</ele><time>2026-04-28T13:19:36.326Z</time></trkpt><trkpt lat="43.7595687" lon="17.1237649"><ele>1243.3333333333335</ele><time>2026-04-28T13:19:37.326Z</time></trkpt><trkpt lat="43.7595641" lon="17.123863"><ele>1243.0</ele><time>2026-04-28T13:19:38.326Z</time></trkpt><trkpt lat="43.7595556" lon="17.1239518"><ele>1242.6666666666667</ele><time>2026-04-28T13:19:39.326Z</time></trkpt><trkpt lat="43.7595067" lon="17.1240825"><ele>1242.3333333333333</ele><time>2026-04-28T13:19:41.326Z</time></trkpt><trkpt lat="43.7594538" lon="17.1241436"><ele>1242.0</ele><time>2026-04-28T13:19:42.326Z</time></trkpt><trkpt lat="43.7593952" lon="17.1242141"><ele>1246.8333333333333</ele><time>2026-04-28T13:19:43.326Z</time></trkpt><trkpt lat="43.7593232" lon="17.1242993"><ele>1251.6666666666667</ele><time>2026-04-28T13:19:44.326Z</time></trkpt><trkpt lat="43.7592583" lon="17.1243873"><ele>1256.5</ele><time>2026-04-28T13:19:45.326Z</time></trkpt><trkpt lat="43.7592214" lon="17.1244658"><ele>1261.3333333333335</ele><time>2026-04-28T13:19:46.326Z</time></trkpt><trkpt lat="43.7591745" lon="17.1245669"><ele>1266.1666666666667</ele><time>2026-04-28T13:19:47.326Z</time></trkpt><trkpt lat="43.7591483" lon="17.1246614"><ele>1271.0</ele><time>2026-04-28T13:19:48.326Z</time></trkpt><trkpt lat="43.7591176" lon="17.12475"><ele>1271.0</ele><time>2026-04-28T13:19:49.326Z</time></trkpt><trkpt lat="43.7590859" lon="17.1248291"><ele>1271.0</ele><time>2026-04-28T13:19:50.326Z</time></trkpt><trkpt lat="43.7590122" lon="17.1249475"><ele>1271.0</ele><time>2026-04-28T13:19:52.326Z</time></trkpt><trkpt lat="43.7589234" lon="17.1249886"><ele>1271.0</ele><time>2026-04-28T13:19:54.326Z</time></trkpt><trkpt lat="43.7588546" lon="17.1250045"><ele>1271.0</ele><time>2026-04-28T13:19:55.326Z</time></trkpt><trkpt lat="43.7587885" lon="17.1250028"><ele>1271.0</ele><time>2026-04-28T13:19:56.327Z</time></trkpt><trkpt lat="43.7587103" lon="17.1249722"><ele>1271.8333333333335</ele><time>2026-04-28T13:19:57.326Z</time></trkpt><trkpt lat="43.7586235" lon="17.1249549"><ele>1272.6666666666667</ele><time>2026-04-28T13:19:58.327Z</time></trkpt><trkpt lat="43.7585514" lon="17.1249521"><ele>1273.5</ele><time>2026-04-28T13:19:59.326Z</time></trkpt><trkpt lat="43.7584853" lon="17.1249658"><ele>1274.3333333333333</ele><time>2026-04-28T13:20:00.326Z</time></trkpt><trkpt lat="43.7584162" lon="17.1250019"><ele>1275.1666666666665</ele><time>2026-04-28T13:20:01.326Z</time></trkpt><trkpt lat="43.7583188" lon="17.1251019"><ele>1276.0</ele><time>2026-04-28T13:20:03.326Z</time></trkpt><trkpt lat="43.7582749" lon="17.125173"><ele>1277.4</ele><time>2026-04-28T13:20:04.326Z</time></trkpt><trkpt lat="43.7582401" lon="17.1252645"><ele>1278.8</ele><time>2026-04-28T13:20:05.327Z</time></trkpt><trkpt lat="43.7582162" lon="17.1253658"><ele>1280.2</ele><time>2026-04-28T13:20:06.326Z</time></trkpt><trkpt lat="43.7581964" lon="17.1254895"><ele>1281.6000000000001</ele><time>2026-04-28T13:20:07.326Z</time></trkpt><trkpt lat="43.7581767" lon="17.1256357"><ele>1283.0</ele><time>2026-04-28T13:20:08.326Z</time></trkpt><trkpt lat="43.7581606" lon="17.1257745"><ele>1283.5714285714287</ele><time>2026-04-28T13:20:09.326Z</time></trkpt><trkpt lat="43.7581462" lon="17.125887"><ele>1284.142857142857</ele><time>2026-04-28T13:20:10.326Z</time></trkpt><trkpt lat="43.7581333" lon="17.1259768"><ele>1284.7142857142858</ele><time>2026-04-28T13:20:11.323Z</time></trkpt><trkpt lat="43.7581436" lon="17.1260719"><ele>1285.2857142857142</ele><time>2026-04-28T13:20:12.326Z</time></trkpt><trkpt lat="43.758165" lon="17.1261635"><ele>1285.857142857143</ele><time>2026-04-28T13:20:13.327Z</time></trkpt><trkpt lat="43.7582001" lon="17.1262591"><ele>1286.4285714285713</ele><time>2026-04-28T13:20:14.326Z</time></trkpt><trkpt lat="43.7582563" lon="17.1263379"><ele>1287.0</ele><time>2026-04-28T13:20:15.326Z</time></trkpt><trkpt lat="43.7583354" lon="17.1263998"><ele>1287.0</ele><time>2026-04-28T13:20:16.326Z</time></trkpt><trkpt lat="43.758422" lon="17.1264376"><ele>1287.0</ele><time>2026-04-28T13:20:17.327Z</time></trkpt><trkpt lat="43.7585179" lon="17.1264628"><ele>1287.0</ele><time>2026-04-28T13:20:18.327Z</time></trkpt><trkpt lat="43.7585991" lon="17.1264973"><ele>1287.0</ele><time>2026-04-28T13:20:19.326Z</time></trkpt><trkpt lat="43.7586576" lon="17.1265458"><ele>1287.0</ele><time>2026-04-28T13:20:20.326Z</time></trkpt><trkpt lat="43.7587" lon="17.1266205"><ele>1287.0</ele><time>2026-04-28T13:20:21.326Z</time></trkpt><trkpt lat="43.7587198" lon="17.1267144"><ele>1287.8</ele><time>2026-04-28T13:20:22.327Z</time></trkpt><trkpt lat="43.7587278" lon="17.1268401"><ele>1288.6</ele><time>2026-04-28T13:20:23.327Z</time></trkpt><trkpt lat="43.7587262" lon="17.1269801"><ele>1289.3999999999999</ele><time>2026-04-28T13:20:24.326Z</time></trkpt><trkpt lat="43.7587196" lon="17.1270938"><ele>1290.1999999999998</ele><time>2026-04-28T13:20:25.327Z</time></trkpt><trkpt lat="43.7586824" lon="17.1272661"><ele>1291.0</ele><time>2026-04-28T13:20:27.326Z</time></trkpt><trkpt lat="43.7585073" lon="17.1273651"><ele>1291.4</ele><time>2026-04-28T13:20:29.326Z</time></trkpt><trkpt lat="43.7584209" lon="17.1274177"><ele>1291.8</ele><time>2026-04-28T13:20:30.327Z</time></trkpt><trkpt lat="43.7583424" lon="17.1274701"><ele>1292.2</ele><time>2026-04-28T13:20:31.326Z</time></trkpt><trkpt lat="43.7582796" lon="17.127528"><ele>1292.6000000000001</ele><time>2026-04-28T13:20:32.327Z</time></trkpt><trkpt lat="43.7582251" lon="17.1275874"><ele>1293.0</ele><time>2026-04-28T13:20:33.326Z</time></trkpt><trkpt lat="43.7581552" lon="17.127757"><ele>1293.0</ele><time>2026-04-28T13:20:35.326Z</time></trkpt><trkpt lat="43.7581386" lon="17.1278703"><ele>1293.0</ele><time>2026-04-28T13:20:36.326Z</time></trkpt><trkpt lat="43.7581167" lon="17.1279826"><ele>1293.0</ele><time>2026-04-28T13:20:37.327Z</time></trkpt><trkpt lat="43.7580858" lon="17.1280937"><ele>1293.0</ele><time>2026-04-28T13:20:38.326Z</time></trkpt><trkpt lat="43.7580734" lon="17.1281947"><ele>1293.0</ele><time>2026-04-28T13:20:39.327Z</time></trkpt><trkpt lat="43.7580792" lon="17.1282957"><ele>1293.0</ele><time>2026-04-28T13:20:40.326Z</time></trkpt><trkpt lat="43.7580981" lon="17.1283979"><ele>1294.3333333333333</ele><time>2026-04-28T13:20:41.326Z</time></trkpt><trkpt lat="43.7581321" lon="17.1284983"><ele>1295.6666666666667</ele><time>2026-04-28T13:20:42.326Z</time></trkpt><trkpt lat="43.7581761" lon="17.1286041"><ele>1297.0</ele><time>2026-04-28T13:20:43.327Z</time></trkpt><trkpt lat="43.7582181" lon="17.1287176"><ele>1298.3333333333335</ele><time>2026-04-28T13:20:44.327Z</time></trkpt><trkpt lat="43.7582805" lon="17.1288049"><ele>1299.6666666666667</ele><time>2026-04-28T13:20:45.326Z</time></trkpt><trkpt lat="43.7583519" lon="17.1288703"><ele>1301.0</ele><time>2026-04-28T13:20:46.326Z</time></trkpt><trkpt lat="43.7584337" lon="17.1289133"><ele>1301.0</ele><time>2026-04-28T13:20:47.326Z</time></trkpt><trkpt lat="43.758514" lon="17.1289327"><ele>1301.0</ele><time>2026-04-28T13:20:48.327Z</time></trkpt><trkpt lat="43.7585989" lon="17.1289509"><ele>1301.0</ele><time>2026-04-28T13:20:49.327Z</time></trkpt><trkpt lat="43.7586604" lon="17.1289909"><ele>1301.0</ele><time>2026-04-28T13:20:50.326Z</time></trkpt><trkpt lat="43.7587614" lon="17.1291362"><ele>1301.0</ele><time>2026-04-28T13:20:52.326Z</time></trkpt><trkpt lat="43.7587988" lon="17.1292387"><ele>1302.8</ele><time>2026-04-28T13:20:53.326Z</time></trkpt><trkpt lat="43.7588206" lon="17.1293475"><ele>1304.6</ele><time>2026-04-28T13:20:54.326Z</time></trkpt><trkpt lat="43.7588264" lon="17.1294424"><ele>1306.4</ele><time>2026-04-28T13:20:55.326Z</time></trkpt><trkpt lat="43.7587971" lon="17.1296014"><ele>1308.2</ele><time>2026-04-28T13:20:57.327Z</time></trkpt><trkpt lat="43.7587268" lon="17.1297643"><ele>1310.0</ele><time>2026-04-28T13:20:59.326Z</time></trkpt><trkpt lat="43.7587093" lon="17.1299698"><ele>1312.0</ele><time>2026-04-28T13:21:01.327Z</time></trkpt><trkpt lat="43.7586945" lon="17.130092"><ele>1314.0</ele><time>2026-04-28T13:21:02.326Z</time></trkpt><trkpt lat="43.7586697" lon="17.1302234"><ele>1316.0</ele><time>2026-04-28T13:21:03.326Z</time></trkpt><trkpt lat="43.758658" lon="17.1303478"><ele>1318.0</ele><time>2026-04-28T13:21:04.326Z</time></trkpt><trkpt lat="43.7586509" lon="17.130469"><ele>1320.0</ele><time>2026-04-28T13:21:05.326Z</time></trkpt><trkpt lat="43.7586651" lon="17.1305896"><ele>1320.0</ele><time>2026-04-28T13:21:06.326Z</time></trkpt><trkpt lat="43.7586882" lon="17.1307052"><ele>1320.0</ele><time>2026-04-28T13:21:07.327Z</time></trkpt><trkpt lat="43.758735" lon="17.1308146"><ele>1320.0</ele><time>2026-04-28T13:21:08.326Z</time></trkpt><trkpt lat="43.7587761" lon="17.1309174"><ele>1320.0</ele><time>2026-04-28T13:21:09.327Z</time></trkpt><trkpt lat="43.758808" lon="17.1310262"><ele>1320.0</ele><time>2026-04-28T13:21:10.326Z</time></trkpt><trkpt lat="43.7588182" lon="17.1311352"><ele>1320.0</ele><time>2026-04-28T13:21:11.325Z</time></trkpt><trkpt lat="43.7588195" lon="17.1312594"><ele>1322.0</ele><time>2026-04-28T13:21:12.326Z</time></trkpt><trkpt lat="43.7588123" lon="17.1314137"><ele>1324.0</ele><time>2026-04-28T13:21:13.326Z</time></trkpt><trkpt lat="43.7588151" lon="17.1315688"><ele>1326.0</ele><time>2026-04-28T13:21:14.326Z</time></trkpt><trkpt lat="43.7588095" lon="17.1316951"><ele>1328.0</ele><time>2026-04-28T13:21:15.326Z</time></trkpt><trkpt lat="43.758795" lon="17.1317979"><ele>1330.0</ele><time>2026-04-28T13:21:16.326Z</time></trkpt><trkpt lat="43.7587701" lon="17.1318815"><ele>1330.5</ele><time>2026-04-28T13:21:17.327Z</time></trkpt><trkpt lat="43.7587245" lon="17.1319605"><ele>1331.0</ele><time>2026-04-28T13:21:18.326Z</time></trkpt><trkpt lat="43.7586584" lon="17.1320464"><ele>1331.5</ele><time>2026-04-28T13:21:19.326Z</time></trkpt><trkpt lat="43.7585889" lon="17.1321458"><ele>1332.0</ele><time>2026-04-28T13:21:20.327Z</time></trkpt><trkpt lat="43.7585277" lon="17.1322243"><ele>1332.5</ele><time>2026-04-28T13:21:21.326Z</time></trkpt><trkpt lat="43.7584602" lon="17.1323259"><ele>1333.0</ele><time>2026-04-28T13:21:22.326Z</time></trkpt><trkpt lat="43.75842" lon="17.1324205"><ele>1331.8000000000002</ele><time>2026-04-28T13:21:23.326Z</time></trkpt><trkpt lat="43.758387" lon="17.1325411"><ele>1330.6</ele><time>2026-04-28T13:21:24.326Z</time></trkpt><trkpt lat="43.758354" lon="17.1326607"><ele>1329.4</ele><time>2026-04-28T13:21:25.326Z</time></trkpt><trkpt lat="43.7583156" lon="17.1327926"><ele>1328.1999999999998</ele><time>2026-04-28T13:21:26.327Z</time></trkpt><trkpt lat="43.7582999" lon="17.1329706"><ele>1327.0</ele><time>2026-04-28T13:21:27.327Z</time></trkpt><trkpt lat="43.7582647" lon="17.1330785"><ele>1327.0</ele><time>2026-04-28T13:21:28.326Z</time></trkpt><trkpt lat="43.7582469" lon="17.1332086"><ele>1327.0</ele><time>2026-04-28T13:21:29.326Z</time></trkpt><trkpt lat="43.7582273" lon="17.1333228"><ele>1327.0</ele><time>2026-04-28T13:21:30.326Z</time></trkpt><trkpt lat="43.7582325" lon="17.1334385"><ele>1327.0</ele><time>2026-04-28T13:21:31.326Z</time></trkpt><trkpt lat="43.7582489" lon="17.1335556"><ele>1327.0</ele><time>2026-04-28T13:21:32.327Z</time></trkpt><trkpt lat="43.7582637" lon="17.1336691"><ele>1327.0</ele><time>2026-04-28T13:21:33.326Z</time></trkpt><trkpt lat="43.7582731" lon="17.1337672"><ele>1327.6</ele><time>2026-04-28T13:21:34.326Z</time></trkpt><trkpt lat="43.7582378" lon="17.1339328"><ele>1328.1999999999998</ele><time>2026-04-28T13:21:36.326Z</time></trkpt><trkpt lat="43.7581952" lon="17.1340198"><ele>1328.8</ele><time>2026-04-28T13:21:37.326Z</time></trkpt><trkpt lat="43.7581312" lon="17.1341215"><ele>1329.4</ele><time>2026-04-28T13:21:38.326Z</time></trkpt><trkpt lat="43.7580769" lon="17.1342169"><ele>1330.0</ele><time>2026-04-28T13:21:39.326Z</time></trkpt><trkpt lat="43.7580074" lon="17.1343103"><ele>1330.1666666666665</ele><time>2026-04-28T13:21:40.326Z</time></trkpt><trkpt lat="43.7579429" lon="17.134406"><ele>1330.3333333333333</ele><time>2026-04-28T13:21:41.326Z</time></trkpt><trkpt lat="43.7578969" lon="17.1345002"><ele>1330.5</ele><time>2026-04-28T13:21:42.326Z</time></trkpt><trkpt lat="43.7578656" lon="17.1345927"><ele>1330.6666666666667</ele><time>2026-04-28T13:21:43.326Z</time></trkpt><trkpt lat="43.7578445" lon="17.1346753"><ele>1330.8333333333335</ele><time>2026-04-28T13:21:44.326Z</time></trkpt><trkpt lat="43.7578609" lon="17.1347844"><ele>1331.0</ele><time>2026-04-28T13:21:46.326Z</time></trkpt><trkpt lat="43.7579115" lon="17.134878"><ele>1331.0</ele><time>2026-04-28T13:22:27.326Z</time></trkpt><trkpt lat="43.7580327" lon="17.1349048"><ele>1331.0</ele><time>2026-04-28T13:22:29.326Z</time></trkpt><trkpt lat="43.7581186" lon="17.1348745"><ele>1331.0</ele><time>2026-04-28T13:22:30.326Z</time></trkpt><trkpt lat="43.7582073" lon="17.1348431"><ele>1331.0</ele><time>2026-04-28T13:22:31.326Z</time></trkpt><trkpt lat="43.7582731" lon="17.1348383"><ele>1331.0</ele><time>2026-04-28T13:22:32.326Z</time></trkpt><trkpt lat="43.7583367" lon="17.134842"><ele>1331.0</ele><time>2026-04-28T13:22:33.327Z</time></trkpt><trkpt lat="43.7584211" lon="17.1349486"><ele>1331.1999999999998</ele><time>2026-04-28T13:22:35.326Z</time></trkpt><trkpt lat="43.7584489" lon="17.1350701"><ele>1331.3999999999999</ele><time>2026-04-28T13:22:36.326Z</time></trkpt><trkpt lat="43.758482" lon="17.135164"><ele>1331.6</ele><time>2026-04-28T13:22:37.326Z</time></trkpt><trkpt lat="43.7585377" lon="17.1352206"><ele>1331.8</ele><time>2026-04-28T13:22:38.326Z</time></trkpt><trkpt lat="43.7586289" lon="17.1352706"><ele>1332.0</ele><time>2026-04-28T13:22:39.326Z</time></trkpt><trkpt lat="43.7587528" lon="17.1353327"><ele>1332.0</ele><time>2026-04-28T13:22:40.326Z</time></trkpt><trkpt lat="43.7588633" lon="17.1353953"><ele>1332.0</ele><time>2026-04-28T13:22:41.326Z</time></trkpt><trkpt lat="43.7589531" lon="17.1354588"><ele>1332.0</ele><time>2026-04-28T13:22:42.326Z</time></trkpt><trkpt lat="43.7590305" lon="17.135534"><ele>1332.0</ele><time>2026-04-28T13:22:43.326Z</time></trkpt><trkpt lat="43.7590901" lon="17.1356269"><ele>1332.0</ele><time>2026-04-28T13:22:44.327Z</time></trkpt><trkpt lat="43.7591298" lon="17.1357292"><ele>1330.0</ele><time>2026-04-28T13:22:45.326Z</time></trkpt><trkpt lat="43.7591523" lon="17.1358306"><ele>1328.0</ele><time>2026-04-28T13:22:46.327Z</time></trkpt><trkpt lat="43.7591623" lon="17.1359208"><ele>1326.0</ele><time>2026-04-28T13:22:47.327Z</time></trkpt><trkpt lat="43.7591454" lon="17.1360771"><ele>1324.0</ele><time>2026-04-28T13:22:49.326Z</time></trkpt><trkpt lat="43.7590858" lon="17.1362327"><ele>1322.0</ele><time>2026-04-28T13:22:51.326Z</time></trkpt><trkpt lat="43.7590594" lon="17.1363494"><ele>1322.0</ele><time>2026-04-28T13:22:52.327Z</time></trkpt><trkpt lat="43.7590404" lon="17.1364535"><ele>1322.0</ele><time>2026-04-28T13:22:53.326Z</time></trkpt><trkpt lat="43.7590178" lon="17.1365828"><ele>1322.0</ele><time>2026-04-28T13:22:55.326Z</time></trkpt><trkpt lat="43.7590038" lon="17.1366919"><ele>1322.0</ele><time>2026-04-28T13:22:58.327Z</time></trkpt><trkpt lat="43.7589489" lon="17.1367837"><ele>1322.0</ele><time>2026-04-28T13:23:01.327Z</time></trkpt><trkpt lat="43.7589687" lon="17.1368759"><ele>1322.0</ele><time>2026-04-28T13:23:13.326Z</time></trkpt><trkpt lat="43.759013" lon="17.1367302"><ele>1322.0</ele><time>2026-04-28T13:23:16.326Z</time></trkpt><trkpt lat="43.7590282" lon="17.136618"><ele>1322.0</ele><time>2026-04-28T13:23:18.326Z</time></trkpt><trkpt lat="43.7590569" lon="17.136512"><ele>1322.0</ele><time>2026-04-28T13:23:20.327Z</time></trkpt><trkpt lat="43.7591547" lon="17.1365436"><ele>1322.0</ele><time>2026-04-28T13:23:23.326Z</time></trkpt><trkpt lat="43.7592271" lon="17.136574"><ele>1322.0</ele><time>2026-04-28T13:23:25.327Z</time></trkpt><trkpt lat="43.7592928" lon="17.1366241"><ele>1322.0</ele><time>2026-04-28T13:23:27.326Z</time></trkpt><trkpt lat="43.7593578" lon="17.1366917"><ele>1320.0</ele><time>2026-04-28T13:23:29.327Z</time></trkpt><trkpt lat="43.7594407" lon="17.1367675"><ele>1318.0</ele><time>2026-04-28T13:23:31.326Z</time></trkpt><trkpt lat="43.7595125" lon="17.1368276"><ele>1316.0</ele><time>2026-04-28T13:23:33.326Z</time></trkpt><trkpt lat="43.7595784" lon="17.1368768"><ele>1314.0</ele><time>2026-04-28T13:23:35.326Z</time></trkpt><trkpt lat="43.7596419" lon="17.1369164"><ele>1312.0</ele><time>2026-04-28T13:23:37.326Z</time></trkpt><trkpt lat="43.7597299" lon="17.1369693"><ele>1310.0</ele><time>2026-04-28T13:23:40.327Z</time></trkpt><trkpt lat="43.7597756" lon="17.1370394"><ele>1310.0</ele><time>2026-04-28T13:23:42.326Z</time></trkpt><trkpt lat="43.7598119" lon="17.137113"><ele>1310.0</ele><time>2026-04-28T13:23:44.326Z</time></trkpt><trkpt lat="43.7598455" lon="17.1371871"><ele>1310.0</ele><time>2026-04-28T13:23:46.326Z</time></trkpt><trkpt lat="43.7598837" lon="17.1373062"><ele>1310.0</ele><time>2026-04-28T13:23:49.326Z</time></trkpt><trkpt lat="43.7599104" lon="17.137406"><ele>1310.0</ele><time>2026-04-28T13:23:51.326Z</time></trkpt><trkpt lat="43.7599674" lon="17.1374964"><ele>1310.0</ele><time>2026-04-28T13:23:53.326Z</time></trkpt><trkpt lat="43.7600911" lon="17.1375"><ele>1310.8333333333335</ele><time>2026-04-28T13:23:55.327Z</time></trkpt><trkpt lat="43.7601576" lon="17.1374805"><ele>1311.6666666666667</ele><time>2026-04-28T13:23:56.326Z</time></trkpt><trkpt lat="43.7602198" lon="17.1374666"><ele>1312.5</ele><time>2026-04-28T13:23:57.326Z</time></trkpt><trkpt lat="43.7602974" lon="17.1374756"><ele>1313.3333333333333</ele><time>2026-04-28T13:23:59.327Z</time></trkpt><trkpt lat="43.7603908" lon="17.1375052"><ele>1314.1666666666665</ele><time>2026-04-28T13:24:01.326Z</time></trkpt><trkpt lat="43.7604615" lon="17.1375616"><ele>1315.0</ele><time>2026-04-28T13:24:03.326Z</time></trkpt><trkpt lat="43.7605079" lon="17.1376285"><ele>1311.6</ele><time>2026-04-28T13:24:05.326Z</time></trkpt><trkpt lat="43.7605449" lon="17.1377202"><ele>1308.2</ele><time>2026-04-28T13:24:07.326Z</time></trkpt><trkpt lat="43.7605753" lon="17.1378672"><ele>1304.8000000000002</ele><time>2026-04-28T13:24:09.327Z</time></trkpt><trkpt lat="43.7606157" lon="17.1380036"><ele>1301.4</ele><time>2026-04-28T13:24:11.326Z</time></trkpt><trkpt lat="43.7606522" lon="17.1381052"><ele>1298.0</ele><time>2026-04-28T13:24:13.326Z</time></trkpt><trkpt lat="43.7606967" lon="17.1382046"><ele>1298.8333333333335</ele><time>2026-04-28T13:24:15.326Z</time></trkpt><trkpt lat="43.7607408" lon="17.1383207"><ele>1299.6666666666667</ele><time>2026-04-28T13:24:17.326Z</time></trkpt><trkpt lat="43.7607663" lon="17.1384284"><ele>1300.5</ele><time>2026-04-28T13:24:19.326Z</time></trkpt><trkpt lat="43.7607788" lon="17.1385337"><ele>1301.3333333333333</ele><time>2026-04-28T13:24:21.326Z</time></trkpt><trkpt lat="43.7607838" lon="17.1386684"><ele>1302.1666666666665</ele><time>2026-04-28T13:24:23.327Z</time></trkpt><trkpt lat="43.7607871" lon="17.1387699"><ele>1303.0</ele><time>2026-04-28T13:24:25.327Z</time></trkpt><trkpt lat="43.7607959" lon="17.1388596"><ele>1303.0</ele><time>2026-04-28T13:24:28.327Z</time></trkpt><trkpt lat="43.7608222" lon="17.1389624"><ele>1303.0</ele><time>2026-04-28T13:24:32.326Z</time></trkpt><trkpt lat="43.7608656" lon="17.1390391"><ele>1303.0</ele><time>2026-04-28T13:24:35.327Z</time></trkpt><trkpt lat="43.7609479" lon="17.1391138"><ele>1303.0</ele><time>2026-04-28T13:24:37.327Z</time></trkpt><trkpt lat="43.7610284" lon="17.139186"><ele>1303.0</ele><time>2026-04-28T13:24:39.327Z</time></trkpt><trkpt lat="43.7610852" lon="17.1392845"><ele>1303.0</ele><time>2026-04-28T13:24:41.326Z</time></trkpt><trkpt lat="43.7611221" lon="17.1393681"><ele>1302.8333333333333</ele><time>2026-04-28T13:24:43.326Z</time></trkpt><trkpt lat="43.7611407" lon="17.1394719"><ele>1302.6666666666665</ele><time>2026-04-28T13:24:46.327Z</time></trkpt><trkpt lat="43.7611185" lon="17.1395585"><ele>1302.5</ele><time>2026-04-28T13:24:48.326Z</time></trkpt><trkpt lat="43.7610957" lon="17.1396761"><ele>1302.3333333333333</ele><time>2026-04-28T13:24:50.326Z</time></trkpt><trkpt lat="43.7610657" lon="17.1397672"><ele>1302.1666666666667</ele><time>2026-04-28T13:24:52.327Z</time></trkpt><trkpt lat="43.7609919" lon="17.1398347"><ele>1302.0</ele><time>2026-04-28T13:24:55.326Z</time></trkpt><trkpt lat="43.7609316" lon="17.1398688"><ele>1302.8</ele><time>2026-04-28T13:24:57.326Z</time></trkpt><trkpt lat="43.7608841" lon="17.1399284"><ele>1303.6</ele><time>2026-04-28T13:24:59.326Z</time></trkpt><trkpt lat="43.7608483" lon="17.1400504"><ele>1304.3999999999999</ele><time>2026-04-28T13:25:01.326Z</time></trkpt><trkpt lat="43.7608037" lon="17.1401518"><ele>1305.1999999999998</ele><time>2026-04-28T13:25:03.326Z</time></trkpt><trkpt lat="43.7607551" lon="17.1402824"><ele>1306.0</ele><time>2026-04-28T13:25:05.326Z</time></trkpt><trkpt lat="43.7607196" lon="17.1404163"><ele>1306.0</ele><time>2026-04-28T13:25:07.326Z</time></trkpt><trkpt lat="43.760708" lon="17.1405635"><ele>1306.0</ele><time>2026-04-28T13:25:09.326Z</time></trkpt><trkpt lat="43.7607038" lon="17.1407203"><ele>1306.0</ele><time>2026-04-28T13:25:11.326Z</time></trkpt><trkpt lat="43.7606833" lon="17.1408688"><ele>1306.0</ele><time>2026-04-28T13:25:13.326Z</time></trkpt><trkpt lat="43.7606439" lon="17.1410078"><ele>1306.0</ele><time>2026-04-28T13:25:15.326Z</time></trkpt><trkpt lat="43.7606031" lon="17.1411563"><ele>1307.0</ele><time>2026-04-28T13:25:17.326Z</time></trkpt><trkpt lat="43.7605791" lon="17.1413112"><ele>1308.0</ele><time>2026-04-28T13:25:19.326Z</time></trkpt><trkpt lat="43.7605551" lon="17.1414055"><ele>1309.0</ele><time>2026-04-28T13:25:20.326Z</time></trkpt><trkpt lat="43.7605422" lon="17.1414939"><ele>1310.0</ele><time>2026-04-28T13:25:21.327Z</time></trkpt><trkpt lat="43.7605263" lon="17.1415874"><ele>1311.0</ele><time>2026-04-28T13:25:22.326Z</time></trkpt><trkpt lat="43.7604999" lon="17.1416872"><ele>1312.0</ele><time>2026-04-28T13:25:23.326Z</time></trkpt><trkpt lat="43.7604677" lon="17.1417662"><ele>1313.1999999999998</ele><time>2026-04-28T13:25:24.326Z</time></trkpt><trkpt lat="43.7604372" lon="17.1418512"><ele>1314.4</ele><time>2026-04-28T13:25:25.327Z</time></trkpt><trkpt lat="43.7603962" lon="17.1419942"><ele>1315.6</ele><time>2026-04-28T13:25:27.326Z</time></trkpt><trkpt lat="43.7603412" lon="17.1421789"><ele>1316.8000000000002</ele><time>2026-04-28T13:25:29.327Z</time></trkpt><trkpt lat="43.7603142" lon="17.1422649"><ele>1318.0</ele><time>2026-04-28T13:25:30.326Z</time></trkpt><trkpt lat="43.7602782" lon="17.1424192"><ele>1318.8000000000002</ele><time>2026-04-28T13:25:32.326Z</time></trkpt><trkpt lat="43.7602311" lon="17.1425755"><ele>1319.6</ele><time>2026-04-28T13:25:34.327Z</time></trkpt><trkpt lat="43.7602135" lon="17.1426911"><ele>1320.4</ele><time>2026-04-28T13:25:36.326Z</time></trkpt><trkpt lat="43.7602393" lon="17.1428231"><ele>1321.1999999999998</ele><time>2026-04-28T13:25:38.326Z</time></trkpt><trkpt lat="43.7602745" lon="17.1429509"><ele>1322.0</ele><time>2026-04-28T13:25:40.326Z</time></trkpt><trkpt lat="43.760288" lon="17.1430802"><ele>1323.6</ele><time>2026-04-28T13:25:42.327Z</time></trkpt><trkpt lat="43.7602776" lon="17.1432452"><ele>1325.1999999999998</ele><time>2026-04-28T13:25:44.327Z</time></trkpt><trkpt lat="43.7602559" lon="17.1433905"><ele>1326.8</ele><time>2026-04-28T13:25:46.326Z</time></trkpt><trkpt lat="43.7602266" lon="17.1435396"><ele>1328.4</ele><time>2026-04-28T13:25:48.326Z</time></trkpt><trkpt lat="43.7602105" lon="17.1436266"><ele>1330.0</ele><time>2026-04-28T13:25:49.326Z</time></trkpt><trkpt lat="43.7601981" lon="17.1437151"><ele>1330.0</ele><time>2026-04-28T13:25:50.327Z</time></trkpt><trkpt lat="43.7601811" lon="17.1438033"><ele>1330.0</ele><time>2026-04-28T13:25:51.327Z</time></trkpt><trkpt lat="43.7601802" lon="17.1439621"><ele>1330.0</ele><time>2026-04-28T13:25:53.327Z</time></trkpt><trkpt lat="43.7601673" lon="17.1440609"><ele>1330.0</ele><time>2026-04-28T13:25:55.326Z</time></trkpt><trkpt lat="43.7601843" lon="17.1439264"><ele>1330.0</ele><time>2026-04-28T13:36:12.327Z</time></trkpt><trkpt lat="43.7602006" lon="17.1438267"><ele>1330.0</ele><time>2026-04-28T13:36:14.326Z</time></trkpt><trkpt lat="43.7602113" lon="17.1437254"><ele>1330.0</ele><time>2026-04-28T13:36:16.326Z</time></trkpt><trkpt lat="43.7602207" lon="17.143631"><ele>1330.0</ele><time>2026-04-28T13:36:18.327Z</time></trkpt><trkpt lat="43.7602313" lon="17.1435391"><ele>1330.0</ele><time>2026-04-28T13:36:20.326Z</time></trkpt><trkpt lat="43.7602556" lon="17.1434513"><ele>1330.0</ele><time>2026-04-28T13:36:22.326Z</time></trkpt><trkpt lat="43.7602777" lon="17.1433425"><ele>1330.0</ele><time>2026-04-28T13:36:24.327Z</time></trkpt><trkpt lat="43.7602839" lon="17.1432358"><ele>1330.0</ele><time>2026-04-28T13:36:26.326Z</time></trkpt><trkpt lat="43.7602922" lon="17.1430993"><ele>1328.6666666666665</ele><time>2026-04-28T13:36:29.326Z</time></trkpt><trkpt lat="43.7602994" lon="17.1430112"><ele>1327.3333333333333</ele><time>2026-04-28T13:36:31.326Z</time></trkpt><trkpt lat="43.7602813" lon="17.1429231"><ele>1326.0</ele><time>2026-04-28T13:36:33.326Z</time></trkpt><trkpt lat="43.7602461" lon="17.1428268"><ele>1324.6666666666667</ele><time>2026-04-28T13:36:35.327Z</time></trkpt><trkpt lat="43.7602148" lon="17.1427183"><ele>1323.3333333333335</ele><time>2026-04-28T13:36:37.327Z</time></trkpt><trkpt lat="43.7602078" lon="17.1426232"><ele>1322.0</ele><time>2026-04-28T13:36:39.327Z</time></trkpt><trkpt lat="43.7602485" lon="17.1425068"><ele>1321.1999999999998</ele><time>2026-04-28T13:36:42.327Z</time></trkpt><trkpt lat="43.7602805" lon="17.1423797"><ele>1320.4</ele><time>2026-04-28T13:36:44.326Z</time></trkpt><trkpt lat="43.7603036" lon="17.1422727"><ele>1319.6</ele><time>2026-04-28T13:36:46.326Z</time></trkpt><trkpt lat="43.7603299" lon="17.1421584"><ele>1318.8000000000002</ele><time>2026-04-28T13:36:48.327Z</time></trkpt><trkpt lat="43.7603686" lon="17.1420424"><ele>1318.0</ele><time>2026-04-28T13:36:50.327Z</time></trkpt><trkpt lat="43.7604065" lon="17.1419222"><ele>1318.0</ele><time>2026-04-28T13:36:52.326Z</time></trkpt><trkpt lat="43.7604367" lon="17.1418089"><ele>1318.0</ele><time>2026-04-28T13:36:54.327Z</time></trkpt><trkpt lat="43.7604669" lon="17.1417306"><ele>1318.0</ele><time>2026-04-28T13:36:56.326Z</time></trkpt><trkpt lat="43.7605067" lon="17.1416175"><ele>1318.0</ele><time>2026-04-28T13:36:58.326Z</time></trkpt><trkpt lat="43.7605315" lon="17.1415235"><ele>1318.0</ele><time>2026-04-28T13:37:00.327Z</time></trkpt><trkpt lat="43.7605593" lon="17.1414089"><ele>1318.0</ele><time>2026-04-28T13:37:02.327Z</time></trkpt><trkpt lat="43.7605934" lon="17.1412881"><ele>1317.0</ele><time>2026-04-28T13:37:04.326Z</time></trkpt><trkpt lat="43.760617" lon="17.1411805"><ele>1316.0</ele><time>2026-04-28T13:37:06.327Z</time></trkpt><trkpt lat="43.760635" lon="17.1410617"><ele>1315.0</ele><time>2026-04-28T13:37:08.327Z</time></trkpt><trkpt lat="43.7606667" lon="17.1409702"><ele>1314.0</ele><time>2026-04-28T13:37:10.326Z</time></trkpt><trkpt lat="43.7606843" lon="17.1408849"><ele>1313.0</ele><time>2026-04-28T13:37:12.327Z</time></trkpt><trkpt lat="43.7607145" lon="17.1407643"><ele>1312.0</ele><time>2026-04-28T13:37:15.326Z</time></trkpt><trkpt lat="43.76073" lon="17.1406726"><ele>1311.142857142857</ele><time>2026-04-28T13:37:17.327Z</time></trkpt><trkpt lat="43.7607261" lon="17.1405729"><ele>1310.2857142857142</ele><time>2026-04-28T13:37:19.326Z</time></trkpt><trkpt lat="43.7607297" lon="17.1404494"><ele>1309.4285714285716</ele><time>2026-04-28T13:37:21.326Z</time></trkpt><trkpt lat="43.7607537" lon="17.1403429"><ele>1308.5714285714284</ele><time>2026-04-28T13:37:23.326Z</time></trkpt><trkpt lat="43.7607712" lon="17.1402577"><ele>1307.7142857142858</ele><time>2026-04-28T13:37:25.327Z</time></trkpt><trkpt lat="43.7607931" lon="17.1401736"><ele>1306.857142857143</ele><time>2026-04-28T13:37:28.327Z</time></trkpt><trkpt lat="43.7608236" lon="17.1400801"><ele>1306.0</ele><time>2026-04-28T13:37:32.326Z</time></trkpt><trkpt lat="43.760859" lon="17.1399938"><ele>1306.0</ele><time>2026-04-28T13:37:36.326Z</time></trkpt><trkpt lat="43.760894" lon="17.1399087"><ele>1306.0</ele><time>2026-04-28T13:37:39.327Z</time></trkpt><trkpt lat="43.760957" lon="17.1398446"><ele>1306.0</ele><time>2026-04-28T13:37:42.326Z</time></trkpt><trkpt lat="43.7610346" lon="17.1398231"><ele>1306.0</ele><time>2026-04-28T13:37:45.326Z</time></trkpt><trkpt lat="43.7611047" lon="17.1397637"><ele>1306.0</ele><time>2026-04-28T13:37:49.326Z</time></trkpt><trkpt lat="43.76113" lon="17.1396527"><ele>1306.0</ele><time>2026-04-28T13:37:52.326Z</time></trkpt><trkpt lat="43.761149" lon="17.1395627"><ele>1305.1999999999998</ele><time>2026-04-28T13:37:54.327Z</time></trkpt><trkpt lat="43.7611689" lon="17.1394348"><ele>1304.3999999999999</ele><time>2026-04-28T13:37:57.326Z</time></trkpt><trkpt lat="43.7611082" lon="17.1392999"><ele>1303.6</ele><time>2026-04-28T13:37:59.326Z</time></trkpt><trkpt lat="43.7610432" lon="17.1392152"><ele>1302.8</ele><time>2026-04-28T13:38:01.325Z</time></trkpt><trkpt lat="43.7609695" lon="17.1391507"><ele>1302.0</ele><time>2026-04-28T13:38:04.326Z</time></trkpt><trkpt lat="43.7609028" lon="17.1390944"><ele>1302.1666666666667</ele><time>2026-04-28T13:38:06.326Z</time></trkpt><trkpt lat="43.7608659" lon="17.1390067"><ele>1302.3333333333333</ele><time>2026-04-28T13:38:08.326Z</time></trkpt><trkpt lat="43.760839" lon="17.1389093"><ele>1302.5</ele><time>2026-04-28T13:38:10.326Z</time></trkpt><trkpt lat="43.7608138" lon="17.1388181"><ele>1302.6666666666665</ele><time>2026-04-28T13:38:12.326Z</time></trkpt><trkpt lat="43.7608013" lon="17.1386894"><ele>1302.8333333333333</ele><time>2026-04-28T13:38:14.326Z</time></trkpt><trkpt lat="43.7607846" lon="17.1385348"><ele>1303.0</ele><time>2026-04-28T13:38:16.326Z</time></trkpt><trkpt lat="43.7607525" lon="17.1383927"><ele>1303.0</ele><time>2026-04-28T13:38:18.326Z</time></trkpt><trkpt lat="43.7607272" lon="17.1383096"><ele>1303.0</ele><time>2026-04-28T13:38:19.326Z</time></trkpt><trkpt lat="43.7606635" lon="17.1381668"><ele>1303.0</ele><time>2026-04-28T13:38:21.326Z</time></trkpt><trkpt lat="43.7606069" lon="17.1380288"><ele>1303.0</ele><time>2026-04-28T13:38:23.326Z</time></trkpt><trkpt lat="43.7605615" lon="17.1378711"><ele>1303.0</ele><time>2026-04-28T13:38:25.326Z</time></trkpt><trkpt lat="43.7605217" lon="17.1377064"><ele>1302.0</ele><time>2026-04-28T13:38:27.326Z</time></trkpt><trkpt lat="43.7604532" lon="17.1375896"><ele>1301.0</ele><time>2026-04-28T13:38:29.326Z</time></trkpt><trkpt lat="43.7603633" lon="17.1375464"><ele>1300.0</ele><time>2026-04-28T13:38:31.326Z</time></trkpt><trkpt lat="43.760302" lon="17.137517"><ele>1299.0</ele><time>2026-04-28T13:38:33.326Z</time></trkpt><trkpt lat="43.7602029" lon="17.1375142"><ele>1298.0</ele><time>2026-04-28T13:38:36.326Z</time></trkpt><trkpt lat="43.7601154" lon="17.1375257"><ele>1300.4</ele><time>2026-04-28T13:38:38.326Z</time></trkpt><trkpt lat="43.7600263" lon="17.1375446"><ele>1302.8000000000002</ele><time>2026-04-28T13:38:40.326Z</time></trkpt><trkpt lat="43.7599532" lon="17.1375014"><ele>1305.2</ele><time>2026-04-28T13:38:42.326Z</time></trkpt><trkpt lat="43.7599012" lon="17.13738"><ele>1307.6</ele><time>2026-04-28T13:38:44.326Z</time></trkpt><trkpt lat="43.7598763" lon="17.1372956"><ele>1310.0</ele><time>2026-04-28T13:38:45.326Z</time></trkpt><trkpt lat="43.7598259" lon="17.1371433"><ele>1310.0</ele><time>2026-04-28T13:38:47.326Z</time></trkpt><trkpt lat="43.7597572" lon="17.1370346"><ele>1310.0</ele><time>2026-04-28T13:38:49.326Z</time></trkpt><trkpt lat="43.7596713" lon="17.1369633"><ele>1310.0</ele><time>2026-04-28T13:38:51.326Z</time></trkpt><trkpt lat="43.7595877" lon="17.1369169"><ele>1310.0</ele><time>2026-04-28T13:38:53.325Z</time></trkpt><trkpt lat="43.759509" lon="17.1368499"><ele>1310.0</ele><time>2026-04-28T13:38:55.327Z</time></trkpt><trkpt lat="43.7594407" lon="17.1367759"><ele>1312.4</ele><time>2026-04-28T13:38:57.326Z</time></trkpt><trkpt lat="43.7593453" lon="17.1366808"><ele>1314.8</ele><time>2026-04-28T13:39:16.326Z</time></trkpt><trkpt lat="43.7592315" lon="17.1366322"><ele>1317.1999999999998</ele><time>2026-04-28T13:39:18.326Z</time></trkpt><trkpt lat="43.7591304" lon="17.13658"><ele>1319.6</ele><time>2026-04-28T13:39:20.326Z</time></trkpt><trkpt lat="43.7590784" lon="17.1365105"><ele>1322.0</ele><time>2026-04-28T13:39:22.326Z</time></trkpt><trkpt lat="43.7590709" lon="17.1363765"><ele>1322.0</ele><time>2026-04-28T13:39:24.326Z</time></trkpt><trkpt lat="43.7590888" lon="17.1362807"><ele>1322.0</ele><time>2026-04-28T13:39:25.324Z</time></trkpt><trkpt lat="43.7591113" lon="17.136175"><ele>1322.0</ele><time>2026-04-28T13:39:26.327Z</time></trkpt><trkpt lat="43.7591445" lon="17.1360711"><ele>1322.0</ele><time>2026-04-28T13:39:27.326Z</time></trkpt><trkpt lat="43.759159" lon="17.1359833"><ele>1322.0</ele><time>2026-04-28T13:39:28.326Z</time></trkpt><trkpt lat="43.7591502" lon="17.1358272"><ele>1322.0</ele><time>2026-04-28T13:39:30.326Z</time></trkpt><trkpt lat="43.7590972" lon="17.1356705"><ele>1323.4285714285713</ele><time>2026-04-28T13:39:32.327Z</time></trkpt><trkpt lat="43.7590562" lon="17.1356031"><ele>1324.857142857143</ele><time>2026-04-28T13:39:33.325Z</time></trkpt><trkpt lat="43.7590054" lon="17.1355357"><ele>1326.2857142857142</ele><time>2026-04-28T13:39:34.326Z</time></trkpt><trkpt lat="43.7589547" lon="17.1354791"><ele>1327.7142857142858</ele><time>2026-04-28T13:39:35.326Z</time></trkpt><trkpt lat="43.7588935" lon="17.1354353"><ele>1329.142857142857</ele><time>2026-04-28T13:39:36.327Z</time></trkpt><trkpt lat="43.7588368" lon="17.135392"><ele>1330.5714285714287</ele><time>2026-04-28T13:39:37.327Z</time></trkpt><trkpt lat="43.7587717" lon="17.135355"><ele>1332.0</ele><time>2026-04-28T13:39:38.326Z</time></trkpt><trkpt lat="43.758686" lon="17.1353147"><ele>1332.0</ele><time>2026-04-28T13:39:39.326Z</time></trkpt><trkpt lat="43.7586215" lon="17.1352679"><ele>1332.0</ele><time>2026-04-28T13:39:40.326Z</time></trkpt><trkpt lat="43.7585607" lon="17.1352323"><ele>1332.0</ele><time>2026-04-28T13:39:41.326Z</time></trkpt><trkpt lat="43.7585062" lon="17.135187"><ele>1332.0</ele><time>2026-04-28T13:39:42.326Z</time></trkpt><trkpt lat="43.7584406" lon="17.1350791"><ele>1332.0</ele><time>2026-04-28T13:39:44.318Z</time></trkpt><trkpt lat="43.7584176" lon="17.1349892"><ele>1332.0</ele><time>2026-04-28T13:39:45.326Z</time></trkpt><trkpt lat="43.7583881" lon="17.1349032"><ele>1332.0</ele><time>2026-04-28T13:39:46.326Z</time></trkpt><trkpt lat="43.7583042" lon="17.1348422"><ele>1331.8</ele><time>2026-04-28T13:39:48.327Z</time></trkpt><trkpt lat="43.7581772" lon="17.1348739"><ele>1331.6</ele><time>2026-04-28T13:39:50.325Z</time></trkpt><trkpt lat="43.7581112" lon="17.1348992"><ele>1331.3999999999999</ele><time>2026-04-28T13:39:51.326Z</time></trkpt><trkpt lat="43.7580442" lon="17.1349177"><ele>1331.1999999999998</ele><time>2026-04-28T13:39:52.326Z</time></trkpt><trkpt lat="43.7579767" lon="17.1349047"><ele>1331.0</ele><time>2026-04-28T13:39:53.327Z</time></trkpt><trkpt lat="43.7578772" lon="17.1348174"><ele>1331.0</ele><time>2026-04-28T13:39:55.326Z</time></trkpt><trkpt lat="43.757859" lon="17.1346616"><ele>1331.0</ele><time>2026-04-28T13:39:57.327Z</time></trkpt><trkpt lat="43.7578799" lon="17.134557"><ele>1331.0</ele><time>2026-04-28T13:39:58.327Z</time></trkpt><trkpt lat="43.7579271" lon="17.1344333"><ele>1331.0</ele><time>2026-04-28T13:39:59.326Z</time></trkpt><trkpt lat="43.7579918" lon="17.1343164"><ele>1331.0</ele><time>2026-04-28T13:40:00.326Z</time></trkpt><trkpt lat="43.7580697" lon="17.1342095"><ele>1331.0</ele><time>2026-04-28T13:40:01.326Z</time></trkpt><trkpt lat="43.7581418" lon="17.1341253"><ele>1331.0</ele><time>2026-04-28T13:40:02.327Z</time></trkpt><trkpt lat="43.7581935" lon="17.1340514"><ele>1331.0</ele><time>2026-04-28T13:40:03.326Z</time></trkpt><trkpt lat="43.7582439" lon="17.1339692"><ele>1331.0</ele><time>2026-04-28T13:40:04.327Z</time></trkpt><trkpt lat="43.7582688" lon="17.1338841"><ele>1331.0</ele><time>2026-04-28T13:40:05.325Z</time></trkpt><trkpt lat="43.7582721" lon="17.1337811"><ele>1331.0</ele><time>2026-04-28T13:40:06.326Z</time></trkpt><trkpt lat="43.7582507" lon="17.1336736"><ele>1330.8333333333335</ele><time>2026-04-28T13:40:07.326Z</time></trkpt><trkpt lat="43.758235" lon="17.133568"><ele>1330.6666666666667</ele><time>2026-04-28T13:40:08.326Z</time></trkpt><trkpt lat="43.7582194" lon="17.1334669"><ele>1330.5</ele><time>2026-04-28T13:40:09.327Z</time></trkpt><trkpt lat="43.7582218" lon="17.133369"><ele>1330.3333333333333</ele><time>2026-04-28T13:40:10.327Z</time></trkpt><trkpt lat="43.7582313" lon="17.1332666"><ele>1330.1666666666665</ele><time>2026-04-28T13:40:11.326Z</time></trkpt><trkpt lat="43.7582482" lon="17.133147"><ele>1330.0</ele><time>2026-04-28T13:40:12.327Z</time></trkpt><trkpt lat="43.7582726" lon="17.1330129"><ele>1329.4</ele><time>2026-04-28T13:40:13.325Z</time></trkpt><trkpt lat="43.7583106" lon="17.1328724"><ele>1328.8</ele><time>2026-04-28T13:40:14.327Z</time></trkpt><trkpt lat="43.758336" lon="17.1327211"><ele>1328.1999999999998</ele><time>2026-04-28T13:40:15.326Z</time></trkpt><trkpt lat="43.7583644" lon="17.1325761"><ele>1327.6</ele><time>2026-04-28T13:40:16.326Z</time></trkpt><trkpt lat="43.7583881" lon="17.1324419"><ele>1327.0</ele><time>2026-04-28T13:40:17.326Z</time></trkpt><trkpt lat="43.7584383" lon="17.1323237"><ele>1326.5</ele><time>2026-04-28T13:40:18.327Z</time></trkpt><trkpt lat="43.7584971" lon="17.1322273"><ele>1326.0</ele><time>2026-04-28T13:40:19.327Z</time></trkpt><trkpt lat="43.7585572" lon="17.1321529"><ele>1325.5</ele><time>2026-04-28T13:40:20.326Z</time></trkpt><trkpt lat="43.7586239" lon="17.1320623"><ele>1325.0</ele><time>2026-04-28T13:40:21.326Z</time></trkpt><trkpt lat="43.7587007" lon="17.1319724"><ele>1324.5</ele><time>2026-04-28T13:40:22.326Z</time></trkpt><trkpt lat="43.7587558" lon="17.1318858"><ele>1324.0</ele><time>2026-04-28T13:40:23.326Z</time></trkpt><trkpt lat="43.7587938" lon="17.1317827"><ele>1325.0</ele><time>2026-04-28T13:40:24.326Z</time></trkpt><trkpt lat="43.7588145" lon="17.1316786"><ele>1326.0</ele><time>2026-04-28T13:40:25.326Z</time></trkpt><trkpt lat="43.7588162" lon="17.1315807"><ele>1327.0</ele><time>2026-04-28T13:40:26.326Z</time></trkpt><trkpt lat="43.7588157" lon="17.1314687"><ele>1328.0</ele><time>2026-04-28T13:40:27.326Z</time></trkpt><trkpt lat="43.7588182" lon="17.1313527"><ele>1329.0</ele><time>2026-04-28T13:40:28.326Z</time></trkpt><trkpt lat="43.7588253" lon="17.1312331"><ele>1330.0</ele><time>2026-04-28T13:40:29.323Z</time></trkpt><trkpt lat="43.7588306" lon="17.1311223"><ele>1330.0</ele><time>2026-04-28T13:40:30.326Z</time></trkpt><trkpt lat="43.7588175" lon="17.1310169"><ele>1330.0</ele><time>2026-04-28T13:40:31.326Z</time></trkpt><trkpt lat="43.7587865" lon="17.1309347"><ele>1330.0</ele><time>2026-04-28T13:40:32.327Z</time></trkpt><trkpt lat="43.7587348" lon="17.1308445"><ele>1330.0</ele><time>2026-04-28T13:40:33.326Z</time></trkpt><trkpt lat="43.7586877" lon="17.1307622"><ele>1330.0</ele><time>2026-04-28T13:40:34.327Z</time></trkpt><trkpt lat="43.7586635" lon="17.1306573"><ele>1330.0</ele><time>2026-04-28T13:40:35.326Z</time></trkpt><trkpt lat="43.7586594" lon="17.1305519"><ele>1328.3333333333333</ele><time>2026-04-28T13:40:36.326Z</time></trkpt><trkpt lat="43.7586605" lon="17.1304478"><ele>1326.6666666666665</ele><time>2026-04-28T13:40:37.326Z</time></trkpt><trkpt lat="43.758667" lon="17.1303231"><ele>1325.0</ele><time>2026-04-28T13:40:38.326Z</time></trkpt><trkpt lat="43.7586831" lon="17.1301943"><ele>1323.3333333333333</ele><time>2026-04-28T13:40:39.326Z</time></trkpt><trkpt lat="43.7587072" lon="17.13007"><ele>1321.6666666666667</ele><time>2026-04-28T13:40:40.327Z</time></trkpt><trkpt lat="43.7587089" lon="17.129957"><ele>1320.0</ele><time>2026-04-28T13:40:41.326Z</time></trkpt><trkpt lat="43.7587112" lon="17.1298651"><ele>1318.0</ele><time>2026-04-28T13:40:42.327Z</time></trkpt><trkpt lat="43.758752" lon="17.1296932"><ele>1316.0</ele><time>2026-04-28T13:40:44.327Z</time></trkpt><trkpt lat="43.7588107" lon="17.129529"><ele>1314.0</ele><time>2026-04-28T13:40:46.327Z</time></trkpt><trkpt lat="43.7588436" lon="17.1293859"><ele>1312.0</ele><time>2026-04-28T13:40:48.326Z</time></trkpt><trkpt lat="43.7588214" lon="17.1292904"><ele>1310.0</ele><time>2026-04-28T13:40:49.327Z</time></trkpt><trkpt lat="43.7588036" lon="17.1291926"><ele>1310.0</ele><time>2026-04-28T13:40:50.326Z</time></trkpt><trkpt lat="43.7587669" lon="17.1291057"><ele>1310.0</ele><time>2026-04-28T13:40:51.326Z</time></trkpt><trkpt lat="43.7586895" lon="17.1289886"><ele>1310.0</ele><time>2026-04-28T13:40:53.326Z</time></trkpt><trkpt lat="43.7585895" lon="17.1289248"><ele>1310.0</ele><time>2026-04-28T13:40:55.325Z</time></trkpt><trkpt lat="43.7585206" lon="17.128922"><ele>1310.0</ele><time>2026-04-28T13:40:56.327Z</time></trkpt><trkpt lat="43.7584568" lon="17.1289284"><ele>1310.0</ele><time>2026-04-28T13:40:57.326Z</time></trkpt><trkpt lat="43.7583583" lon="17.1288759"><ele>1308.5</ele><time>2026-04-28T13:40:59.326Z</time></trkpt><trkpt lat="43.7583117" lon="17.1288134"><ele>1307.0</ele><time>2026-04-28T13:41:00.326Z</time></trkpt><trkpt lat="43.7582219" lon="17.1286688"><ele>1305.5</ele><time>2026-04-28T13:41:02.327Z</time></trkpt><trkpt lat="43.7581757" lon="17.1285853"><ele>1304.0</ele><time>2026-04-28T13:41:03.327Z</time></trkpt><trkpt lat="43.7581362" lon="17.128499"><ele>1302.5</ele><time>2026-04-28T13:41:04.326Z</time></trkpt><trkpt lat="43.7581069" lon="17.1284098"><ele>1301.0</ele><time>2026-04-28T13:41:05.325Z</time></trkpt><trkpt lat="43.7580886" lon="17.128311"><ele>1299.6666666666667</ele><time>2026-04-28T13:41:06.326Z</time></trkpt><trkpt lat="43.7580836" lon="17.1282206"><ele>1298.3333333333335</ele><time>2026-04-28T13:41:07.327Z</time></trkpt><trkpt lat="43.7580889" lon="17.128119"><ele>1297.0</ele><time>2026-04-28T13:41:08.319Z</time></trkpt><trkpt lat="43.7581086" lon="17.1280208"><ele>1295.6666666666667</ele><time>2026-04-28T13:41:09.326Z</time></trkpt><trkpt lat="43.7581281" lon="17.127921"><ele>1294.3333333333333</ele><time>2026-04-28T13:41:10.326Z</time></trkpt><trkpt lat="43.7581538" lon="17.1278073"><ele>1293.0</ele><time>2026-04-28T13:41:11.321Z</time></trkpt><trkpt lat="43.7581726" lon="17.1277041"><ele>1293.0</ele><time>2026-04-28T13:41:12.326Z</time></trkpt><trkpt lat="43.7581982" lon="17.1276067"><ele>1293.0</ele><time>2026-04-28T13:41:13.327Z</time></trkpt><trkpt lat="43.7582657" lon="17.1275583"><ele>1293.0</ele><time>2026-04-28T13:41:14.326Z</time></trkpt><trkpt lat="43.7583358" lon="17.1275024"><ele>1293.0</ele><time>2026-04-28T13:41:15.326Z</time></trkpt><trkpt lat="43.7584186" lon="17.127443"><ele>1293.0</ele><time>2026-04-28T13:41:16.326Z</time></trkpt><trkpt lat="43.758495" lon="17.1273904"><ele>1293.0</ele><time>2026-04-28T13:41:17.325Z</time></trkpt><trkpt lat="43.7585743" lon="17.1273413"><ele>1292.8333333333333</ele><time>2026-04-28T13:41:18.327Z</time></trkpt><trkpt lat="43.7586402" lon="17.1272989"><ele>1292.6666666666667</ele><time>2026-04-28T13:41:19.326Z</time></trkpt><trkpt lat="43.7586908" lon="17.1272419"><ele>1292.5</ele><time>2026-04-28T13:41:20.326Z</time></trkpt><trkpt lat="43.7587228" lon="17.1271597"><ele>1292.3333333333335</ele><time>2026-04-28T13:41:21.326Z</time></trkpt><trkpt lat="43.7587582" lon="17.1269979"><ele>1292.1666666666667</ele><time>2026-04-28T13:41:23.326Z</time></trkpt><trkpt lat="43.7587463" lon="17.1268657"><ele>1292.0</ele><time>2026-04-28T13:41:24.327Z</time></trkpt><trkpt lat="43.7587386" lon="17.126742"><ele>1292.0</ele><time>2026-04-28T13:41:25.326Z</time></trkpt><trkpt lat="43.758686" lon="17.1265847"><ele>1292.0</ele><time>2026-04-28T13:41:27.326Z</time></trkpt><trkpt lat="43.7585768" lon="17.1264897"><ele>1292.0</ele><time>2026-04-28T13:41:29.326Z</time></trkpt><trkpt lat="43.7585137" lon="17.126459"><ele>1292.0</ele><time>2026-04-28T13:41:30.326Z</time></trkpt><trkpt lat="43.7583799" lon="17.1264181"><ele>1291.2857142857144</ele><time>2026-04-28T13:41:32.326Z</time></trkpt><trkpt lat="43.7583239" lon="17.1263756"><ele>1290.5714285714287</ele><time>2026-04-28T13:41:33.326Z</time></trkpt><trkpt lat="43.7582702" lon="17.1263239"><ele>1289.857142857143</ele><time>2026-04-28T13:41:34.326Z</time></trkpt><trkpt lat="43.7582211" lon="17.1262577"><ele>1289.1428571428573</ele><time>2026-04-28T13:41:35.325Z</time></trkpt><trkpt lat="43.7581862" lon="17.126168"><ele>1288.4285714285716</ele><time>2026-04-28T13:41:36.326Z</time></trkpt><trkpt lat="43.7581552" lon="17.1260703"><ele>1287.7142857142858</ele><time>2026-04-28T13:41:37.326Z</time></trkpt><trkpt lat="43.758148" lon="17.1259735"><ele>1287.0</ele><time>2026-04-28T13:41:38.326Z</time></trkpt><trkpt lat="43.7581517" lon="17.125875"><ele>1287.0</ele><time>2026-04-28T13:41:39.326Z</time></trkpt><trkpt lat="43.7581595" lon="17.1257771"><ele>1287.0</ele><time>2026-04-28T13:41:40.326Z</time></trkpt><trkpt lat="43.7581672" lon="17.1256791"><ele>1287.0</ele><time>2026-04-28T13:41:41.326Z</time></trkpt><trkpt lat="43.7581732" lon="17.1255658"><ele>1287.0</ele><time>2026-04-28T13:41:42.326Z</time></trkpt><trkpt lat="43.7581833" lon="17.125455"><ele>1287.0</ele><time>2026-04-28T13:41:43.326Z</time></trkpt><trkpt lat="43.7582041" lon="17.125351"><ele>1287.0</ele><time>2026-04-28T13:41:44.326Z</time></trkpt><trkpt lat="43.7582408" lon="17.1252461"><ele>1286.3333333333333</ele><time>2026-04-28T13:41:45.326Z</time></trkpt><trkpt lat="43.7582922" lon="17.1251583"><ele>1285.6666666666667</ele><time>2026-04-28T13:41:46.326Z</time></trkpt><trkpt lat="43.7583402" lon="17.1250943"><ele>1285.0</ele><time>2026-04-28T13:41:47.326Z</time></trkpt><trkpt lat="43.7583962" lon="17.125035"><ele>1284.3333333333335</ele><time>2026-04-28T13:41:48.326Z</time></trkpt><trkpt lat="43.7585155" lon="17.1249693"><ele>1283.6666666666667</ele><time>2026-04-28T13:41:50.326Z</time></trkpt><trkpt lat="43.7585796" lon="17.1249626"><ele>1283.0</ele><time>2026-04-28T13:41:51.326Z</time></trkpt><trkpt lat="43.758709" lon="17.1249778"><ele>1281.6000000000001</ele><time>2026-04-28T13:41:53.326Z</time></trkpt><trkpt lat="43.7588234" lon="17.1250094"><ele>1280.2</ele><time>2026-04-28T13:41:55.326Z</time></trkpt><trkpt lat="43.7589276" lon="17.1250032"><ele>1278.8</ele><time>2026-04-28T13:41:57.326Z</time></trkpt><trkpt lat="43.7590198" lon="17.124935"><ele>1277.4</ele><time>2026-04-28T13:41:59.326Z</time></trkpt><trkpt lat="43.7590859" lon="17.1248454"><ele>1276.0</ele><time>2026-04-28T13:42:01.326Z</time></trkpt><trkpt lat="43.7591429" lon="17.1247066"><ele>1275.0</ele><time>2026-04-28T13:42:03.326Z</time></trkpt><trkpt lat="43.7591839" lon="17.1245676"><ele>1274.0</ele><time>2026-04-28T13:42:05.327Z</time></trkpt><trkpt lat="43.7592257" lon="17.1244446"><ele>1273.0</ele><time>2026-04-28T13:42:07.326Z</time></trkpt><trkpt lat="43.7593042" lon="17.1243244"><ele>1272.0</ele><time>2026-04-28T13:42:09.326Z</time></trkpt><trkpt lat="43.7593928" lon="17.1242321"><ele>1271.0</ele><time>2026-04-28T13:42:11.327Z</time></trkpt><trkpt lat="43.7594756" lon="17.1241316"><ele>1266.8</ele><time>2026-04-28T13:42:13.326Z</time></trkpt><trkpt lat="43.7595283" lon="17.1240799"><ele>1262.6</ele><time>2026-04-28T13:42:14.327Z</time></trkpt><trkpt lat="43.7595792" lon="17.123962"><ele>1258.4</ele><time>2026-04-28T13:42:16.327Z</time></trkpt><trkpt lat="43.7595918" lon="17.1238745"><ele>1254.2</ele><time>2026-04-28T13:42:17.326Z</time></trkpt><trkpt lat="43.7595792" lon="17.1237478"><ele>1250.0</ele><time>2026-04-28T13:42:19.327Z</time></trkpt><trkpt lat="43.7595914" lon="17.123551"><ele>1249.0</ele><time>2026-04-28T13:42:21.326Z</time></trkpt><trkpt lat="43.7596168" lon="17.1234426"><ele>1248.0</ele><time>2026-04-28T13:42:22.326Z</time></trkpt><trkpt lat="43.7596422" lon="17.1233592"><ele>1247.0</ele><time>2026-04-28T13:42:23.326Z</time></trkpt><trkpt lat="43.7596553" lon="17.1232656"><ele>1246.0</ele><time>2026-04-28T13:42:24.326Z</time></trkpt><trkpt lat="43.759671" lon="17.1231606"><ele>1245.0</ele><time>2026-04-28T13:42:25.326Z</time></trkpt><trkpt lat="43.7596947" lon="17.1230708"><ele>1244.0</ele><time>2026-04-28T13:42:26.326Z</time></trkpt><trkpt lat="43.7597367" lon="17.1229639"><ele>1244.0</ele><time>2026-04-28T13:42:27.327Z</time></trkpt><trkpt lat="43.7597832" lon="17.1228635"><ele>1244.0</ele><time>2026-04-28T13:42:28.326Z</time></trkpt><trkpt lat="43.7598384" lon="17.1227548"><ele>1244.0</ele><time>2026-04-28T13:42:29.326Z</time></trkpt><trkpt lat="43.7598806" lon="17.1226522"><ele>1244.0</ele><time>2026-04-28T13:42:30.326Z</time></trkpt><trkpt lat="43.7599398" lon="17.1225384"><ele>1244.0</ele><time>2026-04-28T13:42:31.327Z</time></trkpt><trkpt lat="43.7599999" lon="17.1224441"><ele>1244.1666666666667</ele><time>2026-04-28T13:42:32.326Z</time></trkpt><trkpt lat="43.7600604" lon="17.1223657"><ele>1244.3333333333335</ele><time>2026-04-28T13:42:33.327Z</time></trkpt><trkpt lat="43.7601219" lon="17.1222761"><ele>1244.5</ele><time>2026-04-28T13:42:34.326Z</time></trkpt><trkpt lat="43.7601912" lon="17.1221943"><ele>1244.6666666666667</ele><time>2026-04-28T13:42:35.326Z</time></trkpt><trkpt lat="43.7602668" lon="17.1221193"><ele>1244.8333333333333</ele><time>2026-04-28T13:42:36.326Z</time></trkpt><trkpt lat="43.7603406" lon="17.1220465"><ele>1245.0</ele><time>2026-04-28T13:42:37.327Z</time></trkpt><trkpt lat="43.7604138" lon="17.1219779"><ele>1245.0</ele><time>2026-04-28T13:42:38.326Z</time></trkpt><trkpt lat="43.7604855" lon="17.1219062"><ele>1245.0</ele><time>2026-04-28T13:42:39.326Z</time></trkpt><trkpt lat="43.7605544" lon="17.1218298"><ele>1245.0</ele><time>2026-04-28T13:42:40.326Z</time></trkpt><trkpt lat="43.7606318" lon="17.1217627"><ele>1245.0</ele><time>2026-04-28T13:42:41.325Z</time></trkpt><trkpt lat="43.7606994" lon="17.1216911"><ele>1245.0</ele><time>2026-04-28T13:42:42.326Z</time></trkpt><trkpt lat="43.7607566" lon="17.1216287"><ele>1245.0</ele><time>2026-04-28T13:42:43.326Z</time></trkpt><trkpt lat="43.7608062" lon="17.121573"><ele>1245.3333333333333</ele><time>2026-04-28T13:42:44.326Z</time></trkpt><trkpt lat="43.7608621" lon="17.121516"><ele>1245.6666666666667</ele><time>2026-04-28T13:42:45.315Z</time></trkpt><trkpt lat="43.7609412" lon="17.1214227"><ele>1246.0</ele><time>2026-04-28T13:42:47.324Z</time></trkpt><trkpt lat="43.7610244" lon="17.1213234"><ele>1246.3333333333335</ele><time>2026-04-28T13:42:49.322Z</time></trkpt><trkpt lat="43.7610687" lon="17.1212611"><ele>1246.6666666666667</ele><time>2026-04-28T13:42:50.325Z</time></trkpt><trkpt lat="43.7611061" lon="17.1211906"><ele>1247.0</ele><time>2026-04-28T13:42:51.323Z</time></trkpt><trkpt lat="43.7611426" lon="17.1211177"><ele>1247.0</ele><time>2026-04-28T13:42:52.327Z</time></trkpt><trkpt lat="43.7611776" lon="17.1210345"><ele>1247.0</ele><time>2026-04-28T13:42:53.327Z</time></trkpt><trkpt lat="43.761212" lon="17.1209389"><ele>1247.0</ele><time>2026-04-28T13:42:54.326Z</time></trkpt><trkpt lat="43.7612405" lon="17.1208396"><ele>1247.0</ele><time>2026-04-28T13:42:55.326Z</time></trkpt><trkpt lat="43.7612784" lon="17.1207283"><ele>1247.0</ele><time>2026-04-28T13:42:56.327Z</time></trkpt><trkpt lat="43.7613102" lon="17.1206249"><ele>1247.0</ele><time>2026-04-28T13:42:57.326Z</time></trkpt><trkpt lat="43.7613527" lon="17.1205294"><ele>1247.0</ele><time>2026-04-28T13:42:58.325Z</time></trkpt><trkpt lat="43.7614048" lon="17.1204583"><ele>1247.0</ele><time>2026-04-28T13:42:59.326Z</time></trkpt><trkpt lat="43.76147" lon="17.1203989"><ele>1247.0</ele><time>2026-04-28T13:43:00.326Z</time></trkpt><trkpt lat="43.7615912" lon="17.1203395"><ele>1247.0</ele><time>2026-04-28T13:43:02.327Z</time></trkpt><trkpt lat="43.7616959" lon="17.1203173"><ele>1247.0</ele><time>2026-04-28T13:43:04.327Z</time></trkpt><trkpt lat="43.7618087" lon="17.1203066"><ele>1247.0</ele><time>2026-04-28T13:43:06.326Z</time></trkpt><trkpt lat="43.7618982" lon="17.1203054"><ele>1247.0</ele><time>2026-04-28T13:43:08.326Z</time></trkpt><trkpt lat="43.7619619" lon="17.1203387"><ele>1247.0</ele><time>2026-04-28T13:43:10.326Z</time></trkpt><trkpt lat="43.7620394" lon="17.1204229"><ele>1247.0</ele><time>2026-04-28T13:44:20.327Z</time></trkpt><trkpt lat="43.7621361" lon="17.1205219"><ele>1247.0</ele><time>2026-04-28T13:44:22.327Z</time></trkpt><trkpt lat="43.7621996" lon="17.1205823"><ele>1247.0</ele><time>2026-04-28T13:44:23.326Z</time></trkpt><trkpt lat="43.762264" lon="17.120645"><ele>1247.0</ele><time>2026-04-28T13:44:24.327Z</time></trkpt><trkpt lat="43.7623306" lon="17.1207094"><ele>1247.0</ele><time>2026-04-28T13:44:25.326Z</time></trkpt><trkpt lat="43.7624044" lon="17.1207749"><ele>1247.0</ele><time>2026-04-28T13:44:26.327Z</time></trkpt><trkpt lat="43.7625514" lon="17.1209069"><ele>1247.0</ele><time>2026-04-28T13:44:28.327Z</time></trkpt><trkpt lat="43.7626283" lon="17.1209842"><ele>1246.1666666666667</ele><time>2026-04-28T13:44:29.326Z</time></trkpt><trkpt lat="43.7626893" lon="17.1210634"><ele>1245.3333333333335</ele><time>2026-04-28T13:44:30.326Z</time></trkpt><trkpt lat="43.762752" lon="17.1211414"><ele>1244.5</ele><time>2026-04-28T13:44:31.326Z</time></trkpt><trkpt lat="43.7628189" lon="17.1212148"><ele>1243.6666666666667</ele><time>2026-04-28T13:44:32.327Z</time></trkpt><trkpt lat="43.7628699" lon="17.1212944"><ele>1242.8333333333333</ele><time>2026-04-28T13:44:33.326Z</time></trkpt><trkpt lat="43.7629336" lon="17.121377"><ele>1242.0</ele><time>2026-04-28T13:44:34.327Z</time></trkpt><trkpt lat="43.7629919" lon="17.1214583"><ele>1241.6666666666667</ele><time>2026-04-28T13:44:35.327Z</time></trkpt><trkpt lat="43.7630476" lon="17.1215384"><ele>1241.3333333333333</ele><time>2026-04-28T13:44:36.327Z</time></trkpt><trkpt lat="43.7630995" lon="17.1216377"><ele>1241.0</ele><time>2026-04-28T13:44:37.327Z</time></trkpt><trkpt lat="43.7631516" lon="17.1217364"><ele>1240.6666666666665</ele><time>2026-04-28T13:44:38.326Z</time></trkpt><trkpt lat="43.7632057" lon="17.1218268"><ele>1240.3333333333333</ele><time>2026-04-28T13:44:39.326Z</time></trkpt><trkpt lat="43.763254" lon="17.1219062"><ele>1240.0</ele><time>2026-04-28T13:44:40.326Z</time></trkpt><trkpt lat="43.7633135" lon="17.1219762"><ele>1239.0</ele><time>2026-04-28T13:44:41.326Z</time></trkpt><trkpt lat="43.7633813" lon="17.1220494"><ele>1238.0</ele><time>2026-04-28T13:44:42.327Z</time></trkpt><trkpt lat="43.7634391" lon="17.122105"><ele>1237.0</ele><time>2026-04-28T13:44:43.327Z</time></trkpt><trkpt lat="43.763506" lon="17.1221795"><ele>1236.0</ele><time>2026-04-28T13:44:44.326Z</time></trkpt><trkpt lat="43.7635661" lon="17.1222641"><ele>1235.0</ele><time>2026-04-28T13:44:45.326Z</time></trkpt><trkpt lat="43.7636229" lon="17.1223637"><ele>1234.0</ele><time>2026-04-28T13:44:46.326Z</time></trkpt><trkpt lat="43.7636997" lon="17.1224875"><ele>1232.4</ele><time>2026-04-28T13:44:47.327Z</time></trkpt><trkpt lat="43.7637593" lon="17.1226235"><ele>1230.8000000000002</ele><time>2026-04-28T13:44:48.326Z</time></trkpt><trkpt lat="43.7638167" lon="17.1227547"><ele>1229.1999999999998</ele><time>2026-04-28T13:44:49.327Z</time></trkpt><trkpt lat="43.7638646" lon="17.1228843"><ele>1227.6</ele><time>2026-04-28T13:44:50.326Z</time></trkpt><trkpt lat="43.7639215" lon="17.1230108"><ele>1226.0</ele><time>2026-04-28T13:44:51.327Z</time></trkpt><trkpt lat="43.7639729" lon="17.1231465"><ele>1223.6</ele><time>2026-04-28T13:44:52.326Z</time></trkpt><trkpt lat="43.7640227" lon="17.123283"><ele>1221.1999999999998</ele><time>2026-04-28T13:44:53.327Z</time></trkpt><trkpt lat="43.7640611" lon="17.1234103"><ele>1218.8000000000002</ele><time>2026-04-28T13:44:54.326Z</time></trkpt><trkpt lat="43.7641033" lon="17.1235495"><ele>1216.4</ele><time>2026-04-28T13:44:55.327Z</time></trkpt><trkpt lat="43.7641423" lon="17.1236891"><ele>1214.0</ele><time>2026-04-28T13:44:56.326Z</time></trkpt><trkpt lat="43.7641877" lon="17.1238442"><ele>1214.0</ele><time>2026-04-28T13:44:57.326Z</time></trkpt><trkpt lat="43.764252" lon="17.1240043"><ele>1214.0</ele><time>2026-04-28T13:44:58.326Z</time></trkpt><trkpt lat="43.7643119" lon="17.1241528"><ele>1214.0</ele><time>2026-04-28T13:44:59.327Z</time></trkpt><trkpt lat="43.764374" lon="17.1242983"><ele>1214.0</ele><time>2026-04-28T13:45:00.326Z</time></trkpt><trkpt lat="43.7644369" lon="17.1244267"><ele>1214.25</ele><time>2026-04-28T13:45:01.327Z</time></trkpt><trkpt lat="43.764508" lon="17.1245496"><ele>1214.5</ele><time>2026-04-28T13:45:02.326Z</time></trkpt><trkpt lat="43.7646003" lon="17.1246839"><ele>1214.75</ele><time>2026-04-28T13:45:03.326Z</time></trkpt><trkpt lat="43.7646924" lon="17.12481"><ele>1215.0</ele><time>2026-04-28T13:45:04.327Z</time></trkpt><trkpt lat="43.7647579" lon="17.1249246"><ele>1213.2</ele><time>2026-04-28T13:45:05.326Z</time></trkpt><trkpt lat="43.7648174" lon="17.1250305"><ele>1211.4</ele><time>2026-04-28T13:45:06.327Z</time></trkpt><trkpt lat="43.7648917" lon="17.1251277"><ele>1209.6</ele><time>2026-04-28T13:45:07.327Z</time></trkpt><trkpt lat="43.764971" lon="17.1252108"><ele>1207.8</ele><time>2026-04-28T13:45:08.323Z</time></trkpt><trkpt lat="43.7650791" lon="17.1252957"><ele>1206.0</ele><time>2026-04-28T13:45:09.326Z</time></trkpt><trkpt lat="43.7651909" lon="17.1253824"><ele>1205.6</ele><time>2026-04-28T13:45:10.326Z</time></trkpt><trkpt lat="43.7652897" lon="17.1254592"><ele>1205.1999999999998</ele><time>2026-04-28T13:45:11.326Z</time></trkpt><trkpt lat="43.7653784" lon="17.125524"><ele>1204.8000000000002</ele><time>2026-04-28T13:45:12.327Z</time></trkpt><trkpt lat="43.7654644" lon="17.1255898"><ele>1204.4</ele><time>2026-04-28T13:45:13.326Z</time></trkpt><trkpt lat="43.7655376" lon="17.1256625"><ele>1204.0</ele><time>2026-04-28T13:45:14.326Z</time></trkpt><trkpt lat="43.7655868" lon="17.1257288"><ele>1203.1666666666665</ele><time>2026-04-28T13:45:15.326Z</time></trkpt><trkpt lat="43.7656155" lon="17.1258097"><ele>1202.3333333333333</ele><time>2026-04-28T13:45:16.325Z</time></trkpt><trkpt lat="43.7656347" lon="17.1259058"><ele>1201.5</ele><time>2026-04-28T13:45:17.327Z</time></trkpt><trkpt lat="43.7656483" lon="17.1260094"><ele>1200.6666666666667</ele><time>2026-04-28T13:45:18.325Z</time></trkpt><trkpt lat="43.765642" lon="17.1261067"><ele>1199.8333333333335</ele><time>2026-04-28T13:45:19.326Z</time></trkpt><trkpt lat="43.7656133" lon="17.1262352"><ele>1199.0</ele><time>2026-04-28T13:45:21.327Z</time></trkpt><trkpt lat="43.7655785" lon="17.1263323"><ele>1199.0</ele><time>2026-04-28T13:45:23.326Z</time></trkpt><trkpt lat="43.7655405" lon="17.1264644"><ele>1199.0</ele><time>2026-04-28T13:45:25.327Z</time></trkpt><trkpt lat="43.7655251" lon="17.1265649"><ele>1199.0</ele><time>2026-04-28T13:45:26.326Z</time></trkpt><trkpt lat="43.7655077" lon="17.1266786"><ele>1199.0</ele><time>2026-04-28T13:45:27.326Z</time></trkpt><trkpt lat="43.7654928" lon="17.1267944"><ele>1199.0</ele><time>2026-04-28T13:45:28.326Z</time></trkpt><trkpt lat="43.7654833" lon="17.1269164"><ele>1199.0</ele><time>2026-04-28T13:45:29.326Z</time></trkpt><trkpt lat="43.7654657" lon="17.1270363"><ele>1198.5</ele><time>2026-04-28T13:45:30.327Z</time></trkpt><trkpt lat="43.7654441" lon="17.1271487"><ele>1198.0</ele><time>2026-04-28T13:45:31.326Z</time></trkpt><trkpt lat="43.7654274" lon="17.1272644"><ele>1197.5</ele><time>2026-04-28T13:45:32.326Z</time></trkpt><trkpt lat="43.7654204" lon="17.1273757"><ele>1197.0</ele><time>2026-04-28T13:45:33.326Z</time></trkpt><trkpt lat="43.765419" lon="17.127487"><ele>1196.5</ele><time>2026-04-28T13:45:34.326Z</time></trkpt><trkpt lat="43.7654347" lon="17.1275909"><ele>1196.0</ele><time>2026-04-28T13:45:35.326Z</time></trkpt><trkpt lat="43.7654621" lon="17.1276795"><ele>1194.6666666666667</ele><time>2026-04-28T13:45:36.326Z</time></trkpt><trkpt lat="43.7655147" lon="17.1277549"><ele>1193.3333333333335</ele><time>2026-04-28T13:45:37.326Z</time></trkpt><trkpt lat="43.7655761" lon="17.1278186"><ele>1192.0</ele><time>2026-04-28T13:45:38.326Z</time></trkpt><trkpt lat="43.7656527" lon="17.1278837"><ele>1190.6666666666667</ele><time>2026-04-28T13:45:39.326Z</time></trkpt><trkpt lat="43.7657266" lon="17.1279406"><ele>1189.3333333333333</ele><time>2026-04-28T13:45:40.326Z</time></trkpt><trkpt lat="43.7658119" lon="17.1280004"><ele>1188.0</ele><time>2026-04-28T13:45:41.326Z</time></trkpt><trkpt lat="43.7658928" lon="17.1280475"><ele>1188.0</ele><time>2026-04-28T13:45:42.326Z</time></trkpt><trkpt lat="43.7659754" lon="17.1280906"><ele>1188.0</ele><time>2026-04-28T13:45:43.326Z</time></trkpt><trkpt lat="43.7660654" lon="17.1281294"><ele>1188.0</ele><time>2026-04-28T13:45:44.326Z</time></trkpt><trkpt lat="43.7661571" lon="17.1281833"><ele>1188.0</ele><time>2026-04-28T13:45:45.326Z</time></trkpt><trkpt lat="43.7662277" lon="17.1282386"><ele>1188.0</ele><time>2026-04-28T13:45:46.327Z</time></trkpt><trkpt lat="43.7662739" lon="17.1283127"><ele>1188.0</ele><time>2026-04-28T13:45:47.326Z</time></trkpt><trkpt lat="43.7662948" lon="17.1284012"><ele>1186.4</ele><time>2026-04-28T13:45:48.326Z</time></trkpt><trkpt lat="43.7663103" lon="17.1284923"><ele>1184.8</ele><time>2026-04-28T13:45:49.326Z</time></trkpt><trkpt lat="43.7663078" lon="17.1286003"><ele>1183.2</ele><time>2026-04-28T13:45:50.326Z</time></trkpt><trkpt lat="43.7662577" lon="17.128756"><ele>1181.6</ele><time>2026-04-28T13:45:51.326Z</time></trkpt><trkpt lat="43.7662388" lon="17.1288764"><ele>1180.0</ele><time>2026-04-28T13:45:52.327Z</time></trkpt><trkpt lat="43.7662278" lon="17.1290119"><ele>1180.0</ele><time>2026-04-28T13:45:53.326Z</time></trkpt><trkpt lat="43.7662239" lon="17.1291558"><ele>1180.0</ele><time>2026-04-28T13:45:54.326Z</time></trkpt><trkpt lat="43.7662316" lon="17.1293038"><ele>1180.0</ele><time>2026-04-28T13:45:55.326Z</time></trkpt><trkpt lat="43.7662618" lon="17.129429"><ele>1180.0</ele><time>2026-04-28T13:45:56.327Z</time></trkpt><trkpt lat="43.7662814" lon="17.129544"><ele>1180.0</ele><time>2026-04-28T13:45:57.326Z</time></trkpt><trkpt lat="43.7663128" lon="17.1296402"><ele>1180.0</ele><time>2026-04-28T13:45:58.326Z</time></trkpt><trkpt lat="43.7663621" lon="17.1297071"><ele>1180.0</ele><time>2026-04-28T13:45:59.326Z</time></trkpt><trkpt lat="43.7664818" lon="17.1297258"><ele>1180.0</ele><time>2026-04-28T13:46:01.327Z</time></trkpt><trkpt lat="43.7665567" lon="17.1296987"><ele>1180.0</ele><time>2026-04-28T13:46:02.327Z</time></trkpt><trkpt lat="43.766656" lon="17.1296248"><ele>1180.0</ele><time>2026-04-28T13:46:03.326Z</time></trkpt><trkpt lat="43.7667357" lon="17.1295891"><ele>1180.0</ele><time>2026-04-28T13:46:04.326Z</time></trkpt><trkpt lat="43.7667991" lon="17.1295689"><ele>1180.0</ele><time>2026-04-28T13:46:05.327Z</time></trkpt><trkpt lat="43.7668759" lon="17.1295934"><ele>1180.0</ele><time>2026-04-28T13:46:07.327Z</time></trkpt><trkpt lat="43.7669461" lon="17.1297223"><ele>1180.0</ele><time>2026-04-28T13:46:09.326Z</time></trkpt><trkpt lat="43.7669967" lon="17.1298128"><ele>1180.0</ele><time>2026-04-28T13:46:10.326Z</time></trkpt><trkpt lat="43.7670602" lon="17.1298882"><ele>1180.0</ele><time>2026-04-28T13:46:11.326Z</time></trkpt><trkpt lat="43.7671369" lon="17.1299525"><ele>1178.6</ele><time>2026-04-28T13:46:12.326Z</time></trkpt><trkpt lat="43.7672345" lon="17.1299943"><ele>1177.2</ele><time>2026-04-28T13:46:13.326Z</time></trkpt><trkpt lat="43.7673442" lon="17.130039"><ele>1175.8</ele><time>2026-04-28T13:46:14.326Z</time></trkpt><trkpt lat="43.767446" lon="17.1300885"><ele>1174.4</ele><time>2026-04-28T13:46:15.326Z</time></trkpt><trkpt lat="43.7675459" lon="17.1301377"><ele>1173.0</ele><time>2026-04-28T13:46:16.326Z</time></trkpt><trkpt lat="43.7676554" lon="17.1301685"><ele>1172.0</ele><time>2026-04-28T13:46:17.326Z</time></trkpt><trkpt lat="43.7677687" lon="17.1302061"><ele>1171.0</ele><time>2026-04-28T13:46:18.326Z</time></trkpt><trkpt lat="43.7678777" lon="17.1302486"><ele>1170.0</ele><time>2026-04-28T13:46:19.326Z</time></trkpt><trkpt lat="43.7679939" lon="17.1302861"><ele>1169.0</ele><time>2026-04-28T13:46:20.327Z</time></trkpt><trkpt lat="43.7681067" lon="17.1303191"><ele>1169.0</ele><time>2026-04-28T13:46:21.327Z</time></trkpt><trkpt lat="43.7681956" lon="17.1303389"><ele>1169.0</ele><time>2026-04-28T13:46:22.327Z</time></trkpt><trkpt lat="43.7682746" lon="17.1303855"><ele>1169.0</ele><time>2026-04-28T13:46:23.326Z</time></trkpt><trkpt lat="43.7683333" lon="17.1304567"><ele>1169.0</ele><time>2026-04-28T13:46:24.326Z</time></trkpt><trkpt lat="43.7683896" lon="17.1305511"><ele>1169.0</ele><time>2026-04-28T13:46:25.326Z</time></trkpt><trkpt lat="43.7684379" lon="17.1306761"><ele>1169.0</ele><time>2026-04-28T13:46:26.326Z</time></trkpt><trkpt lat="43.7684833" lon="17.1308074"><ele>1169.0</ele><time>2026-04-28T13:46:27.326Z</time></trkpt><trkpt lat="43.76853" lon="17.1309412"><ele>1169.0</ele><time>2026-04-28T13:46:28.326Z</time></trkpt><trkpt lat="43.7685727" lon="17.1310753"><ele>1169.0</ele><time>2026-04-28T13:46:29.326Z</time></trkpt><trkpt lat="43.7686107" lon="17.1312237"><ele>1169.0</ele><time>2026-04-28T13:46:30.327Z</time></trkpt><trkpt lat="43.7686503" lon="17.1313774"><ele>1169.0</ele><time>2026-04-28T13:46:31.326Z</time></trkpt><trkpt lat="43.7686983" lon="17.131526"><ele>1168.2</ele><time>2026-04-28T13:46:32.326Z</time></trkpt><trkpt lat="43.768744" lon="17.1316478"><ele>1167.4</ele><time>2026-04-28T13:46:33.326Z</time></trkpt><trkpt lat="43.7687823" lon="17.131766"><ele>1166.6</ele><time>2026-04-28T13:46:34.326Z</time></trkpt><trkpt lat="43.76882" lon="17.1318936"><ele>1165.8</ele><time>2026-04-28T13:46:35.326Z</time></trkpt><trkpt lat="43.7688652" lon="17.1320029"><ele>1165.0</ele><time>2026-04-28T13:46:36.326Z</time></trkpt><trkpt lat="43.7689182" lon="17.1320858"><ele>1165.0</ele><time>2026-04-28T13:46:37.327Z</time></trkpt><trkpt lat="43.768989" lon="17.1321544"><ele>1165.0</ele><time>2026-04-28T13:46:38.327Z</time></trkpt><trkpt lat="43.7690693" lon="17.1322259"><ele>1165.0</ele><time>2026-04-28T13:46:39.327Z</time></trkpt><trkpt lat="43.7691605" lon="17.1323112"><ele>1165.0</ele><time>2026-04-28T13:46:40.326Z</time></trkpt><trkpt lat="43.7692503" lon="17.1323863"><ele>1165.0</ele><time>2026-04-28T13:46:41.326Z</time></trkpt><trkpt lat="43.7693361" lon="17.1324645"><ele>1164.0</ele><time>2026-04-28T13:46:42.326Z</time></trkpt><trkpt lat="43.769428" lon="17.1325355"><ele>1163.0</ele><time>2026-04-28T13:46:43.327Z</time></trkpt><trkpt lat="43.7695098" lon="17.1325984"><ele>1162.0</ele><time>2026-04-28T13:46:44.326Z</time></trkpt><trkpt lat="43.7695914" lon="17.1326606"><ele>1161.0</ele><time>2026-04-28T13:46:45.326Z</time></trkpt><trkpt lat="43.7696703" lon="17.1327181"><ele>1160.0</ele><time>2026-04-28T13:46:46.326Z</time></trkpt><trkpt lat="43.7697619" lon="17.1327655"><ele>1160.0</ele><time>2026-04-28T13:46:47.326Z</time></trkpt><trkpt lat="43.7698679" lon="17.1328156"><ele>1160.0</ele><time>2026-04-28T13:46:48.326Z</time></trkpt><trkpt lat="43.7699553" lon="17.1328628"><ele>1160.0</ele><time>2026-04-28T13:46:49.327Z</time></trkpt><trkpt lat="43.7700455" lon="17.1328953"><ele>1160.0</ele><time>2026-04-28T13:46:50.326Z</time></trkpt><trkpt lat="43.7701295" lon="17.1329075"><ele>1160.0</ele><time>2026-04-28T13:46:51.326Z</time></trkpt><trkpt lat="43.7702187" lon="17.1329105"><ele>1160.6</ele><time>2026-04-28T13:46:52.326Z</time></trkpt><trkpt lat="43.7703193" lon="17.1329057"><ele>1161.2</ele><time>2026-04-28T13:46:53.326Z</time></trkpt><trkpt lat="43.7704204" lon="17.1328875"><ele>1161.8</ele><time>2026-04-28T13:46:54.326Z</time></trkpt><trkpt lat="43.7705324" lon="17.1328615"><ele>1162.4</ele><time>2026-04-28T13:46:55.327Z</time></trkpt><trkpt lat="43.7706597" lon="17.1328244"><ele>1163.0</ele><time>2026-04-28T13:46:56.326Z</time></trkpt><trkpt lat="43.7707852" lon="17.132801"><ele>1163.0</ele><time>2026-04-28T13:46:57.327Z</time></trkpt><trkpt lat="43.7709154" lon="17.1327818"><ele>1163.0</ele><time>2026-04-28T13:46:58.326Z</time></trkpt><trkpt lat="43.7710443" lon="17.1327694"><ele>1163.0</ele><time>2026-04-28T13:46:59.327Z</time></trkpt><trkpt lat="43.7711683" lon="17.1327621"><ele>1163.0</ele><time>2026-04-28T13:47:00.326Z</time></trkpt><trkpt lat="43.7712845" lon="17.13274"><ele>1163.4</ele><time>2026-04-28T13:47:01.326Z</time></trkpt><trkpt lat="43.7713878" lon="17.1327092"><ele>1163.8</ele><time>2026-04-28T13:47:02.326Z</time></trkpt><trkpt lat="43.771482" lon="17.1326596"><ele>1164.2</ele><time>2026-04-28T13:47:03.326Z</time></trkpt><trkpt lat="43.7715584" lon="17.1325905"><ele>1164.6</ele><time>2026-04-28T13:47:04.326Z</time></trkpt><trkpt lat="43.7716412" lon="17.1324819"><ele>1165.0</ele><time>2026-04-28T13:47:05.326Z</time></trkpt><trkpt lat="43.771724" lon="17.1323495"><ele>1165.25</ele><time>2026-04-28T13:47:06.326Z</time></trkpt><trkpt lat="43.7718087" lon="17.1322103"><ele>1165.5</ele><time>2026-04-28T13:47:07.327Z</time></trkpt><trkpt lat="43.7718901" lon="17.1320853"><ele>1165.75</ele><time>2026-04-28T13:47:08.327Z</time></trkpt><trkpt lat="43.7719732" lon="17.1319641"><ele>1166.0</ele><time>2026-04-28T13:47:09.326Z</time></trkpt><trkpt lat="43.7720436" lon="17.1318569"><ele>1165.6</ele><time>2026-04-28T13:47:10.327Z</time></trkpt><trkpt lat="43.7721064" lon="17.1317515"><ele>1165.1999999999998</ele><time>2026-04-28T13:47:11.326Z</time></trkpt><trkpt lat="43.7721364" lon="17.1316563"><ele>1164.8000000000002</ele><time>2026-04-28T13:47:12.326Z</time></trkpt><trkpt lat="43.7721644" lon="17.1315421"><ele>1164.4</ele><time>2026-04-28T13:47:13.326Z</time></trkpt><trkpt lat="43.7721862" lon="17.1314026"><ele>1164.0</ele><time>2026-04-28T13:47:14.326Z</time></trkpt><trkpt lat="43.772237" lon="17.1312761"><ele>1165.25</ele><time>2026-04-28T13:47:15.326Z</time></trkpt><trkpt lat="43.7723015" lon="17.131179"><ele>1166.5</ele><time>2026-04-28T13:47:16.326Z</time></trkpt><trkpt lat="43.7723872" lon="17.1310614"><ele>1167.75</ele><time>2026-04-28T13:47:17.327Z</time></trkpt><trkpt lat="43.7724747" lon="17.130929"><ele>1169.0</ele><time>2026-04-28T13:47:18.326Z</time></trkpt><trkpt lat="43.7725673" lon="17.1307775"><ele>1169.75</ele><time>2026-04-28T13:47:19.327Z</time></trkpt><trkpt lat="43.7726246" lon="17.1306479"><ele>1170.5</ele><time>2026-04-28T13:47:20.326Z</time></trkpt><trkpt lat="43.7726958" lon="17.130542"><ele>1171.25</ele><time>2026-04-28T13:47:21.326Z</time></trkpt><trkpt lat="43.7727864" lon="17.1304538"><ele>1172.0</ele><time>2026-04-28T13:47:22.326Z</time></trkpt><trkpt lat="43.7729072" lon="17.1303704"><ele>1170.4</ele><time>2026-04-28T13:47:23.326Z</time></trkpt><trkpt lat="43.7730331" lon="17.1302939"><ele>1168.8000000000002</ele><time>2026-04-28T13:47:24.326Z</time></trkpt><trkpt lat="43.7731342" lon="17.1302269"><ele>1167.2</ele><time>2026-04-28T13:47:25.325Z</time></trkpt><trkpt lat="43.7732262" lon="17.1301887"><ele>1165.6000000000001</ele><time>2026-04-28T13:47:26.326Z</time></trkpt><trkpt lat="43.7733239" lon="17.1301716"><ele>1164.0</ele><time>2026-04-28T13:47:27.326Z</time></trkpt><trkpt lat="43.7734452" lon="17.1301692"><ele>1163.25</ele><time>2026-04-28T13:47:28.326Z</time></trkpt><trkpt lat="43.7735632" lon="17.1301732"><ele>1162.5</ele><time>2026-04-28T13:47:29.326Z</time></trkpt><trkpt lat="43.7736763" lon="17.1301948"><ele>1161.75</ele><time>2026-04-28T13:47:30.327Z</time></trkpt><trkpt lat="43.773793" lon="17.1302097"><ele>1161.0</ele><time>2026-04-28T13:47:31.327Z</time></trkpt><trkpt lat="43.7739097" lon="17.1302046"><ele>1161.0</ele><time>2026-04-28T13:47:32.326Z</time></trkpt><trkpt lat="43.7739998" lon="17.1301745"><ele>1161.0</ele><time>2026-04-28T13:47:33.326Z</time></trkpt><trkpt lat="43.7740821" lon="17.1301242"><ele>1161.0</ele><time>2026-04-28T13:47:34.327Z</time></trkpt><trkpt lat="43.7741376" lon="17.1300482"><ele>1161.0</ele><time>2026-04-28T13:47:35.326Z</time></trkpt><trkpt lat="43.7741752" lon="17.1299544"><ele>1161.0</ele><time>2026-04-28T13:47:36.327Z</time></trkpt><trkpt lat="43.7741906" lon="17.1298513"><ele>1161.0</ele><time>2026-04-28T13:47:37.326Z</time></trkpt><trkpt lat="43.7742058" lon="17.1297181"><ele>1160.75</ele><time>2026-04-28T13:47:38.326Z</time></trkpt><trkpt lat="43.7741936" lon="17.1295315"><ele>1160.5</ele><time>2026-04-28T13:47:39.326Z</time></trkpt><trkpt lat="43.7742077" lon="17.1294027"><ele>1160.25</ele><time>2026-04-28T13:47:40.326Z</time></trkpt><trkpt lat="43.7742336" lon="17.1292419"><ele>1160.0</ele><time>2026-04-28T13:47:41.327Z</time></trkpt><trkpt lat="43.7742577" lon="17.1290851"><ele>1159.75</ele><time>2026-04-28T13:47:42.326Z</time></trkpt><trkpt lat="43.7742801" lon="17.1289114"><ele>1159.5</ele><time>2026-04-28T13:47:43.326Z</time></trkpt><trkpt lat="43.7743011" lon="17.1287233"><ele>1159.25</ele><time>2026-04-28T13:47:44.326Z</time></trkpt><trkpt lat="43.7743263" lon="17.1285273"><ele>1159.0</ele><time>2026-04-28T13:47:45.326Z</time></trkpt><trkpt lat="43.7743433" lon="17.1283366"><ele>1159.6000000000001</ele><time>2026-04-28T13:47:46.327Z</time></trkpt><trkpt lat="43.7743532" lon="17.128163"><ele>1160.2</ele><time>2026-04-28T13:47:47.326Z</time></trkpt><trkpt lat="43.7743609" lon="17.1280387"><ele>1160.8000000000002</ele><time>2026-04-28T13:47:48.326Z</time></trkpt><trkpt lat="43.774374" lon="17.1278939"><ele>1161.4</ele><time>2026-04-28T13:47:49.326Z</time></trkpt><trkpt lat="43.7744004" lon="17.127755"><ele>1162.0</ele><time>2026-04-28T13:47:50.327Z</time></trkpt><trkpt lat="43.774444" lon="17.1276194"><ele>1159.4</ele><time>2026-04-28T13:47:51.326Z</time></trkpt><trkpt lat="43.774491" lon="17.1274884"><ele>1156.8000000000002</ele><time>2026-04-28T13:47:52.326Z</time></trkpt><trkpt lat="43.7745453" lon="17.1273875"><ele>1154.2</ele><time>2026-04-28T13:47:53.326Z</time></trkpt><trkpt lat="43.774605" lon="17.1272641"><ele>1151.6000000000001</ele><time>2026-04-28T13:47:54.326Z</time></trkpt><trkpt lat="43.7746646" lon="17.1271523"><ele>1149.0</ele><time>2026-04-28T13:47:55.327Z</time></trkpt><trkpt lat="43.7746972" lon="17.127025"><ele>1149.0</ele><time>2026-04-28T13:47:56.326Z</time></trkpt><trkpt lat="43.774726" lon="17.126877"><ele>1149.0</ele><time>2026-04-28T13:47:57.326Z</time></trkpt><trkpt lat="43.7747332" lon="17.1266856"><ele>1149.0</ele><time>2026-04-28T13:47:58.326Z</time></trkpt><trkpt lat="43.7747383" lon="17.126486"><ele>1149.0</ele><time>2026-04-28T13:47:59.326Z</time></trkpt><trkpt lat="43.7747406" lon="17.1263176"><ele>1149.0</ele><time>2026-04-28T13:48:00.327Z</time></trkpt><trkpt lat="43.77474" lon="17.1261502"><ele>1149.0</ele><time>2026-04-28T13:48:01.326Z</time></trkpt><trkpt lat="43.7747262" lon="17.1260044"><ele>1149.0</ele><time>2026-04-28T13:48:02.326Z</time></trkpt><trkpt lat="43.77469" lon="17.1258508"><ele>1149.0</ele><time>2026-04-28T13:48:03.326Z</time></trkpt><trkpt lat="43.7746649" lon="17.1257087"><ele>1149.0</ele><time>2026-04-28T13:48:04.326Z</time></trkpt><trkpt lat="43.7746569" lon="17.125566"><ele>1149.0</ele><time>2026-04-28T13:48:05.327Z</time></trkpt><trkpt lat="43.7746697" lon="17.1254298"><ele>1149.0</ele><time>2026-04-28T13:48:06.326Z</time></trkpt><trkpt lat="43.7746977" lon="17.1252693"><ele>1149.0</ele><time>2026-04-28T13:48:07.327Z</time></trkpt><trkpt lat="43.7747423" lon="17.1250878"><ele>1149.0</ele><time>2026-04-28T13:48:08.326Z</time></trkpt><trkpt lat="43.7747815" lon="17.1249193"><ele>1147.75</ele><time>2026-04-28T13:48:09.327Z</time></trkpt><trkpt lat="43.7748081" lon="17.1247472"><ele>1146.5</ele><time>2026-04-28T13:48:10.326Z</time></trkpt><trkpt lat="43.7748394" lon="17.1245789"><ele>1145.25</ele><time>2026-04-28T13:48:11.327Z</time></trkpt><trkpt lat="43.7748633" lon="17.1244169"><ele>1144.0</ele><time>2026-04-28T13:48:12.327Z</time></trkpt><trkpt lat="43.7748922" lon="17.1242594"><ele>1144.0</ele><time>2026-04-28T13:48:13.326Z</time></trkpt><trkpt lat="43.7749279" lon="17.1241302"><ele>1144.0</ele><time>2026-04-28T13:48:14.326Z</time></trkpt><trkpt lat="43.7749816" lon="17.1240311"><ele>1144.0</ele><time>2026-04-28T13:48:15.326Z</time></trkpt><trkpt lat="43.7750402" lon="17.1239572"><ele>1144.0</ele><time>2026-04-28T13:48:16.326Z</time></trkpt><trkpt lat="43.7751089" lon="17.123916"><ele>1144.0</ele><time>2026-04-28T13:48:17.326Z</time></trkpt><trkpt lat="43.7751773" lon="17.1238941"><ele>1144.0</ele><time>2026-04-28T13:48:18.326Z</time></trkpt><trkpt lat="43.7752784" lon="17.1238632"><ele>1142.8</ele><time>2026-04-28T13:48:20.327Z</time></trkpt><trkpt lat="43.775352" lon="17.123859"><ele>1141.6000000000001</ele><time>2026-04-28T13:48:22.326Z</time></trkpt><trkpt lat="43.7754247" lon="17.1239168"><ele>1140.4</ele><time>2026-04-28T13:54:14.281Z</time></trkpt><trkpt lat="43.775458" lon="17.124013"><ele>1139.2</ele><time>2026-04-28T13:54:17.281Z</time></trkpt><trkpt lat="43.7754301" lon="17.124131"><ele>1138.0</ele><time>2026-04-28T13:54:19.278Z</time></trkpt><trkpt lat="43.7754028" lon="17.1243013"><ele>1138.0</ele><time>2026-04-28T13:54:21.281Z</time></trkpt><trkpt lat="43.77537" lon="17.1244566"><ele>1138.0</ele><time>2026-04-28T13:54:22.28Z</time></trkpt><trkpt lat="43.7753319" lon="17.124647"><ele>1138.0</ele><time>2026-04-28T13:54:23.28Z</time></trkpt><trkpt lat="43.7752956" lon="17.1248317"><ele>1138.0</ele><time>2026-04-28T13:54:24.281Z</time></trkpt><trkpt lat="43.7752542" lon="17.1250225"><ele>1138.5</ele><time>2026-04-28T13:54:25.28Z</time></trkpt><trkpt lat="43.775221" lon="17.1252109"><ele>1139.0</ele><time>2026-04-28T13:54:26.28Z</time></trkpt><trkpt lat="43.7751916" lon="17.1254019"><ele>1139.5</ele><time>2026-04-28T13:54:27.279Z</time></trkpt><trkpt lat="43.7751682" lon="17.1255887"><ele>1140.0</ele><time>2026-04-28T13:54:28.28Z</time></trkpt><trkpt lat="43.7751474" lon="17.1257778"><ele>1141.0</ele><time>2026-04-28T13:54:29.281Z</time></trkpt><trkpt lat="43.7751321" lon="17.1259679"><ele>1142.0</ele><time>2026-04-28T13:54:30.28Z</time></trkpt><trkpt lat="43.7751393" lon="17.1261527"><ele>1143.0</ele><time>2026-04-28T13:54:31.279Z</time></trkpt><trkpt lat="43.775162" lon="17.1263403"><ele>1144.0</ele><time>2026-04-28T13:54:32.281Z</time></trkpt><trkpt lat="43.7751952" lon="17.1265225"><ele>1144.5</ele><time>2026-04-28T13:54:33.279Z</time></trkpt><trkpt lat="43.7752475" lon="17.1266997"><ele>1145.0</ele><time>2026-04-28T13:54:34.278Z</time></trkpt><trkpt lat="43.7753206" lon="17.1268648"><ele>1145.5</ele><time>2026-04-28T13:54:35.278Z</time></trkpt><trkpt lat="43.7754042" lon="17.1270222"><ele>1146.0</ele><time>2026-04-28T13:54:36.283Z</time></trkpt><trkpt lat="43.7755065" lon="17.1271664"><ele>1146.0</ele><time>2026-04-28T13:54:37.278Z</time></trkpt><trkpt lat="43.7756277" lon="17.1272886"><ele>1146.0</ele><time>2026-04-28T13:54:38.278Z</time></trkpt><trkpt lat="43.7757611" lon="17.1273883"><ele>1146.0</ele><time>2026-04-28T13:54:39.279Z</time></trkpt><trkpt lat="43.7759056" lon="17.1274635"><ele>1148.0</ele><time>2026-04-28T13:54:40.282Z</time></trkpt><trkpt lat="43.7760607" lon="17.1275066"><ele>1150.0</ele><time>2026-04-28T13:54:41.281Z</time></trkpt><trkpt lat="43.7762219" lon="17.1275285"><ele>1152.0</ele><time>2026-04-28T13:54:42.28Z</time></trkpt><trkpt lat="43.7763833" lon="17.1275177"><ele>1152.0</ele><time>2026-04-28T13:54:43.278Z</time></trkpt><trkpt lat="43.7765443" lon="17.1274679"><ele>1152.0</ele><time>2026-04-28T13:54:44.278Z</time></trkpt><trkpt lat="43.7767005" lon="17.1273874"><ele>1152.0</ele><time>2026-04-28T13:54:45.279Z</time></trkpt><trkpt lat="43.7768482" lon="17.1272735"><ele>1156.0</ele><time>2026-04-28T13:54:46.278Z</time></trkpt><trkpt lat="43.7769881" lon="17.1271289"><ele>1160.0</ele><time>2026-04-28T13:54:47.277Z</time></trkpt><trkpt lat="43.7771167" lon="17.1269674"><ele>1164.0</ele><time>2026-04-28T13:54:48.279Z</time></trkpt><trkpt lat="43.7772355" lon="17.1267933"><ele>1164.0</ele><time>2026-04-28T13:54:49.281Z</time></trkpt><trkpt lat="43.7773522" lon="17.1266065"><ele>1164.0</ele><time>2026-04-28T13:54:50.281Z</time></trkpt><trkpt lat="43.7774708" lon="17.1264161"><ele>1164.0</ele><time>2026-04-28T13:54:51.281Z</time></trkpt><trkpt lat="43.7775875" lon="17.1262237"><ele>1165.0</ele><time>2026-04-28T13:54:52.282Z</time></trkpt><trkpt lat="43.7776986" lon="17.1260265"><ele>1166.0</ele><time>2026-04-28T13:54:53.281Z</time></trkpt><trkpt lat="43.7778109" lon="17.1258257"><ele>1167.0</ele><time>2026-04-28T13:54:54.281Z</time></trkpt><trkpt lat="43.7779282" lon="17.1256253"><ele>1167.0</ele><time>2026-04-28T13:54:55.28Z</time></trkpt><trkpt lat="43.7780468" lon="17.125426"><ele>1167.0</ele><time>2026-04-28T13:54:56.279Z</time></trkpt><trkpt lat="43.7781632" lon="17.1252198"><ele>1167.0</ele><time>2026-04-28T13:54:57.277Z</time></trkpt><trkpt lat="43.7782779" lon="17.125021"><ele>1163.3333333333333</ele><time>2026-04-28T13:54:58.278Z</time></trkpt><trkpt lat="43.7783921" lon="17.1248172"><ele>1159.6666666666665</ele><time>2026-04-28T13:54:59.282Z</time></trkpt><trkpt lat="43.7785077" lon="17.1246086"><ele>1156.0</ele><time>2026-04-28T13:55:00.28Z</time></trkpt><trkpt lat="43.7786267" lon="17.124401"><ele>1159.3333333333333</ele><time>2026-04-28T13:55:01.279Z</time></trkpt><trkpt lat="43.7787423" lon="17.1241969"><ele>1162.6666666666667</ele><time>2026-04-28T13:55:02.28Z</time></trkpt><trkpt lat="43.7788597" lon="17.1239885"><ele>1166.0</ele><time>2026-04-28T13:55:03.279Z</time></trkpt><trkpt lat="43.7789781" lon="17.1237858"><ele>1166.0</ele><time>2026-04-28T13:55:04.28Z</time></trkpt><trkpt lat="43.7790982" lon="17.123579"><ele>1166.0</ele><time>2026-04-28T13:55:05.279Z</time></trkpt><trkpt lat="43.779228" lon="17.123383"><ele>1166.0</ele><time>2026-04-28T13:55:06.277Z</time></trkpt><trkpt lat="43.7793712" lon="17.1232049"><ele>1168.0</ele><time>2026-04-28T13:55:07.282Z</time></trkpt><trkpt lat="43.7795131" lon="17.1230604"><ele>1170.0</ele><time>2026-04-28T13:55:08.282Z</time></trkpt><trkpt lat="43.779671" lon="17.1229466"><ele>1172.0</ele><time>2026-04-28T13:55:09.282Z</time></trkpt><trkpt lat="43.7798387" lon="17.1228762"><ele>1172.0</ele><time>2026-04-28T13:55:10.278Z</time></trkpt><trkpt lat="43.780011" lon="17.1228372"><ele>1172.0</ele><time>2026-04-28T13:55:11.282Z</time></trkpt><trkpt lat="43.7801831" lon="17.1228424"><ele>1172.0</ele><time>2026-04-28T13:55:12.281Z</time></trkpt><trkpt lat="43.7803487" lon="17.1228808"><ele>1173.0</ele><time>2026-04-28T13:55:13.279Z</time></trkpt><trkpt lat="43.7805097" lon="17.1229638"><ele>1174.0</ele><time>2026-04-28T13:55:14.279Z</time></trkpt><trkpt lat="43.7806652" lon="17.1230799"><ele>1175.0</ele><time>2026-04-28T13:55:15.278Z</time></trkpt><trkpt lat="43.7808164" lon="17.1232353"><ele>1177.3333333333335</ele><time>2026-04-28T13:55:16.276Z</time></trkpt><trkpt lat="43.7809524" lon="17.1234107"><ele>1179.6666666666667</ele><time>2026-04-28T13:55:17.279Z</time></trkpt><trkpt lat="43.7810892" lon="17.1236047"><ele>1182.0</ele><time>2026-04-28T13:55:18.281Z</time></trkpt><trkpt lat="43.7812246" lon="17.1238055"><ele>1182.0</ele><time>2026-04-28T13:55:19.279Z</time></trkpt><trkpt lat="43.7813547" lon="17.1240092"><ele>1182.0</ele><time>2026-04-28T13:55:20.278Z</time></trkpt><trkpt lat="43.7814876" lon="17.1242151"><ele>1182.0</ele><time>2026-04-28T13:55:21.279Z</time></trkpt><trkpt lat="43.7816213" lon="17.1244182"><ele>1181.0</ele><time>2026-04-28T13:55:22.278Z</time></trkpt><trkpt lat="43.7817542" lon="17.1246156"><ele>1180.0</ele><time>2026-04-28T13:55:23.28Z</time></trkpt><trkpt lat="43.7818809" lon="17.1248142"><ele>1179.0</ele><time>2026-04-28T13:55:24.281Z</time></trkpt><trkpt lat="43.7820067" lon="17.125009"><ele>1183.0</ele><time>2026-04-28T13:55:25.281Z</time></trkpt><trkpt lat="43.7821312" lon="17.1252043"><ele>1187.0</ele><time>2026-04-28T13:55:26.279Z</time></trkpt><trkpt lat="43.7822367" lon="17.1253889"><ele>1191.0</ele><time>2026-04-28T13:55:27.28Z</time></trkpt><trkpt lat="43.7823286" lon="17.1255701"><ele>1193.75</ele><time>2026-04-28T13:55:28.279Z</time></trkpt><trkpt lat="43.7824067" lon="17.1257317"><ele>1196.5</ele><time>2026-04-28T13:55:29.28Z</time></trkpt><trkpt lat="43.7824704" lon="17.1258736"><ele>1199.25</ele><time>2026-04-28T13:55:30.279Z</time></trkpt><trkpt lat="43.7825257" lon="17.1260079"><ele>1202.0</ele><time>2026-04-28T13:55:31.28Z</time></trkpt><trkpt lat="43.7825672" lon="17.1261291"><ele>1202.0</ele><time>2026-04-28T13:55:32.28Z</time></trkpt><trkpt lat="43.7826061" lon="17.1262428"><ele>1202.0</ele><time>2026-04-28T13:55:33.277Z</time></trkpt><trkpt lat="43.7826412" lon="17.1263594"><ele>1202.0</ele><time>2026-04-28T13:55:34.278Z</time></trkpt><trkpt lat="43.7826774" lon="17.126472"><ele>1202.0</ele><time>2026-04-28T13:55:35.277Z</time></trkpt><trkpt lat="43.7827091" lon="17.126591"><ele>1202.0</ele><time>2026-04-28T13:55:36.279Z</time></trkpt><trkpt lat="43.782734" lon="17.1266985"><ele>1202.0</ele><time>2026-04-28T13:55:37.279Z</time></trkpt><trkpt lat="43.7827587" lon="17.1268152"><ele>1204.5</ele><time>2026-04-28T13:55:38.278Z</time></trkpt><trkpt lat="43.7827825" lon="17.1269443"><ele>1207.0</ele><time>2026-04-28T13:55:39.28Z</time></trkpt><trkpt lat="43.7828048" lon="17.1270907"><ele>1209.5</ele><time>2026-04-28T13:55:40.276Z</time></trkpt><trkpt lat="43.7828254" lon="17.1272538"><ele>1212.0</ele><time>2026-04-28T13:55:41.279Z</time></trkpt><trkpt lat="43.7828494" lon="17.1274358"><ele>1213.5</ele><time>2026-04-28T13:55:42.279Z</time></trkpt><trkpt lat="43.7828682" lon="17.1276301"><ele>1215.0</ele><time>2026-04-28T13:55:43.28Z</time></trkpt><trkpt lat="43.7828816" lon="17.1278295"><ele>1216.5</ele><time>2026-04-28T13:55:44.28Z</time></trkpt><trkpt lat="43.7828839" lon="17.1280239"><ele>1218.0</ele><time>2026-04-28T13:55:45.28Z</time></trkpt><trkpt lat="43.7828772" lon="17.1282277"><ele>1218.6666666666667</ele><time>2026-04-28T13:55:46.28Z</time></trkpt><trkpt lat="43.7828659" lon="17.128439"><ele>1219.3333333333335</ele><time>2026-04-28T13:55:47.281Z</time></trkpt><trkpt lat="43.7828475" lon="17.1286517"><ele>1220.0</ele><time>2026-04-28T13:55:48.28Z</time></trkpt><trkpt lat="43.7828245" lon="17.1288665"><ele>1219.3333333333335</ele><time>2026-04-28T13:55:49.279Z</time></trkpt><trkpt lat="43.7827941" lon="17.1290801"><ele>1218.6666666666667</ele><time>2026-04-28T13:55:50.28Z</time></trkpt><trkpt lat="43.7827597" lon="17.1292922"><ele>1218.0</ele><time>2026-04-28T13:55:51.28Z</time></trkpt><trkpt lat="43.7827231" lon="17.129514"><ele>1218.0</ele><time>2026-04-28T13:55:52.28Z</time></trkpt><trkpt lat="43.7826839" lon="17.1297347"><ele>1218.0</ele><time>2026-04-28T13:55:53.279Z</time></trkpt><trkpt lat="43.7826374" lon="17.1299531"><ele>1218.0</ele><time>2026-04-28T13:55:54.28Z</time></trkpt><trkpt lat="43.7825911" lon="17.1301799"><ele>1217.3333333333333</ele><time>2026-04-28T13:55:55.279Z</time></trkpt><trkpt lat="43.7825459" lon="17.1304122"><ele>1216.6666666666665</ele><time>2026-04-28T13:55:56.278Z</time></trkpt><trkpt lat="43.7824952" lon="17.1306395"><ele>1216.0</ele><time>2026-04-28T13:55:57.281Z</time></trkpt><trkpt lat="43.7824473" lon="17.1308767"><ele>1216.0</ele><time>2026-04-28T13:55:58.282Z</time></trkpt><trkpt lat="43.7824016" lon="17.1311061"><ele>1216.0</ele><time>2026-04-28T13:55:59.28Z</time></trkpt><trkpt lat="43.7823543" lon="17.1313422"><ele>1216.0</ele><time>2026-04-28T13:56:00.28Z</time></trkpt><trkpt lat="43.7823055" lon="17.1315722"><ele>1215.6666666666665</ele><time>2026-04-28T13:56:01.281Z</time></trkpt><trkpt lat="43.7822603" lon="17.1317991"><ele>1215.3333333333333</ele><time>2026-04-28T13:56:02.281Z</time></trkpt><trkpt lat="43.7822196" lon="17.1320117"><ele>1215.0</ele><time>2026-04-28T13:56:03.279Z</time></trkpt><trkpt lat="43.7821741" lon="17.1322233"><ele>1217.0</ele><time>2026-04-28T13:56:04.285Z</time></trkpt><trkpt lat="43.7821304" lon="17.1324295"><ele>1219.0</ele><time>2026-04-28T13:56:05.28Z</time></trkpt><trkpt lat="43.7820857" lon="17.1326453"><ele>1221.0</ele><time>2026-04-28T13:56:06.28Z</time></trkpt><trkpt lat="43.7820497" lon="17.1328608"><ele>1221.0</ele><time>2026-04-28T13:56:07.28Z</time></trkpt><trkpt lat="43.7820087" lon="17.1330889"><ele>1221.0</ele><time>2026-04-28T13:56:08.28Z</time></trkpt><trkpt lat="43.7819695" lon="17.1333191"><ele>1221.0</ele><time>2026-04-28T13:56:09.28Z</time></trkpt><trkpt lat="43.7819353" lon="17.1335581"><ele>1221.6666666666667</ele><time>2026-04-28T13:56:10.284Z</time></trkpt><trkpt lat="43.7819096" lon="17.1338019"><ele>1222.3333333333335</ele><time>2026-04-28T13:56:11.28Z</time></trkpt><trkpt lat="43.7818923" lon="17.1340457"><ele>1223.0</ele><time>2026-04-28T13:56:12.279Z</time></trkpt><trkpt lat="43.7818813" lon="17.1342967"><ele>1220.6666666666667</ele><time>2026-04-28T13:56:13.28Z</time></trkpt><trkpt lat="43.7818765" lon="17.1345551"><ele>1218.3333333333333</ele><time>2026-04-28T13:56:14.279Z</time></trkpt><trkpt lat="43.781881" lon="17.1348214"><ele>1216.0</ele><time>2026-04-28T13:56:15.281Z</time></trkpt><trkpt lat="43.7818929" lon="17.1350853"><ele>1215.0</ele><time>2026-04-28T13:56:16.28Z</time></trkpt><trkpt lat="43.7819181" lon="17.1353525"><ele>1214.0</ele><time>2026-04-28T13:56:17.28Z</time></trkpt><trkpt lat="43.7819566" lon="17.1356217"><ele>1213.0</ele><time>2026-04-28T13:56:18.278Z</time></trkpt><trkpt lat="43.7820078" lon="17.1358916"><ele>1213.0</ele><time>2026-04-28T13:56:19.282Z</time></trkpt><trkpt lat="43.7820645" lon="17.1361569"><ele>1213.0</ele><time>2026-04-28T13:56:20.278Z</time></trkpt><trkpt lat="43.7821297" lon="17.1364119"><ele>1213.0</ele><time>2026-04-28T13:56:21.28Z</time></trkpt><trkpt lat="43.7821886" lon="17.1366635"><ele>1212.6666666666665</ele><time>2026-04-28T13:56:22.28Z</time></trkpt><trkpt lat="43.7822448" lon="17.1369034"><ele>1212.3333333333333</ele><time>2026-04-28T13:56:23.28Z</time></trkpt><trkpt lat="43.7823004" lon="17.1371413"><ele>1212.0</ele><time>2026-04-28T13:56:24.28Z</time></trkpt><trkpt lat="43.7823527" lon="17.137379"><ele>1211.6666666666667</ele><time>2026-04-28T13:56:25.28Z</time></trkpt><trkpt lat="43.7824001" lon="17.1376222"><ele>1211.3333333333335</ele><time>2026-04-28T13:56:26.28Z</time></trkpt><trkpt lat="43.7824459" lon="17.1378691"><ele>1211.0</ele><time>2026-04-28T13:56:27.279Z</time></trkpt><trkpt lat="43.7824813" lon="17.1381215"><ele>1210.6666666666667</ele><time>2026-04-28T13:56:28.279Z</time></trkpt><trkpt lat="43.7825183" lon="17.138389"><ele>1210.3333333333333</ele><time>2026-04-28T13:56:29.281Z</time></trkpt><trkpt lat="43.7825444" lon="17.1386572"><ele>1210.0</ele><time>2026-04-28T13:56:30.28Z</time></trkpt><trkpt lat="43.7825626" lon="17.1389309"><ele>1208.6666666666665</ele><time>2026-04-28T13:56:31.279Z</time></trkpt><trkpt lat="43.7825706" lon="17.1392105"><ele>1207.3333333333333</ele><time>2026-04-28T13:56:32.28Z</time></trkpt><trkpt lat="43.7825748" lon="17.1394923"><ele>1206.0</ele><time>2026-04-28T13:56:33.279Z</time></trkpt><trkpt lat="43.7825671" lon="17.1397762"><ele>1204.3333333333333</ele><time>2026-04-28T13:56:34.28Z</time></trkpt><trkpt lat="43.782557" lon="17.1400615"><ele>1202.6666666666665</ele><time>2026-04-28T13:56:35.281Z</time></trkpt><trkpt lat="43.7825502" lon="17.1403499"><ele>1201.0</ele><time>2026-04-28T13:56:36.281Z</time></trkpt><trkpt lat="43.7825339" lon="17.1406412"><ele>1198.6666666666665</ele><time>2026-04-28T13:56:37.28Z</time></trkpt><trkpt lat="43.7825184" lon="17.1409247"><ele>1196.3333333333333</ele><time>2026-04-28T13:56:38.279Z</time></trkpt><trkpt lat="43.7825078" lon="17.1412068"><ele>1194.0</ele><time>2026-04-28T13:56:39.28Z</time></trkpt><trkpt lat="43.7824896" lon="17.1414828"><ele>1191.0</ele><time>2026-04-28T13:56:40.288Z</time></trkpt><trkpt lat="43.7824788" lon="17.141759"><ele>1188.0</ele><time>2026-04-28T13:56:41.282Z</time></trkpt><trkpt lat="43.7824669" lon="17.1420404"><ele>1185.0</ele><time>2026-04-28T13:56:42.281Z</time></trkpt><trkpt lat="43.7824499" lon="17.1423256"><ele>1184.0</ele><time>2026-04-28T13:56:43.279Z</time></trkpt><trkpt lat="43.782436" lon="17.1426143"><ele>1183.0</ele><time>2026-04-28T13:56:44.279Z</time></trkpt><trkpt lat="43.7824183" lon="17.142908"><ele>1182.0</ele><time>2026-04-28T13:56:45.281Z</time></trkpt><trkpt lat="43.7824078" lon="17.1431943"><ele>1182.0</ele><time>2026-04-28T13:56:46.283Z</time></trkpt><trkpt lat="43.7824034" lon="17.1434781"><ele>1182.0</ele><time>2026-04-28T13:56:47.279Z</time></trkpt><trkpt lat="43.7824106" lon="17.1437605"><ele>1182.0</ele><time>2026-04-28T13:56:48.28Z</time></trkpt><trkpt lat="43.7824377" lon="17.1440397"><ele>1180.6666666666667</ele><time>2026-04-28T13:56:49.281Z</time></trkpt><trkpt lat="43.7824777" lon="17.1443176"><ele>1179.3333333333335</ele><time>2026-04-28T13:56:50.28Z</time></trkpt><trkpt lat="43.782531" lon="17.1445883"><ele>1178.0</ele><time>2026-04-28T13:56:51.281Z</time></trkpt><trkpt lat="43.7825952" lon="17.1448626"><ele>1177.6666666666667</ele><time>2026-04-28T13:56:52.28Z</time></trkpt><trkpt lat="43.7826657" lon="17.1451405"><ele>1177.3333333333333</ele><time>2026-04-28T13:56:53.278Z</time></trkpt><trkpt lat="43.7827283" lon="17.1454211"><ele>1177.0</ele><time>2026-04-28T13:56:54.28Z</time></trkpt><trkpt lat="43.7827923" lon="17.1457036"><ele>1170.3333333333333</ele><time>2026-04-28T13:56:55.28Z</time></trkpt><trkpt lat="43.782834" lon="17.1459936"><ele>1163.6666666666667</ele><time>2026-04-28T13:56:56.282Z</time></trkpt><trkpt lat="43.7828563" lon="17.1462921"><ele>1157.0</ele><time>2026-04-28T13:56:57.28Z</time></trkpt><trkpt lat="43.7828577" lon="17.1465938"><ele>1155.3333333333335</ele><time>2026-04-28T13:56:58.278Z</time></trkpt><trkpt lat="43.7828438" lon="17.1469004"><ele>1153.6666666666667</ele><time>2026-04-28T13:56:59.28Z</time></trkpt><trkpt lat="43.7828205" lon="17.1472104"><ele>1152.0</ele><time>2026-04-28T13:57:00.279Z</time></trkpt><trkpt lat="43.7827955" lon="17.1475255"><ele>1151.0</ele><time>2026-04-28T13:57:01.28Z</time></trkpt><trkpt lat="43.7827751" lon="17.1478317"><ele>1150.0</ele><time>2026-04-28T13:57:02.281Z</time></trkpt><trkpt lat="43.7827652" lon="17.1481393"><ele>1149.0</ele><time>2026-04-28T13:57:03.28Z</time></trkpt><trkpt lat="43.7827681" lon="17.1484467"><ele>1147.6666666666667</ele><time>2026-04-28T13:57:04.28Z</time></trkpt><trkpt lat="43.7827789" lon="17.1487487"><ele>1146.3333333333335</ele><time>2026-04-28T13:57:05.279Z</time></trkpt><trkpt lat="43.7828025" lon="17.1490479"><ele>1145.0</ele><time>2026-04-28T13:57:06.281Z</time></trkpt><trkpt lat="43.7828352" lon="17.1493386"><ele>1145.0</ele><time>2026-04-28T13:57:07.279Z</time></trkpt><trkpt lat="43.7828777" lon="17.1496261"><ele>1145.0</ele><time>2026-04-28T13:57:08.28Z</time></trkpt><trkpt lat="43.7829175" lon="17.1499114"><ele>1145.0</ele><time>2026-04-28T13:57:09.278Z</time></trkpt><trkpt lat="43.7829529" lon="17.1501887"><ele>1144.3333333333335</ele><time>2026-04-28T13:57:10.279Z</time></trkpt><trkpt lat="43.7829794" lon="17.1504533"><ele>1143.6666666666667</ele><time>2026-04-28T13:57:11.281Z</time></trkpt><trkpt lat="43.7829973" lon="17.1507164"><ele>1143.0</ele><time>2026-04-28T13:57:12.28Z</time></trkpt><trkpt lat="43.7829971" lon="17.1509668"><ele>1143.0</ele><time>2026-04-28T13:57:13.278Z</time></trkpt><trkpt lat="43.7829851" lon="17.1512154"><ele>1143.0</ele><time>2026-04-28T13:57:14.281Z</time></trkpt><trkpt lat="43.7829547" lon="17.151457"><ele>1143.0</ele><time>2026-04-28T13:57:15.28Z</time></trkpt><trkpt lat="43.7829144" lon="17.1517107"><ele>1141.6666666666667</ele><time>2026-04-28T13:57:16.281Z</time></trkpt><trkpt lat="43.782859" lon="17.1519685"><ele>1140.3333333333335</ele><time>2026-04-28T13:57:17.28Z</time></trkpt><trkpt lat="43.7827963" lon="17.1522296"><ele>1139.0</ele><time>2026-04-28T13:57:18.28Z</time></trkpt><trkpt lat="43.7827287" lon="17.1524952"><ele>1140.3333333333335</ele><time>2026-04-28T13:57:19.283Z</time></trkpt><trkpt lat="43.782658" lon="17.1527735"><ele>1141.6666666666667</ele><time>2026-04-28T13:57:20.278Z</time></trkpt><trkpt lat="43.7825952" lon="17.153055"><ele>1143.0</ele><time>2026-04-28T13:57:21.279Z</time></trkpt><trkpt lat="43.7825412" lon="17.1533531"><ele>1143.0</ele><time>2026-04-28T13:57:22.28Z</time></trkpt><trkpt lat="43.7824964" lon="17.1536526"><ele>1143.0</ele><time>2026-04-28T13:57:23.279Z</time></trkpt><trkpt lat="43.7824585" lon="17.1539582"><ele>1143.0</ele><time>2026-04-28T13:57:24.28Z</time></trkpt><trkpt lat="43.7824257" lon="17.1542719"><ele>1141.0</ele><time>2026-04-28T13:57:25.28Z</time></trkpt><trkpt lat="43.7823967" lon="17.1545898"><ele>1139.0</ele><time>2026-04-28T13:57:26.28Z</time></trkpt><trkpt lat="43.7823661" lon="17.1549073"><ele>1136.0</ele><time>2026-04-28T13:57:27.279Z</time></trkpt><trkpt lat="43.7823366" lon="17.1552283"><ele>1133.0</ele><time>2026-04-28T13:57:28.28Z</time></trkpt><trkpt lat="43.782306" lon="17.1555504"><ele>1130.0</ele><time>2026-04-28T13:57:29.28Z</time></trkpt><trkpt lat="43.7822746" lon="17.15587"><ele>1127.0</ele><time>2026-04-28T13:57:30.279Z</time></trkpt><trkpt lat="43.7822464" lon="17.156188"><ele>1127.0</ele><time>2026-04-28T13:57:31.278Z</time></trkpt><trkpt lat="43.7822182" lon="17.1565042"><ele>1127.0</ele><time>2026-04-28T13:57:32.281Z</time></trkpt><trkpt lat="43.7822005" lon="17.1568143"><ele>1126.0</ele><time>2026-04-28T13:57:33.278Z</time></trkpt><trkpt lat="43.7821857" lon="17.1571261"><ele>1125.0</ele><time>2026-04-28T13:57:34.28Z</time></trkpt><trkpt lat="43.7821806" lon="17.1574355"><ele>1124.0</ele><time>2026-04-28T13:57:35.278Z</time></trkpt><trkpt lat="43.7821893" lon="17.1577421"><ele>1122.6666666666667</ele><time>2026-04-28T13:57:36.28Z</time></trkpt><trkpt lat="43.7822165" lon="17.1580449"><ele>1121.3333333333333</ele><time>2026-04-28T13:57:37.281Z</time></trkpt><trkpt lat="43.7822729" lon="17.1583328"><ele>1120.0</ele><time>2026-04-28T13:57:38.279Z</time></trkpt><trkpt lat="43.7823469" lon="17.1586257"><ele>1119.3333333333333</ele><time>2026-04-28T13:57:39.279Z</time></trkpt><trkpt lat="43.7824376" lon="17.158906"><ele>1118.6666666666667</ele><time>2026-04-28T13:57:40.279Z</time></trkpt><trkpt lat="43.7825319" lon="17.1591795"><ele>1118.0</ele><time>2026-04-28T13:57:41.279Z</time></trkpt><trkpt lat="43.7826269" lon="17.1594504"><ele>1112.0</ele><time>2026-04-28T13:57:42.279Z</time></trkpt><trkpt lat="43.7827243" lon="17.1597224"><ele>1106.0</ele><time>2026-04-28T13:57:43.279Z</time></trkpt><trkpt lat="43.7828247" lon="17.1599993"><ele>1100.0</ele><time>2026-04-28T13:57:44.279Z</time></trkpt><trkpt lat="43.7829119" lon="17.1602708"><ele>1100.0</ele><time>2026-04-28T13:57:45.278Z</time></trkpt><trkpt lat="43.7829865" lon="17.1605588"><ele>1100.0</ele><time>2026-04-28T13:57:46.28Z</time></trkpt><trkpt lat="43.7830372" lon="17.1608559"><ele>1100.0</ele><time>2026-04-28T13:57:47.279Z</time></trkpt><trkpt lat="43.7830724" lon="17.1611629"><ele>1101.0</ele><time>2026-04-28T13:57:48.28Z</time></trkpt><trkpt lat="43.7830867" lon="17.1614706"><ele>1102.0</ele><time>2026-04-28T13:57:49.282Z</time></trkpt><trkpt lat="43.7830905" lon="17.1617833"><ele>1103.0</ele><time>2026-04-28T13:57:50.279Z</time></trkpt><trkpt lat="43.783081" lon="17.1620964"><ele>1102.5</ele><time>2026-04-28T13:57:51.279Z</time></trkpt><trkpt lat="43.7830672" lon="17.1624148"><ele>1102.0</ele><time>2026-04-28T13:57:52.284Z</time></trkpt><trkpt lat="43.7830533" lon="17.1627362"><ele>1102.0</ele><time>2026-04-28T13:57:53.281Z</time></trkpt><trkpt lat="43.7830383" lon="17.1630626"><ele>1102.0</ele><time>2026-04-28T13:57:54.28Z</time></trkpt><trkpt lat="43.7830281" lon="17.1633908"><ele>1098.5</ele><time>2026-04-28T13:57:55.279Z</time></trkpt><trkpt lat="43.7830157" lon="17.1637184"><ele>1095.0</ele><time>2026-04-28T13:57:56.28Z</time></trkpt><trkpt lat="43.7830119" lon="17.1640533"><ele>1095.0</ele><time>2026-04-28T13:57:57.279Z</time></trkpt><trkpt lat="43.7830179" lon="17.1643833"><ele>1095.0</ele><time>2026-04-28T13:57:58.28Z</time></trkpt><trkpt lat="43.7830343" lon="17.1647197"><ele>1093.0</ele><time>2026-04-28T13:57:59.278Z</time></trkpt><trkpt lat="43.7830613" lon="17.1650511"><ele>1091.0</ele><time>2026-04-28T13:58:00.279Z</time></trkpt><trkpt lat="43.7831104" lon="17.1653737"><ele>1091.0</ele><time>2026-04-28T13:58:01.279Z</time></trkpt><trkpt lat="43.7831802" lon="17.1656872"><ele>1091.0</ele><time>2026-04-28T13:58:02.279Z</time></trkpt><trkpt lat="43.7832616" lon="17.1659875"><ele>1091.3333333333335</ele><time>2026-04-28T13:58:03.282Z</time></trkpt><trkpt lat="43.7833527" lon="17.1662651"><ele>1091.6666666666667</ele><time>2026-04-28T13:58:04.279Z</time></trkpt><trkpt lat="43.7834613" lon="17.1665348"><ele>1092.0</ele><time>2026-04-28T13:58:05.279Z</time></trkpt><trkpt lat="43.7835793" lon="17.1667985"><ele>1090.0</ele><time>2026-04-28T13:58:06.279Z</time></trkpt><trkpt lat="43.7837161" lon="17.1670357"><ele>1088.0</ele><time>2026-04-28T13:58:07.279Z</time></trkpt><trkpt lat="43.7838677" lon="17.1672658"><ele>1086.0</ele><time>2026-04-28T13:58:08.28Z</time></trkpt><trkpt lat="43.7840302" lon="17.1674782"><ele>1085.0</ele><time>2026-04-28T13:58:09.28Z</time></trkpt><trkpt lat="43.7842065" lon="17.1676727"><ele>1084.0</ele><time>2026-04-28T13:58:10.279Z</time></trkpt><trkpt lat="43.7843927" lon="17.1678499"><ele>1082.6666666666665</ele><time>2026-04-28T13:58:11.277Z</time></trkpt><trkpt lat="43.7845901" lon="17.1679962"><ele>1081.3333333333333</ele><time>2026-04-28T13:58:12.279Z</time></trkpt><trkpt lat="43.7847922" lon="17.1681348"><ele>1080.0</ele><time>2026-04-28T13:58:13.281Z</time></trkpt><trkpt lat="43.7850022" lon="17.1682601"><ele>1079.5</ele><time>2026-04-28T13:58:14.28Z</time></trkpt><trkpt lat="43.7852166" lon="17.168371"><ele>1079.0</ele><time>2026-04-28T13:58:15.279Z</time></trkpt><trkpt lat="43.7854343" lon="17.1684702"><ele>1079.0</ele><time>2026-04-28T13:58:16.281Z</time></trkpt><trkpt lat="43.7856507" lon="17.1685683"><ele>1079.0</ele><time>2026-04-28T13:58:17.28Z</time></trkpt><trkpt lat="43.7858671" lon="17.1686599"><ele>1078.0</ele><time>2026-04-28T13:58:18.281Z</time></trkpt><trkpt lat="43.7860823" lon="17.1687531"><ele>1077.0</ele><time>2026-04-28T13:58:19.28Z</time></trkpt><trkpt lat="43.7862966" lon="17.1688476"><ele>1077.0</ele><time>2026-04-28T13:58:20.281Z</time></trkpt><trkpt lat="43.7865042" lon="17.1689361"><ele>1077.0</ele><time>2026-04-28T13:58:21.279Z</time></trkpt><trkpt lat="43.7867149" lon="17.1690226"><ele>1077.0</ele><time>2026-04-28T13:58:22.284Z</time></trkpt><trkpt lat="43.786921" lon="17.1691043"><ele>1076.0</ele><time>2026-04-28T13:58:23.28Z</time></trkpt><trkpt lat="43.7871229" lon="17.1691861"><ele>1075.0</ele><time>2026-04-28T13:58:24.279Z</time></trkpt><trkpt lat="43.7873225" lon="17.1692691"><ele>1074.0</ele><time>2026-04-28T13:58:25.282Z</time></trkpt><trkpt lat="43.787524" lon="17.1693487"><ele>1073.6666666666667</ele><time>2026-04-28T13:58:26.281Z</time></trkpt><trkpt lat="43.787719" lon="17.1694265"><ele>1073.3333333333335</ele><time>2026-04-28T13:58:27.28Z</time></trkpt><trkpt lat="43.7879157" lon="17.1695083"><ele>1073.0</ele><time>2026-04-28T13:58:28.281Z</time></trkpt><trkpt lat="43.7881078" lon="17.1695846"><ele>1073.0</ele><time>2026-04-28T13:58:29.282Z</time></trkpt><trkpt lat="43.7882987" lon="17.1696611"><ele>1073.0</ele><time>2026-04-28T13:58:30.28Z</time></trkpt><trkpt lat="43.7884918" lon="17.1697388"><ele>1073.0</ele><time>2026-04-28T13:58:31.28Z</time></trkpt><trkpt lat="43.7886825" lon="17.1698162"><ele>1072.6666666666667</ele><time>2026-04-28T13:58:32.279Z</time></trkpt><trkpt lat="43.7888715" lon="17.169891"><ele>1072.3333333333333</ele><time>2026-04-28T13:58:33.282Z</time></trkpt><trkpt lat="43.7890546" lon="17.1699586"><ele>1072.0</ele><time>2026-04-28T13:58:34.282Z</time></trkpt><trkpt lat="43.7892388" lon="17.1700254"><ele>1072.6666666666665</ele><time>2026-04-28T13:58:35.279Z</time></trkpt><trkpt lat="43.7894256" lon="17.1700876"><ele>1073.3333333333333</ele><time>2026-04-28T13:58:36.28Z</time></trkpt><trkpt lat="43.7896112" lon="17.1701517"><ele>1074.0</ele><time>2026-04-28T13:58:37.28Z</time></trkpt><trkpt lat="43.789801" lon="17.1702109"><ele>1074.0</ele><time>2026-04-28T13:58:38.281Z</time></trkpt><trkpt lat="43.7899881" lon="17.1702636"><ele>1074.0</ele><time>2026-04-28T13:58:39.28Z</time></trkpt><trkpt lat="43.7901778" lon="17.1703119"><ele>1074.0</ele><time>2026-04-28T13:58:40.281Z</time></trkpt><trkpt lat="43.7903663" lon="17.1703602"><ele>1073.0</ele><time>2026-04-28T13:58:41.28Z</time></trkpt><trkpt lat="43.7905557" lon="17.1704005"><ele>1072.0</ele><time>2026-04-28T13:58:42.282Z</time></trkpt><trkpt lat="43.7907469" lon="17.1704401"><ele>1071.0</ele><time>2026-04-28T13:58:43.279Z</time></trkpt><trkpt lat="43.7909392" lon="17.1704696"><ele>1071.3333333333333</ele><time>2026-04-28T13:58:44.279Z</time></trkpt><trkpt lat="43.7911312" lon="17.1705029"><ele>1071.6666666666665</ele><time>2026-04-28T13:58:45.28Z</time></trkpt><trkpt lat="43.7913251" lon="17.1705292"><ele>1072.0</ele><time>2026-04-28T13:58:46.28Z</time></trkpt><trkpt lat="43.7915189" lon="17.1705544"><ele>1072.0</ele><time>2026-04-28T13:58:47.281Z</time></trkpt><trkpt lat="43.7917106" lon="17.1705762"><ele>1072.0</ele><time>2026-04-28T13:58:48.28Z</time></trkpt><trkpt lat="43.7918963" lon="17.1705919"><ele>1072.0</ele><time>2026-04-28T13:58:49.279Z</time></trkpt><trkpt lat="43.7920803" lon="17.1706036"><ele>1071.6666666666665</ele><time>2026-04-28T13:58:50.28Z</time></trkpt><trkpt lat="43.7922615" lon="17.1706126"><ele>1071.3333333333333</ele><time>2026-04-28T13:58:51.279Z</time></trkpt><trkpt lat="43.7924404" lon="17.1706178"><ele>1071.0</ele><time>2026-04-28T13:58:52.281Z</time></trkpt><trkpt lat="43.7926184" lon="17.1706198"><ele>1070.6666666666667</ele><time>2026-04-28T13:58:53.28Z</time></trkpt><trkpt lat="43.7927965" lon="17.1706187"><ele>1070.3333333333335</ele><time>2026-04-28T13:58:54.278Z</time></trkpt><trkpt lat="43.7929753" lon="17.1706113"><ele>1070.0</ele><time>2026-04-28T13:58:55.28Z</time></trkpt><trkpt lat="43.7931555" lon="17.1706037"><ele>1070.0</ele><time>2026-04-28T13:58:56.279Z</time></trkpt><trkpt lat="43.7933395" lon="17.1705967"><ele>1070.0</ele><time>2026-04-28T13:58:57.28Z</time></trkpt><trkpt lat="43.7935243" lon="17.17058"><ele>1070.0</ele><time>2026-04-28T13:58:58.279Z</time></trkpt><trkpt lat="43.7937106" lon="17.1705638"><ele>1070.3333333333335</ele><time>2026-04-28T13:58:59.28Z</time></trkpt><trkpt lat="43.7939002" lon="17.1705379"><ele>1070.6666666666667</ele><time>2026-04-28T13:59:00.28Z</time></trkpt><trkpt lat="43.7940906" lon="17.1705126"><ele>1071.0</ele><time>2026-04-28T13:59:01.279Z</time></trkpt><trkpt lat="43.7942877" lon="17.1704869"><ele>1071.0</ele><time>2026-04-28T13:59:02.279Z</time></trkpt><trkpt lat="43.7944845" lon="17.1704525"><ele>1071.0</ele><time>2026-04-28T13:59:03.28Z</time></trkpt><trkpt lat="43.7946835" lon="17.1704219"><ele>1071.0</ele><time>2026-04-28T13:59:04.279Z</time></trkpt><trkpt lat="43.7948804" lon="17.1703871"><ele>1071.0</ele><time>2026-04-28T13:59:05.283Z</time></trkpt><trkpt lat="43.7950812" lon="17.1703492"><ele>1071.0</ele><time>2026-04-28T13:59:06.279Z</time></trkpt><trkpt lat="43.7952865" lon="17.1703123"><ele>1071.0</ele><time>2026-04-28T13:59:07.281Z</time></trkpt><trkpt lat="43.7954918" lon="17.1702757"><ele>1071.0</ele><time>2026-04-28T13:59:08.28Z</time></trkpt><trkpt lat="43.7956964" lon="17.1702397"><ele>1071.0</ele><time>2026-04-28T13:59:09.279Z</time></trkpt><trkpt lat="43.795902" lon="17.1701977"><ele>1071.0</ele><time>2026-04-28T13:59:10.279Z</time></trkpt><trkpt lat="43.7961064" lon="17.1701613"><ele>1071.6666666666667</ele><time>2026-04-28T13:59:11.28Z</time></trkpt><trkpt lat="43.7963108" lon="17.1701266"><ele>1072.3333333333335</ele><time>2026-04-28T13:59:12.28Z</time></trkpt><trkpt lat="43.7965139" lon="17.170079"><ele>1073.0</ele><time>2026-04-28T13:59:13.281Z</time></trkpt><trkpt lat="43.7967151" lon="17.1700375"><ele>1073.0</ele><time>2026-04-28T13:59:14.279Z</time></trkpt><trkpt lat="43.7969162" lon="17.1699981"><ele>1073.0</ele><time>2026-04-28T13:59:15.279Z</time></trkpt><trkpt lat="43.7971169" lon="17.1699638"><ele>1073.0</ele><time>2026-04-28T13:59:16.28Z</time></trkpt><trkpt lat="43.7973155" lon="17.1699343"><ele>1073.0</ele><time>2026-04-28T13:59:17.28Z</time></trkpt><trkpt lat="43.7975138" lon="17.1699074"><ele>1073.0</ele><time>2026-04-28T13:59:18.278Z</time></trkpt><trkpt lat="43.7977132" lon="17.1698867"><ele>1073.0</ele><time>2026-04-28T13:59:19.282Z</time></trkpt><trkpt lat="43.7979117" lon="17.1698706"><ele>1074.6666666666667</ele><time>2026-04-28T13:59:20.281Z</time></trkpt><trkpt lat="43.7981088" lon="17.1698653"><ele>1076.3333333333333</ele><time>2026-04-28T13:59:21.281Z</time></trkpt><trkpt lat="43.798302" lon="17.169868"><ele>1078.0</ele><time>2026-04-28T13:59:22.281Z</time></trkpt><trkpt lat="43.7984917" lon="17.1698669"><ele>1078.6666666666665</ele><time>2026-04-28T13:59:23.281Z</time></trkpt><trkpt lat="43.798684" lon="17.1698801"><ele>1079.3333333333333</ele><time>2026-04-28T13:59:24.28Z</time></trkpt><trkpt lat="43.798873" lon="17.1699054"><ele>1080.0</ele><time>2026-04-28T13:59:25.28Z</time></trkpt><trkpt lat="43.7990643" lon="17.1699468"><ele>1080.0</ele><time>2026-04-28T13:59:26.282Z</time></trkpt><trkpt lat="43.7992525" lon="17.1699968"><ele>1080.0</ele><time>2026-04-28T13:59:27.28Z</time></trkpt><trkpt lat="43.7994378" lon="17.1700609"><ele>1080.0</ele><time>2026-04-28T13:59:28.279Z</time></trkpt><trkpt lat="43.799623" lon="17.1701321"><ele>1080.0</ele><time>2026-04-28T13:59:29.281Z</time></trkpt><trkpt lat="43.7998088" lon="17.1702244"><ele>1080.0</ele><time>2026-04-28T13:59:30.279Z</time></trkpt><trkpt lat="43.7999932" lon="17.1703185"><ele>1080.0</ele><time>2026-04-28T13:59:31.281Z</time></trkpt><trkpt lat="43.8001788" lon="17.1704224"><ele>1080.6666666666667</ele><time>2026-04-28T13:59:32.279Z</time></trkpt><trkpt lat="43.8003622" lon="17.1705503"><ele>1081.3333333333335</ele><time>2026-04-28T13:59:33.279Z</time></trkpt><trkpt lat="43.8005404" lon="17.1706914"><ele>1082.0</ele><time>2026-04-28T13:59:34.278Z</time></trkpt><trkpt lat="43.8007134" lon="17.1708417"><ele>1082.3333333333335</ele><time>2026-04-28T13:59:35.278Z</time></trkpt><trkpt lat="43.8008883" lon="17.1710072"><ele>1082.6666666666667</ele><time>2026-04-28T13:59:36.279Z</time></trkpt><trkpt lat="43.8010606" lon="17.1711781"><ele>1083.0</ele><time>2026-04-28T13:59:37.279Z</time></trkpt><trkpt lat="43.801225" lon="17.1713664"><ele>1083.0</ele><time>2026-04-28T13:59:38.28Z</time></trkpt><trkpt lat="43.8013832" lon="17.1715666"><ele>1083.0</ele><time>2026-04-28T13:59:39.279Z</time></trkpt><trkpt lat="43.8015395" lon="17.1717746"><ele>1083.0</ele><time>2026-04-28T13:59:40.278Z</time></trkpt><trkpt lat="43.8016902" lon="17.1719955"><ele>1084.0</ele><time>2026-04-28T13:59:41.279Z</time></trkpt><trkpt lat="43.801832" lon="17.1722325"><ele>1085.0</ele><time>2026-04-28T13:59:42.287Z</time></trkpt><trkpt lat="43.8019746" lon="17.1724763"><ele>1086.0</ele><time>2026-04-28T13:59:43.283Z</time></trkpt><trkpt lat="43.8021151" lon="17.1727334"><ele>1086.0</ele><time>2026-04-28T13:59:44.28Z</time></trkpt><trkpt lat="43.8022511" lon="17.1729855"><ele>1086.0</ele><time>2026-04-28T13:59:45.281Z</time></trkpt><trkpt lat="43.8023831" lon="17.1732477"><ele>1084.0</ele><time>2026-04-28T13:59:46.278Z</time></trkpt><trkpt lat="43.8025217" lon="17.1735189"><ele>1082.0</ele><time>2026-04-28T13:59:47.282Z</time></trkpt><trkpt lat="43.8026608" lon="17.1737789"><ele>1081.3333333333335</ele><time>2026-04-28T13:59:48.281Z</time></trkpt><trkpt lat="43.8027914" lon="17.174031"><ele>1080.6666666666667</ele><time>2026-04-28T13:59:49.281Z</time></trkpt><trkpt lat="43.8029178" lon="17.1742811"><ele>1080.0</ele><time>2026-04-28T13:59:50.282Z</time></trkpt><trkpt lat="43.803038" lon="17.17452"><ele>1080.0</ele><time>2026-04-28T13:59:51.282Z</time></trkpt><trkpt lat="43.8031568" lon="17.1747539"><ele>1080.0</ele><time>2026-04-28T13:59:52.281Z</time></trkpt><trkpt lat="43.8032692" lon="17.1749818"><ele>1080.0</ele><time>2026-04-28T13:59:53.281Z</time></trkpt><trkpt lat="43.8033822" lon="17.1752072"><ele>1078.6666666666667</ele><time>2026-04-28T13:59:54.28Z</time></trkpt><trkpt lat="43.8034942" lon="17.1754329"><ele>1077.3333333333335</ele><time>2026-04-28T13:59:55.281Z</time></trkpt><trkpt lat="43.8036094" lon="17.1756558"><ele>1076.0</ele><time>2026-04-28T13:59:56.281Z</time></trkpt><trkpt lat="43.8037241" lon="17.1758818"><ele>1075.6666666666667</ele><time>2026-04-28T13:59:57.281Z</time></trkpt><trkpt lat="43.8038391" lon="17.1761128"><ele>1075.3333333333333</ele><time>2026-04-28T13:59:58.282Z</time></trkpt><trkpt lat="43.80396" lon="17.1763446"><ele>1075.0</ele><time>2026-04-28T13:59:59.281Z</time></trkpt><trkpt lat="43.8040757" lon="17.1765801"><ele>1075.0</ele><time>2026-04-28T14:00:00.281Z</time></trkpt><trkpt lat="43.804199" lon="17.1768146"><ele>1075.0</ele><time>2026-04-28T14:00:01.287Z</time></trkpt><trkpt lat="43.8043188" lon="17.1770542"><ele>1075.0</ele><time>2026-04-28T14:00:02.283Z</time></trkpt><trkpt lat="43.8044427" lon="17.1773035"><ele>1075.3333333333333</ele><time>2026-04-28T14:00:03.281Z</time></trkpt><trkpt lat="43.8045641" lon="17.1775506"><ele>1075.6666666666667</ele><time>2026-04-28T14:00:04.278Z</time></trkpt><trkpt lat="43.8046891" lon="17.1778044"><ele>1076.0</ele><time>2026-04-28T14:00:05.279Z</time></trkpt><trkpt lat="43.8048123" lon="17.1780382"><ele>1075.6666666666667</ele><time>2026-04-28T14:00:06.28Z</time></trkpt><trkpt lat="43.804936" lon="17.1782497"><ele>1075.3333333333333</ele><time>2026-04-28T14:00:07.279Z</time></trkpt><trkpt lat="43.8050739" lon="17.1784437"><ele>1075.0</ele><time>2026-04-28T14:00:08.283Z</time></trkpt><trkpt lat="43.8052223" lon="17.1786255"><ele>1072.6666666666665</ele><time>2026-04-28T14:00:09.278Z</time></trkpt><trkpt lat="43.8053885" lon="17.1787833"><ele>1070.3333333333333</ele><time>2026-04-28T14:00:10.28Z</time></trkpt><trkpt lat="43.8055678" lon="17.1789168"><ele>1068.0</ele><time>2026-04-28T14:00:11.277Z</time></trkpt><trkpt lat="43.8057596" lon="17.179012"><ele>1066.0</ele><time>2026-04-28T14:00:12.28Z</time></trkpt><trkpt lat="43.8059594" lon="17.1790851"><ele>1064.0</ele><time>2026-04-28T14:00:13.282Z</time></trkpt><trkpt lat="43.8061469" lon="17.1791395"><ele>1062.0</ele><time>2026-04-28T14:00:14.279Z</time></trkpt><trkpt lat="43.8063309" lon="17.1791543"><ele>1060.0</ele><time>2026-04-28T14:00:15.28Z</time></trkpt><trkpt lat="43.8065482" lon="17.1790856"><ele>1058.0</ele><time>2026-04-28T14:00:16.277Z</time></trkpt><trkpt lat="43.8067414" lon="17.1790145"><ele>1056.0</ele><time>2026-04-28T14:00:17.28Z</time></trkpt><trkpt lat="43.8069253" lon="17.1789119"><ele>1056.0</ele><time>2026-04-28T14:00:18.283Z</time></trkpt><trkpt lat="43.8071164" lon="17.178782"><ele>1056.0</ele><time>2026-04-28T14:00:19.279Z</time></trkpt><trkpt lat="43.8073054" lon="17.1786491"><ele>1056.0</ele><time>2026-04-28T14:00:20.281Z</time></trkpt><trkpt lat="43.8074936" lon="17.1785032"><ele>1054.6666666666667</ele><time>2026-04-28T14:00:21.28Z</time></trkpt><trkpt lat="43.8076761" lon="17.1783556"><ele>1053.3333333333335</ele><time>2026-04-28T14:00:22.279Z</time></trkpt><trkpt lat="43.8078733" lon="17.1782033"><ele>1052.0</ele><time>2026-04-28T14:00:23.28Z</time></trkpt><trkpt lat="43.8080731" lon="17.1780464"><ele>1052.0</ele><time>2026-04-28T14:00:24.28Z</time></trkpt><trkpt lat="43.8082743" lon="17.177906"><ele>1052.0</ele><time>2026-04-28T14:00:25.28Z</time></trkpt><trkpt lat="43.8084698" lon="17.1777754"><ele>1052.0</ele><time>2026-04-28T14:00:26.279Z</time></trkpt><trkpt lat="43.8086644" lon="17.1776532"><ele>1047.6666666666667</ele><time>2026-04-28T14:00:27.281Z</time></trkpt><trkpt lat="43.8088578" lon="17.1775524"><ele>1043.3333333333333</ele><time>2026-04-28T14:00:28.278Z</time></trkpt><trkpt lat="43.809052" lon="17.1774645"><ele>1039.0</ele><time>2026-04-28T14:00:29.278Z</time></trkpt><trkpt lat="43.8092518" lon="17.1773882"><ele>1040.6666666666665</ele><time>2026-04-28T14:00:30.28Z</time></trkpt><trkpt lat="43.8094605" lon="17.1773065"><ele>1042.3333333333333</ele><time>2026-04-28T14:00:31.281Z</time></trkpt><trkpt lat="43.8096736" lon="17.1772253"><ele>1044.0</ele><time>2026-04-28T14:00:32.28Z</time></trkpt><trkpt lat="43.8098867" lon="17.1771534"><ele>1044.0</ele><time>2026-04-28T14:00:33.279Z</time></trkpt><trkpt lat="43.8101009" lon="17.1770772"><ele>1044.0</ele><time>2026-04-28T14:00:34.279Z</time></trkpt><trkpt lat="43.8103242" lon="17.17699"><ele>1038.0</ele><time>2026-04-28T14:00:35.28Z</time></trkpt><trkpt lat="43.8105466" lon="17.1769054"><ele>1032.0</ele><time>2026-04-28T14:00:36.282Z</time></trkpt><trkpt lat="43.8107753" lon="17.1768212"><ele>1027.0</ele><time>2026-04-28T14:00:37.279Z</time></trkpt><trkpt lat="43.8110111" lon="17.1767337"><ele>1022.0</ele><time>2026-04-28T14:00:38.28Z</time></trkpt><trkpt lat="43.8112476" lon="17.1766422"><ele>1022.0</ele><time>2026-04-28T14:00:39.28Z</time></trkpt><trkpt lat="43.8114834" lon="17.1765524"><ele>1022.0</ele><time>2026-04-28T14:00:40.28Z</time></trkpt><trkpt lat="43.8117216" lon="17.176466"><ele>1025.5</ele><time>2026-04-28T14:00:41.282Z</time></trkpt><trkpt lat="43.8119549" lon="17.1763846"><ele>1029.0</ele><time>2026-04-28T14:00:42.28Z</time></trkpt><trkpt lat="43.8121854" lon="17.1762994"><ele>1029.0</ele><time>2026-04-28T14:00:43.28Z</time></trkpt><trkpt lat="43.8124151" lon="17.1762202"><ele>1029.0</ele><time>2026-04-28T14:00:44.279Z</time></trkpt><trkpt lat="43.8126463" lon="17.1761392"><ele>1023.0</ele><time>2026-04-28T14:00:45.279Z</time></trkpt><trkpt lat="43.8128778" lon="17.1760501"><ele>1017.0</ele><time>2026-04-28T14:00:46.28Z</time></trkpt><trkpt lat="43.8131078" lon="17.1759631"><ele>1017.0</ele><time>2026-04-28T14:00:47.28Z</time></trkpt><trkpt lat="43.8133421" lon="17.1758755"><ele>1017.0</ele><time>2026-04-28T14:00:48.281Z</time></trkpt><trkpt lat="43.8135664" lon="17.1757885"><ele>1015.6666666666667</ele><time>2026-04-28T14:00:49.279Z</time></trkpt><trkpt lat="43.8137842" lon="17.1757189"><ele>1014.3333333333334</ele><time>2026-04-28T14:00:50.281Z</time></trkpt><trkpt lat="43.8139986" lon="17.17566"><ele>1013.0</ele><time>2026-04-28T14:00:51.279Z</time></trkpt><trkpt lat="43.8142137" lon="17.1756174"><ele>1013.0</ele><time>2026-04-28T14:00:52.278Z</time></trkpt><trkpt lat="43.8144274" lon="17.1755952"><ele>1013.0</ele><time>2026-04-28T14:00:53.279Z</time></trkpt><trkpt lat="43.8146382" lon="17.1755854"><ele>1013.0</ele><time>2026-04-28T14:00:54.281Z</time></trkpt><trkpt lat="43.8148552" lon="17.1755868"><ele>1013.0</ele><time>2026-04-28T14:00:55.281Z</time></trkpt><trkpt lat="43.8150677" lon="17.1756049"><ele>1013.0</ele><time>2026-04-28T14:00:56.28Z</time></trkpt><trkpt lat="43.8152854" lon="17.1756365"><ele>1013.0</ele><time>2026-04-28T14:00:57.28Z</time></trkpt><trkpt lat="43.8155047" lon="17.1756797"><ele>1005.0</ele><time>2026-04-28T14:00:58.28Z</time></trkpt><trkpt lat="43.8157306" lon="17.175725"><ele>997.0</ele><time>2026-04-28T14:00:59.279Z</time></trkpt><trkpt lat="43.8159565" lon="17.1757692"><ele>992.0</ele><time>2026-04-28T14:01:00.279Z</time></trkpt><trkpt lat="43.8161843" lon="17.1758138"><ele>987.0</ele><time>2026-04-28T14:01:01.28Z</time></trkpt><trkpt lat="43.8164067" lon="17.175863"><ele>987.0</ele><time>2026-04-28T14:01:02.282Z</time></trkpt><trkpt lat="43.8166313" lon="17.1759187"><ele>987.0</ele><time>2026-04-28T14:01:03.281Z</time></trkpt><trkpt lat="43.8168538" lon="17.1759694"><ele>986.6666666666667</ele><time>2026-04-28T14:01:04.281Z</time></trkpt><trkpt lat="43.8170743" lon="17.1760182"><ele>986.3333333333334</ele><time>2026-04-28T14:01:05.279Z</time></trkpt><trkpt lat="43.8172931" lon="17.1760684"><ele>986.0</ele><time>2026-04-28T14:01:06.279Z</time></trkpt><trkpt lat="43.8175037" lon="17.176112"><ele>983.6666666666667</ele><time>2026-04-28T14:01:07.282Z</time></trkpt><trkpt lat="43.817712" lon="17.1761442"><ele>981.3333333333333</ele><time>2026-04-28T14:01:08.278Z</time></trkpt><trkpt lat="43.817914" lon="17.1761596"><ele>979.0</ele><time>2026-04-28T14:01:09.278Z</time></trkpt><trkpt lat="43.8181116" lon="17.1761556"><ele>979.0</ele><time>2026-04-28T14:01:10.277Z</time></trkpt><trkpt lat="43.8183131" lon="17.1761291"><ele>979.0</ele><time>2026-04-28T14:01:11.278Z</time></trkpt><trkpt lat="43.8185104" lon="17.1760727"><ele>979.0</ele><time>2026-04-28T14:01:12.277Z</time></trkpt><trkpt lat="43.8187098" lon="17.1759965"><ele>976.0</ele><time>2026-04-28T14:01:13.278Z</time></trkpt><trkpt lat="43.8189124" lon="17.1759066"><ele>973.0</ele><time>2026-04-28T14:01:14.281Z</time></trkpt><trkpt lat="43.8191186" lon="17.1758048"><ele>970.0</ele><time>2026-04-28T14:01:15.28Z</time></trkpt><trkpt lat="43.8193272" lon="17.1756961"><ele>971.6666666666666</ele><time>2026-04-28T14:01:16.28Z</time></trkpt><trkpt lat="43.8195347" lon="17.1755826"><ele>973.3333333333333</ele><time>2026-04-28T14:01:17.279Z</time></trkpt><trkpt lat="43.8197299" lon="17.1754717"><ele>975.0</ele><time>2026-04-28T14:01:18.281Z</time></trkpt><trkpt lat="43.8199231" lon="17.1753627"><ele>975.0</ele><time>2026-04-28T14:01:19.28Z</time></trkpt><trkpt lat="43.8201136" lon="17.1752674"><ele>975.0</ele><time>2026-04-28T14:01:20.28Z</time></trkpt><trkpt lat="43.8202989" lon="17.1751726"><ele>975.0</ele><time>2026-04-28T14:01:21.281Z</time></trkpt><trkpt lat="43.8204786" lon="17.1750762"><ele>974.0</ele><time>2026-04-28T14:01:22.279Z</time></trkpt><trkpt lat="43.8206572" lon="17.1749816"><ele>973.0</ele><time>2026-04-28T14:01:23.28Z</time></trkpt><trkpt lat="43.8208367" lon="17.1749022"><ele>972.0</ele><time>2026-04-28T14:01:24.296Z</time></trkpt><trkpt lat="43.8210223" lon="17.174831"><ele>972.0</ele><time>2026-04-28T14:01:25.279Z</time></trkpt><trkpt lat="43.8212111" lon="17.174759"><ele>972.0</ele><time>2026-04-28T14:01:26.279Z</time></trkpt><trkpt lat="43.8213981" lon="17.1747014"><ele>972.0</ele><time>2026-04-28T14:01:27.279Z</time></trkpt><trkpt lat="43.8215849" lon="17.1746559"><ele>972.0</ele><time>2026-04-28T14:01:28.281Z</time></trkpt><trkpt lat="43.8217763" lon="17.1746177"><ele>972.0</ele><time>2026-04-28T14:01:29.28Z</time></trkpt><trkpt lat="43.8219681" lon="17.1745892"><ele>972.0</ele><time>2026-04-28T14:01:30.28Z</time></trkpt><trkpt lat="43.8221546" lon="17.1745675"><ele>970.3333333333333</ele><time>2026-04-28T14:01:31.28Z</time></trkpt><trkpt lat="43.8223355" lon="17.1745584"><ele>968.6666666666666</ele><time>2026-04-28T14:01:32.279Z</time></trkpt><trkpt lat="43.8225104" lon="17.1745559"><ele>967.0</ele><time>2026-04-28T14:01:33.279Z</time></trkpt><trkpt lat="43.8226924" lon="17.1745636"><ele>967.0</ele><time>2026-04-28T14:01:34.278Z</time></trkpt><trkpt lat="43.8228757" lon="17.1745763"><ele>967.0</ele><time>2026-04-28T14:01:35.281Z</time></trkpt><trkpt lat="43.8230656" lon="17.1746001"><ele>967.0</ele><time>2026-04-28T14:01:36.279Z</time></trkpt><trkpt lat="43.8232574" lon="17.1746314"><ele>967.0</ele><time>2026-04-28T14:01:37.279Z</time></trkpt><trkpt lat="43.8234556" lon="17.1746619"><ele>967.0</ele><time>2026-04-28T14:01:38.281Z</time></trkpt><trkpt lat="43.8236533" lon="17.1747003"><ele>967.0</ele><time>2026-04-28T14:01:39.279Z</time></trkpt><trkpt lat="43.823854" lon="17.1747329"><ele>969.0</ele><time>2026-04-28T14:01:40.282Z</time></trkpt><trkpt lat="43.8240565" lon="17.1747682"><ele>971.0</ele><time>2026-04-28T14:01:41.28Z</time></trkpt><trkpt lat="43.8242616" lon="17.174808"><ele>973.0</ele><time>2026-04-28T14:01:42.28Z</time></trkpt><trkpt lat="43.8244653" lon="17.1748466"><ele>966.3333333333333</ele><time>2026-04-28T14:01:43.279Z</time></trkpt><trkpt lat="43.8246698" lon="17.1748866"><ele>959.6666666666667</ele><time>2026-04-28T14:01:44.279Z</time></trkpt><trkpt lat="43.8248767" lon="17.1749248"><ele>953.0</ele><time>2026-04-28T14:01:45.279Z</time></trkpt><trkpt lat="43.8250856" lon="17.1749614"><ele>952.6666666666667</ele><time>2026-04-28T14:01:46.28Z</time></trkpt><trkpt lat="43.8252917" lon="17.1750011"><ele>952.3333333333333</ele><time>2026-04-28T14:01:47.28Z</time></trkpt><trkpt lat="43.8254968" lon="17.175039"><ele>952.0</ele><time>2026-04-28T14:01:48.281Z</time></trkpt><trkpt lat="43.8257033" lon="17.1750693"><ele>952.0</ele><time>2026-04-28T14:01:49.28Z</time></trkpt><trkpt lat="43.8259106" lon="17.175088"><ele>952.0</ele><time>2026-04-28T14:01:50.279Z</time></trkpt><trkpt lat="43.8261213" lon="17.1750966"><ele>952.0</ele><time>2026-04-28T14:01:51.281Z</time></trkpt><trkpt lat="43.8263338" lon="17.1750956"><ele>952.0</ele><time>2026-04-28T14:01:52.28Z</time></trkpt><trkpt lat="43.8265478" lon="17.1750863"><ele>952.0</ele><time>2026-04-28T14:01:53.281Z</time></trkpt><trkpt lat="43.8267631" lon="17.1750734"><ele>952.0</ele><time>2026-04-28T14:01:54.28Z</time></trkpt><trkpt lat="43.8269875" lon="17.1750597"><ele>952.0</ele><time>2026-04-28T14:01:55.282Z</time></trkpt><trkpt lat="43.8272083" lon="17.1750552"><ele>952.0</ele><time>2026-04-28T14:01:56.279Z</time></trkpt><trkpt lat="43.82743" lon="17.1750601"><ele>952.0</ele><time>2026-04-28T14:01:57.279Z</time></trkpt><trkpt lat="43.8276467" lon="17.1750826"><ele>953.3333333333333</ele><time>2026-04-28T14:01:58.279Z</time></trkpt><trkpt lat="43.8278713" lon="17.1751162"><ele>954.6666666666667</ele><time>2026-04-28T14:01:59.28Z</time></trkpt><trkpt lat="43.8280882" lon="17.1751667"><ele>956.0</ele><time>2026-04-28T14:02:00.283Z</time></trkpt><trkpt lat="43.8283032" lon="17.1752278"><ele>956.0</ele><time>2026-04-28T14:02:01.281Z</time></trkpt><trkpt lat="43.8285201" lon="17.1752882"><ele>956.0</ele><time>2026-04-28T14:02:02.28Z</time></trkpt><trkpt lat="43.8287346" lon="17.175352"><ele>956.0</ele><time>2026-04-28T14:02:03.281Z</time></trkpt><trkpt lat="43.8289512" lon="17.1754231"><ele>956.0</ele><time>2026-04-28T14:02:04.287Z</time></trkpt><trkpt lat="43.8291671" lon="17.1754895"><ele>956.0</ele><time>2026-04-28T14:02:05.282Z</time></trkpt><trkpt lat="43.8293843" lon="17.1755595"><ele>956.0</ele><time>2026-04-28T14:02:06.281Z</time></trkpt><trkpt lat="43.8296041" lon="17.1756163"><ele>956.5</ele><time>2026-04-28T14:02:07.28Z</time></trkpt><trkpt lat="43.8298277" lon="17.1756729"><ele>957.0</ele><time>2026-04-28T14:02:08.28Z</time></trkpt><trkpt lat="43.8300498" lon="17.1757068"><ele>952.6666666666667</ele><time>2026-04-28T14:02:09.282Z</time></trkpt><trkpt lat="43.8302712" lon="17.1757297"><ele>948.3333333333334</ele><time>2026-04-28T14:02:10.281Z</time></trkpt><trkpt lat="43.8304923" lon="17.1757401"><ele>944.0</ele><time>2026-04-28T14:02:11.28Z</time></trkpt><trkpt lat="43.8307099" lon="17.1757398"><ele>944.0</ele><time>2026-04-28T14:02:12.282Z</time></trkpt><trkpt lat="43.8309233" lon="17.1757357"><ele>944.0</ele><time>2026-04-28T14:02:13.281Z</time></trkpt><trkpt lat="43.831133" lon="17.1757224"><ele>944.0</ele><time>2026-04-28T14:02:14.279Z</time></trkpt><trkpt lat="43.8313476" lon="17.1757059"><ele>944.3333333333334</ele><time>2026-04-28T14:02:15.282Z</time></trkpt><trkpt lat="43.8315513" lon="17.1756899"><ele>944.6666666666667</ele><time>2026-04-28T14:02:16.279Z</time></trkpt><trkpt lat="43.8317574" lon="17.1756631"><ele>945.0</ele><time>2026-04-28T14:02:17.278Z</time></trkpt><trkpt lat="43.831961" lon="17.1756351"><ele>949.0</ele><time>2026-04-28T14:02:18.279Z</time></trkpt><trkpt lat="43.8321676" lon="17.1756104"><ele>953.0</ele><time>2026-04-28T14:02:19.276Z</time></trkpt><trkpt lat="43.8323728" lon="17.175593"><ele>957.0</ele><time>2026-04-28T14:02:20.282Z</time></trkpt><trkpt lat="43.8325775" lon="17.1755817"><ele>958.3333333333333</ele><time>2026-04-28T14:02:21.28Z</time></trkpt><trkpt lat="43.8327825" lon="17.1755818"><ele>959.6666666666666</ele><time>2026-04-28T14:02:22.279Z</time></trkpt><trkpt lat="43.8329878" lon="17.1755854"><ele>961.0</ele><time>2026-04-28T14:02:23.279Z</time></trkpt><trkpt lat="43.8331901" lon="17.1756085"><ele>961.0</ele><time>2026-04-28T14:02:24.281Z</time></trkpt><trkpt lat="43.8333961" lon="17.1756354"><ele>961.0</ele><time>2026-04-28T14:02:25.28Z</time></trkpt><trkpt lat="43.8335977" lon="17.1756732"><ele>961.0</ele><time>2026-04-28T14:02:26.28Z</time></trkpt><trkpt lat="43.8337976" lon="17.1757133"><ele>959.6666666666666</ele><time>2026-04-28T14:02:27.279Z</time></trkpt><trkpt lat="43.8339985" lon="17.1757516"><ele>958.3333333333333</ele><time>2026-04-28T14:02:28.277Z</time></trkpt><trkpt lat="43.8341977" lon="17.1757867"><ele>957.0</ele><time>2026-04-28T14:02:29.28Z</time></trkpt><trkpt lat="43.8344028" lon="17.17581"><ele>957.0</ele><time>2026-04-28T14:02:30.28Z</time></trkpt><trkpt lat="43.8346084" lon="17.1758291"><ele>957.0</ele><time>2026-04-28T14:02:31.278Z</time></trkpt><trkpt lat="43.8348143" lon="17.1758486"><ele>957.0</ele><time>2026-04-28T14:02:32.281Z</time></trkpt><trkpt lat="43.8350223" lon="17.1758425"><ele>955.6666666666667</ele><time>2026-04-28T14:02:33.28Z</time></trkpt><trkpt lat="43.8352313" lon="17.1758394"><ele>954.3333333333334</ele><time>2026-04-28T14:02:34.278Z</time></trkpt><trkpt lat="43.8354401" lon="17.1758117"><ele>953.0</ele><time>2026-04-28T14:02:35.28Z</time></trkpt><trkpt lat="43.83565" lon="17.1757935"><ele>953.0</ele><time>2026-04-28T14:02:36.281Z</time></trkpt><trkpt lat="43.8358575" lon="17.1757593"><ele>953.0</ele><time>2026-04-28T14:02:37.281Z</time></trkpt><trkpt lat="43.8360629" lon="17.1756869"><ele>953.0</ele><time>2026-04-28T14:02:38.282Z</time></trkpt><trkpt lat="43.8362691" lon="17.1756329"><ele>952.0</ele><time>2026-04-28T14:02:39.283Z</time></trkpt><trkpt lat="43.8364673" lon="17.1755323"><ele>951.0</ele><time>2026-04-28T14:02:40.281Z</time></trkpt><trkpt lat="43.8366634" lon="17.1754523"><ele>950.0</ele><time>2026-04-28T14:02:41.279Z</time></trkpt><trkpt lat="43.8368409" lon="17.1753872"><ele>950.0</ele><time>2026-04-28T14:02:42.279Z</time></trkpt><trkpt lat="43.8370126" lon="17.1753203"><ele>950.0</ele><time>2026-04-28T14:02:43.282Z</time></trkpt><trkpt lat="43.8371857" lon="17.1752496"><ele>950.0</ele><time>2026-04-28T14:02:44.277Z</time></trkpt><trkpt lat="43.8373523" lon="17.1751785"><ele>950.0</ele><time>2026-04-28T14:02:45.282Z</time></trkpt><trkpt lat="43.8375149" lon="17.1751152"><ele>950.0</ele><time>2026-04-28T14:02:46.279Z</time></trkpt><trkpt lat="43.8376565" lon="17.1750561"><ele>950.0</ele><time>2026-04-28T14:02:47.28Z</time></trkpt><trkpt lat="43.837806" lon="17.1749971"><ele>948.5</ele><time>2026-04-28T14:02:48.282Z</time></trkpt><trkpt lat="43.8379524" lon="17.1749448"><ele>947.0</ele><time>2026-04-28T14:02:49.28Z</time></trkpt><trkpt lat="43.8380954" lon="17.1748911"><ele>945.5</ele><time>2026-04-28T14:02:50.28Z</time></trkpt><trkpt lat="43.8382268" lon="17.1748418"><ele>944.0</ele><time>2026-04-28T14:02:51.279Z</time></trkpt><trkpt lat="43.8383451" lon="17.1748017"><ele>945.2</ele><time>2026-04-28T14:02:52.28Z</time></trkpt><trkpt lat="43.8384517" lon="17.1747752"><ele>946.4000000000001</ele><time>2026-04-28T14:02:53.281Z</time></trkpt><trkpt lat="43.8385522" lon="17.1747537"><ele>947.6</ele><time>2026-04-28T14:02:54.281Z</time></trkpt><trkpt lat="43.8386417" lon="17.1747221"><ele>948.8</ele><time>2026-04-28T14:02:55.28Z</time></trkpt><trkpt lat="43.8387214" lon="17.1747027"><ele>950.0</ele><time>2026-04-28T14:02:56.278Z</time></trkpt><trkpt lat="43.838792" lon="17.1747118"><ele>950.0000000000001</ele><time>2026-04-28T14:02:57.279Z</time></trkpt><trkpt lat="43.8388515" lon="17.17475"><ele>950.0</ele><time>2026-04-28T14:02:58.277Z</time></trkpt><trkpt lat="43.8388997" lon="17.1748173"><ele>950.0</ele><time>2026-04-28T14:02:59.278Z</time></trkpt><trkpt lat="43.8389548" lon="17.1749592"><ele>950.0</ele><time>2026-04-28T14:03:01.279Z</time></trkpt><trkpt lat="43.8390027" lon="17.1750724"><ele>950.0000000000001</ele><time>2026-04-28T14:03:03.28Z</time></trkpt><trkpt lat="43.8390392" lon="17.1751584"><ele>950.0</ele><time>2026-04-28T14:03:05.277Z</time></trkpt><trkpt lat="43.8390802" lon="17.1752473"><ele>948.6666666666667</ele><time>2026-04-28T14:03:08.279Z</time></trkpt><trkpt lat="43.8391287" lon="17.1753283"><ele>947.3333333333334</ele><time>2026-04-28T14:03:10.28Z</time></trkpt><trkpt lat="43.8391618" lon="17.1754224"><ele>946.0</ele><time>2026-04-28T14:03:14.278Z</time></trkpt><trkpt lat="43.8392382" lon="17.1755446"><ele>944.6666666666667</ele><time>2026-04-28T14:03:34.279Z</time></trkpt><trkpt lat="43.8392768" lon="17.1756291"><ele>943.3333333333334</ele><time>2026-04-28T14:03:35.278Z</time></trkpt><trkpt lat="43.8393185" lon="17.1757297"><ele>942.0</ele><time>2026-04-28T14:03:36.28Z</time></trkpt><trkpt lat="43.8393727" lon="17.1758494"><ele>941.2</ele><time>2026-04-28T14:03:37.277Z</time></trkpt><trkpt lat="43.839426" lon="17.1759729"><ele>940.4000000000001</ele><time>2026-04-28T14:03:38.279Z</time></trkpt><trkpt lat="43.8394766" lon="17.1761097"><ele>939.5999999999999</ele><time>2026-04-28T14:03:39.279Z</time></trkpt><trkpt lat="43.8395227" lon="17.176257"><ele>938.8</ele><time>2026-04-28T14:03:40.278Z</time></trkpt><trkpt lat="43.8395597" lon="17.176412"><ele>938.0</ele><time>2026-04-28T14:03:41.277Z</time></trkpt><trkpt lat="43.8395906" lon="17.1765768"><ele>937.75</ele><time>2026-04-28T14:03:42.279Z</time></trkpt><trkpt lat="43.839614" lon="17.1767522"><ele>937.5</ele><time>2026-04-28T14:03:43.278Z</time></trkpt><trkpt lat="43.839628" lon="17.1769181"><ele>937.25</ele><time>2026-04-28T14:03:44.277Z</time></trkpt><trkpt lat="43.8396276" lon="17.1770865"><ele>937.0</ele><time>2026-04-28T14:03:45.277Z</time></trkpt><trkpt lat="43.8396136" lon="17.1772622"><ele>936.5</ele><time>2026-04-28T14:03:46.276Z</time></trkpt><trkpt lat="43.8395808" lon="17.1774408"><ele>936.0</ele><time>2026-04-28T14:03:47.277Z</time></trkpt><trkpt lat="43.8395433" lon="17.1776301"><ele>935.5</ele><time>2026-04-28T14:03:48.279Z</time></trkpt><trkpt lat="43.8394654" lon="17.1778127"><ele>935.0</ele><time>2026-04-28T14:03:49.28Z</time></trkpt><trkpt lat="43.8393896" lon="17.1779907"><ele>935.0</ele><time>2026-04-28T14:03:50.277Z</time></trkpt><trkpt lat="43.8393013" lon="17.1781598"><ele>935.0</ele><time>2026-04-28T14:03:51.278Z</time></trkpt><trkpt lat="43.8391949" lon="17.1783191"><ele>935.0</ele><time>2026-04-28T14:03:52.281Z</time></trkpt><trkpt lat="43.8390827" lon="17.1784534"><ele>933.0</ele><time>2026-04-28T14:03:53.279Z</time></trkpt><trkpt lat="43.8389698" lon="17.1786003"><ele>931.0</ele><time>2026-04-28T14:03:54.278Z</time></trkpt><trkpt lat="43.838861" lon="17.1787479"><ele>929.0</ele><time>2026-04-28T14:03:55.279Z</time></trkpt><trkpt lat="43.8387468" lon="17.1788955"><ele>930.3333333333334</ele><time>2026-04-28T14:03:56.279Z</time></trkpt><trkpt lat="43.8386358" lon="17.179043"><ele>931.6666666666667</ele><time>2026-04-28T14:03:57.278Z</time></trkpt><trkpt lat="43.8385298" lon="17.1791969"><ele>933.0</ele><time>2026-04-28T14:03:58.278Z</time></trkpt><trkpt lat="43.8384305" lon="17.1793506"><ele>929.6666666666667</ele><time>2026-04-28T14:03:59.277Z</time></trkpt><trkpt lat="43.8383413" lon="17.1795221"><ele>926.3333333333334</ele><time>2026-04-28T14:04:00.28Z</time></trkpt><trkpt lat="43.8382636" lon="17.1797068"><ele>923.0</ele><time>2026-04-28T14:04:01.278Z</time></trkpt><trkpt lat="43.8382036" lon="17.1799103"><ele>923.0</ele><time>2026-04-28T14:04:02.278Z</time></trkpt><trkpt lat="43.8381515" lon="17.1801289"><ele>923.0</ele><time>2026-04-28T14:04:03.277Z</time></trkpt><trkpt lat="43.8381006" lon="17.1803464"><ele>923.0</ele><time>2026-04-28T14:04:04.278Z</time></trkpt><trkpt lat="43.8380571" lon="17.1805627"><ele>924.3333333333334</ele><time>2026-04-28T14:04:05.28Z</time></trkpt><trkpt lat="43.8380142" lon="17.180781"><ele>925.6666666666667</ele><time>2026-04-28T14:04:06.287Z</time></trkpt><trkpt lat="43.8379752" lon="17.1810029"><ele>927.0</ele><time>2026-04-28T14:04:07.283Z</time></trkpt><trkpt lat="43.8379309" lon="17.1812304"><ele>927.0</ele><time>2026-04-28T14:04:08.279Z</time></trkpt><trkpt lat="43.8378859" lon="17.1814596"><ele>927.0</ele><time>2026-04-28T14:04:09.279Z</time></trkpt><trkpt lat="43.8378435" lon="17.1816727"><ele>927.0</ele><time>2026-04-28T14:04:10.281Z</time></trkpt><trkpt lat="43.8378103" lon="17.1818866"><ele>927.75</ele><time>2026-04-28T14:04:11.279Z</time></trkpt><trkpt lat="43.8377748" lon="17.1820813"><ele>928.5</ele><time>2026-04-28T14:04:12.281Z</time></trkpt><trkpt lat="43.8377386" lon="17.1822721"><ele>929.25</ele><time>2026-04-28T14:04:13.282Z</time></trkpt><trkpt lat="43.8377017" lon="17.1824707"><ele>930.0</ele><time>2026-04-28T14:04:14.282Z</time></trkpt><trkpt lat="43.8376677" lon="17.182675"><ele>927.6666666666667</ele><time>2026-04-28T14:04:15.294Z</time></trkpt><trkpt lat="43.8376318" lon="17.1828899"><ele>925.3333333333334</ele><time>2026-04-28T14:04:16.28Z</time></trkpt><trkpt lat="43.8375856" lon="17.1831098"><ele>923.0</ele><time>2026-04-28T14:04:17.279Z</time></trkpt><trkpt lat="43.8375426" lon="17.1833398"><ele>923.0</ele><time>2026-04-28T14:04:18.281Z</time></trkpt><trkpt lat="43.837499" lon="17.1835737"><ele>923.0</ele><time>2026-04-28T14:04:19.28Z</time></trkpt><trkpt lat="43.8374543" lon="17.183816"><ele>923.0</ele><time>2026-04-28T14:04:20.279Z</time></trkpt><trkpt lat="43.837413" lon="17.1840613"><ele>923.0</ele><time>2026-04-28T14:04:21.278Z</time></trkpt><trkpt lat="43.8373738" lon="17.1842946"><ele>923.0</ele><time>2026-04-28T14:04:22.278Z</time></trkpt><trkpt lat="43.8373353" lon="17.1845174"><ele>923.0</ele><time>2026-04-28T14:04:23.277Z</time></trkpt><trkpt lat="43.8372956" lon="17.1847442"><ele>923.3333333333334</ele><time>2026-04-28T14:04:24.279Z</time></trkpt><trkpt lat="43.8372472" lon="17.1849685"><ele>923.6666666666667</ele><time>2026-04-28T14:04:25.277Z</time></trkpt><trkpt lat="43.8371928" lon="17.1851842"><ele>924.0</ele><time>2026-04-28T14:04:26.278Z</time></trkpt><trkpt lat="43.8371296" lon="17.1854008"><ele>924.0</ele><time>2026-04-28T14:04:27.28Z</time></trkpt><trkpt lat="43.8370659" lon="17.1856167"><ele>924.0</ele><time>2026-04-28T14:04:28.279Z</time></trkpt><trkpt lat="43.8369919" lon="17.1858229"><ele>924.0</ele><time>2026-04-28T14:04:29.277Z</time></trkpt><trkpt lat="43.8369088" lon="17.1860172"><ele>924.3333333333333</ele><time>2026-04-28T14:04:30.277Z</time></trkpt><trkpt lat="43.8368097" lon="17.1862112"><ele>924.6666666666666</ele><time>2026-04-28T14:04:31.278Z</time></trkpt><trkpt lat="43.8366983" lon="17.1863948"><ele>925.0</ele><time>2026-04-28T14:04:32.28Z</time></trkpt><trkpt lat="43.8365745" lon="17.1865542"><ele>925.0</ele><time>2026-04-28T14:04:33.279Z</time></trkpt><trkpt lat="43.8364407" lon="17.186707"><ele>925.0</ele><time>2026-04-28T14:04:34.288Z</time></trkpt><trkpt lat="43.8363008" lon="17.1868508"><ele>925.0</ele><time>2026-04-28T14:04:35.281Z</time></trkpt><trkpt lat="43.8361535" lon="17.1869876"><ele>925.0</ele><time>2026-04-28T14:04:36.279Z</time></trkpt><trkpt lat="43.8359976" lon="17.1871069"><ele>925.0</ele><time>2026-04-28T14:04:37.279Z</time></trkpt><trkpt lat="43.8358295" lon="17.1872023"><ele>925.0</ele><time>2026-04-28T14:04:38.278Z</time></trkpt><trkpt lat="43.8356563" lon="17.1872766"><ele>925.0</ele><time>2026-04-28T14:04:39.278Z</time></trkpt><trkpt lat="43.8354764" lon="17.1873336"><ele>925.0</ele><time>2026-04-28T14:04:40.28Z</time></trkpt><trkpt lat="43.835291" lon="17.1873724"><ele>925.0</ele><time>2026-04-28T14:04:41.279Z</time></trkpt><trkpt lat="43.8351018" lon="17.1873919"><ele>924.6666666666666</ele><time>2026-04-28T14:04:42.278Z</time></trkpt><trkpt lat="43.8349129" lon="17.1874049"><ele>924.3333333333333</ele><time>2026-04-28T14:04:43.277Z</time></trkpt><trkpt lat="43.8347332" lon="17.1874118"><ele>924.0</ele><time>2026-04-28T14:04:44.28Z</time></trkpt><trkpt lat="43.8345581" lon="17.1874195"><ele>924.0</ele><time>2026-04-28T14:04:45.279Z</time></trkpt><trkpt lat="43.8343868" lon="17.1874183"><ele>924.0</ele><time>2026-04-28T14:04:46.279Z</time></trkpt><trkpt lat="43.8342188" lon="17.1874186"><ele>924.0</ele><time>2026-04-28T14:04:47.278Z</time></trkpt><trkpt lat="43.8340526" lon="17.1874189"><ele>923.6666666666667</ele><time>2026-04-28T14:04:48.279Z</time></trkpt><trkpt lat="43.8338867" lon="17.1874212"><ele>923.3333333333334</ele><time>2026-04-28T14:04:49.281Z</time></trkpt><trkpt lat="43.8337254" lon="17.1874222"><ele>923.0</ele><time>2026-04-28T14:04:50.279Z</time></trkpt><trkpt lat="43.8335746" lon="17.1874195"><ele>922.25</ele><time>2026-04-28T14:04:51.28Z</time></trkpt><trkpt lat="43.8334266" lon="17.1874302"><ele>921.5</ele><time>2026-04-28T14:04:52.279Z</time></trkpt><trkpt lat="43.8332845" lon="17.1874509"><ele>920.75</ele><time>2026-04-28T14:04:53.28Z</time></trkpt><trkpt lat="43.8331456" lon="17.1874763"><ele>920.0</ele><time>2026-04-28T14:04:54.28Z</time></trkpt><trkpt lat="43.8329983" lon="17.1875231"><ele>920.0</ele><time>2026-04-28T14:04:55.279Z</time></trkpt><trkpt lat="43.8328542" lon="17.1875804"><ele>920.0</ele><time>2026-04-28T14:04:56.278Z</time></trkpt><trkpt lat="43.8327096" lon="17.1876578"><ele>920.0</ele><time>2026-04-28T14:04:57.28Z</time></trkpt><trkpt lat="43.8325591" lon="17.1877545"><ele>919.3333333333334</ele><time>2026-04-28T14:04:58.279Z</time></trkpt><trkpt lat="43.8324108" lon="17.1878578"><ele>918.6666666666667</ele><time>2026-04-28T14:04:59.28Z</time></trkpt><trkpt lat="43.8322686" lon="17.1879815"><ele>918.0</ele><time>2026-04-28T14:05:00.278Z</time></trkpt><trkpt lat="43.832123" lon="17.1881175"><ele>918.3333333333333</ele><time>2026-04-28T14:05:01.278Z</time></trkpt><trkpt lat="43.8319815" lon="17.1882619"><ele>918.6666666666666</ele><time>2026-04-28T14:05:02.28Z</time></trkpt><trkpt lat="43.8318437" lon="17.1884143"><ele>919.0</ele><time>2026-04-28T14:05:03.28Z</time></trkpt><trkpt lat="43.8317052" lon="17.1885714"><ele>919.0</ele><time>2026-04-28T14:05:04.28Z</time></trkpt><trkpt lat="43.8315663" lon="17.1887296"><ele>919.0</ele><time>2026-04-28T14:05:05.28Z</time></trkpt><trkpt lat="43.8314232" lon="17.1888825"><ele>919.0</ele><time>2026-04-28T14:05:06.28Z</time></trkpt><trkpt lat="43.8312741" lon="17.1890306"><ele>919.3333333333333</ele><time>2026-04-28T14:05:07.279Z</time></trkpt><trkpt lat="43.8311215" lon="17.1891767"><ele>919.6666666666667</ele><time>2026-04-28T14:05:08.283Z</time></trkpt><trkpt lat="43.8309616" lon="17.1893139"><ele>920.0</ele><time>2026-04-28T14:05:09.279Z</time></trkpt><trkpt lat="43.8307953" lon="17.1894427"><ele>920.0</ele><time>2026-04-28T14:05:10.28Z</time></trkpt><trkpt lat="43.8306268" lon="17.1895687"><ele>920.0</ele><time>2026-04-28T14:05:11.279Z</time></trkpt><trkpt lat="43.8304584" lon="17.1896885"><ele>920.0</ele><time>2026-04-28T14:05:12.279Z</time></trkpt><trkpt lat="43.8302952" lon="17.1897936"><ele>920.6666666666667</ele><time>2026-04-28T14:05:13.278Z</time></trkpt><trkpt lat="43.8301286" lon="17.1898958"><ele>921.3333333333333</ele><time>2026-04-28T14:05:14.279Z</time></trkpt><trkpt lat="43.8299615" lon="17.1900017"><ele>922.0</ele><time>2026-04-28T14:05:15.278Z</time></trkpt><trkpt lat="43.8298005" lon="17.1901105"><ele>922.0</ele><time>2026-04-28T14:05:16.28Z</time></trkpt><trkpt lat="43.829647" lon="17.1902293"><ele>922.0</ele><time>2026-04-28T14:05:17.28Z</time></trkpt><trkpt lat="43.8294914" lon="17.1903544"><ele>922.0</ele><time>2026-04-28T14:05:18.28Z</time></trkpt><trkpt lat="43.8293392" lon="17.1904801"><ele>922.0</ele><time>2026-04-28T14:05:19.28Z</time></trkpt><trkpt lat="43.8291862" lon="17.1906187"><ele>922.0</ele><time>2026-04-28T14:05:20.278Z</time></trkpt><trkpt lat="43.8290399" lon="17.1907633"><ele>922.0</ele><time>2026-04-28T14:05:21.279Z</time></trkpt><trkpt lat="43.8288967" lon="17.1909198"><ele>922.0</ele><time>2026-04-28T14:05:22.28Z</time></trkpt><trkpt lat="43.8287578" lon="17.1910795"><ele>922.0</ele><time>2026-04-28T14:05:23.277Z</time></trkpt><trkpt lat="43.8286202" lon="17.1912356"><ele>922.0</ele><time>2026-04-28T14:05:24.278Z</time></trkpt><trkpt lat="43.828479" lon="17.1913906"><ele>920.3333333333333</ele><time>2026-04-28T14:05:25.282Z</time></trkpt><trkpt lat="43.828337" lon="17.191545"><ele>918.6666666666667</ele><time>2026-04-28T14:05:26.279Z</time></trkpt><trkpt lat="43.8281941" lon="17.1916969"><ele>917.0</ele><time>2026-04-28T14:05:27.28Z</time></trkpt><trkpt lat="43.8280504" lon="17.1918491"><ele>917.0</ele><time>2026-04-28T14:05:28.279Z</time></trkpt><trkpt lat="43.8279006" lon="17.1919974"><ele>917.0</ele><time>2026-04-28T14:05:29.279Z</time></trkpt><trkpt lat="43.827746" lon="17.1921381"><ele>917.0</ele><time>2026-04-28T14:05:30.278Z</time></trkpt><trkpt lat="43.8275806" lon="17.1922617"><ele>917.6666666666667</ele><time>2026-04-28T14:05:31.279Z</time></trkpt><trkpt lat="43.8274075" lon="17.1923649"><ele>918.3333333333333</ele><time>2026-04-28T14:05:32.278Z</time></trkpt><trkpt lat="43.8272318" lon="17.1924549"><ele>919.0</ele><time>2026-04-28T14:05:33.278Z</time></trkpt><trkpt lat="43.8270482" lon="17.1925198"><ele>919.0</ele><time>2026-04-28T14:05:34.278Z</time></trkpt><trkpt lat="43.8268658" lon="17.1925516"><ele>919.0</ele><time>2026-04-28T14:05:35.278Z</time></trkpt><trkpt lat="43.8266752" lon="17.1925721"><ele>919.0</ele><time>2026-04-28T14:05:36.278Z</time></trkpt><trkpt lat="43.826491" lon="17.1925623"><ele>919.3333333333333</ele><time>2026-04-28T14:05:37.279Z</time></trkpt><trkpt lat="43.8262971" lon="17.1925391"><ele>919.6666666666667</ele><time>2026-04-28T14:05:38.28Z</time></trkpt><trkpt lat="43.8261067" lon="17.192509"><ele>920.0</ele><time>2026-04-28T14:05:39.278Z</time></trkpt><trkpt lat="43.8259161" lon="17.1924689"><ele>920.0</ele><time>2026-04-28T14:05:40.278Z</time></trkpt><trkpt lat="43.8257266" lon="17.192429"><ele>920.0</ele><time>2026-04-28T14:05:41.279Z</time></trkpt><trkpt lat="43.8255345" lon="17.1923901"><ele>920.0</ele><time>2026-04-28T14:05:42.281Z</time></trkpt><trkpt lat="43.8253427" lon="17.1923566"><ele>920.0</ele><time>2026-04-28T14:05:43.279Z</time></trkpt><trkpt lat="43.8251522" lon="17.1923439"><ele>920.0</ele><time>2026-04-28T14:05:44.28Z</time></trkpt><trkpt lat="43.8249647" lon="17.1923569"><ele>920.0</ele><time>2026-04-28T14:05:45.277Z</time></trkpt><trkpt lat="43.8247809" lon="17.1923828"><ele>919.6666666666667</ele><time>2026-04-28T14:05:46.279Z</time></trkpt><trkpt lat="43.8246115" lon="17.1924343"><ele>919.3333333333333</ele><time>2026-04-28T14:05:47.28Z</time></trkpt><trkpt lat="43.8244527" lon="17.1925076"><ele>919.0</ele><time>2026-04-28T14:05:48.28Z</time></trkpt><trkpt lat="43.8242911" lon="17.192598"><ele>918.3333333333333</ele><time>2026-04-28T14:05:49.28Z</time></trkpt><trkpt lat="43.8241283" lon="17.1927033"><ele>917.6666666666667</ele><time>2026-04-28T14:05:50.28Z</time></trkpt><trkpt lat="43.8239637" lon="17.1928194"><ele>917.0</ele><time>2026-04-28T14:05:51.279Z</time></trkpt><trkpt lat="43.8237955" lon="17.192939"><ele>917.0</ele><time>2026-04-28T14:05:52.28Z</time></trkpt><trkpt lat="43.8236266" lon="17.1930538"><ele>917.0</ele><time>2026-04-28T14:05:53.28Z</time></trkpt><trkpt lat="43.8234683" lon="17.1931522"><ele>917.0</ele><time>2026-04-28T14:05:54.278Z</time></trkpt><trkpt lat="43.8233017" lon="17.1932312"><ele>919.3333333333334</ele><time>2026-04-28T14:05:55.279Z</time></trkpt><trkpt lat="43.8231231" lon="17.1932851"><ele>921.6666666666667</ele><time>2026-04-28T14:05:56.281Z</time></trkpt><trkpt lat="43.8229361" lon="17.1933206"><ele>924.0</ele><time>2026-04-28T14:05:57.279Z</time></trkpt><trkpt lat="43.8227486" lon="17.1933361"><ele>923.0</ele><time>2026-04-28T14:05:58.279Z</time></trkpt><trkpt lat="43.8225631" lon="17.1933317"><ele>922.0</ele><time>2026-04-28T14:05:59.279Z</time></trkpt><trkpt lat="43.8223815" lon="17.193311"><ele>921.0</ele><time>2026-04-28T14:06:00.278Z</time></trkpt><trkpt lat="43.8222032" lon="17.1932887"><ele>921.0</ele><time>2026-04-28T14:06:01.278Z</time></trkpt><trkpt lat="43.8220272" lon="17.1932593"><ele>921.0</ele><time>2026-04-28T14:06:02.279Z</time></trkpt><trkpt lat="43.8218494" lon="17.1932305"><ele>921.0</ele><time>2026-04-28T14:06:03.28Z</time></trkpt><trkpt lat="43.8216683" lon="17.1932143"><ele>921.6666666666667</ele><time>2026-04-28T14:06:04.279Z</time></trkpt><trkpt lat="43.8214881" lon="17.1932179"><ele>922.3333333333334</ele><time>2026-04-28T14:06:05.279Z</time></trkpt><trkpt lat="43.8213103" lon="17.193263"><ele>923.0</ele><time>2026-04-28T14:06:06.278Z</time></trkpt><trkpt lat="43.8211356" lon="17.1933291"><ele>922.0</ele><time>2026-04-28T14:06:07.279Z</time></trkpt><trkpt lat="43.8209662" lon="17.1934217"><ele>921.0</ele><time>2026-04-28T14:06:08.28Z</time></trkpt><trkpt lat="43.8208" lon="17.1935415"><ele>920.0</ele><time>2026-04-28T14:06:09.278Z</time></trkpt><trkpt lat="43.8206402" lon="17.193678"><ele>920.0</ele><time>2026-04-28T14:06:10.279Z</time></trkpt><trkpt lat="43.8204892" lon="17.193836"><ele>920.0</ele><time>2026-04-28T14:06:11.278Z</time></trkpt><trkpt lat="43.8203363" lon="17.1939936"><ele>920.0</ele><time>2026-04-28T14:06:12.278Z</time></trkpt><trkpt lat="43.8201788" lon="17.1941484"><ele>921.0</ele><time>2026-04-28T14:06:13.281Z</time></trkpt><trkpt lat="43.820018" lon="17.1942984"><ele>922.0</ele><time>2026-04-28T14:06:14.279Z</time></trkpt><trkpt lat="43.819849" lon="17.1944369"><ele>923.0</ele><time>2026-04-28T14:06:15.278Z</time></trkpt><trkpt lat="43.8196748" lon="17.1945554"><ele>923.0</ele><time>2026-04-28T14:06:16.279Z</time></trkpt><trkpt lat="43.8195013" lon="17.1946649"><ele>923.0</ele><time>2026-04-28T14:06:17.278Z</time></trkpt><trkpt lat="43.8193303" lon="17.194765"><ele>923.0</ele><time>2026-04-28T14:06:18.28Z</time></trkpt><trkpt lat="43.8191597" lon="17.1948676"><ele>925.6666666666667</ele><time>2026-04-28T14:06:19.278Z</time></trkpt><trkpt lat="43.8189918" lon="17.1949677"><ele>928.3333333333333</ele><time>2026-04-28T14:06:20.279Z</time></trkpt><trkpt lat="43.8188236" lon="17.1950615"><ele>931.0</ele><time>2026-04-28T14:06:21.28Z</time></trkpt><trkpt lat="43.818661" lon="17.1951531"><ele>931.0</ele><time>2026-04-28T14:06:22.278Z</time></trkpt><trkpt lat="43.8185139" lon="17.1952451"><ele>931.0</ele><time>2026-04-28T14:06:23.278Z</time></trkpt><trkpt lat="43.8183756" lon="17.1953397"><ele>931.0</ele><time>2026-04-28T14:06:24.278Z</time></trkpt><trkpt lat="43.8182443" lon="17.1954451"><ele>928.6666666666666</ele><time>2026-04-28T14:06:25.278Z</time></trkpt><trkpt lat="43.8181132" lon="17.1955617"><ele>926.3333333333333</ele><time>2026-04-28T14:06:26.279Z</time></trkpt><trkpt lat="43.8179931" lon="17.1956904"><ele>924.0</ele><time>2026-04-28T14:06:27.279Z</time></trkpt><trkpt lat="43.817887" lon="17.1958327"><ele>927.0</ele><time>2026-04-28T14:06:28.28Z</time></trkpt><trkpt lat="43.8177885" lon="17.1959858"><ele>930.0</ele><time>2026-04-28T14:06:29.282Z</time></trkpt><trkpt lat="43.8176906" lon="17.1961523"><ele>933.0</ele><time>2026-04-28T14:06:30.28Z</time></trkpt><trkpt lat="43.817594" lon="17.1963209"><ele>933.0</ele><time>2026-04-28T14:06:31.28Z</time></trkpt><trkpt lat="43.8174987" lon="17.1964941"><ele>933.0</ele><time>2026-04-28T14:06:32.28Z</time></trkpt><trkpt lat="43.8174099" lon="17.1966664"><ele>933.0</ele><time>2026-04-28T14:06:33.276Z</time></trkpt><trkpt lat="43.8173183" lon="17.1968452"><ele>937.0</ele><time>2026-04-28T14:06:34.278Z</time></trkpt><trkpt lat="43.8172295" lon="17.1970155"><ele>941.0</ele><time>2026-04-28T14:06:35.279Z</time></trkpt><trkpt lat="43.8171362" lon="17.1971912"><ele>945.0</ele><time>2026-04-28T14:06:36.278Z</time></trkpt><trkpt lat="43.8170395" lon="17.1973741"><ele>945.3333333333333</ele><time>2026-04-28T14:06:37.278Z</time></trkpt><trkpt lat="43.8169431" lon="17.1975574"><ele>945.6666666666666</ele><time>2026-04-28T14:06:38.279Z</time></trkpt><trkpt lat="43.8168457" lon="17.1977481"><ele>946.0</ele><time>2026-04-28T14:06:39.279Z</time></trkpt><trkpt lat="43.8167436" lon="17.1979389"><ele>946.0</ele><time>2026-04-28T14:06:40.28Z</time></trkpt><trkpt lat="43.8166382" lon="17.1981275"><ele>946.0</ele><time>2026-04-28T14:06:41.279Z</time></trkpt><trkpt lat="43.8165316" lon="17.1983141"><ele>946.0</ele><time>2026-04-28T14:06:42.279Z</time></trkpt><trkpt lat="43.8164207" lon="17.1984859"><ele>949.6666666666666</ele><time>2026-04-28T14:06:43.28Z</time></trkpt><trkpt lat="43.8163134" lon="17.1986421"><ele>953.3333333333333</ele><time>2026-04-28T14:06:44.279Z</time></trkpt><trkpt lat="43.8162019" lon="17.1987885"><ele>957.0</ele><time>2026-04-28T14:06:45.279Z</time></trkpt><trkpt lat="43.816088" lon="17.1989315"><ele>956.0</ele><time>2026-04-28T14:06:46.279Z</time></trkpt><trkpt lat="43.8159628" lon="17.1990648"><ele>955.0</ele><time>2026-04-28T14:06:47.279Z</time></trkpt><trkpt lat="43.8158401" lon="17.1992013"><ele>954.0</ele><time>2026-04-28T14:06:48.278Z</time></trkpt><trkpt lat="43.8157067" lon="17.1993367"><ele>954.0</ele><time>2026-04-28T14:06:49.277Z</time></trkpt><trkpt lat="43.815569" lon="17.1994691"><ele>954.0</ele><time>2026-04-28T14:06:50.276Z</time></trkpt><trkpt lat="43.8154314" lon="17.199607"><ele>954.0</ele><time>2026-04-28T14:06:51.278Z</time></trkpt><trkpt lat="43.8152815" lon="17.1997411"><ele>955.0</ele><time>2026-04-28T14:06:52.278Z</time></trkpt><trkpt lat="43.8151314" lon="17.1998825"><ele>956.0</ele><time>2026-04-28T14:06:53.277Z</time></trkpt><trkpt lat="43.8149773" lon="17.2000351"><ele>957.0</ele><time>2026-04-28T14:06:54.279Z</time></trkpt><trkpt lat="43.814829" lon="17.200195"><ele>957.0</ele><time>2026-04-28T14:06:55.28Z</time></trkpt><trkpt lat="43.8146723" lon="17.2003644"><ele>957.0</ele><time>2026-04-28T14:06:56.279Z</time></trkpt><trkpt lat="43.8145167" lon="17.2005399"><ele>957.0</ele><time>2026-04-28T14:06:57.279Z</time></trkpt><trkpt lat="43.814367" lon="17.2007219"><ele>958.6666666666667</ele><time>2026-04-28T14:06:58.278Z</time></trkpt><trkpt lat="43.8142249" lon="17.2008977"><ele>960.3333333333334</ele><time>2026-04-28T14:06:59.276Z</time></trkpt><trkpt lat="43.8140842" lon="17.2010721"><ele>962.0</ele><time>2026-04-28T14:07:00.279Z</time></trkpt><trkpt lat="43.8139538" lon="17.2012432"><ele>962.0</ele><time>2026-04-28T14:07:01.278Z</time></trkpt><trkpt lat="43.813817" lon="17.2014089"><ele>962.0</ele><time>2026-04-28T14:07:02.277Z</time></trkpt><trkpt lat="43.8136853" lon="17.2015723"><ele>962.0</ele><time>2026-04-28T14:07:03.28Z</time></trkpt><trkpt lat="43.813552" lon="17.2017414"><ele>962.6666666666667</ele><time>2026-04-28T14:07:04.279Z</time></trkpt><trkpt lat="43.8134211" lon="17.2019067"><ele>963.3333333333333</ele><time>2026-04-28T14:07:05.279Z</time></trkpt><trkpt lat="43.8132928" lon="17.2020729"><ele>964.0</ele><time>2026-04-28T14:07:06.279Z</time></trkpt><trkpt lat="43.8131635" lon="17.2022383"><ele>964.3333333333333</ele><time>2026-04-28T14:07:07.28Z</time></trkpt><trkpt lat="43.8130326" lon="17.2024027"><ele>964.6666666666667</ele><time>2026-04-28T14:07:08.278Z</time></trkpt><trkpt lat="43.8128948" lon="17.2025725"><ele>965.0</ele><time>2026-04-28T14:07:09.278Z</time></trkpt><trkpt lat="43.8127571" lon="17.2027389"><ele>965.0</ele><time>2026-04-28T14:07:10.278Z</time></trkpt><trkpt lat="43.8126161" lon="17.2028999"><ele>965.0</ele><time>2026-04-28T14:07:11.282Z</time></trkpt><trkpt lat="43.8124649" lon="17.2030464"><ele>965.0</ele><time>2026-04-28T14:07:12.278Z</time></trkpt><trkpt lat="43.812303" lon="17.2031773"><ele>966.6666666666667</ele><time>2026-04-28T14:07:13.279Z</time></trkpt><trkpt lat="43.8121316" lon="17.2032913"><ele>968.3333333333333</ele><time>2026-04-28T14:07:14.28Z</time></trkpt><trkpt lat="43.8119606" lon="17.2033912"><ele>970.0</ele><time>2026-04-28T14:07:15.277Z</time></trkpt><trkpt lat="43.8117878" lon="17.2034741"><ele>970.0</ele><time>2026-04-28T14:07:16.277Z</time></trkpt><trkpt lat="43.8116062" lon="17.2035401"><ele>970.0</ele><time>2026-04-28T14:07:17.279Z</time></trkpt><trkpt lat="43.811421" lon="17.2035891"><ele>970.0</ele><time>2026-04-28T14:07:18.279Z</time></trkpt><trkpt lat="43.8112284" lon="17.2036229"><ele>970.0</ele><time>2026-04-28T14:07:19.279Z</time></trkpt><trkpt lat="43.8110406" lon="17.2036365"><ele>970.0</ele><time>2026-04-28T14:07:20.28Z</time></trkpt><trkpt lat="43.8108503" lon="17.2036407"><ele>970.0</ele><time>2026-04-28T14:07:21.281Z</time></trkpt><trkpt lat="43.8106594" lon="17.2036444"><ele>971.0</ele><time>2026-04-28T14:07:22.278Z</time></trkpt><trkpt lat="43.810482" lon="17.2036456"><ele>972.0</ele><time>2026-04-28T14:07:23.278Z</time></trkpt><trkpt lat="43.8103144" lon="17.2036414"><ele>973.0</ele><time>2026-04-28T14:07:24.278Z</time></trkpt><trkpt lat="43.8101682" lon="17.2036419"><ele>972.8</ele><time>2026-04-28T14:07:25.279Z</time></trkpt><trkpt lat="43.8100426" lon="17.2036409"><ele>972.5999999999999</ele><time>2026-04-28T14:07:26.278Z</time></trkpt><trkpt lat="43.8099323" lon="17.2036385"><ele>972.4000000000001</ele><time>2026-04-28T14:07:27.279Z</time></trkpt><trkpt lat="43.8098439" lon="17.2036353"><ele>972.2</ele><time>2026-04-28T14:07:28.279Z</time></trkpt><trkpt lat="43.8097728" lon="17.2036238"><ele>972.0</ele><time>2026-04-28T14:07:29.278Z</time></trkpt><trkpt lat="43.8096804" lon="17.2036016"><ele>972.0</ele><time>2026-04-28T14:07:31.279Z</time></trkpt><trkpt lat="43.8095949" lon="17.2035968"><ele>972.0</ele><time>2026-04-28T14:18:26.277Z</time></trkpt><trkpt lat="43.8094749" lon="17.2036332"><ele>972.0</ele><time>2026-04-28T14:18:28.28Z</time></trkpt><trkpt lat="43.8093988" lon="17.2036357"><ele>972.0</ele><time>2026-04-28T14:18:29.277Z</time></trkpt><trkpt lat="43.8093058" lon="17.2036389"><ele>972.0</ele><time>2026-04-28T14:18:30.28Z</time></trkpt><trkpt lat="43.8092029" lon="17.2036375"><ele>972.0</ele><time>2026-04-28T14:18:31.277Z</time></trkpt><trkpt lat="43.809082" lon="17.2036406"><ele>972.0</ele><time>2026-04-28T14:18:32.278Z</time></trkpt><trkpt lat="43.8089294" lon="17.2036465"><ele>972.0</ele><time>2026-04-28T14:18:33.28Z</time></trkpt><trkpt lat="43.8087595" lon="17.2036462"><ele>972.0</ele><time>2026-04-28T14:18:34.278Z</time></trkpt><trkpt lat="43.8085712" lon="17.2036472"><ele>971.6666666666667</ele><time>2026-04-28T14:18:35.28Z</time></trkpt><trkpt lat="43.8083702" lon="17.2036559"><ele>971.3333333333334</ele><time>2026-04-28T14:18:36.282Z</time></trkpt><trkpt lat="43.8081775" lon="17.2036604"><ele>971.0</ele><time>2026-04-28T14:18:37.277Z</time></trkpt><trkpt lat="43.8079835" lon="17.2036622"><ele>971.0</ele><time>2026-04-28T14:18:38.28Z</time></trkpt><trkpt lat="43.8077928" lon="17.203672"><ele>971.0</ele><time>2026-04-28T14:18:39.276Z</time></trkpt><trkpt lat="43.8076025" lon="17.2036889"><ele>971.0</ele><time>2026-04-28T14:18:40.28Z</time></trkpt><trkpt lat="43.8074157" lon="17.20371"><ele>972.3333333333334</ele><time>2026-04-28T14:18:41.282Z</time></trkpt><trkpt lat="43.8072316" lon="17.2037515"><ele>973.6666666666667</ele><time>2026-04-28T14:18:42.28Z</time></trkpt><trkpt lat="43.8070411" lon="17.2038045"><ele>975.0</ele><time>2026-04-28T14:18:43.282Z</time></trkpt><trkpt lat="43.8068513" lon="17.2038695"><ele>974.0</ele><time>2026-04-28T14:18:44.276Z</time></trkpt><trkpt lat="43.8066588" lon="17.2039557"><ele>973.0</ele><time>2026-04-28T14:18:45.279Z</time></trkpt><trkpt lat="43.8064635" lon="17.2040491"><ele>972.0</ele><time>2026-04-28T14:18:46.296Z</time></trkpt><trkpt lat="43.8062668" lon="17.2041473"><ele>973.6666666666667</ele><time>2026-04-28T14:18:47.278Z</time></trkpt><trkpt lat="43.8060679" lon="17.2042436"><ele>975.3333333333334</ele><time>2026-04-28T14:18:48.283Z</time></trkpt><trkpt lat="43.8058624" lon="17.2043315"><ele>977.0</ele><time>2026-04-28T14:18:49.277Z</time></trkpt><trkpt lat="43.8056531" lon="17.2044049"><ele>977.0</ele><time>2026-04-28T14:18:50.281Z</time></trkpt><trkpt lat="43.8054378" lon="17.2044748"><ele>977.0</ele><time>2026-04-28T14:18:51.28Z</time></trkpt><trkpt lat="43.8052191" lon="17.2045343"><ele>977.0</ele><time>2026-04-28T14:18:52.278Z</time></trkpt><trkpt lat="43.8050018" lon="17.2045832"><ele>976.0</ele><time>2026-04-28T14:18:53.28Z</time></trkpt><trkpt lat="43.8047781" lon="17.2046362"><ele>975.0</ele><time>2026-04-28T14:18:54.282Z</time></trkpt><trkpt lat="43.8045553" lon="17.204679"><ele>975.0</ele><time>2026-04-28T14:18:55.282Z</time></trkpt><trkpt lat="43.8043315" lon="17.2047153"><ele>975.0</ele><time>2026-04-28T14:18:56.279Z</time></trkpt><trkpt lat="43.8041074" lon="17.2047485"><ele>973.6666666666667</ele><time>2026-04-28T14:18:57.278Z</time></trkpt><trkpt lat="43.8038856" lon="17.2047809"><ele>972.3333333333334</ele><time>2026-04-28T14:18:58.277Z</time></trkpt><trkpt lat="43.8036626" lon="17.2048145"><ele>971.0</ele><time>2026-04-28T14:18:59.278Z</time></trkpt><trkpt lat="43.8034406" lon="17.204834"><ele>977.6666666666667</ele><time>2026-04-28T14:19:00.282Z</time></trkpt><trkpt lat="43.8032209" lon="17.2048575"><ele>984.3333333333333</ele><time>2026-04-28T14:19:01.288Z</time></trkpt><trkpt lat="43.8030008" lon="17.2048669"><ele>991.0</ele><time>2026-04-28T14:19:02.275Z</time></trkpt><trkpt lat="43.8027782" lon="17.2048817"><ele>992.0</ele><time>2026-04-28T14:19:03.278Z</time></trkpt><trkpt lat="43.8025544" lon="17.2049007"><ele>993.0</ele><time>2026-04-28T14:19:04.277Z</time></trkpt><trkpt lat="43.802336" lon="17.2049257"><ele>994.0</ele><time>2026-04-28T14:19:05.28Z</time></trkpt><trkpt lat="43.8021186" lon="17.204964"><ele>994.0</ele><time>2026-04-28T14:19:06.278Z</time></trkpt><trkpt lat="43.8019008" lon="17.2050246"><ele>994.0</ele><time>2026-04-28T14:19:07.276Z</time></trkpt><trkpt lat="43.8016924" lon="17.2051242"><ele>994.0</ele><time>2026-04-28T14:19:08.278Z</time></trkpt><trkpt lat="43.8014969" lon="17.2052603"><ele>991.6666666666666</ele><time>2026-04-28T14:19:09.279Z</time></trkpt><trkpt lat="43.8013209" lon="17.2054281"><ele>989.3333333333333</ele><time>2026-04-28T14:19:10.277Z</time></trkpt><trkpt lat="43.8011643" lon="17.2056266"><ele>987.0</ele><time>2026-04-28T14:19:11.28Z</time></trkpt><trkpt lat="43.801028" lon="17.2058447"><ele>991.6666666666667</ele><time>2026-04-28T14:19:12.279Z</time></trkpt><trkpt lat="43.8009222" lon="17.2060757"><ele>996.3333333333334</ele><time>2026-04-28T14:19:13.279Z</time></trkpt><trkpt lat="43.8008587" lon="17.2063144"><ele>1001.0</ele><time>2026-04-28T14:19:14.279Z</time></trkpt><trkpt lat="43.8008196" lon="17.2065783"><ele>1003.0</ele><time>2026-04-28T14:19:15.281Z</time></trkpt><trkpt lat="43.80081" lon="17.2068523"><ele>1005.0</ele><time>2026-04-28T14:19:16.278Z</time></trkpt><trkpt lat="43.8008261" lon="17.2071367"><ele>1007.0</ele><time>2026-04-28T14:19:17.276Z</time></trkpt><trkpt lat="43.8008448" lon="17.2074295"><ele>1007.0</ele><time>2026-04-28T14:19:18.282Z</time></trkpt><trkpt lat="43.800846" lon="17.2076898"><ele>1007.0</ele><time>2026-04-28T14:19:19.282Z</time></trkpt><trkpt lat="43.8008427" lon="17.2079285"><ele>1007.0</ele><time>2026-04-28T14:19:20.278Z</time></trkpt><trkpt lat="43.8008258" lon="17.2081413"><ele>1007.0</ele><time>2026-04-28T14:19:21.28Z</time></trkpt><trkpt lat="43.8007778" lon="17.208343"><ele>1007.0</ele><time>2026-04-28T14:19:22.276Z</time></trkpt><trkpt lat="43.8006968" lon="17.2085471"><ele>1007.0</ele><time>2026-04-28T14:19:23.276Z</time></trkpt><trkpt lat="43.8005898" lon="17.2087534"><ele>1007.0</ele><time>2026-04-28T14:19:24.277Z</time></trkpt><trkpt lat="43.8004661" lon="17.2089349"><ele>1007.0</ele><time>2026-04-28T14:19:25.277Z</time></trkpt><trkpt lat="43.8003164" lon="17.2091092"><ele>1007.0</ele><time>2026-04-28T14:19:26.276Z</time></trkpt><trkpt lat="43.8001384" lon="17.2092514"><ele>1005.3333333333334</ele><time>2026-04-28T14:19:27.275Z</time></trkpt><trkpt lat="43.7999424" lon="17.2093552"><ele>1003.6666666666667</ele><time>2026-04-28T14:19:28.276Z</time></trkpt><trkpt lat="43.7997324" lon="17.20945"><ele>1002.0</ele><time>2026-04-28T14:19:29.279Z</time></trkpt><trkpt lat="43.7995205" lon="17.2095358"><ele>997.5</ele><time>2026-04-28T14:19:30.281Z</time></trkpt><trkpt lat="43.7993001" lon="17.2096242"><ele>993.0</ele><time>2026-04-28T14:19:31.276Z</time></trkpt><trkpt lat="43.7990866" lon="17.2097279"><ele>996.0</ele><time>2026-04-28T14:19:32.278Z</time></trkpt><trkpt lat="43.7988858" lon="17.2098577"><ele>999.0</ele><time>2026-04-28T14:19:33.282Z</time></trkpt><trkpt lat="43.7986957" lon="17.2100206"><ele>1002.0</ele><time>2026-04-28T14:19:34.278Z</time></trkpt><trkpt lat="43.7985197" lon="17.2102063"><ele>1001.6666666666667</ele><time>2026-04-28T14:19:35.282Z</time></trkpt><trkpt lat="43.7983729" lon="17.2104105"><ele>1001.3333333333334</ele><time>2026-04-28T14:19:36.285Z</time></trkpt><trkpt lat="43.798248" lon="17.2106414"><ele>1001.0</ele><time>2026-04-28T14:19:37.282Z</time></trkpt><trkpt lat="43.7981461" lon="17.2109097"><ele>1002.6666666666667</ele><time>2026-04-28T14:19:38.278Z</time></trkpt><trkpt lat="43.7980646" lon="17.2111964"><ele>1004.3333333333333</ele><time>2026-04-28T14:19:39.277Z</time></trkpt><trkpt lat="43.7979904" lon="17.2114929"><ele>1006.0</ele><time>2026-04-28T14:19:40.276Z</time></trkpt><trkpt lat="43.7979233" lon="17.2117979"><ele>1007.5</ele><time>2026-04-28T14:19:41.277Z</time></trkpt><trkpt lat="43.7978577" lon="17.212106"><ele>1009.0</ele><time>2026-04-28T14:19:42.278Z</time></trkpt><trkpt lat="43.7977866" lon="17.212414"><ele>1008.0</ele><time>2026-04-28T14:19:43.281Z</time></trkpt><trkpt lat="43.7976996" lon="17.2127146"><ele>1007.0</ele><time>2026-04-28T14:19:44.281Z</time></trkpt><trkpt lat="43.7975874" lon="17.2130045"><ele>1007.0</ele><time>2026-04-28T14:19:45.281Z</time></trkpt><trkpt lat="43.797452" lon="17.2132821"><ele>1007.0</ele><time>2026-04-28T14:19:46.279Z</time></trkpt><trkpt lat="43.7972924" lon="17.2135377"><ele>1007.0</ele><time>2026-04-28T14:19:47.276Z</time></trkpt><trkpt lat="43.7971165" lon="17.2137857"><ele>1007.0</ele><time>2026-04-28T14:19:48.281Z</time></trkpt><trkpt lat="43.7969253" lon="17.2140089"><ele>1006.5</ele><time>2026-04-28T14:19:49.278Z</time></trkpt><trkpt lat="43.796717" lon="17.2142053"><ele>1006.0</ele><time>2026-04-28T14:19:50.279Z</time></trkpt><trkpt lat="43.7965049" lon="17.2143993"><ele>1006.0</ele><time>2026-04-28T14:19:51.277Z</time></trkpt><trkpt lat="43.7962953" lon="17.2145954"><ele>1006.0</ele><time>2026-04-28T14:19:52.279Z</time></trkpt><trkpt lat="43.7960852" lon="17.2147907"><ele>1005.5</ele><time>2026-04-28T14:19:53.277Z</time></trkpt><trkpt lat="43.7958779" lon="17.2149948"><ele>1005.0</ele><time>2026-04-28T14:19:54.277Z</time></trkpt><trkpt lat="43.7956793" lon="17.2152056"><ele>1005.0</ele><time>2026-04-28T14:19:55.279Z</time></trkpt><trkpt lat="43.7954896" lon="17.2154348"><ele>1005.0</ele><time>2026-04-28T14:19:56.278Z</time></trkpt><trkpt lat="43.7953111" lon="17.2156815"><ele>1004.0</ele><time>2026-04-28T14:19:57.278Z</time></trkpt><trkpt lat="43.7951431" lon="17.215944"><ele>1003.0</ele><time>2026-04-28T14:19:58.278Z</time></trkpt><trkpt lat="43.7949839" lon="17.2162262"><ele>1005.0</ele><time>2026-04-28T14:19:59.278Z</time></trkpt><trkpt lat="43.7948298" lon="17.2165151"><ele>1007.0</ele><time>2026-04-28T14:20:00.277Z</time></trkpt><trkpt lat="43.7946811" lon="17.2168089"><ele>1007.0</ele><time>2026-04-28T14:20:01.278Z</time></trkpt><trkpt lat="43.7945338" lon="17.2171097"><ele>1007.0</ele><time>2026-04-28T14:20:02.277Z</time></trkpt><trkpt lat="43.7943833" lon="17.2174072"><ele>1007.5</ele><time>2026-04-28T14:20:03.278Z</time></trkpt><trkpt lat="43.7942282" lon="17.2176996"><ele>1008.0</ele><time>2026-04-28T14:20:04.281Z</time></trkpt><trkpt lat="43.7940695" lon="17.2179792"><ele>1010.0</ele><time>2026-04-28T14:20:05.281Z</time></trkpt><trkpt lat="43.7939045" lon="17.2182163"><ele>1012.0</ele><time>2026-04-28T14:20:06.282Z</time></trkpt><trkpt lat="43.7937322" lon="17.2184283"><ele>1012.0</ele><time>2026-04-28T14:20:07.278Z</time></trkpt><trkpt lat="43.7935451" lon="17.218605"><ele>1012.0</ele><time>2026-04-28T14:20:08.286Z</time></trkpt><trkpt lat="43.793345" lon="17.2187446"><ele>1007.5</ele><time>2026-04-28T14:20:09.278Z</time></trkpt><trkpt lat="43.7931273" lon="17.2188515"><ele>1003.0</ele><time>2026-04-28T14:20:10.28Z</time></trkpt><trkpt lat="43.7928919" lon="17.2189437"><ele>1005.5</ele><time>2026-04-28T14:20:11.279Z</time></trkpt><trkpt lat="43.7926487" lon="17.2190252"><ele>1008.0</ele><time>2026-04-28T14:20:12.279Z</time></trkpt><trkpt lat="43.7924077" lon="17.2191101"><ele>1008.0</ele><time>2026-04-28T14:20:13.275Z</time></trkpt><trkpt lat="43.7921799" lon="17.2191844"><ele>1008.0</ele><time>2026-04-28T14:20:14.276Z</time></trkpt><trkpt lat="43.7919632" lon="17.2192675"><ele>1007.0</ele><time>2026-04-28T14:20:15.281Z</time></trkpt><trkpt lat="43.7917521" lon="17.2193687"><ele>1006.0</ele><time>2026-04-28T14:20:16.277Z</time></trkpt><trkpt lat="43.7915408" lon="17.219483"><ele>1006.0</ele><time>2026-04-28T14:20:17.28Z</time></trkpt><trkpt lat="43.7913275" lon="17.2196188"><ele>1006.0</ele><time>2026-04-28T14:20:18.276Z</time></trkpt><trkpt lat="43.7911113" lon="17.2197692"><ele>1006.0</ele><time>2026-04-28T14:20:19.278Z</time></trkpt><trkpt lat="43.7908941" lon="17.2199333"><ele>1006.0</ele><time>2026-04-28T14:20:20.279Z</time></trkpt><trkpt lat="43.7906726" lon="17.2201001"><ele>1006.0</ele><time>2026-04-28T14:20:21.279Z</time></trkpt><trkpt lat="43.7904435" lon="17.2202785"><ele>1006.0</ele><time>2026-04-28T14:20:22.278Z</time></trkpt><trkpt lat="43.7902122" lon="17.2204589"><ele>1006.5</ele><time>2026-04-28T14:20:23.278Z</time></trkpt><trkpt lat="43.7899795" lon="17.2206404"><ele>1007.0</ele><time>2026-04-28T14:20:24.278Z</time></trkpt><trkpt lat="43.7897498" lon="17.220826"><ele>1007.0</ele><time>2026-04-28T14:20:25.278Z</time></trkpt><trkpt lat="43.7895197" lon="17.2210119"><ele>1007.0</ele><time>2026-04-28T14:20:26.279Z</time></trkpt><trkpt lat="43.7892909" lon="17.2211965"><ele>1005.5</ele><time>2026-04-28T14:20:27.279Z</time></trkpt><trkpt lat="43.7890627" lon="17.2213772"><ele>1004.0</ele><time>2026-04-28T14:20:28.278Z</time></trkpt><trkpt lat="43.7888374" lon="17.2215576"><ele>1006.5</ele><time>2026-04-28T14:20:29.28Z</time></trkpt><trkpt lat="43.7886096" lon="17.2217438"><ele>1009.0</ele><time>2026-04-28T14:20:30.276Z</time></trkpt><trkpt lat="43.7883872" lon="17.2219231"><ele>1009.0</ele><time>2026-04-28T14:20:31.277Z</time></trkpt><trkpt lat="43.7881631" lon="17.2221084"><ele>1009.0</ele><time>2026-04-28T14:20:32.278Z</time></trkpt><trkpt lat="43.7879406" lon="17.2222983"><ele>1010.5</ele><time>2026-04-28T14:20:33.28Z</time></trkpt><trkpt lat="43.7877177" lon="17.2224848"><ele>1012.0</ele><time>2026-04-28T14:20:34.278Z</time></trkpt><trkpt lat="43.7874949" lon="17.2226611"><ele>1012.0</ele><time>2026-04-28T14:20:35.277Z</time></trkpt><trkpt lat="43.787268" lon="17.2228155"><ele>1012.0</ele><time>2026-04-28T14:20:36.277Z</time></trkpt><trkpt lat="43.7870403" lon="17.2229291"><ele>1011.0</ele><time>2026-04-28T14:20:37.275Z</time></trkpt><trkpt lat="43.7868134" lon="17.2230092"><ele>1010.0</ele><time>2026-04-28T14:20:38.28Z</time></trkpt><trkpt lat="43.7865898" lon="17.2230452"><ele>1010.0</ele><time>2026-04-28T14:20:39.276Z</time></trkpt><trkpt lat="43.7863727" lon="17.2230324"><ele>1010.0</ele><time>2026-04-28T14:20:40.279Z</time></trkpt><trkpt lat="43.7861645" lon="17.222987"><ele>1010.0</ele><time>2026-04-28T14:20:41.279Z</time></trkpt><trkpt lat="43.7859465" lon="17.2229156"><ele>1009.5</ele><time>2026-04-28T14:20:42.28Z</time></trkpt><trkpt lat="43.7857174" lon="17.2228433"><ele>1009.0</ele><time>2026-04-28T14:20:43.277Z</time></trkpt><trkpt lat="43.7854842" lon="17.2227596"><ele>1009.0</ele><time>2026-04-28T14:20:44.28Z</time></trkpt><trkpt lat="43.7852436" lon="17.2226767"><ele>1009.0</ele><time>2026-04-28T14:20:45.278Z</time></trkpt><trkpt lat="43.7849945" lon="17.2225995"><ele>1007.0</ele><time>2026-04-28T14:20:46.279Z</time></trkpt><trkpt lat="43.7847418" lon="17.2225313"><ele>1005.0</ele><time>2026-04-28T14:20:47.278Z</time></trkpt><trkpt lat="43.784481" lon="17.2224652"><ele>1002.0</ele><time>2026-04-28T14:20:48.28Z</time></trkpt><trkpt lat="43.7842163" lon="17.2224088"><ele>999.0</ele><time>2026-04-28T14:20:49.281Z</time></trkpt><trkpt lat="43.7839509" lon="17.2223563"><ele>997.5</ele><time>2026-04-28T14:20:50.279Z</time></trkpt><trkpt lat="43.7836857" lon="17.222306"><ele>996.0</ele><time>2026-04-28T14:20:51.277Z</time></trkpt><trkpt lat="43.7834193" lon="17.2222522"><ele>994.5</ele><time>2026-04-28T14:20:52.28Z</time></trkpt><trkpt lat="43.7831747" lon="17.2222049"><ele>993.0</ele><time>2026-04-28T14:20:53.276Z</time></trkpt><trkpt lat="43.7829509" lon="17.2221739"><ele>993.0</ele><time>2026-04-28T14:20:54.279Z</time></trkpt><trkpt lat="43.7827264" lon="17.2221699"><ele>993.0</ele><time>2026-04-28T14:20:55.277Z</time></trkpt><trkpt lat="43.7825126" lon="17.2221939"><ele>993.0</ele><time>2026-04-28T14:20:56.276Z</time></trkpt><trkpt lat="43.7823066" lon="17.2222485"><ele>991.5</ele><time>2026-04-28T14:20:57.278Z</time></trkpt><trkpt lat="43.782092" lon="17.2223484"><ele>990.0</ele><time>2026-04-28T14:20:58.281Z</time></trkpt><trkpt lat="43.7818795" lon="17.2224928"><ele>989.5</ele><time>2026-04-28T14:20:59.28Z</time></trkpt><trkpt lat="43.781671" lon="17.2226764"><ele>989.0</ele><time>2026-04-28T14:21:00.28Z</time></trkpt><trkpt lat="43.7814617" lon="17.2228877"><ele>989.0</ele><time>2026-04-28T14:21:01.277Z</time></trkpt><trkpt lat="43.7812533" lon="17.2231093"><ele>989.0</ele><time>2026-04-28T14:21:02.277Z</time></trkpt><trkpt lat="43.7810444" lon="17.2233466"><ele>987.5</ele><time>2026-04-28T14:21:03.279Z</time></trkpt><trkpt lat="43.7808338" lon="17.2235892"><ele>986.0</ele><time>2026-04-28T14:21:04.289Z</time></trkpt><trkpt lat="43.7806178" lon="17.223836"><ele>987.5</ele><time>2026-04-28T14:21:05.28Z</time></trkpt><trkpt lat="43.7804009" lon="17.2240914"><ele>989.0</ele><time>2026-04-28T14:21:06.279Z</time></trkpt><trkpt lat="43.7801796" lon="17.2243526"><ele>986.5</ele><time>2026-04-28T14:21:07.278Z</time></trkpt><trkpt lat="43.7799519" lon="17.2246153"><ele>984.0</ele><time>2026-04-28T14:21:08.279Z</time></trkpt><trkpt lat="43.7797224" lon="17.2248842"><ele>984.0</ele><time>2026-04-28T14:21:09.283Z</time></trkpt><trkpt lat="43.7794912" lon="17.2251534"><ele>984.0</ele><time>2026-04-28T14:21:10.28Z</time></trkpt><trkpt lat="43.7792591" lon="17.2254194"><ele>982.0</ele><time>2026-04-28T14:21:11.282Z</time></trkpt><trkpt lat="43.7790274" lon="17.2256735"><ele>980.0</ele><time>2026-04-28T14:21:12.281Z</time></trkpt><trkpt lat="43.7788048" lon="17.2259138"><ele>980.0</ele><time>2026-04-28T14:21:13.28Z</time></trkpt><trkpt lat="43.7785873" lon="17.2261356"><ele>980.0</ele><time>2026-04-28T14:21:14.278Z</time></trkpt><trkpt lat="43.7783684" lon="17.2263333"><ele>977.5</ele><time>2026-04-28T14:21:15.278Z</time></trkpt><trkpt lat="43.7781451" lon="17.2265172"><ele>975.0</ele><time>2026-04-28T14:21:16.281Z</time></trkpt><trkpt lat="43.7779218" lon="17.2266935"><ele>975.0</ele><time>2026-04-28T14:21:17.28Z</time></trkpt><trkpt lat="43.777694" lon="17.2268632"><ele>975.0</ele><time>2026-04-28T14:21:18.283Z</time></trkpt><trkpt lat="43.7774676" lon="17.2270346"><ele>970.5</ele><time>2026-04-28T14:21:19.289Z</time></trkpt><trkpt lat="43.7772387" lon="17.2272115"><ele>966.0</ele><time>2026-04-28T14:21:20.286Z</time></trkpt><trkpt lat="43.7770077" lon="17.2273822"><ele>966.0</ele><time>2026-04-28T14:21:21.28Z</time></trkpt><trkpt lat="43.7767768" lon="17.2275584"><ele>966.0</ele><time>2026-04-28T14:21:22.278Z</time></trkpt><trkpt lat="43.7765533" lon="17.2277365"><ele>966.0</ele><time>2026-04-28T14:21:23.278Z</time></trkpt><trkpt lat="43.7763327" lon="17.2279321"><ele>966.0</ele><time>2026-04-28T14:21:24.279Z</time></trkpt><trkpt lat="43.7761221" lon="17.2281441"><ele>961.0</ele><time>2026-04-28T14:21:25.279Z</time></trkpt><trkpt lat="43.7759209" lon="17.2283771"><ele>956.0</ele><time>2026-04-28T14:21:26.281Z</time></trkpt><trkpt lat="43.7757273" lon="17.2286268"><ele>956.0</ele><time>2026-04-28T14:21:27.279Z</time></trkpt><trkpt lat="43.7755428" lon="17.228889"><ele>956.0</ele><time>2026-04-28T14:21:28.275Z</time></trkpt><trkpt lat="43.7753708" lon="17.2291702"><ele>956.5</ele><time>2026-04-28T14:21:29.278Z</time></trkpt><trkpt lat="43.7752184" lon="17.2294633"><ele>957.0</ele><time>2026-04-28T14:21:30.282Z</time></trkpt><trkpt lat="43.7750785" lon="17.2297687"><ele>955.0</ele><time>2026-04-28T14:21:31.281Z</time></trkpt><trkpt lat="43.7749489" lon="17.230091"><ele>953.0</ele><time>2026-04-28T14:21:32.278Z</time></trkpt><trkpt lat="43.7748382" lon="17.2304238"><ele>951.5</ele><time>2026-04-28T14:21:33.279Z</time></trkpt><trkpt lat="43.7747361" lon="17.2307634"><ele>950.0</ele><time>2026-04-28T14:21:34.279Z</time></trkpt><trkpt lat="43.774634" lon="17.231098"><ele>950.0</ele><time>2026-04-28T14:21:35.278Z</time></trkpt><trkpt lat="43.7745343" lon="17.2314262"><ele>950.0</ele><time>2026-04-28T14:21:36.279Z</time></trkpt><trkpt lat="43.774431" lon="17.2317258"><ele>949.0</ele><time>2026-04-28T14:21:37.281Z</time></trkpt><trkpt lat="43.7743185" lon="17.2319944"><ele>948.0</ele><time>2026-04-28T14:21:38.279Z</time></trkpt><trkpt lat="43.7742002" lon="17.2322262"><ele>947.0</ele><time>2026-04-28T14:21:39.28Z</time></trkpt><trkpt lat="43.7740743" lon="17.2324421"><ele>947.0</ele><time>2026-04-28T14:21:40.277Z</time></trkpt><trkpt lat="43.773937" lon="17.2326377"><ele>947.0</ele><time>2026-04-28T14:21:41.281Z</time></trkpt><trkpt lat="43.7737883" lon="17.2328092"><ele>947.0</ele><time>2026-04-28T14:21:42.277Z</time></trkpt><trkpt lat="43.773631" lon="17.2329594"><ele>947.0</ele><time>2026-04-28T14:21:43.277Z</time></trkpt><trkpt lat="43.7734669" lon="17.2330876"><ele>947.0</ele><time>2026-04-28T14:21:44.281Z</time></trkpt><trkpt lat="43.7733007" lon="17.2331936"><ele>947.0</ele><time>2026-04-28T14:21:45.281Z</time></trkpt><trkpt lat="43.7731281" lon="17.2332818"><ele>947.0</ele><time>2026-04-28T14:21:46.281Z</time></trkpt><trkpt lat="43.7729513" lon="17.2333506"><ele>947.0</ele><time>2026-04-28T14:21:47.286Z</time></trkpt><trkpt lat="43.7727691" lon="17.2334152"><ele>947.0</ele><time>2026-04-28T14:21:48.287Z</time></trkpt><trkpt lat="43.7725891" lon="17.2334583"><ele>947.0</ele><time>2026-04-28T14:21:49.275Z</time></trkpt><trkpt lat="43.7724056" lon="17.2335082"><ele>947.0</ele><time>2026-04-28T14:21:50.275Z</time></trkpt><trkpt lat="43.7722207" lon="17.2335605"><ele>947.0</ele><time>2026-04-28T14:21:51.277Z</time></trkpt><trkpt lat="43.7720357" lon="17.2336131"><ele>946.3333333333334</ele><time>2026-04-28T14:21:52.278Z</time></trkpt><trkpt lat="43.7718529" lon="17.2336657"><ele>945.6666666666667</ele><time>2026-04-28T14:21:53.281Z</time></trkpt><trkpt lat="43.7716698" lon="17.233712"><ele>945.0</ele><time>2026-04-28T14:21:54.282Z</time></trkpt><trkpt lat="43.7714901" lon="17.2337612"><ele>945.0</ele><time>2026-04-28T14:21:55.283Z</time></trkpt><trkpt lat="43.7713138" lon="17.2338045"><ele>945.0</ele><time>2026-04-28T14:21:56.279Z</time></trkpt><trkpt lat="43.7711416" lon="17.2338495"><ele>945.0</ele><time>2026-04-28T14:21:57.282Z</time></trkpt><trkpt lat="43.7709758" lon="17.2338933"><ele>945.0</ele><time>2026-04-28T14:21:58.278Z</time></trkpt><trkpt lat="43.7708186" lon="17.233939"><ele>945.0</ele><time>2026-04-28T14:21:59.279Z</time></trkpt><trkpt lat="43.7706663" lon="17.2339847"><ele>945.0</ele><time>2026-04-28T14:22:00.28Z</time></trkpt><trkpt lat="43.7705097" lon="17.2340255"><ele>945.0</ele><time>2026-04-28T14:22:01.278Z</time></trkpt><trkpt lat="43.7703578" lon="17.2340663"><ele>945.0</ele><time>2026-04-28T14:22:02.279Z</time></trkpt><trkpt lat="43.7702099" lon="17.2341109"><ele>945.0</ele><time>2026-04-28T14:22:03.278Z</time></trkpt><trkpt lat="43.7700616" lon="17.2341469"><ele>943.6666666666667</ele><time>2026-04-28T14:22:04.281Z</time></trkpt><trkpt lat="43.7699103" lon="17.2341813"><ele>942.3333333333334</ele><time>2026-04-28T14:22:05.277Z</time></trkpt><trkpt lat="43.7697535" lon="17.234217"><ele>941.0</ele><time>2026-04-28T14:22:06.281Z</time></trkpt><trkpt lat="43.7695999" lon="17.2342571"><ele>941.0</ele><time>2026-04-28T14:22:07.279Z</time></trkpt><trkpt lat="43.7694405" lon="17.2343022"><ele>941.0</ele><time>2026-04-28T14:22:08.277Z</time></trkpt><trkpt lat="43.7692879" lon="17.2343551"><ele>941.0</ele><time>2026-04-28T14:22:09.277Z</time></trkpt><trkpt lat="43.7691436" lon="17.2344177"><ele>939.75</ele><time>2026-04-28T14:22:10.278Z</time></trkpt><trkpt lat="43.7690061" lon="17.2344863"><ele>938.5</ele><time>2026-04-28T14:22:11.278Z</time></trkpt><trkpt lat="43.7688704" lon="17.2345643"><ele>937.25</ele><time>2026-04-28T14:22:12.278Z</time></trkpt><trkpt lat="43.7687367" lon="17.2346573"><ele>936.0</ele><time>2026-04-28T14:22:13.279Z</time></trkpt><trkpt lat="43.768595" lon="17.2347687"><ele>935.3333333333333</ele><time>2026-04-28T14:22:14.275Z</time></trkpt><trkpt lat="43.7684546" lon="17.2348937"><ele>934.6666666666666</ele><time>2026-04-28T14:22:15.28Z</time></trkpt><trkpt lat="43.7683046" lon="17.2350318"><ele>934.0</ele><time>2026-04-28T14:22:16.279Z</time></trkpt><trkpt lat="43.768154" lon="17.2351931"><ele>934.0</ele><time>2026-04-28T14:22:17.283Z</time></trkpt><trkpt lat="43.7679995" lon="17.2353678"><ele>934.0</ele><time>2026-04-28T14:22:18.278Z</time></trkpt><trkpt lat="43.767844" lon="17.2355558"><ele>934.0</ele><time>2026-04-28T14:22:19.278Z</time></trkpt><trkpt lat="43.7676838" lon="17.2357489"><ele>932.3333333333333</ele><time>2026-04-28T14:22:20.28Z</time></trkpt><trkpt lat="43.7675205" lon="17.2359493"><ele>930.6666666666667</ele><time>2026-04-28T14:22:21.28Z</time></trkpt><trkpt lat="43.7673615" lon="17.2361581"><ele>929.0</ele><time>2026-04-28T14:22:22.28Z</time></trkpt><trkpt lat="43.7671972" lon="17.2363716"><ele>929.0</ele><time>2026-04-28T14:22:23.281Z</time></trkpt><trkpt lat="43.7670312" lon="17.2365908"><ele>929.0</ele><time>2026-04-28T14:22:24.278Z</time></trkpt><trkpt lat="43.7668622" lon="17.2368135"><ele>929.5</ele><time>2026-04-28T14:22:25.278Z</time></trkpt><trkpt lat="43.7666932" lon="17.2370341"><ele>930.0</ele><time>2026-04-28T14:22:26.276Z</time></trkpt><trkpt lat="43.7665294" lon="17.2372369"><ele>926.6666666666667</ele><time>2026-04-28T14:22:27.278Z</time></trkpt><trkpt lat="43.766374" lon="17.2374252"><ele>923.3333333333334</ele><time>2026-04-28T14:22:28.277Z</time></trkpt><trkpt lat="43.7662224" lon="17.2375882"><ele>920.0</ele><time>2026-04-28T14:22:29.276Z</time></trkpt><trkpt lat="43.7660658" lon="17.2377205"><ele>921.0</ele><time>2026-04-28T14:22:30.277Z</time></trkpt><trkpt lat="43.7658935" lon="17.2378369"><ele>922.0</ele><time>2026-04-28T14:22:31.276Z</time></trkpt><trkpt lat="43.7657084" lon="17.2379309"><ele>923.0</ele><time>2026-04-28T14:22:32.278Z</time></trkpt><trkpt lat="43.7655199" lon="17.2380014"><ele>923.0</ele><time>2026-04-28T14:22:33.276Z</time></trkpt><trkpt lat="43.765329" lon="17.2380393"><ele>923.0</ele><time>2026-04-28T14:22:34.278Z</time></trkpt><trkpt lat="43.7651276" lon="17.238046"><ele>923.0</ele><time>2026-04-28T14:22:35.28Z</time></trkpt><trkpt lat="43.7649285" lon="17.2380193"><ele>922.0</ele><time>2026-04-28T14:22:36.278Z</time></trkpt><trkpt lat="43.7647357" lon="17.237951"><ele>921.0</ele><time>2026-04-28T14:22:37.281Z</time></trkpt><trkpt lat="43.764546" lon="17.2378452"><ele>920.0</ele><time>2026-04-28T14:22:38.277Z</time></trkpt><trkpt lat="43.764362" lon="17.2377249"><ele>916.6666666666667</ele><time>2026-04-28T14:22:39.278Z</time></trkpt><trkpt lat="43.7641945" lon="17.2375584"><ele>913.3333333333333</ele><time>2026-04-28T14:22:40.278Z</time></trkpt><trkpt lat="43.7640474" lon="17.2373601"><ele>910.0</ele><time>2026-04-28T14:22:41.28Z</time></trkpt><trkpt lat="43.7638919" lon="17.2371621"><ele>910.0</ele><time>2026-04-28T14:22:42.278Z</time></trkpt><trkpt lat="43.7637293" lon="17.2369644"><ele>910.0</ele><time>2026-04-28T14:22:43.284Z</time></trkpt><trkpt lat="43.7635664" lon="17.2367721"><ele>910.0</ele><time>2026-04-28T14:22:44.279Z</time></trkpt><trkpt lat="43.7634032" lon="17.2365941"><ele>906.0</ele><time>2026-04-28T14:22:45.28Z</time></trkpt><trkpt lat="43.7632346" lon="17.2364324"><ele>902.0</ele><time>2026-04-28T14:22:46.279Z</time></trkpt><trkpt lat="43.7630562" lon="17.2362843"><ele>898.0</ele><time>2026-04-28T14:22:47.279Z</time></trkpt><trkpt lat="43.7628774" lon="17.2361498"><ele>896.3333333333333</ele><time>2026-04-28T14:22:48.278Z</time></trkpt><trkpt lat="43.7626852" lon="17.236035"><ele>894.6666666666667</ele><time>2026-04-28T14:22:49.281Z</time></trkpt><trkpt lat="43.7624891" lon="17.2359241"><ele>893.0</ele><time>2026-04-28T14:22:50.279Z</time></trkpt><trkpt lat="43.7623084" lon="17.2358277"><ele>893.0</ele><time>2026-04-28T14:22:51.279Z</time></trkpt><trkpt lat="43.7621645" lon="17.2357445"><ele>893.0</ele><time>2026-04-28T14:22:52.278Z</time></trkpt><trkpt lat="43.7620421" lon="17.2356714"><ele>893.0</ele><time>2026-04-28T14:22:53.281Z</time></trkpt><trkpt lat="43.7619226" lon="17.2355986"><ele>893.0</ele><time>2026-04-28T14:22:54.278Z</time></trkpt><trkpt lat="43.7618085" lon="17.2355377"><ele>891.75</ele><time>2026-04-28T14:22:55.279Z</time></trkpt><trkpt lat="43.7617002" lon="17.2354749"><ele>890.5</ele><time>2026-04-28T14:22:56.28Z</time></trkpt><trkpt lat="43.7615857" lon="17.2354148"><ele>889.25</ele><time>2026-04-28T14:22:57.278Z</time></trkpt><trkpt lat="43.7614672" lon="17.2353604"><ele>888.0</ele><time>2026-04-28T14:22:58.277Z</time></trkpt><trkpt lat="43.7613354" lon="17.2353051"><ele>888.0</ele><time>2026-04-28T14:22:59.28Z</time></trkpt><trkpt lat="43.7611973" lon="17.2352461"><ele>888.0</ele><time>2026-04-28T14:23:00.277Z</time></trkpt><trkpt lat="43.7610514" lon="17.235189"><ele>888.0</ele><time>2026-04-28T14:23:01.278Z</time></trkpt><trkpt lat="43.7609012" lon="17.2351301"><ele>887.3333333333333</ele><time>2026-04-28T14:23:02.277Z</time></trkpt><trkpt lat="43.7607381" lon="17.2350634"><ele>886.6666666666666</ele><time>2026-04-28T14:23:03.278Z</time></trkpt><trkpt lat="43.7605666" lon="17.2349952"><ele>886.0</ele><time>2026-04-28T14:23:04.278Z</time></trkpt><trkpt lat="43.7603865" lon="17.2349224"><ele>885.3333333333333</ele><time>2026-04-28T14:23:05.279Z</time></trkpt><trkpt lat="43.7601911" lon="17.2348442"><ele>884.6666666666667</ele><time>2026-04-28T14:23:06.278Z</time></trkpt><trkpt lat="43.7599865" lon="17.2347661"><ele>884.0</ele><time>2026-04-28T14:23:07.277Z</time></trkpt><trkpt lat="43.7597728" lon="17.2346849"><ele>883.5</ele><time>2026-04-28T14:23:08.277Z</time></trkpt><trkpt lat="43.7595548" lon="17.2345971"><ele>883.0</ele><time>2026-04-28T14:23:09.278Z</time></trkpt><trkpt lat="43.7593327" lon="17.2345031"><ele>882.5</ele><time>2026-04-28T14:23:10.281Z</time></trkpt><trkpt lat="43.7591096" lon="17.2344076"><ele>882.0</ele><time>2026-04-28T14:23:11.278Z</time></trkpt><trkpt lat="43.7588806" lon="17.2343079"><ele>882.0</ele><time>2026-04-28T14:23:12.281Z</time></trkpt><trkpt lat="43.7586472" lon="17.2342025"><ele>882.0</ele><time>2026-04-28T14:23:13.28Z</time></trkpt><trkpt lat="43.7584123" lon="17.2340948"><ele>881.0</ele><time>2026-04-28T14:23:14.278Z</time></trkpt><trkpt lat="43.7581715" lon="17.2339852"><ele>880.0</ele><time>2026-04-28T14:23:15.279Z</time></trkpt><trkpt lat="43.7579295" lon="17.2338794"><ele>880.0</ele><time>2026-04-28T14:23:16.278Z</time></trkpt><trkpt lat="43.7576863" lon="17.2337717"><ele>880.0</ele><time>2026-04-28T14:23:17.282Z</time></trkpt><trkpt lat="43.7574367" lon="17.233668"><ele>880.0</ele><time>2026-04-28T14:23:18.281Z</time></trkpt><trkpt lat="43.7571884" lon="17.2335634"><ele>880.0</ele><time>2026-04-28T14:23:19.28Z</time></trkpt><trkpt lat="43.7569464" lon="17.2334623"><ele>879.0</ele><time>2026-04-28T14:23:20.28Z</time></trkpt><trkpt lat="43.7567037" lon="17.23337"><ele>878.0</ele><time>2026-04-28T14:23:21.281Z</time></trkpt><trkpt lat="43.7564656" lon="17.2332829"><ele>878.0</ele><time>2026-04-28T14:23:22.282Z</time></trkpt><trkpt lat="43.7562284" lon="17.2331978"><ele>878.0</ele><time>2026-04-28T14:23:23.278Z</time></trkpt><trkpt lat="43.7559966" lon="17.2331177"><ele>879.0</ele><time>2026-04-28T14:23:24.28Z</time></trkpt><trkpt lat="43.7557674" lon="17.2330381"><ele>880.0</ele><time>2026-04-28T14:23:25.282Z</time></trkpt><trkpt lat="43.7555388" lon="17.2329577"><ele>880.0</ele><time>2026-04-28T14:23:26.28Z</time></trkpt><trkpt lat="43.7553127" lon="17.2328664"><ele>880.0</ele><time>2026-04-28T14:23:27.277Z</time></trkpt><trkpt lat="43.7550902" lon="17.2327689"><ele>882.5</ele><time>2026-04-28T14:23:28.278Z</time></trkpt><trkpt lat="43.7548728" lon="17.2326648"><ele>885.0</ele><time>2026-04-28T14:23:29.28Z</time></trkpt><trkpt lat="43.7546631" lon="17.2325433"><ele>885.0</ele><time>2026-04-28T14:23:30.279Z</time></trkpt><trkpt lat="43.7544637" lon="17.2324142"><ele>885.0</ele><time>2026-04-28T14:23:31.277Z</time></trkpt><trkpt lat="43.7542691" lon="17.2322762"><ele>885.0</ele><time>2026-04-28T14:23:32.277Z</time></trkpt><trkpt lat="43.7540753" lon="17.2321325"><ele>886.3333333333333</ele><time>2026-04-28T14:23:33.277Z</time></trkpt><trkpt lat="43.7538806" lon="17.2319901"><ele>887.6666666666666</ele><time>2026-04-28T14:23:34.278Z</time></trkpt><trkpt lat="43.7536845" lon="17.2318338"><ele>889.0</ele><time>2026-04-28T14:23:35.277Z</time></trkpt><trkpt lat="43.7534889" lon="17.2316723"><ele>889.5</ele><time>2026-04-28T14:23:36.278Z</time></trkpt><trkpt lat="43.7532918" lon="17.2315083"><ele>890.0</ele><time>2026-04-28T14:23:37.282Z</time></trkpt><trkpt lat="43.7530902" lon="17.2313472"><ele>892.0</ele><time>2026-04-28T14:23:38.279Z</time></trkpt><trkpt lat="43.7528869" lon="17.2311845"><ele>894.0</ele><time>2026-04-28T14:23:39.28Z</time></trkpt><trkpt lat="43.7526792" lon="17.2310266"><ele>895.0</ele><time>2026-04-28T14:23:40.278Z</time></trkpt><trkpt lat="43.7524734" lon="17.2308647"><ele>896.0</ele><time>2026-04-28T14:23:41.278Z</time></trkpt><trkpt lat="43.7522644" lon="17.2307104"><ele>897.0</ele><time>2026-04-28T14:23:42.28Z</time></trkpt><trkpt lat="43.7520528" lon="17.2305614"><ele>898.0</ele><time>2026-04-28T14:23:43.279Z</time></trkpt><trkpt lat="43.7518392" lon="17.2304142"><ele>898.0</ele><time>2026-04-28T14:23:44.277Z</time></trkpt><trkpt lat="43.7516198" lon="17.2302713"><ele>898.0</ele><time>2026-04-28T14:23:45.28Z</time></trkpt><trkpt lat="43.7513973" lon="17.2301358"><ele>898.0</ele><time>2026-04-28T14:23:46.285Z</time></trkpt><trkpt lat="43.7511737" lon="17.2300027"><ele>898.0</ele><time>2026-04-28T14:23:47.279Z</time></trkpt><trkpt lat="43.7509473" lon="17.2298687"><ele>901.0</ele><time>2026-04-28T14:23:48.28Z</time></trkpt><trkpt lat="43.7507159" lon="17.2297391"><ele>904.0</ele><time>2026-04-28T14:23:49.278Z</time></trkpt><trkpt lat="43.7504847" lon="17.2296171"><ele>904.0</ele><time>2026-04-28T14:23:50.276Z</time></trkpt><trkpt lat="43.7502569" lon="17.2295001"><ele>904.0</ele><time>2026-04-28T14:23:51.279Z</time></trkpt><trkpt lat="43.7500271" lon="17.2293774"><ele>901.0</ele><time>2026-04-28T14:23:52.282Z</time></trkpt><trkpt lat="43.7497956" lon="17.2292593"><ele>898.0</ele><time>2026-04-28T14:23:53.28Z</time></trkpt><trkpt lat="43.749564" lon="17.229145"><ele>898.5</ele><time>2026-04-28T14:23:54.28Z</time></trkpt><trkpt lat="43.7493363" lon="17.2290282"><ele>899.0</ele><time>2026-04-28T14:23:55.28Z</time></trkpt><trkpt lat="43.7491065" lon="17.2289146"><ele>899.0</ele><time>2026-04-28T14:23:56.281Z</time></trkpt><trkpt lat="43.7488759" lon="17.2288047"><ele>899.0</ele><time>2026-04-28T14:23:57.279Z</time></trkpt><trkpt lat="43.7486436" lon="17.2286945"><ele>898.0</ele><time>2026-04-28T14:23:58.279Z</time></trkpt><trkpt lat="43.748415" lon="17.2285838"><ele>897.0</ele><time>2026-04-28T14:23:59.279Z</time></trkpt><trkpt lat="43.7481877" lon="17.2284688"><ele>897.0</ele><time>2026-04-28T14:24:00.279Z</time></trkpt><trkpt lat="43.747962" lon="17.2283513"><ele>897.0</ele><time>2026-04-28T14:24:01.278Z</time></trkpt><trkpt lat="43.747736" lon="17.2282348"><ele>899.5</ele><time>2026-04-28T14:24:02.282Z</time></trkpt><trkpt lat="43.7475069" lon="17.2281183"><ele>902.0</ele><time>2026-04-28T14:24:03.278Z</time></trkpt><trkpt lat="43.7472828" lon="17.2280005"><ele>902.0</ele><time>2026-04-28T14:24:04.278Z</time></trkpt><trkpt lat="43.7470571" lon="17.227886"><ele>902.0</ele><time>2026-04-28T14:24:05.281Z</time></trkpt><trkpt lat="43.746829" lon="17.2277658"><ele>901.0</ele><time>2026-04-28T14:24:06.281Z</time></trkpt><trkpt lat="43.7466009" lon="17.2276449"><ele>900.0</ele><time>2026-04-28T14:24:07.28Z</time></trkpt><trkpt lat="43.7463723" lon="17.2275259"><ele>900.0</ele><time>2026-04-28T14:24:08.279Z</time></trkpt><trkpt lat="43.7461396" lon="17.2274066"><ele>900.0</ele><time>2026-04-28T14:24:09.28Z</time></trkpt><trkpt lat="43.7459081" lon="17.2272862"><ele>901.0</ele><time>2026-04-28T14:24:10.279Z</time></trkpt><trkpt lat="43.7456729" lon="17.2271651"><ele>902.0</ele><time>2026-04-28T14:24:11.279Z</time></trkpt><trkpt lat="43.7454413" lon="17.2270436"><ele>900.0</ele><time>2026-04-28T14:24:12.28Z</time></trkpt><trkpt lat="43.7452059" lon="17.2269167"><ele>898.0</ele><time>2026-04-28T14:24:13.28Z</time></trkpt><trkpt lat="43.7449676" lon="17.2267949"><ele>898.0</ele><time>2026-04-28T14:24:14.279Z</time></trkpt><trkpt lat="43.7447306" lon="17.2266754"><ele>898.0</ele><time>2026-04-28T14:24:15.278Z</time></trkpt><trkpt lat="43.744493" lon="17.2265592"><ele>899.0</ele><time>2026-04-28T14:24:16.278Z</time></trkpt><trkpt lat="43.7442546" lon="17.2264436"><ele>900.0</ele><time>2026-04-28T14:24:17.278Z</time></trkpt><trkpt lat="43.7440206" lon="17.2263162"><ele>900.0</ele><time>2026-04-28T14:24:18.276Z</time></trkpt><trkpt lat="43.7437833" lon="17.2261945"><ele>900.0</ele><time>2026-04-28T14:24:19.279Z</time></trkpt><trkpt lat="43.7435475" lon="17.2260711"><ele>898.5</ele><time>2026-04-28T14:24:20.278Z</time></trkpt><trkpt lat="43.7433117" lon="17.2259479"><ele>897.0</ele><time>2026-04-28T14:24:21.278Z</time></trkpt><trkpt lat="43.7430788" lon="17.225824"><ele>897.0</ele><time>2026-04-28T14:24:22.28Z</time></trkpt><trkpt lat="43.7428449" lon="17.2257043"><ele>897.0</ele><time>2026-04-28T14:24:23.278Z</time></trkpt><trkpt lat="43.7426118" lon="17.2255824"><ele>897.5</ele><time>2026-04-28T14:24:24.278Z</time></trkpt><trkpt lat="43.7423782" lon="17.2254615"><ele>898.0</ele><time>2026-04-28T14:24:25.278Z</time></trkpt><trkpt lat="43.742144" lon="17.2253506"><ele>898.0</ele><time>2026-04-28T14:24:26.277Z</time></trkpt><trkpt lat="43.741912" lon="17.2252408"><ele>898.0</ele><time>2026-04-28T14:24:27.278Z</time></trkpt><trkpt lat="43.7416782" lon="17.2251367"><ele>896.5</ele><time>2026-04-28T14:24:28.287Z</time></trkpt><trkpt lat="43.7414419" lon="17.2250404"><ele>895.0</ele><time>2026-04-28T14:24:29.28Z</time></trkpt><trkpt lat="43.7412113" lon="17.224943"><ele>895.0</ele><time>2026-04-28T14:24:30.277Z</time></trkpt><trkpt lat="43.7409831" lon="17.2248503"><ele>895.0</ele><time>2026-04-28T14:24:31.277Z</time></trkpt><trkpt lat="43.7407601" lon="17.2247579"><ele>898.0</ele><time>2026-04-28T14:24:32.278Z</time></trkpt><trkpt lat="43.7405311" lon="17.2246649"><ele>901.0</ele><time>2026-04-28T14:24:33.279Z</time></trkpt><trkpt lat="43.7403016" lon="17.2245766"><ele>901.5</ele><time>2026-04-28T14:24:34.279Z</time></trkpt><trkpt lat="43.7400759" lon="17.2244948"><ele>902.0</ele><time>2026-04-28T14:24:35.279Z</time></trkpt><trkpt lat="43.7398485" lon="17.2244092"><ele>902.0</ele><time>2026-04-28T14:24:36.279Z</time></trkpt><trkpt lat="43.739625" lon="17.2243299"><ele>902.0</ele><time>2026-04-28T14:24:37.277Z</time></trkpt><trkpt lat="43.7394019" lon="17.224246"><ele>903.5</ele><time>2026-04-28T14:24:38.279Z</time></trkpt><trkpt lat="43.7391795" lon="17.2241611"><ele>905.0</ele><time>2026-04-28T14:24:39.277Z</time></trkpt><trkpt lat="43.7389621" lon="17.2240725"><ele>907.0</ele><time>2026-04-28T14:24:40.278Z</time></trkpt><trkpt lat="43.7387456" lon="17.2239789"><ele>909.0</ele><time>2026-04-28T14:24:41.278Z</time></trkpt><trkpt lat="43.7385313" lon="17.2238779"><ele>910.5</ele><time>2026-04-28T14:24:42.28Z</time></trkpt><trkpt lat="43.7383167" lon="17.2237753"><ele>912.0</ele><time>2026-04-28T14:24:43.277Z</time></trkpt><trkpt lat="43.7381049" lon="17.2236731"><ele>912.0</ele><time>2026-04-28T14:24:44.28Z</time></trkpt><trkpt lat="43.7378935" lon="17.2235658"><ele>912.0</ele><time>2026-04-28T14:24:45.278Z</time></trkpt><trkpt lat="43.7376823" lon="17.2234531"><ele>913.5</ele><time>2026-04-28T14:24:46.277Z</time></trkpt><trkpt lat="43.7374699" lon="17.2233419"><ele>915.0</ele><time>2026-04-28T14:24:47.278Z</time></trkpt><trkpt lat="43.737258" lon="17.2232276"><ele>917.5</ele><time>2026-04-28T14:24:48.278Z</time></trkpt><trkpt lat="43.7370465" lon="17.2231181"><ele>920.0</ele><time>2026-04-28T14:24:49.278Z</time></trkpt><trkpt lat="43.7368275" lon="17.2230312"><ele>920.0</ele><time>2026-04-28T14:24:50.278Z</time></trkpt><trkpt lat="43.7366049" lon="17.2229818"><ele>920.0</ele><time>2026-04-28T14:24:51.278Z</time></trkpt><trkpt lat="43.7363793" lon="17.2229512"><ele>920.0</ele><time>2026-04-28T14:24:52.279Z</time></trkpt><trkpt lat="43.7361439" lon="17.2229411"><ele>920.0</ele><time>2026-04-28T14:24:53.279Z</time></trkpt><trkpt lat="43.7359102" lon="17.2229414"><ele>921.0</ele><time>2026-04-28T14:24:54.28Z</time></trkpt><trkpt lat="43.7356747" lon="17.2229437"><ele>922.0</ele><time>2026-04-28T14:24:55.277Z</time></trkpt><trkpt lat="43.7354396" lon="17.2229399"><ele>924.0</ele><time>2026-04-28T14:24:56.276Z</time></trkpt><trkpt lat="43.7352033" lon="17.2229242"><ele>926.0</ele><time>2026-04-28T14:24:57.283Z</time></trkpt><trkpt lat="43.734971" lon="17.2228944"><ele>926.0</ele><time>2026-04-28T14:24:58.278Z</time></trkpt><trkpt lat="43.7347386" lon="17.2228379"><ele>926.0</ele><time>2026-04-28T14:24:59.278Z</time></trkpt><trkpt lat="43.7345131" lon="17.2227646"><ele>928.0</ele><time>2026-04-28T14:25:00.276Z</time></trkpt><trkpt lat="43.7342911" lon="17.2226791"><ele>930.0</ele><time>2026-04-28T14:25:01.279Z</time></trkpt><trkpt lat="43.7340795" lon="17.2225896"><ele>930.0</ele><time>2026-04-28T14:25:02.279Z</time></trkpt><trkpt lat="43.7338809" lon="17.2225123"><ele>930.0</ele><time>2026-04-28T14:25:03.277Z</time></trkpt><trkpt lat="43.7336941" lon="17.2224399"><ele>930.0</ele><time>2026-04-28T14:25:04.282Z</time></trkpt><trkpt lat="43.7335234" lon="17.2223696"><ele>931.6666666666667</ele><time>2026-04-28T14:25:05.278Z</time></trkpt><trkpt lat="43.7333536" lon="17.2223007"><ele>933.3333333333334</ele><time>2026-04-28T14:25:06.283Z</time></trkpt><trkpt lat="43.7331871" lon="17.2222372"><ele>935.0</ele><time>2026-04-28T14:25:07.279Z</time></trkpt><trkpt lat="43.7330232" lon="17.222177"><ele>935.0</ele><time>2026-04-28T14:25:08.276Z</time></trkpt><trkpt lat="43.7328622" lon="17.222121"><ele>935.0</ele><time>2026-04-28T14:25:09.279Z</time></trkpt><trkpt lat="43.7327111" lon="17.2220768"><ele>935.0</ele><time>2026-04-28T14:25:10.277Z</time></trkpt><trkpt lat="43.7325616" lon="17.2220377"><ele>935.3333333333334</ele><time>2026-04-28T14:25:11.28Z</time></trkpt><trkpt lat="43.7324034" lon="17.2220133"><ele>935.6666666666667</ele><time>2026-04-28T14:25:12.278Z</time></trkpt><trkpt lat="43.732251" lon="17.221996"><ele>936.0</ele><time>2026-04-28T14:25:13.277Z</time></trkpt><trkpt lat="43.7321136" lon="17.2219855"><ele>936.0</ele><time>2026-04-28T14:25:14.278Z</time></trkpt><trkpt lat="43.7319783" lon="17.2219859"><ele>936.0</ele><time>2026-04-28T14:25:15.278Z</time></trkpt><trkpt lat="43.7318478" lon="17.2219906"><ele>936.0</ele><time>2026-04-28T14:25:16.278Z</time></trkpt><trkpt lat="43.7317222" lon="17.2220056"><ele>936.0</ele><time>2026-04-28T14:25:17.278Z</time></trkpt><trkpt lat="43.7316039" lon="17.2220288"><ele>936.25</ele><time>2026-04-28T14:25:18.281Z</time></trkpt><trkpt lat="43.7314824" lon="17.2220542"><ele>936.5</ele><time>2026-04-28T14:25:19.281Z</time></trkpt><trkpt lat="43.7313594" lon="17.2220847"><ele>936.75</ele><time>2026-04-28T14:25:20.279Z</time></trkpt><trkpt lat="43.731241" lon="17.2221188"><ele>937.0</ele><time>2026-04-28T14:25:21.277Z</time></trkpt><trkpt lat="43.7311129" lon="17.2221613"><ele>936.5</ele><time>2026-04-28T14:25:22.276Z</time></trkpt><trkpt lat="43.7309868" lon="17.2222057"><ele>936.0</ele><time>2026-04-28T14:25:23.278Z</time></trkpt><trkpt lat="43.7308664" lon="17.2222556"><ele>935.5</ele><time>2026-04-28T14:25:24.278Z</time></trkpt><trkpt lat="43.7307493" lon="17.2223067"><ele>935.0</ele><time>2026-04-28T14:25:25.277Z</time></trkpt><trkpt lat="43.7306409" lon="17.222356"><ele>934.4</ele><time>2026-04-28T14:25:26.277Z</time></trkpt><trkpt lat="43.7305453" lon="17.2224068"><ele>933.8</ele><time>2026-04-28T14:25:27.278Z</time></trkpt><trkpt lat="43.730447" lon="17.2224542"><ele>933.2</ele><time>2026-04-28T14:25:28.278Z</time></trkpt><trkpt lat="43.7303461" lon="17.2225"><ele>932.6</ele><time>2026-04-28T14:25:29.277Z</time></trkpt><trkpt lat="43.7302398" lon="17.2225447"><ele>932.0</ele><time>2026-04-28T14:25:30.278Z</time></trkpt><trkpt lat="43.7301274" lon="17.2225975"><ele>930.25</ele><time>2026-04-28T14:25:31.279Z</time></trkpt><trkpt lat="43.7300137" lon="17.2226493"><ele>928.5</ele><time>2026-04-28T14:25:32.278Z</time></trkpt><trkpt lat="43.7298811" lon="17.2227087"><ele>926.75</ele><time>2026-04-28T14:25:33.278Z</time></trkpt><trkpt lat="43.7297519" lon="17.2227705"><ele>925.0</ele><time>2026-04-28T14:25:34.278Z</time></trkpt><trkpt lat="43.7296168" lon="17.2228318"><ele>925.0</ele><time>2026-04-28T14:25:35.277Z</time></trkpt><trkpt lat="43.7294764" lon="17.2228954"><ele>925.0</ele><time>2026-04-28T14:25:36.277Z</time></trkpt><trkpt lat="43.7293378" lon="17.2229588"><ele>925.0</ele><time>2026-04-28T14:25:37.278Z</time></trkpt><trkpt lat="43.7291916" lon="17.2230249"><ele>925.0</ele><time>2026-04-28T14:25:38.279Z</time></trkpt><trkpt lat="43.72904" lon="17.2230963"><ele>925.3333333333333</ele><time>2026-04-28T14:25:39.279Z</time></trkpt><trkpt lat="43.7288864" lon="17.2231684"><ele>925.6666666666667</ele><time>2026-04-28T14:25:40.28Z</time></trkpt><trkpt lat="43.7287278" lon="17.2232444"><ele>926.0</ele><time>2026-04-28T14:25:41.277Z</time></trkpt><trkpt lat="43.7285659" lon="17.223322"><ele>923.0</ele><time>2026-04-28T14:25:42.277Z</time></trkpt><trkpt lat="43.7284005" lon="17.2233987"><ele>920.0</ele><time>2026-04-28T14:25:43.278Z</time></trkpt><trkpt lat="43.7282318" lon="17.2234812"><ele>917.0</ele><time>2026-04-28T14:25:44.279Z</time></trkpt><trkpt lat="43.7280622" lon="17.2235607"><ele>917.0</ele><time>2026-04-28T14:25:45.278Z</time></trkpt><trkpt lat="43.7278917" lon="17.2236378"><ele>917.0</ele><time>2026-04-28T14:25:46.275Z</time></trkpt><trkpt lat="43.7277181" lon="17.2237198"><ele>917.0</ele><time>2026-04-28T14:25:47.277Z</time></trkpt><trkpt lat="43.7275461" lon="17.2237967"><ele>915.6666666666667</ele><time>2026-04-28T14:25:48.277Z</time></trkpt><trkpt lat="43.7273726" lon="17.2238768"><ele>914.3333333333333</ele><time>2026-04-28T14:25:49.276Z</time></trkpt><trkpt lat="43.7271976" lon="17.2239619"><ele>913.0</ele><time>2026-04-28T14:25:50.276Z</time></trkpt><trkpt lat="43.7270222" lon="17.2240428"><ele>913.3333333333333</ele><time>2026-04-28T14:25:51.278Z</time></trkpt><trkpt lat="43.7268471" lon="17.2241275"><ele>913.6666666666667</ele><time>2026-04-28T14:25:52.276Z</time></trkpt><trkpt lat="43.7266567" lon="17.224214"><ele>914.0</ele><time>2026-04-28T14:25:53.276Z</time></trkpt><trkpt lat="43.7264561" lon="17.2243077"><ele>914.0</ele><time>2026-04-28T14:25:54.278Z</time></trkpt><trkpt lat="43.7262432" lon="17.2244122"><ele>914.0</ele><time>2026-04-28T14:25:55.279Z</time></trkpt><trkpt lat="43.7260396" lon="17.2245154"><ele>914.0</ele><time>2026-04-28T14:25:56.277Z</time></trkpt><trkpt lat="43.7258315" lon="17.2246277"><ele>914.3333333333334</ele><time>2026-04-28T14:25:57.276Z</time></trkpt><trkpt lat="43.7256252" lon="17.2247423"><ele>914.6666666666667</ele><time>2026-04-28T14:25:58.278Z</time></trkpt><trkpt lat="43.7254232" lon="17.2248654"><ele>915.0</ele><time>2026-04-28T14:25:59.278Z</time></trkpt><trkpt lat="43.7252246" lon="17.2249956"><ele>915.0</ele><time>2026-04-28T14:26:00.278Z</time></trkpt><trkpt lat="43.7250321" lon="17.2251338"><ele>915.0</ele><time>2026-04-28T14:26:01.276Z</time></trkpt><trkpt lat="43.7248412" lon="17.2252747"><ele>915.0</ele><time>2026-04-28T14:26:02.281Z</time></trkpt><trkpt lat="43.7246538" lon="17.2254377"><ele>915.0</ele><time>2026-04-28T14:26:03.278Z</time></trkpt><trkpt lat="43.72448" lon="17.2256003"><ele>915.0</ele><time>2026-04-28T14:26:04.279Z</time></trkpt><trkpt lat="43.7243031" lon="17.2257801"><ele>915.0</ele><time>2026-04-28T14:26:05.277Z</time></trkpt><trkpt lat="43.7241305" lon="17.225963"><ele>914.5</ele><time>2026-04-28T14:26:06.278Z</time></trkpt><trkpt lat="43.723977" lon="17.2261791"><ele>914.0</ele><time>2026-04-28T14:26:07.279Z</time></trkpt><trkpt lat="43.7238213" lon="17.2264166"><ele>914.6666666666667</ele><time>2026-04-28T14:26:08.282Z</time></trkpt><trkpt lat="43.7236716" lon="17.2266439"><ele>915.3333333333333</ele><time>2026-04-28T14:26:09.277Z</time></trkpt><trkpt lat="43.7235315" lon="17.2268899"><ele>916.0</ele><time>2026-04-28T14:26:10.282Z</time></trkpt><trkpt lat="43.7233989" lon="17.2271475"><ele>914.6666666666666</ele><time>2026-04-28T14:26:11.28Z</time></trkpt><trkpt lat="43.7232808" lon="17.2274117"><ele>913.3333333333333</ele><time>2026-04-28T14:26:12.276Z</time></trkpt><trkpt lat="43.7231701" lon="17.2276626"><ele>912.0</ele><time>2026-04-28T14:26:13.283Z</time></trkpt><trkpt lat="43.723061" lon="17.2279127"><ele>910.0</ele><time>2026-04-28T14:26:14.277Z</time></trkpt><trkpt lat="43.7229553" lon="17.2281568"><ele>908.0</ele><time>2026-04-28T14:26:15.276Z</time></trkpt><trkpt lat="43.722853" lon="17.2283927"><ele>906.0</ele><time>2026-04-28T14:26:16.278Z</time></trkpt><trkpt lat="43.7227489" lon="17.2286128"><ele>905.3333333333333</ele><time>2026-04-28T14:26:17.278Z</time></trkpt><trkpt lat="43.7226335" lon="17.2288287"><ele>904.6666666666666</ele><time>2026-04-28T14:26:18.277Z</time></trkpt><trkpt lat="43.7225141" lon="17.2290293"><ele>904.0</ele><time>2026-04-28T14:26:19.278Z</time></trkpt><trkpt lat="43.7223887" lon="17.22923"><ele>903.3333333333333</ele><time>2026-04-28T14:26:20.28Z</time></trkpt><trkpt lat="43.7222602" lon="17.2294249"><ele>902.6666666666667</ele><time>2026-04-28T14:26:21.277Z</time></trkpt><trkpt lat="43.7221201" lon="17.2296213"><ele>902.0</ele><time>2026-04-28T14:26:22.279Z</time></trkpt><trkpt lat="43.7219689" lon="17.2298047"><ele>899.6666666666667</ele><time>2026-04-28T14:26:23.275Z</time></trkpt><trkpt lat="43.7218101" lon="17.2299834"><ele>897.3333333333333</ele><time>2026-04-28T14:26:24.277Z</time></trkpt><trkpt lat="43.7216455" lon="17.2301549"><ele>895.0</ele><time>2026-04-28T14:26:25.277Z</time></trkpt><trkpt lat="43.7214745" lon="17.2303289"><ele>895.0</ele><time>2026-04-28T14:26:26.278Z</time></trkpt><trkpt lat="43.7213001" lon="17.2305023"><ele>895.0</ele><time>2026-04-28T14:26:27.276Z</time></trkpt><trkpt lat="43.7211229" lon="17.2306725"><ele>895.0</ele><time>2026-04-28T14:26:28.277Z</time></trkpt><trkpt lat="43.7209432" lon="17.2308503"><ele>892.3333333333333</ele><time>2026-04-28T14:26:29.278Z</time></trkpt><trkpt lat="43.7207676" lon="17.2310321"><ele>889.6666666666667</ele><time>2026-04-28T14:26:30.277Z</time></trkpt><trkpt lat="43.720606" lon="17.231219"><ele>887.0</ele><time>2026-04-28T14:26:31.279Z</time></trkpt><trkpt lat="43.72045" lon="17.2314022"><ele>885.6666666666667</ele><time>2026-04-28T14:26:32.276Z</time></trkpt><trkpt lat="43.7203049" lon="17.2315848"><ele>884.3333333333333</ele><time>2026-04-28T14:26:33.279Z</time></trkpt><trkpt lat="43.7201662" lon="17.2317631"><ele>883.0</ele><time>2026-04-28T14:26:34.277Z</time></trkpt><trkpt lat="43.7200335" lon="17.2319479"><ele>882.3333333333333</ele><time>2026-04-28T14:26:35.276Z</time></trkpt><trkpt lat="43.7199029" lon="17.2321331"><ele>881.6666666666667</ele><time>2026-04-28T14:26:36.277Z</time></trkpt><trkpt lat="43.7197787" lon="17.2323227"><ele>881.0</ele><time>2026-04-28T14:26:37.286Z</time></trkpt><trkpt lat="43.7196629" lon="17.2325247"><ele>881.0</ele><time>2026-04-28T14:26:38.276Z</time></trkpt><trkpt lat="43.7195497" lon="17.2327306"><ele>881.0</ele><time>2026-04-28T14:26:39.28Z</time></trkpt><trkpt lat="43.7194422" lon="17.2329431"><ele>881.0</ele><time>2026-04-28T14:26:40.279Z</time></trkpt><trkpt lat="43.7193361" lon="17.233156"><ele>881.3333333333334</ele><time>2026-04-28T14:26:41.279Z</time></trkpt><trkpt lat="43.719236" lon="17.2333675"><ele>881.6666666666667</ele><time>2026-04-28T14:26:42.278Z</time></trkpt><trkpt lat="43.7191324" lon="17.2335838"><ele>882.0</ele><time>2026-04-28T14:26:43.283Z</time></trkpt><trkpt lat="43.7190358" lon="17.2338083"><ele>881.6666666666667</ele><time>2026-04-28T14:26:44.275Z</time></trkpt><trkpt lat="43.7189426" lon="17.2340327"><ele>881.3333333333334</ele><time>2026-04-28T14:26:45.277Z</time></trkpt><trkpt lat="43.718853" lon="17.2342587"><ele>881.0</ele><time>2026-04-28T14:26:46.277Z</time></trkpt><trkpt lat="43.7187622" lon="17.2344878"><ele>881.0</ele><time>2026-04-28T14:26:47.28Z</time></trkpt><trkpt lat="43.7186716" lon="17.2347126"><ele>881.0</ele><time>2026-04-28T14:26:48.278Z</time></trkpt><trkpt lat="43.7185848" lon="17.2349401"><ele>881.0</ele><time>2026-04-28T14:26:49.277Z</time></trkpt><trkpt lat="43.7184985" lon="17.2351736"><ele>881.0</ele><time>2026-04-28T14:26:50.277Z</time></trkpt><trkpt lat="43.7184111" lon="17.2354011"><ele>881.0</ele><time>2026-04-28T14:26:51.276Z</time></trkpt><trkpt lat="43.7183189" lon="17.2356264"><ele>881.0</ele><time>2026-04-28T14:26:52.279Z</time></trkpt><trkpt lat="43.7182255" lon="17.2358427"><ele>881.0</ele><time>2026-04-28T14:26:53.276Z</time></trkpt><trkpt lat="43.7181244" lon="17.2360577"><ele>881.0</ele><time>2026-04-28T14:26:54.279Z</time></trkpt><trkpt lat="43.7180207" lon="17.2362654"><ele>881.0</ele><time>2026-04-28T14:26:55.278Z</time></trkpt><trkpt lat="43.7179158" lon="17.2364719"><ele>880.6666666666667</ele><time>2026-04-28T14:26:56.276Z</time></trkpt><trkpt lat="43.7178054" lon="17.2366752"><ele>880.3333333333333</ele><time>2026-04-28T14:26:57.276Z</time></trkpt><trkpt lat="43.7176898" lon="17.2368699"><ele>880.0</ele><time>2026-04-28T14:26:58.278Z</time></trkpt><trkpt lat="43.7175676" lon="17.2370558"><ele>880.0</ele><time>2026-04-28T14:26:59.277Z</time></trkpt><trkpt lat="43.7174424" lon="17.2372374"><ele>880.0</ele><time>2026-04-28T14:27:00.283Z</time></trkpt><trkpt lat="43.7173112" lon="17.237411"><ele>880.0</ele><time>2026-04-28T14:27:01.277Z</time></trkpt><trkpt lat="43.7171701" lon="17.2375895"><ele>880.0</ele><time>2026-04-28T14:27:02.279Z</time></trkpt><trkpt lat="43.7170275" lon="17.2377513"><ele>880.0</ele><time>2026-04-28T14:27:03.281Z</time></trkpt><trkpt lat="43.7168802" lon="17.2379108"><ele>880.0</ele><time>2026-04-28T14:27:04.277Z</time></trkpt><trkpt lat="43.716726" lon="17.2380637"><ele>879.3333333333333</ele><time>2026-04-28T14:27:05.287Z</time></trkpt><trkpt lat="43.7165688" lon="17.2382128"><ele>878.6666666666667</ele><time>2026-04-28T14:27:06.277Z</time></trkpt><trkpt lat="43.7164053" lon="17.2383593"><ele>878.0</ele><time>2026-04-28T14:27:07.277Z</time></trkpt><trkpt lat="43.7162408" lon="17.2384852"><ele>878.0</ele><time>2026-04-28T14:27:08.277Z</time></trkpt><trkpt lat="43.7160815" lon="17.2386012"><ele>878.0</ele><time>2026-04-28T14:27:09.278Z</time></trkpt><trkpt lat="43.7159248" lon="17.2387082"><ele>878.0</ele><time>2026-04-28T14:27:10.276Z</time></trkpt><trkpt lat="43.7157718" lon="17.2388037"><ele>878.0</ele><time>2026-04-28T14:27:11.276Z</time></trkpt><trkpt lat="43.7156205" lon="17.2388867"><ele>878.0</ele><time>2026-04-28T14:27:12.277Z</time></trkpt><trkpt lat="43.7154728" lon="17.2389641"><ele>878.0</ele><time>2026-04-28T14:27:13.277Z</time></trkpt><trkpt lat="43.7153266" lon="17.2390399"><ele>877.75</ele><time>2026-04-28T14:27:14.279Z</time></trkpt><trkpt lat="43.7151812" lon="17.2391016"><ele>877.5</ele><time>2026-04-28T14:27:15.278Z</time></trkpt><trkpt lat="43.7150407" lon="17.2391553"><ele>877.25</ele><time>2026-04-28T14:27:16.278Z</time></trkpt><trkpt lat="43.7149059" lon="17.2392038"><ele>877.0</ele><time>2026-04-28T14:27:17.277Z</time></trkpt><trkpt lat="43.7147746" lon="17.2392456"><ele>877.0</ele><time>2026-04-28T14:27:18.281Z</time></trkpt><trkpt lat="43.7146535" lon="17.2392775"><ele>877.0</ele><time>2026-04-28T14:27:19.281Z</time></trkpt><trkpt lat="43.7145466" lon="17.2393021"><ele>877.0</ele><time>2026-04-28T14:27:20.279Z</time></trkpt><trkpt lat="43.7144526" lon="17.2393223"><ele>877.0</ele><time>2026-04-28T14:27:21.276Z</time></trkpt><trkpt lat="43.7143713" lon="17.2393346"><ele>877.0</ele><time>2026-04-28T14:27:22.277Z</time></trkpt><trkpt lat="43.7142928" lon="17.2393322"><ele>876.9999999999999</ele><time>2026-04-28T14:27:23.276Z</time></trkpt><trkpt lat="43.7142275" lon="17.239313"><ele>877.0</ele><time>2026-04-28T14:27:24.277Z</time></trkpt><trkpt lat="43.714121" lon="17.2392228"><ele>877.0</ele><time>2026-04-28T14:27:26.279Z</time></trkpt><trkpt lat="43.7140735" lon="17.2391481"><ele>877.0</ele><time>2026-04-28T14:27:27.276Z</time></trkpt><trkpt lat="43.714023" lon="17.2390695"><ele>876.9999999999999</ele><time>2026-04-28T14:27:28.279Z</time></trkpt><trkpt lat="43.7139653" lon="17.2390047"><ele>877.0</ele><time>2026-04-28T14:27:29.282Z</time></trkpt><trkpt lat="43.7138939" lon="17.2389629"><ele>876.9999999999999</ele><time>2026-04-28T14:27:30.277Z</time></trkpt><trkpt lat="43.7138194" lon="17.2389484"><ele>877.0</ele><time>2026-04-28T14:27:31.279Z</time></trkpt><trkpt lat="43.7137515" lon="17.2389624"><ele>877.0</ele><time>2026-04-28T14:27:32.275Z</time></trkpt><trkpt lat="43.713688" lon="17.2390003"><ele>877.0</ele><time>2026-04-28T14:27:33.277Z</time></trkpt><trkpt lat="43.7136277" lon="17.2390733"><ele>876.9999999999999</ele><time>2026-04-28T14:27:34.276Z</time></trkpt><trkpt lat="43.7135721" lon="17.239163"><ele>877.0</ele><time>2026-04-28T14:27:35.28Z</time></trkpt><trkpt lat="43.7135046" lon="17.2392445"><ele>877.0</ele><time>2026-04-28T14:27:36.276Z</time></trkpt><trkpt lat="43.7134202" lon="17.2393099"><ele>877.0</ele><time>2026-04-28T14:27:37.275Z</time></trkpt><trkpt lat="43.7133215" lon="17.2393518"><ele>877.0</ele><time>2026-04-28T14:27:38.28Z</time></trkpt><trkpt lat="43.7132191" lon="17.2393587"><ele>877.0</ele><time>2026-04-28T14:27:39.277Z</time></trkpt><trkpt lat="43.7131125" lon="17.2393538"><ele>877.0</ele><time>2026-04-28T14:27:40.277Z</time></trkpt><trkpt lat="43.7130126" lon="17.2393467"><ele>877.0</ele><time>2026-04-28T14:27:41.278Z</time></trkpt><trkpt lat="43.7129137" lon="17.2393317"><ele>877.0</ele><time>2026-04-28T14:27:42.284Z</time></trkpt><trkpt lat="43.7128115" lon="17.2393147"><ele>877.0</ele><time>2026-04-28T14:27:43.278Z</time></trkpt><trkpt lat="43.7127117" lon="17.2392879"><ele>877.0</ele><time>2026-04-28T14:27:44.28Z</time></trkpt><trkpt lat="43.7126179" lon="17.2392623"><ele>877.0</ele><time>2026-04-28T14:27:45.276Z</time></trkpt><trkpt lat="43.7125257" lon="17.2392355"><ele>877.1666666666666</ele><time>2026-04-28T14:27:46.276Z</time></trkpt><trkpt lat="43.7124341" lon="17.2392154"><ele>877.3333333333333</ele><time>2026-04-28T14:27:47.276Z</time></trkpt><trkpt lat="43.7123522" lon="17.2391904"><ele>877.5</ele><time>2026-04-28T14:27:48.276Z</time></trkpt><trkpt lat="43.7122754" lon="17.2391643"><ele>877.6666666666667</ele><time>2026-04-28T14:27:49.277Z</time></trkpt><trkpt lat="43.7121959" lon="17.2391234"><ele>877.8333333333334</ele><time>2026-04-28T14:27:50.276Z</time></trkpt><trkpt lat="43.7120987" lon="17.2390776"><ele>878.0</ele><time>2026-04-28T14:27:51.282Z</time></trkpt><trkpt lat="43.7119927" lon="17.2390366"><ele>877.25</ele><time>2026-04-28T14:27:52.287Z</time></trkpt><trkpt lat="43.7118781" lon="17.2389895"><ele>876.5</ele><time>2026-04-28T14:27:53.278Z</time></trkpt><trkpt lat="43.7117489" lon="17.2389277"><ele>875.75</ele><time>2026-04-28T14:27:54.276Z</time></trkpt><trkpt lat="43.7116262" lon="17.2388605"><ele>875.0</ele><time>2026-04-28T14:27:55.278Z</time></trkpt><trkpt lat="43.7114949" lon="17.2387964"><ele>875.0</ele><time>2026-04-28T14:27:56.28Z</time></trkpt><trkpt lat="43.7113643" lon="17.2387201"><ele>875.0</ele><time>2026-04-28T14:27:57.279Z</time></trkpt><trkpt lat="43.7112315" lon="17.2386446"><ele>875.0</ele><time>2026-04-28T14:27:58.284Z</time></trkpt><trkpt lat="43.7111" lon="17.2385559"><ele>875.0</ele><time>2026-04-28T14:27:59.278Z</time></trkpt><trkpt lat="43.7109692" lon="17.238457"><ele>874.3333333333334</ele><time>2026-04-28T14:28:00.276Z</time></trkpt><trkpt lat="43.7108368" lon="17.2383551"><ele>873.6666666666667</ele><time>2026-04-28T14:28:01.277Z</time></trkpt><trkpt lat="43.7107079" lon="17.2382471"><ele>873.0</ele><time>2026-04-28T14:28:02.276Z</time></trkpt><trkpt lat="43.7105763" lon="17.2381411"><ele>873.3333333333333</ele><time>2026-04-28T14:28:03.276Z</time></trkpt><trkpt lat="43.7104467" lon="17.2380309"><ele>873.6666666666666</ele><time>2026-04-28T14:28:04.276Z</time></trkpt><trkpt lat="43.7103126" lon="17.2379157"><ele>874.0</ele><time>2026-04-28T14:28:05.277Z</time></trkpt><trkpt lat="43.7101782" lon="17.2378011"><ele>874.0</ele><time>2026-04-28T14:28:06.28Z</time></trkpt><trkpt lat="43.7100433" lon="17.2376772"><ele>874.0</ele><time>2026-04-28T14:28:07.279Z</time></trkpt><trkpt lat="43.7099036" lon="17.2375443"><ele>874.0</ele><time>2026-04-28T14:28:08.283Z</time></trkpt><trkpt lat="43.7097768" lon="17.2373993"><ele>874.6666666666666</ele><time>2026-04-28T14:28:09.28Z</time></trkpt><trkpt lat="43.7096498" lon="17.2372449"><ele>875.3333333333333</ele><time>2026-04-28T14:28:10.28Z</time></trkpt><trkpt lat="43.7095227" lon="17.2370841"><ele>876.0</ele><time>2026-04-28T14:28:11.279Z</time></trkpt><trkpt lat="43.7093985" lon="17.236919"><ele>876.0</ele><time>2026-04-28T14:28:12.278Z</time></trkpt><trkpt lat="43.7092723" lon="17.2367502"><ele>876.0</ele><time>2026-04-28T14:28:13.279Z</time></trkpt><trkpt lat="43.7091477" lon="17.2365715"><ele>876.0</ele><time>2026-04-28T14:28:14.275Z</time></trkpt><trkpt lat="43.7090251" lon="17.236387"><ele>876.0</ele><time>2026-04-28T14:28:15.285Z</time></trkpt><trkpt lat="43.708902" lon="17.2361971"><ele>876.0</ele><time>2026-04-28T14:28:16.286Z</time></trkpt><trkpt lat="43.7087825" lon="17.2360033"><ele>876.0</ele><time>2026-04-28T14:28:17.278Z</time></trkpt><trkpt lat="43.7086637" lon="17.235798"><ele>876.6666666666667</ele><time>2026-04-28T14:28:18.276Z</time></trkpt><trkpt lat="43.7085476" lon="17.2355844"><ele>877.3333333333334</ele><time>2026-04-28T14:28:19.279Z</time></trkpt><trkpt lat="43.7084362" lon="17.2353656"><ele>878.0</ele><time>2026-04-28T14:28:20.28Z</time></trkpt><trkpt lat="43.7083281" lon="17.2351425"><ele>878.0</ele><time>2026-04-28T14:28:21.277Z</time></trkpt><trkpt lat="43.7082238" lon="17.2349159"><ele>878.0</ele><time>2026-04-28T14:28:22.279Z</time></trkpt><trkpt lat="43.708129" lon="17.23469"><ele>878.0</ele><time>2026-04-28T14:28:23.279Z</time></trkpt><trkpt lat="43.7080414" lon="17.2344578"><ele>878.3333333333334</ele><time>2026-04-28T14:28:24.279Z</time></trkpt><trkpt lat="43.7079579" lon="17.2342282"><ele>878.6666666666667</ele><time>2026-04-28T14:28:25.278Z</time></trkpt><trkpt lat="43.7078789" lon="17.2339927"><ele>879.0</ele><time>2026-04-28T14:28:26.278Z</time></trkpt><trkpt lat="43.7078062" lon="17.2337567"><ele>879.0</ele><time>2026-04-28T14:28:27.276Z</time></trkpt><trkpt lat="43.7077388" lon="17.2335198"><ele>879.0</ele><time>2026-04-28T14:28:28.279Z</time></trkpt><trkpt lat="43.7076732" lon="17.2332864"><ele>879.0</ele><time>2026-04-28T14:28:29.286Z</time></trkpt><trkpt lat="43.7076167" lon="17.2330512"><ele>878.6666666666667</ele><time>2026-04-28T14:28:30.279Z</time></trkpt><trkpt lat="43.7075644" lon="17.232808"><ele>878.3333333333334</ele><time>2026-04-28T14:28:31.277Z</time></trkpt><trkpt lat="43.7075142" lon="17.2325652"><ele>878.0</ele><time>2026-04-28T14:28:32.277Z</time></trkpt><trkpt lat="43.7074612" lon="17.2323256"><ele>878.0</ele><time>2026-04-28T14:28:33.279Z</time></trkpt><trkpt lat="43.7074139" lon="17.2320831"><ele>878.0</ele><time>2026-04-28T14:28:34.282Z</time></trkpt><trkpt lat="43.7073687" lon="17.2318393"><ele>878.0</ele><time>2026-04-28T14:28:35.275Z</time></trkpt><trkpt lat="43.7073186" lon="17.2315986"><ele>878.3333333333334</ele><time>2026-04-28T14:28:36.279Z</time></trkpt><trkpt lat="43.7072633" lon="17.2313533"><ele>878.6666666666667</ele><time>2026-04-28T14:28:37.279Z</time></trkpt><trkpt lat="43.7072147" lon="17.2311091"><ele>879.0</ele><time>2026-04-28T14:28:38.277Z</time></trkpt><trkpt lat="43.7071607" lon="17.2308614"><ele>879.0</ele><time>2026-04-28T14:28:39.279Z</time></trkpt><trkpt lat="43.7071006" lon="17.230614"><ele>879.0</ele><time>2026-04-28T14:28:40.285Z</time></trkpt><trkpt lat="43.7070431" lon="17.2303703"><ele>879.0</ele><time>2026-04-28T14:28:41.277Z</time></trkpt><trkpt lat="43.7069807" lon="17.2301246"><ele>879.0</ele><time>2026-04-28T14:28:42.277Z</time></trkpt><trkpt lat="43.7069147" lon="17.2298822"><ele>879.0</ele><time>2026-04-28T14:28:43.277Z</time></trkpt><trkpt lat="43.7068415" lon="17.2296391"><ele>879.0</ele><time>2026-04-28T14:28:44.278Z</time></trkpt><trkpt lat="43.7067663" lon="17.2293942"><ele>878.6666666666667</ele><time>2026-04-28T14:28:45.277Z</time></trkpt><trkpt lat="43.706692" lon="17.229152"><ele>878.3333333333334</ele><time>2026-04-28T14:28:46.283Z</time></trkpt><trkpt lat="43.7066155" lon="17.2289097"><ele>878.0</ele><time>2026-04-28T14:28:47.278Z</time></trkpt><trkpt lat="43.7065329" lon="17.2286683"><ele>878.0</ele><time>2026-04-28T14:28:48.278Z</time></trkpt><trkpt lat="43.7064502" lon="17.2284331"><ele>878.0</ele><time>2026-04-28T14:28:49.276Z</time></trkpt><trkpt lat="43.7063663" lon="17.2281931"><ele>878.0</ele><time>2026-04-28T14:28:50.279Z</time></trkpt><trkpt lat="43.7062822" lon="17.2279575"><ele>878.0</ele><time>2026-04-28T14:28:51.275Z</time></trkpt><trkpt lat="43.7061938" lon="17.2277239"><ele>878.0</ele><time>2026-04-28T14:28:52.279Z</time></trkpt><trkpt lat="43.7061133" lon="17.2275119"><ele>878.0</ele><time>2026-04-28T14:28:53.276Z</time></trkpt><trkpt lat="43.7060366" lon="17.2273136"><ele>877.0</ele><time>2026-04-28T14:28:54.276Z</time></trkpt><trkpt lat="43.7059592" lon="17.2271257"><ele>876.0</ele><time>2026-04-28T14:28:55.275Z</time></trkpt><trkpt lat="43.7058831" lon="17.2269412"><ele>875.0</ele><time>2026-04-28T14:28:56.285Z</time></trkpt><trkpt lat="43.7058015" lon="17.2267583"><ele>875.0</ele><time>2026-04-28T14:28:57.274Z</time></trkpt><trkpt lat="43.7057148" lon="17.2265768"><ele>875.0</ele><time>2026-04-28T14:28:58.275Z</time></trkpt><trkpt lat="43.705627" lon="17.2263947"><ele>875.0</ele><time>2026-04-28T14:28:59.274Z</time></trkpt><trkpt lat="43.7055446" lon="17.2262128"><ele>875.3333333333334</ele><time>2026-04-28T14:29:00.274Z</time></trkpt><trkpt lat="43.705455" lon="17.2260353"><ele>875.6666666666667</ele><time>2026-04-28T14:29:01.273Z</time></trkpt><trkpt lat="43.7053682" lon="17.2258563"><ele>876.0</ele><time>2026-04-28T14:29:02.274Z</time></trkpt><trkpt lat="43.7052842" lon="17.2256742"><ele>876.3333333333333</ele><time>2026-04-28T14:29:03.276Z</time></trkpt><trkpt lat="43.7051938" lon="17.2254958"><ele>876.6666666666666</ele><time>2026-04-28T14:29:04.277Z</time></trkpt><trkpt lat="43.7051032" lon="17.2253239"><ele>877.0</ele><time>2026-04-28T14:29:05.276Z</time></trkpt><trkpt lat="43.7050109" lon="17.2251521"><ele>877.0</ele><time>2026-04-28T14:29:06.276Z</time></trkpt><trkpt lat="43.7049182" lon="17.2249795"><ele>877.0</ele><time>2026-04-28T14:29:07.276Z</time></trkpt><trkpt lat="43.7048216" lon="17.2248096"><ele>877.0</ele><time>2026-04-28T14:29:08.276Z</time></trkpt><trkpt lat="43.7047281" lon="17.2246393"><ele>877.0</ele><time>2026-04-28T14:29:09.277Z</time></trkpt><trkpt lat="43.7046287" lon="17.2244715"><ele>877.0</ele><time>2026-04-28T14:29:10.275Z</time></trkpt><trkpt lat="43.7045256" lon="17.2243017"><ele>877.0</ele><time>2026-04-28T14:29:11.278Z</time></trkpt><trkpt lat="43.7044207" lon="17.2241165"><ele>877.0</ele><time>2026-04-28T14:29:12.279Z</time></trkpt><trkpt lat="43.7043105" lon="17.2239283"><ele>877.0</ele><time>2026-04-28T14:29:13.277Z</time></trkpt><trkpt lat="43.7042019" lon="17.2237417"><ele>877.0</ele><time>2026-04-28T14:29:14.277Z</time></trkpt><trkpt lat="43.7040942" lon="17.223547"><ele>877.0</ele><time>2026-04-28T14:29:15.277Z</time></trkpt><trkpt lat="43.7039919" lon="17.2233504"><ele>877.0</ele><time>2026-04-28T14:29:16.278Z</time></trkpt><trkpt lat="43.7038902" lon="17.2231462"><ele>877.0</ele><time>2026-04-28T14:29:17.277Z</time></trkpt><trkpt lat="43.7038002" lon="17.2229357"><ele>877.0</ele><time>2026-04-28T14:29:18.279Z</time></trkpt><trkpt lat="43.7037148" lon="17.2227381"><ele>877.0</ele><time>2026-04-28T14:29:19.276Z</time></trkpt><trkpt lat="43.7036341" lon="17.2225423"><ele>877.0</ele><time>2026-04-28T14:29:20.279Z</time></trkpt><trkpt lat="43.7035568" lon="17.2223523"><ele>876.6666666666666</ele><time>2026-04-28T14:29:21.277Z</time></trkpt><trkpt lat="43.7034821" lon="17.2221591"><ele>876.3333333333333</ele><time>2026-04-28T14:29:22.275Z</time></trkpt><trkpt lat="43.7034084" lon="17.2219652"><ele>876.0</ele><time>2026-04-28T14:29:23.278Z</time></trkpt><trkpt lat="43.7033337" lon="17.2217719"><ele>876.0</ele><time>2026-04-28T14:29:24.278Z</time></trkpt><trkpt lat="43.7032631" lon="17.2215962"><ele>876.0</ele><time>2026-04-28T14:29:25.279Z</time></trkpt><trkpt lat="43.7031952" lon="17.221428"><ele>876.0</ele><time>2026-04-28T14:29:26.279Z</time></trkpt><trkpt lat="43.7031219" lon="17.221253"><ele>876.0</ele><time>2026-04-28T14:29:27.278Z</time></trkpt><trkpt lat="43.7030449" lon="17.2210778"><ele>876.25</ele><time>2026-04-28T14:29:28.28Z</time></trkpt><trkpt lat="43.7029728" lon="17.2209117"><ele>876.5</ele><time>2026-04-28T14:29:29.276Z</time></trkpt><trkpt lat="43.7028998" lon="17.2207546"><ele>876.75</ele><time>2026-04-28T14:29:30.278Z</time></trkpt><trkpt lat="43.7028267" lon="17.2206045"><ele>877.0</ele><time>2026-04-28T14:29:31.277Z</time></trkpt><trkpt lat="43.7027598" lon="17.2204688"><ele>876.8</ele><time>2026-04-28T14:29:32.278Z</time></trkpt><trkpt lat="43.7026956" lon="17.2203485"><ele>876.6</ele><time>2026-04-28T14:29:33.277Z</time></trkpt><trkpt lat="43.7026348" lon="17.2202369"><ele>876.3999999999999</ele><time>2026-04-28T14:29:34.276Z</time></trkpt><trkpt lat="43.7025672" lon="17.2201164"><ele>876.1999999999999</ele><time>2026-04-28T14:29:35.278Z</time></trkpt><trkpt lat="43.7024849" lon="17.2199791"><ele>876.0</ele><time>2026-04-28T14:29:36.277Z</time></trkpt><trkpt lat="43.7023897" lon="17.2198349"><ele>876.6666666666667</ele><time>2026-04-28T14:29:37.278Z</time></trkpt><trkpt lat="43.7022866" lon="17.2196761"><ele>877.3333333333334</ele><time>2026-04-28T14:29:38.278Z</time></trkpt><trkpt lat="43.7021716" lon="17.219494"><ele>878.0</ele><time>2026-04-28T14:29:39.278Z</time></trkpt><trkpt lat="43.7020403" lon="17.2192993"><ele>877.0</ele><time>2026-04-28T14:29:40.278Z</time></trkpt><trkpt lat="43.7019071" lon="17.2191094"><ele>876.0</ele><time>2026-04-28T14:29:41.277Z</time></trkpt><trkpt lat="43.7017717" lon="17.2189145"><ele>875.0</ele><time>2026-04-28T14:29:42.277Z</time></trkpt><trkpt lat="43.7016413" lon="17.2187232"><ele>874.6666666666667</ele><time>2026-04-28T14:29:43.278Z</time></trkpt><trkpt lat="43.7015134" lon="17.2185285"><ele>874.3333333333333</ele><time>2026-04-28T14:29:44.278Z</time></trkpt><trkpt lat="43.7013994" lon="17.2183406"><ele>874.0</ele><time>2026-04-28T14:29:45.294Z</time></trkpt><trkpt lat="43.7012935" lon="17.2181556"><ele>873.6666666666666</ele><time>2026-04-28T14:29:46.279Z</time></trkpt><trkpt lat="43.7011983" lon="17.2179711"><ele>873.3333333333333</ele><time>2026-04-28T14:29:47.274Z</time></trkpt><trkpt lat="43.7011145" lon="17.2177912"><ele>873.0</ele><time>2026-04-28T14:29:48.278Z</time></trkpt><trkpt lat="43.7010419" lon="17.2176208"><ele>873.0</ele><time>2026-04-28T14:29:49.277Z</time></trkpt><trkpt lat="43.700978" lon="17.2174554"><ele>873.0</ele><time>2026-04-28T14:29:50.277Z</time></trkpt><trkpt lat="43.7009216" lon="17.2172914"><ele>873.0</ele><time>2026-04-28T14:29:51.277Z</time></trkpt><trkpt lat="43.700871" lon="17.2171368"><ele>873.0</ele><time>2026-04-28T14:29:52.277Z</time></trkpt><trkpt lat="43.7008299" lon="17.2169904"><ele>873.2</ele><time>2026-04-28T14:29:53.277Z</time></trkpt><trkpt lat="43.7007897" lon="17.2168481"><ele>873.4</ele><time>2026-04-28T14:29:54.278Z</time></trkpt><trkpt lat="43.7007591" lon="17.2167261"><ele>873.6000000000001</ele><time>2026-04-28T14:29:55.278Z</time></trkpt><trkpt lat="43.7007367" lon="17.2166243"><ele>873.8000000000001</ele><time>2026-04-28T14:29:56.277Z</time></trkpt><trkpt lat="43.700713" lon="17.2164802"><ele>874.0</ele><time>2026-04-28T14:29:58.277Z</time></trkpt><trkpt lat="43.7006933" lon="17.2163714"><ele>874.4999999999999</ele><time>2026-04-28T14:30:21.275Z</time></trkpt><trkpt lat="43.7006673" lon="17.2162418"><ele>875.0</ele><time>2026-04-28T14:30:23.277Z</time></trkpt><trkpt lat="43.7006496" lon="17.2161304"><ele>875.5</ele><time>2026-04-28T14:30:26.276Z</time></trkpt><trkpt lat="43.7006042" lon="17.2160016"><ele>876.0</ele><time>2026-04-28T14:30:31.275Z</time></trkpt><trkpt lat="43.7005483" lon="17.2159509"><ele>876.4999999999999</ele><time>2026-04-28T14:30:32.276Z</time></trkpt><trkpt lat="43.7004762" lon="17.2159015"><ele>877.0</ele><time>2026-04-28T14:30:33.281Z</time></trkpt><trkpt lat="43.7003894" lon="17.2158475"><ele>877.0</ele><time>2026-04-28T14:30:34.278Z</time></trkpt><trkpt lat="43.7002914" lon="17.2157783"><ele>877.0</ele><time>2026-04-28T14:30:35.278Z</time></trkpt><trkpt lat="43.7001727" lon="17.2156998"><ele>877.0</ele><time>2026-04-28T14:30:36.279Z</time></trkpt><trkpt lat="43.700046" lon="17.2156112"><ele>877.0</ele><time>2026-04-28T14:30:37.278Z</time></trkpt><trkpt lat="43.6999104" lon="17.2155096"><ele>877.3333333333333</ele><time>2026-04-28T14:30:38.278Z</time></trkpt><trkpt lat="43.6997632" lon="17.2154058"><ele>877.6666666666667</ele><time>2026-04-28T14:30:39.279Z</time></trkpt><trkpt lat="43.6996017" lon="17.2152936"><ele>878.0</ele><time>2026-04-28T14:30:40.278Z</time></trkpt><trkpt lat="43.6994394" lon="17.2151802"><ele>877.3333333333334</ele><time>2026-04-28T14:30:41.278Z</time></trkpt><trkpt lat="43.6992708" lon="17.215067"><ele>876.6666666666667</ele><time>2026-04-28T14:30:42.278Z</time></trkpt><trkpt lat="43.6991042" lon="17.2149503"><ele>876.0</ele><time>2026-04-28T14:30:43.278Z</time></trkpt><trkpt lat="43.6989369" lon="17.2148318"><ele>876.0</ele><time>2026-04-28T14:30:44.279Z</time></trkpt><trkpt lat="43.6987655" lon="17.2147115"><ele>876.0</ele><time>2026-04-28T14:30:45.278Z</time></trkpt><trkpt lat="43.698596" lon="17.2145977"><ele>876.0</ele><time>2026-04-28T14:30:46.277Z</time></trkpt><trkpt lat="43.6984273" lon="17.2144828"><ele>874.3333333333333</ele><time>2026-04-28T14:30:47.276Z</time></trkpt><trkpt lat="43.6982586" lon="17.214366"><ele>872.6666666666666</ele><time>2026-04-28T14:30:48.278Z</time></trkpt><trkpt lat="43.6980926" lon="17.2142493"><ele>871.0</ele><time>2026-04-28T14:30:49.279Z</time></trkpt><trkpt lat="43.6979165" lon="17.2141338"><ele>871.0</ele><time>2026-04-28T14:30:50.28Z</time></trkpt><trkpt lat="43.6977458" lon="17.2140179"><ele>871.0</ele><time>2026-04-28T14:30:51.278Z</time></trkpt><trkpt lat="43.6975733" lon="17.2138978"><ele>871.0</ele><time>2026-04-28T14:30:52.277Z</time></trkpt><trkpt lat="43.6974028" lon="17.2137803"><ele>871.0</ele><time>2026-04-28T14:30:53.278Z</time></trkpt><trkpt lat="43.6972316" lon="17.2136628"><ele>871.0</ele><time>2026-04-28T14:30:54.278Z</time></trkpt><trkpt lat="43.6970619" lon="17.2135457"><ele>871.0</ele><time>2026-04-28T14:30:55.279Z</time></trkpt><trkpt lat="43.6968913" lon="17.2134283"><ele>870.6666666666666</ele><time>2026-04-28T14:30:56.277Z</time></trkpt><trkpt lat="43.6967199" lon="17.2133063"><ele>870.3333333333333</ele><time>2026-04-28T14:30:57.278Z</time></trkpt><trkpt lat="43.6965484" lon="17.2131879"><ele>870.0</ele><time>2026-04-28T14:30:58.278Z</time></trkpt><trkpt lat="43.6963764" lon="17.2130686"><ele>870.0</ele><time>2026-04-28T14:30:59.278Z</time></trkpt><trkpt lat="43.696205" lon="17.2129502"><ele>870.0</ele><time>2026-04-28T14:31:00.277Z</time></trkpt><trkpt lat="43.6960299" lon="17.2128299"><ele>870.0</ele><time>2026-04-28T14:31:01.278Z</time></trkpt><trkpt lat="43.6958526" lon="17.2127118"><ele>869.3333333333333</ele><time>2026-04-28T14:31:02.279Z</time></trkpt><trkpt lat="43.6956753" lon="17.2125912"><ele>868.6666666666666</ele><time>2026-04-28T14:31:03.277Z</time></trkpt><trkpt lat="43.6955005" lon="17.2124752"><ele>868.0</ele><time>2026-04-28T14:31:04.278Z</time></trkpt><trkpt lat="43.695326" lon="17.2123515"><ele>868.0</ele><time>2026-04-28T14:31:05.277Z</time></trkpt><trkpt lat="43.6951505" lon="17.2122329"><ele>868.0</ele><time>2026-04-28T14:31:06.282Z</time></trkpt><trkpt lat="43.6949728" lon="17.212107"><ele>868.0</ele><time>2026-04-28T14:31:07.278Z</time></trkpt><trkpt lat="43.6948014" lon="17.2119866"><ele>868.0</ele><time>2026-04-28T14:31:08.279Z</time></trkpt><trkpt lat="43.6946523" lon="17.2118888"><ele>868.0</ele><time>2026-04-28T14:31:09.279Z</time></trkpt><trkpt lat="43.6945155" lon="17.211793"><ele>868.0</ele><time>2026-04-28T14:31:10.276Z</time></trkpt><trkpt lat="43.6943946" lon="17.21171"><ele>868.0</ele><time>2026-04-28T14:31:11.278Z</time></trkpt><trkpt lat="43.6942932" lon="17.2116312"><ele>868.0</ele><time>2026-04-28T14:31:12.277Z</time></trkpt><trkpt lat="43.6941995" lon="17.2115562"><ele>868.0</ele><time>2026-04-28T14:31:13.278Z</time></trkpt><trkpt lat="43.6941233" lon="17.2114676"><ele>868.0</ele><time>2026-04-28T14:31:14.278Z</time></trkpt><trkpt lat="43.6940639" lon="17.211371"><ele>868.0</ele><time>2026-04-28T14:31:15.278Z</time></trkpt><trkpt lat="43.6939981" lon="17.2112917"><ele>868.0</ele><time>2026-04-28T14:31:16.278Z</time></trkpt><trkpt lat="43.693913" lon="17.2112494"><ele>868.0</ele><time>2026-04-28T14:31:17.278Z</time></trkpt><trkpt lat="43.6938183" lon="17.2112285"><ele>868.0</ele><time>2026-04-28T14:31:18.28Z</time></trkpt><trkpt lat="43.6936989" lon="17.2111904"><ele>868.0</ele><time>2026-04-28T14:31:19.279Z</time></trkpt><trkpt lat="43.693567" lon="17.2111242"><ele>868.0</ele><time>2026-04-28T14:31:20.276Z</time></trkpt><trkpt lat="43.6934295" lon="17.211042"><ele>867.0</ele><time>2026-04-28T14:31:21.278Z</time></trkpt><trkpt lat="43.6932833" lon="17.2109537"><ele>866.0</ele><time>2026-04-28T14:31:22.277Z</time></trkpt><trkpt lat="43.6931321" lon="17.2108475"><ele>865.0</ele><time>2026-04-28T14:31:23.276Z</time></trkpt><trkpt lat="43.6929729" lon="17.2107396"><ele>865.0</ele><time>2026-04-28T14:31:24.278Z</time></trkpt><trkpt lat="43.6928096" lon="17.2106319"><ele>865.0</ele><time>2026-04-28T14:31:25.28Z</time></trkpt><trkpt lat="43.6926419" lon="17.2105195"><ele>865.0</ele><time>2026-04-28T14:31:26.277Z</time></trkpt><trkpt lat="43.6924723" lon="17.2104048"><ele>865.3333333333333</ele><time>2026-04-28T14:31:27.276Z</time></trkpt><trkpt lat="43.6923001" lon="17.2102881"><ele>865.6666666666667</ele><time>2026-04-28T14:31:28.277Z</time></trkpt><trkpt lat="43.6921221" lon="17.2101671"><ele>866.0</ele><time>2026-04-28T14:31:29.279Z</time></trkpt><trkpt lat="43.6919394" lon="17.2100422"><ele>866.0</ele><time>2026-04-28T14:31:30.276Z</time></trkpt><trkpt lat="43.6917502" lon="17.2099133"><ele>866.0</ele><time>2026-04-28T14:31:31.277Z</time></trkpt><trkpt lat="43.6915585" lon="17.2097822"><ele>866.0</ele><time>2026-04-28T14:31:32.279Z</time></trkpt><trkpt lat="43.6913645" lon="17.2096443"><ele>866.0</ele><time>2026-04-28T14:31:33.279Z</time></trkpt><trkpt lat="43.691166" lon="17.2095085"><ele>866.0</ele><time>2026-04-28T14:31:34.278Z</time></trkpt><trkpt lat="43.6909652" lon="17.2093766"><ele>866.0</ele><time>2026-04-28T14:31:35.278Z</time></trkpt><trkpt lat="43.6907668" lon="17.2092364"><ele>866.0</ele><time>2026-04-28T14:31:36.276Z</time></trkpt><trkpt lat="43.6905685" lon="17.2091015"><ele>866.0</ele><time>2026-04-28T14:31:37.279Z</time></trkpt><trkpt lat="43.6903685" lon="17.2089666"><ele>866.0</ele><time>2026-04-28T14:31:38.276Z</time></trkpt><trkpt lat="43.6901717" lon="17.2088298"><ele>865.6666666666667</ele><time>2026-04-28T14:31:39.278Z</time></trkpt><trkpt lat="43.6899754" lon="17.208693"><ele>865.3333333333333</ele><time>2026-04-28T14:31:40.277Z</time></trkpt><trkpt lat="43.6897759" lon="17.2085586"><ele>865.0</ele><time>2026-04-28T14:31:41.278Z</time></trkpt><trkpt lat="43.6895763" lon="17.2084229"><ele>865.5</ele><time>2026-04-28T14:31:42.279Z</time></trkpt><trkpt lat="43.6893737" lon="17.2082851"><ele>866.0</ele><time>2026-04-28T14:31:43.278Z</time></trkpt><trkpt lat="43.6891723" lon="17.2081469"><ele>866.5</ele><time>2026-04-28T14:31:44.276Z</time></trkpt><trkpt lat="43.6889709" lon="17.2080092"><ele>867.0</ele><time>2026-04-28T14:31:45.277Z</time></trkpt><trkpt lat="43.6887683" lon="17.2078688"><ele>865.5</ele><time>2026-04-28T14:31:46.278Z</time></trkpt><trkpt lat="43.6885617" lon="17.2077309"><ele>864.0</ele><time>2026-04-28T14:31:47.277Z</time></trkpt><trkpt lat="43.6883575" lon="17.2075886"><ele>864.0</ele><time>2026-04-28T14:31:48.277Z</time></trkpt><trkpt lat="43.6881536" lon="17.2074468"><ele>864.0</ele><time>2026-04-28T14:31:49.276Z</time></trkpt><trkpt lat="43.6879488" lon="17.2073042"><ele>864.5</ele><time>2026-04-28T14:31:50.276Z</time></trkpt><trkpt lat="43.6877462" lon="17.207161"><ele>865.0</ele><time>2026-04-28T14:31:51.275Z</time></trkpt><trkpt lat="43.6875383" lon="17.2070205"><ele>865.0</ele><time>2026-04-28T14:31:52.275Z</time></trkpt><trkpt lat="43.6873334" lon="17.2068799"><ele>865.0</ele><time>2026-04-28T14:31:53.279Z</time></trkpt><trkpt lat="43.6871283" lon="17.2067395"><ele>865.5</ele><time>2026-04-28T14:31:54.278Z</time></trkpt><trkpt lat="43.6869247" lon="17.2065969"><ele>866.0</ele><time>2026-04-28T14:31:55.279Z</time></trkpt><trkpt lat="43.6867215" lon="17.2064591"><ele>866.0</ele><time>2026-04-28T14:31:56.275Z</time></trkpt><trkpt lat="43.6865183" lon="17.2063146"><ele>866.0</ele><time>2026-04-28T14:31:57.278Z</time></trkpt><trkpt lat="43.6863143" lon="17.2061704"><ele>866.0</ele><time>2026-04-28T14:31:58.279Z</time></trkpt><trkpt lat="43.686108" lon="17.2060283"><ele>866.0</ele><time>2026-04-28T14:31:59.276Z</time></trkpt><trkpt lat="43.6858952" lon="17.2058882"><ele>865.5</ele><time>2026-04-28T14:32:00.278Z</time></trkpt><trkpt lat="43.6856895" lon="17.2057431"><ele>865.0</ele><time>2026-04-28T14:32:01.277Z</time></trkpt><trkpt lat="43.6854807" lon="17.2056032"><ele>864.5</ele><time>2026-04-28T14:32:02.283Z</time></trkpt><trkpt lat="43.685269" lon="17.2054597"><ele>864.0</ele><time>2026-04-28T14:32:03.278Z</time></trkpt><trkpt lat="43.6850539" lon="17.2053143"><ele>863.5</ele><time>2026-04-28T14:32:04.278Z</time></trkpt><trkpt lat="43.6848384" lon="17.2051683"><ele>863.0</ele><time>2026-04-28T14:32:05.278Z</time></trkpt><trkpt lat="43.6846257" lon="17.2050206"><ele>863.0</ele><time>2026-04-28T14:32:06.278Z</time></trkpt><trkpt lat="43.6844085" lon="17.204872"><ele>863.0</ele><time>2026-04-28T14:32:07.277Z</time></trkpt><trkpt lat="43.6841891" lon="17.2047203"><ele>862.5</ele><time>2026-04-28T14:32:08.277Z</time></trkpt><trkpt lat="43.6839678" lon="17.2045666"><ele>862.0</ele><time>2026-04-28T14:32:09.279Z</time></trkpt><trkpt lat="43.6837483" lon="17.2044215"><ele>864.0</ele><time>2026-04-28T14:32:10.279Z</time></trkpt><trkpt lat="43.683531" lon="17.2042738"><ele>866.0</ele><time>2026-04-28T14:32:11.279Z</time></trkpt><trkpt lat="43.6833101" lon="17.2041221"><ele>863.5</ele><time>2026-04-28T14:32:12.278Z</time></trkpt><trkpt lat="43.6830969" lon="17.2039769"><ele>861.0</ele><time>2026-04-28T14:32:13.277Z</time></trkpt><trkpt lat="43.682882" lon="17.2038311"><ele>859.5</ele><time>2026-04-28T14:32:14.278Z</time></trkpt><trkpt lat="43.6826741" lon="17.2036838"><ele>858.0</ele><time>2026-04-28T14:32:15.277Z</time></trkpt><trkpt lat="43.6824654" lon="17.2035412"><ele>858.0</ele><time>2026-04-28T14:32:16.277Z</time></trkpt><trkpt lat="43.6822594" lon="17.2034027"><ele>858.0</ele><time>2026-04-28T14:32:17.279Z</time></trkpt><trkpt lat="43.6820513" lon="17.2032604"><ele>861.0</ele><time>2026-04-28T14:32:18.277Z</time></trkpt><trkpt lat="43.6818444" lon="17.203119"><ele>864.0</ele><time>2026-04-28T14:32:19.277Z</time></trkpt><trkpt lat="43.6816368" lon="17.2029748"><ele>864.0</ele><time>2026-04-28T14:32:20.278Z</time></trkpt><trkpt lat="43.6814325" lon="17.2028291"><ele>864.0</ele><time>2026-04-28T14:32:21.28Z</time></trkpt><trkpt lat="43.6812261" lon="17.2026792"><ele>862.0</ele><time>2026-04-28T14:32:22.278Z</time></trkpt><trkpt lat="43.681021" lon="17.2025347"><ele>860.0</ele><time>2026-04-28T14:32:23.277Z</time></trkpt><trkpt lat="43.6808118" lon="17.2023885"><ele>861.0</ele><time>2026-04-28T14:32:24.28Z</time></trkpt><trkpt lat="43.6806061" lon="17.2022521"><ele>862.0</ele><time>2026-04-28T14:32:25.278Z</time></trkpt><trkpt lat="43.680401" lon="17.2021123"><ele>862.0</ele><time>2026-04-28T14:32:26.281Z</time></trkpt><trkpt lat="43.6801955" lon="17.2019772"><ele>862.0</ele><time>2026-04-28T14:32:27.277Z</time></trkpt><trkpt lat="43.6799891" lon="17.2018424"><ele>862.0</ele><time>2026-04-28T14:32:28.278Z</time></trkpt><trkpt lat="43.6797835" lon="17.2017065"><ele>862.0</ele><time>2026-04-28T14:32:29.277Z</time></trkpt><trkpt lat="43.6795805" lon="17.2015691"><ele>861.5</ele><time>2026-04-28T14:32:30.278Z</time></trkpt><trkpt lat="43.6793774" lon="17.2014313"><ele>861.0</ele><time>2026-04-28T14:32:31.282Z</time></trkpt><trkpt lat="43.679173" lon="17.2012947"><ele>861.0</ele><time>2026-04-28T14:32:32.278Z</time></trkpt><trkpt lat="43.6789724" lon="17.201158"><ele>861.0</ele><time>2026-04-28T14:32:33.278Z</time></trkpt><trkpt lat="43.6787687" lon="17.2010189"><ele>861.0</ele><time>2026-04-28T14:32:34.279Z</time></trkpt><trkpt lat="43.6785662" lon="17.2008803"><ele>861.0</ele><time>2026-04-28T14:32:35.278Z</time></trkpt><trkpt lat="43.6783665" lon="17.200745"><ele>861.0</ele><time>2026-04-28T14:32:36.279Z</time></trkpt><trkpt lat="43.6781636" lon="17.2006034"><ele>861.0</ele><time>2026-04-28T14:32:37.278Z</time></trkpt><trkpt lat="43.6779623" lon="17.2004637"><ele>861.0</ele><time>2026-04-28T14:32:38.275Z</time></trkpt><trkpt lat="43.6777587" lon="17.2003247"><ele>860.0</ele><time>2026-04-28T14:32:39.278Z</time></trkpt><trkpt lat="43.6775564" lon="17.2001857"><ele>859.0</ele><time>2026-04-28T14:32:40.278Z</time></trkpt><trkpt lat="43.6773531" lon="17.2000476"><ele>859.0</ele><time>2026-04-28T14:32:41.277Z</time></trkpt><trkpt lat="43.6771504" lon="17.1999054"><ele>859.0</ele><time>2026-04-28T14:32:42.278Z</time></trkpt><trkpt lat="43.6769488" lon="17.1997605"><ele>858.5</ele><time>2026-04-28T14:32:43.276Z</time></trkpt><trkpt lat="43.6767438" lon="17.1996217"><ele>858.0</ele><time>2026-04-28T14:32:44.279Z</time></trkpt><trkpt lat="43.6765363" lon="17.1994863"><ele>858.0</ele><time>2026-04-28T14:32:45.275Z</time></trkpt><trkpt lat="43.6763355" lon="17.1993516"><ele>858.0</ele><time>2026-04-28T14:32:46.276Z</time></trkpt><trkpt lat="43.6761344" lon="17.1992071"><ele>859.0</ele><time>2026-04-28T14:32:47.277Z</time></trkpt><trkpt lat="43.6759335" lon="17.1990609"><ele>860.0</ele><time>2026-04-28T14:32:48.276Z</time></trkpt><trkpt lat="43.67574" lon="17.198896"><ele>860.0</ele><time>2026-04-28T14:32:49.277Z</time></trkpt><trkpt lat="43.6755563" lon="17.1987172"><ele>860.0</ele><time>2026-04-28T14:32:50.278Z</time></trkpt><trkpt lat="43.6753854" lon="17.1985136"><ele>860.0</ele><time>2026-04-28T14:32:51.277Z</time></trkpt><trkpt lat="43.6752222" lon="17.1983012"><ele>860.0</ele><time>2026-04-28T14:32:52.277Z</time></trkpt><trkpt lat="43.6750677" lon="17.1980766"><ele>860.0</ele><time>2026-04-28T14:32:53.276Z</time></trkpt><trkpt lat="43.6749087" lon="17.197853"><ele>859.6666666666667</ele><time>2026-04-28T14:32:54.278Z</time></trkpt><trkpt lat="43.6747523" lon="17.197635"><ele>859.3333333333333</ele><time>2026-04-28T14:32:55.275Z</time></trkpt><trkpt lat="43.674593" lon="17.1974369"><ele>859.0</ele><time>2026-04-28T14:32:56.277Z</time></trkpt><trkpt lat="43.6744279" lon="17.1972627"><ele>859.0</ele><time>2026-04-28T14:32:57.278Z</time></trkpt><trkpt lat="43.6742568" lon="17.1971252"><ele>859.0</ele><time>2026-04-28T14:32:58.276Z</time></trkpt><trkpt lat="43.6740803" lon="17.1970163"><ele>859.0</ele><time>2026-04-28T14:32:59.275Z</time></trkpt><trkpt lat="43.6738948" lon="17.1969305"><ele>859.0</ele><time>2026-04-28T14:33:00.274Z</time></trkpt><trkpt lat="43.6737008" lon="17.1968682"><ele>859.0</ele><time>2026-04-28T14:33:01.274Z</time></trkpt><trkpt lat="43.6734993" lon="17.1968341"><ele>859.0</ele><time>2026-04-28T14:33:02.279Z</time></trkpt><trkpt lat="43.6732975" lon="17.196831"><ele>859.3333333333333</ele><time>2026-04-28T14:33:03.278Z</time></trkpt><trkpt lat="43.6730886" lon="17.1968615"><ele>859.6666666666667</ele><time>2026-04-28T14:33:04.282Z</time></trkpt><trkpt lat="43.6728827" lon="17.1969119"><ele>860.0</ele><time>2026-04-28T14:33:05.277Z</time></trkpt><trkpt lat="43.6726739" lon="17.1969645"><ele>859.0</ele><time>2026-04-28T14:33:06.278Z</time></trkpt><trkpt lat="43.6724745" lon="17.1970254"><ele>858.0</ele><time>2026-04-28T14:33:07.277Z</time></trkpt><trkpt lat="43.6722746" lon="17.1970889"><ele>857.0</ele><time>2026-04-28T14:33:08.279Z</time></trkpt><trkpt lat="43.6720838" lon="17.1971458"><ele>859.3333333333334</ele><time>2026-04-28T14:33:09.277Z</time></trkpt><trkpt lat="43.6719065" lon="17.1972048"><ele>861.6666666666667</ele><time>2026-04-28T14:33:10.277Z</time></trkpt><trkpt lat="43.6717303" lon="17.197263"><ele>864.0</ele><time>2026-04-28T14:33:11.278Z</time></trkpt><trkpt lat="43.6715625" lon="17.19732"><ele>863.0</ele><time>2026-04-28T14:33:12.279Z</time></trkpt><trkpt lat="43.6713964" lon="17.1973907"><ele>862.0</ele><time>2026-04-28T14:33:13.277Z</time></trkpt><trkpt lat="43.6712381" lon="17.1974821"><ele>861.0</ele><time>2026-04-28T14:33:14.292Z</time></trkpt><trkpt lat="43.6710822" lon="17.1975914"><ele>861.0</ele><time>2026-04-28T14:33:15.282Z</time></trkpt><trkpt lat="43.6709307" lon="17.1977219"><ele>861.0</ele><time>2026-04-28T14:33:16.275Z</time></trkpt><trkpt lat="43.6707859" lon="17.1978755"><ele>861.0</ele><time>2026-04-28T14:33:17.28Z</time></trkpt><trkpt lat="43.6706523" lon="17.1980494"><ele>861.0</ele><time>2026-04-28T14:33:18.277Z</time></trkpt><trkpt lat="43.6705274" lon="17.1982358"><ele>861.0</ele><time>2026-04-28T14:33:19.276Z</time></trkpt><trkpt lat="43.6704125" lon="17.198435"><ele>861.0</ele><time>2026-04-28T14:33:20.276Z</time></trkpt><trkpt lat="43.6703057" lon="17.1986339"><ele>861.6666666666667</ele><time>2026-04-28T14:33:21.276Z</time></trkpt><trkpt lat="43.6702035" lon="17.1988408"><ele>862.3333333333334</ele><time>2026-04-28T14:33:22.277Z</time></trkpt><trkpt lat="43.6701043" lon="17.1990455"><ele>863.0</ele><time>2026-04-28T14:33:23.277Z</time></trkpt><trkpt lat="43.6700062" lon="17.199243"><ele>863.0</ele><time>2026-04-28T14:33:24.277Z</time></trkpt><trkpt lat="43.6699064" lon="17.1994465"><ele>863.0</ele><time>2026-04-28T14:33:25.276Z</time></trkpt><trkpt lat="43.6698121" lon="17.1996596"><ele>863.0</ele><time>2026-04-28T14:33:26.277Z</time></trkpt><trkpt lat="43.6697174" lon="17.1998679"><ele>862.0</ele><time>2026-04-28T14:33:27.278Z</time></trkpt><trkpt lat="43.6696222" lon="17.2000838"><ele>861.0</ele><time>2026-04-28T14:33:28.284Z</time></trkpt><trkpt lat="43.6695264" lon="17.2002994"><ele>860.0</ele><time>2026-04-28T14:33:29.279Z</time></trkpt><trkpt lat="43.6694278" lon="17.2005076"><ele>861.3333333333334</ele><time>2026-04-28T14:33:30.277Z</time></trkpt><trkpt lat="43.6693278" lon="17.2007235"><ele>862.6666666666667</ele><time>2026-04-28T14:33:31.277Z</time></trkpt><trkpt lat="43.669228" lon="17.2009363"><ele>864.0</ele><time>2026-04-28T14:33:32.278Z</time></trkpt><trkpt lat="43.6691291" lon="17.2011468"><ele>864.0</ele><time>2026-04-28T14:33:33.278Z</time></trkpt><trkpt lat="43.6690296" lon="17.2013621"><ele>864.0</ele><time>2026-04-28T14:33:34.277Z</time></trkpt><trkpt lat="43.6689275" lon="17.201581"><ele>864.0</ele><time>2026-04-28T14:33:35.278Z</time></trkpt><trkpt lat="43.6688223" lon="17.2017978"><ele>864.0</ele><time>2026-04-28T14:33:36.279Z</time></trkpt><trkpt lat="43.6687155" lon="17.2020124"><ele>864.0</ele><time>2026-04-28T14:33:37.276Z</time></trkpt><trkpt lat="43.6686079" lon="17.2022289"><ele>864.0</ele><time>2026-04-28T14:33:38.276Z</time></trkpt><trkpt lat="43.6684948" lon="17.2024398"><ele>864.0</ele><time>2026-04-28T14:33:39.278Z</time></trkpt><trkpt lat="43.6683727" lon="17.2026446"><ele>864.0</ele><time>2026-04-28T14:33:40.277Z</time></trkpt><trkpt lat="43.668239" lon="17.2028381"><ele>864.0</ele><time>2026-04-28T14:33:41.277Z</time></trkpt><trkpt lat="43.6681001" lon="17.2030288"><ele>863.6666666666667</ele><time>2026-04-28T14:33:42.287Z</time></trkpt><trkpt lat="43.6679585" lon="17.2032201"><ele>863.3333333333334</ele><time>2026-04-28T14:33:43.277Z</time></trkpt><trkpt lat="43.6678137" lon="17.2033981"><ele>863.0</ele><time>2026-04-28T14:33:44.279Z</time></trkpt><trkpt lat="43.6676641" lon="17.2035716"><ele>862.6666666666667</ele><time>2026-04-28T14:33:45.279Z</time></trkpt><trkpt lat="43.6675112" lon="17.2037486"><ele>862.3333333333333</ele><time>2026-04-28T14:33:46.277Z</time></trkpt><trkpt lat="43.6673484" lon="17.2039121"><ele>862.0</ele><time>2026-04-28T14:33:47.28Z</time></trkpt><trkpt lat="43.667184" lon="17.2040711"><ele>862.0</ele><time>2026-04-28T14:33:48.278Z</time></trkpt><trkpt lat="43.6670224" lon="17.2042385"><ele>862.0</ele><time>2026-04-28T14:33:49.283Z</time></trkpt><trkpt lat="43.6668598" lon="17.204401"><ele>862.0</ele><time>2026-04-28T14:33:50.28Z</time></trkpt><trkpt lat="43.6666966" lon="17.2045631"><ele>863.3333333333333</ele><time>2026-04-28T14:33:51.278Z</time></trkpt><trkpt lat="43.6665375" lon="17.2047226"><ele>864.6666666666667</ele><time>2026-04-28T14:33:52.278Z</time></trkpt><trkpt lat="43.666378" lon="17.204884"><ele>866.0</ele><time>2026-04-28T14:33:53.281Z</time></trkpt><trkpt lat="43.6662175" lon="17.2050479"><ele>866.0</ele><time>2026-04-28T14:33:54.285Z</time></trkpt><trkpt lat="43.6660598" lon="17.2052138"><ele>866.0</ele><time>2026-04-28T14:33:55.279Z</time></trkpt><trkpt lat="43.6658981" lon="17.2053697"><ele>866.0</ele><time>2026-04-28T14:33:56.28Z</time></trkpt><trkpt lat="43.665737" lon="17.2055392"><ele>866.0</ele><time>2026-04-28T14:33:57.279Z</time></trkpt><trkpt lat="43.6655736" lon="17.2057012"><ele>866.0</ele><time>2026-04-28T14:33:58.281Z</time></trkpt><trkpt lat="43.6654144" lon="17.2058648"><ele>866.0</ele><time>2026-04-28T14:33:59.281Z</time></trkpt><trkpt lat="43.6652598" lon="17.2060226"><ele>866.0</ele><time>2026-04-28T14:34:00.277Z</time></trkpt><trkpt lat="43.6650993" lon="17.2061855"><ele>866.0</ele><time>2026-04-28T14:34:01.281Z</time></trkpt><trkpt lat="43.6649435" lon="17.2063522"><ele>866.0</ele><time>2026-04-28T14:34:02.277Z</time></trkpt><trkpt lat="43.6647826" lon="17.2065137"><ele>866.3333333333334</ele><time>2026-04-28T14:34:03.279Z</time></trkpt><trkpt lat="43.6646159" lon="17.2066803"><ele>866.6666666666667</ele><time>2026-04-28T14:34:04.278Z</time></trkpt><trkpt lat="43.664452" lon="17.2068437"><ele>867.0</ele><time>2026-04-28T14:34:05.285Z</time></trkpt><trkpt lat="43.6642861" lon="17.207006"><ele>866.6666666666667</ele><time>2026-04-28T14:34:06.28Z</time></trkpt><trkpt lat="43.6641173" lon="17.207167"><ele>866.3333333333334</ele><time>2026-04-28T14:34:07.279Z</time></trkpt><trkpt lat="43.6639423" lon="17.2073222"><ele>866.0</ele><time>2026-04-28T14:34:08.28Z</time></trkpt><trkpt lat="43.6637685" lon="17.2074825"><ele>866.3333333333334</ele><time>2026-04-28T14:34:09.277Z</time></trkpt><trkpt lat="43.6635936" lon="17.2076367"><ele>866.6666666666667</ele><time>2026-04-28T14:34:10.291Z</time></trkpt><trkpt lat="43.6634156" lon="17.2077923"><ele>867.0</ele><time>2026-04-28T14:34:11.277Z</time></trkpt><trkpt lat="43.6632367" lon="17.2079433"><ele>867.0</ele><time>2026-04-28T14:34:12.279Z</time></trkpt><trkpt lat="43.6630562" lon="17.2080953"><ele>867.0</ele><time>2026-04-28T14:34:13.281Z</time></trkpt><trkpt lat="43.6628712" lon="17.2082462"><ele>867.0</ele><time>2026-04-28T14:34:14.279Z</time></trkpt><trkpt lat="43.6626853" lon="17.2083945"><ele>867.6666666666667</ele><time>2026-04-28T14:34:15.277Z</time></trkpt><trkpt lat="43.6624991" lon="17.208549"><ele>868.3333333333334</ele><time>2026-04-28T14:34:16.28Z</time></trkpt><trkpt lat="43.662311" lon="17.2087023"><ele>869.0</ele><time>2026-04-28T14:34:17.277Z</time></trkpt><trkpt lat="43.662121" lon="17.2088585"><ele>868.3333333333334</ele><time>2026-04-28T14:34:18.277Z</time></trkpt><trkpt lat="43.6619321" lon="17.2090163"><ele>867.6666666666667</ele><time>2026-04-28T14:34:19.278Z</time></trkpt><trkpt lat="43.661751" lon="17.2091833"><ele>867.0</ele><time>2026-04-28T14:34:20.282Z</time></trkpt><trkpt lat="43.6615679" lon="17.2093546"><ele>867.0</ele><time>2026-04-28T14:34:21.279Z</time></trkpt><trkpt lat="43.6613861" lon="17.2095313"><ele>867.0</ele><time>2026-04-28T14:34:22.279Z</time></trkpt><trkpt lat="43.6612098" lon="17.209712"><ele>867.0</ele><time>2026-04-28T14:34:23.278Z</time></trkpt><trkpt lat="43.6610311" lon="17.2098952"><ele>867.6666666666667</ele><time>2026-04-28T14:34:24.288Z</time></trkpt><trkpt lat="43.6608568" lon="17.2100785"><ele>868.3333333333334</ele><time>2026-04-28T14:34:25.279Z</time></trkpt><trkpt lat="43.6606837" lon="17.2102697"><ele>869.0</ele><time>2026-04-28T14:34:26.276Z</time></trkpt><trkpt lat="43.6605098" lon="17.210461"><ele>869.0</ele><time>2026-04-28T14:34:27.279Z</time></trkpt><trkpt lat="43.660337" lon="17.2106539"><ele>869.0</ele><time>2026-04-28T14:34:28.279Z</time></trkpt><trkpt lat="43.6601626" lon="17.2108454"><ele>869.0</ele><time>2026-04-28T14:34:29.276Z</time></trkpt><trkpt lat="43.6599873" lon="17.2110347"><ele>868.6666666666667</ele><time>2026-04-28T14:34:30.275Z</time></trkpt><trkpt lat="43.6598112" lon="17.2112279"><ele>868.3333333333333</ele><time>2026-04-28T14:34:31.294Z</time></trkpt><trkpt lat="43.6596381" lon="17.2114236"><ele>868.0</ele><time>2026-04-28T14:34:32.278Z</time></trkpt><trkpt lat="43.6594664" lon="17.2116147"><ele>869.0</ele><time>2026-04-28T14:34:33.278Z</time></trkpt><trkpt lat="43.6592917" lon="17.2118111"><ele>870.0</ele><time>2026-04-28T14:34:34.278Z</time></trkpt><trkpt lat="43.6591195" lon="17.2120012"><ele>871.0</ele><time>2026-04-28T14:34:35.278Z</time></trkpt><trkpt lat="43.6589461" lon="17.2121852"><ele>871.0</ele><time>2026-04-28T14:34:36.278Z</time></trkpt><trkpt lat="43.6587738" lon="17.2123749"><ele>871.0</ele><time>2026-04-28T14:34:37.278Z</time></trkpt><trkpt lat="43.6585978" lon="17.2125674"><ele>871.0</ele><time>2026-04-28T14:34:38.278Z</time></trkpt><trkpt lat="43.6584242" lon="17.2127579"><ele>871.0</ele><time>2026-04-28T14:34:39.276Z</time></trkpt><trkpt lat="43.6582528" lon="17.2129477"><ele>871.0</ele><time>2026-04-28T14:34:40.277Z</time></trkpt><trkpt lat="43.6580803" lon="17.2131422"><ele>871.0</ele><time>2026-04-28T14:34:41.277Z</time></trkpt><trkpt lat="43.6579135" lon="17.2133333"><ele>870.3333333333333</ele><time>2026-04-28T14:34:42.28Z</time></trkpt><trkpt lat="43.6577431" lon="17.2135257"><ele>869.6666666666667</ele><time>2026-04-28T14:34:43.277Z</time></trkpt><trkpt lat="43.6575731" lon="17.2137165"><ele>869.0</ele><time>2026-04-28T14:34:44.276Z</time></trkpt><trkpt lat="43.657405" lon="17.2139052"><ele>869.0</ele><time>2026-04-28T14:34:45.277Z</time></trkpt><trkpt lat="43.6572336" lon="17.2140911"><ele>869.0</ele><time>2026-04-28T14:34:46.276Z</time></trkpt><trkpt lat="43.6570607" lon="17.2142761"><ele>869.0</ele><time>2026-04-28T14:34:47.276Z</time></trkpt><trkpt lat="43.6568918" lon="17.2144597"><ele>869.0</ele><time>2026-04-28T14:34:48.28Z</time></trkpt><trkpt lat="43.6567261" lon="17.214646"><ele>869.0</ele><time>2026-04-28T14:34:49.277Z</time></trkpt><trkpt lat="43.6565587" lon="17.2148326"><ele>869.0</ele><time>2026-04-28T14:34:50.275Z</time></trkpt><trkpt lat="43.65639" lon="17.2150217"><ele>868.6666666666667</ele><time>2026-04-28T14:34:51.277Z</time></trkpt><trkpt lat="43.6562294" lon="17.2152097"><ele>868.3333333333333</ele><time>2026-04-28T14:34:52.278Z</time></trkpt><trkpt lat="43.6560661" lon="17.2153978"><ele>868.0</ele><time>2026-04-28T14:34:53.279Z</time></trkpt><trkpt lat="43.6558983" lon="17.2155829"><ele>867.6666666666666</ele><time>2026-04-28T14:34:54.279Z</time></trkpt><trkpt lat="43.655728" lon="17.2157739"><ele>867.3333333333333</ele><time>2026-04-28T14:34:55.277Z</time></trkpt><trkpt lat="43.6555589" lon="17.2159611"><ele>867.0</ele><time>2026-04-28T14:34:56.276Z</time></trkpt><trkpt lat="43.655389" lon="17.2161503"><ele>867.3333333333333</ele><time>2026-04-28T14:34:57.276Z</time></trkpt><trkpt lat="43.6552166" lon="17.2163441"><ele>867.6666666666666</ele><time>2026-04-28T14:34:58.278Z</time></trkpt><trkpt lat="43.6550414" lon="17.2165352"><ele>868.0</ele><time>2026-04-28T14:34:59.279Z</time></trkpt><trkpt lat="43.6548728" lon="17.2167324"><ele>868.0</ele><time>2026-04-28T14:35:00.279Z</time></trkpt><trkpt lat="43.6547081" lon="17.2169361"><ele>868.0</ele><time>2026-04-28T14:35:01.275Z</time></trkpt><trkpt lat="43.6545419" lon="17.2171444"><ele>868.0</ele><time>2026-04-28T14:35:02.274Z</time></trkpt><trkpt lat="43.6543776" lon="17.2173532"><ele>868.0</ele><time>2026-04-28T14:35:03.277Z</time></trkpt><trkpt lat="43.6542137" lon="17.2175682"><ele>868.0</ele><time>2026-04-28T14:35:04.279Z</time></trkpt><trkpt lat="43.6540519" lon="17.2177864"><ele>868.0</ele><time>2026-04-28T14:35:05.287Z</time></trkpt><trkpt lat="43.6538925" lon="17.2180103"><ele>868.0</ele><time>2026-04-28T14:35:06.279Z</time></trkpt><trkpt lat="43.6537314" lon="17.2182339"><ele>867.5</ele><time>2026-04-28T14:35:07.279Z</time></trkpt><trkpt lat="43.6535726" lon="17.218459"><ele>867.0</ele><time>2026-04-28T14:35:08.278Z</time></trkpt><trkpt lat="43.6534141" lon="17.2186891"><ele>867.0</ele><time>2026-04-28T14:35:09.279Z</time></trkpt><trkpt lat="43.6532604" lon="17.2189196"><ele>867.0</ele><time>2026-04-28T14:35:10.279Z</time></trkpt><trkpt lat="43.653109" lon="17.2191522"><ele>868.0</ele><time>2026-04-28T14:35:11.276Z</time></trkpt><trkpt lat="43.6529572" lon="17.2193953"><ele>869.0</ele><time>2026-04-28T14:35:12.279Z</time></trkpt><trkpt lat="43.652811" lon="17.2196339"><ele>869.5</ele><time>2026-04-28T14:35:13.278Z</time></trkpt><trkpt lat="43.6526727" lon="17.2198781"><ele>870.0</ele><time>2026-04-28T14:35:14.277Z</time></trkpt><trkpt lat="43.6525283" lon="17.2201244"><ele>870.0</ele><time>2026-04-28T14:35:15.276Z</time></trkpt><trkpt lat="43.6523899" lon="17.2203756"><ele>870.0</ele><time>2026-04-28T14:35:16.276Z</time></trkpt><trkpt lat="43.6522526" lon="17.2206238"><ele>871.5</ele><time>2026-04-28T14:35:17.28Z</time></trkpt><trkpt lat="43.6521165" lon="17.2208788"><ele>873.0</ele><time>2026-04-28T14:35:18.28Z</time></trkpt><trkpt lat="43.6519824" lon="17.2211304"><ele>869.0</ele><time>2026-04-28T14:35:19.278Z</time></trkpt><trkpt lat="43.6518497" lon="17.2213966"><ele>865.0</ele><time>2026-04-28T14:35:20.279Z</time></trkpt><trkpt lat="43.6517188" lon="17.2216662"><ele>864.5</ele><time>2026-04-28T14:35:21.286Z</time></trkpt><trkpt lat="43.6515936" lon="17.2219381"><ele>864.0</ele><time>2026-04-28T14:35:22.275Z</time></trkpt><trkpt lat="43.651467" lon="17.2222153"><ele>866.5</ele><time>2026-04-28T14:35:23.278Z</time></trkpt><trkpt lat="43.6513411" lon="17.2224978"><ele>869.0</ele><time>2026-04-28T14:35:24.277Z</time></trkpt><trkpt lat="43.6512149" lon="17.2227829"><ele>870.0</ele><time>2026-04-28T14:35:25.276Z</time></trkpt><trkpt lat="43.6510872" lon="17.2230671"><ele>871.0</ele><time>2026-04-28T14:35:26.28Z</time></trkpt><trkpt lat="43.6509669" lon="17.2233578"><ele>871.5</ele><time>2026-04-28T14:35:27.278Z</time></trkpt><trkpt lat="43.6508373" lon="17.223647"><ele>872.0</ele><time>2026-04-28T14:35:28.281Z</time></trkpt><trkpt lat="43.6507116" lon="17.223942"><ele>872.0</ele><time>2026-04-28T14:35:29.28Z</time></trkpt><trkpt lat="43.6505837" lon="17.2242378"><ele>872.0</ele><time>2026-04-28T14:35:30.275Z</time></trkpt><trkpt lat="43.6504536" lon="17.2245254"><ele>870.5</ele><time>2026-04-28T14:35:31.274Z</time></trkpt><trkpt lat="43.6503257" lon="17.2248144"><ele>869.0</ele><time>2026-04-28T14:35:32.273Z</time></trkpt><trkpt lat="43.6501836" lon="17.2251018"><ele>869.0</ele><time>2026-04-28T14:35:33.275Z</time></trkpt><trkpt lat="43.6500398" lon="17.2253736"><ele>869.0</ele><time>2026-04-28T14:35:34.273Z</time></trkpt><trkpt lat="43.6498892" lon="17.2256461"><ele>867.5</ele><time>2026-04-28T14:35:35.275Z</time></trkpt><trkpt lat="43.6497375" lon="17.2259022"><ele>866.0</ele><time>2026-04-28T14:35:36.276Z</time></trkpt><trkpt lat="43.6495796" lon="17.2261495"><ele>869.0</ele><time>2026-04-28T14:35:37.276Z</time></trkpt><trkpt lat="43.6494232" lon="17.2263758"><ele>872.0</ele><time>2026-04-28T14:35:38.275Z</time></trkpt><trkpt lat="43.649266" lon="17.2265999"><ele>872.6666666666667</ele><time>2026-04-28T14:35:39.277Z</time></trkpt><trkpt lat="43.6491017" lon="17.2268116"><ele>873.3333333333333</ele><time>2026-04-28T14:35:40.277Z</time></trkpt><trkpt lat="43.6489383" lon="17.2270108"><ele>874.0</ele><time>2026-04-28T14:35:41.276Z</time></trkpt><trkpt lat="43.6487816" lon="17.2271863"><ele>874.0</ele><time>2026-04-28T14:35:42.278Z</time></trkpt><trkpt lat="43.6486418" lon="17.2273329"><ele>874.0</ele><time>2026-04-28T14:35:43.277Z</time></trkpt><trkpt lat="43.6485099" lon="17.2274602"><ele>874.0</ele><time>2026-04-28T14:35:44.276Z</time></trkpt><trkpt lat="43.6483961" lon="17.2275682"><ele>874.0</ele><time>2026-04-28T14:35:45.277Z</time></trkpt><trkpt lat="43.648293" lon="17.2276667"><ele>874.0</ele><time>2026-04-28T14:35:46.276Z</time></trkpt><trkpt lat="43.6481885" lon="17.227754"><ele>874.0</ele><time>2026-04-28T14:35:47.278Z</time></trkpt><trkpt lat="43.6480816" lon="17.2278405"><ele>874.0</ele><time>2026-04-28T14:35:48.276Z</time></trkpt><trkpt lat="43.6479771" lon="17.2279212"><ele>874.0</ele><time>2026-04-28T14:35:49.277Z</time></trkpt><trkpt lat="43.6478778" lon="17.2279969"><ele>874.0000000000001</ele><time>2026-04-28T14:35:50.277Z</time></trkpt><trkpt lat="43.6477812" lon="17.2280675"><ele>874.0000000000001</ele><time>2026-04-28T14:35:51.277Z</time></trkpt><trkpt lat="43.6476829" lon="17.2281487"><ele>874.0</ele><time>2026-04-28T14:35:52.276Z</time></trkpt><trkpt lat="43.6475843" lon="17.2282149"><ele>874.0</ele><time>2026-04-28T14:35:53.276Z</time></trkpt><trkpt lat="43.647485" lon="17.2282845"><ele>873.75</ele><time>2026-04-28T14:35:54.277Z</time></trkpt><trkpt lat="43.6473858" lon="17.2283534"><ele>873.5</ele><time>2026-04-28T14:35:55.276Z</time></trkpt><trkpt lat="43.6472825" lon="17.2284245"><ele>873.25</ele><time>2026-04-28T14:35:56.277Z</time></trkpt><trkpt lat="43.6471798" lon="17.2284872"><ele>873.0</ele><time>2026-04-28T14:35:57.276Z</time></trkpt><trkpt lat="43.6470711" lon="17.2285529"><ele>873.75</ele><time>2026-04-28T14:35:58.278Z</time></trkpt><trkpt lat="43.6469585" lon="17.2286183"><ele>874.5</ele><time>2026-04-28T14:35:59.278Z</time></trkpt><trkpt lat="43.6468466" lon="17.2286819"><ele>875.25</ele><time>2026-04-28T14:36:00.278Z</time></trkpt><trkpt lat="43.6467317" lon="17.2287517"><ele>876.0</ele><time>2026-04-28T14:36:01.277Z</time></trkpt><trkpt lat="43.6466116" lon="17.2288241"><ele>876.0</ele><time>2026-04-28T14:36:02.277Z</time></trkpt><trkpt lat="43.6464935" lon="17.2288931"><ele>876.0</ele><time>2026-04-28T14:36:03.276Z</time></trkpt><trkpt lat="43.6463732" lon="17.2289679"><ele>876.0</ele><time>2026-04-28T14:36:04.277Z</time></trkpt><trkpt lat="43.6462518" lon="17.2290409"><ele>876.0</ele><time>2026-04-28T14:36:05.277Z</time></trkpt><trkpt lat="43.6461262" lon="17.2291192"><ele>876.0</ele><time>2026-04-28T14:36:06.276Z</time></trkpt><trkpt lat="43.6459998" lon="17.2291937"><ele>876.0</ele><time>2026-04-28T14:36:07.276Z</time></trkpt><trkpt lat="43.645872" lon="17.2292733"><ele>876.0</ele><time>2026-04-28T14:36:08.277Z</time></trkpt><trkpt lat="43.6457387" lon="17.2293534"><ele>876.0</ele><time>2026-04-28T14:36:09.277Z</time></trkpt><trkpt lat="43.6456049" lon="17.2294315"><ele>876.0</ele><time>2026-04-28T14:36:10.28Z</time></trkpt><trkpt lat="43.6454662" lon="17.2295086"><ele>876.0</ele><time>2026-04-28T14:36:11.279Z</time></trkpt><trkpt lat="43.6453286" lon="17.2295894"><ele>876.0</ele><time>2026-04-28T14:36:12.278Z</time></trkpt><trkpt lat="43.6451917" lon="17.2296787"><ele>876.0</ele><time>2026-04-28T14:36:13.28Z</time></trkpt><trkpt lat="43.6450482" lon="17.2297589"><ele>876.0</ele><time>2026-04-28T14:36:14.281Z</time></trkpt><trkpt lat="43.644912" lon="17.2298442"><ele>876.0</ele><time>2026-04-28T14:36:15.278Z</time></trkpt><trkpt lat="43.6447717" lon="17.229928"><ele>876.0</ele><time>2026-04-28T14:36:16.277Z</time></trkpt><trkpt lat="43.6446305" lon="17.2300142"><ele>876.0</ele><time>2026-04-28T14:36:17.278Z</time></trkpt><trkpt lat="43.6444873" lon="17.2301045"><ele>876.0</ele><time>2026-04-28T14:36:18.278Z</time></trkpt><trkpt lat="43.6443448" lon="17.2301937"><ele>877.0</ele><time>2026-04-28T14:36:19.279Z</time></trkpt><trkpt lat="43.6442026" lon="17.2302816"><ele>878.0</ele><time>2026-04-28T14:36:20.283Z</time></trkpt><trkpt lat="43.644053" lon="17.2303686"><ele>879.0</ele><time>2026-04-28T14:36:21.278Z</time></trkpt><trkpt lat="43.6439024" lon="17.2304587"><ele>879.0</ele><time>2026-04-28T14:36:22.278Z</time></trkpt><trkpt lat="43.6437583" lon="17.2305471"><ele>879.0</ele><time>2026-04-28T14:36:23.278Z</time></trkpt><trkpt lat="43.6436081" lon="17.2306333"><ele>879.0</ele><time>2026-04-28T14:36:24.278Z</time></trkpt><trkpt lat="43.6434594" lon="17.2307276"><ele>878.6666666666667</ele><time>2026-04-28T14:36:25.278Z</time></trkpt><trkpt lat="43.6433067" lon="17.2308291"><ele>878.3333333333334</ele><time>2026-04-28T14:36:26.277Z</time></trkpt><trkpt lat="43.6431584" lon="17.2309313"><ele>878.0</ele><time>2026-04-28T14:36:27.277Z</time></trkpt><trkpt lat="43.6430092" lon="17.2310342"><ele>878.0</ele><time>2026-04-28T14:36:28.277Z</time></trkpt><trkpt lat="43.6428606" lon="17.2311375"><ele>878.0</ele><time>2026-04-28T14:36:29.278Z</time></trkpt><trkpt lat="43.6427114" lon="17.2312446"><ele>878.0</ele><time>2026-04-28T14:36:30.28Z</time></trkpt><trkpt lat="43.6425669" lon="17.2313521"><ele>878.0</ele><time>2026-04-28T14:36:31.279Z</time></trkpt><trkpt lat="43.6424245" lon="17.2314571"><ele>878.0</ele><time>2026-04-28T14:36:32.278Z</time></trkpt><trkpt lat="43.6422868" lon="17.231567"><ele>878.0</ele><time>2026-04-28T14:36:33.277Z</time></trkpt><trkpt lat="43.6421479" lon="17.2316733"><ele>878.3333333333334</ele><time>2026-04-28T14:36:34.278Z</time></trkpt><trkpt lat="43.6420094" lon="17.2317816"><ele>878.6666666666667</ele><time>2026-04-28T14:36:35.275Z</time></trkpt><trkpt lat="43.6418763" lon="17.2318907"><ele>879.0</ele><time>2026-04-28T14:36:36.283Z</time></trkpt><trkpt lat="43.6417474" lon="17.23201"><ele>879.0</ele><time>2026-04-28T14:36:37.278Z</time></trkpt><trkpt lat="43.641617" lon="17.2321268"><ele>879.0</ele><time>2026-04-28T14:36:38.277Z</time></trkpt><trkpt lat="43.6414926" lon="17.232241"><ele>879.0</ele><time>2026-04-28T14:36:39.278Z</time></trkpt><trkpt lat="43.6413705" lon="17.2323539"><ele>878.75</ele><time>2026-04-28T14:36:40.282Z</time></trkpt><trkpt lat="43.6412478" lon="17.2324727"><ele>878.5</ele><time>2026-04-28T14:36:41.277Z</time></trkpt><trkpt lat="43.6411292" lon="17.232592"><ele>878.25</ele><time>2026-04-28T14:36:42.276Z</time></trkpt><trkpt lat="43.6410087" lon="17.232712"><ele>878.0</ele><time>2026-04-28T14:36:43.281Z</time></trkpt><trkpt lat="43.6408861" lon="17.2328417"><ele>878.0</ele><time>2026-04-28T14:36:44.278Z</time></trkpt><trkpt lat="43.6407608" lon="17.232972"><ele>878.0</ele><time>2026-04-28T14:36:45.278Z</time></trkpt><trkpt lat="43.6406378" lon="17.2331051"><ele>878.0</ele><time>2026-04-28T14:36:46.276Z</time></trkpt><trkpt lat="43.6405097" lon="17.2332447"><ele>878.0</ele><time>2026-04-28T14:36:47.277Z</time></trkpt><trkpt lat="43.6403851" lon="17.2333932"><ele>878.0</ele><time>2026-04-28T14:36:48.279Z</time></trkpt><trkpt lat="43.6402539" lon="17.2335461"><ele>878.0</ele><time>2026-04-28T14:36:49.277Z</time></trkpt><trkpt lat="43.6401262" lon="17.233704"><ele>877.6666666666667</ele><time>2026-04-28T14:36:50.28Z</time></trkpt><trkpt lat="43.6399977" lon="17.2338696"><ele>877.3333333333333</ele><time>2026-04-28T14:36:51.278Z</time></trkpt><trkpt lat="43.6398662" lon="17.2340264"><ele>877.0</ele><time>2026-04-28T14:36:52.277Z</time></trkpt><trkpt lat="43.6397352" lon="17.2341979"><ele>877.0</ele><time>2026-04-28T14:36:53.275Z</time></trkpt><trkpt lat="43.6396066" lon="17.2343714"><ele>877.0</ele><time>2026-04-28T14:36:54.275Z</time></trkpt><trkpt lat="43.6394772" lon="17.2345546"><ele>877.0</ele><time>2026-04-28T14:36:55.276Z</time></trkpt><trkpt lat="43.6393488" lon="17.2347363"><ele>878.3333333333333</ele><time>2026-04-28T14:36:56.28Z</time></trkpt><trkpt lat="43.6392113" lon="17.2349201"><ele>879.6666666666667</ele><time>2026-04-28T14:36:57.28Z</time></trkpt><trkpt lat="43.6390815" lon="17.235109"><ele>881.0</ele><time>2026-04-28T14:36:58.285Z</time></trkpt><trkpt lat="43.6389509" lon="17.2352957"><ele>881.0</ele><time>2026-04-28T14:36:59.277Z</time></trkpt><trkpt lat="43.6388243" lon="17.2354843"><ele>881.0</ele><time>2026-04-28T14:37:00.278Z</time></trkpt><trkpt lat="43.6386939" lon="17.2356755"><ele>881.0</ele><time>2026-04-28T14:37:01.276Z</time></trkpt><trkpt lat="43.6385623" lon="17.2358735"><ele>881.3333333333334</ele><time>2026-04-28T14:37:02.276Z</time></trkpt><trkpt lat="43.6384362" lon="17.2360708"><ele>881.6666666666667</ele><time>2026-04-28T14:37:03.276Z</time></trkpt><trkpt lat="43.6383083" lon="17.2362746"><ele>882.0</ele><time>2026-04-28T14:37:04.277Z</time></trkpt><trkpt lat="43.6381876" lon="17.2364803"><ele>881.0</ele><time>2026-04-28T14:37:05.277Z</time></trkpt><trkpt lat="43.6380629" lon="17.2366856"><ele>880.0</ele><time>2026-04-28T14:37:06.277Z</time></trkpt><trkpt lat="43.6379371" lon="17.2368909"><ele>879.0</ele><time>2026-04-28T14:37:07.277Z</time></trkpt><trkpt lat="43.637814" lon="17.2371188"><ele>878.3333333333333</ele><time>2026-04-28T14:37:08.279Z</time></trkpt><trkpt lat="43.6376828" lon="17.2373287"><ele>877.6666666666666</ele><time>2026-04-28T14:37:09.279Z</time></trkpt><trkpt lat="43.6375592" lon="17.2375377"><ele>877.0</ele><time>2026-04-28T14:37:10.275Z</time></trkpt><trkpt lat="43.637433" lon="17.2377527"><ele>877.0</ele><time>2026-04-28T14:37:11.276Z</time></trkpt><trkpt lat="43.6373084" lon="17.2379649"><ele>877.0</ele><time>2026-04-28T14:37:12.278Z</time></trkpt><trkpt lat="43.6371807" lon="17.2381803"><ele>877.0</ele><time>2026-04-28T14:37:13.277Z</time></trkpt><trkpt lat="43.6370482" lon="17.2383968"><ele>877.0</ele><time>2026-04-28T14:37:14.278Z</time></trkpt><trkpt lat="43.6369199" lon="17.238599"><ele>877.0</ele><time>2026-04-28T14:37:15.278Z</time></trkpt><trkpt lat="43.6367927" lon="17.2388095"><ele>877.0</ele><time>2026-04-28T14:37:16.279Z</time></trkpt><trkpt lat="43.6366637" lon="17.2390281"><ele>877.0</ele><time>2026-04-28T14:37:17.277Z</time></trkpt><trkpt lat="43.6365319" lon="17.2392328"><ele>877.0</ele><time>2026-04-28T14:37:18.278Z</time></trkpt><trkpt lat="43.6364056" lon="17.2394435"><ele>877.0</ele><time>2026-04-28T14:37:19.277Z</time></trkpt><trkpt lat="43.6362732" lon="17.239647"><ele>876.6666666666666</ele><time>2026-04-28T14:37:20.277Z</time></trkpt><trkpt lat="43.6361447" lon="17.2398571"><ele>876.3333333333333</ele><time>2026-04-28T14:37:21.278Z</time></trkpt><trkpt lat="43.6360158" lon="17.2400693"><ele>876.0</ele><time>2026-04-28T14:37:22.278Z</time></trkpt><trkpt lat="43.6358856" lon="17.2402803"><ele>877.0</ele><time>2026-04-28T14:37:23.278Z</time></trkpt><trkpt lat="43.6357557" lon="17.2404969"><ele>878.0</ele><time>2026-04-28T14:37:24.278Z</time></trkpt><trkpt lat="43.635623" lon="17.2407152"><ele>879.0</ele><time>2026-04-28T14:37:25.277Z</time></trkpt><trkpt lat="43.6354911" lon="17.2409279"><ele>879.0</ele><time>2026-04-28T14:37:26.277Z</time></trkpt><trkpt lat="43.635355" lon="17.241148"><ele>879.0</ele><time>2026-04-28T14:37:27.277Z</time></trkpt><trkpt lat="43.6352283" lon="17.2413554"><ele>879.0</ele><time>2026-04-28T14:37:28.278Z</time></trkpt><trkpt lat="43.6350959" lon="17.2415655"><ele>879.0</ele><time>2026-04-28T14:37:29.277Z</time></trkpt><trkpt lat="43.6349594" lon="17.2417762"><ele>879.0</ele><time>2026-04-28T14:37:30.277Z</time></trkpt><trkpt lat="43.6348255" lon="17.2419877"><ele>879.0</ele><time>2026-04-28T14:37:31.275Z</time></trkpt><trkpt lat="43.6346913" lon="17.2421875"><ele>878.6666666666667</ele><time>2026-04-28T14:37:32.278Z</time></trkpt><trkpt lat="43.6345566" lon="17.2423838"><ele>878.3333333333334</ele><time>2026-04-28T14:37:33.275Z</time></trkpt><trkpt lat="43.6344143" lon="17.2425741"><ele>878.0</ele><time>2026-04-28T14:37:34.276Z</time></trkpt><trkpt lat="43.6342741" lon="17.2427628"><ele>878.6666666666667</ele><time>2026-04-28T14:37:35.276Z</time></trkpt><trkpt lat="43.6341221" lon="17.2429453"><ele>879.3333333333333</ele><time>2026-04-28T14:37:36.277Z</time></trkpt><trkpt lat="43.6339739" lon="17.2431285"><ele>880.0</ele><time>2026-04-28T14:37:37.277Z</time></trkpt><trkpt lat="43.6338218" lon="17.2433132"><ele>880.0</ele><time>2026-04-28T14:37:38.277Z</time></trkpt><trkpt lat="43.6336689" lon="17.2434947"><ele>880.0</ele><time>2026-04-28T14:37:39.277Z</time></trkpt><trkpt lat="43.6335138" lon="17.2436706"><ele>880.0</ele><time>2026-04-28T14:37:40.278Z</time></trkpt><trkpt lat="43.6333513" lon="17.2438417"><ele>880.0</ele><time>2026-04-28T14:37:41.277Z</time></trkpt><trkpt lat="43.633193" lon="17.244009"><ele>880.0</ele><time>2026-04-28T14:37:42.275Z</time></trkpt><trkpt lat="43.6330348" lon="17.2441799"><ele>880.0</ele><time>2026-04-28T14:37:43.277Z</time></trkpt><trkpt lat="43.6328768" lon="17.2443473"><ele>880.0</ele><time>2026-04-28T14:37:44.279Z</time></trkpt><trkpt lat="43.6327157" lon="17.2445124"><ele>880.0</ele><time>2026-04-28T14:37:45.277Z</time></trkpt><trkpt lat="43.6325575" lon="17.2446798"><ele>880.0</ele><time>2026-04-28T14:37:46.279Z</time></trkpt><trkpt lat="43.6323998" lon="17.2448482"><ele>880.0</ele><time>2026-04-28T14:37:47.277Z</time></trkpt><trkpt lat="43.6322427" lon="17.245016"><ele>880.0</ele><time>2026-04-28T14:37:48.276Z</time></trkpt><trkpt lat="43.6320799" lon="17.2451819"><ele>880.0</ele><time>2026-04-28T14:37:49.277Z</time></trkpt><trkpt lat="43.6319173" lon="17.2453495"><ele>881.0</ele><time>2026-04-28T14:37:50.278Z</time></trkpt><trkpt lat="43.6317612" lon="17.2455182"><ele>882.0</ele><time>2026-04-28T14:37:51.278Z</time></trkpt><trkpt lat="43.631602" lon="17.2456859"><ele>883.0</ele><time>2026-04-28T14:37:52.278Z</time></trkpt><trkpt lat="43.6314449" lon="17.2458531"><ele>883.0</ele><time>2026-04-28T14:37:53.275Z</time></trkpt><trkpt lat="43.6312884" lon="17.246021"><ele>883.0</ele><time>2026-04-28T14:37:54.278Z</time></trkpt><trkpt lat="43.6311413" lon="17.2461854"><ele>883.0</ele><time>2026-04-28T14:37:55.278Z</time></trkpt><trkpt lat="43.6309859" lon="17.2463498"><ele>883.0</ele><time>2026-04-28T14:37:56.278Z</time></trkpt><trkpt lat="43.6308262" lon="17.2465171"><ele>883.0</ele><time>2026-04-28T14:37:57.278Z</time></trkpt><trkpt lat="43.6306747" lon="17.2466875"><ele>883.0</ele><time>2026-04-28T14:37:58.279Z</time></trkpt><trkpt lat="43.6305249" lon="17.2468576"><ele>883.0</ele><time>2026-04-28T14:37:59.277Z</time></trkpt><trkpt lat="43.6303743" lon="17.2470203"><ele>883.0</ele><time>2026-04-28T14:38:00.279Z</time></trkpt><trkpt lat="43.6302241" lon="17.2471889"><ele>883.0</ele><time>2026-04-28T14:38:01.276Z</time></trkpt><trkpt lat="43.6300695" lon="17.2473571"><ele>883.6666666666666</ele><time>2026-04-28T14:38:02.279Z</time></trkpt><trkpt lat="43.6299223" lon="17.2475292"><ele>884.3333333333333</ele><time>2026-04-28T14:38:03.278Z</time></trkpt><trkpt lat="43.6297791" lon="17.2476933"><ele>885.0</ele><time>2026-04-28T14:38:04.276Z</time></trkpt><trkpt lat="43.6296377" lon="17.2478599"><ele>885.0</ele><time>2026-04-28T14:38:05.278Z</time></trkpt><trkpt lat="43.6295029" lon="17.2480314"><ele>885.0</ele><time>2026-04-28T14:38:06.275Z</time></trkpt><trkpt lat="43.6293625" lon="17.2481949"><ele>885.0</ele><time>2026-04-28T14:38:07.276Z</time></trkpt><trkpt lat="43.6292251" lon="17.2483613"><ele>884.6666666666667</ele><time>2026-04-28T14:38:08.278Z</time></trkpt><trkpt lat="43.6290919" lon="17.2485269"><ele>884.3333333333334</ele><time>2026-04-28T14:38:09.278Z</time></trkpt><trkpt lat="43.6289626" lon="17.2486883"><ele>884.0</ele><time>2026-04-28T14:38:10.276Z</time></trkpt><trkpt lat="43.6288327" lon="17.2488534"><ele>883.3333333333334</ele><time>2026-04-28T14:38:11.276Z</time></trkpt><trkpt lat="43.6287026" lon="17.2490234"><ele>882.6666666666667</ele><time>2026-04-28T14:38:12.277Z</time></trkpt><trkpt lat="43.6285703" lon="17.2491956"><ele>882.0</ele><time>2026-04-28T14:38:13.279Z</time></trkpt><trkpt lat="43.6284404" lon="17.2493618"><ele>882.6666666666667</ele><time>2026-04-28T14:38:14.282Z</time></trkpt><trkpt lat="43.6283146" lon="17.2495356"><ele>883.3333333333334</ele><time>2026-04-28T14:38:15.28Z</time></trkpt><trkpt lat="43.6281788" lon="17.2497087"><ele>884.0</ele><time>2026-04-28T14:38:16.278Z</time></trkpt><trkpt lat="43.6280443" lon="17.2498867"><ele>884.0</ele><time>2026-04-28T14:38:17.277Z</time></trkpt><trkpt lat="43.6279139" lon="17.2500576"><ele>884.0</ele><time>2026-04-28T14:38:18.278Z</time></trkpt><trkpt lat="43.6277942" lon="17.2502164"><ele>884.0</ele><time>2026-04-28T14:38:19.277Z</time></trkpt><trkpt lat="43.6276739" lon="17.2503789"><ele>884.0</ele><time>2026-04-28T14:38:20.278Z</time></trkpt><trkpt lat="43.6275584" lon="17.2505306"><ele>884.0</ele><time>2026-04-28T14:38:21.276Z</time></trkpt><trkpt lat="43.6274445" lon="17.2506876"><ele>884.0</ele><time>2026-04-28T14:38:22.278Z</time></trkpt><trkpt lat="43.6273347" lon="17.2508437"><ele>883.0</ele><time>2026-04-28T14:38:23.277Z</time></trkpt><trkpt lat="43.6272227" lon="17.2510036"><ele>882.0</ele><time>2026-04-28T14:38:24.278Z</time></trkpt><trkpt lat="43.6271103" lon="17.2511603"><ele>881.0</ele><time>2026-04-28T14:38:25.282Z</time></trkpt><trkpt lat="43.6269988" lon="17.2513204"><ele>881.6666666666667</ele><time>2026-04-28T14:38:26.279Z</time></trkpt><trkpt lat="43.6268804" lon="17.2514764"><ele>882.3333333333333</ele><time>2026-04-28T14:38:27.278Z</time></trkpt><trkpt lat="43.6267541" lon="17.2516338"><ele>883.0</ele><time>2026-04-28T14:38:28.279Z</time></trkpt><trkpt lat="43.6266336" lon="17.2517937"><ele>883.0</ele><time>2026-04-28T14:38:29.279Z</time></trkpt><trkpt lat="43.6265128" lon="17.2519552"><ele>883.0</ele><time>2026-04-28T14:38:30.278Z</time></trkpt><trkpt lat="43.6263955" lon="17.2521217"><ele>883.0</ele><time>2026-04-28T14:38:31.279Z</time></trkpt><trkpt lat="43.6262779" lon="17.2522836"><ele>883.3333333333333</ele><time>2026-04-28T14:38:32.282Z</time></trkpt><trkpt lat="43.6261682" lon="17.2524407"><ele>883.6666666666667</ele><time>2026-04-28T14:38:33.277Z</time></trkpt><trkpt lat="43.6260588" lon="17.2525905"><ele>884.0</ele><time>2026-04-28T14:38:34.278Z</time></trkpt><trkpt lat="43.6259481" lon="17.2527344"><ele>884.3333333333334</ele><time>2026-04-28T14:38:35.281Z</time></trkpt><trkpt lat="43.6258516" lon="17.252883"><ele>884.6666666666667</ele><time>2026-04-28T14:38:36.277Z</time></trkpt><trkpt lat="43.6257373" lon="17.2530347"><ele>885.0</ele><time>2026-04-28T14:38:37.279Z</time></trkpt><trkpt lat="43.6256282" lon="17.2531831"><ele>885.0</ele><time>2026-04-28T14:38:38.278Z</time></trkpt><trkpt lat="43.6255204" lon="17.2533208"><ele>885.0</ele><time>2026-04-28T14:38:39.277Z</time></trkpt><trkpt lat="43.6254188" lon="17.2534604"><ele>885.0</ele><time>2026-04-28T14:38:40.278Z</time></trkpt><trkpt lat="43.6253198" lon="17.2535923"><ele>885.0</ele><time>2026-04-28T14:38:41.278Z</time></trkpt><trkpt lat="43.625226" lon="17.2537205"><ele>884.75</ele><time>2026-04-28T14:38:42.279Z</time></trkpt><trkpt lat="43.6251295" lon="17.2538444"><ele>884.5</ele><time>2026-04-28T14:38:43.279Z</time></trkpt><trkpt lat="43.6250354" lon="17.2539646"><ele>884.25</ele><time>2026-04-28T14:38:44.279Z</time></trkpt><trkpt lat="43.6249459" lon="17.2540823"><ele>884.0</ele><time>2026-04-28T14:38:45.279Z</time></trkpt><trkpt lat="43.6248565" lon="17.2541944"><ele>884.0</ele><time>2026-04-28T14:38:46.278Z</time></trkpt><trkpt lat="43.6247753" lon="17.2543041"><ele>884.0</ele><time>2026-04-28T14:38:47.278Z</time></trkpt><trkpt lat="43.6246914" lon="17.2544161"><ele>884.0</ele><time>2026-04-28T14:38:48.278Z</time></trkpt><trkpt lat="43.6246076" lon="17.2545313"><ele>884.0</ele><time>2026-04-28T14:38:49.277Z</time></trkpt><trkpt lat="43.624525" lon="17.2546452"><ele>884.0</ele><time>2026-04-28T14:38:50.28Z</time></trkpt><trkpt lat="43.62444" lon="17.2547594"><ele>884.0</ele><time>2026-04-28T14:38:51.278Z</time></trkpt><trkpt lat="43.6243547" lon="17.254876"><ele>884.0</ele><time>2026-04-28T14:38:52.284Z</time></trkpt><trkpt lat="43.6242699" lon="17.2549908"><ele>884.0</ele><time>2026-04-28T14:38:53.283Z</time></trkpt><trkpt lat="43.6241789" lon="17.2551099"><ele>884.25</ele><time>2026-04-28T14:38:54.277Z</time></trkpt><trkpt lat="43.6240829" lon="17.2552377"><ele>884.5</ele><time>2026-04-28T14:38:55.278Z</time></trkpt><trkpt lat="43.6239905" lon="17.2553702"><ele>884.75</ele><time>2026-04-28T14:38:56.282Z</time></trkpt><trkpt lat="43.6238909" lon="17.2555065"><ele>885.0</ele><time>2026-04-28T14:38:57.277Z</time></trkpt><trkpt lat="43.6237881" lon="17.2556444"><ele>885.0</ele><time>2026-04-28T14:38:58.279Z</time></trkpt><trkpt lat="43.6236801" lon="17.2557916"><ele>885.0</ele><time>2026-04-28T14:38:59.279Z</time></trkpt><trkpt lat="43.6235689" lon="17.2559381"><ele>885.0</ele><time>2026-04-28T14:39:00.284Z</time></trkpt><trkpt lat="43.6234552" lon="17.2560808"><ele>885.0</ele><time>2026-04-28T14:39:01.276Z</time></trkpt><trkpt lat="43.6233393" lon="17.2562424"><ele>885.0</ele><time>2026-04-28T14:39:02.279Z</time></trkpt><trkpt lat="43.6232237" lon="17.2564002"><ele>885.0</ele><time>2026-04-28T14:39:03.279Z</time></trkpt><trkpt lat="43.6231056" lon="17.2565628"><ele>884.3333333333333</ele><time>2026-04-28T14:39:04.276Z</time></trkpt><trkpt lat="43.6229823" lon="17.2567285"><ele>883.6666666666666</ele><time>2026-04-28T14:39:05.279Z</time></trkpt><trkpt lat="43.6228611" lon="17.2568929"><ele>883.0</ele><time>2026-04-28T14:39:06.277Z</time></trkpt><trkpt lat="43.622738" lon="17.2570576"><ele>884.0</ele><time>2026-04-28T14:39:07.279Z</time></trkpt><trkpt lat="43.6226226" lon="17.2572167"><ele>885.0</ele><time>2026-04-28T14:39:08.277Z</time></trkpt><trkpt lat="43.6225103" lon="17.2573693"><ele>886.0</ele><time>2026-04-28T14:39:09.279Z</time></trkpt><trkpt lat="43.622405" lon="17.2575126"><ele>886.0</ele><time>2026-04-28T14:39:10.281Z</time></trkpt><trkpt lat="43.6222899" lon="17.2576576"><ele>886.0</ele><time>2026-04-28T14:39:11.275Z</time></trkpt><trkpt lat="43.6221884" lon="17.2578031"><ele>886.0</ele><time>2026-04-28T14:39:12.279Z</time></trkpt><trkpt lat="43.6220817" lon="17.2579523"><ele>886.6666666666666</ele><time>2026-04-28T14:39:13.277Z</time></trkpt><trkpt lat="43.6219764" lon="17.2581023"><ele>887.3333333333333</ele><time>2026-04-28T14:39:14.278Z</time></trkpt><trkpt lat="43.6218704" lon="17.2582612"><ele>888.0</ele><time>2026-04-28T14:39:15.276Z</time></trkpt><trkpt lat="43.621764" lon="17.2584116"><ele>888.0</ele><time>2026-04-28T14:39:16.28Z</time></trkpt><trkpt lat="43.6216611" lon="17.258584"><ele>888.0</ele><time>2026-04-28T14:39:17.278Z</time></trkpt><trkpt lat="43.6215501" lon="17.2587694"><ele>888.0</ele><time>2026-04-28T14:39:18.278Z</time></trkpt><trkpt lat="43.6214422" lon="17.2589529"><ele>887.6666666666667</ele><time>2026-04-28T14:39:19.279Z</time></trkpt><trkpt lat="43.6213339" lon="17.2591392"><ele>887.3333333333334</ele><time>2026-04-28T14:39:20.278Z</time></trkpt><trkpt lat="43.6212255" lon="17.2593322"><ele>887.0</ele><time>2026-04-28T14:39:21.277Z</time></trkpt><trkpt lat="43.621115" lon="17.2595286"><ele>887.0</ele><time>2026-04-28T14:39:22.28Z</time></trkpt><trkpt lat="43.6210066" lon="17.2597276"><ele>887.0</ele><time>2026-04-28T14:39:23.279Z</time></trkpt><trkpt lat="43.6208952" lon="17.2599309"><ele>887.0</ele><time>2026-04-28T14:39:24.278Z</time></trkpt><trkpt lat="43.620784" lon="17.2601417"><ele>886.6666666666667</ele><time>2026-04-28T14:39:25.278Z</time></trkpt><trkpt lat="43.6206754" lon="17.2603559"><ele>886.3333333333333</ele><time>2026-04-28T14:39:26.279Z</time></trkpt><trkpt lat="43.6205622" lon="17.260569"><ele>886.0</ele><time>2026-04-28T14:39:27.289Z</time></trkpt><trkpt lat="43.6204437" lon="17.2607969"><ele>886.0</ele><time>2026-04-28T14:39:28.276Z</time></trkpt><trkpt lat="43.6203214" lon="17.2610292"><ele>886.0</ele><time>2026-04-28T14:39:29.278Z</time></trkpt><trkpt lat="43.620199" lon="17.261258"><ele>886.0</ele><time>2026-04-28T14:39:30.279Z</time></trkpt><trkpt lat="43.6200767" lon="17.2614894"><ele>886.6666666666666</ele><time>2026-04-28T14:39:31.276Z</time></trkpt><trkpt lat="43.6199552" lon="17.2617261"><ele>887.3333333333333</ele><time>2026-04-28T14:39:32.277Z</time></trkpt><trkpt lat="43.619829" lon="17.2619638"><ele>888.0</ele><time>2026-04-28T14:39:33.278Z</time></trkpt><trkpt lat="43.6196996" lon="17.2622057"><ele>887.3333333333333</ele><time>2026-04-28T14:39:34.276Z</time></trkpt><trkpt lat="43.6195642" lon="17.2624384"><ele>886.6666666666666</ele><time>2026-04-28T14:39:35.276Z</time></trkpt><trkpt lat="43.6194255" lon="17.2626751"><ele>886.0</ele><time>2026-04-28T14:39:36.278Z</time></trkpt><trkpt lat="43.6192756" lon="17.2629122"><ele>887.5</ele><time>2026-04-28T14:39:37.276Z</time></trkpt><trkpt lat="43.6191125" lon="17.2631408"><ele>889.0</ele><time>2026-04-28T14:39:38.275Z</time></trkpt><trkpt lat="43.6189413" lon="17.2633601"><ele>889.0</ele><time>2026-04-28T14:39:39.275Z</time></trkpt><trkpt lat="43.6187575" lon="17.2635644"><ele>889.0</ele><time>2026-04-28T14:39:40.277Z</time></trkpt><trkpt lat="43.6185667" lon="17.2637583"><ele>890.0</ele><time>2026-04-28T14:39:41.276Z</time></trkpt><trkpt lat="43.6183673" lon="17.263937"><ele>891.0</ele><time>2026-04-28T14:39:42.278Z</time></trkpt><trkpt lat="43.6181575" lon="17.2640911"><ele>889.0</ele><time>2026-04-28T14:39:43.277Z</time></trkpt><trkpt lat="43.6179428" lon="17.2642289"><ele>887.0</ele><time>2026-04-28T14:39:44.275Z</time></trkpt><trkpt lat="43.61772" lon="17.2643528"><ele>887.0</ele><time>2026-04-28T14:39:45.278Z</time></trkpt><trkpt lat="43.6174845" lon="17.2644614"><ele>887.0</ele><time>2026-04-28T14:39:46.278Z</time></trkpt><trkpt lat="43.6172543" lon="17.2645665"><ele>887.0</ele><time>2026-04-28T14:39:47.278Z</time></trkpt><trkpt lat="43.6170214" lon="17.2646689"><ele>887.0</ele><time>2026-04-28T14:39:48.278Z</time></trkpt><trkpt lat="43.6167904" lon="17.2647728"><ele>885.0</ele><time>2026-04-28T14:39:49.277Z</time></trkpt><trkpt lat="43.6165585" lon="17.2648749"><ele>883.0</ele><time>2026-04-28T14:39:50.281Z</time></trkpt><trkpt lat="43.6163355" lon="17.264979"><ele>882.5</ele><time>2026-04-28T14:39:51.277Z</time></trkpt><trkpt lat="43.6161119" lon="17.2650851"><ele>882.0</ele><time>2026-04-28T14:39:52.277Z</time></trkpt><trkpt lat="43.6158972" lon="17.2651859"><ele>882.0</ele><time>2026-04-28T14:39:53.276Z</time></trkpt><trkpt lat="43.6156836" lon="17.2652878"><ele>882.0</ele><time>2026-04-28T14:39:54.279Z</time></trkpt><trkpt lat="43.6154754" lon="17.2653937"><ele>882.0</ele><time>2026-04-28T14:39:55.279Z</time></trkpt><trkpt lat="43.615265" lon="17.2655027"><ele>882.3333333333333</ele><time>2026-04-28T14:39:56.28Z</time></trkpt><trkpt lat="43.6150609" lon="17.2656137"><ele>882.6666666666666</ele><time>2026-04-28T14:39:57.276Z</time></trkpt><trkpt lat="43.6148601" lon="17.2657346"><ele>883.0</ele><time>2026-04-28T14:39:58.278Z</time></trkpt><trkpt lat="43.6146628" lon="17.2658582"><ele>886.0</ele><time>2026-04-28T14:39:59.277Z</time></trkpt><trkpt lat="43.6144684" lon="17.2659899"><ele>889.0</ele><time>2026-04-28T14:40:00.276Z</time></trkpt><trkpt lat="43.6142745" lon="17.2661221"><ele>892.0</ele><time>2026-04-28T14:40:01.277Z</time></trkpt><trkpt lat="43.6140718" lon="17.266253"><ele>892.0</ele><time>2026-04-28T14:40:02.277Z</time></trkpt><trkpt lat="43.6138738" lon="17.2663876"><ele>892.0</ele><time>2026-04-28T14:40:03.276Z</time></trkpt><trkpt lat="43.6136779" lon="17.2665232"><ele>892.0</ele><time>2026-04-28T14:40:04.275Z</time></trkpt><trkpt lat="43.6134704" lon="17.2666558"><ele>888.0</ele><time>2026-04-28T14:40:05.277Z</time></trkpt><trkpt lat="43.6132651" lon="17.2667937"><ele>884.0</ele><time>2026-04-28T14:40:06.278Z</time></trkpt><trkpt lat="43.61306" lon="17.2669336"><ele>884.0</ele><time>2026-04-28T14:40:07.277Z</time></trkpt><trkpt lat="43.6128445" lon="17.26707"><ele>884.0</ele><time>2026-04-28T14:40:08.277Z</time></trkpt><trkpt lat="43.6126473" lon="17.2671947"><ele>883.6666666666667</ele><time>2026-04-28T14:40:09.281Z</time></trkpt><trkpt lat="43.6124697" lon="17.2673058"><ele>883.3333333333333</ele><time>2026-04-28T14:40:10.277Z</time></trkpt><trkpt lat="43.6122947" lon="17.2674091"><ele>883.0</ele><time>2026-04-28T14:40:11.276Z</time></trkpt><trkpt lat="43.6121289" lon="17.2675088"><ele>883.3333333333333</ele><time>2026-04-28T14:40:12.278Z</time></trkpt><trkpt lat="43.6119631" lon="17.2675987"><ele>883.6666666666667</ele><time>2026-04-28T14:40:13.277Z</time></trkpt><trkpt lat="43.6117981" lon="17.2676874"><ele>884.0</ele><time>2026-04-28T14:40:14.277Z</time></trkpt><trkpt lat="43.6116312" lon="17.2677769"><ele>884.0</ele><time>2026-04-28T14:40:15.275Z</time></trkpt><trkpt lat="43.6114709" lon="17.267866"><ele>884.0</ele><time>2026-04-28T14:40:16.277Z</time></trkpt><trkpt lat="43.6113072" lon="17.2679526"><ele>884.0</ele><time>2026-04-28T14:40:17.279Z</time></trkpt><trkpt lat="43.6111509" lon="17.2680378"><ele>884.3333333333334</ele><time>2026-04-28T14:40:18.276Z</time></trkpt><trkpt lat="43.6110049" lon="17.2681216"><ele>884.6666666666667</ele><time>2026-04-28T14:40:19.287Z</time></trkpt><trkpt lat="43.6108656" lon="17.2682043"><ele>885.0</ele><time>2026-04-28T14:40:20.277Z</time></trkpt><trkpt lat="43.6107262" lon="17.2682841"><ele>885.0</ele><time>2026-04-28T14:40:21.276Z</time></trkpt><trkpt lat="43.6105832" lon="17.2683649"><ele>885.0</ele><time>2026-04-28T14:40:22.277Z</time></trkpt><trkpt lat="43.6104403" lon="17.2684479"><ele>885.0</ele><time>2026-04-28T14:40:23.277Z</time></trkpt><trkpt lat="43.6102888" lon="17.268533"><ele>886.0</ele><time>2026-04-28T14:40:24.28Z</time></trkpt><trkpt lat="43.6101466" lon="17.268618"><ele>887.0</ele><time>2026-04-28T14:40:25.284Z</time></trkpt><trkpt lat="43.6100139" lon="17.2687045"><ele>888.0</ele><time>2026-04-28T14:40:26.279Z</time></trkpt><trkpt lat="43.6098827" lon="17.2687956"><ele>889.0</ele><time>2026-04-28T14:40:27.279Z</time></trkpt><trkpt lat="43.6097464" lon="17.2688886"><ele>889.0</ele><time>2026-04-28T14:40:28.278Z</time></trkpt><trkpt lat="43.6096104" lon="17.2689878"><ele>889.0</ele><time>2026-04-28T14:40:29.276Z</time></trkpt><trkpt lat="43.6094767" lon="17.2690933"><ele>889.0</ele><time>2026-04-28T14:40:30.277Z</time></trkpt><trkpt lat="43.6093436" lon="17.2692038"><ele>890.0</ele><time>2026-04-28T14:40:31.276Z</time></trkpt><trkpt lat="43.6092044" lon="17.2693128"><ele>891.0</ele><time>2026-04-28T14:40:32.279Z</time></trkpt><trkpt lat="43.6090734" lon="17.2694151"><ele>892.0</ele><time>2026-04-28T14:40:33.278Z</time></trkpt><trkpt lat="43.6089448" lon="17.2695126"><ele>892.0</ele><time>2026-04-28T14:40:34.277Z</time></trkpt><trkpt lat="43.6088261" lon="17.2696111"><ele>892.0</ele><time>2026-04-28T14:40:35.278Z</time></trkpt><trkpt lat="43.6086987" lon="17.2697126"><ele>892.0</ele><time>2026-04-28T14:40:36.279Z</time></trkpt><trkpt lat="43.6085715" lon="17.269814"><ele>892.0</ele><time>2026-04-28T14:40:37.276Z</time></trkpt><trkpt lat="43.6084513" lon="17.2699154"><ele>891.0</ele><time>2026-04-28T14:40:38.277Z</time></trkpt><trkpt lat="43.6083178" lon="17.2700188"><ele>890.0</ele><time>2026-04-28T14:40:39.278Z</time></trkpt><trkpt lat="43.6081875" lon="17.2701131"><ele>889.0</ele><time>2026-04-28T14:40:40.277Z</time></trkpt><trkpt lat="43.6080522" lon="17.2701982"><ele>888.0</ele><time>2026-04-28T14:40:41.276Z</time></trkpt><trkpt lat="43.6079214" lon="17.2702829"><ele>888.0</ele><time>2026-04-28T14:40:42.279Z</time></trkpt><trkpt lat="43.6077865" lon="17.2703655"><ele>888.0</ele><time>2026-04-28T14:40:43.277Z</time></trkpt><trkpt lat="43.6076504" lon="17.2704516"><ele>888.0</ele><time>2026-04-28T14:40:44.281Z</time></trkpt><trkpt lat="43.6075114" lon="17.270536"><ele>888.0</ele><time>2026-04-28T14:40:45.278Z</time></trkpt><trkpt lat="43.6073722" lon="17.2706258"><ele>888.0</ele><time>2026-04-28T14:40:46.278Z</time></trkpt><trkpt lat="43.6072298" lon="17.2707119"><ele>888.0</ele><time>2026-04-28T14:40:47.277Z</time></trkpt><trkpt lat="43.6070877" lon="17.2708013"><ele>888.0</ele><time>2026-04-28T14:40:48.277Z</time></trkpt><trkpt lat="43.6069547" lon="17.2708807"><ele>888.75</ele><time>2026-04-28T14:40:49.278Z</time></trkpt><trkpt lat="43.6068235" lon="17.2709639"><ele>889.5</ele><time>2026-04-28T14:40:50.278Z</time></trkpt><trkpt lat="43.6066903" lon="17.2710477"><ele>890.25</ele><time>2026-04-28T14:40:51.278Z</time></trkpt><trkpt lat="43.6065569" lon="17.2711316"><ele>891.0</ele><time>2026-04-28T14:40:52.277Z</time></trkpt><trkpt lat="43.6064282" lon="17.2712236"><ele>891.0</ele><time>2026-04-28T14:40:53.279Z</time></trkpt><trkpt lat="43.6062894" lon="17.2713051"><ele>891.0</ele><time>2026-04-28T14:40:54.278Z</time></trkpt><trkpt lat="43.6061495" lon="17.2713877"><ele>891.0</ele><time>2026-04-28T14:40:55.279Z</time></trkpt><trkpt lat="43.6060129" lon="17.2714722"><ele>889.0</ele><time>2026-04-28T14:40:56.277Z</time></trkpt><trkpt lat="43.6058755" lon="17.2715582"><ele>887.0</ele><time>2026-04-28T14:40:57.276Z</time></trkpt><trkpt lat="43.6057354" lon="17.2716369"><ele>885.0</ele><time>2026-04-28T14:40:58.278Z</time></trkpt><trkpt lat="43.6055963" lon="17.271717"><ele>885.0</ele><time>2026-04-28T14:40:59.277Z</time></trkpt><trkpt lat="43.6054559" lon="17.2718001"><ele>885.0</ele><time>2026-04-28T14:41:00.277Z</time></trkpt><trkpt lat="43.6053176" lon="17.2718816"><ele>885.0</ele><time>2026-04-28T14:41:01.278Z</time></trkpt><trkpt lat="43.6051757" lon="17.2719697"><ele>885.6666666666667</ele><time>2026-04-28T14:41:02.277Z</time></trkpt><trkpt lat="43.6050334" lon="17.272056"><ele>886.3333333333334</ele><time>2026-04-28T14:41:03.275Z</time></trkpt><trkpt lat="43.6048916" lon="17.2721437"><ele>887.0</ele><time>2026-04-28T14:41:04.277Z</time></trkpt><trkpt lat="43.6047489" lon="17.2722357"><ele>886.3333333333334</ele><time>2026-04-28T14:41:05.276Z</time></trkpt><trkpt lat="43.6045997" lon="17.2723225"><ele>885.6666666666667</ele><time>2026-04-28T14:41:06.276Z</time></trkpt><trkpt lat="43.6044488" lon="17.272409"><ele>885.0</ele><time>2026-04-28T14:41:07.277Z</time></trkpt><trkpt lat="43.6043046" lon="17.2724998"><ele>885.0</ele><time>2026-04-28T14:41:08.277Z</time></trkpt><trkpt lat="43.6041557" lon="17.2725901"><ele>885.0</ele><time>2026-04-28T14:41:09.279Z</time></trkpt><trkpt lat="43.6039983" lon="17.2726795"><ele>885.0</ele><time>2026-04-28T14:41:10.278Z</time></trkpt><trkpt lat="43.6038416" lon="17.2727699"><ele>885.0</ele><time>2026-04-28T14:41:11.277Z</time></trkpt><trkpt lat="43.6036816" lon="17.272853"><ele>885.0</ele><time>2026-04-28T14:41:12.276Z</time></trkpt><trkpt lat="43.6035182" lon="17.2729384"><ele>885.0</ele><time>2026-04-28T14:41:13.28Z</time></trkpt><trkpt lat="43.6033627" lon="17.2730204"><ele>884.0</ele><time>2026-04-28T14:41:14.277Z</time></trkpt><trkpt lat="43.6032053" lon="17.2730995"><ele>883.0</ele><time>2026-04-28T14:41:15.277Z</time></trkpt><trkpt lat="43.6030506" lon="17.273174"><ele>882.0</ele><time>2026-04-28T14:41:16.277Z</time></trkpt><trkpt lat="43.6028907" lon="17.2732454"><ele>883.0</ele><time>2026-04-28T14:41:17.276Z</time></trkpt><trkpt lat="43.6027376" lon="17.273316"><ele>884.0</ele><time>2026-04-28T14:41:18.278Z</time></trkpt><trkpt lat="43.6025875" lon="17.2733791"><ele>885.0</ele><time>2026-04-28T14:41:19.275Z</time></trkpt><trkpt lat="43.6024418" lon="17.2734346"><ele>885.0</ele><time>2026-04-28T14:41:20.278Z</time></trkpt><trkpt lat="43.6022921" lon="17.2734801"><ele>885.0</ele><time>2026-04-28T14:41:21.278Z</time></trkpt><trkpt lat="43.6021438" lon="17.2735214"><ele>885.0</ele><time>2026-04-28T14:41:22.277Z</time></trkpt><trkpt lat="43.6019925" lon="17.2735636"><ele>885.0</ele><time>2026-04-28T14:41:23.279Z</time></trkpt><trkpt lat="43.6018422" lon="17.2735985"><ele>885.0</ele><time>2026-04-28T14:41:24.274Z</time></trkpt><trkpt lat="43.6016921" lon="17.2736362"><ele>885.0</ele><time>2026-04-28T14:41:25.276Z</time></trkpt><trkpt lat="43.601541" lon="17.2736713"><ele>885.0</ele><time>2026-04-28T14:41:26.278Z</time></trkpt><trkpt lat="43.6013855" lon="17.2737046"><ele>885.0</ele><time>2026-04-28T14:41:27.277Z</time></trkpt><trkpt lat="43.6012286" lon="17.2737349"><ele>885.0</ele><time>2026-04-28T14:41:28.275Z</time></trkpt><trkpt lat="43.6010701" lon="17.2737684"><ele>886.3333333333333</ele><time>2026-04-28T14:41:29.275Z</time></trkpt><trkpt lat="43.6009163" lon="17.2738049"><ele>887.6666666666666</ele><time>2026-04-28T14:41:30.281Z</time></trkpt><trkpt lat="43.6007539" lon="17.2738353"><ele>889.0</ele><time>2026-04-28T14:41:31.278Z</time></trkpt><trkpt lat="43.6005987" lon="17.2738634"><ele>889.0</ele><time>2026-04-28T14:41:32.276Z</time></trkpt><trkpt lat="43.6004386" lon="17.2738909"><ele>889.0</ele><time>2026-04-28T14:41:33.28Z</time></trkpt><trkpt lat="43.6002721" lon="17.2739096"><ele>889.0</ele><time>2026-04-28T14:41:34.278Z</time></trkpt><trkpt lat="43.6001017" lon="17.2739239"><ele>889.0</ele><time>2026-04-28T14:41:35.281Z</time></trkpt><trkpt lat="43.5999344" lon="17.2739316"><ele>889.0</ele><time>2026-04-28T14:41:36.279Z</time></trkpt><trkpt lat="43.599772" lon="17.2739378"><ele>889.0</ele><time>2026-04-28T14:41:37.28Z</time></trkpt><trkpt lat="43.5996171" lon="17.2739386"><ele>888.3333333333333</ele><time>2026-04-28T14:41:38.279Z</time></trkpt><trkpt lat="43.5994605" lon="17.2739392"><ele>887.6666666666667</ele><time>2026-04-28T14:41:39.278Z</time></trkpt><trkpt lat="43.5993042" lon="17.2739379"><ele>887.0</ele><time>2026-04-28T14:41:40.281Z</time></trkpt><trkpt lat="43.5991397" lon="17.2739321"><ele>887.0</ele><time>2026-04-28T14:41:41.277Z</time></trkpt><trkpt lat="43.5989764" lon="17.2739295"><ele>887.0</ele><time>2026-04-28T14:41:42.28Z</time></trkpt><trkpt lat="43.5988093" lon="17.273931"><ele>887.0</ele><time>2026-04-28T14:41:43.285Z</time></trkpt><trkpt lat="43.5986463" lon="17.273928"><ele>885.6666666666667</ele><time>2026-04-28T14:41:44.278Z</time></trkpt><trkpt lat="43.5984791" lon="17.2739277"><ele>884.3333333333333</ele><time>2026-04-28T14:41:45.278Z</time></trkpt><trkpt lat="43.5983107" lon="17.2739277"><ele>883.0</ele><time>2026-04-28T14:41:46.278Z</time></trkpt><trkpt lat="43.5981401" lon="17.2739258"><ele>883.0</ele><time>2026-04-28T14:41:47.274Z</time></trkpt><trkpt lat="43.5979738" lon="17.2739222"><ele>883.0</ele><time>2026-04-28T14:41:48.279Z</time></trkpt><trkpt lat="43.5978105" lon="17.2739254"><ele>883.0</ele><time>2026-04-28T14:41:49.277Z</time></trkpt><trkpt lat="43.5976527" lon="17.2739201"><ele>885.0</ele><time>2026-04-28T14:41:50.276Z</time></trkpt><trkpt lat="43.5974989" lon="17.2739188"><ele>887.0</ele><time>2026-04-28T14:41:51.278Z</time></trkpt><trkpt lat="43.5973473" lon="17.2739176"><ele>889.0</ele><time>2026-04-28T14:41:52.276Z</time></trkpt><trkpt lat="43.5971951" lon="17.2739107"><ele>889.0</ele><time>2026-04-28T14:41:53.279Z</time></trkpt><trkpt lat="43.5970375" lon="17.2739014"><ele>889.0</ele><time>2026-04-28T14:41:54.275Z</time></trkpt><trkpt lat="43.5968731" lon="17.2738813"><ele>889.0</ele><time>2026-04-28T14:41:55.276Z</time></trkpt><trkpt lat="43.5967027" lon="17.2738552"><ele>889.0</ele><time>2026-04-28T14:41:56.278Z</time></trkpt><trkpt lat="43.5965271" lon="17.2738245"><ele>889.0</ele><time>2026-04-28T14:41:57.278Z</time></trkpt><trkpt lat="43.5963586" lon="17.2737791"><ele>889.0</ele><time>2026-04-28T14:41:58.276Z</time></trkpt><trkpt lat="43.5961873" lon="17.2737158"><ele>888.0</ele><time>2026-04-28T14:41:59.279Z</time></trkpt><trkpt lat="43.5960135" lon="17.2736412"><ele>887.0</ele><time>2026-04-28T14:42:00.278Z</time></trkpt><trkpt lat="43.5958431" lon="17.2735681"><ele>886.0</ele><time>2026-04-28T14:42:01.279Z</time></trkpt><trkpt lat="43.5956821" lon="17.2735"><ele>886.0</ele><time>2026-04-28T14:42:02.281Z</time></trkpt><trkpt lat="43.5955317" lon="17.273435"><ele>886.0</ele><time>2026-04-28T14:42:03.281Z</time></trkpt><trkpt lat="43.5953858" lon="17.2733712"><ele>886.0</ele><time>2026-04-28T14:42:04.277Z</time></trkpt><trkpt lat="43.5952515" lon="17.2733206"><ele>885.5</ele><time>2026-04-28T14:42:05.277Z</time></trkpt><trkpt lat="43.5951182" lon="17.2732691"><ele>885.0</ele><time>2026-04-28T14:42:06.277Z</time></trkpt><trkpt lat="43.5949879" lon="17.273222"><ele>884.5</ele><time>2026-04-28T14:42:07.278Z</time></trkpt><trkpt lat="43.5948526" lon="17.2731866"><ele>884.0</ele><time>2026-04-28T14:42:08.278Z</time></trkpt><trkpt lat="43.5947181" lon="17.2731608"><ele>884.0</ele><time>2026-04-28T14:42:09.278Z</time></trkpt><trkpt lat="43.5945819" lon="17.2731354"><ele>884.0</ele><time>2026-04-28T14:42:10.277Z</time></trkpt><trkpt lat="43.5944402" lon="17.2731083"><ele>884.0</ele><time>2026-04-28T14:42:11.278Z</time></trkpt><trkpt lat="43.5942953" lon="17.2730898"><ele>884.0</ele><time>2026-04-28T14:42:12.277Z</time></trkpt><trkpt lat="43.5941484" lon="17.2730801"><ele>884.0</ele><time>2026-04-28T14:42:13.278Z</time></trkpt><trkpt lat="43.5940021" lon="17.2730783"><ele>884.0</ele><time>2026-04-28T14:42:14.277Z</time></trkpt><trkpt lat="43.5938601" lon="17.2730847"><ele>884.0</ele><time>2026-04-28T14:42:15.277Z</time></trkpt><trkpt lat="43.5937188" lon="17.2730953"><ele>884.0</ele><time>2026-04-28T14:42:16.278Z</time></trkpt><trkpt lat="43.593585" lon="17.2731145"><ele>884.0</ele><time>2026-04-28T14:42:17.278Z</time></trkpt><trkpt lat="43.5934534" lon="17.2731361"><ele>884.0</ele><time>2026-04-28T14:42:18.279Z</time></trkpt><trkpt lat="43.5933284" lon="17.2731555"><ele>884.0</ele><time>2026-04-28T14:42:19.277Z</time></trkpt><trkpt lat="43.5932021" lon="17.2731742"><ele>884.0</ele><time>2026-04-28T14:42:20.277Z</time></trkpt><trkpt lat="43.5930709" lon="17.2732025"><ele>884.0</ele><time>2026-04-28T14:42:21.277Z</time></trkpt><trkpt lat="43.59294" lon="17.2732332"><ele>884.0</ele><time>2026-04-28T14:42:22.278Z</time></trkpt><trkpt lat="43.592805" lon="17.2732675"><ele>884.0</ele><time>2026-04-28T14:42:23.278Z</time></trkpt><trkpt lat="43.5926683" lon="17.2732995"><ele>884.0</ele><time>2026-04-28T14:42:24.277Z</time></trkpt><trkpt lat="43.5925403" lon="17.2733361"><ele>884.0</ele><time>2026-04-28T14:42:25.277Z</time></trkpt><trkpt lat="43.592413" lon="17.2733696"><ele>884.0</ele><time>2026-04-28T14:42:26.276Z</time></trkpt><trkpt lat="43.5922856" lon="17.2734025"><ele>884.0</ele><time>2026-04-28T14:42:27.276Z</time></trkpt><trkpt lat="43.5921487" lon="17.2734314"><ele>884.0</ele><time>2026-04-28T14:42:28.278Z</time></trkpt><trkpt lat="43.5920112" lon="17.2734683"><ele>886.0</ele><time>2026-04-28T14:42:29.275Z</time></trkpt><trkpt lat="43.5918763" lon="17.2735039"><ele>888.0</ele><time>2026-04-28T14:42:30.274Z</time></trkpt><trkpt lat="43.5917389" lon="17.2735425"><ele>890.0</ele><time>2026-04-28T14:42:31.277Z</time></trkpt><trkpt lat="43.5916065" lon="17.2735726"><ele>892.0</ele><time>2026-04-28T14:42:32.276Z</time></trkpt><trkpt lat="43.5914815" lon="17.2736072"><ele>892.0</ele><time>2026-04-28T14:42:33.277Z</time></trkpt><trkpt lat="43.591355" lon="17.2736429"><ele>892.0</ele><time>2026-04-28T14:42:34.276Z</time></trkpt><trkpt lat="43.591232" lon="17.2736762"><ele>892.0</ele><time>2026-04-28T14:42:35.276Z</time></trkpt><trkpt lat="43.5911044" lon="17.2737112"><ele>892.0</ele><time>2026-04-28T14:42:36.276Z</time></trkpt><trkpt lat="43.5909885" lon="17.273746"><ele>892.75</ele><time>2026-04-28T14:42:37.276Z</time></trkpt><trkpt lat="43.5908757" lon="17.2737816"><ele>893.5</ele><time>2026-04-28T14:42:38.275Z</time></trkpt><trkpt lat="43.5907666" lon="17.2738222"><ele>894.25</ele><time>2026-04-28T14:42:39.274Z</time></trkpt><trkpt lat="43.5906562" lon="17.2738577"><ele>895.0</ele><time>2026-04-28T14:42:40.277Z</time></trkpt><trkpt lat="43.5905424" lon="17.2739062"><ele>895.25</ele><time>2026-04-28T14:42:41.276Z</time></trkpt><trkpt lat="43.5904384" lon="17.2739573"><ele>895.5</ele><time>2026-04-28T14:42:42.277Z</time></trkpt><trkpt lat="43.5903376" lon="17.2740136"><ele>895.75</ele><time>2026-04-28T14:42:43.279Z</time></trkpt><trkpt lat="43.5902349" lon="17.2740794"><ele>896.0</ele><time>2026-04-28T14:42:44.277Z</time></trkpt><trkpt lat="43.5901296" lon="17.2741542"><ele>896.0</ele><time>2026-04-28T14:42:45.275Z</time></trkpt><trkpt lat="43.5900249" lon="17.2742308"><ele>896.0</ele><time>2026-04-28T14:42:46.276Z</time></trkpt><trkpt lat="43.5899164" lon="17.2743177"><ele>896.0</ele><time>2026-04-28T14:42:47.277Z</time></trkpt><trkpt lat="43.5898097" lon="17.2744084"><ele>896.0</ele><time>2026-04-28T14:42:48.277Z</time></trkpt><trkpt lat="43.5897059" lon="17.2745092"><ele>896.0</ele><time>2026-04-28T14:42:49.275Z</time></trkpt><trkpt lat="43.5896004" lon="17.2746148"><ele>896.0</ele><time>2026-04-28T14:42:50.273Z</time></trkpt><trkpt lat="43.5894975" lon="17.2747306"><ele>896.0</ele><time>2026-04-28T14:42:51.275Z</time></trkpt><trkpt lat="43.5893982" lon="17.2748475"><ele>896.0</ele><time>2026-04-28T14:42:52.278Z</time></trkpt><trkpt lat="43.5892987" lon="17.2749713"><ele>894.5</ele><time>2026-04-28T14:42:53.277Z</time></trkpt><trkpt lat="43.5892021" lon="17.2750974"><ele>893.0</ele><time>2026-04-28T14:42:54.279Z</time></trkpt><trkpt lat="43.5891103" lon="17.2752307"><ele>891.5</ele><time>2026-04-28T14:42:55.276Z</time></trkpt><trkpt lat="43.5890167" lon="17.2753638"><ele>890.0</ele><time>2026-04-28T14:42:56.277Z</time></trkpt><trkpt lat="43.5889273" lon="17.275497"><ele>890.25</ele><time>2026-04-28T14:42:57.278Z</time></trkpt><trkpt lat="43.5888413" lon="17.2756228"><ele>890.5</ele><time>2026-04-28T14:42:58.277Z</time></trkpt><trkpt lat="43.5887593" lon="17.2757462"><ele>890.75</ele><time>2026-04-28T14:42:59.278Z</time></trkpt><trkpt lat="43.5886758" lon="17.275872"><ele>891.0</ele><time>2026-04-28T14:43:00.276Z</time></trkpt><trkpt lat="43.5885967" lon="17.2759953"><ele>891.0</ele><time>2026-04-28T14:43:01.276Z</time></trkpt><trkpt lat="43.5885127" lon="17.2761157"><ele>891.0</ele><time>2026-04-28T14:43:02.277Z</time></trkpt><trkpt lat="43.5884277" lon="17.2762438"><ele>891.0</ele><time>2026-04-28T14:43:03.276Z</time></trkpt><trkpt lat="43.5883471" lon="17.2763721"><ele>891.0</ele><time>2026-04-28T14:43:04.277Z</time></trkpt><trkpt lat="43.5882626" lon="17.2765148"><ele>891.0</ele><time>2026-04-28T14:43:05.277Z</time></trkpt><trkpt lat="43.5881823" lon="17.2766583"><ele>891.0</ele><time>2026-04-28T14:43:06.277Z</time></trkpt><trkpt lat="43.5880958" lon="17.276823"><ele>891.0</ele><time>2026-04-28T14:43:07.277Z</time></trkpt><trkpt lat="43.5880076" lon="17.2769922"><ele>891.0</ele><time>2026-04-28T14:43:08.277Z</time></trkpt><trkpt lat="43.5879095" lon="17.2771873"><ele>893.3333333333333</ele><time>2026-04-28T14:43:09.276Z</time></trkpt><trkpt lat="43.5878243" lon="17.2773823"><ele>895.6666666666666</ele><time>2026-04-28T14:43:10.277Z</time></trkpt><trkpt lat="43.587744" lon="17.2775844"><ele>898.0</ele><time>2026-04-28T14:43:11.275Z</time></trkpt><trkpt lat="43.5876638" lon="17.2777732"><ele>898.0</ele><time>2026-04-28T14:43:12.277Z</time></trkpt><trkpt lat="43.5875962" lon="17.2779508"><ele>898.0</ele><time>2026-04-28T14:43:13.276Z</time></trkpt><trkpt lat="43.5875297" lon="17.2781331"><ele>898.0</ele><time>2026-04-28T14:43:14.277Z</time></trkpt><trkpt lat="43.587466" lon="17.2783166"><ele>898.0</ele><time>2026-04-28T14:43:15.275Z</time></trkpt><trkpt lat="43.5874114" lon="17.278512"><ele>898.6666666666666</ele><time>2026-04-28T14:43:16.278Z</time></trkpt><trkpt lat="43.587355" lon="17.2786955"><ele>899.3333333333333</ele><time>2026-04-28T14:43:17.278Z</time></trkpt><trkpt lat="43.5873016" lon="17.2788956"><ele>900.0</ele><time>2026-04-28T14:43:18.278Z</time></trkpt><trkpt lat="43.5872539" lon="17.2790967"><ele>900.0</ele><time>2026-04-28T14:43:19.276Z</time></trkpt><trkpt lat="43.5872059" lon="17.2792844"><ele>900.0</ele><time>2026-04-28T14:43:20.279Z</time></trkpt><trkpt lat="43.5871567" lon="17.2794663"><ele>900.0</ele><time>2026-04-28T14:43:21.277Z</time></trkpt><trkpt lat="43.5871108" lon="17.279648"><ele>900.0</ele><time>2026-04-28T14:43:22.278Z</time></trkpt><trkpt lat="43.5870548" lon="17.2798418"><ele>902.0</ele><time>2026-04-28T14:43:23.276Z</time></trkpt><trkpt lat="43.5870021" lon="17.2800389"><ele>904.0</ele><time>2026-04-28T14:43:24.277Z</time></trkpt><trkpt lat="43.5869474" lon="17.2802458"><ele>906.0</ele><time>2026-04-28T14:43:25.275Z</time></trkpt><trkpt lat="43.5868863" lon="17.2804561"><ele>906.0</ele><time>2026-04-28T14:43:26.276Z</time></trkpt><trkpt lat="43.5868277" lon="17.280651"><ele>906.0</ele><time>2026-04-28T14:43:27.275Z</time></trkpt><trkpt lat="43.5867743" lon="17.2808439"><ele>906.0</ele><time>2026-04-28T14:43:28.277Z</time></trkpt><trkpt lat="43.5867203" lon="17.2810363"><ele>906.0</ele><time>2026-04-28T14:43:29.275Z</time></trkpt><trkpt lat="43.5866679" lon="17.2812268"><ele>906.0</ele><time>2026-04-28T14:43:30.276Z</time></trkpt><trkpt lat="43.5866104" lon="17.2814239"><ele>906.0</ele><time>2026-04-28T14:43:31.276Z</time></trkpt><trkpt lat="43.5865528" lon="17.281616"><ele>905.0</ele><time>2026-04-28T14:43:32.275Z</time></trkpt><trkpt lat="43.5864928" lon="17.2818039"><ele>904.0</ele><time>2026-04-28T14:43:33.277Z</time></trkpt><trkpt lat="43.5864299" lon="17.281987"><ele>903.0</ele><time>2026-04-28T14:43:34.278Z</time></trkpt><trkpt lat="43.5863697" lon="17.2821567"><ele>902.0</ele><time>2026-04-28T14:43:35.277Z</time></trkpt><trkpt lat="43.5863088" lon="17.2823143"><ele>901.75</ele><time>2026-04-28T14:43:36.277Z</time></trkpt><trkpt lat="43.5862459" lon="17.2824657"><ele>901.5</ele><time>2026-04-28T14:43:37.276Z</time></trkpt><trkpt lat="43.5861757" lon="17.2826122"><ele>901.25</ele><time>2026-04-28T14:43:38.276Z</time></trkpt><trkpt lat="43.5861006" lon="17.2827692"><ele>901.0</ele><time>2026-04-28T14:43:39.277Z</time></trkpt><trkpt lat="43.5860279" lon="17.2829196"><ele>900.5</ele><time>2026-04-28T14:43:40.277Z</time></trkpt><trkpt lat="43.5859564" lon="17.2830823"><ele>900.0</ele><time>2026-04-28T14:43:41.276Z</time></trkpt><trkpt lat="43.5858867" lon="17.28326"><ele>899.5</ele><time>2026-04-28T14:43:42.277Z</time></trkpt><trkpt lat="43.585816" lon="17.2834474"><ele>899.0</ele><time>2026-04-28T14:43:43.276Z</time></trkpt><trkpt lat="43.5857479" lon="17.2836493"><ele>899.0</ele><time>2026-04-28T14:43:44.276Z</time></trkpt><trkpt lat="43.5856743" lon="17.2838529"><ele>899.0</ele><time>2026-04-28T14:43:45.277Z</time></trkpt><trkpt lat="43.585612" lon="17.2840707"><ele>899.0</ele><time>2026-04-28T14:43:46.274Z</time></trkpt><trkpt lat="43.5855567" lon="17.2842766"><ele>898.0</ele><time>2026-04-28T14:43:47.277Z</time></trkpt><trkpt lat="43.5855099" lon="17.2844885"><ele>897.0</ele><time>2026-04-28T14:43:48.276Z</time></trkpt><trkpt lat="43.5854617" lon="17.2846955"><ele>896.0</ele><time>2026-04-28T14:43:49.276Z</time></trkpt><trkpt lat="43.5854172" lon="17.2849079"><ele>895.6666666666667</ele><time>2026-04-28T14:43:50.277Z</time></trkpt><trkpt lat="43.5853662" lon="17.2851178"><ele>895.3333333333333</ele><time>2026-04-28T14:43:51.283Z</time></trkpt><trkpt lat="43.5853141" lon="17.2853164"><ele>895.0</ele><time>2026-04-28T14:43:52.274Z</time></trkpt><trkpt lat="43.585256" lon="17.2855102"><ele>895.5</ele><time>2026-04-28T14:43:53.276Z</time></trkpt><trkpt lat="43.5851958" lon="17.2857011"><ele>896.0</ele><time>2026-04-28T14:43:54.277Z</time></trkpt><trkpt lat="43.5851341" lon="17.2858831"><ele>896.5</ele><time>2026-04-28T14:43:55.276Z</time></trkpt><trkpt lat="43.5850568" lon="17.2860558"><ele>897.0</ele><time>2026-04-28T14:43:56.294Z</time></trkpt><trkpt lat="43.5849743" lon="17.2862242"><ele>897.0</ele><time>2026-04-28T14:43:57.275Z</time></trkpt><trkpt lat="43.5848738" lon="17.2863953"><ele>897.0</ele><time>2026-04-28T14:43:58.274Z</time></trkpt><trkpt lat="43.5847714" lon="17.2865518"><ele>897.0</ele><time>2026-04-28T14:43:59.276Z</time></trkpt><trkpt lat="43.5846576" lon="17.2866929"><ele>897.0</ele><time>2026-04-28T14:44:00.273Z</time></trkpt><trkpt lat="43.5845397" lon="17.2868231"><ele>897.0</ele><time>2026-04-28T14:44:01.275Z</time></trkpt><trkpt lat="43.5844123" lon="17.2869426"><ele>897.0</ele><time>2026-04-28T14:44:02.275Z</time></trkpt><trkpt lat="43.584274" lon="17.2870527"><ele>899.3333333333333</ele><time>2026-04-28T14:44:03.275Z</time></trkpt><trkpt lat="43.5841306" lon="17.2871509"><ele>901.6666666666666</ele><time>2026-04-28T14:44:04.275Z</time></trkpt><trkpt lat="43.5839855" lon="17.2872333"><ele>904.0</ele><time>2026-04-28T14:44:05.277Z</time></trkpt><trkpt lat="43.5838384" lon="17.2872928"><ele>904.0</ele><time>2026-04-28T14:44:06.275Z</time></trkpt><trkpt lat="43.58369" lon="17.2873346"><ele>904.0</ele><time>2026-04-28T14:44:07.277Z</time></trkpt><trkpt lat="43.5835383" lon="17.2873463"><ele>904.0</ele><time>2026-04-28T14:44:08.274Z</time></trkpt><trkpt lat="43.583382" lon="17.2873183"><ele>905.6666666666666</ele><time>2026-04-28T14:44:09.274Z</time></trkpt><trkpt lat="43.5832301" lon="17.2872602"><ele>907.3333333333333</ele><time>2026-04-28T14:44:10.277Z</time></trkpt><trkpt lat="43.5830827" lon="17.2871791"><ele>909.0</ele><time>2026-04-28T14:44:11.274Z</time></trkpt><trkpt lat="43.582932" lon="17.2870786"><ele>908.6666666666667</ele><time>2026-04-28T14:44:12.277Z</time></trkpt><trkpt lat="43.5827903" lon="17.28696"><ele>908.3333333333334</ele><time>2026-04-28T14:44:13.277Z</time></trkpt><trkpt lat="43.5826494" lon="17.2868334"><ele>908.0</ele><time>2026-04-28T14:44:14.276Z</time></trkpt><trkpt lat="43.5825199" lon="17.2866925"><ele>908.0</ele><time>2026-04-28T14:44:15.277Z</time></trkpt><trkpt lat="43.5823994" lon="17.2865364"><ele>908.0</ele><time>2026-04-28T14:44:16.279Z</time></trkpt><trkpt lat="43.5822788" lon="17.2863836"><ele>908.0</ele><time>2026-04-28T14:44:17.277Z</time></trkpt><trkpt lat="43.5821534" lon="17.2862492"><ele>908.3333333333334</ele><time>2026-04-28T14:44:18.276Z</time></trkpt><trkpt lat="43.5820196" lon="17.2861283"><ele>908.6666666666667</ele><time>2026-04-28T14:44:19.275Z</time></trkpt><trkpt lat="43.5818812" lon="17.2860188"><ele>909.0</ele><time>2026-04-28T14:44:20.277Z</time></trkpt><trkpt lat="43.5817259" lon="17.2859216"><ele>909.0</ele><time>2026-04-28T14:44:21.275Z</time></trkpt><trkpt lat="43.5815697" lon="17.2858459"><ele>909.0</ele><time>2026-04-28T14:44:22.275Z</time></trkpt><trkpt lat="43.5814082" lon="17.2857889"><ele>909.0</ele><time>2026-04-28T14:44:23.275Z</time></trkpt><trkpt lat="43.5812245" lon="17.2857581"><ele>908.0</ele><time>2026-04-28T14:44:24.275Z</time></trkpt><trkpt lat="43.5810295" lon="17.2857354"><ele>907.0</ele><time>2026-04-28T14:44:25.276Z</time></trkpt><trkpt lat="43.5808172" lon="17.2857148"><ele>906.0</ele><time>2026-04-28T14:44:26.277Z</time></trkpt><trkpt lat="43.5805924" lon="17.285697"><ele>906.0</ele><time>2026-04-28T14:44:27.276Z</time></trkpt><trkpt lat="43.580347" lon="17.2856745"><ele>906.0</ele><time>2026-04-28T14:44:28.278Z</time></trkpt><trkpt lat="43.5801071" lon="17.2856601"><ele>906.0</ele><time>2026-04-28T14:44:29.276Z</time></trkpt><trkpt lat="43.5798814" lon="17.2856441"><ele>906.0</ele><time>2026-04-28T14:44:30.277Z</time></trkpt><trkpt lat="43.5796658" lon="17.2856202"><ele>906.0</ele><time>2026-04-28T14:44:31.28Z</time></trkpt><trkpt lat="43.5794568" lon="17.2855979"><ele>907.0</ele><time>2026-04-28T14:44:32.278Z</time></trkpt><trkpt lat="43.5792494" lon="17.2855549"><ele>908.0</ele><time>2026-04-28T14:44:33.277Z</time></trkpt><trkpt lat="43.5790459" lon="17.2854985"><ele>909.0</ele><time>2026-04-28T14:44:34.278Z</time></trkpt><trkpt lat="43.5788456" lon="17.2854343"><ele>909.6666666666667</ele><time>2026-04-28T14:44:35.277Z</time></trkpt><trkpt lat="43.5786543" lon="17.2853566"><ele>910.3333333333334</ele><time>2026-04-28T14:44:36.279Z</time></trkpt><trkpt lat="43.5784653" lon="17.2852738"><ele>911.0</ele><time>2026-04-28T14:44:37.276Z</time></trkpt><trkpt lat="43.5782776" lon="17.2851877"><ele>911.0</ele><time>2026-04-28T14:44:38.278Z</time></trkpt><trkpt lat="43.5780907" lon="17.2851026"><ele>911.0</ele><time>2026-04-28T14:44:39.276Z</time></trkpt><trkpt lat="43.5779013" lon="17.2850304"><ele>911.0</ele><time>2026-04-28T14:44:40.275Z</time></trkpt><trkpt lat="43.5777153" lon="17.2849713"><ele>912.3333333333334</ele><time>2026-04-28T14:44:41.277Z</time></trkpt><trkpt lat="43.5775261" lon="17.2849226"><ele>913.6666666666667</ele><time>2026-04-28T14:44:42.276Z</time></trkpt><trkpt lat="43.5773339" lon="17.2848738"><ele>915.0</ele><time>2026-04-28T14:44:43.277Z</time></trkpt><trkpt lat="43.577141" lon="17.2848386"><ele>916.0</ele><time>2026-04-28T14:44:44.28Z</time></trkpt><trkpt lat="43.5769388" lon="17.2848162"><ele>917.0</ele><time>2026-04-28T14:44:45.276Z</time></trkpt><trkpt lat="43.5767396" lon="17.2848055"><ele>918.0</ele><time>2026-04-28T14:44:46.277Z</time></trkpt><trkpt lat="43.5765327" lon="17.2848053"><ele>918.0</ele><time>2026-04-28T14:44:47.274Z</time></trkpt><trkpt lat="43.5763186" lon="17.2848177"><ele>918.0</ele><time>2026-04-28T14:44:48.276Z</time></trkpt><trkpt lat="43.5761052" lon="17.2848345"><ele>918.0</ele><time>2026-04-28T14:44:49.275Z</time></trkpt><trkpt lat="43.5758852" lon="17.2848568"><ele>917.3333333333333</ele><time>2026-04-28T14:44:50.282Z</time></trkpt><trkpt lat="43.5756647" lon="17.2848828"><ele>916.6666666666666</ele><time>2026-04-28T14:44:51.276Z</time></trkpt><trkpt lat="43.5754443" lon="17.2849016"><ele>916.0</ele><time>2026-04-28T14:44:52.278Z</time></trkpt><trkpt lat="43.5752243" lon="17.284919"><ele>914.6666666666666</ele><time>2026-04-28T14:44:53.278Z</time></trkpt><trkpt lat="43.5749985" lon="17.284929"><ele>913.3333333333333</ele><time>2026-04-28T14:44:54.274Z</time></trkpt><trkpt lat="43.5747791" lon="17.2849412"><ele>912.0</ele><time>2026-04-28T14:44:55.277Z</time></trkpt><trkpt lat="43.5745536" lon="17.2849506"><ele>912.3333333333333</ele><time>2026-04-28T14:44:56.279Z</time></trkpt><trkpt lat="43.5743314" lon="17.2849596"><ele>912.6666666666666</ele><time>2026-04-28T14:44:57.278Z</time></trkpt><trkpt lat="43.5741109" lon="17.284961"><ele>913.0</ele><time>2026-04-28T14:44:58.276Z</time></trkpt><trkpt lat="43.5738913" lon="17.2849601"><ele>913.6666666666666</ele><time>2026-04-28T14:44:59.276Z</time></trkpt><trkpt lat="43.5736745" lon="17.2849564"><ele>914.3333333333333</ele><time>2026-04-28T14:45:00.29Z</time></trkpt><trkpt lat="43.5734583" lon="17.2849504"><ele>915.0</ele><time>2026-04-28T14:45:01.277Z</time></trkpt><trkpt lat="43.5732458" lon="17.2849448"><ele>915.0</ele><time>2026-04-28T14:45:02.288Z</time></trkpt><trkpt lat="43.5730373" lon="17.2849298"><ele>915.0</ele><time>2026-04-28T14:45:03.278Z</time></trkpt><trkpt lat="43.5728293" lon="17.2849237"><ele>915.0</ele><time>2026-04-28T14:45:04.278Z</time></trkpt><trkpt lat="43.5726246" lon="17.2849163"><ele>916.6666666666667</ele><time>2026-04-28T14:45:05.289Z</time></trkpt><trkpt lat="43.5724196" lon="17.2849039"><ele>918.3333333333334</ele><time>2026-04-28T14:45:06.275Z</time></trkpt><trkpt lat="43.5722137" lon="17.2849063"><ele>920.0</ele><time>2026-04-28T14:45:07.276Z</time></trkpt><trkpt lat="43.57202" lon="17.2849105"><ele>923.3333333333334</ele><time>2026-04-28T14:45:08.277Z</time></trkpt><trkpt lat="43.5718212" lon="17.2849185"><ele>926.6666666666667</ele><time>2026-04-28T14:45:09.278Z</time></trkpt><trkpt lat="43.5716246" lon="17.2849412"><ele>930.0</ele><time>2026-04-28T14:45:10.275Z</time></trkpt><trkpt lat="43.5714446" lon="17.2849741"><ele>930.0</ele><time>2026-04-28T14:45:11.275Z</time></trkpt><trkpt lat="43.5712666" lon="17.2850136"><ele>930.0</ele><time>2026-04-28T14:45:12.278Z</time></trkpt><trkpt lat="43.5710947" lon="17.2850751"><ele>930.0</ele><time>2026-04-28T14:45:13.276Z</time></trkpt><trkpt lat="43.570936" lon="17.2851269"><ele>932.2</ele><time>2026-04-28T14:45:14.275Z</time></trkpt><trkpt lat="43.5708092" lon="17.285177"><ele>934.4</ele><time>2026-04-28T14:45:15.276Z</time></trkpt><trkpt lat="43.5707005" lon="17.2852278"><ele>936.5999999999999</ele><time>2026-04-28T14:45:16.277Z</time></trkpt><trkpt lat="43.5705921" lon="17.2852721"><ele>938.8</ele><time>2026-04-28T14:45:17.277Z</time></trkpt><trkpt lat="43.5705188" lon="17.2853104"><ele>941.0</ele><time>2026-04-28T14:45:18.277Z</time></trkpt><trkpt lat="43.5704423" lon="17.2853482"><ele>941.0000000000001</ele><time>2026-04-28T14:45:19.276Z</time></trkpt><trkpt lat="43.5703696" lon="17.285381"><ele>941.0</ele><time>2026-04-28T14:45:20.277Z</time></trkpt><trkpt lat="43.5702917" lon="17.2854302"><ele>941.0</ele><time>2026-04-28T14:45:21.278Z</time></trkpt><trkpt lat="43.5702057" lon="17.2854831"><ele>941.0</ele><time>2026-04-28T14:45:22.277Z</time></trkpt><trkpt lat="43.5701241" lon="17.2855289"><ele>941.0000000000001</ele><time>2026-04-28T14:45:23.277Z</time></trkpt><trkpt lat="43.5700333" lon="17.2855812"><ele>941.0</ele><time>2026-04-28T14:45:24.277Z</time></trkpt><trkpt lat="43.5699438" lon="17.2856298"><ele>942.0</ele><time>2026-04-28T14:45:25.277Z</time></trkpt><trkpt lat="43.5698427" lon="17.2856861"><ele>943.0</ele><time>2026-04-28T14:45:26.277Z</time></trkpt><trkpt lat="43.5697357" lon="17.2857468"><ele>944.0</ele><time>2026-04-28T14:45:27.275Z</time></trkpt><trkpt lat="43.5696223" lon="17.2858115"><ele>945.0</ele><time>2026-04-28T14:45:28.277Z</time></trkpt><trkpt lat="43.5695045" lon="17.2858835"><ele>947.0</ele><time>2026-04-28T14:45:29.275Z</time></trkpt><trkpt lat="43.569367" lon="17.2859576"><ele>949.0</ele><time>2026-04-28T14:45:30.276Z</time></trkpt><trkpt lat="43.5692162" lon="17.286044"><ele>951.0</ele><time>2026-04-28T14:45:31.276Z</time></trkpt><trkpt lat="43.5690615" lon="17.286128"><ele>951.0</ele><time>2026-04-28T14:45:32.275Z</time></trkpt><trkpt lat="43.5688877" lon="17.2862218"><ele>951.0</ele><time>2026-04-28T14:45:33.281Z</time></trkpt><trkpt lat="43.5687093" lon="17.2863102"><ele>951.0</ele><time>2026-04-28T14:45:34.278Z</time></trkpt><trkpt lat="43.5685284" lon="17.2863938"><ele>950.3333333333333</ele><time>2026-04-28T14:45:35.275Z</time></trkpt><trkpt lat="43.5683173" lon="17.2864657"><ele>949.6666666666666</ele><time>2026-04-28T14:45:36.275Z</time></trkpt><trkpt lat="43.5681204" lon="17.2865143"><ele>949.0</ele><time>2026-04-28T14:45:37.276Z</time></trkpt><trkpt lat="43.567904" lon="17.2865283"><ele>948.3333333333333</ele><time>2026-04-28T14:45:38.276Z</time></trkpt><trkpt lat="43.5677017" lon="17.2865367"><ele>947.6666666666667</ele><time>2026-04-28T14:45:39.274Z</time></trkpt><trkpt lat="43.5675095" lon="17.2865222"><ele>947.0</ele><time>2026-04-28T14:45:40.273Z</time></trkpt><trkpt lat="43.5673116" lon="17.2864909"><ele>947.0</ele><time>2026-04-28T14:45:41.274Z</time></trkpt><trkpt lat="43.5671208" lon="17.2864403"><ele>947.0</ele><time>2026-04-28T14:45:42.278Z</time></trkpt><trkpt lat="43.5669282" lon="17.2863636"><ele>947.0</ele><time>2026-04-28T14:45:43.276Z</time></trkpt><trkpt lat="43.5667389" lon="17.2862691"><ele>946.3333333333334</ele><time>2026-04-28T14:45:44.275Z</time></trkpt><trkpt lat="43.5665548" lon="17.2861525"><ele>945.6666666666667</ele><time>2026-04-28T14:45:45.274Z</time></trkpt><trkpt lat="43.5663688" lon="17.2860249"><ele>945.0</ele><time>2026-04-28T14:45:46.278Z</time></trkpt><trkpt lat="43.5661983" lon="17.2858694"><ele>944.6666666666667</ele><time>2026-04-28T14:45:47.276Z</time></trkpt><trkpt lat="43.5660272" lon="17.2856984"><ele>944.3333333333334</ele><time>2026-04-28T14:45:48.277Z</time></trkpt><trkpt lat="43.5658792" lon="17.2854902"><ele>944.0</ele><time>2026-04-28T14:45:49.277Z</time></trkpt><trkpt lat="43.5657315" lon="17.2852815"><ele>944.0</ele><time>2026-04-28T14:45:50.275Z</time></trkpt><trkpt lat="43.5655927" lon="17.2850549"><ele>944.0</ele><time>2026-04-28T14:45:51.276Z</time></trkpt><trkpt lat="43.565459" lon="17.2848181"><ele>944.0</ele><time>2026-04-28T14:45:52.275Z</time></trkpt><trkpt lat="43.5653208" lon="17.2845882"><ele>940.5</ele><time>2026-04-28T14:45:53.279Z</time></trkpt><trkpt lat="43.5651697" lon="17.2843621"><ele>937.0</ele><time>2026-04-28T14:45:54.278Z</time></trkpt><trkpt lat="43.5650072" lon="17.2841328"><ele>936.5</ele><time>2026-04-28T14:45:55.278Z</time></trkpt><trkpt lat="43.5648443" lon="17.2839212"><ele>936.0</ele><time>2026-04-28T14:45:56.276Z</time></trkpt><trkpt lat="43.5646692" lon="17.2837239"><ele>937.5</ele><time>2026-04-28T14:45:57.274Z</time></trkpt><trkpt lat="43.5644822" lon="17.2835304"><ele>939.0</ele><time>2026-04-28T14:45:58.276Z</time></trkpt><trkpt lat="43.5642847" lon="17.283357"><ele>939.0</ele><time>2026-04-28T14:45:59.274Z</time></trkpt><trkpt lat="43.5640769" lon="17.2832072"><ele>939.0</ele><time>2026-04-28T14:46:00.284Z</time></trkpt><trkpt lat="43.563854" lon="17.2830868"><ele>935.0</ele><time>2026-04-28T14:46:01.274Z</time></trkpt><trkpt lat="43.5636243" lon="17.2829865"><ele>931.0</ele><time>2026-04-28T14:46:02.286Z</time></trkpt><trkpt lat="43.5633853" lon="17.2829009"><ele>931.0</ele><time>2026-04-28T14:46:03.275Z</time></trkpt><trkpt lat="43.5631448" lon="17.2828226"><ele>931.0</ele><time>2026-04-28T14:46:04.275Z</time></trkpt><trkpt lat="43.5628997" lon="17.2827424"><ele>926.0</ele><time>2026-04-28T14:46:05.275Z</time></trkpt><trkpt lat="43.5626606" lon="17.2826664"><ele>921.0</ele><time>2026-04-28T14:46:06.274Z</time></trkpt><trkpt lat="43.5624401" lon="17.2825827"><ele>921.0</ele><time>2026-04-28T14:46:07.276Z</time></trkpt><trkpt lat="43.5622256" lon="17.2824895"><ele>921.0</ele><time>2026-04-28T14:46:08.276Z</time></trkpt><trkpt lat="43.5620267" lon="17.2823927"><ele>921.0</ele><time>2026-04-28T14:46:09.277Z</time></trkpt><trkpt lat="43.5618291" lon="17.2822713"><ele>916.3333333333333</ele><time>2026-04-28T14:46:10.274Z</time></trkpt><trkpt lat="43.5616397" lon="17.2821193"><ele>911.6666666666666</ele><time>2026-04-28T14:46:11.275Z</time></trkpt><trkpt lat="43.5614562" lon="17.2819446"><ele>907.0</ele><time>2026-04-28T14:46:12.276Z</time></trkpt><trkpt lat="43.5612814" lon="17.2817505"><ele>906.5</ele><time>2026-04-28T14:46:13.276Z</time></trkpt><trkpt lat="43.5611016" lon="17.2815427"><ele>906.0</ele><time>2026-04-28T14:46:14.276Z</time></trkpt><trkpt lat="43.5609143" lon="17.2813274"><ele>906.0</ele><time>2026-04-28T14:46:15.276Z</time></trkpt><trkpt lat="43.5607364" lon="17.2811083"><ele>906.0</ele><time>2026-04-28T14:46:16.276Z</time></trkpt><trkpt lat="43.5605616" lon="17.2809024"><ele>906.0</ele><time>2026-04-28T14:46:17.276Z</time></trkpt><trkpt lat="43.5603978" lon="17.2807064"><ele>906.0</ele><time>2026-04-28T14:46:18.274Z</time></trkpt><trkpt lat="43.5602212" lon="17.2805242"><ele>906.0</ele><time>2026-04-28T14:46:19.277Z</time></trkpt><trkpt lat="43.5600383" lon="17.2803521"><ele>907.0</ele><time>2026-04-28T14:46:20.278Z</time></trkpt><trkpt lat="43.5598473" lon="17.280184"><ele>908.0</ele><time>2026-04-28T14:46:21.276Z</time></trkpt><trkpt lat="43.5596511" lon="17.2800198"><ele>908.5</ele><time>2026-04-28T14:46:22.276Z</time></trkpt><trkpt lat="43.5594482" lon="17.2798684"><ele>909.0</ele><time>2026-04-28T14:46:23.278Z</time></trkpt><trkpt lat="43.5592415" lon="17.2797236"><ele>905.0</ele><time>2026-04-28T14:46:24.277Z</time></trkpt><trkpt lat="43.5590307" lon="17.279591"><ele>901.0</ele><time>2026-04-28T14:46:25.28Z</time></trkpt><trkpt lat="43.5588126" lon="17.2794712"><ele>899.5</ele><time>2026-04-28T14:46:26.276Z</time></trkpt><trkpt lat="43.5585923" lon="17.2793652"><ele>898.0</ele><time>2026-04-28T14:46:27.275Z</time></trkpt><trkpt lat="43.5583686" lon="17.279272"><ele>898.0</ele><time>2026-04-28T14:46:28.278Z</time></trkpt><trkpt lat="43.5581433" lon="17.2791862"><ele>898.0</ele><time>2026-04-28T14:46:29.276Z</time></trkpt><trkpt lat="43.5579105" lon="17.2791166"><ele>897.0</ele><time>2026-04-28T14:46:30.276Z</time></trkpt><trkpt lat="43.5576778" lon="17.2790604"><ele>896.0</ele><time>2026-04-28T14:46:31.275Z</time></trkpt><trkpt lat="43.5574449" lon="17.2789995"><ele>896.0</ele><time>2026-04-28T14:46:32.278Z</time></trkpt><trkpt lat="43.5571985" lon="17.2789426"><ele>896.0</ele><time>2026-04-28T14:46:33.276Z</time></trkpt><trkpt lat="43.5569617" lon="17.2788804"><ele>895.5</ele><time>2026-04-28T14:46:34.275Z</time></trkpt><trkpt lat="43.5567237" lon="17.2788239"><ele>895.0</ele><time>2026-04-28T14:46:35.275Z</time></trkpt><trkpt lat="43.5564899" lon="17.2787487"><ele>895.0</ele><time>2026-04-28T14:46:36.275Z</time></trkpt><trkpt lat="43.5562576" lon="17.2786641"><ele>895.0</ele><time>2026-04-28T14:46:37.276Z</time></trkpt><trkpt lat="43.5560402" lon="17.2785671"><ele>896.0</ele><time>2026-04-28T14:46:38.274Z</time></trkpt><trkpt lat="43.5558202" lon="17.2784568"><ele>897.0</ele><time>2026-04-28T14:46:39.276Z</time></trkpt><trkpt lat="43.5556083" lon="17.2783332"><ele>897.0</ele><time>2026-04-28T14:46:40.274Z</time></trkpt><trkpt lat="43.5553989" lon="17.278198"><ele>897.0</ele><time>2026-04-28T14:46:41.275Z</time></trkpt><trkpt lat="43.5551896" lon="17.2780605"><ele>896.0</ele><time>2026-04-28T14:46:42.277Z</time></trkpt><trkpt lat="43.5549852" lon="17.2779227"><ele>895.0</ele><time>2026-04-28T14:46:43.277Z</time></trkpt><trkpt lat="43.5547793" lon="17.2777789"><ele>895.0</ele><time>2026-04-28T14:46:44.276Z</time></trkpt><trkpt lat="43.554575" lon="17.2776339"><ele>895.0</ele><time>2026-04-28T14:46:45.277Z</time></trkpt><trkpt lat="43.5543708" lon="17.277493"><ele>895.0</ele><time>2026-04-28T14:46:46.276Z</time></trkpt><trkpt lat="43.5541672" lon="17.2773525"><ele>895.0</ele><time>2026-04-28T14:46:47.276Z</time></trkpt><trkpt lat="43.553977" lon="17.277222"><ele>895.0</ele><time>2026-04-28T14:46:48.278Z</time></trkpt><trkpt lat="43.5537887" lon="17.2771048"><ele>894.6666666666666</ele><time>2026-04-28T14:46:49.277Z</time></trkpt><trkpt lat="43.5535986" lon="17.2770089"><ele>894.3333333333333</ele><time>2026-04-28T14:46:50.276Z</time></trkpt><trkpt lat="43.5533983" lon="17.2769471"><ele>894.0</ele><time>2026-04-28T14:46:51.278Z</time></trkpt><trkpt lat="43.553191" lon="17.2769122"><ele>894.0</ele><time>2026-04-28T14:46:52.275Z</time></trkpt><trkpt lat="43.552975" lon="17.2769038"><ele>894.0</ele><time>2026-04-28T14:46:53.276Z</time></trkpt><trkpt lat="43.5527537" lon="17.2769202"><ele>894.0</ele><time>2026-04-28T14:46:54.276Z</time></trkpt><trkpt lat="43.5525335" lon="17.2769617"><ele>894.0</ele><time>2026-04-28T14:46:55.274Z</time></trkpt><trkpt lat="43.5523156" lon="17.2770278"><ele>894.0</ele><time>2026-04-28T14:46:56.275Z</time></trkpt><trkpt lat="43.5520984" lon="17.2771354"><ele>894.5</ele><time>2026-04-28T14:46:57.275Z</time></trkpt><trkpt lat="43.5518842" lon="17.277277"><ele>895.0</ele><time>2026-04-28T14:46:58.274Z</time></trkpt><trkpt lat="43.5516632" lon="17.2774467"><ele>895.0</ele><time>2026-04-28T14:46:59.275Z</time></trkpt><trkpt lat="43.5514412" lon="17.2776264"><ele>895.0</ele><time>2026-04-28T14:47:00.278Z</time></trkpt><trkpt lat="43.5512142" lon="17.2777985"><ele>897.5</ele><time>2026-04-28T14:47:01.274Z</time></trkpt><trkpt lat="43.5509799" lon="17.2779627"><ele>900.0</ele><time>2026-04-28T14:47:02.274Z</time></trkpt><trkpt lat="43.550745" lon="17.2781198"><ele>900.0</ele><time>2026-04-28T14:47:03.277Z</time></trkpt><trkpt lat="43.5505071" lon="17.2782534"><ele>900.0</ele><time>2026-04-28T14:47:04.276Z</time></trkpt><trkpt lat="43.5502784" lon="17.2783656"><ele>898.5</ele><time>2026-04-28T14:47:05.276Z</time></trkpt><trkpt lat="43.5500407" lon="17.2784625"><ele>897.0</ele><time>2026-04-28T14:47:06.276Z</time></trkpt><trkpt lat="43.5498063" lon="17.2785379"><ele>897.0</ele><time>2026-04-28T14:47:07.275Z</time></trkpt><trkpt lat="43.5495643" lon="17.2786044"><ele>897.0</ele><time>2026-04-28T14:47:08.275Z</time></trkpt><trkpt lat="43.5493152" lon="17.2786592"><ele>896.5</ele><time>2026-04-28T14:47:09.274Z</time></trkpt><trkpt lat="43.5490686" lon="17.2787123"><ele>896.0</ele><time>2026-04-28T14:47:10.276Z</time></trkpt><trkpt lat="43.5488131" lon="17.2787623"><ele>894.0</ele><time>2026-04-28T14:47:11.277Z</time></trkpt><trkpt lat="43.5485579" lon="17.2788118"><ele>892.0</ele><time>2026-04-28T14:47:12.283Z</time></trkpt><trkpt lat="43.5483024" lon="17.2788689"><ele>892.0</ele><time>2026-04-28T14:47:13.277Z</time></trkpt><trkpt lat="43.5480459" lon="17.2789235"><ele>892.0</ele><time>2026-04-28T14:47:14.279Z</time></trkpt><trkpt lat="43.5477886" lon="17.2789789"><ele>895.5</ele><time>2026-04-28T14:47:15.276Z</time></trkpt><trkpt lat="43.5475294" lon="17.2790277"><ele>899.0</ele><time>2026-04-28T14:47:16.277Z</time></trkpt><trkpt lat="43.5472647" lon="17.2790802"><ele>896.0</ele><time>2026-04-28T14:47:17.275Z</time></trkpt><trkpt lat="43.5470063" lon="17.2791304"><ele>893.0</ele><time>2026-04-28T14:47:18.276Z</time></trkpt><trkpt lat="43.5467444" lon="17.2791814"><ele>893.0</ele><time>2026-04-28T14:47:19.279Z</time></trkpt><trkpt lat="43.5464816" lon="17.2792332"><ele>893.0</ele><time>2026-04-28T14:47:20.276Z</time></trkpt><trkpt lat="43.5462188" lon="17.2792868"><ele>892.5</ele><time>2026-04-28T14:47:21.276Z</time></trkpt><trkpt lat="43.5459553" lon="17.2793406"><ele>892.0</ele><time>2026-04-28T14:47:22.276Z</time></trkpt><trkpt lat="43.5456899" lon="17.2793949"><ele>892.0</ele><time>2026-04-28T14:47:23.275Z</time></trkpt><trkpt lat="43.5454204" lon="17.2794585"><ele>892.0</ele><time>2026-04-28T14:47:24.276Z</time></trkpt><trkpt lat="43.5451624" lon="17.2795418"><ele>893.0</ele><time>2026-04-28T14:47:25.275Z</time></trkpt><trkpt lat="43.5449138" lon="17.279653"><ele>894.0</ele><time>2026-04-28T14:47:26.275Z</time></trkpt><trkpt lat="43.5446834" lon="17.2797909"><ele>887.0</ele><time>2026-04-28T14:47:27.275Z</time></trkpt><trkpt lat="43.5444597" lon="17.2799585"><ele>880.0</ele><time>2026-04-28T14:47:28.275Z</time></trkpt><trkpt lat="43.5442487" lon="17.2801566"><ele>880.0</ele><time>2026-04-28T14:47:29.276Z</time></trkpt><trkpt lat="43.5440435" lon="17.2803635"><ele>880.0</ele><time>2026-04-28T14:47:30.277Z</time></trkpt><trkpt lat="43.5438392" lon="17.2805833"><ele>881.5</ele><time>2026-04-28T14:47:31.275Z</time></trkpt><trkpt lat="43.5436343" lon="17.2808024"><ele>883.0</ele><time>2026-04-28T14:47:32.275Z</time></trkpt><trkpt lat="43.5434321" lon="17.2810087"><ele>883.0</ele><time>2026-04-28T14:47:33.277Z</time></trkpt><trkpt lat="43.5432333" lon="17.2811643"><ele>883.0</ele><time>2026-04-28T14:47:34.28Z</time></trkpt><trkpt lat="43.5430309" lon="17.2813189"><ele>885.3333333333333</ele><time>2026-04-28T14:47:35.276Z</time></trkpt><trkpt lat="43.5428598" lon="17.2813835"><ele>887.6666666666667</ele><time>2026-04-28T14:47:36.274Z</time></trkpt><trkpt lat="43.5426598" lon="17.2814464"><ele>890.0</ele><time>2026-04-28T14:47:37.274Z</time></trkpt><trkpt lat="43.5424481" lon="17.2814963"><ele>888.3333333333334</ele><time>2026-04-28T14:47:38.277Z</time></trkpt><trkpt lat="43.5422372" lon="17.2815175"><ele>886.6666666666667</ele><time>2026-04-28T14:47:39.278Z</time></trkpt><trkpt lat="43.5420231" lon="17.2814998"><ele>885.0</ele><time>2026-04-28T14:47:40.277Z</time></trkpt><trkpt lat="43.5418118" lon="17.2814715"><ele>885.0</ele><time>2026-04-28T14:47:41.289Z</time></trkpt><trkpt lat="43.5416009" lon="17.2814427"><ele>885.0</ele><time>2026-04-28T14:47:42.278Z</time></trkpt><trkpt lat="43.5413881" lon="17.2814241"><ele>885.0</ele><time>2026-04-28T14:47:43.274Z</time></trkpt><trkpt lat="43.5411732" lon="17.2814337"><ele>887.6666666666667</ele><time>2026-04-28T14:47:44.282Z</time></trkpt><trkpt lat="43.5409645" lon="17.2814752"><ele>890.3333333333334</ele><time>2026-04-28T14:47:45.276Z</time></trkpt><trkpt lat="43.5407571" lon="17.2815512"><ele>893.0</ele><time>2026-04-28T14:47:46.276Z</time></trkpt><trkpt lat="43.5405603" lon="17.2816499"><ele>890.6666666666667</ele><time>2026-04-28T14:47:47.276Z</time></trkpt><trkpt lat="43.5403717" lon="17.281756"><ele>888.3333333333333</ele><time>2026-04-28T14:47:48.277Z</time></trkpt><trkpt lat="43.5401934" lon="17.2818613"><ele>886.0</ele><time>2026-04-28T14:47:49.283Z</time></trkpt><trkpt lat="43.5400219" lon="17.2819667"><ele>886.0</ele><time>2026-04-28T14:47:50.276Z</time></trkpt><trkpt lat="43.5398368" lon="17.2820716"><ele>886.0</ele><time>2026-04-28T14:47:51.277Z</time></trkpt><trkpt lat="43.539654" lon="17.2821647"><ele>886.0</ele><time>2026-04-28T14:47:52.275Z</time></trkpt><trkpt lat="43.5394673" lon="17.2822467"><ele>887.0</ele><time>2026-04-28T14:47:53.278Z</time></trkpt><trkpt lat="43.5392833" lon="17.2822966"><ele>888.0</ele><time>2026-04-28T14:47:54.275Z</time></trkpt><trkpt lat="43.5390837" lon="17.2823159"><ele>889.0</ele><time>2026-04-28T14:47:55.276Z</time></trkpt><trkpt lat="43.538889" lon="17.2823044"><ele>888.3333333333333</ele><time>2026-04-28T14:47:56.275Z</time></trkpt><trkpt lat="43.5387036" lon="17.2822729"><ele>887.6666666666667</ele><time>2026-04-28T14:47:57.275Z</time></trkpt><trkpt lat="43.5385221" lon="17.2822337"><ele>887.0</ele><time>2026-04-28T14:47:58.276Z</time></trkpt><trkpt lat="43.5383515" lon="17.282191"><ele>887.0</ele><time>2026-04-28T14:47:59.276Z</time></trkpt><trkpt lat="43.538177" lon="17.2821478"><ele>887.0</ele><time>2026-04-28T14:48:00.278Z</time></trkpt><trkpt lat="43.5380066" lon="17.2821164"><ele>887.0</ele><time>2026-04-28T14:48:01.276Z</time></trkpt><trkpt lat="43.5378259" lon="17.2821014"><ele>886.3333333333334</ele><time>2026-04-28T14:48:02.276Z</time></trkpt><trkpt lat="43.5376419" lon="17.2821029"><ele>885.6666666666667</ele><time>2026-04-28T14:48:03.276Z</time></trkpt><trkpt lat="43.5374537" lon="17.2821338"><ele>885.0</ele><time>2026-04-28T14:48:04.275Z</time></trkpt><trkpt lat="43.5372737" lon="17.2821907"><ele>884.3333333333333</ele><time>2026-04-28T14:48:05.276Z</time></trkpt><trkpt lat="43.5371037" lon="17.2822651"><ele>883.6666666666666</ele><time>2026-04-28T14:48:06.275Z</time></trkpt><trkpt lat="43.5369386" lon="17.2823486"><ele>883.0</ele><time>2026-04-28T14:48:07.276Z</time></trkpt><trkpt lat="43.5367767" lon="17.2824348"><ele>883.0</ele><time>2026-04-28T14:48:08.274Z</time></trkpt><trkpt lat="43.536612" lon="17.282514"><ele>883.0</ele><time>2026-04-28T14:48:09.278Z</time></trkpt><trkpt lat="43.5364374" lon="17.2825879"><ele>883.0</ele><time>2026-04-28T14:48:10.275Z</time></trkpt><trkpt lat="43.5362573" lon="17.2826433"><ele>879.3333333333333</ele><time>2026-04-28T14:48:11.274Z</time></trkpt><trkpt lat="43.5360833" lon="17.2826759"><ele>875.6666666666667</ele><time>2026-04-28T14:48:12.276Z</time></trkpt><trkpt lat="43.5359143" lon="17.2826786"><ele>872.0</ele><time>2026-04-28T14:48:13.274Z</time></trkpt><trkpt lat="43.5357429" lon="17.2826624"><ele>872.0</ele><time>2026-04-28T14:48:14.274Z</time></trkpt><trkpt lat="43.5355682" lon="17.2826195"><ele>872.0</ele><time>2026-04-28T14:48:15.277Z</time></trkpt><trkpt lat="43.5353959" lon="17.2825549"><ele>872.0</ele><time>2026-04-28T14:48:16.275Z</time></trkpt><trkpt lat="43.5352234" lon="17.2824637"><ele>871.6666666666667</ele><time>2026-04-28T14:48:17.274Z</time></trkpt><trkpt lat="43.5350529" lon="17.2823483"><ele>871.3333333333333</ele><time>2026-04-28T14:48:18.275Z</time></trkpt><trkpt lat="43.5348955" lon="17.2822302"><ele>871.0</ele><time>2026-04-28T14:48:19.28Z</time></trkpt><trkpt lat="43.5347355" lon="17.2821197"><ele>867.3333333333333</ele><time>2026-04-28T14:48:20.276Z</time></trkpt><trkpt lat="43.5345702" lon="17.2820244"><ele>863.6666666666667</ele><time>2026-04-28T14:48:21.275Z</time></trkpt><trkpt lat="43.5344103" lon="17.2819435"><ele>860.0</ele><time>2026-04-28T14:48:22.275Z</time></trkpt><trkpt lat="43.5342465" lon="17.2818846"><ele>859.6666666666667</ele><time>2026-04-28T14:48:23.276Z</time></trkpt><trkpt lat="43.5340734" lon="17.2818498"><ele>859.3333333333333</ele><time>2026-04-28T14:48:24.276Z</time></trkpt><trkpt lat="43.5338942" lon="17.2818393"><ele>859.0</ele><time>2026-04-28T14:48:25.276Z</time></trkpt><trkpt lat="43.5337091" lon="17.2818422"><ele>856.3333333333333</ele><time>2026-04-28T14:48:26.274Z</time></trkpt><trkpt lat="43.5335216" lon="17.2818718"><ele>853.6666666666667</ele><time>2026-04-28T14:48:27.275Z</time></trkpt><trkpt lat="43.5333471" lon="17.2819346"><ele>851.0</ele><time>2026-04-28T14:48:28.282Z</time></trkpt><trkpt lat="43.5331717" lon="17.2820262"><ele>851.0</ele><time>2026-04-28T14:48:29.278Z</time></trkpt><trkpt lat="43.5330091" lon="17.2821334"><ele>851.0</ele><time>2026-04-28T14:48:30.277Z</time></trkpt><trkpt lat="43.532853" lon="17.2822472"><ele>851.0</ele><time>2026-04-28T14:48:31.276Z</time></trkpt><trkpt lat="43.5327035" lon="17.2823637"><ele>852.3333333333334</ele><time>2026-04-28T14:48:32.275Z</time></trkpt><trkpt lat="43.5325529" lon="17.2824806"><ele>853.6666666666667</ele><time>2026-04-28T14:48:33.275Z</time></trkpt><trkpt lat="43.5323939" lon="17.2825951"><ele>855.0</ele><time>2026-04-28T14:48:34.275Z</time></trkpt><trkpt lat="43.5322298" lon="17.2827057"><ele>853.6666666666667</ele><time>2026-04-28T14:48:35.277Z</time></trkpt><trkpt lat="43.5320562" lon="17.2828108"><ele>852.3333333333334</ele><time>2026-04-28T14:48:36.275Z</time></trkpt><trkpt lat="43.5318752" lon="17.2829115"><ele>851.0</ele><time>2026-04-28T14:48:37.276Z</time></trkpt><trkpt lat="43.5316872" lon="17.2830002"><ele>851.0</ele><time>2026-04-28T14:48:38.279Z</time></trkpt><trkpt lat="43.5314957" lon="17.2830773"><ele>851.0</ele><time>2026-04-28T14:48:39.277Z</time></trkpt><trkpt lat="43.5313029" lon="17.283133"><ele>851.0</ele><time>2026-04-28T14:48:40.277Z</time></trkpt><trkpt lat="43.5311173" lon="17.2831671"><ele>852.0</ele><time>2026-04-28T14:48:41.276Z</time></trkpt><trkpt lat="43.5309323" lon="17.2831737"><ele>853.0</ele><time>2026-04-28T14:48:42.274Z</time></trkpt><trkpt lat="43.5307474" lon="17.2831642"><ele>854.0</ele><time>2026-04-28T14:48:43.274Z</time></trkpt><trkpt lat="43.5305645" lon="17.2831425"><ele>853.6666666666667</ele><time>2026-04-28T14:48:44.275Z</time></trkpt><trkpt lat="43.5303803" lon="17.2831146"><ele>853.3333333333333</ele><time>2026-04-28T14:48:45.276Z</time></trkpt><trkpt lat="43.5302041" lon="17.2830723"><ele>853.0</ele><time>2026-04-28T14:48:46.274Z</time></trkpt><trkpt lat="43.5300239" lon="17.2830102"><ele>853.6666666666666</ele><time>2026-04-28T14:48:47.275Z</time></trkpt><trkpt lat="43.5298623" lon="17.2829099"><ele>854.3333333333333</ele><time>2026-04-28T14:48:48.276Z</time></trkpt><trkpt lat="43.5297059" lon="17.2827872"><ele>855.0</ele><time>2026-04-28T14:48:49.277Z</time></trkpt><trkpt lat="43.5295586" lon="17.2826536"><ele>855.0</ele><time>2026-04-28T14:48:50.277Z</time></trkpt><trkpt lat="43.52942" lon="17.2824995"><ele>855.0</ele><time>2026-04-28T14:48:51.275Z</time></trkpt><trkpt lat="43.5292886" lon="17.2823476"><ele>855.0</ele><time>2026-04-28T14:48:52.275Z</time></trkpt><trkpt lat="43.5291575" lon="17.2821908"><ele>852.6666666666667</ele><time>2026-04-28T14:48:53.275Z</time></trkpt><trkpt lat="43.5290223" lon="17.2820313"><ele>850.3333333333334</ele><time>2026-04-28T14:48:54.278Z</time></trkpt><trkpt lat="43.5288961" lon="17.2818749"><ele>848.0</ele><time>2026-04-28T14:48:55.278Z</time></trkpt><trkpt lat="43.5287646" lon="17.2817052"><ele>848.6666666666667</ele><time>2026-04-28T14:48:56.277Z</time></trkpt><trkpt lat="43.528623" lon="17.2815277"><ele>849.3333333333333</ele><time>2026-04-28T14:48:57.277Z</time></trkpt><trkpt lat="43.5284852" lon="17.2813519"><ele>850.0</ele><time>2026-04-28T14:48:58.279Z</time></trkpt><trkpt lat="43.5283466" lon="17.2811675"><ele>850.0</ele><time>2026-04-28T14:48:59.276Z</time></trkpt><trkpt lat="43.5281994" lon="17.2809817"><ele>850.0</ele><time>2026-04-28T14:49:00.276Z</time></trkpt><trkpt lat="43.5280471" lon="17.2807917"><ele>850.0</ele><time>2026-04-28T14:49:01.275Z</time></trkpt><trkpt lat="43.5278925" lon="17.2805985"><ele>846.3333333333333</ele><time>2026-04-28T14:49:02.277Z</time></trkpt><trkpt lat="43.5277341" lon="17.280404"><ele>842.6666666666667</ele><time>2026-04-28T14:49:03.277Z</time></trkpt><trkpt lat="43.5275684" lon="17.280218"><ele>839.0</ele><time>2026-04-28T14:49:04.276Z</time></trkpt><trkpt lat="43.5273886" lon="17.2800385"><ele>839.0</ele><time>2026-04-28T14:49:05.275Z</time></trkpt><trkpt lat="43.5272057" lon="17.2798666"><ele>839.0</ele><time>2026-04-28T14:49:06.278Z</time></trkpt><trkpt lat="43.527019" lon="17.2797028"><ele>839.0</ele><time>2026-04-28T14:49:07.274Z</time></trkpt><trkpt lat="43.5268277" lon="17.2795509"><ele>839.3333333333334</ele><time>2026-04-28T14:49:08.275Z</time></trkpt><trkpt lat="43.5266318" lon="17.2794104"><ele>839.6666666666667</ele><time>2026-04-28T14:49:09.277Z</time></trkpt><trkpt lat="43.5264396" lon="17.279289"><ele>840.0</ele><time>2026-04-28T14:49:10.276Z</time></trkpt><trkpt lat="43.5262531" lon="17.2791699"><ele>840.3333333333333</ele><time>2026-04-28T14:49:11.274Z</time></trkpt><trkpt lat="43.5260764" lon="17.2790592"><ele>840.6666666666666</ele><time>2026-04-28T14:49:12.275Z</time></trkpt><trkpt lat="43.5259095" lon="17.2789485"><ele>841.0</ele><time>2026-04-28T14:49:13.275Z</time></trkpt><trkpt lat="43.5257433" lon="17.2788387"><ele>841.0</ele><time>2026-04-28T14:49:14.275Z</time></trkpt><trkpt lat="43.5255711" lon="17.2787209"><ele>841.0</ele><time>2026-04-28T14:49:15.276Z</time></trkpt><trkpt lat="43.5254034" lon="17.2785925"><ele>841.0</ele><time>2026-04-28T14:49:16.274Z</time></trkpt><trkpt lat="43.5252406" lon="17.2784453"><ele>841.6666666666666</ele><time>2026-04-28T14:49:17.275Z</time></trkpt><trkpt lat="43.5250798" lon="17.278284"><ele>842.3333333333333</ele><time>2026-04-28T14:49:18.275Z</time></trkpt><trkpt lat="43.524921" lon="17.2781068"><ele>843.0</ele><time>2026-04-28T14:49:19.279Z</time></trkpt><trkpt lat="43.5247712" lon="17.277907"><ele>842.0</ele><time>2026-04-28T14:49:20.276Z</time></trkpt><trkpt lat="43.5246363" lon="17.2776884"><ele>841.0</ele><time>2026-04-28T14:49:21.276Z</time></trkpt><trkpt lat="43.5245106" lon="17.2774589"><ele>840.0</ele><time>2026-04-28T14:49:22.275Z</time></trkpt><trkpt lat="43.524396" lon="17.2772151"><ele>839.0</ele><time>2026-04-28T14:49:23.273Z</time></trkpt><trkpt lat="43.5242834" lon="17.2769657"><ele>838.0</ele><time>2026-04-28T14:49:24.278Z</time></trkpt><trkpt lat="43.5241753" lon="17.2767148"><ele>837.0</ele><time>2026-04-28T14:49:25.276Z</time></trkpt><trkpt lat="43.524073" lon="17.2764534"><ele>833.3333333333333</ele><time>2026-04-28T14:49:26.281Z</time></trkpt><trkpt lat="43.5239784" lon="17.276195"><ele>829.6666666666666</ele><time>2026-04-28T14:49:27.278Z</time></trkpt><trkpt lat="43.5238875" lon="17.2759382"><ele>826.0</ele><time>2026-04-28T14:49:28.277Z</time></trkpt><trkpt lat="43.5237946" lon="17.2756832"><ele>832.0</ele><time>2026-04-28T14:49:29.276Z</time></trkpt><trkpt lat="43.5237074" lon="17.2754361"><ele>838.0</ele><time>2026-04-28T14:49:30.277Z</time></trkpt><trkpt lat="43.5236082" lon="17.2751931"><ele>844.0</ele><time>2026-04-28T14:49:31.278Z</time></trkpt><trkpt lat="43.5235027" lon="17.2749699"><ele>840.0</ele><time>2026-04-28T14:49:32.274Z</time></trkpt><trkpt lat="43.5233842" lon="17.2747485"><ele>836.0</ele><time>2026-04-28T14:49:33.278Z</time></trkpt><trkpt lat="43.5232577" lon="17.2745306"><ele>832.0</ele><time>2026-04-28T14:49:34.276Z</time></trkpt><trkpt lat="43.5231181" lon="17.2743183"><ele>832.0</ele><time>2026-04-28T14:49:35.275Z</time></trkpt><trkpt lat="43.5229683" lon="17.2741179"><ele>832.0</ele><time>2026-04-28T14:49:36.275Z</time></trkpt><trkpt lat="43.5228105" lon="17.2739345"><ele>832.0</ele><time>2026-04-28T14:49:37.276Z</time></trkpt><trkpt lat="43.5226464" lon="17.2737611"><ele>833.3333333333333</ele><time>2026-04-28T14:49:38.278Z</time></trkpt><trkpt lat="43.5224841" lon="17.2736074"><ele>834.6666666666667</ele><time>2026-04-28T14:49:39.276Z</time></trkpt><trkpt lat="43.5223097" lon="17.2734611"><ele>836.0</ele><time>2026-04-28T14:49:40.277Z</time></trkpt><trkpt lat="43.5221377" lon="17.2733183"><ele>832.3333333333334</ele><time>2026-04-28T14:49:41.276Z</time></trkpt><trkpt lat="43.521973" lon="17.2731754"><ele>828.6666666666667</ele><time>2026-04-28T14:49:42.279Z</time></trkpt><trkpt lat="43.5218101" lon="17.2730362"><ele>825.0</ele><time>2026-04-28T14:49:43.278Z</time></trkpt><trkpt lat="43.5216389" lon="17.2728925"><ele>825.0</ele><time>2026-04-28T14:49:44.276Z</time></trkpt><trkpt lat="43.5214679" lon="17.2727489"><ele>825.0</ele><time>2026-04-28T14:49:45.278Z</time></trkpt><trkpt lat="43.5213103" lon="17.2726076"><ele>825.0</ele><time>2026-04-28T14:49:46.278Z</time></trkpt><trkpt lat="43.5211544" lon="17.2724588"><ele>826.0</ele><time>2026-04-28T14:49:47.275Z</time></trkpt><trkpt lat="43.5210165" lon="17.2723099"><ele>827.0</ele><time>2026-04-28T14:49:48.276Z</time></trkpt><trkpt lat="43.520891" lon="17.2721577"><ele>828.0</ele><time>2026-04-28T14:49:49.277Z</time></trkpt><trkpt lat="43.5207646" lon="17.2719735"><ele>828.0</ele><time>2026-04-28T14:49:50.274Z</time></trkpt><trkpt lat="43.5206468" lon="17.2717688"><ele>828.0</ele><time>2026-04-28T14:49:51.279Z</time></trkpt><trkpt lat="43.5205438" lon="17.2715459"><ele>828.0</ele><time>2026-04-28T14:49:52.281Z</time></trkpt><trkpt lat="43.5204518" lon="17.2713062"><ele>834.0</ele><time>2026-04-28T14:49:53.277Z</time></trkpt><trkpt lat="43.5203676" lon="17.271067"><ele>840.0</ele><time>2026-04-28T14:49:54.277Z</time></trkpt><trkpt lat="43.5202825" lon="17.2708344"><ele>846.0</ele><time>2026-04-28T14:49:55.278Z</time></trkpt><trkpt lat="43.5201983" lon="17.2706084"><ele>840.0</ele><time>2026-04-28T14:49:56.276Z</time></trkpt><trkpt lat="43.5201189" lon="17.2703873"><ele>834.0</ele><time>2026-04-28T14:49:57.284Z</time></trkpt><trkpt lat="43.5200378" lon="17.2701718"><ele>828.0</ele><time>2026-04-28T14:49:58.273Z</time></trkpt><trkpt lat="43.519963" lon="17.2699755"><ele>828.0</ele><time>2026-04-28T14:49:59.277Z</time></trkpt><trkpt lat="43.5198893" lon="17.2697851"><ele>828.0</ele><time>2026-04-28T14:50:00.275Z</time></trkpt><trkpt lat="43.5198133" lon="17.2696095"><ele>828.0</ele><time>2026-04-28T14:50:01.277Z</time></trkpt><trkpt lat="43.5197247" lon="17.2694526"><ele>828.0</ele><time>2026-04-28T14:50:02.274Z</time></trkpt><trkpt lat="43.5196215" lon="17.2693123"><ele>827.3333333333333</ele><time>2026-04-28T14:50:03.277Z</time></trkpt><trkpt lat="43.5195032" lon="17.2691855"><ele>826.6666666666666</ele><time>2026-04-28T14:50:04.274Z</time></trkpt><trkpt lat="43.5193716" lon="17.2690663"><ele>826.0</ele><time>2026-04-28T14:50:05.28Z</time></trkpt><trkpt lat="43.5192276" lon="17.2689424"><ele>817.3333333333333</ele><time>2026-04-28T14:50:06.276Z</time></trkpt><trkpt lat="43.5190732" lon="17.2688144"><ele>808.6666666666667</ele><time>2026-04-28T14:50:07.276Z</time></trkpt><trkpt lat="43.5189139" lon="17.2686794"><ele>800.0</ele><time>2026-04-28T14:50:08.275Z</time></trkpt><trkpt lat="43.5187361" lon="17.2685358"><ele>806.6666666666667</ele><time>2026-04-28T14:50:09.274Z</time></trkpt><trkpt lat="43.5185646" lon="17.268394"><ele>813.3333333333333</ele><time>2026-04-28T14:50:10.276Z</time></trkpt><trkpt lat="43.5184059" lon="17.2682669"><ele>820.0</ele><time>2026-04-28T14:50:11.275Z</time></trkpt><trkpt lat="43.5182519" lon="17.2681395"><ele>816.0</ele><time>2026-04-28T14:50:12.278Z</time></trkpt><trkpt lat="43.518106" lon="17.268017"><ele>812.0</ele><time>2026-04-28T14:50:13.275Z</time></trkpt><trkpt lat="43.5179522" lon="17.2679113"><ele>808.0</ele><time>2026-04-28T14:50:14.276Z</time></trkpt><trkpt lat="43.517783" lon="17.2678324"><ele>808.0</ele><time>2026-04-28T14:50:15.275Z</time></trkpt><trkpt lat="43.5176071" lon="17.267776"><ele>808.0</ele><time>2026-04-28T14:50:16.276Z</time></trkpt><trkpt lat="43.5174139" lon="17.2677238"><ele>808.0</ele><time>2026-04-28T14:50:17.276Z</time></trkpt><trkpt lat="43.5172129" lon="17.2676809"><ele>805.6666666666666</ele><time>2026-04-28T14:50:18.276Z</time></trkpt><trkpt lat="43.5170203" lon="17.2676537"><ele>803.3333333333333</ele><time>2026-04-28T14:50:19.275Z</time></trkpt><trkpt lat="43.5168249" lon="17.2676375"><ele>801.0</ele><time>2026-04-28T14:50:20.275Z</time></trkpt><trkpt lat="43.5166377" lon="17.2676279"><ele>801.0</ele><time>2026-04-28T14:50:21.276Z</time></trkpt><trkpt lat="43.5164494" lon="17.2676199"><ele>801.0</ele><time>2026-04-28T14:50:22.275Z</time></trkpt><trkpt lat="43.5162701" lon="17.2676179"><ele>801.0</ele><time>2026-04-28T14:50:23.279Z</time></trkpt><trkpt lat="43.5160866" lon="17.2676217"><ele>799.3333333333333</ele><time>2026-04-28T14:50:24.276Z</time></trkpt><trkpt lat="43.5159013" lon="17.2676196"><ele>797.6666666666666</ele><time>2026-04-28T14:50:25.278Z</time></trkpt><trkpt lat="43.5157181" lon="17.2676119"><ele>796.0</ele><time>2026-04-28T14:50:26.275Z</time></trkpt><trkpt lat="43.5155327" lon="17.2676017"><ele>795.0</ele><time>2026-04-28T14:50:27.277Z</time></trkpt><trkpt lat="43.5153589" lon="17.2675795"><ele>794.0</ele><time>2026-04-28T14:50:28.277Z</time></trkpt><trkpt lat="43.5151862" lon="17.2675514"><ele>793.0</ele><time>2026-04-28T14:50:29.279Z</time></trkpt><trkpt lat="43.5150228" lon="17.2675201"><ele>793.0</ele><time>2026-04-28T14:50:30.276Z</time></trkpt><trkpt lat="43.5148576" lon="17.2674878"><ele>793.0</ele><time>2026-04-28T14:50:31.275Z</time></trkpt><trkpt lat="43.5146873" lon="17.2674769"><ele>793.0</ele><time>2026-04-28T14:50:32.279Z</time></trkpt><trkpt lat="43.5145211" lon="17.2674747"><ele>792.0</ele><time>2026-04-28T14:50:33.274Z</time></trkpt><trkpt lat="43.5143599" lon="17.2674927"><ele>791.0</ele><time>2026-04-28T14:50:34.278Z</time></trkpt><trkpt lat="43.5141961" lon="17.2675303"><ele>790.0</ele><time>2026-04-28T14:50:35.276Z</time></trkpt><trkpt lat="43.514033" lon="17.2675898"><ele>790.0</ele><time>2026-04-28T14:50:36.276Z</time></trkpt><trkpt lat="43.5138673" lon="17.2676705"><ele>790.0</ele><time>2026-04-28T14:50:37.278Z</time></trkpt><trkpt lat="43.5137062" lon="17.2677732"><ele>790.0</ele><time>2026-04-28T14:50:38.277Z</time></trkpt><trkpt lat="43.5135523" lon="17.2678772"><ele>791.3333333333333</ele><time>2026-04-28T14:50:39.276Z</time></trkpt><trkpt lat="43.5134116" lon="17.2679887"><ele>792.6666666666667</ele><time>2026-04-28T14:50:40.279Z</time></trkpt><trkpt lat="43.5132826" lon="17.2681055"><ele>794.0</ele><time>2026-04-28T14:50:41.275Z</time></trkpt><trkpt lat="43.5131701" lon="17.2682144"><ele>794.0</ele><time>2026-04-28T14:50:42.276Z</time></trkpt><trkpt lat="43.5130719" lon="17.2683091"><ele>794.0</ele><time>2026-04-28T14:50:43.275Z</time></trkpt><trkpt lat="43.5129915" lon="17.2683789"><ele>794.0</ele><time>2026-04-28T14:50:44.274Z</time></trkpt><trkpt lat="43.5129302" lon="17.2684325"><ele>794.0</ele><time>2026-04-28T14:50:45.274Z</time></trkpt><trkpt lat="43.5128536" lon="17.2684987"><ele>794.0</ele><time>2026-04-28T14:50:47.273Z</time></trkpt><trkpt lat="43.5127722" lon="17.2685279"><ele>793.8000000000001</ele><time>2026-04-28T14:51:22.274Z</time></trkpt><trkpt lat="43.5127241" lon="17.2686155"><ele>793.6</ele><time>2026-04-28T15:05:03.273Z</time></trkpt><trkpt lat="43.5126393" lon="17.2687265"><ele>793.4</ele><time>2026-04-28T15:05:05.274Z</time></trkpt><trkpt lat="43.5125764" lon="17.268792"><ele>793.2</ele><time>2026-04-28T15:05:06.275Z</time></trkpt><trkpt lat="43.5125014" lon="17.2688692"><ele>793.0</ele><time>2026-04-28T15:05:07.276Z</time></trkpt><trkpt lat="43.5124113" lon="17.2689476"><ele>793.0</ele><time>2026-04-28T15:05:08.276Z</time></trkpt><trkpt lat="43.5123195" lon="17.2690404"><ele>793.0</ele><time>2026-04-28T15:05:09.278Z</time></trkpt><trkpt lat="43.5122177" lon="17.2691315"><ele>793.0</ele><time>2026-04-28T15:05:10.274Z</time></trkpt><trkpt lat="43.5121066" lon="17.2692353"><ele>793.0</ele><time>2026-04-28T15:05:11.275Z</time></trkpt><trkpt lat="43.5119844" lon="17.2693389"><ele>784.3333333333333</ele><time>2026-04-28T15:05:12.275Z</time></trkpt><trkpt lat="43.5118447" lon="17.2694314"><ele>775.6666666666666</ele><time>2026-04-28T15:05:13.274Z</time></trkpt><trkpt lat="43.5116971" lon="17.269515"><ele>767.0</ele><time>2026-04-28T15:05:14.275Z</time></trkpt><trkpt lat="43.5115432" lon="17.2695963"><ele>767.0</ele><time>2026-04-28T15:05:15.277Z</time></trkpt><trkpt lat="43.5113774" lon="17.2696573"><ele>767.0</ele><time>2026-04-28T15:05:16.279Z</time></trkpt><trkpt lat="43.5112081" lon="17.2697102"><ele>767.0</ele><time>2026-04-28T15:05:17.277Z</time></trkpt><trkpt lat="43.5110267" lon="17.2697486"><ele>769.3333333333333</ele><time>2026-04-28T15:05:18.276Z</time></trkpt><trkpt lat="43.5108408" lon="17.2697886"><ele>771.6666666666666</ele><time>2026-04-28T15:05:19.274Z</time></trkpt><trkpt lat="43.5106653" lon="17.269849"><ele>774.0</ele><time>2026-04-28T15:05:20.275Z</time></trkpt><trkpt lat="43.5105027" lon="17.269921"><ele>771.3333333333334</ele><time>2026-04-28T15:05:21.277Z</time></trkpt><trkpt lat="43.5103406" lon="17.2700055"><ele>768.6666666666667</ele><time>2026-04-28T15:05:22.275Z</time></trkpt><trkpt lat="43.5101831" lon="17.2701067"><ele>766.0</ele><time>2026-04-28T15:05:23.275Z</time></trkpt><trkpt lat="43.5100331" lon="17.270239"><ele>766.0</ele><time>2026-04-28T15:05:24.275Z</time></trkpt><trkpt lat="43.509889" lon="17.2703928"><ele>766.0</ele><time>2026-04-28T15:05:25.275Z</time></trkpt><trkpt lat="43.5097512" lon="17.2705631"><ele>766.0</ele><time>2026-04-28T15:05:26.275Z</time></trkpt><trkpt lat="43.5096112" lon="17.270748"><ele>764.0</ele><time>2026-04-28T15:05:27.276Z</time></trkpt><trkpt lat="43.509468" lon="17.2709316"><ele>762.0</ele><time>2026-04-28T15:05:28.274Z</time></trkpt><trkpt lat="43.5093247" lon="17.2711147"><ele>760.0</ele><time>2026-04-28T15:05:29.277Z</time></trkpt><trkpt lat="43.5091793" lon="17.2712878"><ele>758.6666666666667</ele><time>2026-04-28T15:05:30.276Z</time></trkpt><trkpt lat="43.5090324" lon="17.2714422"><ele>757.3333333333334</ele><time>2026-04-28T15:05:31.275Z</time></trkpt><trkpt lat="43.5088789" lon="17.2715836"><ele>756.0</ele><time>2026-04-28T15:05:32.274Z</time></trkpt><trkpt lat="43.5087145" lon="17.2717115"><ele>756.0</ele><time>2026-04-28T15:05:33.277Z</time></trkpt><trkpt lat="43.5085469" lon="17.2718285"><ele>756.0</ele><time>2026-04-28T15:05:34.275Z</time></trkpt><trkpt lat="43.5083745" lon="17.2719433"><ele>756.0</ele><time>2026-04-28T15:05:35.274Z</time></trkpt><trkpt lat="43.5082015" lon="17.2720599"><ele>756.0</ele><time>2026-04-28T15:05:36.276Z</time></trkpt><trkpt lat="43.5080281" lon="17.2721765"><ele>756.0</ele><time>2026-04-28T15:05:37.275Z</time></trkpt><trkpt lat="43.5078514" lon="17.2722939"><ele>756.0</ele><time>2026-04-28T15:05:38.275Z</time></trkpt><trkpt lat="43.5076763" lon="17.2724212"><ele>753.6666666666666</ele><time>2026-04-28T15:05:39.275Z</time></trkpt><trkpt lat="43.507498" lon="17.2725452"><ele>751.3333333333333</ele><time>2026-04-28T15:05:40.275Z</time></trkpt><trkpt lat="43.5073213" lon="17.2726791"><ele>749.0</ele><time>2026-04-28T15:05:41.275Z</time></trkpt><trkpt lat="43.5071487" lon="17.2728322"><ele>748.0</ele><time>2026-04-28T15:05:42.276Z</time></trkpt><trkpt lat="43.506977" lon="17.2729959"><ele>747.0</ele><time>2026-04-28T15:05:43.275Z</time></trkpt><trkpt lat="43.5068065" lon="17.2731655"><ele>746.0</ele><time>2026-04-28T15:05:44.276Z</time></trkpt><trkpt lat="43.5066347" lon="17.2733468"><ele>746.0</ele><time>2026-04-28T15:05:45.274Z</time></trkpt><trkpt lat="43.5064673" lon="17.2735314"><ele>746.0</ele><time>2026-04-28T15:05:46.275Z</time></trkpt><trkpt lat="43.5063084" lon="17.2737161"><ele>746.0</ele><time>2026-04-28T15:05:47.277Z</time></trkpt><trkpt lat="43.5061579" lon="17.2739007"><ele>744.6666666666666</ele><time>2026-04-28T15:05:48.275Z</time></trkpt><trkpt lat="43.5060208" lon="17.2740895"><ele>743.3333333333334</ele><time>2026-04-28T15:05:49.276Z</time></trkpt><trkpt lat="43.5058948" lon="17.2742961"><ele>742.0</ele><time>2026-04-28T15:05:50.277Z</time></trkpt><trkpt lat="43.5057778" lon="17.2745082"><ele>742.0</ele><time>2026-04-28T15:05:51.274Z</time></trkpt><trkpt lat="43.5056712" lon="17.2747386"><ele>742.0</ele><time>2026-04-28T15:05:52.277Z</time></trkpt><trkpt lat="43.5055744" lon="17.2749874"><ele>742.0</ele><time>2026-04-28T15:05:53.277Z</time></trkpt><trkpt lat="43.5054839" lon="17.2752454"><ele>739.0</ele><time>2026-04-28T15:05:54.276Z</time></trkpt><trkpt lat="43.5054083" lon="17.2755161"><ele>736.0</ele><time>2026-04-28T15:05:55.276Z</time></trkpt><trkpt lat="43.5053518" lon="17.2757999"><ele>733.0</ele><time>2026-04-28T15:05:56.277Z</time></trkpt><trkpt lat="43.5052987" lon="17.2760904"><ele>733.0</ele><time>2026-04-28T15:05:57.276Z</time></trkpt><trkpt lat="43.5052468" lon="17.2763862"><ele>733.0</ele><time>2026-04-28T15:05:58.275Z</time></trkpt><trkpt lat="43.5051991" lon="17.2766915"><ele>733.0</ele><time>2026-04-28T15:05:59.273Z</time></trkpt><trkpt lat="43.5051558" lon="17.2769939"><ele>732.5</ele><time>2026-04-28T15:06:00.272Z</time></trkpt><trkpt lat="43.5051146" lon="17.277303"><ele>732.0</ele><time>2026-04-28T15:06:01.273Z</time></trkpt><trkpt lat="43.5050638" lon="17.2776183"><ele>732.0</ele><time>2026-04-28T15:06:02.272Z</time></trkpt><trkpt lat="43.5050146" lon="17.2779401"><ele>732.0</ele><time>2026-04-28T15:06:03.275Z</time></trkpt><trkpt lat="43.504965" lon="17.2782634"><ele>733.5</ele><time>2026-04-28T15:06:04.276Z</time></trkpt><trkpt lat="43.5049146" lon="17.2785963"><ele>735.0</ele><time>2026-04-28T15:06:05.276Z</time></trkpt><trkpt lat="43.5048615" lon="17.2789211"><ele>735.0</ele><time>2026-04-28T15:06:06.276Z</time></trkpt><trkpt lat="43.5048092" lon="17.2792551"><ele>735.0</ele><time>2026-04-28T15:06:07.275Z</time></trkpt><trkpt lat="43.5047619" lon="17.2795939"><ele>734.0</ele><time>2026-04-28T15:06:08.276Z</time></trkpt><trkpt lat="43.5047093" lon="17.279931"><ele>733.0</ele><time>2026-04-28T15:06:09.275Z</time></trkpt><trkpt lat="43.5046556" lon="17.2802687"><ele>733.0</ele><time>2026-04-28T15:06:10.275Z</time></trkpt><trkpt lat="43.5046056" lon="17.280594"><ele>733.0</ele><time>2026-04-28T15:06:11.275Z</time></trkpt><trkpt lat="43.5045571" lon="17.2809122"><ele>729.0</ele><time>2026-04-28T15:06:12.277Z</time></trkpt><trkpt lat="43.5045146" lon="17.2812155"><ele>725.0</ele><time>2026-04-28T15:06:13.274Z</time></trkpt><trkpt lat="43.5044697" lon="17.281502"><ele>721.0</ele><time>2026-04-28T15:06:14.274Z</time></trkpt><trkpt lat="43.5044282" lon="17.2817887"><ele>721.0</ele><time>2026-04-28T15:06:15.275Z</time></trkpt><trkpt lat="43.5043837" lon="17.2820801"><ele>721.0</ele><time>2026-04-28T15:06:16.275Z</time></trkpt><trkpt lat="43.5043392" lon="17.2823534"><ele>721.0</ele><time>2026-04-28T15:06:17.275Z</time></trkpt><trkpt lat="43.5042768" lon="17.282613"><ele>721.0</ele><time>2026-04-28T15:06:18.274Z</time></trkpt><trkpt lat="43.5042026" lon="17.2828666"><ele>721.0</ele><time>2026-04-28T15:06:19.274Z</time></trkpt><trkpt lat="43.5041129" lon="17.2831108"><ele>721.0</ele><time>2026-04-28T15:06:20.276Z</time></trkpt><trkpt lat="43.5040053" lon="17.2833519"><ele>722.3333333333334</ele><time>2026-04-28T15:06:21.275Z</time></trkpt><trkpt lat="43.5038872" lon="17.2835814"><ele>723.6666666666666</ele><time>2026-04-28T15:06:22.275Z</time></trkpt><trkpt lat="43.5037622" lon="17.2837997"><ele>725.0</ele><time>2026-04-28T15:06:23.28Z</time></trkpt><trkpt lat="43.5036301" lon="17.2840031"><ele>722.3333333333333</ele><time>2026-04-28T15:06:24.276Z</time></trkpt><trkpt lat="43.5035022" lon="17.2841873"><ele>719.6666666666666</ele><time>2026-04-28T15:06:25.283Z</time></trkpt><trkpt lat="43.5033762" lon="17.2843494"><ele>717.0</ele><time>2026-04-28T15:06:26.277Z</time></trkpt><trkpt lat="43.5032452" lon="17.284495"><ele>717.0</ele><time>2026-04-28T15:06:27.274Z</time></trkpt><trkpt lat="43.5031074" lon="17.2846153"><ele>717.0</ele><time>2026-04-28T15:06:28.277Z</time></trkpt><trkpt lat="43.5029596" lon="17.2847214"><ele>717.0</ele><time>2026-04-28T15:06:29.277Z</time></trkpt><trkpt lat="43.5028022" lon="17.2848035"><ele>715.6666666666666</ele><time>2026-04-28T15:06:30.275Z</time></trkpt><trkpt lat="43.5026368" lon="17.2848685"><ele>714.3333333333333</ele><time>2026-04-28T15:06:31.275Z</time></trkpt><trkpt lat="43.5024645" lon="17.2849159"><ele>713.0</ele><time>2026-04-28T15:06:32.276Z</time></trkpt><trkpt lat="43.502288" lon="17.2849399"><ele>713.0</ele><time>2026-04-28T15:06:33.275Z</time></trkpt><trkpt lat="43.5021103" lon="17.2849481"><ele>713.0</ele><time>2026-04-28T15:06:34.277Z</time></trkpt><trkpt lat="43.5019296" lon="17.2849502"><ele>713.0</ele><time>2026-04-28T15:06:35.277Z</time></trkpt><trkpt lat="43.5017519" lon="17.2849487"><ele>711.3333333333333</ele><time>2026-04-28T15:06:36.277Z</time></trkpt><trkpt lat="43.5015792" lon="17.2849498"><ele>709.6666666666666</ele><time>2026-04-28T15:06:37.279Z</time></trkpt><trkpt lat="43.5014043" lon="17.2849483"><ele>708.0</ele><time>2026-04-28T15:06:38.275Z</time></trkpt><trkpt lat="43.5012308" lon="17.2849448"><ele>705.6666666666666</ele><time>2026-04-28T15:06:39.277Z</time></trkpt><trkpt lat="43.5010525" lon="17.2849458"><ele>703.3333333333333</ele><time>2026-04-28T15:06:40.277Z</time></trkpt><trkpt lat="43.5008636" lon="17.2849538"><ele>701.0</ele><time>2026-04-28T15:06:41.277Z</time></trkpt><trkpt lat="43.5006768" lon="17.2849663"><ele>701.0</ele><time>2026-04-28T15:06:42.277Z</time></trkpt><trkpt lat="43.5004925" lon="17.2849895"><ele>701.0</ele><time>2026-04-28T15:06:43.282Z</time></trkpt><trkpt lat="43.5003043" lon="17.2850138"><ele>701.0</ele><time>2026-04-28T15:06:44.276Z</time></trkpt><trkpt lat="43.5001169" lon="17.2850492"><ele>698.3333333333333</ele><time>2026-04-28T15:06:45.275Z</time></trkpt><trkpt lat="43.4999307" lon="17.2850933"><ele>695.6666666666666</ele><time>2026-04-28T15:06:46.278Z</time></trkpt><trkpt lat="43.4997372" lon="17.2851431"><ele>693.0</ele><time>2026-04-28T15:06:47.275Z</time></trkpt><trkpt lat="43.4995443" lon="17.28521"><ele>690.3333333333334</ele><time>2026-04-28T15:06:48.286Z</time></trkpt><trkpt lat="43.4993509" lon="17.2852867"><ele>687.6666666666667</ele><time>2026-04-28T15:06:49.277Z</time></trkpt><trkpt lat="43.4991575" lon="17.2853751"><ele>685.0</ele><time>2026-04-28T15:06:50.276Z</time></trkpt><trkpt lat="43.4989624" lon="17.2854767"><ele>685.0</ele><time>2026-04-28T15:06:51.277Z</time></trkpt><trkpt lat="43.4987738" lon="17.285584"><ele>685.0</ele><time>2026-04-28T15:06:52.276Z</time></trkpt><trkpt lat="43.4985853" lon="17.285694"><ele>685.0</ele><time>2026-04-28T15:06:53.276Z</time></trkpt><trkpt lat="43.4983891" lon="17.2858043"><ele>686.0</ele><time>2026-04-28T15:06:54.275Z</time></trkpt><trkpt lat="43.4981919" lon="17.2859155"><ele>687.0</ele><time>2026-04-28T15:06:55.276Z</time></trkpt><trkpt lat="43.4979978" lon="17.2860293"><ele>688.0</ele><time>2026-04-28T15:06:56.277Z</time></trkpt><trkpt lat="43.4978067" lon="17.2861447"><ele>687.6666666666667</ele><time>2026-04-28T15:06:57.277Z</time></trkpt><trkpt lat="43.497628" lon="17.2862529"><ele>687.3333333333334</ele><time>2026-04-28T15:06:58.278Z</time></trkpt><trkpt lat="43.4974526" lon="17.2863712"><ele>687.0</ele><time>2026-04-28T15:06:59.279Z</time></trkpt><trkpt lat="43.4972892" lon="17.2864948"><ele>687.0</ele><time>2026-04-28T15:07:00.275Z</time></trkpt><trkpt lat="43.4971328" lon="17.2866345"><ele>687.0</ele><time>2026-04-28T15:07:01.274Z</time></trkpt><trkpt lat="43.4969815" lon="17.2867958"><ele>687.0</ele><time>2026-04-28T15:07:02.277Z</time></trkpt><trkpt lat="43.4968407" lon="17.2869803"><ele>684.0</ele><time>2026-04-28T15:07:03.274Z</time></trkpt><trkpt lat="43.4967017" lon="17.2871837"><ele>681.0</ele><time>2026-04-28T15:07:04.284Z</time></trkpt><trkpt lat="43.4965734" lon="17.2874011"><ele>678.0</ele><time>2026-04-28T15:07:05.278Z</time></trkpt><trkpt lat="43.4964585" lon="17.2876091"><ele>678.0</ele><time>2026-04-28T15:07:06.277Z</time></trkpt><trkpt lat="43.4963521" lon="17.2878267"><ele>678.0</ele><time>2026-04-28T15:07:07.275Z</time></trkpt><trkpt lat="43.496249" lon="17.2880344"><ele>678.0</ele><time>2026-04-28T15:07:08.277Z</time></trkpt><trkpt lat="43.4961573" lon="17.2882422"><ele>673.6666666666666</ele><time>2026-04-28T15:07:09.275Z</time></trkpt><trkpt lat="43.4960653" lon="17.2884508"><ele>669.3333333333333</ele><time>2026-04-28T15:07:10.275Z</time></trkpt><trkpt lat="43.4959672" lon="17.288665"><ele>665.0</ele><time>2026-04-28T15:07:11.275Z</time></trkpt><trkpt lat="43.4958651" lon="17.2888838"><ele>667.6666666666666</ele><time>2026-04-28T15:07:12.275Z</time></trkpt><trkpt lat="43.4957564" lon="17.2890961"><ele>670.3333333333334</ele><time>2026-04-28T15:07:13.278Z</time></trkpt><trkpt lat="43.4956516" lon="17.2892913"><ele>673.0</ele><time>2026-04-28T15:07:14.275Z</time></trkpt><trkpt lat="43.4955483" lon="17.2894678"><ele>673.0</ele><time>2026-04-28T15:07:15.275Z</time></trkpt><trkpt lat="43.4954457" lon="17.289634"><ele>673.0</ele><time>2026-04-28T15:07:16.278Z</time></trkpt><trkpt lat="43.4953371" lon="17.2897781"><ele>673.0</ele><time>2026-04-28T15:07:17.276Z</time></trkpt><trkpt lat="43.4952214" lon="17.2899055"><ele>670.75</ele><time>2026-04-28T15:07:18.275Z</time></trkpt><trkpt lat="43.4951021" lon="17.290027"><ele>668.5</ele><time>2026-04-28T15:07:19.276Z</time></trkpt><trkpt lat="43.4949754" lon="17.2901444"><ele>666.25</ele><time>2026-04-28T15:07:20.276Z</time></trkpt><trkpt lat="43.494859" lon="17.2902547"><ele>664.0</ele><time>2026-04-28T15:07:21.275Z</time></trkpt><trkpt lat="43.4947418" lon="17.2903639"><ele>664.0</ele><time>2026-04-28T15:07:22.274Z</time></trkpt><trkpt lat="43.4946266" lon="17.2904686"><ele>664.0</ele><time>2026-04-28T15:07:23.277Z</time></trkpt><trkpt lat="43.4945197" lon="17.2905686"><ele>664.0</ele><time>2026-04-28T15:07:24.276Z</time></trkpt><trkpt lat="43.4944091" lon="17.2906672"><ele>664.0</ele><time>2026-04-28T15:07:25.276Z</time></trkpt><trkpt lat="43.4942978" lon="17.2907736"><ele>663.75</ele><time>2026-04-28T15:07:26.274Z</time></trkpt><trkpt lat="43.4941872" lon="17.2908766"><ele>663.5</ele><time>2026-04-28T15:07:27.276Z</time></trkpt><trkpt lat="43.4940791" lon="17.2909739"><ele>663.25</ele><time>2026-04-28T15:07:28.275Z</time></trkpt><trkpt lat="43.4939736" lon="17.2910676"><ele>663.0</ele><time>2026-04-28T15:07:29.274Z</time></trkpt><trkpt lat="43.4938711" lon="17.2911557"><ele>663.0</ele><time>2026-04-28T15:07:30.275Z</time></trkpt><trkpt lat="43.4937577" lon="17.2912429"><ele>663.0</ele><time>2026-04-28T15:07:31.275Z</time></trkpt><trkpt lat="43.4936453" lon="17.2913403"><ele>663.0</ele><time>2026-04-28T15:07:32.275Z</time></trkpt><trkpt lat="43.4935258" lon="17.2914177"><ele>663.0</ele><time>2026-04-28T15:07:33.276Z</time></trkpt><trkpt lat="43.4933967" lon="17.2914888"><ele>661.75</ele><time>2026-04-28T15:07:34.279Z</time></trkpt><trkpt lat="43.4932661" lon="17.2915574"><ele>660.5</ele><time>2026-04-28T15:07:35.277Z</time></trkpt><trkpt lat="43.4931295" lon="17.291626"><ele>659.25</ele><time>2026-04-28T15:07:36.275Z</time></trkpt><trkpt lat="43.4929867" lon="17.2916951"><ele>658.0</ele><time>2026-04-28T15:07:37.275Z</time></trkpt><trkpt lat="43.4928409" lon="17.2917646"><ele>654.6666666666667</ele><time>2026-04-28T15:07:38.276Z</time></trkpt><trkpt lat="43.4926907" lon="17.2918375"><ele>651.3333333333334</ele><time>2026-04-28T15:07:39.275Z</time></trkpt><trkpt lat="43.4925367" lon="17.2919162"><ele>648.0</ele><time>2026-04-28T15:07:40.278Z</time></trkpt><trkpt lat="43.4923804" lon="17.2919974"><ele>648.0</ele><time>2026-04-28T15:07:41.276Z</time></trkpt><trkpt lat="43.492227" lon="17.2920821"><ele>648.0</ele><time>2026-04-28T15:07:42.276Z</time></trkpt><trkpt lat="43.4920647" lon="17.292177"><ele>648.0</ele><time>2026-04-28T15:07:43.275Z</time></trkpt><trkpt lat="43.4919144" lon="17.2922854"><ele>648.0</ele><time>2026-04-28T15:07:44.276Z</time></trkpt><trkpt lat="43.4917642" lon="17.2924049"><ele>648.0</ele><time>2026-04-28T15:07:45.276Z</time></trkpt><trkpt lat="43.4916158" lon="17.2925263"><ele>648.0</ele><time>2026-04-28T15:07:46.274Z</time></trkpt><trkpt lat="43.4914634" lon="17.2926556"><ele>648.0</ele><time>2026-04-28T15:07:47.276Z</time></trkpt><trkpt lat="43.491318" lon="17.2927965"><ele>648.0</ele><time>2026-04-28T15:07:48.275Z</time></trkpt><trkpt lat="43.4911722" lon="17.2929426"><ele>648.0</ele><time>2026-04-28T15:07:49.276Z</time></trkpt><trkpt lat="43.4910266" lon="17.29309"><ele>646.3333333333334</ele><time>2026-04-28T15:07:50.276Z</time></trkpt><trkpt lat="43.4908793" lon="17.2932379"><ele>644.6666666666667</ele><time>2026-04-28T15:07:51.275Z</time></trkpt><trkpt lat="43.4907307" lon="17.2933875"><ele>643.0</ele><time>2026-04-28T15:07:52.275Z</time></trkpt><trkpt lat="43.4905799" lon="17.29354"><ele>643.0</ele><time>2026-04-28T15:07:53.275Z</time></trkpt><trkpt lat="43.4904273" lon="17.2936953"><ele>643.0</ele><time>2026-04-28T15:07:54.275Z</time></trkpt><trkpt lat="43.4902695" lon="17.2938557"><ele>643.0</ele><time>2026-04-28T15:07:55.275Z</time></trkpt><trkpt lat="43.4901101" lon="17.2940142"><ele>642.0</ele><time>2026-04-28T15:07:56.276Z</time></trkpt><trkpt lat="43.4899499" lon="17.2941697"><ele>641.0</ele><time>2026-04-28T15:07:57.278Z</time></trkpt><trkpt lat="43.4897926" lon="17.2943227"><ele>640.0</ele><time>2026-04-28T15:07:58.279Z</time></trkpt><trkpt lat="43.4896323" lon="17.2944705"><ele>637.6666666666667</ele><time>2026-04-28T15:07:59.277Z</time></trkpt><trkpt lat="43.4894698" lon="17.2946046"><ele>635.3333333333334</ele><time>2026-04-28T15:08:00.274Z</time></trkpt><trkpt lat="43.4893081" lon="17.2947243"><ele>633.0</ele><time>2026-04-28T15:08:01.274Z</time></trkpt><trkpt lat="43.4891394" lon="17.2948276"><ele>633.0</ele><time>2026-04-28T15:08:02.276Z</time></trkpt><trkpt lat="43.488961" lon="17.2949321"><ele>633.0</ele><time>2026-04-28T15:08:03.276Z</time></trkpt><trkpt lat="43.4887853" lon="17.2950278"><ele>633.0</ele><time>2026-04-28T15:08:04.275Z</time></trkpt><trkpt lat="43.4886127" lon="17.2951102"><ele>631.0</ele><time>2026-04-28T15:08:05.275Z</time></trkpt><trkpt lat="43.488446" lon="17.2951931"><ele>629.0</ele><time>2026-04-28T15:08:06.276Z</time></trkpt><trkpt lat="43.4882842" lon="17.2952696"><ele>627.0</ele><time>2026-04-28T15:08:07.276Z</time></trkpt><trkpt lat="43.4881271" lon="17.2953483"><ele>627.0</ele><time>2026-04-28T15:08:08.281Z</time></trkpt><trkpt lat="43.4879747" lon="17.2954268"><ele>627.0</ele><time>2026-04-28T15:08:09.277Z</time></trkpt><trkpt lat="43.4878277" lon="17.2955093"><ele>627.0</ele><time>2026-04-28T15:08:10.277Z</time></trkpt><trkpt lat="43.4876755" lon="17.2956008"><ele>627.6666666666666</ele><time>2026-04-28T15:08:11.275Z</time></trkpt><trkpt lat="43.4875259" lon="17.295705"><ele>628.3333333333333</ele><time>2026-04-28T15:08:12.276Z</time></trkpt><trkpt lat="43.4873842" lon="17.2958189"><ele>629.0</ele><time>2026-04-28T15:08:13.276Z</time></trkpt><trkpt lat="43.4872407" lon="17.2959446"><ele>629.0</ele><time>2026-04-28T15:08:14.275Z</time></trkpt><trkpt lat="43.4870959" lon="17.2960644"><ele>629.0</ele><time>2026-04-28T15:08:15.276Z</time></trkpt><trkpt lat="43.4869543" lon="17.2961913"><ele>629.0</ele><time>2026-04-28T15:08:16.279Z</time></trkpt><trkpt lat="43.48681" lon="17.2963173"><ele>627.6666666666666</ele><time>2026-04-28T15:08:17.276Z</time></trkpt><trkpt lat="43.4866621" lon="17.2964425"><ele>626.3333333333334</ele><time>2026-04-28T15:08:18.275Z</time></trkpt><trkpt lat="43.4865134" lon="17.2965737"><ele>625.0</ele><time>2026-04-28T15:08:19.276Z</time></trkpt><trkpt lat="43.486365" lon="17.2967033"><ele>623.6666666666667</ele><time>2026-04-28T15:08:20.276Z</time></trkpt><trkpt lat="43.4862214" lon="17.296832"><ele>622.3333333333334</ele><time>2026-04-28T15:08:21.276Z</time></trkpt><trkpt lat="43.4860762" lon="17.2969594"><ele>621.0</ele><time>2026-04-28T15:08:22.276Z</time></trkpt><trkpt lat="43.4859301" lon="17.2970811"><ele>621.0</ele><time>2026-04-28T15:08:23.275Z</time></trkpt><trkpt lat="43.4857839" lon="17.2971962"><ele>621.0</ele><time>2026-04-28T15:08:24.274Z</time></trkpt><trkpt lat="43.4856418" lon="17.2973177"><ele>621.0</ele><time>2026-04-28T15:08:25.275Z</time></trkpt><trkpt lat="43.4854979" lon="17.2974394"><ele>621.0</ele><time>2026-04-28T15:08:26.276Z</time></trkpt><trkpt lat="43.4853545" lon="17.2975625"><ele>621.0</ele><time>2026-04-28T15:08:27.274Z</time></trkpt><trkpt lat="43.4852126" lon="17.2976852"><ele>621.0</ele><time>2026-04-28T15:08:28.276Z</time></trkpt><trkpt lat="43.4850791" lon="17.2978008"><ele>621.0</ele><time>2026-04-28T15:08:29.275Z</time></trkpt><trkpt lat="43.4849544" lon="17.2979074"><ele>621.0</ele><time>2026-04-28T15:08:30.274Z</time></trkpt><trkpt lat="43.4848267" lon="17.298014"><ele>621.0</ele><time>2026-04-28T15:08:31.275Z</time></trkpt><trkpt lat="43.4847176" lon="17.2981056"><ele>621.0</ele><time>2026-04-28T15:08:32.278Z</time></trkpt><trkpt lat="43.48463" lon="17.2981821"><ele>620.8</ele><time>2026-04-28T15:08:33.277Z</time></trkpt><trkpt lat="43.484554" lon="17.2982443"><ele>620.6</ele><time>2026-04-28T15:08:34.275Z</time></trkpt><trkpt lat="43.4844911" lon="17.2982858"><ele>620.4</ele><time>2026-04-28T15:08:35.277Z</time></trkpt><trkpt lat="43.4844243" lon="17.2983096"><ele>620.2</ele><time>2026-04-28T15:08:36.276Z</time></trkpt><trkpt lat="43.4843071" lon="17.2982987"><ele>620.0</ele><time>2026-04-28T15:08:38.277Z</time></trkpt><trkpt lat="43.484189" lon="17.2983124"><ele>620.0</ele><time>2026-04-28T15:08:40.274Z</time></trkpt><trkpt lat="43.4841188" lon="17.298415"><ele>620.0</ele><time>2026-04-28T15:08:42.276Z</time></trkpt><trkpt lat="43.4840863" lon="17.298565"><ele>620.0</ele><time>2026-04-28T15:08:44.276Z</time></trkpt><trkpt lat="43.4840582" lon="17.2986741"><ele>620.0</ele><time>2026-04-28T15:08:45.275Z</time></trkpt><trkpt lat="43.4840155" lon="17.2987902"><ele>620.0</ele><time>2026-04-28T15:08:46.276Z</time></trkpt><trkpt lat="43.4839596" lon="17.2989115"><ele>620.75</ele><time>2026-04-28T15:08:47.276Z</time></trkpt><trkpt lat="43.4838921" lon="17.2990354"><ele>621.5</ele><time>2026-04-28T15:08:48.276Z</time></trkpt><trkpt lat="43.4838091" lon="17.2991713"><ele>622.25</ele><time>2026-04-28T15:08:49.274Z</time></trkpt><trkpt lat="43.4837207" lon="17.2993048"><ele>623.0</ele><time>2026-04-28T15:08:50.274Z</time></trkpt><trkpt lat="43.4836353" lon="17.2994469"><ele>621.25</ele><time>2026-04-28T15:08:51.275Z</time></trkpt><trkpt lat="43.4835426" lon="17.2995902"><ele>619.5</ele><time>2026-04-28T15:08:52.277Z</time></trkpt><trkpt lat="43.4834434" lon="17.2997261"><ele>617.75</ele><time>2026-04-28T15:08:53.275Z</time></trkpt><trkpt lat="43.483335" lon="17.2998622"><ele>616.0</ele><time>2026-04-28T15:08:54.279Z</time></trkpt><trkpt lat="43.4832246" lon="17.2999854"><ele>616.0</ele><time>2026-04-28T15:08:55.276Z</time></trkpt><trkpt lat="43.4831119" lon="17.3000951"><ele>616.0</ele><time>2026-04-28T15:08:56.277Z</time></trkpt><trkpt lat="43.4829978" lon="17.3001979"><ele>616.0</ele><time>2026-04-28T15:08:57.279Z</time></trkpt><trkpt lat="43.4828788" lon="17.3003003"><ele>616.0</ele><time>2026-04-28T15:08:58.277Z</time></trkpt><trkpt lat="43.4827568" lon="17.3004029"><ele>616.0</ele><time>2026-04-28T15:08:59.276Z</time></trkpt><trkpt lat="43.4826319" lon="17.3005065"><ele>616.0</ele><time>2026-04-28T15:09:00.277Z</time></trkpt><trkpt lat="43.4824992" lon="17.3006214"><ele>616.0</ele><time>2026-04-28T15:09:01.276Z</time></trkpt><trkpt lat="43.4823672" lon="17.3007421"><ele>616.0</ele><time>2026-04-28T15:09:02.276Z</time></trkpt><trkpt lat="43.4822406" lon="17.3008748"><ele>616.0</ele><time>2026-04-28T15:09:03.276Z</time></trkpt><trkpt lat="43.4821101" lon="17.3010146"><ele>616.0</ele><time>2026-04-28T15:09:04.278Z</time></trkpt><trkpt lat="43.4819902" lon="17.3011679"><ele>616.6666666666667</ele><time>2026-04-28T15:09:05.276Z</time></trkpt><trkpt lat="43.4818853" lon="17.3013449"><ele>617.3333333333334</ele><time>2026-04-28T15:09:06.276Z</time></trkpt><trkpt lat="43.4817894" lon="17.3015256"><ele>618.0</ele><time>2026-04-28T15:09:07.276Z</time></trkpt><trkpt lat="43.4817038" lon="17.3016829"><ele>618.4</ele><time>2026-04-28T15:09:08.275Z</time></trkpt><trkpt lat="43.4816258" lon="17.3018253"><ele>618.8</ele><time>2026-04-28T15:09:09.275Z</time></trkpt><trkpt lat="43.48156" lon="17.3019514"><ele>619.2</ele><time>2026-04-28T15:09:10.274Z</time></trkpt><trkpt lat="43.4814935" lon="17.3020656"><ele>619.6</ele><time>2026-04-28T15:09:11.273Z</time></trkpt><trkpt lat="43.4814418" lon="17.3021684"><ele>620.0</ele><time>2026-04-28T15:09:12.272Z</time></trkpt><trkpt lat="43.4813954" lon="17.3022336"><ele>619.5</ele><time>2026-04-28T15:09:13.275Z</time></trkpt><trkpt lat="43.4813444" lon="17.3023189"><ele>619.0</ele><time>2026-04-28T15:09:15.276Z</time></trkpt><trkpt lat="43.4812785" lon="17.3024026"><ele>618.5</ele><time>2026-04-28T15:09:18.276Z</time></trkpt><trkpt lat="43.4811892" lon="17.3025115"><ele>618.0</ele><time>2026-04-28T15:09:20.278Z</time></trkpt><trkpt lat="43.4811419" lon="17.3025826"><ele>617.5</ele><time>2026-04-28T15:09:21.276Z</time></trkpt><trkpt lat="43.4811104" lon="17.3026735"><ele>617.0</ele><time>2026-04-28T15:09:22.276Z</time></trkpt><trkpt lat="43.4810969" lon="17.3027742"><ele>617.0</ele><time>2026-04-28T15:09:23.275Z</time></trkpt><trkpt lat="43.4810891" lon="17.3028979"><ele>617.0</ele><time>2026-04-28T15:09:24.275Z</time></trkpt><trkpt lat="43.4810752" lon="17.303036"><ele>617.0</ele><time>2026-04-28T15:09:25.277Z</time></trkpt><trkpt lat="43.481051" lon="17.3031791"><ele>617.0</ele><time>2026-04-28T15:09:26.274Z</time></trkpt><trkpt lat="43.4810091" lon="17.3033218"><ele>617.0</ele><time>2026-04-28T15:09:27.275Z</time></trkpt><trkpt lat="43.4809636" lon="17.3034835"><ele>616.75</ele><time>2026-04-28T15:09:28.279Z</time></trkpt><trkpt lat="43.480916" lon="17.3036474"><ele>616.5</ele><time>2026-04-28T15:09:29.275Z</time></trkpt><trkpt lat="43.4808587" lon="17.3038262"><ele>616.25</ele><time>2026-04-28T15:09:30.276Z</time></trkpt><trkpt lat="43.4807955" lon="17.3040208"><ele>616.0</ele><time>2026-04-28T15:09:31.276Z</time></trkpt><trkpt lat="43.4807335" lon="17.3042254"><ele>616.6666666666667</ele><time>2026-04-28T15:09:32.277Z</time></trkpt><trkpt lat="43.4806706" lon="17.3044392"><ele>617.3333333333334</ele><time>2026-04-28T15:09:33.276Z</time></trkpt><trkpt lat="43.4806008" lon="17.3046625"><ele>618.0</ele><time>2026-04-28T15:09:34.275Z</time></trkpt><trkpt lat="43.4805229" lon="17.3048853"><ele>618.3333333333334</ele><time>2026-04-28T15:09:35.276Z</time></trkpt><trkpt lat="43.4804364" lon="17.3051084"><ele>618.6666666666667</ele><time>2026-04-28T15:09:36.279Z</time></trkpt><trkpt lat="43.4803375" lon="17.305334"><ele>619.0</ele><time>2026-04-28T15:09:37.275Z</time></trkpt><trkpt lat="43.4802281" lon="17.3055587"><ele>618.0</ele><time>2026-04-28T15:09:38.274Z</time></trkpt><trkpt lat="43.4801102" lon="17.3057875"><ele>617.0</ele><time>2026-04-28T15:09:39.278Z</time></trkpt><trkpt lat="43.4799843" lon="17.3060138"><ele>616.0</ele><time>2026-04-28T15:09:40.278Z</time></trkpt><trkpt lat="43.4798508" lon="17.3062437"><ele>616.0</ele><time>2026-04-28T15:09:41.275Z</time></trkpt><trkpt lat="43.4797079" lon="17.3064651"><ele>616.0</ele><time>2026-04-28T15:09:42.275Z</time></trkpt><trkpt lat="43.4795593" lon="17.3066726"><ele>616.0</ele><time>2026-04-28T15:09:43.273Z</time></trkpt><trkpt lat="43.4794015" lon="17.3068682"><ele>616.0</ele><time>2026-04-28T15:09:44.275Z</time></trkpt><trkpt lat="43.4792409" lon="17.3070616"><ele>616.0</ele><time>2026-04-28T15:09:45.278Z</time></trkpt><trkpt lat="43.4790775" lon="17.3072485"><ele>616.0</ele><time>2026-04-28T15:09:46.276Z</time></trkpt><trkpt lat="43.4789122" lon="17.3074241"><ele>615.3333333333334</ele><time>2026-04-28T15:09:47.276Z</time></trkpt><trkpt lat="43.4787474" lon="17.307593"><ele>614.6666666666666</ele><time>2026-04-28T15:09:48.278Z</time></trkpt><trkpt lat="43.4785849" lon="17.3077553"><ele>614.0</ele><time>2026-04-28T15:09:49.276Z</time></trkpt><trkpt lat="43.4784235" lon="17.3079196"><ele>614.0</ele><time>2026-04-28T15:09:50.275Z</time></trkpt><trkpt lat="43.4782647" lon="17.3080755"><ele>614.0</ele><time>2026-04-28T15:09:51.276Z</time></trkpt><trkpt lat="43.4781053" lon="17.3082267"><ele>614.0</ele><time>2026-04-28T15:09:52.276Z</time></trkpt><trkpt lat="43.4779517" lon="17.3083843"><ele>614.6666666666666</ele><time>2026-04-28T15:09:53.276Z</time></trkpt><trkpt lat="43.4777923" lon="17.3085413"><ele>615.3333333333334</ele><time>2026-04-28T15:09:54.275Z</time></trkpt><trkpt lat="43.4776242" lon="17.3087006"><ele>616.0</ele><time>2026-04-28T15:09:55.277Z</time></trkpt><trkpt lat="43.4774592" lon="17.3088533"><ele>616.0</ele><time>2026-04-28T15:09:56.276Z</time></trkpt><trkpt lat="43.4772916" lon="17.3090133"><ele>616.0</ele><time>2026-04-28T15:09:57.276Z</time></trkpt><trkpt lat="43.4771224" lon="17.3091734"><ele>616.0</ele><time>2026-04-28T15:09:58.28Z</time></trkpt><trkpt lat="43.4769522" lon="17.3093276"><ele>616.0</ele><time>2026-04-28T15:09:59.276Z</time></trkpt><trkpt lat="43.4767777" lon="17.3094816"><ele>616.0</ele><time>2026-04-28T15:10:00.274Z</time></trkpt><trkpt lat="43.4766031" lon="17.3096289"><ele>616.0</ele><time>2026-04-28T15:10:01.277Z</time></trkpt><trkpt lat="43.4764201" lon="17.3097715"><ele>617.0</ele><time>2026-04-28T15:10:02.275Z</time></trkpt><trkpt lat="43.4762361" lon="17.3099091"><ele>618.0</ele><time>2026-04-28T15:10:03.274Z</time></trkpt><trkpt lat="43.4760483" lon="17.3100453"><ele>619.0</ele><time>2026-04-28T15:10:04.276Z</time></trkpt><trkpt lat="43.4758594" lon="17.3101788"><ele>619.0</ele><time>2026-04-28T15:10:05.274Z</time></trkpt><trkpt lat="43.4756675" lon="17.3103119"><ele>619.0</ele><time>2026-04-28T15:10:06.274Z</time></trkpt><trkpt lat="43.4754717" lon="17.3104435"><ele>619.0</ele><time>2026-04-28T15:10:07.276Z</time></trkpt><trkpt lat="43.4752783" lon="17.3105751"><ele>619.3333333333334</ele><time>2026-04-28T15:10:08.277Z</time></trkpt><trkpt lat="43.4750837" lon="17.3107093"><ele>619.6666666666666</ele><time>2026-04-28T15:10:09.274Z</time></trkpt><trkpt lat="43.4748945" lon="17.3108469"><ele>620.0</ele><time>2026-04-28T15:10:10.276Z</time></trkpt><trkpt lat="43.4747134" lon="17.3109893"><ele>622.0</ele><time>2026-04-28T15:10:11.275Z</time></trkpt><trkpt lat="43.4745383" lon="17.3111476"><ele>624.0</ele><time>2026-04-28T15:10:12.275Z</time></trkpt><trkpt lat="43.4743715" lon="17.3113057"><ele>626.0</ele><time>2026-04-28T15:10:13.277Z</time></trkpt><trkpt lat="43.4742076" lon="17.3114814"><ele>626.0</ele><time>2026-04-28T15:10:14.276Z</time></trkpt><trkpt lat="43.4740409" lon="17.3116551"><ele>626.0</ele><time>2026-04-28T15:10:15.275Z</time></trkpt><trkpt lat="43.4738745" lon="17.3118346"><ele>626.0</ele><time>2026-04-28T15:10:16.276Z</time></trkpt><trkpt lat="43.4737096" lon="17.3120124"><ele>626.3333333333333</ele><time>2026-04-28T15:10:17.276Z</time></trkpt><trkpt lat="43.4735363" lon="17.3121797"><ele>626.6666666666666</ele><time>2026-04-28T15:10:18.279Z</time></trkpt><trkpt lat="43.4733584" lon="17.3123379"><ele>627.0</ele><time>2026-04-28T15:10:19.276Z</time></trkpt><trkpt lat="43.4731739" lon="17.3124876"><ele>627.0</ele><time>2026-04-28T15:10:20.276Z</time></trkpt><trkpt lat="43.4729851" lon="17.3126284"><ele>627.0</ele><time>2026-04-28T15:10:21.275Z</time></trkpt><trkpt lat="43.472785" lon="17.3127477"><ele>627.0</ele><time>2026-04-28T15:10:22.274Z</time></trkpt><trkpt lat="43.4725771" lon="17.3128476"><ele>627.3333333333334</ele><time>2026-04-28T15:10:23.274Z</time></trkpt><trkpt lat="43.4723655" lon="17.312926"><ele>627.6666666666667</ele><time>2026-04-28T15:10:24.274Z</time></trkpt><trkpt lat="43.4721486" lon="17.312986"><ele>628.0</ele><time>2026-04-28T15:10:25.275Z</time></trkpt><trkpt lat="43.4719344" lon="17.3130196"><ele>627.0</ele><time>2026-04-28T15:10:26.275Z</time></trkpt><trkpt lat="43.4717183" lon="17.313033"><ele>626.0</ele><time>2026-04-28T15:10:27.278Z</time></trkpt><trkpt lat="43.4715003" lon="17.3130363"><ele>625.0</ele><time>2026-04-28T15:10:28.274Z</time></trkpt><trkpt lat="43.4712773" lon="17.313028"><ele>623.5</ele><time>2026-04-28T15:10:29.281Z</time></trkpt><trkpt lat="43.4710494" lon="17.3129971"><ele>622.0</ele><time>2026-04-28T15:10:30.275Z</time></trkpt><trkpt lat="43.4708146" lon="17.3129776"><ele>622.0</ele><time>2026-04-28T15:10:31.279Z</time></trkpt><trkpt lat="43.4705918" lon="17.3129575"><ele>622.0</ele><time>2026-04-28T15:10:32.282Z</time></trkpt><trkpt lat="43.4703778" lon="17.312946"><ele>622.0</ele><time>2026-04-28T15:10:33.278Z</time></trkpt><trkpt lat="43.4701697" lon="17.3129533"><ele>619.3333333333334</ele><time>2026-04-28T15:10:34.274Z</time></trkpt><trkpt lat="43.469972" lon="17.3129913"><ele>616.6666666666666</ele><time>2026-04-28T15:10:35.276Z</time></trkpt><trkpt lat="43.469786" lon="17.3130608"><ele>614.0</ele><time>2026-04-28T15:10:36.275Z</time></trkpt><trkpt lat="43.4696002" lon="17.3131641"><ele>612.3333333333333</ele><time>2026-04-28T15:10:37.277Z</time></trkpt><trkpt lat="43.469426" lon="17.3133061"><ele>610.6666666666666</ele><time>2026-04-28T15:10:38.276Z</time></trkpt><trkpt lat="43.4692678" lon="17.3134863"><ele>609.0</ele><time>2026-04-28T15:10:39.278Z</time></trkpt><trkpt lat="43.4691236" lon="17.3137071"><ele>609.5</ele><time>2026-04-28T15:10:40.275Z</time></trkpt><trkpt lat="43.4689876" lon="17.313956"><ele>610.0</ele><time>2026-04-28T15:10:41.277Z</time></trkpt><trkpt lat="43.4688598" lon="17.3142295"><ele>608.5</ele><time>2026-04-28T15:10:42.275Z</time></trkpt><trkpt lat="43.4687443" lon="17.314518"><ele>607.0</ele><time>2026-04-28T15:10:43.275Z</time></trkpt><trkpt lat="43.4686391" lon="17.3147911"><ele>607.0</ele><time>2026-04-28T15:10:44.276Z</time></trkpt><trkpt lat="43.4685413" lon="17.3150487"><ele>607.0</ele><time>2026-04-28T15:10:45.275Z</time></trkpt><trkpt lat="43.4684435" lon="17.3153104"><ele>607.0</ele><time>2026-04-28T15:10:46.275Z</time></trkpt><trkpt lat="43.468346" lon="17.3155649"><ele>608.3333333333334</ele><time>2026-04-28T15:10:47.275Z</time></trkpt><trkpt lat="43.468252" lon="17.315832"><ele>609.6666666666666</ele><time>2026-04-28T15:10:48.276Z</time></trkpt><trkpt lat="43.4681498" lon="17.3160999"><ele>611.0</ele><time>2026-04-28T15:10:49.276Z</time></trkpt><trkpt lat="43.4680477" lon="17.3163619"><ele>611.3333333333333</ele><time>2026-04-28T15:10:50.275Z</time></trkpt><trkpt lat="43.4679433" lon="17.3166289"><ele>611.6666666666666</ele><time>2026-04-28T15:10:51.274Z</time></trkpt><trkpt lat="43.4678317" lon="17.3168933"><ele>612.0</ele><time>2026-04-28T15:10:52.275Z</time></trkpt><trkpt lat="43.467711" lon="17.3171511"><ele>612.3333333333334</ele><time>2026-04-28T15:10:53.275Z</time></trkpt><trkpt lat="43.4675869" lon="17.3174078"><ele>612.6666666666667</ele><time>2026-04-28T15:10:54.275Z</time></trkpt><trkpt lat="43.4674564" lon="17.3176605"><ele>613.0</ele><time>2026-04-28T15:10:55.277Z</time></trkpt><trkpt lat="43.4673221" lon="17.3179111"><ele>612.0</ele><time>2026-04-28T15:10:56.276Z</time></trkpt><trkpt lat="43.4671877" lon="17.3181652"><ele>611.0</ele><time>2026-04-28T15:10:57.273Z</time></trkpt><trkpt lat="43.4670543" lon="17.3184231"><ele>611.0</ele><time>2026-04-28T15:10:58.274Z</time></trkpt><trkpt lat="43.466925" lon="17.3186746"><ele>611.0</ele><time>2026-04-28T15:10:59.274Z</time></trkpt><trkpt lat="43.466791" lon="17.3189465"><ele>611.5</ele><time>2026-04-28T15:11:00.279Z</time></trkpt><trkpt lat="43.4666471" lon="17.3192046"><ele>612.0</ele><time>2026-04-28T15:11:01.279Z</time></trkpt><trkpt lat="43.466507" lon="17.319465"><ele>612.0</ele><time>2026-04-28T15:11:02.277Z</time></trkpt><trkpt lat="43.4663686" lon="17.3197182"><ele>612.0</ele><time>2026-04-28T15:11:03.284Z</time></trkpt><trkpt lat="43.4662301" lon="17.3199725"><ele>608.0</ele><time>2026-04-28T15:11:04.277Z</time></trkpt><trkpt lat="43.4660946" lon="17.3202347"><ele>604.0</ele><time>2026-04-28T15:11:05.276Z</time></trkpt><trkpt lat="43.4659545" lon="17.3204942"><ele>604.5</ele><time>2026-04-28T15:11:06.277Z</time></trkpt><trkpt lat="43.4658162" lon="17.3207536"><ele>605.0</ele><time>2026-04-28T15:11:07.276Z</time></trkpt><trkpt lat="43.4656769" lon="17.3210138"><ele>605.0</ele><time>2026-04-28T15:11:08.276Z</time></trkpt><trkpt lat="43.4655376" lon="17.3212754"><ele>605.0</ele><time>2026-04-28T15:11:09.275Z</time></trkpt><trkpt lat="43.4654032" lon="17.321534"><ele>605.0</ele><time>2026-04-28T15:11:10.286Z</time></trkpt><trkpt lat="43.4652642" lon="17.3217975"><ele>605.0</ele><time>2026-04-28T15:11:11.274Z</time></trkpt><trkpt lat="43.4651274" lon="17.3220613"><ele>606.5</ele><time>2026-04-28T15:11:12.274Z</time></trkpt><trkpt lat="43.4649901" lon="17.3223177"><ele>608.0</ele><time>2026-04-28T15:11:13.277Z</time></trkpt><trkpt lat="43.464853" lon="17.3225781"><ele>608.0</ele><time>2026-04-28T15:11:14.274Z</time></trkpt><trkpt lat="43.4647177" lon="17.3228385"><ele>608.0</ele><time>2026-04-28T15:11:15.276Z</time></trkpt><trkpt lat="43.4645875" lon="17.3231054"><ele>606.5</ele><time>2026-04-28T15:11:16.28Z</time></trkpt><trkpt lat="43.4644687" lon="17.3233814"><ele>605.0</ele><time>2026-04-28T15:11:17.274Z</time></trkpt><trkpt lat="43.4643617" lon="17.3236639"><ele>606.0</ele><time>2026-04-28T15:11:18.274Z</time></trkpt><trkpt lat="43.4642668" lon="17.3239534"><ele>607.0</ele><time>2026-04-28T15:11:19.275Z</time></trkpt><trkpt lat="43.464187" lon="17.3242512"><ele>607.0</ele><time>2026-04-28T15:11:20.275Z</time></trkpt><trkpt lat="43.4641174" lon="17.3245559"><ele>607.0</ele><time>2026-04-28T15:11:21.276Z</time></trkpt><trkpt lat="43.4640538" lon="17.3248569"><ele>607.3333333333334</ele><time>2026-04-28T15:11:22.276Z</time></trkpt><trkpt lat="43.4639974" lon="17.3251444"><ele>607.6666666666666</ele><time>2026-04-28T15:11:23.276Z</time></trkpt><trkpt lat="43.4639455" lon="17.3254049"><ele>608.0</ele><time>2026-04-28T15:11:24.274Z</time></trkpt><trkpt lat="43.4638929" lon="17.3256384"><ele>608.3333333333333</ele><time>2026-04-28T15:11:25.277Z</time></trkpt><trkpt lat="43.463847" lon="17.32586"><ele>608.6666666666666</ele><time>2026-04-28T15:11:26.277Z</time></trkpt><trkpt lat="43.4638023" lon="17.3260687"><ele>609.0</ele><time>2026-04-28T15:11:27.275Z</time></trkpt><trkpt lat="43.4637595" lon="17.3262704"><ele>607.25</ele><time>2026-04-28T15:11:28.276Z</time></trkpt><trkpt lat="43.4637178" lon="17.3264623"><ele>605.5</ele><time>2026-04-28T15:11:29.275Z</time></trkpt><trkpt lat="43.4636773" lon="17.3266502"><ele>603.75</ele><time>2026-04-28T15:11:30.276Z</time></trkpt><trkpt lat="43.4636392" lon="17.3268443"><ele>602.0</ele><time>2026-04-28T15:11:31.276Z</time></trkpt><trkpt lat="43.4635983" lon="17.3270373"><ele>602.25</ele><time>2026-04-28T15:11:32.278Z</time></trkpt><trkpt lat="43.4635594" lon="17.327245"><ele>602.5</ele><time>2026-04-28T15:11:33.275Z</time></trkpt><trkpt lat="43.4635272" lon="17.327442"><ele>602.75</ele><time>2026-04-28T15:11:34.274Z</time></trkpt><trkpt lat="43.4635034" lon="17.3276319"><ele>603.0</ele><time>2026-04-28T15:11:35.276Z</time></trkpt><trkpt lat="43.4634792" lon="17.3278187"><ele>603.0</ele><time>2026-04-28T15:11:36.278Z</time></trkpt><trkpt lat="43.4634622" lon="17.3280055"><ele>603.0</ele><time>2026-04-28T15:11:37.276Z</time></trkpt><trkpt lat="43.4634549" lon="17.328194"><ele>603.0</ele><time>2026-04-28T15:11:38.275Z</time></trkpt><trkpt lat="43.4634488" lon="17.3283826"><ele>603.0</ele><time>2026-04-28T15:11:39.279Z</time></trkpt><trkpt lat="43.4634504" lon="17.328574"><ele>602.75</ele><time>2026-04-28T15:11:40.275Z</time></trkpt><trkpt lat="43.4634471" lon="17.3287633"><ele>602.5</ele><time>2026-04-28T15:11:41.278Z</time></trkpt><trkpt lat="43.4634457" lon="17.3289516"><ele>602.25</ele><time>2026-04-28T15:11:42.275Z</time></trkpt><trkpt lat="43.4634512" lon="17.3291452"><ele>602.0</ele><time>2026-04-28T15:11:43.276Z</time></trkpt><trkpt lat="43.4634573" lon="17.3293318"><ele>601.75</ele><time>2026-04-28T15:11:44.276Z</time></trkpt><trkpt lat="43.463461" lon="17.3295201"><ele>601.5</ele><time>2026-04-28T15:11:45.276Z</time></trkpt><trkpt lat="43.4634618" lon="17.3297114"><ele>601.25</ele><time>2026-04-28T15:11:46.276Z</time></trkpt><trkpt lat="43.463465" lon="17.3298996"><ele>601.0</ele><time>2026-04-28T15:11:47.275Z</time></trkpt><trkpt lat="43.4634669" lon="17.3300834"><ele>600.25</ele><time>2026-04-28T15:11:48.276Z</time></trkpt><trkpt lat="43.463465" lon="17.3302699"><ele>599.5</ele><time>2026-04-28T15:11:49.275Z</time></trkpt><trkpt lat="43.4634564" lon="17.3304573"><ele>598.75</ele><time>2026-04-28T15:11:50.275Z</time></trkpt><trkpt lat="43.4634422" lon="17.3306433"><ele>598.0</ele><time>2026-04-28T15:11:51.276Z</time></trkpt><trkpt lat="43.4634242" lon="17.3308399"><ele>597.75</ele><time>2026-04-28T15:11:52.275Z</time></trkpt><trkpt lat="43.4633945" lon="17.331033"><ele>597.5</ele><time>2026-04-28T15:11:53.276Z</time></trkpt><trkpt lat="43.4633573" lon="17.3312301"><ele>597.25</ele><time>2026-04-28T15:11:54.277Z</time></trkpt><trkpt lat="43.4633125" lon="17.3314247"><ele>597.0</ele><time>2026-04-28T15:11:55.276Z</time></trkpt><trkpt lat="43.4632603" lon="17.3316223"><ele>598.0</ele><time>2026-04-28T15:11:56.276Z</time></trkpt><trkpt lat="43.4632085" lon="17.3318206"><ele>599.0</ele><time>2026-04-28T15:11:57.276Z</time></trkpt><trkpt lat="43.463154" lon="17.3320256"><ele>600.0</ele><time>2026-04-28T15:11:58.277Z</time></trkpt><trkpt lat="43.4630962" lon="17.3322299"><ele>601.3333333333334</ele><time>2026-04-28T15:11:59.275Z</time></trkpt><trkpt lat="43.4630492" lon="17.3324424"><ele>602.6666666666667</ele><time>2026-04-28T15:12:00.275Z</time></trkpt><trkpt lat="43.4630023" lon="17.3326577"><ele>604.0</ele><time>2026-04-28T15:12:01.276Z</time></trkpt><trkpt lat="43.4629568" lon="17.3328751"><ele>601.6666666666667</ele><time>2026-04-28T15:12:02.274Z</time></trkpt><trkpt lat="43.4629206" lon="17.3330979"><ele>599.3333333333334</ele><time>2026-04-28T15:12:03.274Z</time></trkpt><trkpt lat="43.4628918" lon="17.3333009"><ele>597.0</ele><time>2026-04-28T15:12:04.275Z</time></trkpt><trkpt lat="43.4628702" lon="17.333488"><ele>597.0</ele><time>2026-04-28T15:12:05.272Z</time></trkpt><trkpt lat="43.4628525" lon="17.3336515"><ele>597.0</ele><time>2026-04-28T15:12:06.272Z</time></trkpt><trkpt lat="43.4628342" lon="17.333785"><ele>597.0</ele><time>2026-04-28T15:12:07.272Z</time></trkpt><trkpt lat="43.4628064" lon="17.3339035"><ele>597.0</ele><time>2026-04-28T15:12:08.271Z</time></trkpt><trkpt lat="43.4627746" lon="17.3340114"><ele>597.0</ele><time>2026-04-28T15:12:09.272Z</time></trkpt><trkpt lat="43.4627577" lon="17.3341209"><ele>597.6</ele><time>2026-04-28T15:12:10.275Z</time></trkpt><trkpt lat="43.4627653" lon="17.3342173"><ele>598.2</ele><time>2026-04-28T15:12:11.279Z</time></trkpt><trkpt lat="43.4628039" lon="17.334311"><ele>598.8</ele><time>2026-04-28T15:12:12.275Z</time></trkpt><trkpt lat="43.4628667" lon="17.3344053"><ele>599.4</ele><time>2026-04-28T15:12:13.276Z</time></trkpt><trkpt lat="43.4629289" lon="17.3345164"><ele>600.0</ele><time>2026-04-28T15:12:14.275Z</time></trkpt><trkpt lat="43.4629751" lon="17.334654"><ele>600.75</ele><time>2026-04-28T15:12:15.277Z</time></trkpt><trkpt lat="43.4630183" lon="17.334829"><ele>601.5</ele><time>2026-04-28T15:12:16.275Z</time></trkpt><trkpt lat="43.4630602" lon="17.3350266"><ele>602.25</ele><time>2026-04-28T15:12:17.275Z</time></trkpt><trkpt lat="43.4630952" lon="17.3352391"><ele>603.0</ele><time>2026-04-28T15:12:18.282Z</time></trkpt><trkpt lat="43.4631308" lon="17.3354662"><ele>602.6666666666666</ele><time>2026-04-28T15:12:19.276Z</time></trkpt><trkpt lat="43.4631692" lon="17.3356951"><ele>602.3333333333333</ele><time>2026-04-28T15:12:20.275Z</time></trkpt><trkpt lat="43.4632119" lon="17.3359304"><ele>602.0</ele><time>2026-04-28T15:12:21.276Z</time></trkpt><trkpt lat="43.4632502" lon="17.3361708"><ele>602.6666666666666</ele><time>2026-04-28T15:12:22.276Z</time></trkpt><trkpt lat="43.4632913" lon="17.3364107"><ele>603.3333333333334</ele><time>2026-04-28T15:12:23.276Z</time></trkpt><trkpt lat="43.4633314" lon="17.3366576"><ele>604.0</ele><time>2026-04-28T15:12:24.276Z</time></trkpt><trkpt lat="43.4633733" lon="17.336907"><ele>604.0</ele><time>2026-04-28T15:12:25.275Z</time></trkpt><trkpt lat="43.4634121" lon="17.337159"><ele>604.0</ele><time>2026-04-28T15:12:26.277Z</time></trkpt><trkpt lat="43.4634483" lon="17.3374108"><ele>604.0</ele><time>2026-04-28T15:12:27.276Z</time></trkpt><trkpt lat="43.4634886" lon="17.3376685"><ele>603.3333333333334</ele><time>2026-04-28T15:12:28.278Z</time></trkpt><trkpt lat="43.4635286" lon="17.3379286"><ele>602.6666666666666</ele><time>2026-04-28T15:12:29.276Z</time></trkpt><trkpt lat="43.4635716" lon="17.338201"><ele>602.0</ele><time>2026-04-28T15:12:30.276Z</time></trkpt><trkpt lat="43.4636148" lon="17.3384799"><ele>602.0</ele><time>2026-04-28T15:12:31.275Z</time></trkpt><trkpt lat="43.4636594" lon="17.3387648"><ele>602.0</ele><time>2026-04-28T15:12:32.274Z</time></trkpt><trkpt lat="43.4637049" lon="17.3390491"><ele>602.0</ele><time>2026-04-28T15:12:33.275Z</time></trkpt><trkpt lat="43.4637519" lon="17.3393287"><ele>602.6666666666666</ele><time>2026-04-28T15:12:34.275Z</time></trkpt><trkpt lat="43.4638006" lon="17.3396138"><ele>603.3333333333334</ele><time>2026-04-28T15:12:35.275Z</time></trkpt><trkpt lat="43.4638454" lon="17.3399031"><ele>604.0</ele><time>2026-04-28T15:12:36.275Z</time></trkpt><trkpt lat="43.4638918" lon="17.3401901"><ele>604.0</ele><time>2026-04-28T15:12:37.276Z</time></trkpt><trkpt lat="43.4639399" lon="17.3404746"><ele>604.0</ele><time>2026-04-28T15:12:38.275Z</time></trkpt><trkpt lat="43.463983" lon="17.3407576"><ele>604.0</ele><time>2026-04-28T15:12:39.277Z</time></trkpt><trkpt lat="43.4640242" lon="17.3410392"><ele>603.6666666666667</ele><time>2026-04-28T15:12:40.275Z</time></trkpt><trkpt lat="43.4640719" lon="17.3413261"><ele>603.3333333333334</ele><time>2026-04-28T15:12:41.278Z</time></trkpt><trkpt lat="43.4641131" lon="17.3416058"><ele>603.0</ele><time>2026-04-28T15:12:42.276Z</time></trkpt><trkpt lat="43.4641505" lon="17.3418787"><ele>602.3333333333334</ele><time>2026-04-28T15:12:43.277Z</time></trkpt><trkpt lat="43.4641884" lon="17.3421313"><ele>601.6666666666667</ele><time>2026-04-28T15:12:44.277Z</time></trkpt><trkpt lat="43.4642222" lon="17.3423689"><ele>601.0</ele><time>2026-04-28T15:12:45.276Z</time></trkpt><trkpt lat="43.464259" lon="17.3425983"><ele>601.0</ele><time>2026-04-28T15:12:46.276Z</time></trkpt><trkpt lat="43.464295" lon="17.3428255"><ele>601.0</ele><time>2026-04-28T15:12:47.275Z</time></trkpt><trkpt lat="43.4643243" lon="17.3430442"><ele>601.0</ele><time>2026-04-28T15:12:48.275Z</time></trkpt><trkpt lat="43.4643532" lon="17.343264"><ele>601.6666666666667</ele><time>2026-04-28T15:12:49.275Z</time></trkpt><trkpt lat="43.464367" lon="17.3434715"><ele>602.3333333333334</ele><time>2026-04-28T15:12:50.277Z</time></trkpt><trkpt lat="43.4643763" lon="17.3436817"><ele>603.0</ele><time>2026-04-28T15:12:51.273Z</time></trkpt><trkpt lat="43.4643789" lon="17.343887"><ele>603.0</ele><time>2026-04-28T15:12:52.277Z</time></trkpt><trkpt lat="43.464371" lon="17.3440972"><ele>603.0</ele><time>2026-04-28T15:12:53.275Z</time></trkpt><trkpt lat="43.4643551" lon="17.3443109"><ele>603.0</ele><time>2026-04-28T15:12:54.276Z</time></trkpt><trkpt lat="43.4643253" lon="17.3445226"><ele>603.3333333333334</ele><time>2026-04-28T15:12:55.276Z</time></trkpt><trkpt lat="43.4642843" lon="17.3447413"><ele>603.6666666666667</ele><time>2026-04-28T15:12:56.275Z</time></trkpt><trkpt lat="43.4642353" lon="17.3449602"><ele>604.0</ele><time>2026-04-28T15:12:57.276Z</time></trkpt><trkpt lat="43.4641909" lon="17.3451461"><ele>604.0</ele><time>2026-04-28T15:12:58.276Z</time></trkpt><trkpt lat="43.4641489" lon="17.3453072"><ele>604.0</ele><time>2026-04-28T15:12:59.277Z</time></trkpt><trkpt lat="43.4641041" lon="17.3454383"><ele>604.0</ele><time>2026-04-28T15:13:00.28Z</time></trkpt><trkpt lat="43.4640548" lon="17.345559"><ele>604.0</ele><time>2026-04-28T15:13:01.275Z</time></trkpt><trkpt lat="43.4639974" lon="17.3456787"><ele>604.0</ele><time>2026-04-28T15:13:02.274Z</time></trkpt><trkpt lat="43.4639378" lon="17.3457985"><ele>604.0</ele><time>2026-04-28T15:13:03.275Z</time></trkpt><trkpt lat="43.4638793" lon="17.3459335"><ele>604.0</ele><time>2026-04-28T15:13:04.274Z</time></trkpt><trkpt lat="43.4638192" lon="17.346077"><ele>604.0</ele><time>2026-04-28T15:13:05.278Z</time></trkpt><trkpt lat="43.4637384" lon="17.3462254"><ele>604.0</ele><time>2026-04-28T15:13:06.276Z</time></trkpt><trkpt lat="43.4636386" lon="17.3463841"><ele>603.0</ele><time>2026-04-28T15:13:07.274Z</time></trkpt><trkpt lat="43.4635296" lon="17.3465506"><ele>602.0</ele><time>2026-04-28T15:13:08.274Z</time></trkpt><trkpt lat="43.4634177" lon="17.3467182"><ele>601.0</ele><time>2026-04-28T15:13:09.274Z</time></trkpt><trkpt lat="43.4633129" lon="17.34688"><ele>601.0</ele><time>2026-04-28T15:13:10.274Z</time></trkpt><trkpt lat="43.4632065" lon="17.347038"><ele>601.0</ele><time>2026-04-28T15:13:11.275Z</time></trkpt><trkpt lat="43.4631008" lon="17.3472021"><ele>601.0</ele><time>2026-04-28T15:13:12.274Z</time></trkpt><trkpt lat="43.4629964" lon="17.3473761"><ele>603.3333333333334</ele><time>2026-04-28T15:13:13.275Z</time></trkpt><trkpt lat="43.4628898" lon="17.3475481"><ele>605.6666666666666</ele><time>2026-04-28T15:13:14.276Z</time></trkpt><trkpt lat="43.4627711" lon="17.3477327"><ele>608.0</ele><time>2026-04-28T15:13:15.274Z</time></trkpt><trkpt lat="43.4626566" lon="17.3479209"><ele>607.6666666666666</ele><time>2026-04-28T15:13:16.276Z</time></trkpt><trkpt lat="43.4625365" lon="17.3481126"><ele>607.3333333333334</ele><time>2026-04-28T15:13:17.275Z</time></trkpt><trkpt lat="43.4624105" lon="17.3483073"><ele>607.0</ele><time>2026-04-28T15:13:18.274Z</time></trkpt><trkpt lat="43.4622875" lon="17.3485082"><ele>607.0</ele><time>2026-04-28T15:13:19.275Z</time></trkpt><trkpt lat="43.4621653" lon="17.3487014"><ele>607.0</ele><time>2026-04-28T15:13:20.273Z</time></trkpt><trkpt lat="43.462057" lon="17.3488824"><ele>607.0</ele><time>2026-04-28T15:13:21.272Z</time></trkpt><trkpt lat="43.4619467" lon="17.3490534"><ele>608.0</ele><time>2026-04-28T15:13:22.276Z</time></trkpt><trkpt lat="43.4618441" lon="17.3492264"><ele>609.0</ele><time>2026-04-28T15:13:23.274Z</time></trkpt><trkpt lat="43.4617448" lon="17.3494011"><ele>610.0</ele><time>2026-04-28T15:13:24.281Z</time></trkpt><trkpt lat="43.4616464" lon="17.3495857"><ele>610.6666666666667</ele><time>2026-04-28T15:13:25.275Z</time></trkpt><trkpt lat="43.4615561" lon="17.3497868"><ele>611.3333333333334</ele><time>2026-04-28T15:13:26.275Z</time></trkpt><trkpt lat="43.4614727" lon="17.3500036"><ele>612.0</ele><time>2026-04-28T15:13:27.277Z</time></trkpt><trkpt lat="43.461398" lon="17.3502426"><ele>612.0</ele><time>2026-04-28T15:13:28.275Z</time></trkpt><trkpt lat="43.4613348" lon="17.3504959"><ele>612.0</ele><time>2026-04-28T15:13:29.275Z</time></trkpt><trkpt lat="43.4612899" lon="17.3507498"><ele>612.0</ele><time>2026-04-28T15:13:30.275Z</time></trkpt><trkpt lat="43.4612577" lon="17.3510187"><ele>611.0</ele><time>2026-04-28T15:13:31.274Z</time></trkpt><trkpt lat="43.4612295" lon="17.3512986"><ele>610.0</ele><time>2026-04-28T15:13:32.277Z</time></trkpt><trkpt lat="43.4612127" lon="17.3515699"><ele>609.0</ele><time>2026-04-28T15:13:33.276Z</time></trkpt><trkpt lat="43.4611983" lon="17.3518266"><ele>609.0</ele><time>2026-04-28T15:13:34.275Z</time></trkpt><trkpt lat="43.4611794" lon="17.352064"><ele>609.0</ele><time>2026-04-28T15:13:35.274Z</time></trkpt><trkpt lat="43.4611684" lon="17.352295"><ele>609.0</ele><time>2026-04-28T15:13:36.276Z</time></trkpt><trkpt lat="43.4611552" lon="17.3525222"><ele>609.0</ele><time>2026-04-28T15:13:37.274Z</time></trkpt><trkpt lat="43.4611398" lon="17.3527507"><ele>609.0</ele><time>2026-04-28T15:13:38.275Z</time></trkpt><trkpt lat="43.4611261" lon="17.3529824"><ele>609.0</ele><time>2026-04-28T15:13:39.275Z</time></trkpt><trkpt lat="43.4611181" lon="17.3532247"><ele>610.6666666666666</ele><time>2026-04-28T15:13:40.274Z</time></trkpt><trkpt lat="43.4611065" lon="17.3534629"><ele>612.3333333333333</ele><time>2026-04-28T15:13:41.275Z</time></trkpt><trkpt lat="43.4610934" lon="17.3537038"><ele>614.0</ele><time>2026-04-28T15:13:42.275Z</time></trkpt><trkpt lat="43.4610831" lon="17.3539461"><ele>614.3333333333333</ele><time>2026-04-28T15:13:43.274Z</time></trkpt><trkpt lat="43.4610708" lon="17.3541984"><ele>614.6666666666666</ele><time>2026-04-28T15:13:44.275Z</time></trkpt><trkpt lat="43.4610615" lon="17.3544511"><ele>615.0</ele><time>2026-04-28T15:13:45.275Z</time></trkpt><trkpt lat="43.4610483" lon="17.3547058"><ele>615.6666666666666</ele><time>2026-04-28T15:13:46.274Z</time></trkpt><trkpt lat="43.4610354" lon="17.3549643"><ele>616.3333333333333</ele><time>2026-04-28T15:13:47.276Z</time></trkpt><trkpt lat="43.4610268" lon="17.3552244"><ele>617.0</ele><time>2026-04-28T15:13:48.275Z</time></trkpt><trkpt lat="43.4610099" lon="17.3554683"><ele>617.6666666666666</ele><time>2026-04-28T15:13:49.275Z</time></trkpt><trkpt lat="43.4609923" lon="17.3557079"><ele>618.3333333333334</ele><time>2026-04-28T15:13:50.274Z</time></trkpt><trkpt lat="43.4609723" lon="17.3559283"><ele>619.0</ele><time>2026-04-28T15:13:51.275Z</time></trkpt><trkpt lat="43.4609454" lon="17.3561471"><ele>619.0</ele><time>2026-04-28T15:13:52.273Z</time></trkpt><trkpt lat="43.460915" lon="17.3563563"><ele>619.0</ele><time>2026-04-28T15:13:53.277Z</time></trkpt><trkpt lat="43.460887" lon="17.3565331"><ele>619.0</ele><time>2026-04-28T15:13:54.275Z</time></trkpt><trkpt lat="43.4608502" lon="17.356709"><ele>619.0</ele><time>2026-04-28T15:13:55.278Z</time></trkpt><trkpt lat="43.4608108" lon="17.3568753"><ele>619.6</ele><time>2026-04-28T15:13:56.275Z</time></trkpt><trkpt lat="43.4607711" lon="17.3570252"><ele>620.2</ele><time>2026-04-28T15:13:57.275Z</time></trkpt><trkpt lat="43.4607304" lon="17.3571708"><ele>620.8000000000001</ele><time>2026-04-28T15:13:58.275Z</time></trkpt><trkpt lat="43.4606906" lon="17.3573123"><ele>621.4</ele><time>2026-04-28T15:13:59.274Z</time></trkpt><trkpt lat="43.4606517" lon="17.3574491"><ele>622.0</ele><time>2026-04-28T15:14:00.275Z</time></trkpt><trkpt lat="43.4606064" lon="17.3575902"><ele>622.0</ele><time>2026-04-28T15:14:01.275Z</time></trkpt><trkpt lat="43.4605516" lon="17.3577303"><ele>622.0</ele><time>2026-04-28T15:14:02.276Z</time></trkpt><trkpt lat="43.4604938" lon="17.3578687"><ele>622.0</ele><time>2026-04-28T15:14:03.275Z</time></trkpt><trkpt lat="43.4604319" lon="17.3580051"><ele>622.0</ele><time>2026-04-28T15:14:04.275Z</time></trkpt><trkpt lat="43.4603698" lon="17.3581396"><ele>620.6</ele><time>2026-04-28T15:14:05.274Z</time></trkpt><trkpt lat="43.4603092" lon="17.3582709"><ele>619.2</ele><time>2026-04-28T15:14:06.276Z</time></trkpt><trkpt lat="43.4602526" lon="17.3583946"><ele>617.8</ele><time>2026-04-28T15:14:07.277Z</time></trkpt><trkpt lat="43.4601916" lon="17.3585078"><ele>616.4</ele><time>2026-04-28T15:14:08.274Z</time></trkpt><trkpt lat="43.4601276" lon="17.3586245"><ele>615.0</ele><time>2026-04-28T15:14:09.275Z</time></trkpt><trkpt lat="43.4600573" lon="17.3587403"><ele>615.0</ele><time>2026-04-28T15:14:10.277Z</time></trkpt><trkpt lat="43.4599838" lon="17.3588606"><ele>615.0</ele><time>2026-04-28T15:14:11.275Z</time></trkpt><trkpt lat="43.4599037" lon="17.3589852"><ele>615.0</ele><time>2026-04-28T15:14:12.275Z</time></trkpt><trkpt lat="43.459825" lon="17.3591034"><ele>615.0</ele><time>2026-04-28T15:14:13.273Z</time></trkpt><trkpt lat="43.4597298" lon="17.3592232"><ele>615.25</ele><time>2026-04-28T15:14:14.275Z</time></trkpt><trkpt lat="43.4596307" lon="17.3593446"><ele>615.5</ele><time>2026-04-28T15:14:15.275Z</time></trkpt><trkpt lat="43.4595354" lon="17.359457"><ele>615.75</ele><time>2026-04-28T15:14:16.275Z</time></trkpt><trkpt lat="43.4594379" lon="17.3595713"><ele>616.0</ele><time>2026-04-28T15:14:17.279Z</time></trkpt><trkpt lat="43.4593257" lon="17.3596997"><ele>616.3333333333334</ele><time>2026-04-28T15:14:18.278Z</time></trkpt><trkpt lat="43.4592032" lon="17.3598381"><ele>616.6666666666666</ele><time>2026-04-28T15:14:19.276Z</time></trkpt><trkpt lat="43.4590544" lon="17.3599823"><ele>617.0</ele><time>2026-04-28T15:14:20.275Z</time></trkpt><trkpt lat="43.4588888" lon="17.3601337"><ele>616.6666666666666</ele><time>2026-04-28T15:14:21.275Z</time></trkpt><trkpt lat="43.4587121" lon="17.3602925"><ele>616.3333333333334</ele><time>2026-04-28T15:14:22.277Z</time></trkpt><trkpt lat="43.4585343" lon="17.3604629"><ele>616.0</ele><time>2026-04-28T15:14:23.275Z</time></trkpt><trkpt lat="43.4583609" lon="17.3606405"><ele>615.3333333333334</ele><time>2026-04-28T15:14:24.274Z</time></trkpt><trkpt lat="43.4581923" lon="17.3608296"><ele>614.6666666666666</ele><time>2026-04-28T15:14:25.274Z</time></trkpt><trkpt lat="43.458035" lon="17.3610265"><ele>614.0</ele><time>2026-04-28T15:14:26.273Z</time></trkpt><trkpt lat="43.4578786" lon="17.3612333"><ele>614.0</ele><time>2026-04-28T15:14:27.274Z</time></trkpt><trkpt lat="43.4577369" lon="17.3614344"><ele>614.0</ele><time>2026-04-28T15:14:28.275Z</time></trkpt><trkpt lat="43.4575961" lon="17.3616507"><ele>614.0</ele><time>2026-04-28T15:14:29.273Z</time></trkpt><trkpt lat="43.4574613" lon="17.3618728"><ele>614.0</ele><time>2026-04-28T15:14:30.276Z</time></trkpt><trkpt lat="43.4573336" lon="17.362098"><ele>614.0</ele><time>2026-04-28T15:14:31.273Z</time></trkpt><trkpt lat="43.4572132" lon="17.3623317"><ele>614.0</ele><time>2026-04-28T15:14:32.277Z</time></trkpt><trkpt lat="43.4571008" lon="17.3625722"><ele>614.6666666666666</ele><time>2026-04-28T15:14:33.277Z</time></trkpt><trkpt lat="43.4569887" lon="17.362829"><ele>615.3333333333334</ele><time>2026-04-28T15:14:34.275Z</time></trkpt><trkpt lat="43.4568873" lon="17.3630899"><ele>616.0</ele><time>2026-04-28T15:14:35.28Z</time></trkpt><trkpt lat="43.4567932" lon="17.3633466"><ele>614.3333333333334</ele><time>2026-04-28T15:14:36.275Z</time></trkpt><trkpt lat="43.4567064" lon="17.3636086"><ele>612.6666666666666</ele><time>2026-04-28T15:14:37.277Z</time></trkpt><trkpt lat="43.4566289" lon="17.3638745"><ele>611.0</ele><time>2026-04-28T15:14:38.274Z</time></trkpt><trkpt lat="43.4565621" lon="17.3641428"><ele>610.3333333333333</ele><time>2026-04-28T15:14:39.277Z</time></trkpt><trkpt lat="43.4565036" lon="17.3644131"><ele>609.6666666666666</ele><time>2026-04-28T15:14:40.275Z</time></trkpt><trkpt lat="43.4564541" lon="17.3646842"><ele>609.0</ele><time>2026-04-28T15:14:41.275Z</time></trkpt><trkpt lat="43.4564114" lon="17.3649447"><ele>609.0</ele><time>2026-04-28T15:14:42.274Z</time></trkpt><trkpt lat="43.4563727" lon="17.3652009"><ele>609.0</ele><time>2026-04-28T15:14:43.275Z</time></trkpt><trkpt lat="43.4563403" lon="17.365453"><ele>609.0</ele><time>2026-04-28T15:14:44.274Z</time></trkpt><trkpt lat="43.4563093" lon="17.365704"><ele>609.0</ele><time>2026-04-28T15:14:45.276Z</time></trkpt><trkpt lat="43.4562749" lon="17.3659512"><ele>609.0</ele><time>2026-04-28T15:14:46.274Z</time></trkpt><trkpt lat="43.4562415" lon="17.3662099"><ele>609.0</ele><time>2026-04-28T15:14:47.273Z</time></trkpt><trkpt lat="43.4562037" lon="17.3664658"><ele>610.0</ele><time>2026-04-28T15:14:48.274Z</time></trkpt><trkpt lat="43.4561545" lon="17.3667147"><ele>611.0</ele><time>2026-04-28T15:14:49.275Z</time></trkpt><trkpt lat="43.4560956" lon="17.3669698"><ele>612.0</ele><time>2026-04-28T15:14:50.275Z</time></trkpt><trkpt lat="43.4560234" lon="17.3672156"><ele>612.0</ele><time>2026-04-28T15:14:51.274Z</time></trkpt><trkpt lat="43.4559387" lon="17.367462"><ele>612.0</ele><time>2026-04-28T15:14:52.274Z</time></trkpt><trkpt lat="43.4558392" lon="17.3677052"><ele>612.0</ele><time>2026-04-28T15:14:53.276Z</time></trkpt><trkpt lat="43.4557318" lon="17.3679538"><ele>611.3333333333334</ele><time>2026-04-28T15:14:54.276Z</time></trkpt><trkpt lat="43.455625" lon="17.3682146"><ele>610.6666666666667</ele><time>2026-04-28T15:14:55.271Z</time></trkpt><trkpt lat="43.4555084" lon="17.3684658"><ele>610.0</ele><time>2026-04-28T15:14:56.272Z</time></trkpt><trkpt lat="43.4553956" lon="17.3687227"><ele>609.0</ele><time>2026-04-28T15:14:57.272Z</time></trkpt><trkpt lat="43.4552796" lon="17.3689836"><ele>608.0</ele><time>2026-04-28T15:14:58.274Z</time></trkpt><trkpt lat="43.4551645" lon="17.3692459"><ele>607.0</ele><time>2026-04-28T15:14:59.275Z</time></trkpt><trkpt lat="43.4550485" lon="17.3695148"><ele>608.5</ele><time>2026-04-28T15:15:00.274Z</time></trkpt><trkpt lat="43.4549423" lon="17.3697904"><ele>610.0</ele><time>2026-04-28T15:15:01.274Z</time></trkpt><trkpt lat="43.4548398" lon="17.3700724"><ele>610.0</ele><time>2026-04-28T15:15:02.285Z</time></trkpt><trkpt lat="43.454749" lon="17.3703618"><ele>610.0</ele><time>2026-04-28T15:15:03.276Z</time></trkpt><trkpt lat="43.4546721" lon="17.3706595"><ele>607.0</ele><time>2026-04-28T15:15:04.275Z</time></trkpt><trkpt lat="43.4546083" lon="17.370966"><ele>604.0</ele><time>2026-04-28T15:15:05.274Z</time></trkpt><trkpt lat="43.4545659" lon="17.371271"><ele>603.5</ele><time>2026-04-28T15:15:06.275Z</time></trkpt><trkpt lat="43.4545267" lon="17.3715849"><ele>603.0</ele><time>2026-04-28T15:15:07.275Z</time></trkpt><trkpt lat="43.454501" lon="17.3718989"><ele>603.0</ele><time>2026-04-28T15:15:08.275Z</time></trkpt><trkpt lat="43.4544812" lon="17.3722126"><ele>603.0</ele><time>2026-04-28T15:15:09.277Z</time></trkpt><trkpt lat="43.4544628" lon="17.372524"><ele>603.0</ele><time>2026-04-28T15:15:10.274Z</time></trkpt><trkpt lat="43.4544457" lon="17.3728316"><ele>603.0</ele><time>2026-04-28T15:15:11.282Z</time></trkpt><trkpt lat="43.454419" lon="17.3731247"><ele>603.0</ele><time>2026-04-28T15:15:12.274Z</time></trkpt><trkpt lat="43.4543919" lon="17.3734077"><ele>603.3333333333334</ele><time>2026-04-28T15:15:13.274Z</time></trkpt><trkpt lat="43.4543588" lon="17.373682"><ele>603.6666666666667</ele><time>2026-04-28T15:15:14.276Z</time></trkpt><trkpt lat="43.4543123" lon="17.373952"><ele>604.0</ele><time>2026-04-28T15:15:15.279Z</time></trkpt><trkpt lat="43.4542541" lon="17.374215"><ele>604.3333333333334</ele><time>2026-04-28T15:15:16.274Z</time></trkpt><trkpt lat="43.4541826" lon="17.3744741"><ele>604.6666666666666</ele><time>2026-04-28T15:15:17.283Z</time></trkpt><trkpt lat="43.4540983" lon="17.3747262"><ele>605.0</ele><time>2026-04-28T15:15:18.274Z</time></trkpt><trkpt lat="43.4539996" lon="17.3749725"><ele>605.3333333333333</ele><time>2026-04-28T15:15:19.275Z</time></trkpt><trkpt lat="43.4538921" lon="17.3752108"><ele>605.6666666666666</ele><time>2026-04-28T15:15:20.274Z</time></trkpt><trkpt lat="43.4537813" lon="17.3754482"><ele>606.0</ele><time>2026-04-28T15:15:21.274Z</time></trkpt><trkpt lat="43.4536667" lon="17.3756808"><ele>606.0</ele><time>2026-04-28T15:15:22.274Z</time></trkpt><trkpt lat="43.4535535" lon="17.3759279"><ele>606.0</ele><time>2026-04-28T15:15:23.274Z</time></trkpt><trkpt lat="43.4534315" lon="17.3761683"><ele>606.0</ele><time>2026-04-28T15:15:24.275Z</time></trkpt><trkpt lat="43.4533108" lon="17.3764008"><ele>607.3333333333334</ele><time>2026-04-28T15:15:25.273Z</time></trkpt><trkpt lat="43.4531883" lon="17.3766318"><ele>608.6666666666667</ele><time>2026-04-28T15:15:26.275Z</time></trkpt><trkpt lat="43.4530696" lon="17.3768698"><ele>610.0</ele><time>2026-04-28T15:15:27.274Z</time></trkpt><trkpt lat="43.4529518" lon="17.3771114"><ele>609.0</ele><time>2026-04-28T15:15:28.283Z</time></trkpt><trkpt lat="43.4528314" lon="17.3773516"><ele>608.0</ele><time>2026-04-28T15:15:29.275Z</time></trkpt><trkpt lat="43.4527164" lon="17.3775957"><ele>607.0</ele><time>2026-04-28T15:15:30.277Z</time></trkpt><trkpt lat="43.4526065" lon="17.3778438"><ele>607.0</ele><time>2026-04-28T15:15:31.277Z</time></trkpt><trkpt lat="43.4525028" lon="17.3781018"><ele>607.0</ele><time>2026-04-28T15:15:32.276Z</time></trkpt><trkpt lat="43.4524036" lon="17.3783662"><ele>607.0</ele><time>2026-04-28T15:15:33.274Z</time></trkpt><trkpt lat="43.4523138" lon="17.3786416"><ele>606.6666666666667</ele><time>2026-04-28T15:15:34.273Z</time></trkpt><trkpt lat="43.4522312" lon="17.3789206"><ele>606.3333333333334</ele><time>2026-04-28T15:15:35.275Z</time></trkpt><trkpt lat="43.4521538" lon="17.3792095"><ele>606.0</ele><time>2026-04-28T15:15:36.276Z</time></trkpt><trkpt lat="43.4520793" lon="17.3794991"><ele>605.3333333333334</ele><time>2026-04-28T15:15:37.278Z</time></trkpt><trkpt lat="43.452021" lon="17.3797945"><ele>604.6666666666667</ele><time>2026-04-28T15:15:38.276Z</time></trkpt><trkpt lat="43.451965" lon="17.3800659"><ele>604.0</ele><time>2026-04-28T15:15:39.275Z</time></trkpt><trkpt lat="43.4519211" lon="17.3803006"><ele>604.6666666666667</ele><time>2026-04-28T15:15:40.278Z</time></trkpt><trkpt lat="43.4518868" lon="17.3805165"><ele>605.3333333333334</ele><time>2026-04-28T15:15:41.274Z</time></trkpt><trkpt lat="43.4518636" lon="17.3807159"><ele>606.0</ele><time>2026-04-28T15:15:42.275Z</time></trkpt><trkpt lat="43.45184" lon="17.3809103"><ele>606.0</ele><time>2026-04-28T15:15:43.284Z</time></trkpt><trkpt lat="43.4518211" lon="17.3811075"><ele>606.0</ele><time>2026-04-28T15:15:44.277Z</time></trkpt><trkpt lat="43.4517984" lon="17.3813031"><ele>606.0</ele><time>2026-04-28T15:15:45.274Z</time></trkpt><trkpt lat="43.4517748" lon="17.381494"><ele>606.0</ele><time>2026-04-28T15:15:46.275Z</time></trkpt><trkpt lat="43.4517518" lon="17.381693"><ele>606.5</ele><time>2026-04-28T15:15:47.275Z</time></trkpt><trkpt lat="43.4517324" lon="17.3818894"><ele>607.0</ele><time>2026-04-28T15:15:48.276Z</time></trkpt><trkpt lat="43.4517113" lon="17.3820854"><ele>607.5</ele><time>2026-04-28T15:15:49.276Z</time></trkpt><trkpt lat="43.4516866" lon="17.3822958"><ele>608.0</ele><time>2026-04-28T15:15:50.279Z</time></trkpt><trkpt lat="43.4516549" lon="17.3825237"><ele>608.0</ele><time>2026-04-28T15:15:51.275Z</time></trkpt><trkpt lat="43.4516206" lon="17.3827676"><ele>608.0</ele><time>2026-04-28T15:15:52.276Z</time></trkpt><trkpt lat="43.4515848" lon="17.3830184"><ele>608.0</ele><time>2026-04-28T15:15:53.277Z</time></trkpt><trkpt lat="43.4515395" lon="17.3832774"><ele>608.6666666666666</ele><time>2026-04-28T15:15:54.274Z</time></trkpt><trkpt lat="43.451491" lon="17.3835433"><ele>609.3333333333334</ele><time>2026-04-28T15:15:55.28Z</time></trkpt><trkpt lat="43.4514407" lon="17.383807"><ele>610.0</ele><time>2026-04-28T15:15:56.277Z</time></trkpt><trkpt lat="43.4513803" lon="17.3840702"><ele>610.0</ele><time>2026-04-28T15:15:57.278Z</time></trkpt><trkpt lat="43.4513181" lon="17.3843284"><ele>610.0</ele><time>2026-04-28T15:15:58.282Z</time></trkpt><trkpt lat="43.45125" lon="17.3845924"><ele>610.0</ele><time>2026-04-28T15:15:59.276Z</time></trkpt><trkpt lat="43.4511739" lon="17.3848514"><ele>610.0</ele><time>2026-04-28T15:16:00.277Z</time></trkpt><trkpt lat="43.451097" lon="17.3851162"><ele>610.0</ele><time>2026-04-28T15:16:01.276Z</time></trkpt><trkpt lat="43.4510153" lon="17.3853777"><ele>610.0</ele><time>2026-04-28T15:16:02.272Z</time></trkpt><trkpt lat="43.4509346" lon="17.3856378"><ele>609.6666666666667</ele><time>2026-04-28T15:16:03.276Z</time></trkpt><trkpt lat="43.4508457" lon="17.3858911"><ele>609.3333333333334</ele><time>2026-04-28T15:16:04.275Z</time></trkpt><trkpt lat="43.4507492" lon="17.3861398"><ele>609.0</ele><time>2026-04-28T15:16:05.278Z</time></trkpt><trkpt lat="43.4506592" lon="17.3863968"><ele>608.6666666666666</ele><time>2026-04-28T15:16:06.274Z</time></trkpt><trkpt lat="43.4505626" lon="17.3866503"><ele>608.3333333333333</ele><time>2026-04-28T15:16:07.275Z</time></trkpt><trkpt lat="43.4504715" lon="17.3869037"><ele>608.0</ele><time>2026-04-28T15:16:08.275Z</time></trkpt><trkpt lat="43.450378" lon="17.3871639"><ele>608.3333333333333</ele><time>2026-04-28T15:16:09.276Z</time></trkpt><trkpt lat="43.4502886" lon="17.3874115"><ele>608.6666666666666</ele><time>2026-04-28T15:16:10.277Z</time></trkpt><trkpt lat="43.4501913" lon="17.3876653"><ele>609.0</ele><time>2026-04-28T15:16:11.274Z</time></trkpt><trkpt lat="43.450093" lon="17.3879205"><ele>609.3333333333334</ele><time>2026-04-28T15:16:12.278Z</time></trkpt><trkpt lat="43.4499974" lon="17.3881817"><ele>609.6666666666667</ele><time>2026-04-28T15:16:13.275Z</time></trkpt><trkpt lat="43.4498995" lon="17.3884403"><ele>610.0</ele><time>2026-04-28T15:16:14.276Z</time></trkpt><trkpt lat="43.449801" lon="17.3887009"><ele>610.0</ele><time>2026-04-28T15:16:15.274Z</time></trkpt><trkpt lat="43.4497091" lon="17.3889657"><ele>610.0</ele><time>2026-04-28T15:16:16.275Z</time></trkpt><trkpt lat="43.4496193" lon="17.3892338"><ele>610.0</ele><time>2026-04-28T15:16:17.275Z</time></trkpt><trkpt lat="43.4495309" lon="17.3895009"><ele>610.3333333333334</ele><time>2026-04-28T15:16:18.277Z</time></trkpt><trkpt lat="43.4494476" lon="17.3897751"><ele>610.6666666666666</ele><time>2026-04-28T15:16:19.275Z</time></trkpt><trkpt lat="43.4493731" lon="17.3900561"><ele>611.0</ele><time>2026-04-28T15:16:20.276Z</time></trkpt><trkpt lat="43.449301" lon="17.3903351"><ele>612.3333333333333</ele><time>2026-04-28T15:16:21.273Z</time></trkpt><trkpt lat="43.4492367" lon="17.3906209"><ele>613.6666666666666</ele><time>2026-04-28T15:16:22.278Z</time></trkpt><trkpt lat="43.4491751" lon="17.3909063"><ele>615.0</ele><time>2026-04-28T15:16:23.284Z</time></trkpt><trkpt lat="43.4491234" lon="17.3912008"><ele>615.6666666666666</ele><time>2026-04-28T15:16:24.274Z</time></trkpt><trkpt lat="43.4490718" lon="17.3914952"><ele>616.3333333333333</ele><time>2026-04-28T15:16:25.274Z</time></trkpt><trkpt lat="43.4490256" lon="17.391799"><ele>617.0</ele><time>2026-04-28T15:16:26.274Z</time></trkpt><trkpt lat="43.4489797" lon="17.3921014"><ele>615.3333333333333</ele><time>2026-04-28T15:16:27.275Z</time></trkpt><trkpt lat="43.4489336" lon="17.3924048"><ele>613.6666666666666</ele><time>2026-04-28T15:16:28.276Z</time></trkpt><trkpt lat="43.4488827" lon="17.3927056"><ele>612.0</ele><time>2026-04-28T15:16:29.273Z</time></trkpt><trkpt lat="43.448822" lon="17.3930071"><ele>610.6666666666666</ele><time>2026-04-28T15:16:30.276Z</time></trkpt><trkpt lat="43.4487492" lon="17.3932972"><ele>609.3333333333333</ele><time>2026-04-28T15:16:31.274Z</time></trkpt><trkpt lat="43.4486708" lon="17.3935664"><ele>608.0</ele><time>2026-04-28T15:16:32.274Z</time></trkpt><trkpt lat="43.4485959" lon="17.3938233"><ele>608.6666666666666</ele><time>2026-04-28T15:16:33.282Z</time></trkpt><trkpt lat="43.4485103" lon="17.394058"><ele>609.3333333333334</ele><time>2026-04-28T15:16:34.275Z</time></trkpt><trkpt lat="43.4484199" lon="17.3942906"><ele>610.0</ele><time>2026-04-28T15:16:35.285Z</time></trkpt><trkpt lat="43.4483143" lon="17.3945176"><ele>610.3333333333334</ele><time>2026-04-28T15:16:36.275Z</time></trkpt><trkpt lat="43.4482022" lon="17.3947429"><ele>610.6666666666666</ele><time>2026-04-28T15:16:37.273Z</time></trkpt><trkpt lat="43.4480749" lon="17.3949611"><ele>611.0</ele><time>2026-04-28T15:16:38.275Z</time></trkpt><trkpt lat="43.4479371" lon="17.3951628"><ele>611.3333333333333</ele><time>2026-04-28T15:16:39.273Z</time></trkpt><trkpt lat="43.447791" lon="17.3953525"><ele>611.6666666666666</ele><time>2026-04-28T15:16:40.276Z</time></trkpt><trkpt lat="43.4476384" lon="17.3955332"><ele>612.0</ele><time>2026-04-28T15:16:41.279Z</time></trkpt><trkpt lat="43.4474763" lon="17.3956942"><ele>612.0</ele><time>2026-04-28T15:16:42.274Z</time></trkpt><trkpt lat="43.4473022" lon="17.3958262"><ele>612.0</ele><time>2026-04-28T15:16:43.275Z</time></trkpt><trkpt lat="43.4471213" lon="17.3959505"><ele>612.0</ele><time>2026-04-28T15:16:44.276Z</time></trkpt><trkpt lat="43.4469327" lon="17.396054"><ele>611.6666666666666</ele><time>2026-04-28T15:16:45.276Z</time></trkpt><trkpt lat="43.4467416" lon="17.396156"><ele>611.3333333333333</ele><time>2026-04-28T15:16:46.274Z</time></trkpt><trkpt lat="43.4465439" lon="17.3962423"><ele>611.0</ele><time>2026-04-28T15:16:47.276Z</time></trkpt><trkpt lat="43.4463451" lon="17.3963272"><ele>612.0</ele><time>2026-04-28T15:16:48.277Z</time></trkpt><trkpt lat="43.4461606" lon="17.3964052"><ele>613.0</ele><time>2026-04-28T15:16:49.273Z</time></trkpt><trkpt lat="43.44599" lon="17.3964866"><ele>614.0</ele><time>2026-04-28T15:16:50.277Z</time></trkpt><trkpt lat="43.4458223" lon="17.3965824"><ele>614.0</ele><time>2026-04-28T15:16:51.275Z</time></trkpt><trkpt lat="43.4456619" lon="17.3966907"><ele>614.0</ele><time>2026-04-28T15:16:52.283Z</time></trkpt><trkpt lat="43.4455049" lon="17.396807"><ele>614.0</ele><time>2026-04-28T15:16:53.276Z</time></trkpt><trkpt lat="43.4453566" lon="17.3969492"><ele>613.6666666666666</ele><time>2026-04-28T15:16:54.273Z</time></trkpt><trkpt lat="43.4452101" lon="17.3971088"><ele>613.3333333333334</ele><time>2026-04-28T15:16:55.273Z</time></trkpt><trkpt lat="43.445067" lon="17.397275"><ele>613.0</ele><time>2026-04-28T15:16:56.274Z</time></trkpt><trkpt lat="43.4449332" lon="17.3974652"><ele>613.0</ele><time>2026-04-28T15:16:57.274Z</time></trkpt><trkpt lat="43.4448096" lon="17.397669"><ele>613.0</ele><time>2026-04-28T15:16:58.276Z</time></trkpt><trkpt lat="43.4446957" lon="17.3978965"><ele>613.0</ele><time>2026-04-28T15:16:59.273Z</time></trkpt><trkpt lat="43.444593" lon="17.3981313"><ele>612.3333333333334</ele><time>2026-04-28T15:17:00.276Z</time></trkpt><trkpt lat="43.4444978" lon="17.3983788"><ele>611.6666666666666</ele><time>2026-04-28T15:17:01.275Z</time></trkpt><trkpt lat="43.4444149" lon="17.3986406"><ele>611.0</ele><time>2026-04-28T15:17:02.274Z</time></trkpt><trkpt lat="43.4443345" lon="17.3989073"><ele>611.0</ele><time>2026-04-28T15:17:03.274Z</time></trkpt><trkpt lat="43.4442641" lon="17.3991771"><ele>611.0</ele><time>2026-04-28T15:17:04.274Z</time></trkpt><trkpt lat="43.4441954" lon="17.3994503"><ele>611.0</ele><time>2026-04-28T15:17:05.275Z</time></trkpt><trkpt lat="43.4441342" lon="17.3997278"><ele>610.6666666666666</ele><time>2026-04-28T15:17:06.276Z</time></trkpt><trkpt lat="43.4440792" lon="17.4000049"><ele>610.3333333333334</ele><time>2026-04-28T15:17:07.274Z</time></trkpt><trkpt lat="43.4440405" lon="17.4002882"><ele>610.0</ele><time>2026-04-28T15:17:08.274Z</time></trkpt><trkpt lat="43.4440165" lon="17.4005652"><ele>610.6666666666667</ele><time>2026-04-28T15:17:09.277Z</time></trkpt><trkpt lat="43.4440067" lon="17.4008241"><ele>611.3333333333334</ele><time>2026-04-28T15:17:10.276Z</time></trkpt><trkpt lat="43.4440121" lon="17.4010719"><ele>612.0</ele><time>2026-04-28T15:17:11.275Z</time></trkpt><trkpt lat="43.444025" lon="17.401312"><ele>612.6666666666666</ele><time>2026-04-28T15:17:12.275Z</time></trkpt><trkpt lat="43.4440481" lon="17.4015448"><ele>613.3333333333333</ele><time>2026-04-28T15:17:13.274Z</time></trkpt><trkpt lat="43.4440818" lon="17.4017753"><ele>614.0</ele><time>2026-04-28T15:17:14.276Z</time></trkpt><trkpt lat="43.4441199" lon="17.4020025"><ele>613.6666666666666</ele><time>2026-04-28T15:17:15.276Z</time></trkpt><trkpt lat="43.4441518" lon="17.4022207"><ele>613.3333333333334</ele><time>2026-04-28T15:17:16.275Z</time></trkpt><trkpt lat="43.4441815" lon="17.4024376"><ele>613.0</ele><time>2026-04-28T15:17:17.274Z</time></trkpt><trkpt lat="43.4442049" lon="17.4026528"><ele>613.0</ele><time>2026-04-28T15:17:18.279Z</time></trkpt><trkpt lat="43.4442031" lon="17.4028912"><ele>613.0</ele><time>2026-04-28T15:17:19.274Z</time></trkpt><trkpt lat="43.4442073" lon="17.4031121"><ele>613.0</ele><time>2026-04-28T15:17:20.275Z</time></trkpt><trkpt lat="43.4442092" lon="17.4033228"><ele>612.75</ele><time>2026-04-28T15:17:21.274Z</time></trkpt><trkpt lat="43.444209" lon="17.4035407"><ele>612.5</ele><time>2026-04-28T15:17:22.276Z</time></trkpt><trkpt lat="43.4442129" lon="17.4037377"><ele>612.25</ele><time>2026-04-28T15:17:23.275Z</time></trkpt><trkpt lat="43.4442226" lon="17.4039245"><ele>612.0</ele><time>2026-04-28T15:17:24.273Z</time></trkpt><trkpt lat="43.4442484" lon="17.4040995"><ele>611.75</ele><time>2026-04-28T15:17:25.275Z</time></trkpt><trkpt lat="43.444289" lon="17.4042645"><ele>611.5</ele><time>2026-04-28T15:17:26.275Z</time></trkpt><trkpt lat="43.444337" lon="17.4044172"><ele>611.25</ele><time>2026-04-28T15:17:27.276Z</time></trkpt><trkpt lat="43.4443954" lon="17.4045721"><ele>611.0</ele><time>2026-04-28T15:17:28.277Z</time></trkpt><trkpt lat="43.4444714" lon="17.4047204"><ele>610.5</ele><time>2026-04-28T15:17:29.275Z</time></trkpt><trkpt lat="43.4445649" lon="17.4048556"><ele>610.0</ele><time>2026-04-28T15:17:30.275Z</time></trkpt><trkpt lat="43.4446656" lon="17.4049787"><ele>609.5</ele><time>2026-04-28T15:17:31.275Z</time></trkpt><trkpt lat="43.4447592" lon="17.4050947"><ele>609.0</ele><time>2026-04-28T15:17:32.274Z</time></trkpt><trkpt lat="43.4448522" lon="17.4052083"><ele>610.75</ele><time>2026-04-28T15:17:33.274Z</time></trkpt><trkpt lat="43.4449396" lon="17.4053223"><ele>612.5</ele><time>2026-04-28T15:17:34.275Z</time></trkpt><trkpt lat="43.4450127" lon="17.4054535"><ele>614.25</ele><time>2026-04-28T15:17:35.281Z</time></trkpt><trkpt lat="43.4450682" lon="17.4055965"><ele>616.0</ele><time>2026-04-28T15:17:36.281Z</time></trkpt><trkpt lat="43.4451037" lon="17.4057536"><ele>616.0</ele><time>2026-04-28T15:17:37.275Z</time></trkpt><trkpt lat="43.4451144" lon="17.4059242"><ele>616.0</ele><time>2026-04-28T15:17:38.275Z</time></trkpt><trkpt lat="43.4450984" lon="17.4060838"><ele>616.0</ele><time>2026-04-28T15:17:39.274Z</time></trkpt><trkpt lat="43.4450694" lon="17.4062396"><ele>616.0</ele><time>2026-04-28T15:17:40.277Z</time></trkpt><trkpt lat="43.4450191" lon="17.4063876"><ele>616.0</ele><time>2026-04-28T15:17:41.274Z</time></trkpt><trkpt lat="43.4449576" lon="17.4065179"><ele>616.0</ele><time>2026-04-28T15:17:42.276Z</time></trkpt><trkpt lat="43.4448806" lon="17.4066279"><ele>616.0</ele><time>2026-04-28T15:17:43.274Z</time></trkpt><trkpt lat="43.4447924" lon="17.4067242"><ele>616.0</ele><time>2026-04-28T15:17:44.276Z</time></trkpt><trkpt lat="43.4446949" lon="17.406801"><ele>616.0</ele><time>2026-04-28T15:17:45.274Z</time></trkpt><trkpt lat="43.4445938" lon="17.4068605"><ele>616.0</ele><time>2026-04-28T15:17:46.273Z</time></trkpt><trkpt lat="43.4444788" lon="17.40689"><ele>616.0</ele><time>2026-04-28T15:17:47.274Z</time></trkpt><trkpt lat="43.4443529" lon="17.4068987"><ele>616.0</ele><time>2026-04-28T15:17:48.275Z</time></trkpt><trkpt lat="43.4442178" lon="17.4068892"><ele>616.0</ele><time>2026-04-28T15:17:49.274Z</time></trkpt><trkpt lat="43.4440785" lon="17.4068465"><ele>616.0</ele><time>2026-04-28T15:17:50.273Z</time></trkpt><trkpt lat="43.4439314" lon="17.4067754"><ele>616.0</ele><time>2026-04-28T15:17:51.276Z</time></trkpt><trkpt lat="43.4437707" lon="17.4066826"><ele>616.0</ele><time>2026-04-28T15:17:52.277Z</time></trkpt><trkpt lat="43.4435992" lon="17.4065806"><ele>619.0</ele><time>2026-04-28T15:17:53.276Z</time></trkpt><trkpt lat="43.4434328" lon="17.4064868"><ele>622.0</ele><time>2026-04-28T15:17:54.274Z</time></trkpt><trkpt lat="43.4432625" lon="17.4063989"><ele>625.0</ele><time>2026-04-28T15:17:55.275Z</time></trkpt><trkpt lat="43.443099" lon="17.4063111"><ele>621.3333333333334</ele><time>2026-04-28T15:17:56.273Z</time></trkpt><trkpt lat="43.442936" lon="17.4062201"><ele>617.6666666666666</ele><time>2026-04-28T15:17:57.274Z</time></trkpt><trkpt lat="43.4427712" lon="17.4061307"><ele>614.0</ele><time>2026-04-28T15:17:58.274Z</time></trkpt><trkpt lat="43.4426079" lon="17.4060365"><ele>614.0</ele><time>2026-04-28T15:17:59.273Z</time></trkpt><trkpt lat="43.4424581" lon="17.4059516"><ele>614.0</ele><time>2026-04-28T15:18:00.273Z</time></trkpt><trkpt lat="43.4423106" lon="17.4058754"><ele>614.0</ele><time>2026-04-28T15:18:01.27Z</time></trkpt><trkpt lat="43.4421741" lon="17.4058021"><ele>619.0</ele><time>2026-04-28T15:18:02.274Z</time></trkpt><trkpt lat="43.442029" lon="17.4057343"><ele>624.0</ele><time>2026-04-28T15:18:03.271Z</time></trkpt><trkpt lat="43.4418751" lon="17.4056625"><ele>629.0</ele><time>2026-04-28T15:18:04.272Z</time></trkpt><trkpt lat="43.4417155" lon="17.4056083"><ele>629.0</ele><time>2026-04-28T15:18:05.276Z</time></trkpt><trkpt lat="43.4415544" lon="17.4055766"><ele>629.0</ele><time>2026-04-28T15:18:06.275Z</time></trkpt><trkpt lat="43.4413898" lon="17.4055513"><ele>629.0</ele><time>2026-04-28T15:18:07.276Z</time></trkpt><trkpt lat="43.4412348" lon="17.4055817"><ele>628.0</ele><time>2026-04-28T15:18:08.282Z</time></trkpt><trkpt lat="43.4410879" lon="17.4056098"><ele>627.0</ele><time>2026-04-28T15:18:09.275Z</time></trkpt><trkpt lat="43.4409423" lon="17.4056696"><ele>626.0</ele><time>2026-04-28T15:18:10.277Z</time></trkpt><trkpt lat="43.4407944" lon="17.4057086"><ele>626.0</ele><time>2026-04-28T15:18:11.276Z</time></trkpt><trkpt lat="43.4406607" lon="17.4057703"><ele>626.0</ele><time>2026-04-28T15:18:12.274Z</time></trkpt><trkpt lat="43.4405271" lon="17.4058297"><ele>626.0</ele><time>2026-04-28T15:18:13.273Z</time></trkpt><trkpt lat="43.4403903" lon="17.4058775"><ele>626.0</ele><time>2026-04-28T15:18:14.275Z</time></trkpt><trkpt lat="43.4402489" lon="17.4059096"><ele>626.6666666666666</ele><time>2026-04-28T15:18:15.274Z</time></trkpt><trkpt lat="43.4401051" lon="17.405915"><ele>627.3333333333334</ele><time>2026-04-28T15:18:16.274Z</time></trkpt><trkpt lat="43.4399522" lon="17.4059073"><ele>628.0</ele><time>2026-04-28T15:18:17.275Z</time></trkpt><trkpt lat="43.4397965" lon="17.4058963"><ele>628.0</ele><time>2026-04-28T15:18:18.275Z</time></trkpt><trkpt lat="43.4396386" lon="17.405906"><ele>628.0</ele><time>2026-04-28T15:18:19.278Z</time></trkpt><trkpt lat="43.4394991" lon="17.405945"><ele>628.0</ele><time>2026-04-28T15:18:20.275Z</time></trkpt><trkpt lat="43.4393723" lon="17.4060142"><ele>628.0</ele><time>2026-04-28T15:18:21.278Z</time></trkpt><trkpt lat="43.4392582" lon="17.4061139"><ele>628.25</ele><time>2026-04-28T15:18:22.275Z</time></trkpt><trkpt lat="43.4391549" lon="17.4062437"><ele>628.5</ele><time>2026-04-28T15:18:23.276Z</time></trkpt><trkpt lat="43.439071" lon="17.4063909"><ele>628.75</ele><time>2026-04-28T15:18:24.275Z</time></trkpt><trkpt lat="43.4389966" lon="17.4065496"><ele>629.0</ele><time>2026-04-28T15:18:25.273Z</time></trkpt><trkpt lat="43.438937" lon="17.4067175"><ele>631.25</ele><time>2026-04-28T15:18:26.274Z</time></trkpt><trkpt lat="43.4388807" lon="17.4068919"><ele>633.5</ele><time>2026-04-28T15:18:27.276Z</time></trkpt><trkpt lat="43.4388184" lon="17.4070618"><ele>635.75</ele><time>2026-04-28T15:18:28.275Z</time></trkpt><trkpt lat="43.4387434" lon="17.4072245"><ele>638.0</ele><time>2026-04-28T15:18:29.274Z</time></trkpt><trkpt lat="43.4386536" lon="17.4073726"><ele>638.5</ele><time>2026-04-28T15:18:30.277Z</time></trkpt><trkpt lat="43.4385483" lon="17.4075115"><ele>639.0</ele><time>2026-04-28T15:18:31.275Z</time></trkpt><trkpt lat="43.4384296" lon="17.4076226"><ele>639.5</ele><time>2026-04-28T15:18:32.277Z</time></trkpt><trkpt lat="43.4382994" lon="17.4077183"><ele>640.0</ele><time>2026-04-28T15:18:33.277Z</time></trkpt><trkpt lat="43.4381672" lon="17.4078069"><ele>640.0</ele><time>2026-04-28T15:18:34.275Z</time></trkpt><trkpt lat="43.438039" lon="17.4079005"><ele>640.0</ele><time>2026-04-28T15:18:35.274Z</time></trkpt><trkpt lat="43.4379173" lon="17.4080162"><ele>640.0</ele><time>2026-04-28T15:18:36.274Z</time></trkpt><trkpt lat="43.4378034" lon="17.4081343"><ele>640.0</ele><time>2026-04-28T15:18:37.274Z</time></trkpt><trkpt lat="43.4376997" lon="17.4082697"><ele>640.5</ele><time>2026-04-28T15:18:38.276Z</time></trkpt><trkpt lat="43.4376127" lon="17.4084225"><ele>641.0</ele><time>2026-04-28T15:18:39.275Z</time></trkpt><trkpt lat="43.4375347" lon="17.408583"><ele>641.5</ele><time>2026-04-28T15:18:40.274Z</time></trkpt><trkpt lat="43.4374704" lon="17.4087518"><ele>642.0</ele><time>2026-04-28T15:18:41.275Z</time></trkpt><trkpt lat="43.4374122" lon="17.4089321"><ele>643.75</ele><time>2026-04-28T15:18:42.274Z</time></trkpt><trkpt lat="43.4373664" lon="17.409114"><ele>645.5</ele><time>2026-04-28T15:18:43.276Z</time></trkpt><trkpt lat="43.4373224" lon="17.4092995"><ele>647.25</ele><time>2026-04-28T15:18:44.273Z</time></trkpt><trkpt lat="43.4372687" lon="17.4094926"><ele>649.0</ele><time>2026-04-28T15:18:45.275Z</time></trkpt><trkpt lat="43.437199" lon="17.4096822"><ele>650.0</ele><time>2026-04-28T15:18:46.274Z</time></trkpt><trkpt lat="43.437109" lon="17.4098456"><ele>651.0</ele><time>2026-04-28T15:18:47.274Z</time></trkpt><trkpt lat="43.4370054" lon="17.4099815"><ele>652.0</ele><time>2026-04-28T15:18:48.279Z</time></trkpt><trkpt lat="43.4368897" lon="17.4101056"><ele>653.0</ele><time>2026-04-28T15:18:49.275Z</time></trkpt><trkpt lat="43.4367513" lon="17.410188"><ele>653.0</ele><time>2026-04-28T15:18:50.275Z</time></trkpt><trkpt lat="43.4366205" lon="17.4102839"><ele>653.0</ele><time>2026-04-28T15:18:51.277Z</time></trkpt><trkpt lat="43.4364924" lon="17.4103631"><ele>653.0</ele><time>2026-04-28T15:18:52.275Z</time></trkpt><trkpt lat="43.4363727" lon="17.4104517"><ele>653.0</ele><time>2026-04-28T15:18:53.274Z</time></trkpt><trkpt lat="43.4362481" lon="17.4105394"><ele>654.75</ele><time>2026-04-28T15:18:54.275Z</time></trkpt><trkpt lat="43.4361336" lon="17.4106392"><ele>656.5</ele><time>2026-04-28T15:18:55.274Z</time></trkpt><trkpt lat="43.4360164" lon="17.4107482"><ele>658.25</ele><time>2026-04-28T15:18:56.273Z</time></trkpt><trkpt lat="43.4358929" lon="17.4108533"><ele>660.0</ele><time>2026-04-28T15:18:57.276Z</time></trkpt><trkpt lat="43.4357779" lon="17.4109631"><ele>660.0</ele><time>2026-04-28T15:18:58.273Z</time></trkpt><trkpt lat="43.4356588" lon="17.4110945"><ele>660.0</ele><time>2026-04-28T15:18:59.278Z</time></trkpt><trkpt lat="43.4355335" lon="17.4112238"><ele>660.0</ele><time>2026-04-28T15:19:00.275Z</time></trkpt><trkpt lat="43.4354106" lon="17.4113406"><ele>662.3333333333334</ele><time>2026-04-28T15:19:01.275Z</time></trkpt><trkpt lat="43.4352815" lon="17.4114544"><ele>664.6666666666667</ele><time>2026-04-28T15:19:02.275Z</time></trkpt><trkpt lat="43.4351464" lon="17.4115596"><ele>667.0</ele><time>2026-04-28T15:19:03.274Z</time></trkpt><trkpt lat="43.4350085" lon="17.4116549"><ele>667.0</ele><time>2026-04-28T15:19:04.275Z</time></trkpt><trkpt lat="43.4348628" lon="17.4117491"><ele>667.0</ele><time>2026-04-28T15:19:05.275Z</time></trkpt><trkpt lat="43.4347151" lon="17.4118175"><ele>667.0</ele><time>2026-04-28T15:19:06.276Z</time></trkpt><trkpt lat="43.4345681" lon="17.4118768"><ele>667.3333333333334</ele><time>2026-04-28T15:19:07.278Z</time></trkpt><trkpt lat="43.4344157" lon="17.4119285"><ele>667.6666666666666</ele><time>2026-04-28T15:19:08.275Z</time></trkpt><trkpt lat="43.4342658" lon="17.4119712"><ele>668.0</ele><time>2026-04-28T15:19:09.275Z</time></trkpt><trkpt lat="43.4341176" lon="17.4120067"><ele>668.0</ele><time>2026-04-28T15:19:10.276Z</time></trkpt><trkpt lat="43.4339652" lon="17.412046"><ele>668.0</ele><time>2026-04-28T15:19:11.275Z</time></trkpt><trkpt lat="43.4338139" lon="17.4120911"><ele>668.0</ele><time>2026-04-28T15:19:12.273Z</time></trkpt><trkpt lat="43.433664" lon="17.4121459"><ele>670.0</ele><time>2026-04-28T15:19:13.275Z</time></trkpt><trkpt lat="43.4335106" lon="17.4122233"><ele>672.0</ele><time>2026-04-28T15:19:14.275Z</time></trkpt><trkpt lat="43.4333658" lon="17.4123062"><ele>674.0</ele><time>2026-04-28T15:19:15.276Z</time></trkpt><trkpt lat="43.433224" lon="17.4124009"><ele>674.0</ele><time>2026-04-28T15:19:16.277Z</time></trkpt><trkpt lat="43.4330795" lon="17.4124956"><ele>674.0</ele><time>2026-04-28T15:19:17.275Z</time></trkpt><trkpt lat="43.43294" lon="17.4126"><ele>674.0</ele><time>2026-04-28T15:19:18.274Z</time></trkpt><trkpt lat="43.4328134" lon="17.4127163"><ele>675.0</ele><time>2026-04-28T15:19:19.275Z</time></trkpt><trkpt lat="43.4326952" lon="17.4128393"><ele>676.0</ele><time>2026-04-28T15:19:20.274Z</time></trkpt><trkpt lat="43.4325895" lon="17.4129787"><ele>677.0</ele><time>2026-04-28T15:19:21.273Z</time></trkpt><trkpt lat="43.4324944" lon="17.4131344"><ele>678.0</ele><time>2026-04-28T15:19:22.274Z</time></trkpt><trkpt lat="43.4323972" lon="17.4132927"><ele>679.75</ele><time>2026-04-28T15:19:23.274Z</time></trkpt><trkpt lat="43.432303" lon="17.4134573"><ele>681.5</ele><time>2026-04-28T15:19:24.274Z</time></trkpt><trkpt lat="43.4322218" lon="17.4136134"><ele>683.25</ele><time>2026-04-28T15:19:25.276Z</time></trkpt><trkpt lat="43.4321399" lon="17.4137335"><ele>685.0</ele><time>2026-04-28T15:19:26.274Z</time></trkpt><trkpt lat="43.4320673" lon="17.413829"><ele>685.1666666666667</ele><time>2026-04-28T15:19:27.274Z</time></trkpt><trkpt lat="43.4319872" lon="17.4138884"><ele>685.3333333333334</ele><time>2026-04-28T15:19:28.275Z</time></trkpt><trkpt lat="43.4319045" lon="17.4139112"><ele>685.5</ele><time>2026-04-28T15:19:29.273Z</time></trkpt><trkpt lat="43.4318226" lon="17.4139112"><ele>685.6666666666666</ele><time>2026-04-28T15:19:30.274Z</time></trkpt><trkpt lat="43.4317358" lon="17.4138689"><ele>685.8333333333333</ele><time>2026-04-28T15:19:31.274Z</time></trkpt><trkpt lat="43.4316649" lon="17.4137922"><ele>686.0</ele><time>2026-04-28T15:19:32.28Z</time></trkpt><trkpt lat="43.4316164" lon="17.413683"><ele>687.25</ele><time>2026-04-28T15:19:33.276Z</time></trkpt><trkpt lat="43.431584" lon="17.4135457"><ele>688.5</ele><time>2026-04-28T15:19:34.276Z</time></trkpt><trkpt lat="43.4315721" lon="17.4133885"><ele>689.75</ele><time>2026-04-28T15:19:35.278Z</time></trkpt><trkpt lat="43.4315648" lon="17.4132123"><ele>691.0</ele><time>2026-04-28T15:19:36.275Z</time></trkpt><trkpt lat="43.4315662" lon="17.4130304"><ele>690.75</ele><time>2026-04-28T15:19:37.275Z</time></trkpt><trkpt lat="43.43157" lon="17.412853"><ele>690.5</ele><time>2026-04-28T15:19:38.275Z</time></trkpt><trkpt lat="43.4315743" lon="17.4126845"><ele>690.25</ele><time>2026-04-28T15:19:39.275Z</time></trkpt><trkpt lat="43.4315755" lon="17.412531"><ele>690.0</ele><time>2026-04-28T15:19:40.274Z</time></trkpt><trkpt lat="43.4315614" lon="17.4123785"><ele>690.0</ele><time>2026-04-28T15:19:41.275Z</time></trkpt><trkpt lat="43.4315415" lon="17.412233"><ele>690.0</ele><time>2026-04-28T15:19:42.278Z</time></trkpt><trkpt lat="43.4315115" lon="17.4121011"><ele>690.0</ele><time>2026-04-28T15:19:43.275Z</time></trkpt><trkpt lat="43.4314668" lon="17.411965"><ele>690.0</ele><time>2026-04-28T15:19:44.278Z</time></trkpt><trkpt lat="43.4314015" lon="17.4118388"><ele>690.0</ele><time>2026-04-28T15:19:45.282Z</time></trkpt><trkpt lat="43.4313208" lon="17.4117223"><ele>692.5</ele><time>2026-04-28T15:19:46.277Z</time></trkpt><trkpt lat="43.4312138" lon="17.4116198"><ele>695.0</ele><time>2026-04-28T15:19:47.277Z</time></trkpt><trkpt lat="43.4310924" lon="17.4115276"><ele>697.5</ele><time>2026-04-28T15:19:48.276Z</time></trkpt><trkpt lat="43.430966" lon="17.4114388"><ele>700.0</ele><time>2026-04-28T15:19:49.273Z</time></trkpt><trkpt lat="43.4308379" lon="17.411352"><ele>699.25</ele><time>2026-04-28T15:19:50.277Z</time></trkpt><trkpt lat="43.4307214" lon="17.4112546"><ele>698.5</ele><time>2026-04-28T15:19:51.274Z</time></trkpt><trkpt lat="43.4306174" lon="17.4111526"><ele>697.75</ele><time>2026-04-28T15:19:52.275Z</time></trkpt><trkpt lat="43.4305182" lon="17.4110438"><ele>697.0</ele><time>2026-04-28T15:19:53.276Z</time></trkpt><trkpt lat="43.4304183" lon="17.4109198"><ele>698.75</ele><time>2026-04-28T15:19:54.276Z</time></trkpt><trkpt lat="43.4303245" lon="17.4107947"><ele>700.5</ele><time>2026-04-28T15:19:55.274Z</time></trkpt><trkpt lat="43.4302356" lon="17.4106838"><ele>702.25</ele><time>2026-04-28T15:19:56.273Z</time></trkpt><trkpt lat="43.4301442" lon="17.4106026"><ele>704.0</ele><time>2026-04-28T15:19:57.282Z</time></trkpt><trkpt lat="43.4300569" lon="17.4105429"><ele>704.0</ele><time>2026-04-28T15:19:58.274Z</time></trkpt><trkpt lat="43.429982" lon="17.4105076"><ele>704.0</ele><time>2026-04-28T15:19:59.273Z</time></trkpt><trkpt lat="43.4299105" lon="17.410488"><ele>704.0</ele><time>2026-04-28T15:20:00.274Z</time></trkpt><trkpt lat="43.4298395" lon="17.410485"><ele>704.0</ele><time>2026-04-28T15:20:01.275Z</time></trkpt><trkpt lat="43.4297558" lon="17.4104885"><ele>704.0</ele><time>2026-04-28T15:20:02.277Z</time></trkpt><trkpt lat="43.4296617" lon="17.4105063"><ele>704.0</ele><time>2026-04-28T15:20:03.274Z</time></trkpt><trkpt lat="43.4295635" lon="17.4105258"><ele>705.2</ele><time>2026-04-28T15:20:04.277Z</time></trkpt><trkpt lat="43.4294679" lon="17.4105454"><ele>706.4000000000001</ele><time>2026-04-28T15:20:05.274Z</time></trkpt><trkpt lat="43.4293712" lon="17.410559"><ele>707.6</ele><time>2026-04-28T15:20:06.274Z</time></trkpt><trkpt lat="43.4292718" lon="17.4105687"><ele>708.8</ele><time>2026-04-28T15:20:07.275Z</time></trkpt><trkpt lat="43.4291837" lon="17.4105745"><ele>710.0</ele><time>2026-04-28T15:20:08.275Z</time></trkpt><trkpt lat="43.4291026" lon="17.4105709"><ele>710.0</ele><time>2026-04-28T15:20:09.275Z</time></trkpt><trkpt lat="43.4290256" lon="17.4105721"><ele>710.0</ele><time>2026-04-28T15:20:10.274Z</time></trkpt><trkpt lat="43.4289529" lon="17.410567"><ele>710.0</ele><time>2026-04-28T15:20:11.275Z</time></trkpt><trkpt lat="43.4288744" lon="17.4105664"><ele>710.0</ele><time>2026-04-28T15:20:12.274Z</time></trkpt><trkpt lat="43.4287907" lon="17.4105817"><ele>710.0</ele><time>2026-04-28T15:20:13.274Z</time></trkpt><trkpt lat="43.4287056" lon="17.4106112"><ele>710.0</ele><time>2026-04-28T15:20:14.274Z</time></trkpt><trkpt lat="43.4286223" lon="17.4106613"><ele>710.6</ele><time>2026-04-28T15:20:15.28Z</time></trkpt><trkpt lat="43.4285496" lon="17.410737"><ele>711.2</ele><time>2026-04-28T15:20:16.274Z</time></trkpt><trkpt lat="43.4284856" lon="17.4108216"><ele>711.8</ele><time>2026-04-28T15:20:17.275Z</time></trkpt><trkpt lat="43.4284177" lon="17.4109167"><ele>712.4</ele><time>2026-04-28T15:20:18.28Z</time></trkpt><trkpt lat="43.4283445" lon="17.4110154"><ele>713.0</ele><time>2026-04-28T15:20:19.275Z</time></trkpt><trkpt lat="43.4282828" lon="17.4111271"><ele>713.0</ele><time>2026-04-28T15:20:20.276Z</time></trkpt><trkpt lat="43.4282173" lon="17.4112416"><ele>713.0</ele><time>2026-04-28T15:20:21.272Z</time></trkpt><trkpt lat="43.4281504" lon="17.4113463"><ele>713.0</ele><time>2026-04-28T15:20:22.274Z</time></trkpt><trkpt lat="43.4280831" lon="17.4114426"><ele>713.0</ele><time>2026-04-28T15:20:23.274Z</time></trkpt><trkpt lat="43.4280152" lon="17.4115457"><ele>713.0</ele><time>2026-04-28T15:20:24.274Z</time></trkpt><trkpt lat="43.4279299" lon="17.4116298"><ele>712.0</ele><time>2026-04-28T15:20:25.274Z</time></trkpt><trkpt lat="43.4278388" lon="17.4117066"><ele>711.0</ele><time>2026-04-28T15:20:26.275Z</time></trkpt><trkpt lat="43.4277475" lon="17.4117653"><ele>710.0</ele><time>2026-04-28T15:20:27.275Z</time></trkpt><trkpt lat="43.4276379" lon="17.4117927"><ele>709.0</ele><time>2026-04-28T15:20:28.276Z</time></trkpt><trkpt lat="43.4275398" lon="17.4117892"><ele>708.0</ele><time>2026-04-28T15:20:29.283Z</time></trkpt><trkpt lat="43.4274376" lon="17.4117666"><ele>708.0</ele><time>2026-04-28T15:20:30.274Z</time></trkpt><trkpt lat="43.4273421" lon="17.4117182"><ele>708.0</ele><time>2026-04-28T15:20:31.274Z</time></trkpt><trkpt lat="43.4272634" lon="17.4116389"><ele>708.0</ele><time>2026-04-28T15:20:32.278Z</time></trkpt><trkpt lat="43.4271869" lon="17.4115421"><ele>708.0</ele><time>2026-04-28T15:20:33.276Z</time></trkpt><trkpt lat="43.4271099" lon="17.4114297"><ele>708.0</ele><time>2026-04-28T15:20:34.273Z</time></trkpt><trkpt lat="43.4270338" lon="17.4113086"><ele>707.0</ele><time>2026-04-28T15:20:35.274Z</time></trkpt><trkpt lat="43.4269495" lon="17.4111714"><ele>706.0</ele><time>2026-04-28T15:20:36.275Z</time></trkpt><trkpt lat="43.4268576" lon="17.4110462"><ele>705.0</ele><time>2026-04-28T15:20:37.274Z</time></trkpt><trkpt lat="43.4267597" lon="17.4109352"><ele>704.0</ele><time>2026-04-28T15:20:38.273Z</time></trkpt><trkpt lat="43.4266497" lon="17.4108375"><ele>704.0</ele><time>2026-04-28T15:20:39.274Z</time></trkpt><trkpt lat="43.426527" lon="17.4107757"><ele>704.0</ele><time>2026-04-28T15:20:40.276Z</time></trkpt><trkpt lat="43.42639" lon="17.410739"><ele>704.0</ele><time>2026-04-28T15:20:41.274Z</time></trkpt><trkpt lat="43.4262545" lon="17.4107218"><ele>704.0</ele><time>2026-04-28T15:20:42.274Z</time></trkpt><trkpt lat="43.4261198" lon="17.4107624"><ele>703.0</ele><time>2026-04-28T15:20:43.274Z</time></trkpt><trkpt lat="43.4259814" lon="17.4108001"><ele>702.0</ele><time>2026-04-28T15:20:44.275Z</time></trkpt><trkpt lat="43.425842" lon="17.4108554"><ele>701.0</ele><time>2026-04-28T15:20:45.275Z</time></trkpt><trkpt lat="43.425695" lon="17.4109156"><ele>700.0</ele><time>2026-04-28T15:20:46.275Z</time></trkpt><trkpt lat="43.4255508" lon="17.4109921"><ele>700.0</ele><time>2026-04-28T15:20:47.275Z</time></trkpt><trkpt lat="43.4253951" lon="17.4110609"><ele>700.0</ele><time>2026-04-28T15:20:48.274Z</time></trkpt><trkpt lat="43.425224" lon="17.4111264"><ele>700.0</ele><time>2026-04-28T15:20:49.273Z</time></trkpt><trkpt lat="43.4250555" lon="17.4111707"><ele>700.0</ele><time>2026-04-28T15:20:50.273Z</time></trkpt><trkpt lat="43.4248738" lon="17.411201"><ele>700.0</ele><time>2026-04-28T15:20:51.28Z</time></trkpt><trkpt lat="43.4246842" lon="17.4112211"><ele>700.0</ele><time>2026-04-28T15:20:52.272Z</time></trkpt><trkpt lat="43.4244695" lon="17.4112457"><ele>697.6666666666667</ele><time>2026-04-28T15:20:53.273Z</time></trkpt><trkpt lat="43.4242409" lon="17.4112626"><ele>695.3333333333334</ele><time>2026-04-28T15:20:54.28Z</time></trkpt><trkpt lat="43.4240299" lon="17.4113242"><ele>693.0</ele><time>2026-04-28T15:20:55.276Z</time></trkpt><trkpt lat="43.4238179" lon="17.4114216"><ele>689.6666666666666</ele><time>2026-04-28T15:20:56.275Z</time></trkpt><trkpt lat="43.4236107" lon="17.4115508"><ele>686.3333333333333</ele><time>2026-04-28T15:20:57.274Z</time></trkpt><trkpt lat="43.4234195" lon="17.4116925"><ele>683.0</ele><time>2026-04-28T15:20:58.274Z</time></trkpt><trkpt lat="43.4232372" lon="17.4118385"><ele>683.0</ele><time>2026-04-28T15:20:59.274Z</time></trkpt><trkpt lat="43.4230761" lon="17.4119743"><ele>683.0</ele><time>2026-04-28T15:21:00.275Z</time></trkpt><trkpt lat="43.4229219" lon="17.4120835"><ele>683.0</ele><time>2026-04-28T15:21:01.28Z</time></trkpt><trkpt lat="43.4227583" lon="17.4121756"><ele>684.0</ele><time>2026-04-28T15:21:02.273Z</time></trkpt><trkpt lat="43.4225795" lon="17.41218"><ele>685.0</ele><time>2026-04-28T15:21:03.275Z</time></trkpt><trkpt lat="43.4223958" lon="17.4121584"><ele>686.0</ele><time>2026-04-28T15:21:04.274Z</time></trkpt><trkpt lat="43.4222074" lon="17.4120976"><ele>686.0</ele><time>2026-04-28T15:21:05.275Z</time></trkpt><trkpt lat="43.4220321" lon="17.4120008"><ele>686.0</ele><time>2026-04-28T15:21:06.274Z</time></trkpt><trkpt lat="43.4218655" lon="17.4119403"><ele>686.0</ele><time>2026-04-28T15:21:07.272Z</time></trkpt><trkpt lat="43.4217018" lon="17.4119258"><ele>686.0</ele><time>2026-04-28T15:21:08.272Z</time></trkpt><trkpt lat="43.4215494" lon="17.4119653"><ele>686.0</ele><time>2026-04-28T15:21:09.274Z</time></trkpt><trkpt lat="43.4214066" lon="17.4120656"><ele>686.0</ele><time>2026-04-28T15:21:10.274Z</time></trkpt><trkpt lat="43.4212627" lon="17.4122133"><ele>682.3333333333333</ele><time>2026-04-28T15:21:11.275Z</time></trkpt><trkpt lat="43.4210922" lon="17.4123628"><ele>678.6666666666666</ele><time>2026-04-28T15:21:12.275Z</time></trkpt><trkpt lat="43.4208872" lon="17.4124709"><ele>675.0</ele><time>2026-04-28T15:21:13.276Z</time></trkpt><trkpt lat="43.4206548" lon="17.4125617"><ele>676.5</ele><time>2026-04-28T15:21:14.275Z</time></trkpt><trkpt lat="43.4204117" lon="17.4126648"><ele>678.0</ele><time>2026-04-28T15:21:15.272Z</time></trkpt><trkpt lat="43.4201659" lon="17.4127542"><ele>678.0</ele><time>2026-04-28T15:21:16.274Z</time></trkpt><trkpt lat="43.419925" lon="17.4128174"><ele>678.0</ele><time>2026-04-28T15:21:17.274Z</time></trkpt><trkpt lat="43.4196953" lon="17.412842"><ele>672.3333333333334</ele><time>2026-04-28T15:21:18.277Z</time></trkpt><trkpt lat="43.4195031" lon="17.4128312"><ele>666.6666666666667</ele><time>2026-04-28T15:21:19.274Z</time></trkpt><trkpt lat="43.4193502" lon="17.4127972"><ele>661.0</ele><time>2026-04-28T15:21:20.274Z</time></trkpt><trkpt lat="43.4192327" lon="17.4127245"><ele>661.0</ele><time>2026-04-28T15:21:21.274Z</time></trkpt><trkpt lat="43.4191462" lon="17.4126179"><ele>661.0</ele><time>2026-04-28T15:21:22.274Z</time></trkpt><trkpt lat="43.4190687" lon="17.4124698"><ele>661.0</ele><time>2026-04-28T15:21:23.274Z</time></trkpt><trkpt lat="43.4190236" lon="17.4122767"><ele>661.0</ele><time>2026-04-28T15:21:24.274Z</time></trkpt><trkpt lat="43.4190117" lon="17.4120503"><ele>661.3333333333334</ele><time>2026-04-28T15:21:25.275Z</time></trkpt><trkpt lat="43.4190094" lon="17.4118038"><ele>661.6666666666666</ele><time>2026-04-28T15:21:26.275Z</time></trkpt><trkpt lat="43.4190584" lon="17.4115495"><ele>662.0</ele><time>2026-04-28T15:21:27.274Z</time></trkpt><trkpt lat="43.4190986" lon="17.4112815"><ele>662.0</ele><time>2026-04-28T15:21:28.275Z</time></trkpt><trkpt lat="43.4191203" lon="17.4110118"><ele>662.0</ele><time>2026-04-28T15:21:29.274Z</time></trkpt><trkpt lat="43.4191095" lon="17.4107532"><ele>662.0</ele><time>2026-04-28T15:21:30.274Z</time></trkpt><trkpt lat="43.4190687" lon="17.4105016"><ele>665.3333333333333</ele><time>2026-04-28T15:21:31.274Z</time></trkpt><trkpt lat="43.4189942" lon="17.4102744"><ele>668.6666666666666</ele><time>2026-04-28T15:21:32.276Z</time></trkpt><trkpt lat="43.4188921" lon="17.4100726"><ele>672.0</ele><time>2026-04-28T15:21:33.276Z</time></trkpt><trkpt lat="43.4187621" lon="17.4099"><ele>673.0</ele><time>2026-04-28T15:21:34.273Z</time></trkpt><trkpt lat="43.4186093" lon="17.4097591"><ele>674.0</ele><time>2026-04-28T15:21:35.276Z</time></trkpt><trkpt lat="43.4184396" lon="17.4096562"><ele>675.0</ele><time>2026-04-28T15:21:36.275Z</time></trkpt><trkpt lat="43.4182644" lon="17.4095889"><ele>675.0</ele><time>2026-04-28T15:21:37.275Z</time></trkpt><trkpt lat="43.4180935" lon="17.4095697"><ele>675.0</ele><time>2026-04-28T15:21:38.272Z</time></trkpt><trkpt lat="43.4179335" lon="17.4095956"><ele>675.0</ele><time>2026-04-28T15:21:39.272Z</time></trkpt><trkpt lat="43.4177916" lon="17.4096688"><ele>666.3333333333334</ele><time>2026-04-28T15:21:40.272Z</time></trkpt><trkpt lat="43.4176635" lon="17.4097921"><ele>657.6666666666667</ele><time>2026-04-28T15:21:41.275Z</time></trkpt><trkpt lat="43.4175511" lon="17.4099701"><ele>649.0</ele><time>2026-04-28T15:21:42.276Z</time></trkpt><trkpt lat="43.4174494" lon="17.4101962"><ele>649.0</ele><time>2026-04-28T15:21:43.275Z</time></trkpt><trkpt lat="43.4173415" lon="17.4104458"><ele>649.0</ele><time>2026-04-28T15:21:44.274Z</time></trkpt><trkpt lat="43.417208" lon="17.4106859"><ele>649.0</ele><time>2026-04-28T15:21:45.275Z</time></trkpt><trkpt lat="43.4170622" lon="17.4108867"><ele>650.0</ele><time>2026-04-28T15:21:46.274Z</time></trkpt><trkpt lat="43.4169121" lon="17.4110948"><ele>651.0</ele><time>2026-04-28T15:21:47.274Z</time></trkpt><trkpt lat="43.4167804" lon="17.4113305"><ele>652.0</ele><time>2026-04-28T15:21:48.275Z</time></trkpt><trkpt lat="43.4166724" lon="17.4116009"><ele>644.5</ele><time>2026-04-28T15:21:49.276Z</time></trkpt><trkpt lat="43.4165725" lon="17.411901"><ele>637.0</ele><time>2026-04-28T15:21:50.276Z</time></trkpt><trkpt lat="43.416474" lon="17.4121888"><ele>639.3333333333334</ele><time>2026-04-28T15:21:51.276Z</time></trkpt><trkpt lat="43.4163849" lon="17.4124329"><ele>641.6666666666666</ele><time>2026-04-28T15:21:52.276Z</time></trkpt><trkpt lat="43.4163" lon="17.4126483"><ele>644.0</ele><time>2026-04-28T15:21:53.274Z</time></trkpt><trkpt lat="43.4162171" lon="17.4128172"><ele>644.0</ele><time>2026-04-28T15:21:54.276Z</time></trkpt><trkpt lat="43.4161173" lon="17.4129502"><ele>644.0</ele><time>2026-04-28T15:21:55.273Z</time></trkpt><trkpt lat="43.4159912" lon="17.4130553"><ele>644.0</ele><time>2026-04-28T15:21:56.274Z</time></trkpt><trkpt lat="43.4158275" lon="17.4131319"><ele>637.3333333333333</ele><time>2026-04-28T15:21:57.277Z</time></trkpt><trkpt lat="43.4156321" lon="17.4131817"><ele>630.6666666666666</ele><time>2026-04-28T15:21:58.275Z</time></trkpt><trkpt lat="43.4154112" lon="17.4132141"><ele>624.0</ele><time>2026-04-28T15:21:59.275Z</time></trkpt><trkpt lat="43.4151915" lon="17.4132587"><ele>623.6666666666666</ele><time>2026-04-28T15:22:00.274Z</time></trkpt><trkpt lat="43.4150224" lon="17.4133017"><ele>623.3333333333333</ele><time>2026-04-28T15:22:01.273Z</time></trkpt><trkpt lat="43.414856" lon="17.4133603"><ele>623.0</ele><time>2026-04-28T15:22:02.273Z</time></trkpt><trkpt lat="43.4147196" lon="17.4134329"><ele>623.5</ele><time>2026-04-28T15:22:03.273Z</time></trkpt><trkpt lat="43.4146061" lon="17.4135348"><ele>624.0</ele><time>2026-04-28T15:22:04.273Z</time></trkpt><trkpt lat="43.4145133" lon="17.4136608"><ele>624.5</ele><time>2026-04-28T15:22:05.278Z</time></trkpt><trkpt lat="43.4144552" lon="17.4138163"><ele>625.0</ele><time>2026-04-28T15:22:06.275Z</time></trkpt><trkpt lat="43.4144381" lon="17.4139896"><ele>625.0</ele><time>2026-04-28T15:22:07.275Z</time></trkpt><trkpt lat="43.4144576" lon="17.4141663"><ele>625.0</ele><time>2026-04-28T15:22:08.274Z</time></trkpt><trkpt lat="43.4145079" lon="17.4143379"><ele>625.0</ele><time>2026-04-28T15:22:09.274Z</time></trkpt><trkpt lat="43.4145645" lon="17.4144961"><ele>625.0</ele><time>2026-04-28T15:22:10.274Z</time></trkpt><trkpt lat="43.4147042" lon="17.4145759"><ele>619.0</ele><time>2026-04-28T15:22:11.278Z</time></trkpt><trkpt lat="43.4148417" lon="17.4146521"><ele>613.0</ele><time>2026-04-28T15:22:12.274Z</time></trkpt><trkpt lat="43.4150237" lon="17.4146851"><ele>607.0</ele><time>2026-04-28T15:22:13.275Z</time></trkpt><trkpt lat="43.4152273" lon="17.4146937"><ele>608.0</ele><time>2026-04-28T15:22:14.276Z</time></trkpt><trkpt lat="43.4154707" lon="17.4146728"><ele>609.0</ele><time>2026-04-28T15:22:15.276Z</time></trkpt><trkpt lat="43.4157242" lon="17.4146524"><ele>609.0</ele><time>2026-04-28T15:22:16.274Z</time></trkpt><trkpt lat="43.415947" lon="17.4146288"><ele>609.0</ele><time>2026-04-28T15:22:17.274Z</time></trkpt><trkpt lat="43.4161544" lon="17.4146165"><ele>609.0</ele><time>2026-04-28T15:22:18.274Z</time></trkpt><trkpt lat="43.4163273" lon="17.4146136"><ele>608.75</ele><time>2026-04-28T15:22:19.275Z</time></trkpt><trkpt lat="43.4164735" lon="17.4146296"><ele>608.5</ele><time>2026-04-28T15:22:20.275Z</time></trkpt><trkpt lat="43.4166025" lon="17.4146889"><ele>608.25</ele><time>2026-04-28T15:22:21.275Z</time></trkpt><trkpt lat="43.4167232" lon="17.4148107"><ele>608.0</ele><time>2026-04-28T15:22:22.273Z</time></trkpt><trkpt lat="43.4168341" lon="17.4149337"><ele>604.0</ele><time>2026-04-28T15:22:23.273Z</time></trkpt><trkpt lat="43.4169499" lon="17.4152073"><ele>600.0</ele><time>2026-04-28T15:22:24.277Z</time></trkpt><trkpt lat="43.4171051" lon="17.415417"><ele>596.0</ele><time>2026-04-28T15:22:25.275Z</time></trkpt><trkpt lat="43.4172718" lon="17.4156416"><ele>595.0</ele><time>2026-04-28T15:22:26.274Z</time></trkpt><trkpt lat="43.4174023" lon="17.4158623"><ele>594.0</ele><time>2026-04-28T15:22:27.275Z</time></trkpt><trkpt lat="43.417512" lon="17.4160774"><ele>593.0</ele><time>2026-04-28T15:22:28.274Z</time></trkpt><trkpt lat="43.4176169" lon="17.4162832"><ele>590.6666666666666</ele><time>2026-04-28T15:22:29.274Z</time></trkpt><trkpt lat="43.4177277" lon="17.4164544"><ele>588.3333333333334</ele><time>2026-04-28T15:22:30.277Z</time></trkpt><trkpt lat="43.4178706" lon="17.4166032"><ele>586.0</ele><time>2026-04-28T15:22:31.273Z</time></trkpt><trkpt lat="43.4180501" lon="17.4167183"><ele>586.0</ele><time>2026-04-28T15:22:32.276Z</time></trkpt><trkpt lat="43.4182706" lon="17.416823"><ele>586.0</ele><time>2026-04-28T15:22:33.275Z</time></trkpt><trkpt lat="43.4185172" lon="17.4169229"><ele>586.0</ele><time>2026-04-28T15:22:34.275Z</time></trkpt><trkpt lat="43.4187541" lon="17.4170053"><ele>586.0</ele><time>2026-04-28T15:22:35.275Z</time></trkpt><trkpt lat="43.4189709" lon="17.4170918"><ele>582.0</ele><time>2026-04-28T15:22:36.273Z</time></trkpt><trkpt lat="43.4191657" lon="17.4171657"><ele>578.0</ele><time>2026-04-28T15:22:37.275Z</time></trkpt><trkpt lat="43.4193524" lon="17.4172379"><ele>574.0</ele><time>2026-04-28T15:22:38.276Z</time></trkpt><trkpt lat="43.41953" lon="17.4173148"><ele>575.6666666666667</ele><time>2026-04-28T15:22:39.275Z</time></trkpt><trkpt lat="43.4196751" lon="17.4173919"><ele>577.3333333333334</ele><time>2026-04-28T15:22:40.275Z</time></trkpt><trkpt lat="43.4198116" lon="17.4174972"><ele>579.0</ele><time>2026-04-28T15:22:41.274Z</time></trkpt><trkpt lat="43.4199187" lon="17.4176366"><ele>579.0</ele><time>2026-04-28T15:22:42.275Z</time></trkpt><trkpt lat="43.4200201" lon="17.4177784"><ele>579.0</ele><time>2026-04-28T15:22:43.275Z</time></trkpt><trkpt lat="43.4200253" lon="17.417947"><ele>579.0</ele><time>2026-04-28T15:22:44.273Z</time></trkpt><trkpt lat="43.4200338" lon="17.4181466"><ele>579.0</ele><time>2026-04-28T15:22:45.274Z</time></trkpt><trkpt lat="43.4199991" lon="17.4183733"><ele>578.0</ele><time>2026-04-28T15:22:46.274Z</time></trkpt><trkpt lat="43.4199716" lon="17.4186068"><ele>577.0</ele><time>2026-04-28T15:22:47.273Z</time></trkpt><trkpt lat="43.4198599" lon="17.4188732"><ele>576.0</ele><time>2026-04-28T15:22:48.273Z</time></trkpt><trkpt lat="43.4197902" lon="17.4191263"><ele>576.0</ele><time>2026-04-28T15:22:49.273Z</time></trkpt><trkpt lat="43.419722" lon="17.4193985"><ele>576.0</ele><time>2026-04-28T15:22:50.275Z</time></trkpt><trkpt lat="43.4196704" lon="17.4196789"><ele>576.0</ele><time>2026-04-28T15:22:51.273Z</time></trkpt><trkpt lat="43.4196119" lon="17.4199442"><ele>572.0</ele><time>2026-04-28T15:22:52.273Z</time></trkpt><trkpt lat="43.4195182" lon="17.4201906"><ele>568.0</ele><time>2026-04-28T15:22:53.278Z</time></trkpt><trkpt lat="43.4194142" lon="17.420436"><ele>564.0</ele><time>2026-04-28T15:22:54.276Z</time></trkpt><trkpt lat="43.4192883" lon="17.4206691"><ele>564.0</ele><time>2026-04-28T15:22:55.274Z</time></trkpt><trkpt lat="43.4191304" lon="17.420881"><ele>564.0</ele><time>2026-04-28T15:22:56.275Z</time></trkpt><trkpt lat="43.4189619" lon="17.4210601"><ele>564.0</ele><time>2026-04-28T15:22:57.276Z</time></trkpt><trkpt lat="43.4188052" lon="17.4212406"><ele>559.3333333333334</ele><time>2026-04-28T15:22:58.274Z</time></trkpt><trkpt lat="43.4186553" lon="17.4214427"><ele>554.6666666666667</ele><time>2026-04-28T15:22:59.277Z</time></trkpt><trkpt lat="43.418524" lon="17.4216731"><ele>550.0</ele><time>2026-04-28T15:23:00.274Z</time></trkpt><trkpt lat="43.4184107" lon="17.4219359"><ele>553.3333333333334</ele><time>2026-04-28T15:23:01.275Z</time></trkpt><trkpt lat="43.4183062" lon="17.4221947"><ele>556.6666666666666</ele><time>2026-04-28T15:23:02.274Z</time></trkpt><trkpt lat="43.4181923" lon="17.4224181"><ele>560.0</ele><time>2026-04-28T15:23:03.274Z</time></trkpt><trkpt lat="43.4180592" lon="17.4226"><ele>556.6666666666666</ele><time>2026-04-28T15:23:04.273Z</time></trkpt><trkpt lat="43.417893" lon="17.4227375"><ele>553.3333333333334</ele><time>2026-04-28T15:23:05.285Z</time></trkpt><trkpt lat="43.4177068" lon="17.4228802"><ele>550.0</ele><time>2026-04-28T15:23:06.274Z</time></trkpt><trkpt lat="43.4175422" lon="17.4230326"><ele>550.0</ele><time>2026-04-28T15:23:07.273Z</time></trkpt><trkpt lat="43.4173842" lon="17.4232157"><ele>550.0</ele><time>2026-04-28T15:23:08.274Z</time></trkpt><trkpt lat="43.4172447" lon="17.4234389"><ele>550.0</ele><time>2026-04-28T15:23:09.275Z</time></trkpt><trkpt lat="43.4171057" lon="17.4237113"><ele>542.5</ele><time>2026-04-28T15:23:10.273Z</time></trkpt><trkpt lat="43.4169649" lon="17.4239927"><ele>535.0</ele><time>2026-04-28T15:23:11.275Z</time></trkpt><trkpt lat="43.4168199" lon="17.4242811"><ele>535.0</ele><time>2026-04-28T15:23:12.274Z</time></trkpt><trkpt lat="43.4166712" lon="17.424538"><ele>535.0</ele><time>2026-04-28T15:23:13.279Z</time></trkpt><trkpt lat="43.4165034" lon="17.4247774"><ele>529.0</ele><time>2026-04-28T15:23:14.273Z</time></trkpt><trkpt lat="43.4163013" lon="17.4249979"><ele>523.0</ele><time>2026-04-28T15:23:15.275Z</time></trkpt><trkpt lat="43.4160718" lon="17.4252277"><ele>523.0</ele><time>2026-04-28T15:23:16.276Z</time></trkpt><trkpt lat="43.4158441" lon="17.4254679"><ele>523.0</ele><time>2026-04-28T15:23:17.273Z</time></trkpt><trkpt lat="43.4156156" lon="17.4257301"><ele>516.5</ele><time>2026-04-28T15:23:18.273Z</time></trkpt><trkpt lat="43.4153995" lon="17.4260121"><ele>510.0</ele><time>2026-04-28T15:23:19.274Z</time></trkpt><trkpt lat="43.4151981" lon="17.4262747"><ele>519.5</ele><time>2026-04-28T15:23:20.273Z</time></trkpt><trkpt lat="43.4150031" lon="17.4265373"><ele>529.0</ele><time>2026-04-28T15:23:21.275Z</time></trkpt><trkpt lat="43.4148273" lon="17.4267866"><ele>529.0</ele><time>2026-04-28T15:23:22.276Z</time></trkpt><trkpt lat="43.4146576" lon="17.4270254"><ele>529.0</ele><time>2026-04-28T15:23:23.274Z</time></trkpt><trkpt lat="43.4145064" lon="17.4272669"><ele>522.5</ele><time>2026-04-28T15:23:24.275Z</time></trkpt><trkpt lat="43.4143557" lon="17.4275247"><ele>516.0</ele><time>2026-04-28T15:23:25.276Z</time></trkpt><trkpt lat="43.4142054" lon="17.4277751"><ele>524.5</ele><time>2026-04-28T15:23:26.274Z</time></trkpt><trkpt lat="43.4140461" lon="17.4280092"><ele>533.0</ele><time>2026-04-28T15:23:27.276Z</time></trkpt><trkpt lat="43.4138757" lon="17.4282283"><ele>518.0</ele><time>2026-04-28T15:23:28.276Z</time></trkpt><trkpt lat="43.4137065" lon="17.4284556"><ele>503.0</ele><time>2026-04-28T15:23:29.277Z</time></trkpt><trkpt lat="43.413543" lon="17.4286925"><ele>511.5</ele><time>2026-04-28T15:23:30.274Z</time></trkpt><trkpt lat="43.4133754" lon="17.4289327"><ele>520.0</ele><time>2026-04-28T15:23:31.275Z</time></trkpt><trkpt lat="43.4132096" lon="17.429174"><ele>520.0</ele><time>2026-04-28T15:23:32.275Z</time></trkpt><trkpt lat="43.4130419" lon="17.429414"><ele>520.0</ele><time>2026-04-28T15:23:33.276Z</time></trkpt><trkpt lat="43.4128811" lon="17.4296655"><ele>513.0</ele><time>2026-04-28T15:23:34.274Z</time></trkpt><trkpt lat="43.4127227" lon="17.4299167"><ele>506.0</ele><time>2026-04-28T15:23:35.274Z</time></trkpt><trkpt lat="43.4125892" lon="17.4301635"><ele>506.0</ele><time>2026-04-28T15:23:36.275Z</time></trkpt><trkpt lat="43.4124685" lon="17.4303958"><ele>506.0</ele><time>2026-04-28T15:23:37.276Z</time></trkpt><trkpt lat="43.4123481" lon="17.4306141"><ele>506.0</ele><time>2026-04-28T15:23:38.275Z</time></trkpt><trkpt lat="43.4122257" lon="17.4308148"><ele>506.66666666666663</ele><time>2026-04-28T15:23:39.275Z</time></trkpt><trkpt lat="43.4120886" lon="17.4310116"><ele>507.33333333333337</ele><time>2026-04-28T15:23:40.271Z</time></trkpt><trkpt lat="43.4119529" lon="17.4312045"><ele>508.0</ele><time>2026-04-28T15:23:41.272Z</time></trkpt><trkpt lat="43.4118282" lon="17.4313991"><ele>508.0</ele><time>2026-04-28T15:23:42.271Z</time></trkpt><trkpt lat="43.4117098" lon="17.4316022"><ele>508.0</ele><time>2026-04-28T15:23:43.271Z</time></trkpt><trkpt lat="43.4115958" lon="17.4318022"><ele>508.0</ele><time>2026-04-28T15:23:44.274Z</time></trkpt><trkpt lat="43.4114899" lon="17.4319963"><ele>513.3333333333334</ele><time>2026-04-28T15:23:45.272Z</time></trkpt><trkpt lat="43.4113805" lon="17.432182"><ele>518.6666666666666</ele><time>2026-04-28T15:23:46.274Z</time></trkpt><trkpt lat="43.4112688" lon="17.4323664"><ele>524.0</ele><time>2026-04-28T15:23:47.274Z</time></trkpt><trkpt lat="43.4111455" lon="17.4325367"><ele>521.0</ele><time>2026-04-28T15:23:48.274Z</time></trkpt><trkpt lat="43.4110251" lon="17.432706"><ele>518.0</ele><time>2026-04-28T15:23:49.276Z</time></trkpt><trkpt lat="43.4108909" lon="17.4328556"><ele>515.0</ele><time>2026-04-28T15:23:50.274Z</time></trkpt><trkpt lat="43.4107581" lon="17.4330099"><ele>515.0</ele><time>2026-04-28T15:23:51.275Z</time></trkpt><trkpt lat="43.4106128" lon="17.4331581"><ele>515.0</ele><time>2026-04-28T15:23:52.276Z</time></trkpt><trkpt lat="43.4104598" lon="17.4332992"><ele>515.0</ele><time>2026-04-28T15:23:53.274Z</time></trkpt><trkpt lat="43.4103103" lon="17.433432"><ele>506.0</ele><time>2026-04-28T15:23:54.274Z</time></trkpt><trkpt lat="43.4101578" lon="17.433553"><ele>497.0</ele><time>2026-04-28T15:23:55.276Z</time></trkpt><trkpt lat="43.4099983" lon="17.4336644"><ele>488.0</ele><time>2026-04-28T15:23:56.279Z</time></trkpt><trkpt lat="43.4098367" lon="17.4337777"><ele>488.3333333333333</ele><time>2026-04-28T15:23:57.275Z</time></trkpt><trkpt lat="43.4096751" lon="17.4338859"><ele>488.66666666666663</ele><time>2026-04-28T15:23:58.274Z</time></trkpt><trkpt lat="43.4095191" lon="17.4339904"><ele>489.0</ele><time>2026-04-28T15:23:59.275Z</time></trkpt><trkpt lat="43.4093729" lon="17.434113"><ele>489.0</ele><time>2026-04-28T15:24:00.275Z</time></trkpt><trkpt lat="43.4092422" lon="17.4342462"><ele>489.0</ele><time>2026-04-28T15:24:01.28Z</time></trkpt><trkpt lat="43.409113" lon="17.4344031"><ele>489.0</ele><time>2026-04-28T15:24:02.273Z</time></trkpt><trkpt lat="43.4089986" lon="17.434578"><ele>485.0</ele><time>2026-04-28T15:24:03.273Z</time></trkpt><trkpt lat="43.4089047" lon="17.4347803"><ele>481.0</ele><time>2026-04-28T15:24:04.275Z</time></trkpt><trkpt lat="43.4088248" lon="17.4349947"><ele>477.0</ele><time>2026-04-28T15:24:05.275Z</time></trkpt><trkpt lat="43.408745" lon="17.4352208"><ele>477.0</ele><time>2026-04-28T15:24:06.274Z</time></trkpt><trkpt lat="43.4086676" lon="17.4354452"><ele>477.0</ele><time>2026-04-28T15:24:07.274Z</time></trkpt><trkpt lat="43.4086008" lon="17.4356526"><ele>477.0</ele><time>2026-04-28T15:24:08.275Z</time></trkpt><trkpt lat="43.4085321" lon="17.4358588"><ele>478.0</ele><time>2026-04-28T15:24:09.274Z</time></trkpt><trkpt lat="43.4084681" lon="17.4360683"><ele>479.0</ele><time>2026-04-28T15:24:10.275Z</time></trkpt><trkpt lat="43.4084063" lon="17.4362763"><ele>480.0</ele><time>2026-04-28T15:24:11.274Z</time></trkpt><trkpt lat="43.4083444" lon="17.4364712"><ele>482.5</ele><time>2026-04-28T15:24:12.275Z</time></trkpt><trkpt lat="43.408283" lon="17.4366592"><ele>485.0</ele><time>2026-04-28T15:24:13.275Z</time></trkpt><trkpt lat="43.4082248" lon="17.4368468"><ele>487.5</ele><time>2026-04-28T15:24:14.275Z</time></trkpt><trkpt lat="43.4081644" lon="17.4370371"><ele>490.0</ele><time>2026-04-28T15:24:15.275Z</time></trkpt><trkpt lat="43.4080975" lon="17.4372264"><ele>492.0</ele><time>2026-04-28T15:24:16.275Z</time></trkpt><trkpt lat="43.4080201" lon="17.4374184"><ele>494.0</ele><time>2026-04-28T15:24:17.276Z</time></trkpt><trkpt lat="43.407934" lon="17.437606"><ele>496.0</ele><time>2026-04-28T15:24:18.274Z</time></trkpt><trkpt lat="43.4078285" lon="17.4377756"><ele>492.0</ele><time>2026-04-28T15:24:19.273Z</time></trkpt><trkpt lat="43.4077071" lon="17.4379356"><ele>488.0</ele><time>2026-04-28T15:24:20.272Z</time></trkpt><trkpt lat="43.407574" lon="17.4380852"><ele>484.0</ele><time>2026-04-28T15:24:21.273Z</time></trkpt><trkpt lat="43.4074326" lon="17.438221"><ele>484.0</ele><time>2026-04-28T15:24:22.273Z</time></trkpt><trkpt lat="43.4072955" lon="17.4383407"><ele>484.0</ele><time>2026-04-28T15:24:23.273Z</time></trkpt><trkpt lat="43.4071573" lon="17.4384494"><ele>484.0</ele><time>2026-04-28T15:24:24.274Z</time></trkpt><trkpt lat="43.4070148" lon="17.4385334"><ele>477.0</ele><time>2026-04-28T15:24:25.276Z</time></trkpt><trkpt lat="43.4068702" lon="17.4386069"><ele>470.0</ele><time>2026-04-28T15:24:26.275Z</time></trkpt><trkpt lat="43.4067248" lon="17.4386837"><ele>463.0</ele><time>2026-04-28T15:24:27.274Z</time></trkpt><trkpt lat="43.4065896" lon="17.4387688"><ele>459.33333333333337</ele><time>2026-04-28T15:24:28.274Z</time></trkpt><trkpt lat="43.4064622" lon="17.4388722"><ele>455.66666666666663</ele><time>2026-04-28T15:24:29.273Z</time></trkpt><trkpt lat="43.4063454" lon="17.4390174"><ele>452.0</ele><time>2026-04-28T15:24:30.274Z</time></trkpt><trkpt lat="43.4062449" lon="17.4391851"><ele>452.0</ele><time>2026-04-28T15:24:31.274Z</time></trkpt><trkpt lat="43.4061512" lon="17.4393611"><ele>452.0</ele><time>2026-04-28T15:24:32.274Z</time></trkpt><trkpt lat="43.4060475" lon="17.43952"><ele>452.0</ele><time>2026-04-28T15:24:33.274Z</time></trkpt><trkpt lat="43.4059361" lon="17.4396643"><ele>457.66666666666663</ele><time>2026-04-28T15:24:34.275Z</time></trkpt><trkpt lat="43.4058283" lon="17.4398033"><ele>463.33333333333337</ele><time>2026-04-28T15:24:35.273Z</time></trkpt><trkpt lat="43.4057204" lon="17.4399484"><ele>469.0</ele><time>2026-04-28T15:24:36.28Z</time></trkpt><trkpt lat="43.4056081" lon="17.4400888"><ele>469.0</ele><time>2026-04-28T15:24:37.279Z</time></trkpt><trkpt lat="43.4055103" lon="17.4402472"><ele>469.0</ele><time>2026-04-28T15:24:38.277Z</time></trkpt><trkpt lat="43.4054193" lon="17.4404195"><ele>469.0</ele><time>2026-04-28T15:24:39.286Z</time></trkpt><trkpt lat="43.4053428" lon="17.4406059"><ele>462.6666666666667</ele><time>2026-04-28T15:24:40.276Z</time></trkpt><trkpt lat="43.4052788" lon="17.4408014"><ele>456.33333333333337</ele><time>2026-04-28T15:24:41.274Z</time></trkpt><trkpt lat="43.4052261" lon="17.4409952"><ele>450.0</ele><time>2026-04-28T15:24:42.277Z</time></trkpt><trkpt lat="43.4051722" lon="17.4411882"><ele>452.75</ele><time>2026-04-28T15:24:43.273Z</time></trkpt><trkpt lat="43.4051102" lon="17.441376"><ele>455.5</ele><time>2026-04-28T15:24:44.275Z</time></trkpt><trkpt lat="43.4050416" lon="17.4415532"><ele>458.25</ele><time>2026-04-28T15:24:45.277Z</time></trkpt><trkpt lat="43.4049556" lon="17.4417168"><ele>461.0</ele><time>2026-04-28T15:24:46.276Z</time></trkpt><trkpt lat="43.4048605" lon="17.4418692"><ele>461.0</ele><time>2026-04-28T15:24:47.277Z</time></trkpt><trkpt lat="43.4047593" lon="17.4420182"><ele>461.0</ele><time>2026-04-28T15:24:48.276Z</time></trkpt><trkpt lat="43.4046518" lon="17.4421704"><ele>461.0</ele><time>2026-04-28T15:24:49.273Z</time></trkpt><trkpt lat="43.4045444" lon="17.4423301"><ele>454.66666666666663</ele><time>2026-04-28T15:24:50.275Z</time></trkpt><trkpt lat="43.4044362" lon="17.4425051"><ele>448.33333333333337</ele><time>2026-04-28T15:24:51.274Z</time></trkpt><trkpt lat="43.4043361" lon="17.4426788"><ele>442.0</ele><time>2026-04-28T15:24:52.275Z</time></trkpt><trkpt lat="43.4042376" lon="17.442858"><ele>448.0</ele><time>2026-04-28T15:24:53.274Z</time></trkpt><trkpt lat="43.4041417" lon="17.4430441"><ele>454.0</ele><time>2026-04-28T15:24:54.282Z</time></trkpt><trkpt lat="43.4040504" lon="17.443227"><ele>460.0</ele><time>2026-04-28T15:24:55.274Z</time></trkpt><trkpt lat="43.4039613" lon="17.4434136"><ele>460.0</ele><time>2026-04-28T15:24:56.275Z</time></trkpt><trkpt lat="43.4038738" lon="17.4436048"><ele>460.0</ele><time>2026-04-28T15:24:57.274Z</time></trkpt><trkpt lat="43.4037938" lon="17.4437938"><ele>460.0</ele><time>2026-04-28T15:24:58.274Z</time></trkpt><trkpt lat="43.4037223" lon="17.4439779"><ele>452.6666666666667</ele><time>2026-04-28T15:24:59.275Z</time></trkpt><trkpt lat="43.4036496" lon="17.4441666"><ele>445.33333333333337</ele><time>2026-04-28T15:25:00.275Z</time></trkpt><trkpt lat="43.4035755" lon="17.444364"><ele>438.0</ele><time>2026-04-28T15:25:01.274Z</time></trkpt><trkpt lat="43.4034942" lon="17.444558"><ele>441.33333333333337</ele><time>2026-04-28T15:25:02.278Z</time></trkpt><trkpt lat="43.4034121" lon="17.4447491"><ele>444.6666666666667</ele><time>2026-04-28T15:25:03.276Z</time></trkpt><trkpt lat="43.4033298" lon="17.4449345"><ele>448.0</ele><time>2026-04-28T15:25:04.274Z</time></trkpt><trkpt lat="43.4032453" lon="17.4451113"><ele>448.0</ele><time>2026-04-28T15:25:05.276Z</time></trkpt><trkpt lat="43.4031652" lon="17.4452822"><ele>448.0</ele><time>2026-04-28T15:25:06.276Z</time></trkpt><trkpt lat="43.4030872" lon="17.4454569"><ele>448.0</ele><time>2026-04-28T15:25:07.275Z</time></trkpt><trkpt lat="43.4030083" lon="17.4456422"><ele>440.33333333333337</ele><time>2026-04-28T15:25:08.276Z</time></trkpt><trkpt lat="43.4029323" lon="17.44584"><ele>432.66666666666663</ele><time>2026-04-28T15:25:09.275Z</time></trkpt><trkpt lat="43.4028559" lon="17.4460423"><ele>425.0</ele><time>2026-04-28T15:25:10.275Z</time></trkpt><trkpt lat="43.4027823" lon="17.4462431"><ele>429.0</ele><time>2026-04-28T15:25:11.275Z</time></trkpt><trkpt lat="43.4027099" lon="17.4464447"><ele>433.0</ele><time>2026-04-28T15:25:12.276Z</time></trkpt><trkpt lat="43.4026321" lon="17.4466444"><ele>437.0</ele><time>2026-04-28T15:25:13.277Z</time></trkpt><trkpt lat="43.4025467" lon="17.4468409"><ele>437.0</ele><time>2026-04-28T15:25:14.275Z</time></trkpt><trkpt lat="43.402452" lon="17.4470304"><ele>437.0</ele><time>2026-04-28T15:25:15.273Z</time></trkpt><trkpt lat="43.402348" lon="17.447222"><ele>437.0</ele><time>2026-04-28T15:25:16.274Z</time></trkpt><trkpt lat="43.402239" lon="17.4474101"><ele>433.3333333333333</ele><time>2026-04-28T15:25:17.275Z</time></trkpt><trkpt lat="43.4021264" lon="17.4475957"><ele>429.66666666666663</ele><time>2026-04-28T15:25:18.275Z</time></trkpt><trkpt lat="43.4020203" lon="17.4477788"><ele>426.0</ele><time>2026-04-28T15:25:19.273Z</time></trkpt><trkpt lat="43.4019238" lon="17.4479716"><ele>426.0</ele><time>2026-04-28T15:25:20.274Z</time></trkpt><trkpt lat="43.4018401" lon="17.4481819"><ele>426.0</ele><time>2026-04-28T15:25:21.274Z</time></trkpt><trkpt lat="43.4017663" lon="17.4483996"><ele>426.0</ele><time>2026-04-28T15:25:22.275Z</time></trkpt><trkpt lat="43.4017" lon="17.4486212"><ele>430.0</ele><time>2026-04-28T15:25:23.275Z</time></trkpt><trkpt lat="43.4016386" lon="17.448843"><ele>434.0</ele><time>2026-04-28T15:25:24.275Z</time></trkpt><trkpt lat="43.4015697" lon="17.4490628"><ele>438.0</ele><time>2026-04-28T15:25:25.275Z</time></trkpt><trkpt lat="43.4014893" lon="17.4492736"><ele>438.0</ele><time>2026-04-28T15:25:26.275Z</time></trkpt><trkpt lat="43.4013995" lon="17.4494711"><ele>438.0</ele><time>2026-04-28T15:25:27.276Z</time></trkpt><trkpt lat="43.401294" lon="17.4496408"><ele>438.0</ele><time>2026-04-28T15:25:28.272Z</time></trkpt><trkpt lat="43.4011823" lon="17.4498078"><ele>431.66666666666663</ele><time>2026-04-28T15:25:29.273Z</time></trkpt><trkpt lat="43.4010777" lon="17.4499888"><ele>425.3333333333333</ele><time>2026-04-28T15:25:30.274Z</time></trkpt><trkpt lat="43.4009881" lon="17.4501763"><ele>419.0</ele><time>2026-04-28T15:25:31.272Z</time></trkpt><trkpt lat="43.4009087" lon="17.4503768"><ele>422.3333333333333</ele><time>2026-04-28T15:25:32.273Z</time></trkpt><trkpt lat="43.400833" lon="17.4505749"><ele>425.66666666666663</ele><time>2026-04-28T15:25:33.277Z</time></trkpt><trkpt lat="43.4007648" lon="17.4507728"><ele>429.0</ele><time>2026-04-28T15:25:34.272Z</time></trkpt><trkpt lat="43.4006895" lon="17.4509607"><ele>429.0</ele><time>2026-04-28T15:25:35.275Z</time></trkpt><trkpt lat="43.4006013" lon="17.4511343"><ele>429.0</ele><time>2026-04-28T15:25:36.275Z</time></trkpt><trkpt lat="43.4005071" lon="17.4513125"><ele>429.0</ele><time>2026-04-28T15:25:37.273Z</time></trkpt><trkpt lat="43.4004067" lon="17.4514869"><ele>422.33333333333337</ele><time>2026-04-28T15:25:38.273Z</time></trkpt><trkpt lat="43.400305" lon="17.4516479"><ele>415.6666666666667</ele><time>2026-04-28T15:25:39.273Z</time></trkpt><trkpt lat="43.4002031" lon="17.4518083"><ele>409.0</ele><time>2026-04-28T15:25:40.273Z</time></trkpt><trkpt lat="43.4001103" lon="17.4519859"><ele>413.6666666666667</ele><time>2026-04-28T15:25:41.275Z</time></trkpt><trkpt lat="43.4000383" lon="17.4521786"><ele>418.33333333333337</ele><time>2026-04-28T15:25:42.273Z</time></trkpt><trkpt lat="43.3999825" lon="17.4523815"><ele>423.0</ele><time>2026-04-28T15:25:43.274Z</time></trkpt><trkpt lat="43.3999366" lon="17.4525909"><ele>423.0</ele><time>2026-04-28T15:25:44.275Z</time></trkpt><trkpt lat="43.399895" lon="17.4527956"><ele>423.0</ele><time>2026-04-28T15:25:45.275Z</time></trkpt><trkpt lat="43.399841" lon="17.4529961"><ele>423.0</ele><time>2026-04-28T15:25:46.277Z</time></trkpt><trkpt lat="43.3997838" lon="17.4532009"><ele>425.66666666666663</ele><time>2026-04-28T15:25:47.275Z</time></trkpt><trkpt lat="43.3997246" lon="17.4534036"><ele>428.3333333333333</ele><time>2026-04-28T15:25:48.275Z</time></trkpt><trkpt lat="43.3996626" lon="17.4536124"><ele>431.0</ele><time>2026-04-28T15:25:49.273Z</time></trkpt><trkpt lat="43.3996049" lon="17.4538194"><ele>420.66666666666663</ele><time>2026-04-28T15:25:50.272Z</time></trkpt><trkpt lat="43.3995474" lon="17.4540204"><ele>410.33333333333337</ele><time>2026-04-28T15:25:51.274Z</time></trkpt><trkpt lat="43.3994896" lon="17.4542185"><ele>400.0</ele><time>2026-04-28T15:25:52.274Z</time></trkpt><trkpt lat="43.39944" lon="17.454416"><ele>400.0</ele><time>2026-04-28T15:25:53.273Z</time></trkpt><trkpt lat="43.3993961" lon="17.454616"><ele>400.0</ele><time>2026-04-28T15:25:54.275Z</time></trkpt><trkpt lat="43.399363" lon="17.4548311"><ele>400.0</ele><time>2026-04-28T15:25:55.272Z</time></trkpt><trkpt lat="43.3993316" lon="17.45504"><ele>402.0</ele><time>2026-04-28T15:25:56.274Z</time></trkpt><trkpt lat="43.399297" lon="17.4552458"><ele>404.0</ele><time>2026-04-28T15:25:57.273Z</time></trkpt><trkpt lat="43.3992569" lon="17.4554534"><ele>406.0</ele><time>2026-04-28T15:25:58.274Z</time></trkpt><trkpt lat="43.3991976" lon="17.4556488"><ele>409.0</ele><time>2026-04-28T15:25:59.274Z</time></trkpt><trkpt lat="43.3991122" lon="17.455834"><ele>412.0</ele><time>2026-04-28T15:26:00.272Z</time></trkpt><trkpt lat="43.3990169" lon="17.4560136"><ele>415.0</ele><time>2026-04-28T15:26:01.271Z</time></trkpt><trkpt lat="43.3989138" lon="17.4561985"><ele>406.6666666666667</ele><time>2026-04-28T15:26:02.273Z</time></trkpt><trkpt lat="43.398811" lon="17.4563794"><ele>398.33333333333337</ele><time>2026-04-28T15:26:03.276Z</time></trkpt><trkpt lat="43.3987125" lon="17.456558"><ele>390.0</ele><time>2026-04-28T15:26:04.274Z</time></trkpt><trkpt lat="43.3986235" lon="17.4567348"><ele>390.0</ele><time>2026-04-28T15:26:05.276Z</time></trkpt><trkpt lat="43.3985403" lon="17.4569123"><ele>390.0</ele><time>2026-04-28T15:26:06.273Z</time></trkpt><trkpt lat="43.3984659" lon="17.4571068"><ele>390.0</ele><time>2026-04-28T15:26:07.273Z</time></trkpt><trkpt lat="43.3983981" lon="17.4573149"><ele>394.33333333333337</ele><time>2026-04-28T15:26:08.274Z</time></trkpt><trkpt lat="43.3983274" lon="17.4575225"><ele>398.6666666666667</ele><time>2026-04-28T15:26:09.274Z</time></trkpt><trkpt lat="43.398269" lon="17.4577434"><ele>403.0</ele><time>2026-04-28T15:26:10.276Z</time></trkpt><trkpt lat="43.3982107" lon="17.4579701"><ele>406.33333333333337</ele><time>2026-04-28T15:26:11.274Z</time></trkpt><trkpt lat="43.3981539" lon="17.4581987"><ele>409.66666666666663</ele><time>2026-04-28T15:26:12.274Z</time></trkpt><trkpt lat="43.3980929" lon="17.4584291"><ele>413.0</ele><time>2026-04-28T15:26:13.274Z</time></trkpt><trkpt lat="43.398033" lon="17.4586633"><ele>402.0</ele><time>2026-04-28T15:26:14.274Z</time></trkpt><trkpt lat="43.3979761" lon="17.4589091"><ele>391.0</ele><time>2026-04-28T15:26:15.274Z</time></trkpt><trkpt lat="43.3979257" lon="17.459158"><ele>380.0</ele><time>2026-04-28T15:26:16.274Z</time></trkpt><trkpt lat="43.3978785" lon="17.4594035"><ele>382.6666666666667</ele><time>2026-04-28T15:26:17.275Z</time></trkpt><trkpt lat="43.397824" lon="17.4596372"><ele>385.33333333333337</ele><time>2026-04-28T15:26:18.274Z</time></trkpt><trkpt lat="43.3977856" lon="17.4598602"><ele>388.0</ele><time>2026-04-28T15:26:19.273Z</time></trkpt><trkpt lat="43.3977392" lon="17.4600884"><ele>388.0</ele><time>2026-04-28T15:26:20.282Z</time></trkpt><trkpt lat="43.3976876" lon="17.4603169"><ele>388.0</ele><time>2026-04-28T15:26:21.272Z</time></trkpt><trkpt lat="43.3976393" lon="17.4605509"><ele>388.0</ele><time>2026-04-28T15:26:22.273Z</time></trkpt><trkpt lat="43.3975817" lon="17.4607873"><ele>389.33333333333337</ele><time>2026-04-28T15:26:23.274Z</time></trkpt><trkpt lat="43.3975248" lon="17.4610266"><ele>390.66666666666663</ele><time>2026-04-28T15:26:24.274Z</time></trkpt><trkpt lat="43.3974634" lon="17.4612732"><ele>392.0</ele><time>2026-04-28T15:26:25.274Z</time></trkpt><trkpt lat="43.3973961" lon="17.4615194"><ele>395.3333333333333</ele><time>2026-04-28T15:26:26.272Z</time></trkpt><trkpt lat="43.3973194" lon="17.461764"><ele>398.66666666666663</ele><time>2026-04-28T15:26:27.274Z</time></trkpt><trkpt lat="43.3972466" lon="17.4620161"><ele>402.0</ele><time>2026-04-28T15:26:28.275Z</time></trkpt><trkpt lat="43.3971717" lon="17.4622623"><ele>393.3333333333333</ele><time>2026-04-28T15:26:29.274Z</time></trkpt><trkpt lat="43.3970885" lon="17.4625076"><ele>384.66666666666663</ele><time>2026-04-28T15:26:30.272Z</time></trkpt><trkpt lat="43.3970079" lon="17.4627709"><ele>376.0</ele><time>2026-04-28T15:26:31.271Z</time></trkpt><trkpt lat="43.3969253" lon="17.46305"><ele>376.0</ele><time>2026-04-28T15:26:32.272Z</time></trkpt><trkpt lat="43.3968319" lon="17.4633261"><ele>376.0</ele><time>2026-04-28T15:26:33.274Z</time></trkpt><trkpt lat="43.3967444" lon="17.463606"><ele>376.0</ele><time>2026-04-28T15:26:34.274Z</time></trkpt><trkpt lat="43.3966567" lon="17.4638912"><ele>382.0</ele><time>2026-04-28T15:26:35.272Z</time></trkpt><trkpt lat="43.3965626" lon="17.4641756"><ele>388.0</ele><time>2026-04-28T15:26:36.274Z</time></trkpt><trkpt lat="43.3964632" lon="17.4644536"><ele>392.5</ele><time>2026-04-28T15:26:37.273Z</time></trkpt><trkpt lat="43.3963668" lon="17.464745"><ele>397.0</ele><time>2026-04-28T15:26:38.278Z</time></trkpt><trkpt lat="43.3962724" lon="17.4650375"><ele>383.0</ele><time>2026-04-28T15:26:39.274Z</time></trkpt><trkpt lat="43.3961785" lon="17.465325"><ele>369.0</ele><time>2026-04-28T15:26:40.273Z</time></trkpt><trkpt lat="43.3960834" lon="17.4656099"><ele>369.0</ele><time>2026-04-28T15:26:41.277Z</time></trkpt><trkpt lat="43.395992" lon="17.4658949"><ele>369.0</ele><time>2026-04-28T15:26:42.273Z</time></trkpt><trkpt lat="43.3959022" lon="17.4661814"><ele>371.0</ele><time>2026-04-28T15:26:43.273Z</time></trkpt><trkpt lat="43.3958105" lon="17.4664696"><ele>373.0</ele><time>2026-04-28T15:26:44.279Z</time></trkpt><trkpt lat="43.3957138" lon="17.4667539"><ele>373.0</ele><time>2026-04-28T15:26:45.274Z</time></trkpt><trkpt lat="43.3956253" lon="17.4670438"><ele>373.0</ele><time>2026-04-28T15:26:46.275Z</time></trkpt><trkpt lat="43.3955327" lon="17.467328"><ele>367.66666666666663</ele><time>2026-04-28T15:26:47.273Z</time></trkpt><trkpt lat="43.3954403" lon="17.4676075"><ele>362.3333333333333</ele><time>2026-04-28T15:26:48.272Z</time></trkpt><trkpt lat="43.3953548" lon="17.4678778"><ele>357.0</ele><time>2026-04-28T15:26:49.272Z</time></trkpt><trkpt lat="43.3952717" lon="17.4681349"><ele>357.0</ele><time>2026-04-28T15:26:50.274Z</time></trkpt><trkpt lat="43.3951954" lon="17.4683938"><ele>357.0</ele><time>2026-04-28T15:26:51.272Z</time></trkpt><trkpt lat="43.3951257" lon="17.4686448"><ele>357.0</ele><time>2026-04-28T15:26:52.273Z</time></trkpt><trkpt lat="43.3950698" lon="17.4688987"><ele>358.6666666666667</ele><time>2026-04-28T15:26:53.274Z</time></trkpt><trkpt lat="43.3950249" lon="17.4691492"><ele>360.33333333333337</ele><time>2026-04-28T15:26:54.273Z</time></trkpt><trkpt lat="43.3949761" lon="17.4693934"><ele>362.0</ele><time>2026-04-28T15:26:55.276Z</time></trkpt><trkpt lat="43.3949131" lon="17.4696206"><ele>364.33333333333337</ele><time>2026-04-28T15:26:56.273Z</time></trkpt><trkpt lat="43.3948292" lon="17.4698269"><ele>366.6666666666667</ele><time>2026-04-28T15:26:57.274Z</time></trkpt><trkpt lat="43.3947279" lon="17.470012"><ele>369.0</ele><time>2026-04-28T15:26:58.272Z</time></trkpt><trkpt lat="43.3945968" lon="17.4701698"><ele>363.6666666666667</ele><time>2026-04-28T15:26:59.274Z</time></trkpt><trkpt lat="43.3944507" lon="17.4703001"><ele>358.33333333333337</ele><time>2026-04-28T15:27:00.272Z</time></trkpt><trkpt lat="43.3943099" lon="17.4704249"><ele>353.0</ele><time>2026-04-28T15:27:01.274Z</time></trkpt><trkpt lat="43.3941759" lon="17.4705737"><ele>353.0</ele><time>2026-04-28T15:27:02.273Z</time></trkpt><trkpt lat="43.394056" lon="17.4707618"><ele>353.0</ele><time>2026-04-28T15:27:03.271Z</time></trkpt><trkpt lat="43.3939441" lon="17.4709916"><ele>353.0</ele><time>2026-04-28T15:27:04.275Z</time></trkpt><trkpt lat="43.3938398" lon="17.471247"><ele>348.0</ele><time>2026-04-28T15:27:05.284Z</time></trkpt><trkpt lat="43.3937265" lon="17.4715005"><ele>343.0</ele><time>2026-04-28T15:27:06.275Z</time></trkpt><trkpt lat="43.3936101" lon="17.4717688"><ele>338.0</ele><time>2026-04-28T15:27:07.274Z</time></trkpt><trkpt lat="43.3934877" lon="17.4720347"><ele>342.5</ele><time>2026-04-28T15:27:08.276Z</time></trkpt><trkpt lat="43.3933655" lon="17.4723061"><ele>347.0</ele><time>2026-04-28T15:27:09.274Z</time></trkpt><trkpt lat="43.3932465" lon="17.4725812"><ele>347.0</ele><time>2026-04-28T15:27:10.277Z</time></trkpt><trkpt lat="43.3931373" lon="17.4728371"><ele>347.0</ele><time>2026-04-28T15:27:11.276Z</time></trkpt><trkpt lat="43.3930407" lon="17.473067"><ele>347.0</ele><time>2026-04-28T15:27:12.276Z</time></trkpt><trkpt lat="43.3929477" lon="17.4732875"><ele>342.33333333333337</ele><time>2026-04-28T15:27:13.281Z</time></trkpt><trkpt lat="43.3928614" lon="17.4734989"><ele>337.6666666666667</ele><time>2026-04-28T15:27:14.275Z</time></trkpt><trkpt lat="43.3927826" lon="17.473703"><ele>333.0</ele><time>2026-04-28T15:27:15.275Z</time></trkpt><trkpt lat="43.3927076" lon="17.4738986"><ele>333.0</ele><time>2026-04-28T15:27:16.277Z</time></trkpt><trkpt lat="43.3926292" lon="17.4740885"><ele>333.0</ele><time>2026-04-28T15:27:17.277Z</time></trkpt><trkpt lat="43.392556" lon="17.4742892"><ele>333.0</ele><time>2026-04-28T15:27:18.277Z</time></trkpt><trkpt lat="43.3924789" lon="17.4744852"><ele>334.6666666666667</ele><time>2026-04-28T15:27:19.274Z</time></trkpt><trkpt lat="43.3923988" lon="17.4746753"><ele>336.33333333333337</ele><time>2026-04-28T15:27:20.274Z</time></trkpt><trkpt lat="43.3923214" lon="17.4748714"><ele>338.0</ele><time>2026-04-28T15:27:21.274Z</time></trkpt><trkpt lat="43.3922435" lon="17.4750723"><ele>334.0</ele><time>2026-04-28T15:27:22.272Z</time></trkpt><trkpt lat="43.3921673" lon="17.4752702"><ele>330.0</ele><time>2026-04-28T15:27:23.283Z</time></trkpt><trkpt lat="43.3920913" lon="17.4754684"><ele>326.0</ele><time>2026-04-28T15:27:24.276Z</time></trkpt><trkpt lat="43.392014" lon="17.475671"><ele>326.0</ele><time>2026-04-28T15:27:25.274Z</time></trkpt><trkpt lat="43.3919297" lon="17.47587"><ele>326.0</ele><time>2026-04-28T15:27:26.273Z</time></trkpt><trkpt lat="43.391852" lon="17.4760681"><ele>326.0</ele><time>2026-04-28T15:27:27.277Z</time></trkpt><trkpt lat="43.3917798" lon="17.4762594"><ele>327.25</ele><time>2026-04-28T15:27:28.275Z</time></trkpt><trkpt lat="43.3917077" lon="17.4764427"><ele>328.5</ele><time>2026-04-28T15:27:29.276Z</time></trkpt><trkpt lat="43.3916332" lon="17.4766202"><ele>329.75</ele><time>2026-04-28T15:27:30.276Z</time></trkpt><trkpt lat="43.3915603" lon="17.4767948"><ele>331.0</ele><time>2026-04-28T15:27:31.273Z</time></trkpt><trkpt lat="43.3914919" lon="17.4769715"><ele>332.0</ele><time>2026-04-28T15:27:32.274Z</time></trkpt><trkpt lat="43.3914206" lon="17.4771403"><ele>333.0</ele><time>2026-04-28T15:27:33.275Z</time></trkpt><trkpt lat="43.3913554" lon="17.477312"><ele>334.0</ele><time>2026-04-28T15:27:34.282Z</time></trkpt><trkpt lat="43.3912891" lon="17.4774847"><ele>335.0</ele><time>2026-04-28T15:27:35.274Z</time></trkpt><trkpt lat="43.3912235" lon="17.4776551"><ele>330.75</ele><time>2026-04-28T15:27:36.273Z</time></trkpt><trkpt lat="43.3911597" lon="17.477828"><ele>326.5</ele><time>2026-04-28T15:27:37.277Z</time></trkpt><trkpt lat="43.3911052" lon="17.4780006"><ele>322.25</ele><time>2026-04-28T15:27:38.273Z</time></trkpt><trkpt lat="43.3910522" lon="17.4781749"><ele>318.0</ele><time>2026-04-28T15:27:39.272Z</time></trkpt><trkpt lat="43.3910064" lon="17.4783494"><ele>318.0</ele><time>2026-04-28T15:27:40.272Z</time></trkpt><trkpt lat="43.3909707" lon="17.4785391"><ele>318.0</ele><time>2026-04-28T15:27:41.272Z</time></trkpt><trkpt lat="43.390949" lon="17.4787355"><ele>318.0</ele><time>2026-04-28T15:27:42.272Z</time></trkpt><trkpt lat="43.3909368" lon="17.4789182"><ele>318.0</ele><time>2026-04-28T15:27:43.273Z</time></trkpt><trkpt lat="43.3909342" lon="17.4791079"><ele>317.75</ele><time>2026-04-28T15:27:44.273Z</time></trkpt><trkpt lat="43.3909328" lon="17.4792829"><ele>317.5</ele><time>2026-04-28T15:27:45.275Z</time></trkpt><trkpt lat="43.3909485" lon="17.4794588"><ele>317.25</ele><time>2026-04-28T15:27:46.275Z</time></trkpt><trkpt lat="43.3909862" lon="17.4796333"><ele>317.0</ele><time>2026-04-28T15:27:47.273Z</time></trkpt><trkpt lat="43.3910423" lon="17.4798076"><ele>317.0</ele><time>2026-04-28T15:27:48.272Z</time></trkpt><trkpt lat="43.3911171" lon="17.4799664"><ele>317.0</ele><time>2026-04-28T15:27:49.274Z</time></trkpt><trkpt lat="43.3912059" lon="17.4801153"><ele>317.0</ele><time>2026-04-28T15:27:50.272Z</time></trkpt><trkpt lat="43.3913043" lon="17.4802512"><ele>317.0</ele><time>2026-04-28T15:27:51.273Z</time></trkpt><trkpt lat="43.3914104" lon="17.4803809"><ele>318.25</ele><time>2026-04-28T15:27:52.275Z</time></trkpt><trkpt lat="43.3915148" lon="17.4805185"><ele>319.5</ele><time>2026-04-28T15:27:53.272Z</time></trkpt><trkpt lat="43.3916027" lon="17.4806627"><ele>320.75</ele><time>2026-04-28T15:27:54.274Z</time></trkpt><trkpt lat="43.39167" lon="17.48082"><ele>322.0</ele><time>2026-04-28T15:27:55.273Z</time></trkpt><trkpt lat="43.3917099" lon="17.4809879"><ele>322.0</ele><time>2026-04-28T15:27:56.273Z</time></trkpt><trkpt lat="43.3917402" lon="17.4811602"><ele>322.0</ele><time>2026-04-28T15:27:57.276Z</time></trkpt><trkpt lat="43.3917341" lon="17.4813669"><ele>322.0</ele><time>2026-04-28T15:27:58.273Z</time></trkpt><trkpt lat="43.3917367" lon="17.4815653"><ele>322.0</ele><time>2026-04-28T15:27:59.274Z</time></trkpt><trkpt lat="43.3917367" lon="17.4817687"><ele>322.0</ele><time>2026-04-28T15:28:00.273Z</time></trkpt><trkpt lat="43.391726" lon="17.4819716"><ele>322.0</ele><time>2026-04-28T15:28:01.274Z</time></trkpt><trkpt lat="43.3916912" lon="17.482171"><ele>322.0</ele><time>2026-04-28T15:28:02.273Z</time></trkpt><trkpt lat="43.391643" lon="17.4823634"><ele>322.0</ele><time>2026-04-28T15:28:03.274Z</time></trkpt><trkpt lat="43.3915778" lon="17.4825367"><ele>322.5</ele><time>2026-04-28T15:28:04.273Z</time></trkpt><trkpt lat="43.3915174" lon="17.482693"><ele>323.0</ele><time>2026-04-28T15:28:05.272Z</time></trkpt><trkpt lat="43.3914614" lon="17.4828377"><ele>323.5</ele><time>2026-04-28T15:28:06.271Z</time></trkpt><trkpt lat="43.3914078" lon="17.4829727"><ele>324.0</ele><time>2026-04-28T15:28:07.271Z</time></trkpt><trkpt lat="43.3913562" lon="17.4830966"><ele>322.59999999999997</ele><time>2026-04-28T15:28:08.274Z</time></trkpt><trkpt lat="43.3913023" lon="17.4832083"><ele>321.2</ele><time>2026-04-28T15:28:09.278Z</time></trkpt><trkpt lat="43.3912471" lon="17.4833176"><ele>319.79999999999995</ele><time>2026-04-28T15:28:10.277Z</time></trkpt><trkpt lat="43.3911895" lon="17.4834172"><ele>318.4</ele><time>2026-04-28T15:28:11.275Z</time></trkpt><trkpt lat="43.3911149" lon="17.4835006"><ele>317.0</ele><time>2026-04-28T15:28:12.285Z</time></trkpt><trkpt lat="43.3910332" lon="17.4835789"><ele>317.0</ele><time>2026-04-28T15:28:13.273Z</time></trkpt><trkpt lat="43.3909379" lon="17.483642"><ele>317.0</ele><time>2026-04-28T15:28:14.273Z</time></trkpt><trkpt lat="43.3908388" lon="17.4836843"><ele>317.0</ele><time>2026-04-28T15:28:15.272Z</time></trkpt><trkpt lat="43.3907362" lon="17.4837193"><ele>317.0</ele><time>2026-04-28T15:28:16.275Z</time></trkpt><trkpt lat="43.3906306" lon="17.4837435"><ele>317.0</ele><time>2026-04-28T15:28:17.274Z</time></trkpt><trkpt lat="43.3905219" lon="17.4837771"><ele>317.25</ele><time>2026-04-28T15:28:18.275Z</time></trkpt><trkpt lat="43.3904185" lon="17.4838255"><ele>317.5</ele><time>2026-04-28T15:28:19.273Z</time></trkpt><trkpt lat="43.3903202" lon="17.4838928"><ele>317.75</ele><time>2026-04-28T15:28:20.274Z</time></trkpt><trkpt lat="43.3902233" lon="17.4839923"><ele>318.0</ele><time>2026-04-28T15:28:21.272Z</time></trkpt><trkpt lat="43.3901344" lon="17.4841035"><ele>318.0</ele><time>2026-04-28T15:28:22.278Z</time></trkpt><trkpt lat="43.3900548" lon="17.4842238"><ele>318.0</ele><time>2026-04-28T15:28:23.276Z</time></trkpt><trkpt lat="43.3899884" lon="17.4843389"><ele>318.0</ele><time>2026-04-28T15:28:24.274Z</time></trkpt><trkpt lat="43.3899288" lon="17.4844507"><ele>318.0</ele><time>2026-04-28T15:28:25.275Z</time></trkpt><trkpt lat="43.3898633" lon="17.4845706"><ele>318.0</ele><time>2026-04-28T15:28:26.276Z</time></trkpt><trkpt lat="43.3898008" lon="17.4846936"><ele>318.5</ele><time>2026-04-28T15:28:27.276Z</time></trkpt><trkpt lat="43.3897361" lon="17.484819"><ele>319.0</ele><time>2026-04-28T15:28:28.274Z</time></trkpt><trkpt lat="43.3896716" lon="17.4849518"><ele>319.5</ele><time>2026-04-28T15:28:29.274Z</time></trkpt><trkpt lat="43.3896046" lon="17.4850905"><ele>320.0</ele><time>2026-04-28T15:28:30.273Z</time></trkpt><trkpt lat="43.3895386" lon="17.4852324"><ele>320.0</ele><time>2026-04-28T15:28:31.276Z</time></trkpt><trkpt lat="43.3894782" lon="17.4853832"><ele>320.0</ele><time>2026-04-28T15:28:32.273Z</time></trkpt><trkpt lat="43.3894231" lon="17.4855377"><ele>320.0</ele><time>2026-04-28T15:28:33.274Z</time></trkpt><trkpt lat="43.3893741" lon="17.4856987"><ele>320.0</ele><time>2026-04-28T15:28:34.273Z</time></trkpt><trkpt lat="43.3893224" lon="17.4858628"><ele>319.75</ele><time>2026-04-28T15:28:35.276Z</time></trkpt><trkpt lat="43.3892694" lon="17.4860319"><ele>319.5</ele><time>2026-04-28T15:28:36.273Z</time></trkpt><trkpt lat="43.3892121" lon="17.4862039"><ele>319.25</ele><time>2026-04-28T15:28:37.273Z</time></trkpt><trkpt lat="43.3891468" lon="17.4863654"><ele>319.0</ele><time>2026-04-28T15:28:38.274Z</time></trkpt><trkpt lat="43.3890776" lon="17.4865222"><ele>318.75</ele><time>2026-04-28T15:28:39.274Z</time></trkpt><trkpt lat="43.3889987" lon="17.4866637"><ele>318.5</ele><time>2026-04-28T15:28:40.275Z</time></trkpt><trkpt lat="43.3889197" lon="17.4868035"><ele>318.25</ele><time>2026-04-28T15:28:41.272Z</time></trkpt><trkpt lat="43.3888321" lon="17.4869426"><ele>318.0</ele><time>2026-04-28T15:28:42.273Z</time></trkpt><trkpt lat="43.3887426" lon="17.4870787"><ele>317.25</ele><time>2026-04-28T15:28:43.275Z</time></trkpt><trkpt lat="43.3886513" lon="17.4872133"><ele>316.5</ele><time>2026-04-28T15:28:44.274Z</time></trkpt><trkpt lat="43.388564" lon="17.4873469"><ele>315.75</ele><time>2026-04-28T15:28:45.271Z</time></trkpt><trkpt lat="43.3884761" lon="17.4874784"><ele>315.0</ele><time>2026-04-28T15:28:46.271Z</time></trkpt><trkpt lat="43.3883937" lon="17.4876111"><ele>315.0</ele><time>2026-04-28T15:28:47.272Z</time></trkpt><trkpt lat="43.3883142" lon="17.4877526"><ele>315.0</ele><time>2026-04-28T15:28:48.273Z</time></trkpt><trkpt lat="43.388239" lon="17.4879022"><ele>315.0</ele><time>2026-04-28T15:28:49.273Z</time></trkpt><trkpt lat="43.3881651" lon="17.4880637"><ele>315.0</ele><time>2026-04-28T15:28:50.275Z</time></trkpt><trkpt lat="43.3880956" lon="17.4882273"><ele>315.25</ele><time>2026-04-28T15:28:51.275Z</time></trkpt><trkpt lat="43.3880231" lon="17.4883936"><ele>315.5</ele><time>2026-04-28T15:28:52.279Z</time></trkpt><trkpt lat="43.3879527" lon="17.4885656"><ele>315.75</ele><time>2026-04-28T15:28:53.275Z</time></trkpt><trkpt lat="43.3878809" lon="17.4887337"><ele>316.0</ele><time>2026-04-28T15:28:54.275Z</time></trkpt><trkpt lat="43.3878115" lon="17.4889068"><ele>315.5</ele><time>2026-04-28T15:28:55.273Z</time></trkpt><trkpt lat="43.3877363" lon="17.4890797"><ele>315.0</ele><time>2026-04-28T15:28:56.275Z</time></trkpt><trkpt lat="43.3876663" lon="17.4892551"><ele>314.5</ele><time>2026-04-28T15:28:57.276Z</time></trkpt><trkpt lat="43.3875945" lon="17.4894369"><ele>314.0</ele><time>2026-04-28T15:28:58.274Z</time></trkpt><trkpt lat="43.3875227" lon="17.489628"><ele>314.0</ele><time>2026-04-28T15:28:59.274Z</time></trkpt><trkpt lat="43.3874551" lon="17.489837"><ele>314.0</ele><time>2026-04-28T15:29:00.276Z</time></trkpt><trkpt lat="43.3873961" lon="17.4900553"><ele>314.0</ele><time>2026-04-28T15:29:01.275Z</time></trkpt><trkpt lat="43.3873449" lon="17.4902835"><ele>314.6666666666667</ele><time>2026-04-28T15:29:02.275Z</time></trkpt><trkpt lat="43.3873015" lon="17.4905204"><ele>315.3333333333333</ele><time>2026-04-28T15:29:03.275Z</time></trkpt><trkpt lat="43.3872699" lon="17.4907568"><ele>316.0</ele><time>2026-04-28T15:29:04.273Z</time></trkpt><trkpt lat="43.3872394" lon="17.4910044"><ele>316.0</ele><time>2026-04-28T15:29:05.274Z</time></trkpt><trkpt lat="43.3872176" lon="17.4912605"><ele>316.0</ele><time>2026-04-28T15:29:06.285Z</time></trkpt><trkpt lat="43.3871862" lon="17.4915127"><ele>316.0</ele><time>2026-04-28T15:29:07.277Z</time></trkpt><trkpt lat="43.3871505" lon="17.4917577"><ele>312.66666666666663</ele><time>2026-04-28T15:29:08.272Z</time></trkpt><trkpt lat="43.3871102" lon="17.4919867"><ele>309.3333333333333</ele><time>2026-04-28T15:29:09.274Z</time></trkpt><trkpt lat="43.387069" lon="17.4922067"><ele>306.0</ele><time>2026-04-28T15:29:10.274Z</time></trkpt><trkpt lat="43.3870199" lon="17.4924107"><ele>306.0</ele><time>2026-04-28T15:29:11.279Z</time></trkpt><trkpt lat="43.3869651" lon="17.4926087"><ele>306.0</ele><time>2026-04-28T15:29:12.276Z</time></trkpt><trkpt lat="43.3869097" lon="17.4928046"><ele>306.0</ele><time>2026-04-28T15:29:13.274Z</time></trkpt><trkpt lat="43.3868481" lon="17.4929995"><ele>307.3333333333333</ele><time>2026-04-28T15:29:14.275Z</time></trkpt><trkpt lat="43.3867884" lon="17.4931913"><ele>308.66666666666663</ele><time>2026-04-28T15:29:15.274Z</time></trkpt><trkpt lat="43.3867229" lon="17.493385"><ele>310.0</ele><time>2026-04-28T15:29:16.274Z</time></trkpt><trkpt lat="43.3866599" lon="17.4935779"><ele>311.0</ele><time>2026-04-28T15:29:17.275Z</time></trkpt><trkpt lat="43.3866022" lon="17.4937755"><ele>312.0</ele><time>2026-04-28T15:29:18.275Z</time></trkpt><trkpt lat="43.3865522" lon="17.4939776"><ele>313.0</ele><time>2026-04-28T15:29:19.282Z</time></trkpt><trkpt lat="43.3865048" lon="17.4941888"><ele>313.0</ele><time>2026-04-28T15:29:20.273Z</time></trkpt><trkpt lat="43.3864539" lon="17.494396"><ele>313.0</ele><time>2026-04-28T15:29:21.273Z</time></trkpt><trkpt lat="43.3864092" lon="17.4946183"><ele>313.0</ele><time>2026-04-28T15:29:22.283Z</time></trkpt><trkpt lat="43.3863692" lon="17.4948443"><ele>311.0</ele><time>2026-04-28T15:29:23.272Z</time></trkpt><trkpt lat="43.386321" lon="17.4950743"><ele>309.0</ele><time>2026-04-28T15:29:24.273Z</time></trkpt><trkpt lat="43.386273" lon="17.4953007"><ele>307.0</ele><time>2026-04-28T15:29:25.274Z</time></trkpt><trkpt lat="43.3862252" lon="17.4955353"><ele>307.0</ele><time>2026-04-28T15:29:26.281Z</time></trkpt><trkpt lat="43.3861798" lon="17.4957749"><ele>307.0</ele><time>2026-04-28T15:29:27.275Z</time></trkpt><trkpt lat="43.3861308" lon="17.4960116"><ele>307.0</ele><time>2026-04-28T15:29:28.274Z</time></trkpt><trkpt lat="43.3860845" lon="17.4962442"><ele>307.66666666666663</ele><time>2026-04-28T15:29:29.275Z</time></trkpt><trkpt lat="43.3860435" lon="17.4964878"><ele>308.3333333333333</ele><time>2026-04-28T15:29:30.275Z</time></trkpt><trkpt lat="43.3860013" lon="17.496738"><ele>309.0</ele><time>2026-04-28T15:29:31.275Z</time></trkpt><trkpt lat="43.3859583" lon="17.4969805"><ele>309.3333333333333</ele><time>2026-04-28T15:29:32.278Z</time></trkpt><trkpt lat="43.3859155" lon="17.4972234"><ele>309.66666666666663</ele><time>2026-04-28T15:29:33.273Z</time></trkpt><trkpt lat="43.385879" lon="17.4974686"><ele>310.0</ele><time>2026-04-28T15:29:34.274Z</time></trkpt><trkpt lat="43.3858386" lon="17.4977121"><ele>311.0</ele><time>2026-04-28T15:29:35.276Z</time></trkpt><trkpt lat="43.3858013" lon="17.4979658"><ele>312.0</ele><time>2026-04-28T15:29:36.274Z</time></trkpt><trkpt lat="43.3857598" lon="17.498212"><ele>313.0</ele><time>2026-04-28T15:29:37.273Z</time></trkpt><trkpt lat="43.3857198" lon="17.4984596"><ele>313.0</ele><time>2026-04-28T15:29:38.274Z</time></trkpt><trkpt lat="43.385678" lon="17.4987078"><ele>313.0</ele><time>2026-04-28T15:29:39.275Z</time></trkpt><trkpt lat="43.3856394" lon="17.498956"><ele>313.0</ele><time>2026-04-28T15:29:40.275Z</time></trkpt><trkpt lat="43.3855954" lon="17.499199"><ele>313.66666666666663</ele><time>2026-04-28T15:29:41.274Z</time></trkpt><trkpt lat="43.3855594" lon="17.4994552"><ele>314.3333333333333</ele><time>2026-04-28T15:29:42.273Z</time></trkpt><trkpt lat="43.3855172" lon="17.4997007"><ele>315.0</ele><time>2026-04-28T15:29:43.27Z</time></trkpt><trkpt lat="43.3854774" lon="17.4999564"><ele>311.6666666666667</ele><time>2026-04-28T15:29:44.27Z</time></trkpt><trkpt lat="43.3854362" lon="17.5002174"><ele>308.33333333333337</ele><time>2026-04-28T15:29:45.271Z</time></trkpt><trkpt lat="43.385398" lon="17.5004802"><ele>305.0</ele><time>2026-04-28T15:29:46.273Z</time></trkpt><trkpt lat="43.385354" lon="17.5007409"><ele>305.0</ele><time>2026-04-28T15:29:47.273Z</time></trkpt><trkpt lat="43.38531" lon="17.5010054"><ele>305.0</ele><time>2026-04-28T15:29:48.277Z</time></trkpt><trkpt lat="43.3852631" lon="17.5012731"><ele>305.0</ele><time>2026-04-28T15:29:49.274Z</time></trkpt><trkpt lat="43.3852187" lon="17.5015362"><ele>305.33333333333337</ele><time>2026-04-28T15:29:50.275Z</time></trkpt><trkpt lat="43.3851736" lon="17.5018078"><ele>305.6666666666667</ele><time>2026-04-28T15:29:51.283Z</time></trkpt><trkpt lat="43.3851192" lon="17.5020704"><ele>306.0</ele><time>2026-04-28T15:29:52.275Z</time></trkpt><trkpt lat="43.3850645" lon="17.5023368"><ele>307.0</ele><time>2026-04-28T15:29:53.274Z</time></trkpt><trkpt lat="43.3850061" lon="17.5026089"><ele>308.0</ele><time>2026-04-28T15:29:54.273Z</time></trkpt><trkpt lat="43.384943" lon="17.5028803"><ele>309.0</ele><time>2026-04-28T15:29:55.274Z</time></trkpt><trkpt lat="43.3848795" lon="17.5031507"><ele>310.0</ele><time>2026-04-28T15:29:56.274Z</time></trkpt><trkpt lat="43.3848132" lon="17.5034274"><ele>311.0</ele><time>2026-04-28T15:29:57.276Z</time></trkpt><trkpt lat="43.3847411" lon="17.5036936"><ele>312.0</ele><time>2026-04-28T15:29:58.273Z</time></trkpt><trkpt lat="43.3846609" lon="17.5039553"><ele>309.6666666666667</ele><time>2026-04-28T15:29:59.273Z</time></trkpt><trkpt lat="43.3845848" lon="17.5042262"><ele>307.33333333333337</ele><time>2026-04-28T15:30:00.272Z</time></trkpt><trkpt lat="43.384503" lon="17.5044985"><ele>305.0</ele><time>2026-04-28T15:30:01.274Z</time></trkpt><trkpt lat="43.3844163" lon="17.5047665"><ele>305.0</ele><time>2026-04-28T15:30:02.273Z</time></trkpt><trkpt lat="43.3843259" lon="17.5050347"><ele>305.0</ele><time>2026-04-28T15:30:03.274Z</time></trkpt><trkpt lat="43.3842314" lon="17.5053071"><ele>305.0</ele><time>2026-04-28T15:30:04.276Z</time></trkpt><trkpt lat="43.3841367" lon="17.5055714"><ele>307.0</ele><time>2026-04-28T15:30:05.273Z</time></trkpt><trkpt lat="43.3840343" lon="17.505829"><ele>309.0</ele><time>2026-04-28T15:30:06.285Z</time></trkpt><trkpt lat="43.3839396" lon="17.5060723"><ele>311.0</ele><time>2026-04-28T15:30:07.273Z</time></trkpt><trkpt lat="43.3838471" lon="17.5063069"><ele>308.6666666666667</ele><time>2026-04-28T15:30:08.274Z</time></trkpt><trkpt lat="43.3837562" lon="17.506531"><ele>306.3333333333333</ele><time>2026-04-28T15:30:09.274Z</time></trkpt><trkpt lat="43.3836648" lon="17.5067564"><ele>304.0</ele><time>2026-04-28T15:30:10.273Z</time></trkpt><trkpt lat="43.3835748" lon="17.5069751"><ele>304.3333333333333</ele><time>2026-04-28T15:30:11.274Z</time></trkpt><trkpt lat="43.3834794" lon="17.5071871"><ele>304.6666666666667</ele><time>2026-04-28T15:30:12.274Z</time></trkpt><trkpt lat="43.3833907" lon="17.5074038"><ele>305.0</ele><time>2026-04-28T15:30:13.272Z</time></trkpt><trkpt lat="43.3833015" lon="17.5076135"><ele>305.0</ele><time>2026-04-28T15:30:14.276Z</time></trkpt><trkpt lat="43.3832089" lon="17.5078198"><ele>305.0</ele><time>2026-04-28T15:30:15.274Z</time></trkpt><trkpt lat="43.3831222" lon="17.5080312"><ele>305.0</ele><time>2026-04-28T15:30:16.274Z</time></trkpt><trkpt lat="43.3830361" lon="17.5082444"><ele>304.33333333333337</ele><time>2026-04-28T15:30:17.275Z</time></trkpt><trkpt lat="43.382953" lon="17.5084547"><ele>303.6666666666667</ele><time>2026-04-28T15:30:18.274Z</time></trkpt><trkpt lat="43.3828766" lon="17.508672"><ele>303.0</ele><time>2026-04-28T15:30:19.275Z</time></trkpt><trkpt lat="43.3828041" lon="17.5088983"><ele>303.0</ele><time>2026-04-28T15:30:20.275Z</time></trkpt><trkpt lat="43.3827404" lon="17.5091225"><ele>303.0</ele><time>2026-04-28T15:30:21.273Z</time></trkpt><trkpt lat="43.3826868" lon="17.5093373"><ele>303.0</ele><time>2026-04-28T15:30:22.275Z</time></trkpt><trkpt lat="43.3826406" lon="17.5095548"><ele>303.3333333333333</ele><time>2026-04-28T15:30:23.274Z</time></trkpt><trkpt lat="43.3826017" lon="17.5097778"><ele>303.66666666666663</ele><time>2026-04-28T15:30:24.274Z</time></trkpt><trkpt lat="43.3825639" lon="17.5099834"><ele>304.0</ele><time>2026-04-28T15:30:25.274Z</time></trkpt><trkpt lat="43.3825218" lon="17.5101913"><ele>304.0</ele><time>2026-04-28T15:30:26.275Z</time></trkpt><trkpt lat="43.3824923" lon="17.5104034"><ele>304.0</ele><time>2026-04-28T15:30:27.284Z</time></trkpt><trkpt lat="43.382457" lon="17.5106113"><ele>304.0</ele><time>2026-04-28T15:30:28.274Z</time></trkpt><trkpt lat="43.3824259" lon="17.5108221"><ele>304.66666666666663</ele><time>2026-04-28T15:30:29.274Z</time></trkpt><trkpt lat="43.3823959" lon="17.5110386"><ele>305.3333333333333</ele><time>2026-04-28T15:30:30.273Z</time></trkpt><trkpt lat="43.3823607" lon="17.5112594"><ele>306.0</ele><time>2026-04-28T15:30:31.273Z</time></trkpt><trkpt lat="43.3823265" lon="17.5114836"><ele>306.0</ele><time>2026-04-28T15:30:32.274Z</time></trkpt><trkpt lat="43.3822907" lon="17.5117039"><ele>306.0</ele><time>2026-04-28T15:30:33.273Z</time></trkpt><trkpt lat="43.3822567" lon="17.5119292"><ele>306.0</ele><time>2026-04-28T15:30:34.274Z</time></trkpt><trkpt lat="43.3822239" lon="17.5121631"><ele>306.3333333333333</ele><time>2026-04-28T15:30:35.273Z</time></trkpt><trkpt lat="43.3821888" lon="17.512386"><ele>306.66666666666663</ele><time>2026-04-28T15:30:36.274Z</time></trkpt><trkpt lat="43.3821555" lon="17.5126107"><ele>307.0</ele><time>2026-04-28T15:30:37.274Z</time></trkpt><trkpt lat="43.3821159" lon="17.5128282"><ele>306.66666666666663</ele><time>2026-04-28T15:30:38.274Z</time></trkpt><trkpt lat="43.3820787" lon="17.5130451"><ele>306.3333333333333</ele><time>2026-04-28T15:30:39.274Z</time></trkpt><trkpt lat="43.3820452" lon="17.5132646"><ele>306.0</ele><time>2026-04-28T15:30:40.278Z</time></trkpt><trkpt lat="43.3820041" lon="17.513481"><ele>306.0</ele><time>2026-04-28T15:30:41.274Z</time></trkpt><trkpt lat="43.3819656" lon="17.5136928"><ele>306.0</ele><time>2026-04-28T15:30:42.274Z</time></trkpt><trkpt lat="43.3819283" lon="17.5139086"><ele>306.0</ele><time>2026-04-28T15:30:43.274Z</time></trkpt><trkpt lat="43.3818884" lon="17.514121"><ele>307.25</ele><time>2026-04-28T15:30:44.274Z</time></trkpt><trkpt lat="43.3818531" lon="17.5143206"><ele>308.5</ele><time>2026-04-28T15:30:45.274Z</time></trkpt><trkpt lat="43.3818238" lon="17.5145162"><ele>309.75</ele><time>2026-04-28T15:30:46.274Z</time></trkpt><trkpt lat="43.3817962" lon="17.514702"><ele>311.0</ele><time>2026-04-28T15:30:47.274Z</time></trkpt><trkpt lat="43.3817675" lon="17.514899"><ele>311.33333333333337</ele><time>2026-04-28T15:30:48.273Z</time></trkpt><trkpt lat="43.3817406" lon="17.5151071"><ele>311.6666666666667</ele><time>2026-04-28T15:30:49.273Z</time></trkpt><trkpt lat="43.3817188" lon="17.5153123"><ele>312.0</ele><time>2026-04-28T15:30:50.276Z</time></trkpt><trkpt lat="43.3817022" lon="17.5155302"><ele>311.0</ele><time>2026-04-28T15:30:51.274Z</time></trkpt><trkpt lat="43.3816943" lon="17.5157488"><ele>310.0</ele><time>2026-04-28T15:30:52.273Z</time></trkpt><trkpt lat="43.3816978" lon="17.5159696"><ele>309.0</ele><time>2026-04-28T15:30:53.273Z</time></trkpt><trkpt lat="43.3817131" lon="17.5161959"><ele>309.6666666666667</ele><time>2026-04-28T15:30:54.273Z</time></trkpt><trkpt lat="43.3817397" lon="17.5164228"><ele>310.33333333333337</ele><time>2026-04-28T15:30:55.273Z</time></trkpt><trkpt lat="43.3817767" lon="17.5166443"><ele>311.0</ele><time>2026-04-28T15:30:56.274Z</time></trkpt><trkpt lat="43.3818286" lon="17.5168654"><ele>311.33333333333337</ele><time>2026-04-28T15:30:57.273Z</time></trkpt><trkpt lat="43.3818819" lon="17.5170902"><ele>311.6666666666667</ele><time>2026-04-28T15:30:58.273Z</time></trkpt><trkpt lat="43.3819349" lon="17.5173143"><ele>312.0</ele><time>2026-04-28T15:30:59.271Z</time></trkpt><trkpt lat="43.3820007" lon="17.5175482"><ele>312.0</ele><time>2026-04-28T15:31:00.271Z</time></trkpt><trkpt lat="43.382071" lon="17.5178004"><ele>312.0</ele><time>2026-04-28T15:31:01.275Z</time></trkpt><trkpt lat="43.3821332" lon="17.5180536"><ele>312.0</ele><time>2026-04-28T15:31:02.272Z</time></trkpt><trkpt lat="43.3821933" lon="17.518327"><ele>314.3333333333333</ele><time>2026-04-28T15:31:03.274Z</time></trkpt><trkpt lat="43.3822526" lon="17.518615"><ele>316.66666666666663</ele><time>2026-04-28T15:31:04.274Z</time></trkpt><trkpt lat="43.382304" lon="17.5189094"><ele>319.0</ele><time>2026-04-28T15:31:05.273Z</time></trkpt><trkpt lat="43.3823371" lon="17.5192054"><ele>319.0</ele><time>2026-04-28T15:31:06.272Z</time></trkpt><trkpt lat="43.3823607" lon="17.5195009"><ele>319.0</ele><time>2026-04-28T15:31:07.273Z</time></trkpt><trkpt lat="43.3823742" lon="17.5197929"><ele>319.0</ele><time>2026-04-28T15:31:08.274Z</time></trkpt><trkpt lat="43.3823699" lon="17.5200863"><ele>319.66666666666663</ele><time>2026-04-28T15:31:09.274Z</time></trkpt><trkpt lat="43.3823539" lon="17.5203819"><ele>320.3333333333333</ele><time>2026-04-28T15:31:10.273Z</time></trkpt><trkpt lat="43.3823222" lon="17.5206761"><ele>321.0</ele><time>2026-04-28T15:31:11.273Z</time></trkpt><trkpt lat="43.3822726" lon="17.5209554"><ele>321.6666666666667</ele><time>2026-04-28T15:31:12.273Z</time></trkpt><trkpt lat="43.3822137" lon="17.5212273"><ele>322.33333333333337</ele><time>2026-04-28T15:31:13.273Z</time></trkpt><trkpt lat="43.3821398" lon="17.5214977"><ele>323.0</ele><time>2026-04-28T15:31:14.274Z</time></trkpt><trkpt lat="43.382065" lon="17.5217598"><ele>323.0</ele><time>2026-04-28T15:31:15.274Z</time></trkpt><trkpt lat="43.3819881" lon="17.5220016"><ele>323.0</ele><time>2026-04-28T15:31:16.275Z</time></trkpt><trkpt lat="43.3819064" lon="17.5222221"><ele>323.0</ele><time>2026-04-28T15:31:17.272Z</time></trkpt><trkpt lat="43.3818265" lon="17.522433"><ele>324.33333333333337</ele><time>2026-04-28T15:31:18.274Z</time></trkpt><trkpt lat="43.3817477" lon="17.522639"><ele>325.6666666666667</ele><time>2026-04-28T15:31:19.273Z</time></trkpt><trkpt lat="43.3816689" lon="17.5228445"><ele>327.0</ele><time>2026-04-28T15:31:20.274Z</time></trkpt><trkpt lat="43.3815948" lon="17.5230507"><ele>329.0</ele><time>2026-04-28T15:31:21.273Z</time></trkpt><trkpt lat="43.3815168" lon="17.5232648"><ele>331.0</ele><time>2026-04-28T15:31:22.275Z</time></trkpt><trkpt lat="43.3814385" lon="17.5234747"><ele>333.0</ele><time>2026-04-28T15:31:23.273Z</time></trkpt><trkpt lat="43.3814019" lon="17.5237309"><ele>334.6666666666667</ele><time>2026-04-28T15:31:24.276Z</time></trkpt><trkpt lat="43.3813581" lon="17.5239561"><ele>336.33333333333337</ele><time>2026-04-28T15:31:25.271Z</time></trkpt><trkpt lat="43.3813393" lon="17.524181"><ele>338.0</ele><time>2026-04-28T15:31:26.271Z</time></trkpt><trkpt lat="43.3813324" lon="17.5243969"><ele>337.33333333333337</ele><time>2026-04-28T15:31:27.27Z</time></trkpt><trkpt lat="43.3813493" lon="17.5246227"><ele>336.6666666666667</ele><time>2026-04-28T15:31:28.271Z</time></trkpt><trkpt lat="43.3813789" lon="17.5248431"><ele>336.0</ele><time>2026-04-28T15:31:29.273Z</time></trkpt><trkpt lat="43.3814222" lon="17.5250574"><ele>336.0</ele><time>2026-04-28T15:31:30.273Z</time></trkpt><trkpt lat="43.3814776" lon="17.5252667"><ele>336.0</ele><time>2026-04-28T15:31:31.273Z</time></trkpt><trkpt lat="43.381539" lon="17.5254669"><ele>336.0</ele><time>2026-04-28T15:31:32.273Z</time></trkpt><trkpt lat="43.3816049" lon="17.5256682"><ele>336.0</ele><time>2026-04-28T15:31:33.273Z</time></trkpt><trkpt lat="43.3816717" lon="17.5258668"><ele>336.0</ele><time>2026-04-28T15:31:34.273Z</time></trkpt><trkpt lat="43.3817343" lon="17.5260679"><ele>336.0</ele><time>2026-04-28T15:31:35.275Z</time></trkpt><trkpt lat="43.3817848" lon="17.5262651"><ele>338.0</ele><time>2026-04-28T15:31:36.277Z</time></trkpt><trkpt lat="43.381835" lon="17.5264671"><ele>340.0</ele><time>2026-04-28T15:31:37.276Z</time></trkpt><trkpt lat="43.381869" lon="17.5266687"><ele>342.0</ele><time>2026-04-28T15:31:38.273Z</time></trkpt><trkpt lat="43.3818969" lon="17.5268658"><ele>341.6666666666667</ele><time>2026-04-28T15:31:39.271Z</time></trkpt><trkpt lat="43.3819103" lon="17.5270708"><ele>341.33333333333337</ele><time>2026-04-28T15:31:40.273Z</time></trkpt><trkpt lat="43.3819197" lon="17.527274"><ele>341.0</ele><time>2026-04-28T15:31:41.273Z</time></trkpt><trkpt lat="43.3819117" lon="17.5274842"><ele>341.0</ele><time>2026-04-28T15:31:42.272Z</time></trkpt><trkpt lat="43.3818947" lon="17.5276995"><ele>341.0</ele><time>2026-04-28T15:31:43.274Z</time></trkpt><trkpt lat="43.3818672" lon="17.5279163"><ele>341.0</ele><time>2026-04-28T15:31:44.272Z</time></trkpt><trkpt lat="43.3818281" lon="17.5281385"><ele>340.33333333333337</ele><time>2026-04-28T15:31:45.272Z</time></trkpt><trkpt lat="43.3817729" lon="17.5283596"><ele>339.6666666666667</ele><time>2026-04-28T15:31:46.274Z</time></trkpt><trkpt lat="43.381708" lon="17.528585"><ele>339.0</ele><time>2026-04-28T15:31:47.273Z</time></trkpt><trkpt lat="43.3816372" lon="17.5288136"><ele>338.0</ele><time>2026-04-28T15:31:48.272Z</time></trkpt><trkpt lat="43.3815543" lon="17.5290452"><ele>337.0</ele><time>2026-04-28T15:31:49.277Z</time></trkpt><trkpt lat="43.381468" lon="17.5292842"><ele>336.0</ele><time>2026-04-28T15:31:50.274Z</time></trkpt><trkpt lat="43.381378" lon="17.5295199"><ele>335.6666666666667</ele><time>2026-04-28T15:31:51.276Z</time></trkpt><trkpt lat="43.3812846" lon="17.5297653"><ele>335.33333333333337</ele><time>2026-04-28T15:31:52.272Z</time></trkpt><trkpt lat="43.3811979" lon="17.5300208"><ele>335.0</ele><time>2026-04-28T15:31:53.273Z</time></trkpt><trkpt lat="43.3811151" lon="17.5302615"><ele>333.0</ele><time>2026-04-28T15:31:54.274Z</time></trkpt><trkpt lat="43.3810392" lon="17.5305017"><ele>331.0</ele><time>2026-04-28T15:31:55.273Z</time></trkpt><trkpt lat="43.3809689" lon="17.5307369"><ele>329.0</ele><time>2026-04-28T15:31:56.274Z</time></trkpt><trkpt lat="43.3809099" lon="17.5309752"><ele>329.0</ele><time>2026-04-28T15:31:57.273Z</time></trkpt><trkpt lat="43.3808534" lon="17.5312155"><ele>329.0</ele><time>2026-04-28T15:31:58.272Z</time></trkpt><trkpt lat="43.3807999" lon="17.531466"><ele>329.0</ele><time>2026-04-28T15:31:59.273Z</time></trkpt><trkpt lat="43.380757" lon="17.5317211"><ele>327.33333333333337</ele><time>2026-04-28T15:32:00.273Z</time></trkpt><trkpt lat="43.3807201" lon="17.5319844"><ele>325.6666666666667</ele><time>2026-04-28T15:32:01.273Z</time></trkpt><trkpt lat="43.3806926" lon="17.5322499"><ele>324.0</ele><time>2026-04-28T15:32:02.274Z</time></trkpt><trkpt lat="43.3806718" lon="17.5325161"><ele>322.6666666666667</ele><time>2026-04-28T15:32:03.271Z</time></trkpt><trkpt lat="43.380657" lon="17.5327741"><ele>321.33333333333337</ele><time>2026-04-28T15:32:04.271Z</time></trkpt><trkpt lat="43.3806512" lon="17.533029"><ele>320.0</ele><time>2026-04-28T15:32:05.273Z</time></trkpt><trkpt lat="43.3806515" lon="17.5332711"><ele>319.0</ele><time>2026-04-28T15:32:06.275Z</time></trkpt><trkpt lat="43.3806535" lon="17.5335045"><ele>318.0</ele><time>2026-04-28T15:32:07.272Z</time></trkpt><trkpt lat="43.380664" lon="17.533739"><ele>317.0</ele><time>2026-04-28T15:32:08.282Z</time></trkpt><trkpt lat="43.380673" lon="17.533961"><ele>316.0</ele><time>2026-04-28T15:32:09.274Z</time></trkpt><trkpt lat="43.3806851" lon="17.5341742"><ele>315.0</ele><time>2026-04-28T15:32:10.274Z</time></trkpt><trkpt lat="43.3806902" lon="17.5343894"><ele>314.0</ele><time>2026-04-28T15:32:11.274Z</time></trkpt><trkpt lat="43.3806947" lon="17.5346077"><ele>312.6666666666667</ele><time>2026-04-28T15:32:12.274Z</time></trkpt><trkpt lat="43.3807022" lon="17.5348324"><ele>311.3333333333333</ele><time>2026-04-28T15:32:13.276Z</time></trkpt><trkpt lat="43.3807025" lon="17.5350554"><ele>310.0</ele><time>2026-04-28T15:32:14.274Z</time></trkpt><trkpt lat="43.380703" lon="17.5352804"><ele>309.3333333333333</ele><time>2026-04-28T15:32:15.274Z</time></trkpt><trkpt lat="43.3807018" lon="17.5355058"><ele>308.6666666666667</ele><time>2026-04-28T15:32:16.274Z</time></trkpt><trkpt lat="43.3806914" lon="17.5357305"><ele>308.0</ele><time>2026-04-28T15:32:17.276Z</time></trkpt><trkpt lat="43.3806723" lon="17.5359566"><ele>308.0</ele><time>2026-04-28T15:32:18.274Z</time></trkpt><trkpt lat="43.3806502" lon="17.5361824"><ele>308.0</ele><time>2026-04-28T15:32:19.274Z</time></trkpt><trkpt lat="43.3806174" lon="17.5364052"><ele>308.0</ele><time>2026-04-28T15:32:20.273Z</time></trkpt><trkpt lat="43.3805831" lon="17.5366259"><ele>307.6666666666667</ele><time>2026-04-28T15:32:21.274Z</time></trkpt><trkpt lat="43.3805433" lon="17.5368373"><ele>307.3333333333333</ele><time>2026-04-28T15:32:22.272Z</time></trkpt><trkpt lat="43.3804958" lon="17.5370395"><ele>307.0</ele><time>2026-04-28T15:32:23.273Z</time></trkpt><trkpt lat="43.3804458" lon="17.5372336"><ele>308.3333333333333</ele><time>2026-04-28T15:32:24.275Z</time></trkpt><trkpt lat="43.3803931" lon="17.5374337"><ele>309.6666666666667</ele><time>2026-04-28T15:32:25.272Z</time></trkpt><trkpt lat="43.3803461" lon="17.5376377"><ele>311.0</ele><time>2026-04-28T15:32:26.274Z</time></trkpt><trkpt lat="43.3802945" lon="17.53784"><ele>310.6666666666667</ele><time>2026-04-28T15:32:27.274Z</time></trkpt><trkpt lat="43.3802468" lon="17.5380495"><ele>310.3333333333333</ele><time>2026-04-28T15:32:28.274Z</time></trkpt><trkpt lat="43.3802016" lon="17.5382494"><ele>310.0</ele><time>2026-04-28T15:32:29.274Z</time></trkpt><trkpt lat="43.3801699" lon="17.5384472"><ele>310.0</ele><time>2026-04-28T15:32:30.283Z</time></trkpt><trkpt lat="43.3801422" lon="17.5386533"><ele>310.0</ele><time>2026-04-28T15:32:31.273Z</time></trkpt><trkpt lat="43.3801192" lon="17.5388654"><ele>310.0</ele><time>2026-04-28T15:32:32.274Z</time></trkpt><trkpt lat="43.380096" lon="17.5390849"><ele>310.0</ele><time>2026-04-28T15:32:33.271Z</time></trkpt><trkpt lat="43.3800887" lon="17.5393082"><ele>310.0</ele><time>2026-04-28T15:32:34.273Z</time></trkpt><trkpt lat="43.3800922" lon="17.5395277"><ele>310.0</ele><time>2026-04-28T15:32:35.27Z</time></trkpt><trkpt lat="43.3801035" lon="17.5397453"><ele>310.0</ele><time>2026-04-28T15:32:36.27Z</time></trkpt><trkpt lat="43.3801201" lon="17.5399535"><ele>310.0</ele><time>2026-04-28T15:32:37.274Z</time></trkpt><trkpt lat="43.3801345" lon="17.5401628"><ele>310.0</ele><time>2026-04-28T15:32:38.273Z</time></trkpt><trkpt lat="43.3801451" lon="17.5403612"><ele>309.0</ele><time>2026-04-28T15:32:39.272Z</time></trkpt><trkpt lat="43.3801617" lon="17.5405683"><ele>308.0</ele><time>2026-04-28T15:32:40.273Z</time></trkpt><trkpt lat="43.3801803" lon="17.540779"><ele>307.0</ele><time>2026-04-28T15:32:41.274Z</time></trkpt><trkpt lat="43.3801976" lon="17.5409918"><ele>307.0</ele><time>2026-04-28T15:32:42.275Z</time></trkpt><trkpt lat="43.3802055" lon="17.54121"><ele>307.0</ele><time>2026-04-28T15:32:43.281Z</time></trkpt><trkpt lat="43.3802003" lon="17.541438"><ele>307.0</ele><time>2026-04-28T15:32:44.274Z</time></trkpt><trkpt lat="43.3801839" lon="17.5416644"><ele>305.66666666666663</ele><time>2026-04-28T15:32:45.274Z</time></trkpt><trkpt lat="43.3801494" lon="17.5418887"><ele>304.3333333333333</ele><time>2026-04-28T15:32:46.274Z</time></trkpt><trkpt lat="43.3800991" lon="17.5421125"><ele>303.0</ele><time>2026-04-28T15:32:47.275Z</time></trkpt><trkpt lat="43.3800337" lon="17.5423338"><ele>300.6666666666667</ele><time>2026-04-28T15:32:48.273Z</time></trkpt><trkpt lat="43.3799544" lon="17.5425499"><ele>298.33333333333337</ele><time>2026-04-28T15:32:49.275Z</time></trkpt><trkpt lat="43.3798681" lon="17.5427548"><ele>296.0</ele><time>2026-04-28T15:32:50.272Z</time></trkpt><trkpt lat="43.3797812" lon="17.542953"><ele>297.33333333333337</ele><time>2026-04-28T15:32:51.274Z</time></trkpt><trkpt lat="43.379694" lon="17.5431456"><ele>298.6666666666667</ele><time>2026-04-28T15:32:52.272Z</time></trkpt><trkpt lat="43.3796158" lon="17.5433369"><ele>300.0</ele><time>2026-04-28T15:32:53.275Z</time></trkpt><trkpt lat="43.3795373" lon="17.5435342"><ele>296.6666666666667</ele><time>2026-04-28T15:32:54.274Z</time></trkpt><trkpt lat="43.3794617" lon="17.5437415"><ele>293.33333333333337</ele><time>2026-04-28T15:32:55.272Z</time></trkpt><trkpt lat="43.3793967" lon="17.5439466"><ele>290.0</ele><time>2026-04-28T15:32:56.273Z</time></trkpt><trkpt lat="43.3793441" lon="17.5441631"><ele>290.0</ele><time>2026-04-28T15:32:57.273Z</time></trkpt><trkpt lat="43.3793005" lon="17.5443729"><ele>290.0</ele><time>2026-04-28T15:32:58.274Z</time></trkpt><trkpt lat="43.3792586" lon="17.5445753"><ele>290.0</ele><time>2026-04-28T15:32:59.274Z</time></trkpt><trkpt lat="43.3792198" lon="17.54477"><ele>289.75</ele><time>2026-04-28T15:33:00.275Z</time></trkpt><trkpt lat="43.3791835" lon="17.5449596"><ele>289.5</ele><time>2026-04-28T15:33:01.274Z</time></trkpt><trkpt lat="43.3791459" lon="17.5451538"><ele>289.25</ele><time>2026-04-28T15:33:02.275Z</time></trkpt><trkpt lat="43.3791118" lon="17.5453455"><ele>289.0</ele><time>2026-04-28T15:33:03.274Z</time></trkpt><trkpt lat="43.3790707" lon="17.5455409"><ele>289.0</ele><time>2026-04-28T15:33:04.273Z</time></trkpt><trkpt lat="43.3790312" lon="17.5457296"><ele>289.0</ele><time>2026-04-28T15:33:05.277Z</time></trkpt><trkpt lat="43.3789953" lon="17.5459091"><ele>289.0</ele><time>2026-04-28T15:33:06.274Z</time></trkpt><trkpt lat="43.3789587" lon="17.5460946"><ele>289.0</ele><time>2026-04-28T15:33:07.275Z</time></trkpt><trkpt lat="43.3789238" lon="17.5462674"><ele>289.0</ele><time>2026-04-28T15:33:08.274Z</time></trkpt><trkpt lat="43.3788922" lon="17.5464338"><ele>289.0</ele><time>2026-04-28T15:33:09.273Z</time></trkpt><trkpt lat="43.3788637" lon="17.5465927"><ele>289.0</ele><time>2026-04-28T15:33:10.272Z</time></trkpt><trkpt lat="43.3788357" lon="17.5467394"><ele>289.0</ele><time>2026-04-28T15:33:11.277Z</time></trkpt><trkpt lat="43.3788063" lon="17.5468865"><ele>289.0</ele><time>2026-04-28T15:33:12.273Z</time></trkpt><trkpt lat="43.3787793" lon="17.5470416"><ele>289.0</ele><time>2026-04-28T15:33:13.273Z</time></trkpt><trkpt lat="43.3787515" lon="17.547203"><ele>289.0</ele><time>2026-04-28T15:33:14.275Z</time></trkpt><trkpt lat="43.3787221" lon="17.5473634"><ele>289.0</ele><time>2026-04-28T15:33:15.276Z</time></trkpt><trkpt lat="43.378689" lon="17.5475293"><ele>288.25</ele><time>2026-04-28T15:33:16.274Z</time></trkpt><trkpt lat="43.3786562" lon="17.5476998"><ele>287.5</ele><time>2026-04-28T15:33:17.276Z</time></trkpt><trkpt lat="43.3786236" lon="17.5478724"><ele>286.75</ele><time>2026-04-28T15:33:18.273Z</time></trkpt><trkpt lat="43.3785924" lon="17.5480455"><ele>286.0</ele><time>2026-04-28T15:33:19.275Z</time></trkpt><trkpt lat="43.3785606" lon="17.5482337"><ele>286.0</ele><time>2026-04-28T15:33:20.275Z</time></trkpt><trkpt lat="43.3785294" lon="17.5484274"><ele>286.0</ele><time>2026-04-28T15:33:21.276Z</time></trkpt><trkpt lat="43.3784969" lon="17.5486239"><ele>286.0</ele><time>2026-04-28T15:33:22.274Z</time></trkpt><trkpt lat="43.3784602" lon="17.5488204"><ele>286.0</ele><time>2026-04-28T15:33:23.276Z</time></trkpt><trkpt lat="43.3784281" lon="17.5490187"><ele>286.0</ele><time>2026-04-28T15:33:24.276Z</time></trkpt><trkpt lat="43.3783877" lon="17.5492219"><ele>286.0</ele><time>2026-04-28T15:33:25.275Z</time></trkpt><trkpt lat="43.378359" lon="17.5494428"><ele>286.0</ele><time>2026-04-28T15:33:26.273Z</time></trkpt><trkpt lat="43.3783382" lon="17.5496615"><ele>286.0</ele><time>2026-04-28T15:33:27.283Z</time></trkpt><trkpt lat="43.3783146" lon="17.549874"><ele>286.0</ele><time>2026-04-28T15:33:28.275Z</time></trkpt><trkpt lat="43.3782965" lon="17.5500902"><ele>286.0</ele><time>2026-04-28T15:33:29.281Z</time></trkpt><trkpt lat="43.3782867" lon="17.5503041"><ele>285.75</ele><time>2026-04-28T15:33:30.283Z</time></trkpt><trkpt lat="43.3782769" lon="17.5505128"><ele>285.5</ele><time>2026-04-28T15:33:31.274Z</time></trkpt><trkpt lat="43.378272" lon="17.5507163"><ele>285.25</ele><time>2026-04-28T15:33:32.274Z</time></trkpt><trkpt lat="43.3782694" lon="17.5509124"><ele>285.0</ele><time>2026-04-28T15:33:33.274Z</time></trkpt><trkpt lat="43.3782624" lon="17.5511021"><ele>284.25</ele><time>2026-04-28T15:33:34.275Z</time></trkpt><trkpt lat="43.3782532" lon="17.551292"><ele>283.5</ele><time>2026-04-28T15:33:35.281Z</time></trkpt><trkpt lat="43.3782461" lon="17.5514916"><ele>282.75</ele><time>2026-04-28T15:33:36.274Z</time></trkpt><trkpt lat="43.3782429" lon="17.5516938"><ele>282.0</ele><time>2026-04-28T15:33:37.274Z</time></trkpt><trkpt lat="43.3782412" lon="17.5518908"><ele>282.0</ele><time>2026-04-28T15:33:38.274Z</time></trkpt><trkpt lat="43.3782417" lon="17.5521002"><ele>282.0</ele><time>2026-04-28T15:33:39.274Z</time></trkpt><trkpt lat="43.378238" lon="17.5522988"><ele>282.0</ele><time>2026-04-28T15:33:40.274Z</time></trkpt><trkpt lat="43.3782335" lon="17.5525131"><ele>282.0</ele><time>2026-04-28T15:33:41.273Z</time></trkpt><trkpt lat="43.3782331" lon="17.5527336"><ele>282.0</ele><time>2026-04-28T15:33:42.274Z</time></trkpt><trkpt lat="43.3782327" lon="17.5529443"><ele>282.0</ele><time>2026-04-28T15:33:43.274Z</time></trkpt><trkpt lat="43.3782255" lon="17.5531476"><ele>282.0</ele><time>2026-04-28T15:33:44.273Z</time></trkpt><trkpt lat="43.3782245" lon="17.5533427"><ele>282.0</ele><time>2026-04-28T15:33:45.278Z</time></trkpt><trkpt lat="43.3782216" lon="17.5535204"><ele>282.0</ele><time>2026-04-28T15:33:46.283Z</time></trkpt><trkpt lat="43.3782186" lon="17.5536908"><ele>282.0</ele><time>2026-04-28T15:33:47.274Z</time></trkpt><trkpt lat="43.3782125" lon="17.5538578"><ele>282.0</ele><time>2026-04-28T15:33:48.274Z</time></trkpt><trkpt lat="43.378211" lon="17.554017"><ele>282.0</ele><time>2026-04-28T15:33:49.274Z</time></trkpt><trkpt lat="43.3782091" lon="17.5541893"><ele>282.0</ele><time>2026-04-28T15:33:50.275Z</time></trkpt><trkpt lat="43.3782092" lon="17.5543574"><ele>282.0</ele><time>2026-04-28T15:33:51.276Z</time></trkpt><trkpt lat="43.37821" lon="17.5545404"><ele>282.75</ele><time>2026-04-28T15:33:52.274Z</time></trkpt><trkpt lat="43.3782101" lon="17.5547177"><ele>283.5</ele><time>2026-04-28T15:33:53.273Z</time></trkpt><trkpt lat="43.3782024" lon="17.5548981"><ele>284.25</ele><time>2026-04-28T15:33:54.275Z</time></trkpt><trkpt lat="43.378194" lon="17.5550695"><ele>285.0</ele><time>2026-04-28T15:33:55.273Z</time></trkpt><trkpt lat="43.3781829" lon="17.5552338"><ele>284.25</ele><time>2026-04-28T15:33:56.275Z</time></trkpt><trkpt lat="43.3781749" lon="17.555397"><ele>283.5</ele><time>2026-04-28T15:33:57.274Z</time></trkpt><trkpt lat="43.3781617" lon="17.5555664"><ele>282.75</ele><time>2026-04-28T15:33:58.273Z</time></trkpt><trkpt lat="43.3781456" lon="17.5557461"><ele>282.0</ele><time>2026-04-28T15:33:59.274Z</time></trkpt><trkpt lat="43.3781224" lon="17.555928"><ele>282.0</ele><time>2026-04-28T15:34:00.274Z</time></trkpt><trkpt lat="43.3781046" lon="17.5561252"><ele>282.0</ele><time>2026-04-28T15:34:01.277Z</time></trkpt><trkpt lat="43.3780898" lon="17.5563296"><ele>282.0</ele><time>2026-04-28T15:34:02.275Z</time></trkpt><trkpt lat="43.3780711" lon="17.5565348"><ele>282.0</ele><time>2026-04-28T15:34:03.274Z</time></trkpt><trkpt lat="43.3780497" lon="17.5567358"><ele>282.0</ele><time>2026-04-28T15:34:04.275Z</time></trkpt><trkpt lat="43.3780243" lon="17.5569422"><ele>282.0</ele><time>2026-04-28T15:34:05.275Z</time></trkpt><trkpt lat="43.3780053" lon="17.5571584"><ele>282.0</ele><time>2026-04-28T15:34:06.274Z</time></trkpt><trkpt lat="43.3779859" lon="17.5573576"><ele>281.75</ele><time>2026-04-28T15:34:07.273Z</time></trkpt><trkpt lat="43.3779639" lon="17.5575499"><ele>281.5</ele><time>2026-04-28T15:34:08.275Z</time></trkpt><trkpt lat="43.3779445" lon="17.55774"><ele>281.25</ele><time>2026-04-28T15:34:09.275Z</time></trkpt><trkpt lat="43.3779287" lon="17.5579208"><ele>281.0</ele><time>2026-04-28T15:34:10.275Z</time></trkpt><trkpt lat="43.3779067" lon="17.5580917"><ele>280.5</ele><time>2026-04-28T15:34:11.273Z</time></trkpt><trkpt lat="43.377888" lon="17.5582808"><ele>280.0</ele><time>2026-04-28T15:34:12.273Z</time></trkpt><trkpt lat="43.3778696" lon="17.5584719"><ele>279.5</ele><time>2026-04-28T15:34:13.273Z</time></trkpt><trkpt lat="43.3778513" lon="17.558667"><ele>279.0</ele><time>2026-04-28T15:34:14.272Z</time></trkpt><trkpt lat="43.3778357" lon="17.5588644"><ele>278.75</ele><time>2026-04-28T15:34:15.273Z</time></trkpt><trkpt lat="43.3778243" lon="17.5590618"><ele>278.5</ele><time>2026-04-28T15:34:16.273Z</time></trkpt><trkpt lat="43.3778192" lon="17.5592532"><ele>278.25</ele><time>2026-04-28T15:34:17.273Z</time></trkpt><trkpt lat="43.3778229" lon="17.5594393"><ele>278.0</ele><time>2026-04-28T15:34:18.275Z</time></trkpt><trkpt lat="43.3778227" lon="17.5596208"><ele>278.0</ele><time>2026-04-28T15:34:19.274Z</time></trkpt><trkpt lat="43.3778269" lon="17.5597985"><ele>278.0</ele><time>2026-04-28T15:34:20.276Z</time></trkpt><trkpt lat="43.3778323" lon="17.5599811"><ele>278.0</ele><time>2026-04-28T15:34:21.274Z</time></trkpt><trkpt lat="43.3778421" lon="17.5601688"><ele>278.0</ele><time>2026-04-28T15:34:22.274Z</time></trkpt><trkpt lat="43.3778471" lon="17.5603592"><ele>278.5</ele><time>2026-04-28T15:34:23.274Z</time></trkpt><trkpt lat="43.3778553" lon="17.5605471"><ele>279.0</ele><time>2026-04-28T15:34:24.274Z</time></trkpt><trkpt lat="43.3778681" lon="17.5607314"><ele>279.5</ele><time>2026-04-28T15:34:25.274Z</time></trkpt><trkpt lat="43.3778884" lon="17.5609189"><ele>280.0</ele><time>2026-04-28T15:34:26.275Z</time></trkpt><trkpt lat="43.3779102" lon="17.5610975"><ele>279.75</ele><time>2026-04-28T15:34:27.273Z</time></trkpt><trkpt lat="43.3779317" lon="17.5612716"><ele>279.5</ele><time>2026-04-28T15:34:28.275Z</time></trkpt><trkpt lat="43.3779608" lon="17.5614385"><ele>279.25</ele><time>2026-04-28T15:34:29.273Z</time></trkpt><trkpt lat="43.3779835" lon="17.5616033"><ele>279.0</ele><time>2026-04-28T15:34:30.273Z</time></trkpt><trkpt lat="43.3780063" lon="17.5617581"><ele>278.8</ele><time>2026-04-28T15:34:31.274Z</time></trkpt><trkpt lat="43.3780271" lon="17.5618996"><ele>278.59999999999997</ele><time>2026-04-28T15:34:32.272Z</time></trkpt><trkpt lat="43.3780432" lon="17.5620144"><ele>278.4</ele><time>2026-04-28T15:34:33.276Z</time></trkpt><trkpt lat="43.3780596" lon="17.5621293"><ele>278.2</ele><time>2026-04-28T15:34:35.273Z</time></trkpt><trkpt lat="43.3780759" lon="17.5622438"><ele>278.0</ele><time>2026-04-28T15:34:37.27Z</time></trkpt><trkpt lat="43.3781086" lon="17.5624062"><ele>278.0</ele><time>2026-04-28T15:34:39.274Z</time></trkpt><trkpt lat="43.3781251" lon="17.562516"><ele>278.0</ele><time>2026-04-28T15:34:40.275Z</time></trkpt><trkpt lat="43.3781374" lon="17.5626435"><ele>278.0</ele><time>2026-04-28T15:34:41.273Z</time></trkpt><trkpt lat="43.3781637" lon="17.5627862"><ele>278.0</ele><time>2026-04-28T15:34:42.275Z</time></trkpt><trkpt lat="43.3781874" lon="17.5629386"><ele>278.0</ele><time>2026-04-28T15:34:43.273Z</time></trkpt><trkpt lat="43.3782092" lon="17.5630873"><ele>278.0</ele><time>2026-04-28T15:34:44.275Z</time></trkpt><trkpt lat="43.3782304" lon="17.5632276"><ele>278.0</ele><time>2026-04-28T15:34:45.278Z</time></trkpt><trkpt lat="43.3782523" lon="17.5633738"><ele>278.0</ele><time>2026-04-28T15:34:46.275Z</time></trkpt><trkpt lat="43.3782774" lon="17.5635286"><ele>278.0</ele><time>2026-04-28T15:34:47.276Z</time></trkpt><trkpt lat="43.3783015" lon="17.563687"><ele>278.0</ele><time>2026-04-28T15:34:48.274Z</time></trkpt><trkpt lat="43.3783254" lon="17.5638427"><ele>277.25</ele><time>2026-04-28T15:34:49.273Z</time></trkpt><trkpt lat="43.3783467" lon="17.5639906"><ele>276.5</ele><time>2026-04-28T15:34:50.273Z</time></trkpt><trkpt lat="43.3783704" lon="17.5641412"><ele>275.75</ele><time>2026-04-28T15:34:51.276Z</time></trkpt><trkpt lat="43.3783953" lon="17.5642986"><ele>275.0</ele><time>2026-04-28T15:34:52.273Z</time></trkpt><trkpt lat="43.3784201" lon="17.5644612"><ele>274.75</ele><time>2026-04-28T15:34:53.274Z</time></trkpt><trkpt lat="43.378447" lon="17.5646265"><ele>274.5</ele><time>2026-04-28T15:34:54.274Z</time></trkpt><trkpt lat="43.3784737" lon="17.5648015"><ele>274.25</ele><time>2026-04-28T15:34:55.275Z</time></trkpt><trkpt lat="43.378502" lon="17.5649845"><ele>274.0</ele><time>2026-04-28T15:34:56.274Z</time></trkpt><trkpt lat="43.3785312" lon="17.5651666"><ele>274.0</ele><time>2026-04-28T15:34:57.274Z</time></trkpt><trkpt lat="43.378554" lon="17.5653377"><ele>274.0</ele><time>2026-04-28T15:34:58.275Z</time></trkpt><trkpt lat="43.3785785" lon="17.5655007"><ele>274.0</ele><time>2026-04-28T15:34:59.272Z</time></trkpt><trkpt lat="43.3786043" lon="17.56566"><ele>274.0</ele><time>2026-04-28T15:35:00.274Z</time></trkpt><trkpt lat="43.3786276" lon="17.5658246"><ele>274.25</ele><time>2026-04-28T15:35:01.273Z</time></trkpt><trkpt lat="43.3786509" lon="17.5659852"><ele>274.5</ele><time>2026-04-28T15:35:02.273Z</time></trkpt><trkpt lat="43.3786782" lon="17.5661483"><ele>274.75</ele><time>2026-04-28T15:35:03.273Z</time></trkpt><trkpt lat="43.3787034" lon="17.5663119"><ele>275.0</ele><time>2026-04-28T15:35:04.275Z</time></trkpt><trkpt lat="43.3787281" lon="17.5664763"><ele>275.0</ele><time>2026-04-28T15:35:05.274Z</time></trkpt><trkpt lat="43.3787517" lon="17.5666388"><ele>275.0</ele><time>2026-04-28T15:35:06.273Z</time></trkpt><trkpt lat="43.3787755" lon="17.5667979"><ele>275.0</ele><time>2026-04-28T15:35:07.275Z</time></trkpt><trkpt lat="43.3788012" lon="17.5669561"><ele>275.0</ele><time>2026-04-28T15:35:08.275Z</time></trkpt><trkpt lat="43.3788243" lon="17.5671153"><ele>275.0</ele><time>2026-04-28T15:35:09.273Z</time></trkpt><trkpt lat="43.378851" lon="17.567283"><ele>275.0</ele><time>2026-04-28T15:35:10.274Z</time></trkpt><trkpt lat="43.3788816" lon="17.5674634"><ele>275.0</ele><time>2026-04-28T15:35:11.274Z</time></trkpt><trkpt lat="43.3789119" lon="17.5676519"><ele>275.0</ele><time>2026-04-28T15:35:12.278Z</time></trkpt><trkpt lat="43.3789456" lon="17.5678493"><ele>274.5</ele><time>2026-04-28T15:35:13.274Z</time></trkpt><trkpt lat="43.3789722" lon="17.5680489"><ele>274.0</ele><time>2026-04-28T15:35:14.274Z</time></trkpt><trkpt lat="43.3790029" lon="17.5682455"><ele>273.5</ele><time>2026-04-28T15:35:15.274Z</time></trkpt><trkpt lat="43.3790309" lon="17.5684458"><ele>273.0</ele><time>2026-04-28T15:35:16.274Z</time></trkpt><trkpt lat="43.3790638" lon="17.5686423"><ele>273.0</ele><time>2026-04-28T15:35:17.276Z</time></trkpt><trkpt lat="43.3790905" lon="17.5688327"><ele>273.0</ele><time>2026-04-28T15:35:18.274Z</time></trkpt><trkpt lat="43.3791163" lon="17.5690151"><ele>273.0</ele><time>2026-04-28T15:35:19.274Z</time></trkpt><trkpt lat="43.3791442" lon="17.5691894"><ele>273.0</ele><time>2026-04-28T15:35:20.273Z</time></trkpt><trkpt lat="43.379169" lon="17.5693594"><ele>272.75</ele><time>2026-04-28T15:35:21.273Z</time></trkpt><trkpt lat="43.3791945" lon="17.5695329"><ele>272.5</ele><time>2026-04-28T15:35:22.272Z</time></trkpt><trkpt lat="43.3792186" lon="17.5697048"><ele>272.25</ele><time>2026-04-28T15:35:23.274Z</time></trkpt><trkpt lat="43.3792442" lon="17.5698602"><ele>272.0</ele><time>2026-04-28T15:35:24.275Z</time></trkpt><trkpt lat="43.3792674" lon="17.5700123"><ele>272.0</ele><time>2026-04-28T15:35:25.274Z</time></trkpt><trkpt lat="43.3792882" lon="17.5701548"><ele>272.0</ele><time>2026-04-28T15:35:26.274Z</time></trkpt><trkpt lat="43.3793083" lon="17.5702938"><ele>272.0</ele><time>2026-04-28T15:35:27.274Z</time></trkpt><trkpt lat="43.37933" lon="17.5704292"><ele>272.0</ele><time>2026-04-28T15:35:28.275Z</time></trkpt><trkpt lat="43.3793545" lon="17.5705707"><ele>272.0</ele><time>2026-04-28T15:35:29.273Z</time></trkpt><trkpt lat="43.3793783" lon="17.5707193"><ele>272.0</ele><time>2026-04-28T15:35:30.274Z</time></trkpt><trkpt lat="43.3793971" lon="17.5708539"><ele>272.0</ele><time>2026-04-28T15:35:31.276Z</time></trkpt><trkpt lat="43.3794226" lon="17.570997"><ele>272.0</ele><time>2026-04-28T15:35:32.275Z</time></trkpt><trkpt lat="43.3794425" lon="17.5711274"><ele>272.0</ele><time>2026-04-28T15:35:33.272Z</time></trkpt><trkpt lat="43.3794601" lon="17.5712666"><ele>272.0</ele><time>2026-04-28T15:35:34.274Z</time></trkpt><trkpt lat="43.3794802" lon="17.5714081"><ele>272.0</ele><time>2026-04-28T15:35:35.274Z</time></trkpt><trkpt lat="43.3795017" lon="17.5715486"><ele>272.0</ele><time>2026-04-28T15:35:36.275Z</time></trkpt><trkpt lat="43.3795212" lon="17.5716924"><ele>272.0</ele><time>2026-04-28T15:35:37.273Z</time></trkpt><trkpt lat="43.3795438" lon="17.5718327"><ele>272.0</ele><time>2026-04-28T15:35:38.274Z</time></trkpt><trkpt lat="43.379562" lon="17.5719599"><ele>272.0</ele><time>2026-04-28T15:35:39.275Z</time></trkpt><trkpt lat="43.3795806" lon="17.5720934"><ele>272.0</ele><time>2026-04-28T15:35:40.273Z</time></trkpt><trkpt lat="43.3795961" lon="17.5722076"><ele>272.0</ele><time>2026-04-28T15:35:41.273Z</time></trkpt><trkpt lat="43.3796132" lon="17.5723012"><ele>272.0</ele><time>2026-04-28T15:35:42.273Z</time></trkpt><trkpt lat="43.3796311" lon="17.5724301"><ele>272.0</ele><time>2026-04-28T15:35:44.27Z</time></trkpt><trkpt lat="43.3796414" lon="17.5725212"><ele>272.0</ele><time>2026-04-28T15:35:47.272Z</time></trkpt><trkpt lat="43.3796573" lon="17.5726055"><ele>272.0</ele><time>2026-04-28T15:35:53.272Z</time></trkpt><trkpt lat="43.3796778" lon="17.5727183"><ele>271.83333333333337</ele><time>2026-04-28T15:35:55.271Z</time></trkpt><trkpt lat="43.3796896" lon="17.5728202"><ele>271.6666666666667</ele><time>2026-04-28T15:35:58.271Z</time></trkpt><trkpt lat="43.3797163" lon="17.5729124"><ele>271.5</ele><time>2026-04-28T15:36:01.271Z</time></trkpt><trkpt lat="43.379737" lon="17.573031"><ele>271.3333333333333</ele><time>2026-04-28T15:36:04.271Z</time></trkpt><trkpt lat="43.379747" lon="17.5731425"><ele>271.16666666666663</ele><time>2026-04-28T15:36:07.273Z</time></trkpt><trkpt lat="43.3797698" lon="17.5732554"><ele>271.0</ele><time>2026-04-28T15:36:09.273Z</time></trkpt><trkpt lat="43.3797847" lon="17.57338"><ele>271.0</ele><time>2026-04-28T15:36:11.271Z</time></trkpt><trkpt lat="43.3798089" lon="17.5735209"><ele>271.0</ele><time>2026-04-28T15:36:13.272Z</time></trkpt><trkpt lat="43.3798392" lon="17.5736726"><ele>271.0</ele><time>2026-04-28T15:36:15.274Z</time></trkpt><trkpt lat="43.3798654" lon="17.5738307"><ele>271.0</ele><time>2026-04-28T15:36:17.271Z</time></trkpt><trkpt lat="43.3798758" lon="17.5739169"><ele>271.0</ele><time>2026-04-28T15:36:18.271Z</time></trkpt><trkpt lat="43.379896" lon="17.5740622"><ele>271.40000000000003</ele><time>2026-04-28T15:36:20.272Z</time></trkpt><trkpt lat="43.379919" lon="17.5741805"><ele>271.8</ele><time>2026-04-28T15:36:22.269Z</time></trkpt><trkpt lat="43.3799319" lon="17.5743096"><ele>272.20000000000005</ele><time>2026-04-28T15:36:24.272Z</time></trkpt><trkpt lat="43.3799493" lon="17.5744462"><ele>272.6</ele><time>2026-04-28T15:36:26.271Z</time></trkpt><trkpt lat="43.3799591" lon="17.5745714"><ele>273.0</ele><time>2026-04-28T15:36:28.271Z</time></trkpt><trkpt lat="43.3799815" lon="17.574718"><ele>272.5</ele><time>2026-04-28T15:36:30.269Z</time></trkpt><trkpt lat="43.3800016" lon="17.5748648"><ele>272.0</ele><time>2026-04-28T15:36:32.272Z</time></trkpt><trkpt lat="43.3800227" lon="17.5749787"><ele>271.5</ele><time>2026-04-28T15:36:34.272Z</time></trkpt><trkpt lat="43.3800431" lon="17.5750764"><ele>271.0</ele><time>2026-04-28T15:36:36.268Z</time></trkpt><trkpt lat="43.3800541" lon="17.5751811"><ele>270.5</ele><time>2026-04-28T15:36:38.275Z</time></trkpt><trkpt lat="43.3800712" lon="17.5752912"><ele>270.0</ele><time>2026-04-28T15:36:40.283Z</time></trkpt><trkpt lat="43.3800918" lon="17.5754221"><ele>270.0</ele><time>2026-04-28T15:36:42.271Z</time></trkpt><trkpt lat="43.380118" lon="17.5755699"><ele>270.0</ele><time>2026-04-28T15:36:44.272Z</time></trkpt><trkpt lat="43.380139" lon="17.5757177"><ele>270.0</ele><time>2026-04-28T15:36:46.271Z</time></trkpt><trkpt lat="43.3801464" lon="17.5758075"><ele>270.0</ele><time>2026-04-28T15:36:47.273Z</time></trkpt><trkpt lat="43.3801728" lon="17.575957"><ele>270.0</ele><time>2026-04-28T15:36:49.27Z</time></trkpt><trkpt lat="43.3801946" lon="17.5760954"><ele>269.8333333333333</ele><time>2026-04-28T15:36:51.271Z</time></trkpt><trkpt lat="43.3802186" lon="17.5762408"><ele>269.6666666666667</ele><time>2026-04-28T15:36:53.271Z</time></trkpt><trkpt lat="43.3802426" lon="17.5763911"><ele>269.5</ele><time>2026-04-28T15:36:55.271Z</time></trkpt><trkpt lat="43.3802583" lon="17.5764793"><ele>269.33333333333337</ele><time>2026-04-28T15:36:56.271Z</time></trkpt><trkpt lat="43.3802713" lon="17.5765733"><ele>269.1666666666667</ele><time>2026-04-28T15:36:57.272Z</time></trkpt><trkpt lat="43.3802873" lon="17.5766682"><ele>269.0</ele><time>2026-04-28T15:36:58.275Z</time></trkpt><trkpt lat="43.3803163" lon="17.5768222"><ele>269.0</ele><time>2026-04-28T15:37:00.271Z</time></trkpt><trkpt lat="43.3803361" lon="17.5769717"><ele>269.0</ele><time>2026-04-28T15:37:02.272Z</time></trkpt><trkpt lat="43.3803539" lon="17.5770839"><ele>269.0</ele><time>2026-04-28T15:37:03.271Z</time></trkpt><trkpt lat="43.3803694" lon="17.577203"><ele>269.0</ele><time>2026-04-28T15:37:04.271Z</time></trkpt><trkpt lat="43.3803778" lon="17.5773082"><ele>269.0</ele><time>2026-04-28T15:37:05.273Z</time></trkpt><trkpt lat="43.3804001" lon="17.5774194"><ele>269.0</ele><time>2026-04-28T15:37:06.274Z</time></trkpt><trkpt lat="43.3804125" lon="17.5775267"><ele>269.0</ele><time>2026-04-28T15:37:07.275Z</time></trkpt><trkpt lat="43.3804267" lon="17.5776327"><ele>269.0</ele><time>2026-04-28T15:37:08.272Z</time></trkpt><trkpt lat="43.3804359" lon="17.5777263"><ele>269.0</ele><time>2026-04-28T15:37:09.274Z</time></trkpt><trkpt lat="43.3804425" lon="17.5778129"><ele>269.0</ele><time>2026-04-28T15:37:10.273Z</time></trkpt><trkpt lat="43.3804474" lon="17.5779089"><ele>269.0</ele><time>2026-04-28T15:37:11.273Z</time></trkpt><trkpt lat="43.3804558" lon="17.5780162"><ele>269.0</ele><time>2026-04-28T15:37:12.271Z</time></trkpt><trkpt lat="43.3804618" lon="17.5781237"><ele>269.0</ele><time>2026-04-28T15:37:13.273Z</time></trkpt><trkpt lat="43.3804645" lon="17.5782421"><ele>269.0</ele><time>2026-04-28T15:37:14.27Z</time></trkpt><trkpt lat="43.3804631" lon="17.5783531"><ele>269.0</ele><time>2026-04-28T15:37:15.271Z</time></trkpt><trkpt lat="43.3804698" lon="17.5784517"><ele>269.0</ele><time>2026-04-28T15:37:16.276Z</time></trkpt><trkpt lat="43.3804735" lon="17.5785484"><ele>269.0</ele><time>2026-04-28T15:37:17.284Z</time></trkpt><trkpt lat="43.3804707" lon="17.5786407"><ele>269.0</ele><time>2026-04-28T15:37:18.277Z</time></trkpt><trkpt lat="43.3804733" lon="17.5788038"><ele>269.0</ele><time>2026-04-28T15:37:20.272Z</time></trkpt><trkpt lat="43.3804815" lon="17.5789574"><ele>268.59999999999997</ele><time>2026-04-28T15:37:22.285Z</time></trkpt><trkpt lat="43.3804872" lon="17.5791046"><ele>268.2</ele><time>2026-04-28T15:37:24.275Z</time></trkpt><trkpt lat="43.3804994" lon="17.5792763"><ele>267.79999999999995</ele><time>2026-04-28T15:37:26.272Z</time></trkpt><trkpt lat="43.3804974" lon="17.5793669"><ele>267.4</ele><time>2026-04-28T15:37:27.278Z</time></trkpt><trkpt lat="43.3805036" lon="17.5794715"><ele>267.0</ele><time>2026-04-28T15:37:28.281Z</time></trkpt><trkpt lat="43.3805134" lon="17.5795811"><ele>267.28571428571433</ele><time>2026-04-28T15:37:29.274Z</time></trkpt><trkpt lat="43.3805188" lon="17.5796938"><ele>267.57142857142856</ele><time>2026-04-28T15:37:30.285Z</time></trkpt><trkpt lat="43.380519" lon="17.5798004"><ele>267.8571428571429</ele><time>2026-04-28T15:37:31.274Z</time></trkpt><trkpt lat="43.3805202" lon="17.5799036"><ele>268.14285714285717</ele><time>2026-04-28T15:37:32.275Z</time></trkpt><trkpt lat="43.3805206" lon="17.5800037"><ele>268.42857142857144</ele><time>2026-04-28T15:37:33.274Z</time></trkpt><trkpt lat="43.380521" lon="17.5800936"><ele>268.7142857142857</ele><time>2026-04-28T15:37:34.272Z</time></trkpt><trkpt lat="43.3805218" lon="17.580194"><ele>269.0</ele><time>2026-04-28T15:37:35.278Z</time></trkpt><trkpt lat="43.3805241" lon="17.5802977"><ele>269.0</ele><time>2026-04-28T15:37:36.282Z</time></trkpt><trkpt lat="43.3805252" lon="17.5804022"><ele>269.0</ele><time>2026-04-28T15:37:37.275Z</time></trkpt><trkpt lat="43.3805255" lon="17.5805184"><ele>269.0</ele><time>2026-04-28T15:37:38.275Z</time></trkpt><trkpt lat="43.3805274" lon="17.5806408"><ele>269.0</ele><time>2026-04-28T15:37:39.273Z</time></trkpt><trkpt lat="43.3805318" lon="17.5807731"><ele>269.0</ele><time>2026-04-28T15:37:40.273Z</time></trkpt><trkpt lat="43.3805317" lon="17.5809042"><ele>269.0</ele><time>2026-04-28T15:37:41.273Z</time></trkpt><trkpt lat="43.380534" lon="17.5810478"><ele>268.8</ele><time>2026-04-28T15:37:42.275Z</time></trkpt><trkpt lat="43.3805386" lon="17.5811832"><ele>268.59999999999997</ele><time>2026-04-28T15:37:43.271Z</time></trkpt><trkpt lat="43.3805446" lon="17.5813116"><ele>268.4</ele><time>2026-04-28T15:37:44.274Z</time></trkpt><trkpt lat="43.380544" lon="17.581437"><ele>268.2</ele><time>2026-04-28T15:37:45.275Z</time></trkpt><trkpt lat="43.3805497" lon="17.5815542"><ele>268.0</ele><time>2026-04-28T15:37:46.273Z</time></trkpt><trkpt lat="43.3805517" lon="17.5816656"><ele>268.0</ele><time>2026-04-28T15:37:47.283Z</time></trkpt><trkpt lat="43.3805509" lon="17.5817837"><ele>268.0</ele><time>2026-04-28T15:37:48.273Z</time></trkpt><trkpt lat="43.380554" lon="17.581906"><ele>268.0</ele><time>2026-04-28T15:37:49.274Z</time></trkpt><trkpt lat="43.3805597" lon="17.5820352"><ele>268.0</ele><time>2026-04-28T15:37:50.273Z</time></trkpt><trkpt lat="43.3805723" lon="17.5821692"><ele>268.0</ele><time>2026-04-28T15:37:51.282Z</time></trkpt><trkpt lat="43.3805787" lon="17.5822933"><ele>268.0</ele><time>2026-04-28T15:37:52.274Z</time></trkpt><trkpt lat="43.3805813" lon="17.5824048"><ele>268.0</ele><time>2026-04-28T15:37:53.276Z</time></trkpt><trkpt lat="43.3805881" lon="17.5825061"><ele>268.0</ele><time>2026-04-28T15:37:54.273Z</time></trkpt><trkpt lat="43.380596" lon="17.5826033"><ele>268.0</ele><time>2026-04-28T15:37:55.276Z</time></trkpt><trkpt lat="43.3805982" lon="17.5826978"><ele>268.0</ele><time>2026-04-28T15:37:56.272Z</time></trkpt><trkpt lat="43.3805983" lon="17.5827924"><ele>268.0</ele><time>2026-04-28T15:37:57.274Z</time></trkpt><trkpt lat="43.3806006" lon="17.582893"><ele>268.0</ele><time>2026-04-28T15:37:58.273Z</time></trkpt><trkpt lat="43.3806008" lon="17.5829962"><ele>268.0</ele><time>2026-04-28T15:37:59.279Z</time></trkpt><trkpt lat="43.3806021" lon="17.5831055"><ele>268.0</ele><time>2026-04-28T15:38:00.273Z</time></trkpt><trkpt lat="43.3806044" lon="17.5832142"><ele>268.0</ele><time>2026-04-28T15:38:01.277Z</time></trkpt><trkpt lat="43.380607" lon="17.5833151"><ele>268.0</ele><time>2026-04-28T15:38:02.274Z</time></trkpt><trkpt lat="43.3806124" lon="17.5834077"><ele>268.0</ele><time>2026-04-28T15:38:03.273Z</time></trkpt><trkpt lat="43.3806175" lon="17.5834994"><ele>268.0</ele><time>2026-04-28T15:38:04.274Z</time></trkpt><trkpt lat="43.3806247" lon="17.5835874"><ele>268.0</ele><time>2026-04-28T15:38:05.273Z</time></trkpt><trkpt lat="43.3806355" lon="17.5837468"><ele>268.6</ele><time>2026-04-28T15:38:07.274Z</time></trkpt><trkpt lat="43.3806363" lon="17.5838764"><ele>269.20000000000005</ele><time>2026-04-28T15:38:09.272Z</time></trkpt><trkpt lat="43.3806396" lon="17.5840106"><ele>269.8</ele><time>2026-04-28T15:38:11.273Z</time></trkpt><trkpt lat="43.380633" lon="17.5841439"><ele>270.40000000000003</ele><time>2026-04-28T15:38:13.272Z</time></trkpt><trkpt lat="43.3806345" lon="17.5842877"><ele>271.0</ele><time>2026-04-28T15:38:15.275Z</time></trkpt><trkpt lat="43.3806366" lon="17.5844148"><ele>272.16666666666663</ele><time>2026-04-28T15:38:17.274Z</time></trkpt><trkpt lat="43.3806334" lon="17.5845153"><ele>273.3333333333333</ele><time>2026-04-28T15:38:19.269Z</time></trkpt><trkpt lat="43.3806327" lon="17.5846535"><ele>274.5</ele><time>2026-04-28T15:38:27.27Z</time></trkpt><trkpt lat="43.3806334" lon="17.5847644"><ele>275.6666666666667</ele><time>2026-04-28T15:38:29.274Z</time></trkpt><trkpt lat="43.380623" lon="17.5848603"><ele>276.83333333333337</ele><time>2026-04-28T15:38:32.273Z</time></trkpt><trkpt lat="43.3805931" lon="17.5849388"><ele>278.0</ele><time>2026-04-28T15:38:34.272Z</time></trkpt><trkpt lat="43.3805344" lon="17.5850286"><ele>277.4</ele><time>2026-04-28T15:38:36.273Z</time></trkpt><trkpt lat="43.3804602" lon="17.5851091"><ele>276.8</ele><time>2026-04-28T15:38:38.27Z</time></trkpt><trkpt lat="43.3804096" lon="17.5852144"><ele>276.2</ele><time>2026-04-28T15:38:40.272Z</time></trkpt><trkpt lat="43.3804372" lon="17.5853477"><ele>275.6</ele><time>2026-04-28T15:38:42.271Z</time></trkpt><trkpt lat="43.3805225" lon="17.5854659"><ele>275.0</ele><time>2026-04-28T15:38:44.272Z</time></trkpt><trkpt lat="43.3806003" lon="17.5855801"><ele>275.0</ele><time>2026-04-28T15:38:46.276Z</time></trkpt><trkpt lat="43.3806246" lon="17.5856615"><ele>275.0</ele><time>2026-04-28T15:38:47.273Z</time></trkpt><trkpt lat="43.3806417" lon="17.5858024"><ele>275.0</ele><time>2026-04-28T15:38:49.273Z</time></trkpt><trkpt lat="43.3806626" lon="17.5859728"><ele>275.0</ele><time>2026-04-28T15:38:51.272Z</time></trkpt><trkpt lat="43.3806652" lon="17.5861423"><ele>275.0</ele><time>2026-04-28T15:38:53.271Z</time></trkpt><trkpt lat="43.3806697" lon="17.5862489"><ele>274.2857142857143</ele><time>2026-04-28T15:38:54.278Z</time></trkpt><trkpt lat="43.380675" lon="17.5863513"><ele>273.57142857142856</ele><time>2026-04-28T15:38:55.274Z</time></trkpt><trkpt lat="43.3806771" lon="17.5864495"><ele>272.85714285714283</ele><time>2026-04-28T15:38:56.271Z</time></trkpt><trkpt lat="43.3806736" lon="17.5865374"><ele>272.1428571428571</ele><time>2026-04-28T15:38:57.272Z</time></trkpt><trkpt lat="43.3806691" lon="17.5866328"><ele>271.4285714285714</ele><time>2026-04-28T15:38:58.275Z</time></trkpt><trkpt lat="43.3806543" lon="17.5867289"><ele>270.7142857142857</ele><time>2026-04-28T15:38:59.271Z</time></trkpt><trkpt lat="43.3806475" lon="17.5868257"><ele>270.0</ele><time>2026-04-28T15:39:00.273Z</time></trkpt><trkpt lat="43.3806533" lon="17.586919"><ele>269.4</ele><time>2026-04-28T15:39:01.273Z</time></trkpt><trkpt lat="43.3806624" lon="17.5870356"><ele>268.8</ele><time>2026-04-28T15:39:02.273Z</time></trkpt><trkpt lat="43.3806615" lon="17.5871649"><ele>268.2</ele><time>2026-04-28T15:39:03.272Z</time></trkpt><trkpt lat="43.3806446" lon="17.5873446"><ele>267.6</ele><time>2026-04-28T15:39:04.272Z</time></trkpt><trkpt lat="43.3806138" lon="17.5875298"><ele>267.0</ele><time>2026-04-28T15:39:05.272Z</time></trkpt><trkpt lat="43.380577" lon="17.587722"><ele>266.6666666666667</ele><time>2026-04-28T15:39:06.273Z</time></trkpt><trkpt lat="43.3805336" lon="17.5879474"><ele>266.33333333333337</ele><time>2026-04-28T15:39:07.272Z</time></trkpt><trkpt lat="43.3804814" lon="17.5881425"><ele>266.0</ele><time>2026-04-28T15:39:08.272Z</time></trkpt><trkpt lat="43.3804293" lon="17.5883332"><ele>265.0</ele><time>2026-04-28T15:39:09.272Z</time></trkpt><trkpt lat="43.3803651" lon="17.5885172"><ele>264.0</ele><time>2026-04-28T15:39:10.273Z</time></trkpt><trkpt lat="43.3802885" lon="17.5886946"><ele>263.0</ele><time>2026-04-28T15:39:11.272Z</time></trkpt><trkpt lat="43.3802045" lon="17.5888696"><ele>263.0</ele><time>2026-04-28T15:39:12.272Z</time></trkpt><trkpt lat="43.3801178" lon="17.5890452"><ele>263.0</ele><time>2026-04-28T15:39:13.271Z</time></trkpt><trkpt lat="43.3800242" lon="17.5892107"><ele>263.0</ele><time>2026-04-28T15:39:14.273Z</time></trkpt><trkpt lat="43.3799263" lon="17.5893739"><ele>263.25</ele><time>2026-04-28T15:39:15.271Z</time></trkpt><trkpt lat="43.379824" lon="17.5895239"><ele>263.5</ele><time>2026-04-28T15:39:16.273Z</time></trkpt><trkpt lat="43.3797226" lon="17.5896597"><ele>263.75</ele><time>2026-04-28T15:39:17.272Z</time></trkpt><trkpt lat="43.3796197" lon="17.5897883"><ele>264.0</ele><time>2026-04-28T15:39:18.273Z</time></trkpt><trkpt lat="43.3795107" lon="17.5899143"><ele>265.5</ele><time>2026-04-28T15:39:19.274Z</time></trkpt><trkpt lat="43.3793964" lon="17.5900294"><ele>267.0</ele><time>2026-04-28T15:39:20.273Z</time></trkpt><trkpt lat="43.3792792" lon="17.5901358"><ele>268.5</ele><time>2026-04-28T15:39:21.272Z</time></trkpt><trkpt lat="43.3791552" lon="17.5902426"><ele>270.0</ele><time>2026-04-28T15:39:22.273Z</time></trkpt><trkpt lat="43.3790249" lon="17.5903343"><ele>270.6666666666667</ele><time>2026-04-28T15:39:23.271Z</time></trkpt><trkpt lat="43.3788885" lon="17.5904207"><ele>271.33333333333337</ele><time>2026-04-28T15:39:24.269Z</time></trkpt><trkpt lat="43.3787466" lon="17.590512"><ele>272.0</ele><time>2026-04-28T15:39:25.27Z</time></trkpt><trkpt lat="43.3785954" lon="17.5906069"><ele>272.0</ele><time>2026-04-28T15:39:26.269Z</time></trkpt><trkpt lat="43.3784271" lon="17.5907135"><ele>272.0</ele><time>2026-04-28T15:39:27.274Z</time></trkpt><trkpt lat="43.3782335" lon="17.5908326"><ele>272.0</ele><time>2026-04-28T15:39:28.272Z</time></trkpt><trkpt lat="43.3780328" lon="17.590959"><ele>269.33333333333337</ele><time>2026-04-28T15:39:29.273Z</time></trkpt><trkpt lat="43.3778507" lon="17.5910732"><ele>266.6666666666667</ele><time>2026-04-28T15:39:30.272Z</time></trkpt><trkpt lat="43.3776638" lon="17.591188"><ele>264.0</ele><time>2026-04-28T15:39:31.278Z</time></trkpt><trkpt lat="43.3774775" lon="17.5912966"><ele>264.0</ele><time>2026-04-28T15:39:32.274Z</time></trkpt><trkpt lat="43.3772997" lon="17.5913993"><ele>264.0</ele><time>2026-04-28T15:39:33.272Z</time></trkpt><trkpt lat="43.3771317" lon="17.5915012"><ele>264.0</ele><time>2026-04-28T15:39:34.274Z</time></trkpt><trkpt lat="43.3769653" lon="17.5916145"><ele>264.3333333333333</ele><time>2026-04-28T15:39:35.275Z</time></trkpt><trkpt lat="43.3768272" lon="17.5917503"><ele>264.66666666666663</ele><time>2026-04-28T15:39:36.273Z</time></trkpt><trkpt lat="43.3766878" lon="17.591897"><ele>265.0</ele><time>2026-04-28T15:39:37.274Z</time></trkpt><trkpt lat="43.3765546" lon="17.5920621"><ele>265.0</ele><time>2026-04-28T15:39:38.273Z</time></trkpt><trkpt lat="43.37643" lon="17.5922289"><ele>265.0</ele><time>2026-04-28T15:39:39.274Z</time></trkpt><trkpt lat="43.3763213" lon="17.5924089"><ele>265.0</ele><time>2026-04-28T15:39:40.274Z</time></trkpt><trkpt lat="43.3762269" lon="17.5926022"><ele>273.0</ele><time>2026-04-28T15:39:41.272Z</time></trkpt><trkpt lat="43.3761476" lon="17.5928123"><ele>281.0</ele><time>2026-04-28T15:39:42.272Z</time></trkpt><trkpt lat="43.3760789" lon="17.5930196"><ele>289.0</ele><time>2026-04-28T15:39:43.273Z</time></trkpt><trkpt lat="43.3760362" lon="17.5932502"><ele>289.0</ele><time>2026-04-28T15:39:44.272Z</time></trkpt><trkpt lat="43.3759988" lon="17.5934656"><ele>289.0</ele><time>2026-04-28T15:39:45.272Z</time></trkpt><trkpt lat="43.3759785" lon="17.5936663"><ele>289.0</ele><time>2026-04-28T15:39:46.273Z</time></trkpt><trkpt lat="43.3759674" lon="17.5938663"><ele>286.5</ele><time>2026-04-28T15:39:47.281Z</time></trkpt><trkpt lat="43.3759615" lon="17.5940555"><ele>284.0</ele><time>2026-04-28T15:39:48.271Z</time></trkpt><trkpt lat="43.3759547" lon="17.5942392"><ele>281.5</ele><time>2026-04-28T15:39:49.271Z</time></trkpt><trkpt lat="43.3759499" lon="17.594426"><ele>279.0</ele><time>2026-04-28T15:39:50.271Z</time></trkpt><trkpt lat="43.3759461" lon="17.5946207"><ele>277.25</ele><time>2026-04-28T15:39:51.274Z</time></trkpt><trkpt lat="43.3759392" lon="17.5948086"><ele>275.5</ele><time>2026-04-28T15:39:52.275Z</time></trkpt><trkpt lat="43.3759245" lon="17.5950141"><ele>273.75</ele><time>2026-04-28T15:39:53.274Z</time></trkpt><trkpt lat="43.3758981" lon="17.5952158"><ele>272.0</ele><time>2026-04-28T15:39:54.273Z</time></trkpt><trkpt lat="43.3758538" lon="17.5954298"><ele>269.33333333333337</ele><time>2026-04-28T15:39:55.272Z</time></trkpt><trkpt lat="43.3758011" lon="17.5956424"><ele>266.6666666666667</ele><time>2026-04-28T15:39:56.276Z</time></trkpt><trkpt lat="43.375743" lon="17.5958386"><ele>264.0</ele><time>2026-04-28T15:39:57.273Z</time></trkpt><trkpt lat="43.3756618" lon="17.5960126"><ele>263.3333333333333</ele><time>2026-04-28T15:39:58.274Z</time></trkpt><trkpt lat="43.3755763" lon="17.5961898"><ele>262.66666666666663</ele><time>2026-04-28T15:39:59.272Z</time></trkpt><trkpt lat="43.3754714" lon="17.5963574"><ele>262.0</ele><time>2026-04-28T15:40:00.271Z</time></trkpt><trkpt lat="43.3753631" lon="17.5965044"><ele>261.3333333333333</ele><time>2026-04-28T15:40:01.272Z</time></trkpt><trkpt lat="43.3752476" lon="17.5966428"><ele>260.6666666666667</ele><time>2026-04-28T15:40:02.272Z</time></trkpt><trkpt lat="43.3751311" lon="17.5967818"><ele>260.0</ele><time>2026-04-28T15:40:03.272Z</time></trkpt><trkpt lat="43.3750061" lon="17.596925"><ele>260.6666666666667</ele><time>2026-04-28T15:40:04.271Z</time></trkpt><trkpt lat="43.3748825" lon="17.5970635"><ele>261.3333333333333</ele><time>2026-04-28T15:40:05.273Z</time></trkpt><trkpt lat="43.3747562" lon="17.5972092"><ele>262.0</ele><time>2026-04-28T15:40:06.274Z</time></trkpt><trkpt lat="43.3746278" lon="17.597351"><ele>262.0</ele><time>2026-04-28T15:40:07.272Z</time></trkpt><trkpt lat="43.3745037" lon="17.5974829"><ele>262.0</ele><time>2026-04-28T15:40:08.273Z</time></trkpt><trkpt lat="43.3743776" lon="17.5976142"><ele>262.0</ele><time>2026-04-28T15:40:09.273Z</time></trkpt><trkpt lat="43.3742535" lon="17.5977519"><ele>268.66666666666663</ele><time>2026-04-28T15:40:10.271Z</time></trkpt><trkpt lat="43.3741289" lon="17.5978855"><ele>275.3333333333333</ele><time>2026-04-28T15:40:11.272Z</time></trkpt><trkpt lat="43.3740059" lon="17.5980206"><ele>282.0</ele><time>2026-04-28T15:40:12.274Z</time></trkpt><trkpt lat="43.3738853" lon="17.5981559"><ele>276.0</ele><time>2026-04-28T15:40:13.273Z</time></trkpt><trkpt lat="43.3737635" lon="17.5982937"><ele>270.0</ele><time>2026-04-28T15:40:14.273Z</time></trkpt><trkpt lat="43.3736351" lon="17.5984456"><ele>264.0</ele><time>2026-04-28T15:40:15.273Z</time></trkpt><trkpt lat="43.3735125" lon="17.5986039"><ele>268.3333333333333</ele><time>2026-04-28T15:40:16.273Z</time></trkpt><trkpt lat="43.3734009" lon="17.5987683"><ele>272.66666666666663</ele><time>2026-04-28T15:40:17.272Z</time></trkpt><trkpt lat="43.3732982" lon="17.5989487"><ele>277.0</ele><time>2026-04-28T15:40:18.272Z</time></trkpt><trkpt lat="43.3731997" lon="17.5991288"><ele>277.0</ele><time>2026-04-28T15:40:19.272Z</time></trkpt><trkpt lat="43.373114" lon="17.5993224"><ele>277.0</ele><time>2026-04-28T15:40:20.272Z</time></trkpt><trkpt lat="43.3730385" lon="17.599523"><ele>277.0</ele><time>2026-04-28T15:40:21.272Z</time></trkpt><trkpt lat="43.3729719" lon="17.5997288"><ele>274.0</ele><time>2026-04-28T15:40:22.27Z</time></trkpt><trkpt lat="43.3729176" lon="17.5999447"><ele>271.0</ele><time>2026-04-28T15:40:23.272Z</time></trkpt><trkpt lat="43.3728768" lon="17.6001632"><ele>268.0</ele><time>2026-04-28T15:40:24.272Z</time></trkpt><trkpt lat="43.372845" lon="17.6003913"><ele>268.0</ele><time>2026-04-28T15:40:25.271Z</time></trkpt><trkpt lat="43.3728168" lon="17.6006272"><ele>268.0</ele><time>2026-04-28T15:40:26.279Z</time></trkpt><trkpt lat="43.3728034" lon="17.6008655"><ele>268.0</ele><time>2026-04-28T15:40:27.272Z</time></trkpt><trkpt lat="43.3728054" lon="17.6010992"><ele>268.66666666666663</ele><time>2026-04-28T15:40:28.271Z</time></trkpt><trkpt lat="43.3728111" lon="17.6013365"><ele>269.3333333333333</ele><time>2026-04-28T15:40:29.273Z</time></trkpt><trkpt lat="43.3728266" lon="17.6015676"><ele>270.0</ele><time>2026-04-28T15:40:30.27Z</time></trkpt><trkpt lat="43.3728482" lon="17.601796"><ele>269.3333333333333</ele><time>2026-04-28T15:40:31.273Z</time></trkpt><trkpt lat="43.3728694" lon="17.6020198"><ele>268.66666666666663</ele><time>2026-04-28T15:40:32.273Z</time></trkpt><trkpt lat="43.3728832" lon="17.6022373"><ele>268.0</ele><time>2026-04-28T15:40:33.271Z</time></trkpt><trkpt lat="43.3728901" lon="17.6024581"><ele>268.0</ele><time>2026-04-28T15:40:34.272Z</time></trkpt><trkpt lat="43.3728842" lon="17.6026826"><ele>268.0</ele><time>2026-04-28T15:40:35.271Z</time></trkpt><trkpt lat="43.3728626" lon="17.6029066"><ele>268.0</ele><time>2026-04-28T15:40:36.273Z</time></trkpt><trkpt lat="43.3728385" lon="17.6031358"><ele>268.3333333333333</ele><time>2026-04-28T15:40:37.271Z</time></trkpt><trkpt lat="43.3728152" lon="17.6033652"><ele>268.6666666666667</ele><time>2026-04-28T15:40:38.273Z</time></trkpt><trkpt lat="43.3727956" lon="17.6035945"><ele>269.0</ele><time>2026-04-28T15:40:39.272Z</time></trkpt><trkpt lat="43.3727837" lon="17.6038309"><ele>269.33333333333337</ele><time>2026-04-28T15:40:40.271Z</time></trkpt><trkpt lat="43.3727742" lon="17.6040585"><ele>269.6666666666667</ele><time>2026-04-28T15:40:41.273Z</time></trkpt><trkpt lat="43.372773" lon="17.6042809"><ele>270.0</ele><time>2026-04-28T15:40:42.273Z</time></trkpt><trkpt lat="43.3727891" lon="17.6045018"><ele>270.3333333333333</ele><time>2026-04-28T15:40:43.274Z</time></trkpt><trkpt lat="43.3727965" lon="17.6047045"><ele>270.66666666666663</ele><time>2026-04-28T15:40:44.274Z</time></trkpt><trkpt lat="43.3728251" lon="17.6049128"><ele>271.0</ele><time>2026-04-28T15:40:45.275Z</time></trkpt><trkpt lat="43.372865" lon="17.6051159"><ele>271.0</ele><time>2026-04-28T15:40:46.272Z</time></trkpt><trkpt lat="43.3729129" lon="17.6053078"><ele>271.0</ele><time>2026-04-28T15:40:47.272Z</time></trkpt><trkpt lat="43.3729639" lon="17.6054974"><ele>271.0</ele><time>2026-04-28T15:40:48.273Z</time></trkpt><trkpt lat="43.3730206" lon="17.6056909"><ele>271.0</ele><time>2026-04-28T15:40:49.272Z</time></trkpt><trkpt lat="43.373085" lon="17.6058852"><ele>275.0</ele><time>2026-04-28T15:40:50.273Z</time></trkpt><trkpt lat="43.3731515" lon="17.606086"><ele>279.0</ele><time>2026-04-28T15:40:51.275Z</time></trkpt><trkpt lat="43.3732227" lon="17.6062903"><ele>283.0</ele><time>2026-04-28T15:40:52.276Z</time></trkpt><trkpt lat="43.3732958" lon="17.6064952"><ele>283.0</ele><time>2026-04-28T15:40:53.271Z</time></trkpt><trkpt lat="43.3733668" lon="17.6067031"><ele>283.0</ele><time>2026-04-28T15:40:54.272Z</time></trkpt><trkpt lat="43.3734359" lon="17.6069133"><ele>283.0</ele><time>2026-04-28T15:40:55.275Z</time></trkpt><trkpt lat="43.3734976" lon="17.6071251"><ele>283.0</ele><time>2026-04-28T15:40:56.273Z</time></trkpt><trkpt lat="43.3735484" lon="17.6073562"><ele>283.0</ele><time>2026-04-28T15:40:57.271Z</time></trkpt><trkpt lat="43.3735884" lon="17.6075873"><ele>283.0</ele><time>2026-04-28T15:40:58.272Z</time></trkpt><trkpt lat="43.3736108" lon="17.6078219"><ele>282.3333333333333</ele><time>2026-04-28T15:40:59.272Z</time></trkpt><trkpt lat="43.3736183" lon="17.6080563"><ele>281.6666666666667</ele><time>2026-04-28T15:41:00.273Z</time></trkpt><trkpt lat="43.3736158" lon="17.6082796"><ele>281.0</ele><time>2026-04-28T15:41:01.272Z</time></trkpt><trkpt lat="43.3736033" lon="17.6084884"><ele>280.75</ele><time>2026-04-28T15:41:02.272Z</time></trkpt><trkpt lat="43.3735897" lon="17.6086875"><ele>280.5</ele><time>2026-04-28T15:41:03.274Z</time></trkpt><trkpt lat="43.3735673" lon="17.6088828"><ele>280.25</ele><time>2026-04-28T15:41:04.275Z</time></trkpt><trkpt lat="43.373539" lon="17.6090718"><ele>280.0</ele><time>2026-04-28T15:41:05.272Z</time></trkpt><trkpt lat="43.3735063" lon="17.6092723"><ele>280.0</ele><time>2026-04-28T15:41:06.273Z</time></trkpt><trkpt lat="43.3734669" lon="17.6094682"><ele>280.0</ele><time>2026-04-28T15:41:07.273Z</time></trkpt><trkpt lat="43.3734272" lon="17.6096465"><ele>280.0</ele><time>2026-04-28T15:41:08.271Z</time></trkpt><trkpt lat="43.3733862" lon="17.6098273"><ele>280.0</ele><time>2026-04-28T15:41:09.274Z</time></trkpt><trkpt lat="43.3733481" lon="17.6100104"><ele>280.5</ele><time>2026-04-28T15:41:10.274Z</time></trkpt><trkpt lat="43.3733065" lon="17.6101809"><ele>281.0</ele><time>2026-04-28T15:41:11.272Z</time></trkpt><trkpt lat="43.3732664" lon="17.6103528"><ele>281.5</ele><time>2026-04-28T15:41:12.273Z</time></trkpt><trkpt lat="43.3732298" lon="17.6105224"><ele>282.0</ele><time>2026-04-28T15:41:13.272Z</time></trkpt><trkpt lat="43.3731924" lon="17.6106886"><ele>282.75</ele><time>2026-04-28T15:41:14.272Z</time></trkpt><trkpt lat="43.373157" lon="17.6108496"><ele>283.5</ele><time>2026-04-28T15:41:15.272Z</time></trkpt><trkpt lat="43.3731214" lon="17.6110114"><ele>284.25</ele><time>2026-04-28T15:41:16.275Z</time></trkpt><trkpt lat="43.3730853" lon="17.6111657"><ele>285.0</ele><time>2026-04-28T15:41:17.273Z</time></trkpt><trkpt lat="43.373051" lon="17.611323"><ele>281.6</ele><time>2026-04-28T15:41:18.273Z</time></trkpt><trkpt lat="43.3730157" lon="17.6114674"><ele>278.2</ele><time>2026-04-28T15:41:19.272Z</time></trkpt><trkpt lat="43.372987" lon="17.611605"><ele>274.8</ele><time>2026-04-28T15:41:20.273Z</time></trkpt><trkpt lat="43.3729564" lon="17.6117255"><ele>271.4</ele><time>2026-04-28T15:41:21.274Z</time></trkpt><trkpt lat="43.3729319" lon="17.6118509"><ele>268.0</ele><time>2026-04-28T15:41:22.273Z</time></trkpt><trkpt lat="43.3729017" lon="17.6119787"><ele>270.25</ele><time>2026-04-28T15:41:23.273Z</time></trkpt><trkpt lat="43.3728701" lon="17.6121157"><ele>272.5</ele><time>2026-04-28T15:41:24.273Z</time></trkpt><trkpt lat="43.3728449" lon="17.6122724"><ele>274.75</ele><time>2026-04-28T15:41:25.276Z</time></trkpt><trkpt lat="43.3728195" lon="17.612433"><ele>277.0</ele><time>2026-04-28T15:41:26.273Z</time></trkpt><trkpt lat="43.372796" lon="17.6126093"><ele>277.0</ele><time>2026-04-28T15:41:27.271Z</time></trkpt><trkpt lat="43.3727719" lon="17.6127943"><ele>277.0</ele><time>2026-04-28T15:41:28.274Z</time></trkpt><trkpt lat="43.3727484" lon="17.6129837"><ele>277.0</ele><time>2026-04-28T15:41:29.274Z</time></trkpt><trkpt lat="43.3727353" lon="17.6131689"><ele>277.0</ele><time>2026-04-28T15:41:30.274Z</time></trkpt><trkpt lat="43.372723" lon="17.6133437"><ele>278.25</ele><time>2026-04-28T15:41:31.274Z</time></trkpt><trkpt lat="43.3727169" lon="17.6135217"><ele>279.5</ele><time>2026-04-28T15:41:32.273Z</time></trkpt><trkpt lat="43.3727101" lon="17.6136923"><ele>280.75</ele><time>2026-04-28T15:41:33.272Z</time></trkpt><trkpt lat="43.3727055" lon="17.6138583"><ele>282.0</ele><time>2026-04-28T15:41:34.272Z</time></trkpt><trkpt lat="43.3727041" lon="17.6140317"><ele>281.75</ele><time>2026-04-28T15:41:35.272Z</time></trkpt><trkpt lat="43.3726998" lon="17.6142058"><ele>281.5</ele><time>2026-04-28T15:41:36.274Z</time></trkpt><trkpt lat="43.3726932" lon="17.6143814"><ele>281.25</ele><time>2026-04-28T15:41:37.273Z</time></trkpt><trkpt lat="43.3726819" lon="17.6145571"><ele>281.0</ele><time>2026-04-28T15:41:38.272Z</time></trkpt><trkpt lat="43.3726666" lon="17.6147367"><ele>281.0</ele><time>2026-04-28T15:41:39.272Z</time></trkpt><trkpt lat="43.372649" lon="17.614913"><ele>281.0</ele><time>2026-04-28T15:41:40.272Z</time></trkpt><trkpt lat="43.3726221" lon="17.6150821"><ele>281.0</ele><time>2026-04-28T15:41:41.272Z</time></trkpt><trkpt lat="43.3725897" lon="17.6152445"><ele>281.0</ele><time>2026-04-28T15:41:42.275Z</time></trkpt><trkpt lat="43.3725521" lon="17.6153968"><ele>280.40000000000003</ele><time>2026-04-28T15:41:43.272Z</time></trkpt><trkpt lat="43.3725217" lon="17.6155545"><ele>279.8</ele><time>2026-04-28T15:41:44.271Z</time></trkpt><trkpt lat="43.3724928" lon="17.6157082"><ele>279.20000000000005</ele><time>2026-04-28T15:41:45.273Z</time></trkpt><trkpt lat="43.3724539" lon="17.6158425"><ele>278.6</ele><time>2026-04-28T15:41:46.274Z</time></trkpt><trkpt lat="43.3724154" lon="17.6159689"><ele>278.0</ele><time>2026-04-28T15:41:47.274Z</time></trkpt><trkpt lat="43.3723766" lon="17.6161055"><ele>278.0</ele><time>2026-04-28T15:41:48.273Z</time></trkpt><trkpt lat="43.3723276" lon="17.6162341"><ele>278.0</ele><time>2026-04-28T15:41:49.272Z</time></trkpt><trkpt lat="43.3722784" lon="17.6163667"><ele>278.0</ele><time>2026-04-28T15:41:50.275Z</time></trkpt><trkpt lat="43.3722311" lon="17.6164974"><ele>278.0</ele><time>2026-04-28T15:41:51.271Z</time></trkpt><trkpt lat="43.3721745" lon="17.6166379"><ele>278.0</ele><time>2026-04-28T15:41:52.272Z</time></trkpt><trkpt lat="43.3721283" lon="17.6167772"><ele>278.0</ele><time>2026-04-28T15:41:53.272Z</time></trkpt><trkpt lat="43.3720767" lon="17.6169027"><ele>278.0</ele><time>2026-04-28T15:41:54.279Z</time></trkpt><trkpt lat="43.3720295" lon="17.6170212"><ele>278.0</ele><time>2026-04-28T15:41:55.273Z</time></trkpt><trkpt lat="43.3719837" lon="17.6171383"><ele>278.0</ele><time>2026-04-28T15:41:56.271Z</time></trkpt><trkpt lat="43.3719373" lon="17.6172567"><ele>278.0</ele><time>2026-04-28T15:41:57.273Z</time></trkpt><trkpt lat="43.3718909" lon="17.6173812"><ele>277.75</ele><time>2026-04-28T15:41:58.272Z</time></trkpt><trkpt lat="43.3718382" lon="17.6175116"><ele>277.5</ele><time>2026-04-28T15:41:59.272Z</time></trkpt><trkpt lat="43.3717878" lon="17.617657"><ele>277.25</ele><time>2026-04-28T15:42:00.271Z</time></trkpt><trkpt lat="43.3717337" lon="17.6178008"><ele>277.0</ele><time>2026-04-28T15:42:01.273Z</time></trkpt><trkpt lat="43.3716739" lon="17.617955"><ele>277.75</ele><time>2026-04-28T15:42:02.273Z</time></trkpt><trkpt lat="43.3716174" lon="17.6181096"><ele>278.5</ele><time>2026-04-28T15:42:03.276Z</time></trkpt><trkpt lat="43.3715612" lon="17.6182757"><ele>279.25</ele><time>2026-04-28T15:42:04.273Z</time></trkpt><trkpt lat="43.3715091" lon="17.6184354"><ele>280.0</ele><time>2026-04-28T15:42:05.272Z</time></trkpt><trkpt lat="43.3714592" lon="17.6185914"><ele>280.0</ele><time>2026-04-28T15:42:06.271Z</time></trkpt><trkpt lat="43.3714162" lon="17.6187422"><ele>280.0</ele><time>2026-04-28T15:42:07.273Z</time></trkpt><trkpt lat="43.3713708" lon="17.6188899"><ele>280.0</ele><time>2026-04-28T15:42:08.271Z</time></trkpt><trkpt lat="43.3713248" lon="17.619044"><ele>280.0</ele><time>2026-04-28T15:42:09.272Z</time></trkpt><trkpt lat="43.3712824" lon="17.6192027"><ele>280.0</ele><time>2026-04-28T15:42:10.272Z</time></trkpt><trkpt lat="43.3712406" lon="17.6193623"><ele>280.0</ele><time>2026-04-28T15:42:11.273Z</time></trkpt><trkpt lat="43.371198" lon="17.6195325"><ele>280.0</ele><time>2026-04-28T15:42:12.269Z</time></trkpt><trkpt lat="43.3711596" lon="17.6197017"><ele>280.0</ele><time>2026-04-28T15:42:13.27Z</time></trkpt><trkpt lat="43.3711282" lon="17.6198841"><ele>280.75</ele><time>2026-04-28T15:42:14.27Z</time></trkpt><trkpt lat="43.371095" lon="17.6200645"><ele>281.5</ele><time>2026-04-28T15:42:15.269Z</time></trkpt><trkpt lat="43.3710643" lon="17.6202461"><ele>282.25</ele><time>2026-04-28T15:42:16.274Z</time></trkpt><trkpt lat="43.3710369" lon="17.6204397"><ele>283.0</ele><time>2026-04-28T15:42:17.271Z</time></trkpt><trkpt lat="43.3710075" lon="17.6206193"><ele>283.5</ele><time>2026-04-28T15:42:18.273Z</time></trkpt><trkpt lat="43.3709801" lon="17.6207968"><ele>284.0</ele><time>2026-04-28T15:42:19.273Z</time></trkpt><trkpt lat="43.3709531" lon="17.6209688"><ele>284.5</ele><time>2026-04-28T15:42:20.272Z</time></trkpt><trkpt lat="43.3709276" lon="17.6211331"><ele>285.0</ele><time>2026-04-28T15:42:21.275Z</time></trkpt><trkpt lat="43.3709031" lon="17.6212854"><ele>285.25</ele><time>2026-04-28T15:42:22.272Z</time></trkpt><trkpt lat="43.37088" lon="17.621446"><ele>285.5</ele><time>2026-04-28T15:42:23.273Z</time></trkpt><trkpt lat="43.3708548" lon="17.621604"><ele>285.75</ele><time>2026-04-28T15:42:24.271Z</time></trkpt><trkpt lat="43.3708281" lon="17.6217703"><ele>286.0</ele><time>2026-04-28T15:42:25.273Z</time></trkpt><trkpt lat="43.3707991" lon="17.6219439"><ele>286.5</ele><time>2026-04-28T15:42:26.274Z</time></trkpt><trkpt lat="43.3707664" lon="17.6221103"><ele>287.0</ele><time>2026-04-28T15:42:27.271Z</time></trkpt><trkpt lat="43.3707252" lon="17.6222702"><ele>287.5</ele><time>2026-04-28T15:42:28.272Z</time></trkpt><trkpt lat="43.3706755" lon="17.6224276"><ele>288.0</ele><time>2026-04-28T15:42:29.274Z</time></trkpt><trkpt lat="43.3706142" lon="17.6225858"><ele>288.0</ele><time>2026-04-28T15:42:30.275Z</time></trkpt><trkpt lat="43.3705444" lon="17.6227371"><ele>288.0</ele><time>2026-04-28T15:42:31.273Z</time></trkpt><trkpt lat="43.3704702" lon="17.6228775"><ele>288.0</ele><time>2026-04-28T15:42:32.273Z</time></trkpt><trkpt lat="43.3704" lon="17.6230111"><ele>288.0</ele><time>2026-04-28T15:42:33.274Z</time></trkpt><trkpt lat="43.3703256" lon="17.6231513"><ele>287.75</ele><time>2026-04-28T15:42:34.274Z</time></trkpt><trkpt lat="43.3702507" lon="17.6232955"><ele>287.5</ele><time>2026-04-28T15:42:35.274Z</time></trkpt><trkpt lat="43.3701775" lon="17.6234455"><ele>287.25</ele><time>2026-04-28T15:42:36.273Z</time></trkpt><trkpt lat="43.3701024" lon="17.6235824"><ele>287.0</ele><time>2026-04-28T15:42:37.273Z</time></trkpt><trkpt lat="43.3700257" lon="17.623709"><ele>287.75</ele><time>2026-04-28T15:42:38.273Z</time></trkpt><trkpt lat="43.3699544" lon="17.6238333"><ele>288.5</ele><time>2026-04-28T15:42:39.273Z</time></trkpt><trkpt lat="43.3698793" lon="17.6239741"><ele>289.25</ele><time>2026-04-28T15:42:40.273Z</time></trkpt><trkpt lat="43.3698117" lon="17.6241165"><ele>290.0</ele><time>2026-04-28T15:42:41.273Z</time></trkpt><trkpt lat="43.3697451" lon="17.6242686"><ele>288.5</ele><time>2026-04-28T15:42:42.273Z</time></trkpt><trkpt lat="43.3696786" lon="17.624435"><ele>287.0</ele><time>2026-04-28T15:42:43.278Z</time></trkpt><trkpt lat="43.3696182" lon="17.6246059"><ele>285.5</ele><time>2026-04-28T15:42:44.276Z</time></trkpt><trkpt lat="43.3695679" lon="17.6247732"><ele>284.0</ele><time>2026-04-28T15:42:45.273Z</time></trkpt><trkpt lat="43.3695298" lon="17.6249493"><ele>284.0</ele><time>2026-04-28T15:42:46.272Z</time></trkpt><trkpt lat="43.3695038" lon="17.6251187"><ele>284.0</ele><time>2026-04-28T15:42:47.273Z</time></trkpt><trkpt lat="43.3694768" lon="17.6252802"><ele>284.0</ele><time>2026-04-28T15:42:48.274Z</time></trkpt><trkpt lat="43.369452" lon="17.6254478"><ele>284.0</ele><time>2026-04-28T15:42:49.273Z</time></trkpt><trkpt lat="43.3694209" lon="17.6255965"><ele>284.25</ele><time>2026-04-28T15:42:50.274Z</time></trkpt><trkpt lat="43.3693907" lon="17.6257548"><ele>284.5</ele><time>2026-04-28T15:42:51.272Z</time></trkpt><trkpt lat="43.3693459" lon="17.6259157"><ele>284.75</ele><time>2026-04-28T15:42:52.272Z</time></trkpt><trkpt lat="43.3692886" lon="17.626089"><ele>285.0</ele><time>2026-04-28T15:42:53.273Z</time></trkpt><trkpt lat="43.3692178" lon="17.6262761"><ele>286.0</ele><time>2026-04-28T15:42:54.274Z</time></trkpt><trkpt lat="43.3691422" lon="17.6264652"><ele>287.0</ele><time>2026-04-28T15:42:55.272Z</time></trkpt><trkpt lat="43.36907" lon="17.626661"><ele>288.0</ele><time>2026-04-28T15:42:56.271Z</time></trkpt><trkpt lat="43.3690039" lon="17.6268551"><ele>288.75</ele><time>2026-04-28T15:42:57.271Z</time></trkpt><trkpt lat="43.3689457" lon="17.6270435"><ele>289.5</ele><time>2026-04-28T15:42:58.274Z</time></trkpt><trkpt lat="43.3688853" lon="17.6272215"><ele>290.25</ele><time>2026-04-28T15:42:59.272Z</time></trkpt><trkpt lat="43.3688285" lon="17.6273973"><ele>291.0</ele><time>2026-04-28T15:43:00.277Z</time></trkpt><trkpt lat="43.3687735" lon="17.6275662"><ele>289.0</ele><time>2026-04-28T15:43:01.271Z</time></trkpt><trkpt lat="43.3687153" lon="17.6277351"><ele>287.0</ele><time>2026-04-28T15:43:02.273Z</time></trkpt><trkpt lat="43.3686529" lon="17.6278926"><ele>285.0</ele><time>2026-04-28T15:43:03.277Z</time></trkpt><trkpt lat="43.3685711" lon="17.6280486"><ele>283.0</ele><time>2026-04-28T15:43:04.274Z</time></trkpt><trkpt lat="43.3684812" lon="17.6281962"><ele>283.0</ele><time>2026-04-28T15:43:05.272Z</time></trkpt><trkpt lat="43.3683823" lon="17.6283395"><ele>283.0</ele><time>2026-04-28T15:43:06.286Z</time></trkpt><trkpt lat="43.3682714" lon="17.6284621"><ele>283.0</ele><time>2026-04-28T15:43:07.274Z</time></trkpt><trkpt lat="43.3681563" lon="17.6285773"><ele>283.0</ele><time>2026-04-28T15:43:08.273Z</time></trkpt><trkpt lat="43.3680293" lon="17.6286732"><ele>281.75</ele><time>2026-04-28T15:43:09.276Z</time></trkpt><trkpt lat="43.3679007" lon="17.6287733"><ele>280.5</ele><time>2026-04-28T15:43:10.273Z</time></trkpt><trkpt lat="43.3677782" lon="17.6288919"><ele>279.25</ele><time>2026-04-28T15:43:11.273Z</time></trkpt><trkpt lat="43.3676741" lon="17.6290241"><ele>278.0</ele><time>2026-04-28T15:43:12.274Z</time></trkpt><trkpt lat="43.3675784" lon="17.62917"><ele>278.0</ele><time>2026-04-28T15:43:13.275Z</time></trkpt><trkpt lat="43.3674952" lon="17.6293395"><ele>278.0</ele><time>2026-04-28T15:43:14.275Z</time></trkpt><trkpt lat="43.3674184" lon="17.6295108"><ele>278.0</ele><time>2026-04-28T15:43:15.272Z</time></trkpt><trkpt lat="43.3673483" lon="17.6296768"><ele>278.0</ele><time>2026-04-28T15:43:16.272Z</time></trkpt><trkpt lat="43.3672815" lon="17.6298364"><ele>277.5</ele><time>2026-04-28T15:43:17.272Z</time></trkpt><trkpt lat="43.3672195" lon="17.62999"><ele>277.0</ele><time>2026-04-28T15:43:18.275Z</time></trkpt><trkpt lat="43.3671613" lon="17.6301395"><ele>276.5</ele><time>2026-04-28T15:43:19.274Z</time></trkpt><trkpt lat="43.3671063" lon="17.6303017"><ele>276.0</ele><time>2026-04-28T15:43:20.273Z</time></trkpt><trkpt lat="43.3670575" lon="17.630479"><ele>275.25</ele><time>2026-04-28T15:43:21.272Z</time></trkpt><trkpt lat="43.3670069" lon="17.6306629"><ele>274.5</ele><time>2026-04-28T15:43:22.273Z</time></trkpt><trkpt lat="43.366969" lon="17.6308605"><ele>273.75</ele><time>2026-04-28T15:43:23.275Z</time></trkpt><trkpt lat="43.3669358" lon="17.6310598"><ele>273.0</ele><time>2026-04-28T15:43:24.279Z</time></trkpt><trkpt lat="43.3669109" lon="17.6312551"><ele>273.0</ele><time>2026-04-28T15:43:25.274Z</time></trkpt><trkpt lat="43.3668884" lon="17.6314554"><ele>273.0</ele><time>2026-04-28T15:43:26.273Z</time></trkpt><trkpt lat="43.3668697" lon="17.6316608"><ele>273.0</ele><time>2026-04-28T15:43:27.277Z</time></trkpt><trkpt lat="43.3668447" lon="17.6318608"><ele>273.0</ele><time>2026-04-28T15:43:28.271Z</time></trkpt><trkpt lat="43.3668132" lon="17.6320669"><ele>272.5</ele><time>2026-04-28T15:43:29.271Z</time></trkpt><trkpt lat="43.3667773" lon="17.6322724"><ele>272.0</ele><time>2026-04-28T15:43:30.272Z</time></trkpt><trkpt lat="43.3667411" lon="17.6324702"><ele>271.5</ele><time>2026-04-28T15:43:31.273Z</time></trkpt><trkpt lat="43.3667136" lon="17.6326587"><ele>271.0</ele><time>2026-04-28T15:43:32.27Z</time></trkpt><trkpt lat="43.3666807" lon="17.6328372"><ele>271.0</ele><time>2026-04-28T15:43:33.271Z</time></trkpt><trkpt lat="43.3666501" lon="17.633021"><ele>271.0</ele><time>2026-04-28T15:43:34.271Z</time></trkpt><trkpt lat="43.3666172" lon="17.6331949"><ele>271.0</ele><time>2026-04-28T15:43:35.273Z</time></trkpt><trkpt lat="43.3665841" lon="17.6333631"><ele>271.0</ele><time>2026-04-28T15:43:36.271Z</time></trkpt><trkpt lat="43.3665584" lon="17.6335366"><ele>270.6</ele><time>2026-04-28T15:43:37.274Z</time></trkpt><trkpt lat="43.3665324" lon="17.6337223"><ele>270.20000000000005</ele><time>2026-04-28T15:43:38.271Z</time></trkpt><trkpt lat="43.3665057" lon="17.6338873"><ele>269.79999999999995</ele><time>2026-04-28T15:43:39.273Z</time></trkpt><trkpt lat="43.3664882" lon="17.6340189"><ele>269.4</ele><time>2026-04-28T15:43:40.271Z</time></trkpt><trkpt lat="43.366478" lon="17.6341338"><ele>269.0</ele><time>2026-04-28T15:43:41.272Z</time></trkpt><trkpt lat="43.3664735" lon="17.6342455"><ele>269.0</ele><time>2026-04-28T15:43:42.272Z</time></trkpt><trkpt lat="43.3664773" lon="17.6343633"><ele>269.0</ele><time>2026-04-28T15:43:43.271Z</time></trkpt><trkpt lat="43.3664895" lon="17.6344799"><ele>269.0</ele><time>2026-04-28T15:43:44.272Z</time></trkpt><trkpt lat="43.3665122" lon="17.6345975"><ele>269.0</ele><time>2026-04-28T15:43:45.271Z</time></trkpt><trkpt lat="43.3665392" lon="17.6347094"><ele>269.0</ele><time>2026-04-28T15:43:46.272Z</time></trkpt><trkpt lat="43.3665683" lon="17.6348196"><ele>269.0</ele><time>2026-04-28T15:43:47.271Z</time></trkpt><trkpt lat="43.366598" lon="17.6349216"><ele>268.33333333333337</ele><time>2026-04-28T15:43:48.272Z</time></trkpt><trkpt lat="43.3666262" lon="17.6350253"><ele>267.6666666666667</ele><time>2026-04-28T15:43:49.272Z</time></trkpt><trkpt lat="43.3666535" lon="17.6351245"><ele>267.0</ele><time>2026-04-28T15:43:50.271Z</time></trkpt><trkpt lat="43.3666809" lon="17.6352232"><ele>266.3333333333333</ele><time>2026-04-28T15:43:51.271Z</time></trkpt><trkpt lat="43.366706" lon="17.6353229"><ele>265.66666666666663</ele><time>2026-04-28T15:43:52.272Z</time></trkpt><trkpt lat="43.3667245" lon="17.6354236"><ele>265.0</ele><time>2026-04-28T15:43:53.27Z</time></trkpt><trkpt lat="43.3667368" lon="17.6355275"><ele>264.8333333333333</ele><time>2026-04-28T15:43:54.272Z</time></trkpt><trkpt lat="43.3667466" lon="17.6356396"><ele>264.66666666666663</ele><time>2026-04-28T15:43:55.273Z</time></trkpt><trkpt lat="43.3667436" lon="17.6357514"><ele>264.5</ele><time>2026-04-28T15:43:56.27Z</time></trkpt><trkpt lat="43.3667309" lon="17.6358702"><ele>264.3333333333333</ele><time>2026-04-28T15:43:57.273Z</time></trkpt><trkpt lat="43.366715" lon="17.6359751"><ele>264.1666666666667</ele><time>2026-04-28T15:43:58.271Z</time></trkpt><trkpt lat="43.3666992" lon="17.6360711"><ele>264.0</ele><time>2026-04-28T15:43:59.271Z</time></trkpt><trkpt lat="43.3666903" lon="17.636164"><ele>263.8333333333333</ele><time>2026-04-28T15:44:00.271Z</time></trkpt><trkpt lat="43.3666573" lon="17.6363214"><ele>263.6666666666667</ele><time>2026-04-28T15:44:02.272Z</time></trkpt><trkpt lat="43.3666346" lon="17.6364398"><ele>263.5</ele><time>2026-04-28T15:44:04.272Z</time></trkpt><trkpt lat="43.3666224" lon="17.6365415"><ele>263.33333333333337</ele><time>2026-04-28T15:44:08.271Z</time></trkpt><trkpt lat="43.3666152" lon="17.6366296"><ele>263.1666666666667</ele><time>2026-04-28T15:44:12.269Z</time></trkpt><trkpt lat="43.3666123" lon="17.6367187"><ele>263.0</ele><time>2026-04-28T15:44:15.272Z</time></trkpt><trkpt lat="43.3666168" lon="17.6368275"><ele>263.0</ele><time>2026-04-28T15:44:19.273Z</time></trkpt><trkpt lat="43.3666199" lon="17.6369321"><ele>263.0</ele><time>2026-04-28T15:44:50.272Z</time></trkpt><trkpt lat="43.3666221" lon="17.6370295"><ele>263.0</ele><time>2026-04-28T15:44:54.271Z</time></trkpt><trkpt lat="43.3666309" lon="17.6371275"><ele>263.0</ele><time>2026-04-28T15:44:57.271Z</time></trkpt><trkpt lat="43.3666373" lon="17.6372364"><ele>263.0</ele><time>2026-04-28T15:45:00.27Z</time></trkpt><trkpt lat="43.3666442" lon="17.6373408"><ele>263.0</ele><time>2026-04-28T15:45:03.27Z</time></trkpt><trkpt lat="43.366645" lon="17.6374521"><ele>263.0</ele><time>2026-04-28T15:45:07.27Z</time></trkpt><trkpt lat="43.3666454" lon="17.6375672"><ele>263.0</ele><time>2026-04-28T15:45:10.282Z</time></trkpt><trkpt lat="43.3666518" lon="17.6377011"><ele>263.0</ele><time>2026-04-28T15:45:13.27Z</time></trkpt><trkpt lat="43.3666553" lon="17.6378303"><ele>263.0</ele><time>2026-04-28T15:45:15.269Z</time></trkpt><trkpt lat="43.3666601" lon="17.6379643"><ele>263.0</ele><time>2026-04-28T15:45:17.271Z</time></trkpt><trkpt lat="43.3666565" lon="17.6380882"><ele>262.6666666666667</ele><time>2026-04-28T15:45:19.271Z</time></trkpt><trkpt lat="43.3666484" lon="17.6381905"><ele>262.33333333333337</ele><time>2026-04-28T15:45:21.269Z</time></trkpt><trkpt lat="43.3666441" lon="17.6382949"><ele>262.0</ele><time>2026-04-28T15:45:23.272Z</time></trkpt><trkpt lat="43.3666406" lon="17.6384105"><ele>261.6666666666667</ele><time>2026-04-28T15:45:25.271Z</time></trkpt><trkpt lat="43.3666359" lon="17.6385272"><ele>261.3333333333333</ele><time>2026-04-28T15:45:27.28Z</time></trkpt><trkpt lat="43.366631" lon="17.6386144"><ele>261.0</ele><time>2026-04-28T15:45:29.275Z</time></trkpt><trkpt lat="43.36663" lon="17.6387224"><ele>260.6666666666667</ele><time>2026-04-28T15:45:32.269Z</time></trkpt><trkpt lat="43.366614" lon="17.6388136"><ele>260.3333333333333</ele><time>2026-04-28T15:45:49.274Z</time></trkpt><trkpt lat="43.3666117" lon="17.6389296"><ele>260.0</ele><time>2026-04-28T15:45:52.273Z</time></trkpt><trkpt lat="43.3666085" lon="17.6390242"><ele>259.66666666666663</ele><time>2026-04-28T15:45:55.27Z</time></trkpt><trkpt lat="43.3666035" lon="17.6391495"><ele>259.3333333333333</ele><time>2026-04-28T15:45:58.271Z</time></trkpt><trkpt lat="43.3665992" lon="17.6392642"><ele>259.0</ele><time>2026-04-28T15:46:00.272Z</time></trkpt><trkpt lat="43.3665925" lon="17.639417"><ele>258.2</ele><time>2026-04-28T15:46:02.268Z</time></trkpt><trkpt lat="43.3665906" lon="17.6395985"><ele>257.4</ele><time>2026-04-28T15:46:04.271Z</time></trkpt><trkpt lat="43.3665825" lon="17.6397146"><ele>256.6</ele><time>2026-04-28T15:46:05.27Z</time></trkpt><trkpt lat="43.3665802" lon="17.639841"><ele>255.8</ele><time>2026-04-28T15:46:06.269Z</time></trkpt><trkpt lat="43.3665775" lon="17.639988"><ele>255.0</ele><time>2026-04-28T15:46:07.272Z</time></trkpt><trkpt lat="43.3665716" lon="17.6401231"><ele>255.0</ele><time>2026-04-28T15:46:08.273Z</time></trkpt><trkpt lat="43.3665667" lon="17.6402515"><ele>255.0</ele><time>2026-04-28T15:46:09.272Z</time></trkpt><trkpt lat="43.3665578" lon="17.6403727"><ele>255.0</ele><time>2026-04-28T15:46:10.271Z</time></trkpt><trkpt lat="43.3665499" lon="17.6404969"><ele>255.0</ele><time>2026-04-28T15:46:11.27Z</time></trkpt><trkpt lat="43.3665417" lon="17.6406189"><ele>255.0</ele><time>2026-04-28T15:46:12.272Z</time></trkpt><trkpt lat="43.3665343" lon="17.6407488"><ele>255.0</ele><time>2026-04-28T15:46:13.273Z</time></trkpt><trkpt lat="43.3665329" lon="17.6408777"><ele>255.0</ele><time>2026-04-28T15:46:14.274Z</time></trkpt><trkpt lat="43.3665348" lon="17.6410084"><ele>255.0</ele><time>2026-04-28T15:46:15.271Z</time></trkpt><trkpt lat="43.3665378" lon="17.6411412"><ele>255.0</ele><time>2026-04-28T15:46:16.271Z</time></trkpt><trkpt lat="43.3665393" lon="17.6412656"><ele>255.0</ele><time>2026-04-28T15:46:17.274Z</time></trkpt><trkpt lat="43.3665442" lon="17.6413948"><ele>254.6</ele><time>2026-04-28T15:46:18.271Z</time></trkpt><trkpt lat="43.3665534" lon="17.6415293"><ele>254.2</ele><time>2026-04-28T15:46:19.273Z</time></trkpt><trkpt lat="43.3665737" lon="17.6416592"><ele>253.8</ele><time>2026-04-28T15:46:20.271Z</time></trkpt><trkpt lat="43.3665937" lon="17.6417924"><ele>253.4</ele><time>2026-04-28T15:46:21.272Z</time></trkpt><trkpt lat="43.3666145" lon="17.6419244"><ele>253.0</ele><time>2026-04-28T15:46:22.27Z</time></trkpt><trkpt lat="43.3666456" lon="17.6420543"><ele>252.2</ele><time>2026-04-28T15:46:23.271Z</time></trkpt><trkpt lat="43.3666742" lon="17.6421917"><ele>251.4</ele><time>2026-04-28T15:46:24.27Z</time></trkpt><trkpt lat="43.3666988" lon="17.6423318"><ele>250.59999999999997</ele><time>2026-04-28T15:46:25.272Z</time></trkpt><trkpt lat="43.3667178" lon="17.6424756"><ele>249.79999999999998</ele><time>2026-04-28T15:46:26.271Z</time></trkpt><trkpt lat="43.3667312" lon="17.6426222"><ele>249.0</ele><time>2026-04-28T15:46:27.272Z</time></trkpt><trkpt lat="43.3667374" lon="17.6427638"><ele>249.0</ele><time>2026-04-28T15:46:28.272Z</time></trkpt><trkpt lat="43.3667342" lon="17.6429115"><ele>248.99999999999997</ele><time>2026-04-28T15:46:29.271Z</time></trkpt><trkpt lat="43.3667314" lon="17.6430572"><ele>248.99999999999997</ele><time>2026-04-28T15:46:30.272Z</time></trkpt><trkpt lat="43.3667227" lon="17.6431937"><ele>249.0</ele><time>2026-04-28T15:46:31.272Z</time></trkpt><trkpt lat="43.3667117" lon="17.643326"><ele>249.0</ele><time>2026-04-28T15:46:32.271Z</time></trkpt><trkpt lat="43.3667077" lon="17.6434583"><ele>249.0</ele><time>2026-04-28T15:46:33.271Z</time></trkpt><trkpt lat="43.3666965" lon="17.6435953"><ele>248.99999999999997</ele><time>2026-04-28T15:46:34.274Z</time></trkpt><trkpt lat="43.3666928" lon="17.6437319"><ele>248.99999999999997</ele><time>2026-04-28T15:46:35.27Z</time></trkpt><trkpt lat="43.3666939" lon="17.6438623"><ele>249.0</ele><time>2026-04-28T15:46:36.277Z</time></trkpt><trkpt lat="43.3666952" lon="17.6439863"><ele>249.0</ele><time>2026-04-28T15:46:37.272Z</time></trkpt><trkpt lat="43.3667031" lon="17.6441101"><ele>248.6</ele><time>2026-04-28T15:46:38.274Z</time></trkpt><trkpt lat="43.3667125" lon="17.6442281"><ele>248.2</ele><time>2026-04-28T15:46:39.274Z</time></trkpt><trkpt lat="43.366715" lon="17.6443552"><ele>247.79999999999998</ele><time>2026-04-28T15:46:40.272Z</time></trkpt><trkpt lat="43.3667149" lon="17.6444865"><ele>247.39999999999998</ele><time>2026-04-28T15:46:41.271Z</time></trkpt><trkpt lat="43.3667148" lon="17.6446228"><ele>247.0</ele><time>2026-04-28T15:46:42.271Z</time></trkpt><trkpt lat="43.3667081" lon="17.6447655"><ele>246.8</ele><time>2026-04-28T15:46:43.271Z</time></trkpt><trkpt lat="43.3667003" lon="17.6449043"><ele>246.6</ele><time>2026-04-28T15:46:44.271Z</time></trkpt><trkpt lat="43.3666888" lon="17.6450399"><ele>246.40000000000003</ele><time>2026-04-28T15:46:45.271Z</time></trkpt><trkpt lat="43.3666764" lon="17.645162"><ele>246.20000000000002</ele><time>2026-04-28T15:46:46.271Z</time></trkpt><trkpt lat="43.366661" lon="17.6452813"><ele>246.0</ele><time>2026-04-28T15:46:47.27Z</time></trkpt><trkpt lat="43.3666468" lon="17.6453953"><ele>245.83333333333334</ele><time>2026-04-28T15:46:48.275Z</time></trkpt><trkpt lat="43.3666374" lon="17.6455099"><ele>245.66666666666669</ele><time>2026-04-28T15:46:49.271Z</time></trkpt><trkpt lat="43.3666173" lon="17.6456147"><ele>245.5</ele><time>2026-04-28T15:46:50.27Z</time></trkpt><trkpt lat="43.3665944" lon="17.6457216"><ele>245.33333333333334</ele><time>2026-04-28T15:46:51.271Z</time></trkpt><trkpt lat="43.3665779" lon="17.6458218"><ele>245.16666666666669</ele><time>2026-04-28T15:46:52.272Z</time></trkpt><trkpt lat="43.3665652" lon="17.6459194"><ele>245.0</ele><time>2026-04-28T15:46:53.271Z</time></trkpt><trkpt lat="43.3665369" lon="17.6460913"><ele>245.2</ele><time>2026-04-28T15:46:55.271Z</time></trkpt><trkpt lat="43.3664986" lon="17.6462771"><ele>245.4</ele><time>2026-04-28T15:46:57.272Z</time></trkpt><trkpt lat="43.3664762" lon="17.6464026"><ele>245.60000000000002</ele><time>2026-04-28T15:46:58.269Z</time></trkpt><trkpt lat="43.3664552" lon="17.6465348"><ele>245.8</ele><time>2026-04-28T15:46:59.272Z</time></trkpt><trkpt lat="43.3664297" lon="17.6466814"><ele>246.0</ele><time>2026-04-28T15:47:00.271Z</time></trkpt><trkpt lat="43.3664017" lon="17.6468238"><ele>246.0</ele><time>2026-04-28T15:47:01.271Z</time></trkpt><trkpt lat="43.3663761" lon="17.6469534"><ele>246.00000000000003</ele><time>2026-04-28T15:47:02.272Z</time></trkpt><trkpt lat="43.3663528" lon="17.6470861"><ele>246.00000000000003</ele><time>2026-04-28T15:47:03.27Z</time></trkpt><trkpt lat="43.3663292" lon="17.6472158"><ele>246.0</ele><time>2026-04-28T15:47:04.269Z</time></trkpt><trkpt lat="43.3663107" lon="17.6473415"><ele>246.0</ele><time>2026-04-28T15:47:05.284Z</time></trkpt><trkpt lat="43.3662894" lon="17.6474633"><ele>244.83333333333334</ele><time>2026-04-28T15:47:06.271Z</time></trkpt><trkpt lat="43.36627" lon="17.6475783"><ele>243.66666666666669</ele><time>2026-04-28T15:47:07.273Z</time></trkpt><trkpt lat="43.366252" lon="17.6476867"><ele>242.5</ele><time>2026-04-28T15:47:08.272Z</time></trkpt><trkpt lat="43.3662399" lon="17.6478023"><ele>241.33333333333334</ele><time>2026-04-28T15:47:09.271Z</time></trkpt><trkpt lat="43.3662233" lon="17.6479092"><ele>240.16666666666669</ele><time>2026-04-28T15:47:10.273Z</time></trkpt><trkpt lat="43.3662114" lon="17.6480212"><ele>239.0</ele><time>2026-04-28T15:47:11.27Z</time></trkpt><trkpt lat="43.3661977" lon="17.6481454"><ele>238.79999999999998</ele><time>2026-04-28T15:47:12.27Z</time></trkpt><trkpt lat="43.3661806" lon="17.6482704"><ele>238.59999999999997</ele><time>2026-04-28T15:47:13.271Z</time></trkpt><trkpt lat="43.3661633" lon="17.6483857"><ele>238.4</ele><time>2026-04-28T15:47:14.27Z</time></trkpt><trkpt lat="43.3661486" lon="17.6485182"><ele>238.2</ele><time>2026-04-28T15:47:15.271Z</time></trkpt><trkpt lat="43.3661361" lon="17.6486454"><ele>238.0</ele><time>2026-04-28T15:47:16.271Z</time></trkpt><trkpt lat="43.3661202" lon="17.6487647"><ele>237.83333333333331</ele><time>2026-04-28T15:47:17.271Z</time></trkpt><trkpt lat="43.3661114" lon="17.6488886"><ele>237.66666666666666</ele><time>2026-04-28T15:47:18.272Z</time></trkpt><trkpt lat="43.3660977" lon="17.6490029"><ele>237.5</ele><time>2026-04-28T15:47:19.271Z</time></trkpt><trkpt lat="43.3660958" lon="17.6491301"><ele>237.33333333333331</ele><time>2026-04-28T15:47:20.274Z</time></trkpt><trkpt lat="43.3660911" lon="17.6492455"><ele>237.16666666666666</ele><time>2026-04-28T15:47:21.271Z</time></trkpt><trkpt lat="43.3660951" lon="17.6493636"><ele>237.0</ele><time>2026-04-28T15:47:22.27Z</time></trkpt><trkpt lat="43.3661038" lon="17.6494834"><ele>237.0</ele><time>2026-04-28T15:47:23.27Z</time></trkpt><trkpt lat="43.366108" lon="17.6495977"><ele>237.0</ele><time>2026-04-28T15:47:24.271Z</time></trkpt><trkpt lat="43.3661161" lon="17.64971"><ele>237.0</ele><time>2026-04-28T15:47:25.271Z</time></trkpt><trkpt lat="43.366133" lon="17.6498126"><ele>237.0</ele><time>2026-04-28T15:47:26.27Z</time></trkpt><trkpt lat="43.366141" lon="17.6499186"><ele>237.0</ele><time>2026-04-28T15:47:27.27Z</time></trkpt><trkpt lat="43.3661448" lon="17.6500156"><ele>237.0</ele><time>2026-04-28T15:47:28.271Z</time></trkpt><trkpt lat="43.3661546" lon="17.6501197"><ele>237.0</ele><time>2026-04-28T15:47:29.274Z</time></trkpt><trkpt lat="43.366163" lon="17.650234"><ele>237.0</ele><time>2026-04-28T15:47:30.271Z</time></trkpt><trkpt lat="43.366178" lon="17.6503538"><ele>237.0</ele><time>2026-04-28T15:47:31.278Z</time></trkpt><trkpt lat="43.3661943" lon="17.6504848"><ele>237.0</ele><time>2026-04-28T15:47:32.27Z</time></trkpt><trkpt lat="43.3662108" lon="17.6506258"><ele>237.0</ele><time>2026-04-28T15:47:33.271Z</time></trkpt><trkpt lat="43.3662235" lon="17.6507576"><ele>237.0</ele><time>2026-04-28T15:47:34.275Z</time></trkpt><trkpt lat="43.3662413" lon="17.6508865"><ele>237.0</ele><time>2026-04-28T15:47:35.272Z</time></trkpt><trkpt lat="43.3662654" lon="17.651005"><ele>237.0</ele><time>2026-04-28T15:47:36.271Z</time></trkpt><trkpt lat="43.3662915" lon="17.6511047"><ele>237.0</ele><time>2026-04-28T15:47:37.273Z</time></trkpt><trkpt lat="43.3663214" lon="17.6512126"><ele>237.0</ele><time>2026-04-28T15:47:38.275Z</time></trkpt><trkpt lat="43.3663633" lon="17.6513261"><ele>237.0</ele><time>2026-04-28T15:47:39.272Z</time></trkpt><trkpt lat="43.3664082" lon="17.651432"><ele>237.0</ele><time>2026-04-28T15:47:40.273Z</time></trkpt><trkpt lat="43.3664628" lon="17.6515395"><ele>237.0</ele><time>2026-04-28T15:47:41.272Z</time></trkpt><trkpt lat="43.3665206" lon="17.6516479"><ele>237.0</ele><time>2026-04-28T15:47:42.272Z</time></trkpt><trkpt lat="43.3665811" lon="17.6517611"><ele>237.0</ele><time>2026-04-28T15:47:43.27Z</time></trkpt><trkpt lat="43.3666453" lon="17.6518623"><ele>237.0</ele><time>2026-04-28T15:47:44.275Z</time></trkpt><trkpt lat="43.3667115" lon="17.6519651"><ele>237.0</ele><time>2026-04-28T15:47:45.272Z</time></trkpt><trkpt lat="43.3667745" lon="17.6520687"><ele>237.0</ele><time>2026-04-28T15:47:46.272Z</time></trkpt><trkpt lat="43.3668382" lon="17.652177"><ele>237.0</ele><time>2026-04-28T15:47:47.272Z</time></trkpt><trkpt lat="43.3669016" lon="17.6522827"><ele>237.0</ele><time>2026-04-28T15:47:48.27Z</time></trkpt><trkpt lat="43.3669585" lon="17.6523923"><ele>237.0</ele><time>2026-04-28T15:47:49.278Z</time></trkpt><trkpt lat="43.3670103" lon="17.6525098"><ele>237.0</ele><time>2026-04-28T15:47:50.272Z</time></trkpt><trkpt lat="43.3670546" lon="17.6526391"><ele>237.0</ele><time>2026-04-28T15:47:51.27Z</time></trkpt><trkpt lat="43.3670881" lon="17.6527708"><ele>237.0</ele><time>2026-04-28T15:47:52.272Z</time></trkpt><trkpt lat="43.3671102" lon="17.6529119"><ele>237.0</ele><time>2026-04-28T15:47:53.271Z</time></trkpt><trkpt lat="43.3671221" lon="17.6530607"><ele>237.0</ele><time>2026-04-28T15:47:54.273Z</time></trkpt><trkpt lat="43.3671198" lon="17.6532092"><ele>237.0</ele><time>2026-04-28T15:47:55.271Z</time></trkpt><trkpt lat="43.3671063" lon="17.653359"><ele>237.0</ele><time>2026-04-28T15:47:56.271Z</time></trkpt><trkpt lat="43.3670808" lon="17.6534914"><ele>237.0</ele><time>2026-04-28T15:47:57.271Z</time></trkpt><trkpt lat="43.3670524" lon="17.6536254"><ele>237.0</ele><time>2026-04-28T15:47:58.271Z</time></trkpt><trkpt lat="43.3670195" lon="17.6537543"><ele>237.0</ele><time>2026-04-28T15:47:59.271Z</time></trkpt><trkpt lat="43.3669886" lon="17.6538607"><ele>237.33333333333334</ele><time>2026-04-28T15:48:00.272Z</time></trkpt><trkpt lat="43.3669596" lon="17.6539644"><ele>237.66666666666669</ele><time>2026-04-28T15:48:01.272Z</time></trkpt><trkpt lat="43.3669364" lon="17.6540587"><ele>238.0</ele><time>2026-04-28T15:48:02.272Z</time></trkpt><trkpt lat="43.3669081" lon="17.6541579"><ele>238.33333333333334</ele><time>2026-04-28T15:48:03.276Z</time></trkpt><trkpt lat="43.3668826" lon="17.6542662"><ele>238.66666666666669</ele><time>2026-04-28T15:48:04.271Z</time></trkpt><trkpt lat="43.3668547" lon="17.6543691"><ele>239.0</ele><time>2026-04-28T15:48:05.27Z</time></trkpt><trkpt lat="43.3668326" lon="17.6544714"><ele>239.16666666666669</ele><time>2026-04-28T15:48:06.27Z</time></trkpt><trkpt lat="43.3668059" lon="17.6545768"><ele>239.33333333333334</ele><time>2026-04-28T15:48:07.271Z</time></trkpt><trkpt lat="43.3667758" lon="17.6546791"><ele>239.5</ele><time>2026-04-28T15:48:08.27Z</time></trkpt><trkpt lat="43.3667459" lon="17.6547839"><ele>239.66666666666669</ele><time>2026-04-28T15:48:09.269Z</time></trkpt><trkpt lat="43.3667168" lon="17.6548829"><ele>239.83333333333334</ele><time>2026-04-28T15:48:10.27Z</time></trkpt><trkpt lat="43.3666851" lon="17.6549862"><ele>240.0</ele><time>2026-04-28T15:48:11.272Z</time></trkpt><trkpt lat="43.3666544" lon="17.6550863"><ele>240.0</ele><time>2026-04-28T15:48:12.272Z</time></trkpt><trkpt lat="43.3666284" lon="17.655188"><ele>240.0</ele><time>2026-04-28T15:48:13.274Z</time></trkpt><trkpt lat="43.3666028" lon="17.6552877"><ele>240.0</ele><time>2026-04-28T15:48:14.272Z</time></trkpt><trkpt lat="43.3665778" lon="17.6553943"><ele>240.0</ele><time>2026-04-28T15:48:15.271Z</time></trkpt><trkpt lat="43.3665454" lon="17.6554979"><ele>240.0</ele><time>2026-04-28T15:48:16.285Z</time></trkpt><trkpt lat="43.3665077" lon="17.6556124"><ele>240.0</ele><time>2026-04-28T15:48:17.272Z</time></trkpt><trkpt lat="43.3664729" lon="17.655751"><ele>240.5</ele><time>2026-04-28T15:48:18.273Z</time></trkpt><trkpt lat="43.3664282" lon="17.6558925"><ele>241.0</ele><time>2026-04-28T15:48:19.272Z</time></trkpt><trkpt lat="43.3663855" lon="17.6560447"><ele>241.5</ele><time>2026-04-28T15:48:20.274Z</time></trkpt><trkpt lat="43.3663401" lon="17.6562063"><ele>242.0</ele><time>2026-04-28T15:48:21.272Z</time></trkpt><trkpt lat="43.3662997" lon="17.6563569"><ele>240.75</ele><time>2026-04-28T15:48:22.269Z</time></trkpt><trkpt lat="43.3662616" lon="17.6565038"><ele>239.5</ele><time>2026-04-28T15:48:23.27Z</time></trkpt><trkpt lat="43.3662227" lon="17.6566403"><ele>238.25</ele><time>2026-04-28T15:48:24.269Z</time></trkpt><trkpt lat="43.3661814" lon="17.6567876"><ele>237.0</ele><time>2026-04-28T15:48:25.268Z</time></trkpt><trkpt lat="43.3661409" lon="17.6569417"><ele>237.75</ele><time>2026-04-28T15:48:26.272Z</time></trkpt><trkpt lat="43.3661051" lon="17.6570971"><ele>238.5</ele><time>2026-04-28T15:48:27.272Z</time></trkpt><trkpt lat="43.3660717" lon="17.6572431"><ele>239.25</ele><time>2026-04-28T15:48:28.275Z</time></trkpt><trkpt lat="43.3660467" lon="17.6574029"><ele>240.0</ele><time>2026-04-28T15:48:29.271Z</time></trkpt><trkpt lat="43.3660318" lon="17.6575721"><ele>240.0</ele><time>2026-04-28T15:48:30.272Z</time></trkpt><trkpt lat="43.3660285" lon="17.6577402"><ele>240.0</ele><time>2026-04-28T15:48:31.269Z</time></trkpt><trkpt lat="43.3660343" lon="17.6579106"><ele>240.0</ele><time>2026-04-28T15:48:32.27Z</time></trkpt><trkpt lat="43.366043" lon="17.6580795"><ele>240.0</ele><time>2026-04-28T15:48:33.269Z</time></trkpt><trkpt lat="43.3660543" lon="17.6582489"><ele>240.25</ele><time>2026-04-28T15:48:34.269Z</time></trkpt><trkpt lat="43.3660657" lon="17.6584145"><ele>240.5</ele><time>2026-04-28T15:48:35.27Z</time></trkpt><trkpt lat="43.3660788" lon="17.6585644"><ele>240.75</ele><time>2026-04-28T15:48:36.271Z</time></trkpt><trkpt lat="43.3660906" lon="17.6587173"><ele>241.0</ele><time>2026-04-28T15:48:37.271Z</time></trkpt><trkpt lat="43.366105" lon="17.6588726"><ele>240.25</ele><time>2026-04-28T15:48:38.272Z</time></trkpt><trkpt lat="43.3661204" lon="17.6590346"><ele>239.5</ele><time>2026-04-28T15:48:39.271Z</time></trkpt><trkpt lat="43.366135" lon="17.659205"><ele>238.75</ele><time>2026-04-28T15:48:40.27Z</time></trkpt><trkpt lat="43.3661495" lon="17.6593801"><ele>238.0</ele><time>2026-04-28T15:48:41.271Z</time></trkpt><trkpt lat="43.3661643" lon="17.6595639"><ele>237.75</ele><time>2026-04-28T15:48:42.271Z</time></trkpt><trkpt lat="43.3661822" lon="17.659751"><ele>237.5</ele><time>2026-04-28T15:48:43.27Z</time></trkpt><trkpt lat="43.3661998" lon="17.6599373"><ele>237.25</ele><time>2026-04-28T15:48:44.271Z</time></trkpt><trkpt lat="43.3662187" lon="17.6601236"><ele>237.0</ele><time>2026-04-28T15:48:45.271Z</time></trkpt><trkpt lat="43.3662323" lon="17.6602993"><ele>237.0</ele><time>2026-04-28T15:48:46.273Z</time></trkpt><trkpt lat="43.3662451" lon="17.6604755"><ele>237.0</ele><time>2026-04-28T15:48:47.276Z</time></trkpt><trkpt lat="43.3662608" lon="17.6606583"><ele>237.0</ele><time>2026-04-28T15:48:48.275Z</time></trkpt><trkpt lat="43.366279" lon="17.6608443"><ele>237.0</ele><time>2026-04-28T15:48:49.275Z</time></trkpt><trkpt lat="43.3662966" lon="17.6610267"><ele>236.75</ele><time>2026-04-28T15:48:50.278Z</time></trkpt><trkpt lat="43.3663161" lon="17.6611983"><ele>236.5</ele><time>2026-04-28T15:48:51.271Z</time></trkpt><trkpt lat="43.3663323" lon="17.6613679"><ele>236.25</ele><time>2026-04-28T15:48:52.271Z</time></trkpt><trkpt lat="43.3663475" lon="17.6615256"><ele>236.0</ele><time>2026-04-28T15:48:53.271Z</time></trkpt><trkpt lat="43.3663637" lon="17.6616769"><ele>236.5</ele><time>2026-04-28T15:48:54.271Z</time></trkpt><trkpt lat="43.3663784" lon="17.6618296"><ele>237.0</ele><time>2026-04-28T15:48:55.272Z</time></trkpt><trkpt lat="43.3663933" lon="17.6619945"><ele>237.5</ele><time>2026-04-28T15:48:56.271Z</time></trkpt><trkpt lat="43.3664073" lon="17.6621523"><ele>238.0</ele><time>2026-04-28T15:48:57.271Z</time></trkpt><trkpt lat="43.3664182" lon="17.6623062"><ele>238.0</ele><time>2026-04-28T15:48:58.273Z</time></trkpt><trkpt lat="43.3664316" lon="17.6624557"><ele>238.0</ele><time>2026-04-28T15:48:59.273Z</time></trkpt><trkpt lat="43.3664462" lon="17.6625969"><ele>238.0</ele><time>2026-04-28T15:49:00.273Z</time></trkpt><trkpt lat="43.36646" lon="17.6627276"><ele>238.0</ele><time>2026-04-28T15:49:01.273Z</time></trkpt><trkpt lat="43.366476" lon="17.6628597"><ele>238.0</ele><time>2026-04-28T15:49:02.272Z</time></trkpt><trkpt lat="43.3664901" lon="17.663001"><ele>238.0</ele><time>2026-04-28T15:49:03.272Z</time></trkpt><trkpt lat="43.3665041" lon="17.663146"><ele>238.0</ele><time>2026-04-28T15:49:04.271Z</time></trkpt><trkpt lat="43.3665198" lon="17.6632986"><ele>238.0</ele><time>2026-04-28T15:49:05.273Z</time></trkpt><trkpt lat="43.3665291" lon="17.6634487"><ele>238.0</ele><time>2026-04-28T15:49:06.272Z</time></trkpt><trkpt lat="43.3665435" lon="17.6635899"><ele>238.0</ele><time>2026-04-28T15:49:07.275Z</time></trkpt><trkpt lat="43.3665549" lon="17.6637188"><ele>238.16666666666666</ele><time>2026-04-28T15:49:08.273Z</time></trkpt><trkpt lat="43.3665653" lon="17.6638486"><ele>238.33333333333331</ele><time>2026-04-28T15:49:09.273Z</time></trkpt><trkpt lat="43.3665753" lon="17.6639678"><ele>238.5</ele><time>2026-04-28T15:49:10.27Z</time></trkpt><trkpt lat="43.3665823" lon="17.6640821"><ele>238.66666666666669</ele><time>2026-04-28T15:49:11.271Z</time></trkpt><trkpt lat="43.3665902" lon="17.6642022"><ele>238.83333333333334</ele><time>2026-04-28T15:49:12.271Z</time></trkpt><trkpt lat="43.3665966" lon="17.6643168"><ele>239.0</ele><time>2026-04-28T15:49:13.273Z</time></trkpt><trkpt lat="43.3666009" lon="17.6644295"><ele>239.0</ele><time>2026-04-28T15:49:14.274Z</time></trkpt><trkpt lat="43.3666012" lon="17.6645482"><ele>238.99999999999997</ele><time>2026-04-28T15:49:15.272Z</time></trkpt><trkpt lat="43.3665982" lon="17.6646708"><ele>238.99999999999997</ele><time>2026-04-28T15:49:16.271Z</time></trkpt><trkpt lat="43.3665854" lon="17.6647986"><ele>239.0</ele><time>2026-04-28T15:49:17.271Z</time></trkpt><trkpt lat="43.3665674" lon="17.6649342"><ele>239.0</ele><time>2026-04-28T15:49:18.274Z</time></trkpt><trkpt lat="43.3665463" lon="17.6650774"><ele>239.0</ele><time>2026-04-28T15:49:19.272Z</time></trkpt><trkpt lat="43.3665247" lon="17.6652419"><ele>239.0</ele><time>2026-04-28T15:49:20.275Z</time></trkpt><trkpt lat="43.3664918" lon="17.6654051"><ele>239.0</ele><time>2026-04-28T15:49:21.274Z</time></trkpt><trkpt lat="43.3664538" lon="17.6655719"><ele>239.0</ele><time>2026-04-28T15:49:22.272Z</time></trkpt><trkpt lat="43.366416" lon="17.6657559"><ele>239.0</ele><time>2026-04-28T15:49:23.277Z</time></trkpt><trkpt lat="43.3663748" lon="17.6659485"><ele>239.0</ele><time>2026-04-28T15:49:24.272Z</time></trkpt><trkpt lat="43.3663314" lon="17.6661444"><ele>239.0</ele><time>2026-04-28T15:49:25.271Z</time></trkpt><trkpt lat="43.3662892" lon="17.666336"><ele>239.0</ele><time>2026-04-28T15:49:26.274Z</time></trkpt><trkpt lat="43.3662464" lon="17.6665301"><ele>238.5</ele><time>2026-04-28T15:49:27.271Z</time></trkpt><trkpt lat="43.3661996" lon="17.6667227"><ele>238.0</ele><time>2026-04-28T15:49:28.276Z</time></trkpt><trkpt lat="43.3661583" lon="17.6669178"><ele>237.5</ele><time>2026-04-28T15:49:29.272Z</time></trkpt><trkpt lat="43.3661149" lon="17.6671161"><ele>237.0</ele><time>2026-04-28T15:49:30.271Z</time></trkpt><trkpt lat="43.3660743" lon="17.6673134"><ele>237.0</ele><time>2026-04-28T15:49:31.272Z</time></trkpt><trkpt lat="43.3660358" lon="17.667506"><ele>237.0</ele><time>2026-04-28T15:49:32.282Z</time></trkpt><trkpt lat="43.3659974" lon="17.6676901"><ele>237.0</ele><time>2026-04-28T15:49:33.274Z</time></trkpt><trkpt lat="43.3659534" lon="17.6678797"><ele>237.0</ele><time>2026-04-28T15:49:34.273Z</time></trkpt><trkpt lat="43.3658978" lon="17.6680545"><ele>237.75</ele><time>2026-04-28T15:49:35.273Z</time></trkpt><trkpt lat="43.3658306" lon="17.6682244"><ele>238.5</ele><time>2026-04-28T15:49:36.271Z</time></trkpt><trkpt lat="43.3657656" lon="17.6683869"><ele>239.25</ele><time>2026-04-28T15:49:37.274Z</time></trkpt><trkpt lat="43.3656975" lon="17.6685379"><ele>240.0</ele><time>2026-04-28T15:49:38.272Z</time></trkpt><trkpt lat="43.3656264" lon="17.6686921"><ele>238.75</ele><time>2026-04-28T15:49:39.274Z</time></trkpt><trkpt lat="43.3655582" lon="17.6688472"><ele>237.5</ele><time>2026-04-28T15:49:40.271Z</time></trkpt><trkpt lat="43.3654968" lon="17.6690227"><ele>236.25</ele><time>2026-04-28T15:49:41.276Z</time></trkpt><trkpt lat="43.3654478" lon="17.6691936"><ele>235.0</ele><time>2026-04-28T15:49:42.271Z</time></trkpt><trkpt lat="43.3654104" lon="17.669371"><ele>235.25</ele><time>2026-04-28T15:49:43.272Z</time></trkpt><trkpt lat="43.3653771" lon="17.6695466"><ele>235.5</ele><time>2026-04-28T15:49:44.271Z</time></trkpt><trkpt lat="43.3653353" lon="17.6697175"><ele>235.75</ele><time>2026-04-28T15:49:45.271Z</time></trkpt><trkpt lat="43.365283" lon="17.6698913"><ele>236.0</ele><time>2026-04-28T15:49:46.27Z</time></trkpt><trkpt lat="43.3652185" lon="17.6700653"><ele>236.0</ele><time>2026-04-28T15:49:47.271Z</time></trkpt><trkpt lat="43.3651484" lon="17.670233"><ele>236.0</ele><time>2026-04-28T15:49:48.271Z</time></trkpt><trkpt lat="43.3650704" lon="17.6703844"><ele>236.0</ele><time>2026-04-28T15:49:49.271Z</time></trkpt><trkpt lat="43.3649926" lon="17.6705247"><ele>236.0</ele><time>2026-04-28T15:49:50.271Z</time></trkpt><trkpt lat="43.3649183" lon="17.670668"><ele>236.0</ele><time>2026-04-28T15:49:51.274Z</time></trkpt><trkpt lat="43.364843" lon="17.6708027"><ele>236.0</ele><time>2026-04-28T15:49:52.272Z</time></trkpt><trkpt lat="43.3647593" lon="17.6709347"><ele>236.0</ele><time>2026-04-28T15:49:53.272Z</time></trkpt><trkpt lat="43.3646705" lon="17.6710702"><ele>236.0</ele><time>2026-04-28T15:49:54.272Z</time></trkpt><trkpt lat="43.3645733" lon="17.6712028"><ele>236.25</ele><time>2026-04-28T15:49:55.271Z</time></trkpt><trkpt lat="43.364462" lon="17.6713241"><ele>236.5</ele><time>2026-04-28T15:49:56.272Z</time></trkpt><trkpt lat="43.3643407" lon="17.6714257"><ele>236.75</ele><time>2026-04-28T15:49:57.271Z</time></trkpt><trkpt lat="43.3642147" lon="17.6715165"><ele>237.0</ele><time>2026-04-28T15:49:58.272Z</time></trkpt><trkpt lat="43.3640865" lon="17.6715975"><ele>237.0</ele><time>2026-04-28T15:49:59.27Z</time></trkpt><trkpt lat="43.3639592" lon="17.6716801"><ele>237.0</ele><time>2026-04-28T15:50:00.272Z</time></trkpt><trkpt lat="43.3638384" lon="17.6717499"><ele>237.0</ele><time>2026-04-28T15:50:01.271Z</time></trkpt><trkpt lat="43.3637221" lon="17.6718179"><ele>237.0</ele><time>2026-04-28T15:50:02.27Z</time></trkpt><trkpt lat="43.3636077" lon="17.6718792"><ele>237.25</ele><time>2026-04-28T15:50:03.272Z</time></trkpt><trkpt lat="43.3635032" lon="17.6719435"><ele>237.5</ele><time>2026-04-28T15:50:04.269Z</time></trkpt><trkpt lat="43.3633952" lon="17.672006"><ele>237.75</ele><time>2026-04-28T15:50:05.272Z</time></trkpt><trkpt lat="43.3632828" lon="17.6720722"><ele>238.0</ele><time>2026-04-28T15:50:06.273Z</time></trkpt><trkpt lat="43.3631663" lon="17.6721383"><ele>238.0</ele><time>2026-04-28T15:50:07.275Z</time></trkpt><trkpt lat="43.3630465" lon="17.6722059"><ele>238.0</ele><time>2026-04-28T15:50:08.272Z</time></trkpt><trkpt lat="43.3629357" lon="17.6722733"><ele>238.0</ele><time>2026-04-28T15:50:09.272Z</time></trkpt><trkpt lat="43.3628309" lon="17.6723425"><ele>238.0</ele><time>2026-04-28T15:50:10.271Z</time></trkpt><trkpt lat="43.3627219" lon="17.6724067"><ele>237.5</ele><time>2026-04-28T15:50:11.272Z</time></trkpt><trkpt lat="43.3626103" lon="17.6724734"><ele>237.0</ele><time>2026-04-28T15:50:12.271Z</time></trkpt><trkpt lat="43.3625001" lon="17.6725389"><ele>236.5</ele><time>2026-04-28T15:50:13.271Z</time></trkpt><trkpt lat="43.3623997" lon="17.6726028"><ele>236.0</ele><time>2026-04-28T15:50:14.271Z</time></trkpt><trkpt lat="43.3623027" lon="17.672665"><ele>236.0</ele><time>2026-04-28T15:50:15.272Z</time></trkpt><trkpt lat="43.3622112" lon="17.6727199"><ele>236.00000000000003</ele><time>2026-04-28T15:50:16.273Z</time></trkpt><trkpt lat="43.3621189" lon="17.6727738"><ele>236.00000000000003</ele><time>2026-04-28T15:50:17.272Z</time></trkpt><trkpt lat="43.3620292" lon="17.672828"><ele>236.0</ele><time>2026-04-28T15:50:18.271Z</time></trkpt><trkpt lat="43.3619322" lon="17.6728884"><ele>236.0</ele><time>2026-04-28T15:50:19.271Z</time></trkpt><trkpt lat="43.361834" lon="17.672951"><ele>236.20000000000002</ele><time>2026-04-28T15:50:20.271Z</time></trkpt><trkpt lat="43.3617325" lon="17.6730086"><ele>236.40000000000003</ele><time>2026-04-28T15:50:21.271Z</time></trkpt><trkpt lat="43.361631" lon="17.6730695"><ele>236.6</ele><time>2026-04-28T15:50:22.271Z</time></trkpt><trkpt lat="43.3615326" lon="17.6731286"><ele>236.8</ele><time>2026-04-28T15:50:23.271Z</time></trkpt><trkpt lat="43.3614288" lon="17.6731864"><ele>237.0</ele><time>2026-04-28T15:50:24.271Z</time></trkpt><trkpt lat="43.3613263" lon="17.6732471"><ele>237.0</ele><time>2026-04-28T15:50:25.271Z</time></trkpt><trkpt lat="43.361216" lon="17.6733105"><ele>237.0</ele><time>2026-04-28T15:50:26.271Z</time></trkpt><trkpt lat="43.3611092" lon="17.673377"><ele>237.0</ele><time>2026-04-28T15:50:27.271Z</time></trkpt><trkpt lat="43.3609964" lon="17.6734484"><ele>237.0</ele><time>2026-04-28T15:50:28.271Z</time></trkpt><trkpt lat="43.3608664" lon="17.6735255"><ele>237.0</ele><time>2026-04-28T15:50:29.271Z</time></trkpt><trkpt lat="43.3607439" lon="17.6735935"><ele>237.0</ele><time>2026-04-28T15:50:30.271Z</time></trkpt><trkpt lat="43.360614" lon="17.6736659"><ele>237.0</ele><time>2026-04-28T15:50:31.27Z</time></trkpt><trkpt lat="43.3604849" lon="17.6737396"><ele>237.0</ele><time>2026-04-28T15:50:32.272Z</time></trkpt><trkpt lat="43.360355" lon="17.6738182"><ele>236.75</ele><time>2026-04-28T15:50:33.285Z</time></trkpt><trkpt lat="43.3602271" lon="17.6739008"><ele>236.5</ele><time>2026-04-28T15:50:34.273Z</time></trkpt><trkpt lat="43.3600976" lon="17.6739829"><ele>236.25</ele><time>2026-04-28T15:50:35.271Z</time></trkpt><trkpt lat="43.3599683" lon="17.6740658"><ele>236.0</ele><time>2026-04-28T15:50:36.271Z</time></trkpt><trkpt lat="43.3598367" lon="17.6741463"><ele>236.0</ele><time>2026-04-28T15:50:37.273Z</time></trkpt><trkpt lat="43.3597048" lon="17.6742337"><ele>236.0</ele><time>2026-04-28T15:50:38.27Z</time></trkpt><trkpt lat="43.3595771" lon="17.6743384"><ele>236.0</ele><time>2026-04-28T15:50:39.27Z</time></trkpt><trkpt lat="43.3594474" lon="17.6744656"><ele>237.33333333333334</ele><time>2026-04-28T15:50:40.271Z</time></trkpt><trkpt lat="43.3593309" lon="17.6746109"><ele>238.66666666666669</ele><time>2026-04-28T15:50:41.269Z</time></trkpt><trkpt lat="43.359219" lon="17.6747639"><ele>240.0</ele><time>2026-04-28T15:50:42.269Z</time></trkpt><trkpt lat="43.3591129" lon="17.6749261"><ele>240.0</ele><time>2026-04-28T15:50:43.269Z</time></trkpt><trkpt lat="43.359012" lon="17.6750859"><ele>240.0</ele><time>2026-04-28T15:50:44.27Z</time></trkpt><trkpt lat="43.3589163" lon="17.6752509"><ele>240.0</ele><time>2026-04-28T15:50:45.27Z</time></trkpt><trkpt lat="43.3588242" lon="17.6754044"><ele>240.25</ele><time>2026-04-28T15:50:46.269Z</time></trkpt><trkpt lat="43.3587342" lon="17.6755542"><ele>240.5</ele><time>2026-04-28T15:50:47.27Z</time></trkpt><trkpt lat="43.3586519" lon="17.6756958"><ele>240.75</ele><time>2026-04-28T15:50:48.273Z</time></trkpt><trkpt lat="43.3585666" lon="17.6758402"><ele>241.0</ele><time>2026-04-28T15:50:49.272Z</time></trkpt><trkpt lat="43.3584814" lon="17.675996"><ele>241.33333333333331</ele><time>2026-04-28T15:50:50.271Z</time></trkpt><trkpt lat="43.358389" lon="17.6761518"><ele>241.66666666666669</ele><time>2026-04-28T15:50:51.273Z</time></trkpt><trkpt lat="43.3582919" lon="17.676313"><ele>242.0</ele><time>2026-04-28T15:50:52.275Z</time></trkpt><trkpt lat="43.3581958" lon="17.6764759"><ele>242.0</ele><time>2026-04-28T15:50:53.271Z</time></trkpt><trkpt lat="43.3580998" lon="17.6766431"><ele>242.0</ele><time>2026-04-28T15:50:54.272Z</time></trkpt><trkpt lat="43.3579975" lon="17.6768126"><ele>242.0</ele><time>2026-04-28T15:50:55.274Z</time></trkpt><trkpt lat="43.3578945" lon="17.6769805"><ele>242.0</ele><time>2026-04-28T15:50:56.273Z</time></trkpt><trkpt lat="43.357796" lon="17.6771514"><ele>242.0</ele><time>2026-04-28T15:50:57.275Z</time></trkpt><trkpt lat="43.3576991" lon="17.6773255"><ele>242.0</ele><time>2026-04-28T15:50:58.275Z</time></trkpt><trkpt lat="43.3575952" lon="17.6774936"><ele>242.0</ele><time>2026-04-28T15:50:59.271Z</time></trkpt><trkpt lat="43.3574989" lon="17.6776673"><ele>242.0</ele><time>2026-04-28T15:51:00.271Z</time></trkpt><trkpt lat="43.3573983" lon="17.6778386"><ele>242.0</ele><time>2026-04-28T15:51:01.281Z</time></trkpt><trkpt lat="43.3572956" lon="17.6780086"><ele>242.33333333333334</ele><time>2026-04-28T15:51:02.271Z</time></trkpt><trkpt lat="43.357194" lon="17.67818"><ele>242.66666666666669</ele><time>2026-04-28T15:51:03.271Z</time></trkpt><trkpt lat="43.3570948" lon="17.6783482"><ele>243.0</ele><time>2026-04-28T15:51:04.272Z</time></trkpt><trkpt lat="43.3570074" lon="17.6785173"><ele>242.75</ele><time>2026-04-28T15:51:05.272Z</time></trkpt><trkpt lat="43.3569279" lon="17.6786815"><ele>242.5</ele><time>2026-04-28T15:51:06.271Z</time></trkpt><trkpt lat="43.3568558" lon="17.6788349"><ele>242.25</ele><time>2026-04-28T15:51:07.277Z</time></trkpt><trkpt lat="43.3567834" lon="17.6789814"><ele>242.0</ele><time>2026-04-28T15:51:08.273Z</time></trkpt><trkpt lat="43.3567197" lon="17.6791294"><ele>242.0</ele><time>2026-04-28T15:51:09.273Z</time></trkpt><trkpt lat="43.3566518" lon="17.6792853"><ele>242.0</ele><time>2026-04-28T15:51:10.275Z</time></trkpt><trkpt lat="43.3565792" lon="17.6794448"><ele>242.0</ele><time>2026-04-28T15:51:11.287Z</time></trkpt><trkpt lat="43.3565118" lon="17.6796"><ele>242.0</ele><time>2026-04-28T15:51:12.268Z</time></trkpt><trkpt lat="43.3564507" lon="17.679755"><ele>242.0</ele><time>2026-04-28T15:51:13.267Z</time></trkpt><trkpt lat="43.3563848" lon="17.6799123"><ele>242.0</ele><time>2026-04-28T15:51:14.268Z</time></trkpt><trkpt lat="43.3563154" lon="17.6800706"><ele>242.0</ele><time>2026-04-28T15:51:15.268Z</time></trkpt><trkpt lat="43.3562506" lon="17.6802197"><ele>242.0</ele><time>2026-04-28T15:51:16.271Z</time></trkpt><trkpt lat="43.3561852" lon="17.6803653"><ele>241.0</ele><time>2026-04-28T15:51:17.271Z</time></trkpt><trkpt lat="43.3561148" lon="17.6805209"><ele>240.0</ele><time>2026-04-28T15:51:18.27Z</time></trkpt><trkpt lat="43.3560439" lon="17.6806825"><ele>239.0</ele><time>2026-04-28T15:51:19.271Z</time></trkpt><trkpt lat="43.3559725" lon="17.6808443"><ele>238.0</ele><time>2026-04-28T15:51:20.273Z</time></trkpt><trkpt lat="43.3559065" lon="17.6809958"><ele>238.5</ele><time>2026-04-28T15:51:21.271Z</time></trkpt><trkpt lat="43.3558425" lon="17.6811423"><ele>239.0</ele><time>2026-04-28T15:51:22.271Z</time></trkpt><trkpt lat="43.3557803" lon="17.681287"><ele>239.5</ele><time>2026-04-28T15:51:23.271Z</time></trkpt><trkpt lat="43.3557257" lon="17.6814301"><ele>240.0</ele><time>2026-04-28T15:51:24.27Z</time></trkpt><trkpt lat="43.3556741" lon="17.6815674"><ele>240.0</ele><time>2026-04-28T15:51:25.271Z</time></trkpt><trkpt lat="43.3556291" lon="17.6817138"><ele>240.0</ele><time>2026-04-28T15:51:26.271Z</time></trkpt><trkpt lat="43.3555999" lon="17.6818743"><ele>240.0</ele><time>2026-04-28T15:51:27.27Z</time></trkpt><trkpt lat="43.3555781" lon="17.6820399"><ele>240.0</ele><time>2026-04-28T15:51:28.27Z</time></trkpt><trkpt lat="43.3555636" lon="17.6822144"><ele>240.0</ele><time>2026-04-28T15:51:29.27Z</time></trkpt><trkpt lat="43.3555553" lon="17.6823981"><ele>240.0</ele><time>2026-04-28T15:51:30.27Z</time></trkpt><trkpt lat="43.3555496" lon="17.6825876"><ele>240.0</ele><time>2026-04-28T15:51:31.271Z</time></trkpt><trkpt lat="43.3555466" lon="17.6827885"><ele>240.0</ele><time>2026-04-28T15:51:32.27Z</time></trkpt><trkpt lat="43.3555402" lon="17.6829776"><ele>238.75</ele><time>2026-04-28T15:51:33.27Z</time></trkpt><trkpt lat="43.3555308" lon="17.6831579"><ele>237.5</ele><time>2026-04-28T15:51:34.269Z</time></trkpt><trkpt lat="43.3555054" lon="17.683341"><ele>236.25</ele><time>2026-04-28T15:51:35.269Z</time></trkpt><trkpt lat="43.3554676" lon="17.6834969"><ele>235.0</ele><time>2026-04-28T15:51:36.27Z</time></trkpt><trkpt lat="43.3554142" lon="17.6836378"><ele>235.0</ele><time>2026-04-28T15:51:37.27Z</time></trkpt><trkpt lat="43.3553495" lon="17.6837678"><ele>235.0</ele><time>2026-04-28T15:51:38.27Z</time></trkpt><trkpt lat="43.3552794" lon="17.6838901"><ele>235.0</ele><time>2026-04-28T15:51:39.272Z</time></trkpt><trkpt lat="43.3551891" lon="17.6839797"><ele>235.0</ele><time>2026-04-28T15:51:40.269Z</time></trkpt><trkpt lat="43.3550872" lon="17.6840584"><ele>235.0</ele><time>2026-04-28T15:51:41.268Z</time></trkpt><trkpt lat="43.354975" lon="17.6841096"><ele>235.0</ele><time>2026-04-28T15:51:42.269Z</time></trkpt><trkpt lat="43.3548544" lon="17.6841518"><ele>235.0</ele><time>2026-04-28T15:51:43.27Z</time></trkpt><trkpt lat="43.3547303" lon="17.684171"><ele>235.0</ele><time>2026-04-28T15:51:44.27Z</time></trkpt><trkpt lat="43.3546029" lon="17.6841831"><ele>234.5</ele><time>2026-04-28T15:51:45.27Z</time></trkpt><trkpt lat="43.3544742" lon="17.6841969"><ele>234.0</ele><time>2026-04-28T15:51:46.268Z</time></trkpt><trkpt lat="43.3543467" lon="17.6842064"><ele>233.5</ele><time>2026-04-28T15:51:47.267Z</time></trkpt><trkpt lat="43.3542217" lon="17.684211"><ele>233.0</ele><time>2026-04-28T15:51:48.268Z</time></trkpt><trkpt lat="43.3540921" lon="17.6842197"><ele>233.0</ele><time>2026-04-28T15:51:49.271Z</time></trkpt><trkpt lat="43.3539657" lon="17.6842278"><ele>233.0</ele><time>2026-04-28T15:51:50.269Z</time></trkpt><trkpt lat="43.353839" lon="17.6842389"><ele>233.0</ele><time>2026-04-28T15:51:51.271Z</time></trkpt><trkpt lat="43.3537092" lon="17.6842569"><ele>233.0</ele><time>2026-04-28T15:51:52.27Z</time></trkpt><trkpt lat="43.3535814" lon="17.6842777"><ele>232.5</ele><time>2026-04-28T15:51:53.27Z</time></trkpt><trkpt lat="43.3534543" lon="17.6843133"><ele>232.0</ele><time>2026-04-28T15:51:54.27Z</time></trkpt><trkpt lat="43.3533338" lon="17.6843676"><ele>231.5</ele><time>2026-04-28T15:51:55.269Z</time></trkpt><trkpt lat="43.3532162" lon="17.68444"><ele>231.0</ele><time>2026-04-28T15:51:56.27Z</time></trkpt><trkpt lat="43.3530999" lon="17.6845197"><ele>231.0</ele><time>2026-04-28T15:51:57.272Z</time></trkpt><trkpt lat="43.3529973" lon="17.6846181"><ele>231.0</ele><time>2026-04-28T15:51:58.269Z</time></trkpt><trkpt lat="43.3528949" lon="17.6847267"><ele>231.0</ele><time>2026-04-28T15:51:59.27Z</time></trkpt><trkpt lat="43.3527977" lon="17.6848425"><ele>231.0</ele><time>2026-04-28T15:52:00.27Z</time></trkpt><trkpt lat="43.3527117" lon="17.6849817"><ele>231.0</ele><time>2026-04-28T15:52:01.27Z</time></trkpt><trkpt lat="43.3526348" lon="17.6851395"><ele>231.0</ele><time>2026-04-28T15:52:02.271Z</time></trkpt><trkpt lat="43.3525632" lon="17.6853"><ele>231.0</ele><time>2026-04-28T15:52:03.27Z</time></trkpt><trkpt lat="43.3525003" lon="17.6854604"><ele>231.0</ele><time>2026-04-28T15:52:04.271Z</time></trkpt><trkpt lat="43.352438" lon="17.6856315"><ele>231.5</ele><time>2026-04-28T15:52:05.273Z</time></trkpt><trkpt lat="43.3523742" lon="17.6858019"><ele>232.0</ele><time>2026-04-28T15:52:06.271Z</time></trkpt><trkpt lat="43.3523153" lon="17.6859642"><ele>232.5</ele><time>2026-04-28T15:52:07.273Z</time></trkpt><trkpt lat="43.3522627" lon="17.6861251"><ele>233.0</ele><time>2026-04-28T15:52:08.272Z</time></trkpt><trkpt lat="43.3522045" lon="17.6862822"><ele>231.75</ele><time>2026-04-28T15:52:09.27Z</time></trkpt><trkpt lat="43.3521446" lon="17.6864416"><ele>230.5</ele><time>2026-04-28T15:52:10.271Z</time></trkpt><trkpt lat="43.3520864" lon="17.6866047"><ele>229.25</ele><time>2026-04-28T15:52:11.272Z</time></trkpt><trkpt lat="43.3520291" lon="17.6867587"><ele>228.0</ele><time>2026-04-28T15:52:12.272Z</time></trkpt><trkpt lat="43.3519785" lon="17.6868921"><ele>228.66666666666666</ele><time>2026-04-28T15:52:13.269Z</time></trkpt><trkpt lat="43.3519255" lon="17.6870123"><ele>229.33333333333331</ele><time>2026-04-28T15:52:14.272Z</time></trkpt><trkpt lat="43.3518845" lon="17.6871315"><ele>230.0</ele><time>2026-04-28T15:52:15.271Z</time></trkpt><trkpt lat="43.3518501" lon="17.687221"><ele>230.66666666666666</ele><time>2026-04-28T15:52:16.27Z</time></trkpt><trkpt lat="43.3518188" lon="17.6873097"><ele>231.33333333333331</ele><time>2026-04-28T15:52:17.27Z</time></trkpt><trkpt lat="43.3517913" lon="17.6873886"><ele>232.0</ele><time>2026-04-28T15:52:18.271Z</time></trkpt><trkpt lat="43.3517594" lon="17.6874746"><ele>232.0</ele><time>2026-04-28T15:52:20.271Z</time></trkpt><trkpt lat="43.3517302" lon="17.6875567"><ele>232.0</ele><time>2026-04-28T15:52:23.27Z</time></trkpt><trkpt lat="43.3516889" lon="17.6876877"><ele>232.0</ele><time>2026-04-28T15:52:25.27Z</time></trkpt><trkpt lat="43.3516286" lon="17.6878531"><ele>232.0</ele><time>2026-04-28T15:52:27.271Z</time></trkpt><trkpt lat="43.3515968" lon="17.6879585"><ele>232.0</ele><time>2026-04-28T15:52:28.27Z</time></trkpt><trkpt lat="43.3515628" lon="17.6880653"><ele>231.8</ele><time>2026-04-28T15:52:29.272Z</time></trkpt><trkpt lat="43.3515195" lon="17.6881807"><ele>231.6</ele><time>2026-04-28T15:52:30.27Z</time></trkpt><trkpt lat="43.3514723" lon="17.6883096"><ele>231.40000000000003</ele><time>2026-04-28T15:52:31.27Z</time></trkpt><trkpt lat="43.3514226" lon="17.6884477"><ele>231.20000000000002</ele><time>2026-04-28T15:52:32.27Z</time></trkpt><trkpt lat="43.3513691" lon="17.6885948"><ele>231.0</ele><time>2026-04-28T15:52:33.272Z</time></trkpt><trkpt lat="43.3513124" lon="17.6887482"><ele>231.0</ele><time>2026-04-28T15:52:34.27Z</time></trkpt><trkpt lat="43.3512535" lon="17.6889091"><ele>231.00000000000003</ele><time>2026-04-28T15:52:35.271Z</time></trkpt><trkpt lat="43.3512071" lon="17.6890563"><ele>231.00000000000003</ele><time>2026-04-28T15:52:36.27Z</time></trkpt><trkpt lat="43.351168" lon="17.6891699"><ele>231.0</ele><time>2026-04-28T15:52:37.273Z</time></trkpt><trkpt lat="43.3511243" lon="17.6892883"><ele>231.0</ele><time>2026-04-28T15:52:38.27Z</time></trkpt><trkpt lat="43.3510787" lon="17.689411"><ele>231.4</ele><time>2026-04-28T15:52:39.27Z</time></trkpt><trkpt lat="43.3510337" lon="17.6895312"><ele>231.8</ele><time>2026-04-28T15:52:40.271Z</time></trkpt><trkpt lat="43.350987" lon="17.6896658"><ele>232.20000000000002</ele><time>2026-04-28T15:52:41.27Z</time></trkpt><trkpt lat="43.350936" lon="17.689804"><ele>232.60000000000002</ele><time>2026-04-28T15:52:42.277Z</time></trkpt><trkpt lat="43.3508803" lon="17.6899505"><ele>233.0</ele><time>2026-04-28T15:52:43.271Z</time></trkpt><trkpt lat="43.3508232" lon="17.6901074"><ele>234.0</ele><time>2026-04-28T15:52:44.271Z</time></trkpt><trkpt lat="43.3507644" lon="17.6902764"><ele>235.0</ele><time>2026-04-28T15:52:45.27Z</time></trkpt><trkpt lat="43.3507087" lon="17.6904565"><ele>236.0</ele><time>2026-04-28T15:52:46.273Z</time></trkpt><trkpt lat="43.3506402" lon="17.6906366"><ele>237.0</ele><time>2026-04-28T15:52:47.272Z</time></trkpt><trkpt lat="43.3505667" lon="17.6908168"><ele>236.33333333333331</ele><time>2026-04-28T15:52:48.271Z</time></trkpt><trkpt lat="43.3504912" lon="17.6910031"><ele>235.66666666666666</ele><time>2026-04-28T15:52:49.271Z</time></trkpt><trkpt lat="43.350411" lon="17.6911734"><ele>235.0</ele><time>2026-04-28T15:52:50.272Z</time></trkpt><trkpt lat="43.3503276" lon="17.6913432"><ele>235.0</ele><time>2026-04-28T15:52:51.269Z</time></trkpt><trkpt lat="43.3502392" lon="17.6915022"><ele>235.0</ele><time>2026-04-28T15:52:52.27Z</time></trkpt><trkpt lat="43.3501464" lon="17.6916499"><ele>235.0</ele><time>2026-04-28T15:52:53.27Z</time></trkpt><trkpt lat="43.3500625" lon="17.6917957"><ele>235.0</ele><time>2026-04-28T15:52:54.27Z</time></trkpt><trkpt lat="43.3499683" lon="17.6919404"><ele>234.5</ele><time>2026-04-28T15:52:55.27Z</time></trkpt><trkpt lat="43.3498697" lon="17.6920891"><ele>234.0</ele><time>2026-04-28T15:52:56.272Z</time></trkpt><trkpt lat="43.3497719" lon="17.6922386"><ele>233.5</ele><time>2026-04-28T15:52:57.271Z</time></trkpt><trkpt lat="43.3496685" lon="17.6923981"><ele>233.0</ele><time>2026-04-28T15:52:58.27Z</time></trkpt><trkpt lat="43.3495548" lon="17.6925664"><ele>233.0</ele><time>2026-04-28T15:52:59.269Z</time></trkpt><trkpt lat="43.349443" lon="17.6927338"><ele>233.0</ele><time>2026-04-28T15:53:00.271Z</time></trkpt><trkpt lat="43.3493298" lon="17.692902"><ele>233.0</ele><time>2026-04-28T15:53:01.27Z</time></trkpt><trkpt lat="43.3492142" lon="17.6930745"><ele>234.0</ele><time>2026-04-28T15:53:02.272Z</time></trkpt><trkpt lat="43.3491007" lon="17.6932427"><ele>235.0</ele><time>2026-04-28T15:53:03.271Z</time></trkpt><trkpt lat="43.3489715" lon="17.6934015"><ele>236.0</ele><time>2026-04-28T15:53:04.271Z</time></trkpt><trkpt lat="43.3488372" lon="17.693539"><ele>235.66666666666669</ele><time>2026-04-28T15:53:05.271Z</time></trkpt><trkpt lat="43.3487004" lon="17.6936668"><ele>235.33333333333331</ele><time>2026-04-28T15:53:06.269Z</time></trkpt><trkpt lat="43.3485767" lon="17.6937807"><ele>235.0</ele><time>2026-04-28T15:53:07.27Z</time></trkpt><trkpt lat="43.3484508" lon="17.6938949"><ele>235.0</ele><time>2026-04-28T15:53:08.271Z</time></trkpt><trkpt lat="43.3483289" lon="17.6940235"><ele>235.0</ele><time>2026-04-28T15:53:09.27Z</time></trkpt><trkpt lat="43.3482132" lon="17.6941679"><ele>235.0</ele><time>2026-04-28T15:53:10.272Z</time></trkpt><trkpt lat="43.3480978" lon="17.6943304"><ele>234.0</ele><time>2026-04-28T15:53:11.271Z</time></trkpt><trkpt lat="43.3479949" lon="17.6945017"><ele>233.0</ele><time>2026-04-28T15:53:12.273Z</time></trkpt><trkpt lat="43.3479015" lon="17.6946669"><ele>232.0</ele><time>2026-04-28T15:53:13.272Z</time></trkpt><trkpt lat="43.3478111" lon="17.6948223"><ele>232.0</ele><time>2026-04-28T15:53:14.27Z</time></trkpt><trkpt lat="43.3477221" lon="17.6949786"><ele>232.0</ele><time>2026-04-28T15:53:15.269Z</time></trkpt><trkpt lat="43.3476335" lon="17.6951365"><ele>232.0</ele><time>2026-04-28T15:53:16.271Z</time></trkpt><trkpt lat="43.3475412" lon="17.6953108"><ele>232.0</ele><time>2026-04-28T15:53:17.27Z</time></trkpt><trkpt lat="43.3474454" lon="17.695484"><ele>231.66666666666666</ele><time>2026-04-28T15:53:18.27Z</time></trkpt><trkpt lat="43.3473499" lon="17.6956503"><ele>231.33333333333331</ele><time>2026-04-28T15:53:19.27Z</time></trkpt><trkpt lat="43.3472604" lon="17.6958188"><ele>231.0</ele><time>2026-04-28T15:53:20.269Z</time></trkpt><trkpt lat="43.3471687" lon="17.6959884"><ele>232.5</ele><time>2026-04-28T15:53:21.269Z</time></trkpt><trkpt lat="43.3470883" lon="17.696144"><ele>234.0</ele><time>2026-04-28T15:53:22.27Z</time></trkpt><trkpt lat="43.3469976" lon="17.696304"><ele>235.5</ele><time>2026-04-28T15:53:23.27Z</time></trkpt><trkpt lat="43.3469075" lon="17.6964628"><ele>237.0</ele><time>2026-04-28T15:53:24.269Z</time></trkpt><trkpt lat="43.3468072" lon="17.6966161"><ele>237.0</ele><time>2026-04-28T15:53:25.27Z</time></trkpt><trkpt lat="43.3467016" lon="17.696755"><ele>237.0</ele><time>2026-04-28T15:53:26.269Z</time></trkpt><trkpt lat="43.3465831" lon="17.6968807"><ele>237.0</ele><time>2026-04-28T15:53:27.268Z</time></trkpt><trkpt lat="43.3464569" lon="17.6969931"><ele>237.0</ele><time>2026-04-28T15:53:28.269Z</time></trkpt><trkpt lat="43.3463284" lon="17.6971084"><ele>237.0</ele><time>2026-04-28T15:53:29.27Z</time></trkpt><trkpt lat="43.3461955" lon="17.6972255"><ele>237.0</ele><time>2026-04-28T15:53:30.27Z</time></trkpt><trkpt lat="43.3460719" lon="17.6973449"><ele>237.0</ele><time>2026-04-28T15:53:31.271Z</time></trkpt><trkpt lat="43.3459516" lon="17.6974518"><ele>237.0</ele><time>2026-04-28T15:53:32.269Z</time></trkpt><trkpt lat="43.3458347" lon="17.6975581"><ele>237.0</ele><time>2026-04-28T15:53:33.27Z</time></trkpt><trkpt lat="43.3457263" lon="17.6976835"><ele>237.0</ele><time>2026-04-28T15:53:34.27Z</time></trkpt><trkpt lat="43.3456343" lon="17.6978191"><ele>237.0</ele><time>2026-04-28T15:53:35.271Z</time></trkpt><trkpt lat="43.3455522" lon="17.6979712"><ele>236.33333333333331</ele><time>2026-04-28T15:53:36.27Z</time></trkpt><trkpt lat="43.3454721" lon="17.6981414"><ele>235.66666666666666</ele><time>2026-04-28T15:53:37.271Z</time></trkpt><trkpt lat="43.3453925" lon="17.6983247"><ele>235.0</ele><time>2026-04-28T15:53:38.271Z</time></trkpt><trkpt lat="43.3453146" lon="17.6985133"><ele>236.0</ele><time>2026-04-28T15:53:39.271Z</time></trkpt><trkpt lat="43.3452274" lon="17.6987132"><ele>237.0</ele><time>2026-04-28T15:53:40.27Z</time></trkpt><trkpt lat="43.3451438" lon="17.6989169"><ele>238.0</ele><time>2026-04-28T15:53:41.269Z</time></trkpt><trkpt lat="43.3450614" lon="17.6991231"><ele>238.0</ele><time>2026-04-28T15:53:42.271Z</time></trkpt><trkpt lat="43.3449745" lon="17.6993266"><ele>238.0</ele><time>2026-04-28T15:53:43.271Z</time></trkpt><trkpt lat="43.3448916" lon="17.6995358"><ele>238.0</ele><time>2026-04-28T15:53:44.27Z</time></trkpt><trkpt lat="43.3448105" lon="17.6997512"><ele>237.33333333333331</ele><time>2026-04-28T15:53:45.27Z</time></trkpt><trkpt lat="43.3447346" lon="17.6999644"><ele>236.66666666666669</ele><time>2026-04-28T15:53:46.27Z</time></trkpt><trkpt lat="43.344661" lon="17.7001675"><ele>236.0</ele><time>2026-04-28T15:53:47.271Z</time></trkpt><trkpt lat="43.3445925" lon="17.700372"><ele>236.0</ele><time>2026-04-28T15:53:48.271Z</time></trkpt><trkpt lat="43.3445319" lon="17.7005786"><ele>236.0</ele><time>2026-04-28T15:53:49.27Z</time></trkpt><trkpt lat="43.3444874" lon="17.7007941"><ele>236.0</ele><time>2026-04-28T15:53:50.271Z</time></trkpt><trkpt lat="43.3444563" lon="17.7010208"><ele>236.0</ele><time>2026-04-28T15:53:51.27Z</time></trkpt><trkpt lat="43.344436" lon="17.7012602"><ele>236.0</ele><time>2026-04-28T15:53:52.27Z</time></trkpt><trkpt lat="43.3444143" lon="17.701488"><ele>236.0</ele><time>2026-04-28T15:53:53.271Z</time></trkpt><trkpt lat="43.3443906" lon="17.7017161"><ele>236.66666666666669</ele><time>2026-04-28T15:53:54.271Z</time></trkpt><trkpt lat="43.3443519" lon="17.7019357"><ele>237.33333333333331</ele><time>2026-04-28T15:53:55.27Z</time></trkpt><trkpt lat="43.3443038" lon="17.7021515"><ele>238.0</ele><time>2026-04-28T15:53:56.27Z</time></trkpt><trkpt lat="43.3442516" lon="17.7023637"><ele>238.0</ele><time>2026-04-28T15:53:57.271Z</time></trkpt><trkpt lat="43.3441978" lon="17.7025674"><ele>238.0</ele><time>2026-04-28T15:53:58.271Z</time></trkpt><trkpt lat="43.3441426" lon="17.7027654"><ele>238.0</ele><time>2026-04-28T15:53:59.271Z</time></trkpt><trkpt lat="43.3440805" lon="17.7029563"><ele>237.5</ele><time>2026-04-28T15:54:00.27Z</time></trkpt><trkpt lat="43.3440229" lon="17.7031466"><ele>237.0</ele><time>2026-04-28T15:54:01.269Z</time></trkpt><trkpt lat="43.3439634" lon="17.7033315"><ele>236.5</ele><time>2026-04-28T15:54:02.268Z</time></trkpt><trkpt lat="43.3439048" lon="17.7035163"><ele>236.0</ele><time>2026-04-28T15:54:03.268Z</time></trkpt><trkpt lat="43.3438524" lon="17.7036997"><ele>236.0</ele><time>2026-04-28T15:54:04.268Z</time></trkpt><trkpt lat="43.343798" lon="17.7038887"><ele>236.0</ele><time>2026-04-28T15:54:05.27Z</time></trkpt><trkpt lat="43.3437438" lon="17.7040715"><ele>236.0</ele><time>2026-04-28T15:54:06.272Z</time></trkpt><trkpt lat="43.3436884" lon="17.7042545"><ele>236.0</ele><time>2026-04-28T15:54:07.272Z</time></trkpt><trkpt lat="43.3436325" lon="17.7044457"><ele>237.0</ele><time>2026-04-28T15:54:08.271Z</time></trkpt><trkpt lat="43.3435707" lon="17.7046287"><ele>238.0</ele><time>2026-04-28T15:54:09.269Z</time></trkpt><trkpt lat="43.3435109" lon="17.7048172"><ele>239.0</ele><time>2026-04-28T15:54:10.271Z</time></trkpt><trkpt lat="43.343451" lon="17.7050019"><ele>240.0</ele><time>2026-04-28T15:54:11.27Z</time></trkpt><trkpt lat="43.3433899" lon="17.7051955"><ele>240.25</ele><time>2026-04-28T15:54:12.27Z</time></trkpt><trkpt lat="43.3433272" lon="17.7053797"><ele>240.5</ele><time>2026-04-28T15:54:13.27Z</time></trkpt><trkpt lat="43.3432624" lon="17.7055577"><ele>240.75</ele><time>2026-04-28T15:54:14.271Z</time></trkpt><trkpt lat="43.3432007" lon="17.7057227"><ele>241.0</ele><time>2026-04-28T15:54:15.273Z</time></trkpt><trkpt lat="43.3431391" lon="17.705888"><ele>241.0</ele><time>2026-04-28T15:54:16.272Z</time></trkpt><trkpt lat="43.3430782" lon="17.7060506"><ele>241.0</ele><time>2026-04-28T15:54:17.271Z</time></trkpt><trkpt lat="43.3430106" lon="17.7062113"><ele>241.0</ele><time>2026-04-28T15:54:18.272Z</time></trkpt><trkpt lat="43.342943" lon="17.7063712"><ele>241.0</ele><time>2026-04-28T15:54:19.271Z</time></trkpt><trkpt lat="43.3428729" lon="17.7065326"><ele>240.75</ele><time>2026-04-28T15:54:20.27Z</time></trkpt><trkpt lat="43.3428101" lon="17.7066867"><ele>240.5</ele><time>2026-04-28T15:54:21.272Z</time></trkpt><trkpt lat="43.3427449" lon="17.706836"><ele>240.25</ele><time>2026-04-28T15:54:22.271Z</time></trkpt><trkpt lat="43.3426728" lon="17.7069868"><ele>240.0</ele><time>2026-04-28T15:54:23.27Z</time></trkpt><trkpt lat="43.3425973" lon="17.7071389"><ele>240.0</ele><time>2026-04-28T15:54:24.271Z</time></trkpt><trkpt lat="43.3425231" lon="17.7072847"><ele>240.0</ele><time>2026-04-28T15:54:25.271Z</time></trkpt><trkpt lat="43.3424424" lon="17.7074424"><ele>240.0</ele><time>2026-04-28T15:54:26.271Z</time></trkpt><trkpt lat="43.342352" lon="17.7075916"><ele>240.0</ele><time>2026-04-28T15:54:27.271Z</time></trkpt><trkpt lat="43.3422483" lon="17.7077342"><ele>239.33333333333331</ele><time>2026-04-28T15:54:28.275Z</time></trkpt><trkpt lat="43.3421353" lon="17.7078696"><ele>238.66666666666666</ele><time>2026-04-28T15:54:29.271Z</time></trkpt><trkpt lat="43.3420177" lon="17.7080108"><ele>238.0</ele><time>2026-04-28T15:54:30.271Z</time></trkpt><trkpt lat="43.3418943" lon="17.7081525"><ele>238.0</ele><time>2026-04-28T15:54:31.271Z</time></trkpt><trkpt lat="43.3417711" lon="17.7082806"><ele>238.0</ele><time>2026-04-28T15:54:32.27Z</time></trkpt><trkpt lat="43.3416445" lon="17.7084104"><ele>238.0</ele><time>2026-04-28T15:54:33.271Z</time></trkpt><trkpt lat="43.341517" lon="17.708547"><ele>237.33333333333331</ele><time>2026-04-28T15:54:34.271Z</time></trkpt><trkpt lat="43.3413892" lon="17.7086829"><ele>236.66666666666669</ele><time>2026-04-28T15:54:35.27Z</time></trkpt><trkpt lat="43.3412702" lon="17.7088148"><ele>236.0</ele><time>2026-04-28T15:54:36.272Z</time></trkpt><trkpt lat="43.3411556" lon="17.7089497"><ele>236.0</ele><time>2026-04-28T15:54:37.272Z</time></trkpt><trkpt lat="43.3410419" lon="17.7090795"><ele>236.0</ele><time>2026-04-28T15:54:38.271Z</time></trkpt><trkpt lat="43.3409321" lon="17.7092198"><ele>236.0</ele><time>2026-04-28T15:54:39.27Z</time></trkpt><trkpt lat="43.3408252" lon="17.7093598"><ele>236.0</ele><time>2026-04-28T15:54:40.271Z</time></trkpt><trkpt lat="43.3407223" lon="17.7095012"><ele>236.25</ele><time>2026-04-28T15:54:41.271Z</time></trkpt><trkpt lat="43.3406287" lon="17.70964"><ele>236.5</ele><time>2026-04-28T15:54:42.27Z</time></trkpt><trkpt lat="43.3405388" lon="17.7097679"><ele>236.75</ele><time>2026-04-28T15:54:43.272Z</time></trkpt><trkpt lat="43.3404515" lon="17.7099009"><ele>237.0</ele><time>2026-04-28T15:54:44.271Z</time></trkpt><trkpt lat="43.3403665" lon="17.7100313"><ele>237.0</ele><time>2026-04-28T15:54:45.27Z</time></trkpt><trkpt lat="43.3402873" lon="17.7101544"><ele>237.0</ele><time>2026-04-28T15:54:46.27Z</time></trkpt><trkpt lat="43.3402104" lon="17.7102821"><ele>237.0</ele><time>2026-04-28T15:54:47.269Z</time></trkpt><trkpt lat="43.3401363" lon="17.7104138"><ele>237.0</ele><time>2026-04-28T15:54:48.271Z</time></trkpt><trkpt lat="43.3400709" lon="17.7105337"><ele>237.66666666666666</ele><time>2026-04-28T15:54:49.27Z</time></trkpt><trkpt lat="43.3400122" lon="17.7106493"><ele>238.33333333333331</ele><time>2026-04-28T15:54:50.269Z</time></trkpt><trkpt lat="43.3399654" lon="17.7107549"><ele>239.0</ele><time>2026-04-28T15:54:51.269Z</time></trkpt><trkpt lat="43.3399243" lon="17.7108527"><ele>239.66666666666666</ele><time>2026-04-28T15:54:52.269Z</time></trkpt><trkpt lat="43.3398944" lon="17.7109299"><ele>240.33333333333331</ele><time>2026-04-28T15:54:53.27Z</time></trkpt><trkpt lat="43.3398404" lon="17.7110591"><ele>241.0</ele><time>2026-04-28T15:54:55.269Z</time></trkpt><trkpt lat="43.3397824" lon="17.7111981"><ele>239.8</ele><time>2026-04-28T15:54:57.272Z</time></trkpt><trkpt lat="43.339695" lon="17.7113204"><ele>238.60000000000002</ele><time>2026-04-28T15:54:59.27Z</time></trkpt><trkpt lat="43.3396379" lon="17.7113694"><ele>237.4</ele><time>2026-04-28T15:55:00.27Z</time></trkpt><trkpt lat="43.3395721" lon="17.7114959"><ele>236.2</ele><time>2026-04-28T15:55:02.271Z</time></trkpt><trkpt lat="43.3395924" lon="17.711646"><ele>235.0</ele><time>2026-04-28T15:55:04.27Z</time></trkpt><trkpt lat="43.3396329" lon="17.7117145"><ele>235.0</ele><time>2026-04-28T15:55:05.269Z</time></trkpt><trkpt lat="43.3396782" lon="17.7117747"><ele>234.99999999999997</ele><time>2026-04-28T15:55:06.268Z</time></trkpt><trkpt lat="43.3397177" lon="17.7118516"><ele>235.0</ele><time>2026-04-28T15:55:07.272Z</time></trkpt><trkpt lat="43.3397393" lon="17.7119423"><ele>235.0</ele><time>2026-04-28T15:55:08.269Z</time></trkpt><trkpt lat="43.3397386" lon="17.7120459"><ele>234.99999999999997</ele><time>2026-04-28T15:55:09.271Z</time></trkpt><trkpt lat="43.3397198" lon="17.7121507"><ele>235.0</ele><time>2026-04-28T15:55:10.269Z</time></trkpt><trkpt lat="43.3396827" lon="17.712261"><ele>235.0</ele><time>2026-04-28T15:55:11.271Z</time></trkpt><trkpt lat="43.3396283" lon="17.7123666"><ele>236.6</ele><time>2026-04-28T15:55:12.269Z</time></trkpt><trkpt lat="43.3395583" lon="17.7124724"><ele>238.2</ele><time>2026-04-28T15:55:13.271Z</time></trkpt><trkpt lat="43.3394854" lon="17.7125847"><ele>239.8</ele><time>2026-04-28T15:55:14.269Z</time></trkpt><trkpt lat="43.3394109" lon="17.7127072"><ele>241.4</ele><time>2026-04-28T15:55:15.27Z</time></trkpt><trkpt lat="43.3393388" lon="17.7128376"><ele>243.0</ele><time>2026-04-28T15:55:16.272Z</time></trkpt><trkpt lat="43.3392664" lon="17.7129764"><ele>245.0</ele><time>2026-04-28T15:55:17.277Z</time></trkpt><trkpt lat="43.3391948" lon="17.7131237"><ele>247.0</ele><time>2026-04-28T15:55:18.27Z</time></trkpt><trkpt lat="43.3391295" lon="17.7132806"><ele>249.0</ele><time>2026-04-28T15:55:19.272Z</time></trkpt><trkpt lat="43.3390548" lon="17.7134359"><ele>251.0</ele><time>2026-04-28T15:55:20.27Z</time></trkpt><trkpt lat="43.3389806" lon="17.713598"><ele>252.75</ele><time>2026-04-28T15:55:21.27Z</time></trkpt><trkpt lat="43.3388987" lon="17.7137606"><ele>254.5</ele><time>2026-04-28T15:55:22.27Z</time></trkpt><trkpt lat="43.3388098" lon="17.7139183"><ele>256.25</ele><time>2026-04-28T15:55:23.271Z</time></trkpt><trkpt lat="43.3387154" lon="17.7140775"><ele>258.0</ele><time>2026-04-28T15:55:24.272Z</time></trkpt><trkpt lat="43.3386193" lon="17.714228"><ele>256.5</ele><time>2026-04-28T15:55:25.271Z</time></trkpt><trkpt lat="43.3385218" lon="17.7143798"><ele>255.0</ele><time>2026-04-28T15:55:26.27Z</time></trkpt><trkpt lat="43.3384336" lon="17.714531"><ele>253.5</ele><time>2026-04-28T15:55:27.27Z</time></trkpt><trkpt lat="43.3383536" lon="17.7146994"><ele>252.0</ele><time>2026-04-28T15:55:28.27Z</time></trkpt><trkpt lat="43.3382797" lon="17.7148738"><ele>252.0</ele><time>2026-04-28T15:55:29.27Z</time></trkpt><trkpt lat="43.3382117" lon="17.7150578"><ele>252.0</ele><time>2026-04-28T15:55:30.27Z</time></trkpt><trkpt lat="43.3381465" lon="17.7152514"><ele>252.0</ele><time>2026-04-28T15:55:31.27Z</time></trkpt><trkpt lat="43.3380835" lon="17.7154513"><ele>250.0</ele><time>2026-04-28T15:55:32.271Z</time></trkpt><trkpt lat="43.3380207" lon="17.7156598"><ele>248.0</ele><time>2026-04-28T15:55:33.27Z</time></trkpt><trkpt lat="43.3379612" lon="17.7158741"><ele>246.0</ele><time>2026-04-28T15:55:34.27Z</time></trkpt><trkpt lat="43.3378944" lon="17.7160923"><ele>246.0</ele><time>2026-04-28T15:55:35.27Z</time></trkpt><trkpt lat="43.3378185" lon="17.7163073"><ele>246.0</ele><time>2026-04-28T15:55:36.272Z</time></trkpt><trkpt lat="43.3377314" lon="17.7165156"><ele>246.0</ele><time>2026-04-28T15:55:37.271Z</time></trkpt><trkpt lat="43.3376403" lon="17.7167271"><ele>250.66666666666669</ele><time>2026-04-28T15:55:38.272Z</time></trkpt><trkpt lat="43.3375463" lon="17.7169399"><ele>255.33333333333334</ele><time>2026-04-28T15:55:39.273Z</time></trkpt><trkpt lat="43.3374479" lon="17.71715"><ele>260.0</ele><time>2026-04-28T15:55:40.271Z</time></trkpt><trkpt lat="43.3373502" lon="17.7173601"><ele>260.0</ele><time>2026-04-28T15:55:41.269Z</time></trkpt><trkpt lat="43.3372513" lon="17.7175597"><ele>260.0</ele><time>2026-04-28T15:55:42.271Z</time></trkpt><trkpt lat="43.3371584" lon="17.7177521"><ele>260.0</ele><time>2026-04-28T15:55:43.27Z</time></trkpt><trkpt lat="43.3370703" lon="17.7179407"><ele>261.0</ele><time>2026-04-28T15:55:44.27Z</time></trkpt><trkpt lat="43.3369909" lon="17.7181217"><ele>262.0</ele><time>2026-04-28T15:55:45.271Z</time></trkpt><trkpt lat="43.3369162" lon="17.7182925"><ele>263.0</ele><time>2026-04-28T15:55:46.271Z</time></trkpt><trkpt lat="43.3368449" lon="17.718451"><ele>264.0</ele><time>2026-04-28T15:55:47.271Z</time></trkpt><trkpt lat="43.336781" lon="17.7186122"><ele>264.0</ele><time>2026-04-28T15:55:48.271Z</time></trkpt><trkpt lat="43.3367206" lon="17.7187773"><ele>264.0</ele><time>2026-04-28T15:55:49.268Z</time></trkpt><trkpt lat="43.3366716" lon="17.7189503"><ele>264.0</ele><time>2026-04-28T15:55:50.273Z</time></trkpt><trkpt lat="43.3366311" lon="17.7191228"><ele>264.0</ele><time>2026-04-28T15:55:51.268Z</time></trkpt><trkpt lat="43.3365961" lon="17.7193021"><ele>265.5</ele><time>2026-04-28T15:55:52.27Z</time></trkpt><trkpt lat="43.3365664" lon="17.7194878"><ele>267.0</ele><time>2026-04-28T15:55:53.271Z</time></trkpt><trkpt lat="43.336539" lon="17.7196799"><ele>268.5</ele><time>2026-04-28T15:55:54.27Z</time></trkpt><trkpt lat="43.3365139" lon="17.7198725"><ele>270.0</ele><time>2026-04-28T15:55:55.27Z</time></trkpt><trkpt lat="43.3365009" lon="17.7200785"><ele>271.0</ele><time>2026-04-28T15:55:56.271Z</time></trkpt><trkpt lat="43.3365006" lon="17.7202796"><ele>272.0</ele><time>2026-04-28T15:55:57.27Z</time></trkpt><trkpt lat="43.3365097" lon="17.7204797"><ele>273.0</ele><time>2026-04-28T15:55:58.272Z</time></trkpt><trkpt lat="43.3365169" lon="17.7206824"><ele>274.0</ele><time>2026-04-28T15:55:59.269Z</time></trkpt><trkpt lat="43.3365244" lon="17.7208779"><ele>275.0</ele><time>2026-04-28T15:56:00.275Z</time></trkpt><trkpt lat="43.3365172" lon="17.7210829"><ele>276.0</ele><time>2026-04-28T15:56:01.268Z</time></trkpt><trkpt lat="43.3364912" lon="17.7212816"><ele>277.0</ele><time>2026-04-28T15:56:02.27Z</time></trkpt><trkpt lat="43.3364608" lon="17.7214819"><ele>278.0</ele><time>2026-04-28T15:56:03.271Z</time></trkpt><trkpt lat="43.3364359" lon="17.7216634"><ele>278.0</ele><time>2026-04-28T15:56:04.27Z</time></trkpt><trkpt lat="43.3364145" lon="17.7218363"><ele>278.0</ele><time>2026-04-28T15:56:05.271Z</time></trkpt><trkpt lat="43.3364" lon="17.7220061"><ele>278.0</ele><time>2026-04-28T15:56:06.27Z</time></trkpt><trkpt lat="43.3363898" lon="17.722178"><ele>278.0</ele><time>2026-04-28T15:56:07.272Z</time></trkpt><trkpt lat="43.3363792" lon="17.7223475"><ele>276.2</ele><time>2026-04-28T15:56:08.27Z</time></trkpt><trkpt lat="43.3363689" lon="17.7225042"><ele>274.4</ele><time>2026-04-28T15:56:09.27Z</time></trkpt><trkpt lat="43.3363579" lon="17.7226487"><ele>272.59999999999997</ele><time>2026-04-28T15:56:10.271Z</time></trkpt><trkpt lat="43.3363408" lon="17.7227936"><ele>270.8</ele><time>2026-04-28T15:56:11.27Z</time></trkpt><trkpt lat="43.3363119" lon="17.7229281"><ele>269.0</ele><time>2026-04-28T15:56:12.27Z</time></trkpt><trkpt lat="43.3362681" lon="17.723074"><ele>269.0</ele><time>2026-04-28T15:56:13.268Z</time></trkpt><trkpt lat="43.3362096" lon="17.7232195"><ele>269.0</ele><time>2026-04-28T15:56:14.27Z</time></trkpt><trkpt lat="43.3361475" lon="17.7233695"><ele>269.0</ele><time>2026-04-28T15:56:15.27Z</time></trkpt><trkpt lat="43.3360821" lon="17.7235186"><ele>269.0</ele><time>2026-04-28T15:56:16.269Z</time></trkpt><trkpt lat="43.3360177" lon="17.7236639"><ele>271.25</ele><time>2026-04-28T15:56:17.27Z</time></trkpt><trkpt lat="43.3359581" lon="17.7238081"><ele>273.5</ele><time>2026-04-28T15:56:18.27Z</time></trkpt><trkpt lat="43.3359016" lon="17.7239563"><ele>275.75</ele><time>2026-04-28T15:56:19.272Z</time></trkpt><trkpt lat="43.3358388" lon="17.7241014"><ele>278.0</ele><time>2026-04-28T15:56:20.27Z</time></trkpt><trkpt lat="43.3357778" lon="17.7242493"><ele>279.75</ele><time>2026-04-28T15:56:21.269Z</time></trkpt><trkpt lat="43.3357203" lon="17.7244057"><ele>281.5</ele><time>2026-04-28T15:56:22.27Z</time></trkpt><trkpt lat="43.3356744" lon="17.7245697"><ele>283.25</ele><time>2026-04-28T15:56:23.271Z</time></trkpt><trkpt lat="43.3356348" lon="17.7247431"><ele>285.0</ele><time>2026-04-28T15:56:24.271Z</time></trkpt><trkpt lat="43.3355993" lon="17.724915"><ele>285.0</ele><time>2026-04-28T15:56:25.272Z</time></trkpt><trkpt lat="43.3355551" lon="17.7251005"><ele>285.0</ele><time>2026-04-28T15:56:26.27Z</time></trkpt><trkpt lat="43.3355027" lon="17.7252787"><ele>285.0</ele><time>2026-04-28T15:56:27.281Z</time></trkpt><trkpt lat="43.3354461" lon="17.7254385"><ele>285.0</ele><time>2026-04-28T15:56:28.27Z</time></trkpt><trkpt lat="43.335385" lon="17.7256011"><ele>284.0</ele><time>2026-04-28T15:56:29.271Z</time></trkpt><trkpt lat="43.3353249" lon="17.725758"><ele>283.0</ele><time>2026-04-28T15:56:30.273Z</time></trkpt><trkpt lat="43.3352637" lon="17.725913"><ele>282.0</ele><time>2026-04-28T15:56:31.27Z</time></trkpt><trkpt lat="43.3351972" lon="17.7260833"><ele>281.0</ele><time>2026-04-28T15:56:32.27Z</time></trkpt><trkpt lat="43.3351176" lon="17.7262598"><ele>281.0</ele><time>2026-04-28T15:56:33.27Z</time></trkpt><trkpt lat="43.3350351" lon="17.7264449"><ele>281.0</ele><time>2026-04-28T15:56:34.273Z</time></trkpt><trkpt lat="43.3349469" lon="17.7266379"><ele>281.0</ele><time>2026-04-28T15:56:35.27Z</time></trkpt><trkpt lat="43.3348601" lon="17.7268449"><ele>284.6666666666667</ele><time>2026-04-28T15:56:36.271Z</time></trkpt><trkpt lat="43.3347704" lon="17.7270542"><ele>288.3333333333333</ele><time>2026-04-28T15:56:37.271Z</time></trkpt><trkpt lat="43.3346753" lon="17.7272559"><ele>292.0</ele><time>2026-04-28T15:56:38.27Z</time></trkpt><trkpt lat="43.3345808" lon="17.7274638"><ele>287.3333333333333</ele><time>2026-04-28T15:56:39.271Z</time></trkpt><trkpt lat="43.3344834" lon="17.7276665"><ele>282.6666666666667</ele><time>2026-04-28T15:56:40.271Z</time></trkpt><trkpt lat="43.3343838" lon="17.7278647"><ele>278.0</ele><time>2026-04-28T15:56:41.272Z</time></trkpt><trkpt lat="43.3342802" lon="17.7280681"><ele>278.0</ele><time>2026-04-28T15:56:42.271Z</time></trkpt><trkpt lat="43.3341763" lon="17.7282704"><ele>278.0</ele><time>2026-04-28T15:56:43.27Z</time></trkpt><trkpt lat="43.3340739" lon="17.7284757"><ele>278.0</ele><time>2026-04-28T15:56:44.271Z</time></trkpt><trkpt lat="43.3339736" lon="17.7286856"><ele>272.0</ele><time>2026-04-28T15:56:45.27Z</time></trkpt><trkpt lat="43.333877" lon="17.7288975"><ele>266.0</ele><time>2026-04-28T15:56:46.271Z</time></trkpt><trkpt lat="43.3337884" lon="17.7291144"><ele>260.0</ele><time>2026-04-28T15:56:47.27Z</time></trkpt><trkpt lat="43.3337054" lon="17.7293354"><ele>265.33333333333337</ele><time>2026-04-28T15:56:48.27Z</time></trkpt><trkpt lat="43.3336279" lon="17.7295552"><ele>270.6666666666667</ele><time>2026-04-28T15:56:49.27Z</time></trkpt><trkpt lat="43.3335543" lon="17.729779"><ele>276.0</ele><time>2026-04-28T15:56:50.271Z</time></trkpt><trkpt lat="43.3334816" lon="17.7299965"><ele>276.0</ele><time>2026-04-28T15:56:51.267Z</time></trkpt><trkpt lat="43.3334101" lon="17.730215"><ele>276.0</ele><time>2026-04-28T15:56:52.267Z</time></trkpt><trkpt lat="43.3333415" lon="17.7304354"><ele>276.0</ele><time>2026-04-28T15:56:53.267Z</time></trkpt><trkpt lat="43.3332826" lon="17.7306564"><ele>280.3333333333333</ele><time>2026-04-28T15:56:54.276Z</time></trkpt><trkpt lat="43.3332325" lon="17.7308814"><ele>284.66666666666663</ele><time>2026-04-28T15:56:55.27Z</time></trkpt><trkpt lat="43.333188" lon="17.731109"><ele>289.0</ele><time>2026-04-28T15:56:56.269Z</time></trkpt><trkpt lat="43.3331528" lon="17.7313409"><ele>292.3333333333333</ele><time>2026-04-28T15:56:57.269Z</time></trkpt><trkpt lat="43.3331233" lon="17.7315733"><ele>295.6666666666667</ele><time>2026-04-28T15:56:58.27Z</time></trkpt><trkpt lat="43.3330988" lon="17.7318079"><ele>299.0</ele><time>2026-04-28T15:56:59.269Z</time></trkpt><trkpt lat="43.3330726" lon="17.732039"><ele>290.33333333333337</ele><time>2026-04-28T15:57:00.269Z</time></trkpt><trkpt lat="43.3330499" lon="17.7322679"><ele>281.6666666666667</ele><time>2026-04-28T15:57:01.271Z</time></trkpt><trkpt lat="43.3330352" lon="17.7324962"><ele>273.0</ele><time>2026-04-28T15:57:02.271Z</time></trkpt><trkpt lat="43.3330351" lon="17.7327256"><ele>273.0</ele><time>2026-04-28T15:57:03.27Z</time></trkpt><trkpt lat="43.3330448" lon="17.7329483"><ele>273.0</ele><time>2026-04-28T15:57:04.269Z</time></trkpt><trkpt lat="43.333069" lon="17.7331769"><ele>273.0</ele><time>2026-04-28T15:57:05.27Z</time></trkpt><trkpt lat="43.3331049" lon="17.7334068"><ele>283.3333333333333</ele><time>2026-04-28T15:57:06.269Z</time></trkpt><trkpt lat="43.3331578" lon="17.7336269"><ele>293.66666666666663</ele><time>2026-04-28T15:57:07.269Z</time></trkpt><trkpt lat="43.3332287" lon="17.733843"><ele>304.0</ele><time>2026-04-28T15:57:08.271Z</time></trkpt><trkpt lat="43.3333123" lon="17.7340513"><ele>304.0</ele><time>2026-04-28T15:57:09.271Z</time></trkpt><trkpt lat="43.333404" lon="17.7342563"><ele>304.0</ele><time>2026-04-28T15:57:10.271Z</time></trkpt><trkpt lat="43.3334956" lon="17.7344509"><ele>304.0</ele><time>2026-04-28T15:57:11.274Z</time></trkpt><trkpt lat="43.3335813" lon="17.7346239"><ele>305.75</ele><time>2026-04-28T15:57:12.271Z</time></trkpt><trkpt lat="43.3336618" lon="17.7347887"><ele>307.5</ele><time>2026-04-28T15:57:13.272Z</time></trkpt><trkpt lat="43.3337437" lon="17.7349564"><ele>309.25</ele><time>2026-04-28T15:57:14.272Z</time></trkpt><trkpt lat="43.3338271" lon="17.7351196"><ele>311.0</ele><time>2026-04-28T15:57:15.27Z</time></trkpt><trkpt lat="43.3339102" lon="17.7352894"><ele>311.0</ele><time>2026-04-28T15:57:16.271Z</time></trkpt><trkpt lat="43.3339897" lon="17.7354582"><ele>311.0</ele><time>2026-04-28T15:57:17.271Z</time></trkpt><trkpt lat="43.3340704" lon="17.7356185"><ele>311.0</ele><time>2026-04-28T15:57:18.271Z</time></trkpt><trkpt lat="43.3341486" lon="17.7357751"><ele>311.0</ele><time>2026-04-28T15:57:19.271Z</time></trkpt><trkpt lat="43.3342228" lon="17.7359315"><ele>308.25</ele><time>2026-04-28T15:57:20.271Z</time></trkpt><trkpt lat="43.3343007" lon="17.7360873"><ele>305.5</ele><time>2026-04-28T15:57:21.268Z</time></trkpt><trkpt lat="43.3343824" lon="17.7362503"><ele>302.75</ele><time>2026-04-28T15:57:22.27Z</time></trkpt><trkpt lat="43.334466" lon="17.7364111"><ele>300.0</ele><time>2026-04-28T15:57:23.269Z</time></trkpt><trkpt lat="43.3345577" lon="17.7365696"><ele>300.0</ele><time>2026-04-28T15:57:24.272Z</time></trkpt><trkpt lat="43.3346619" lon="17.7367178"><ele>300.0</ele><time>2026-04-28T15:57:25.269Z</time></trkpt><trkpt lat="43.334773" lon="17.7368548"><ele>300.0</ele><time>2026-04-28T15:57:26.27Z</time></trkpt><trkpt lat="43.3348915" lon="17.7369771"><ele>300.0</ele><time>2026-04-28T15:57:27.269Z</time></trkpt><trkpt lat="43.3350175" lon="17.7370847"><ele>302.3333333333333</ele><time>2026-04-28T15:57:28.269Z</time></trkpt><trkpt lat="43.3351462" lon="17.7371791"><ele>304.66666666666663</ele><time>2026-04-28T15:57:29.269Z</time></trkpt><trkpt lat="43.3352882" lon="17.737266"><ele>307.0</ele><time>2026-04-28T15:57:30.269Z</time></trkpt><trkpt lat="43.3354374" lon="17.7373466"><ele>312.3333333333333</ele><time>2026-04-28T15:57:31.271Z</time></trkpt><trkpt lat="43.3355844" lon="17.7374264"><ele>317.6666666666667</ele><time>2026-04-28T15:57:32.273Z</time></trkpt><trkpt lat="43.3357299" lon="17.7375111"><ele>323.0</ele><time>2026-04-28T15:57:33.27Z</time></trkpt><trkpt lat="43.3358656" lon="17.7375995"><ele>323.0</ele><time>2026-04-28T15:57:34.27Z</time></trkpt><trkpt lat="43.3359994" lon="17.7377025"><ele>323.0</ele><time>2026-04-28T15:57:35.271Z</time></trkpt><trkpt lat="43.3361248" lon="17.7378246"><ele>323.0</ele><time>2026-04-28T15:57:36.271Z</time></trkpt><trkpt lat="43.3362397" lon="17.7379567"><ele>321.0</ele><time>2026-04-28T15:57:37.269Z</time></trkpt><trkpt lat="43.3363516" lon="17.7381076"><ele>319.0</ele><time>2026-04-28T15:57:38.27Z</time></trkpt><trkpt lat="43.3364545" lon="17.7382626"><ele>317.0</ele><time>2026-04-28T15:57:39.27Z</time></trkpt><trkpt lat="43.3365506" lon="17.7384318"><ele>319.33333333333337</ele><time>2026-04-28T15:57:40.27Z</time></trkpt><trkpt lat="43.3366299" lon="17.7386169"><ele>321.6666666666667</ele><time>2026-04-28T15:57:41.271Z</time></trkpt><trkpt lat="43.3367065" lon="17.7387976"><ele>324.0</ele><time>2026-04-28T15:57:42.271Z</time></trkpt><trkpt lat="43.3367707" lon="17.7389904"><ele>324.0</ele><time>2026-04-28T15:57:43.27Z</time></trkpt><trkpt lat="43.3368225" lon="17.7391851"><ele>324.0</ele><time>2026-04-28T15:57:44.271Z</time></trkpt><trkpt lat="43.3368708" lon="17.7393806"><ele>324.0</ele><time>2026-04-28T15:57:45.27Z</time></trkpt><trkpt lat="43.3369172" lon="17.7395738"><ele>324.0</ele><time>2026-04-28T15:57:46.269Z</time></trkpt><trkpt lat="43.3369688" lon="17.73977"><ele>323.75</ele><time>2026-04-28T15:57:47.272Z</time></trkpt><trkpt lat="43.3370194" lon="17.7399643"><ele>323.5</ele><time>2026-04-28T15:57:48.271Z</time></trkpt><trkpt lat="43.3370754" lon="17.7401546"><ele>323.25</ele><time>2026-04-28T15:57:49.269Z</time></trkpt><trkpt lat="43.3371386" lon="17.7403407"><ele>323.0</ele><time>2026-04-28T15:57:50.27Z</time></trkpt><trkpt lat="43.337214" lon="17.7405213"><ele>325.75</ele><time>2026-04-28T15:57:51.269Z</time></trkpt><trkpt lat="43.3372946" lon="17.7406888"><ele>328.5</ele><time>2026-04-28T15:57:52.268Z</time></trkpt><trkpt lat="43.337385" lon="17.7408483"><ele>331.25</ele><time>2026-04-28T15:57:53.27Z</time></trkpt><trkpt lat="43.337485" lon="17.7409999"><ele>334.0</ele><time>2026-04-28T15:57:54.271Z</time></trkpt><trkpt lat="43.3375922" lon="17.7411393"><ele>334.0</ele><time>2026-04-28T15:57:55.271Z</time></trkpt><trkpt lat="43.3377064" lon="17.741274"><ele>334.0</ele><time>2026-04-28T15:57:56.27Z</time></trkpt><trkpt lat="43.3378215" lon="17.7414068"><ele>334.0</ele><time>2026-04-28T15:57:57.27Z</time></trkpt><trkpt lat="43.3379362" lon="17.7415354"><ele>334.0</ele><time>2026-04-28T15:57:58.27Z</time></trkpt><trkpt lat="43.3380455" lon="17.7416589"><ele>336.25</ele><time>2026-04-28T15:57:59.271Z</time></trkpt><trkpt lat="43.3381543" lon="17.7417774"><ele>338.5</ele><time>2026-04-28T15:58:00.269Z</time></trkpt><trkpt lat="43.3382602" lon="17.7418923"><ele>340.75</ele><time>2026-04-28T15:58:01.271Z</time></trkpt><trkpt lat="43.3383642" lon="17.7420101"><ele>343.0</ele><time>2026-04-28T15:58:02.269Z</time></trkpt><trkpt lat="43.3384746" lon="17.7421292"><ele>343.0</ele><time>2026-04-28T15:58:03.269Z</time></trkpt><trkpt lat="43.3385852" lon="17.7422484"><ele>343.0</ele><time>2026-04-28T15:58:04.27Z</time></trkpt><trkpt lat="43.3386944" lon="17.7423737"><ele>343.0</ele><time>2026-04-28T15:58:05.269Z</time></trkpt><trkpt lat="43.3387952" lon="17.7425091"><ele>343.0</ele><time>2026-04-28T15:58:06.269Z</time></trkpt><trkpt lat="43.3388887" lon="17.74266"><ele>347.25</ele><time>2026-04-28T15:58:07.27Z</time></trkpt><trkpt lat="43.3389693" lon="17.7428169"><ele>351.5</ele><time>2026-04-28T15:58:08.272Z</time></trkpt><trkpt lat="43.3390384" lon="17.7429722"><ele>355.75</ele><time>2026-04-28T15:58:09.284Z</time></trkpt><trkpt lat="43.3390929" lon="17.7431197"><ele>360.0</ele><time>2026-04-28T15:58:10.27Z</time></trkpt><trkpt lat="43.339142" lon="17.7432665"><ele>360.0</ele><time>2026-04-28T15:58:11.27Z</time></trkpt><trkpt lat="43.33919" lon="17.7434248"><ele>360.0</ele><time>2026-04-28T15:58:12.271Z</time></trkpt><trkpt lat="43.3392327" lon="17.743591"><ele>360.0</ele><time>2026-04-28T15:58:13.269Z</time></trkpt><trkpt lat="43.3392725" lon="17.74376"><ele>360.0</ele><time>2026-04-28T15:58:14.269Z</time></trkpt><trkpt lat="43.3393097" lon="17.743938"><ele>359.0</ele><time>2026-04-28T15:58:15.27Z</time></trkpt><trkpt lat="43.3393478" lon="17.7441166"><ele>358.0</ele><time>2026-04-28T15:58:16.272Z</time></trkpt><trkpt lat="43.3393843" lon="17.7442932"><ele>357.0</ele><time>2026-04-28T15:58:17.269Z</time></trkpt><trkpt lat="43.3394174" lon="17.7444604"><ele>356.0</ele><time>2026-04-28T15:58:18.268Z</time></trkpt><trkpt lat="43.3394509" lon="17.7446264"><ele>355.75</ele><time>2026-04-28T15:58:19.269Z</time></trkpt><trkpt lat="43.3394849" lon="17.7447898"><ele>355.5</ele><time>2026-04-28T15:58:20.27Z</time></trkpt><trkpt lat="43.3395145" lon="17.7449449"><ele>355.25</ele><time>2026-04-28T15:58:21.269Z</time></trkpt><trkpt lat="43.339544" lon="17.7450863"><ele>355.0</ele><time>2026-04-28T15:58:22.268Z</time></trkpt><trkpt lat="43.339574" lon="17.745233"><ele>357.25</ele><time>2026-04-28T15:58:23.271Z</time></trkpt><trkpt lat="43.3396032" lon="17.7453788"><ele>359.5</ele><time>2026-04-28T15:58:24.27Z</time></trkpt><trkpt lat="43.3396369" lon="17.7455227"><ele>361.75</ele><time>2026-04-28T15:58:25.268Z</time></trkpt><trkpt lat="43.3396794" lon="17.7456689"><ele>364.0</ele><time>2026-04-28T15:58:26.27Z</time></trkpt><trkpt lat="43.3397314" lon="17.7458121"><ele>365.25</ele><time>2026-04-28T15:58:27.271Z</time></trkpt><trkpt lat="43.3397909" lon="17.7459524"><ele>366.5</ele><time>2026-04-28T15:58:28.27Z</time></trkpt><trkpt lat="43.3398489" lon="17.7460784"><ele>367.75</ele><time>2026-04-28T15:58:29.281Z</time></trkpt><trkpt lat="43.3399159" lon="17.7462049"><ele>369.0</ele><time>2026-04-28T15:58:30.27Z</time></trkpt><trkpt lat="43.3399874" lon="17.7463348"><ele>369.0</ele><time>2026-04-28T15:58:31.271Z</time></trkpt><trkpt lat="43.3400586" lon="17.7464695"><ele>369.0</ele><time>2026-04-28T15:58:32.28Z</time></trkpt><trkpt lat="43.3401282" lon="17.7466077"><ele>369.0</ele><time>2026-04-28T15:58:33.27Z</time></trkpt><trkpt lat="43.340193" lon="17.7467462"><ele>369.0</ele><time>2026-04-28T15:58:34.275Z</time></trkpt><trkpt lat="43.3402566" lon="17.7468846"><ele>370.75</ele><time>2026-04-28T15:58:35.27Z</time></trkpt><trkpt lat="43.3403183" lon="17.7470259"><ele>372.5</ele><time>2026-04-28T15:58:36.271Z</time></trkpt><trkpt lat="43.3403807" lon="17.7471657"><ele>374.25</ele><time>2026-04-28T15:58:37.271Z</time></trkpt><trkpt lat="43.3404426" lon="17.7473047"><ele>376.0</ele><time>2026-04-28T15:58:38.275Z</time></trkpt><trkpt lat="43.3405036" lon="17.7474433"><ele>373.0</ele><time>2026-04-28T15:58:39.271Z</time></trkpt><trkpt lat="43.3405656" lon="17.7475856"><ele>370.0</ele><time>2026-04-28T15:58:40.271Z</time></trkpt><trkpt lat="43.3406277" lon="17.747725"><ele>367.0</ele><time>2026-04-28T15:58:41.27Z</time></trkpt><trkpt lat="43.3406871" lon="17.7478653"><ele>364.0</ele><time>2026-04-28T15:58:42.27Z</time></trkpt><trkpt lat="43.3407464" lon="17.7480021"><ele>363.5</ele><time>2026-04-28T15:58:43.271Z</time></trkpt><trkpt lat="43.3408087" lon="17.7481398"><ele>363.0</ele><time>2026-04-28T15:58:44.281Z</time></trkpt><trkpt lat="43.3408686" lon="17.7482826"><ele>362.5</ele><time>2026-04-28T15:58:45.274Z</time></trkpt><trkpt lat="43.3409287" lon="17.7484304"><ele>362.0</ele><time>2026-04-28T15:58:46.272Z</time></trkpt><trkpt lat="43.3409927" lon="17.748585"><ele>363.5</ele><time>2026-04-28T15:58:47.27Z</time></trkpt><trkpt lat="43.3410546" lon="17.7487414"><ele>365.0</ele><time>2026-04-28T15:58:48.27Z</time></trkpt><trkpt lat="43.3411189" lon="17.7489068"><ele>366.5</ele><time>2026-04-28T15:58:49.271Z</time></trkpt><trkpt lat="43.3411815" lon="17.7490688"><ele>368.0</ele><time>2026-04-28T15:58:50.27Z</time></trkpt><trkpt lat="43.3412458" lon="17.7492325"><ele>371.25</ele><time>2026-04-28T15:58:51.27Z</time></trkpt><trkpt lat="43.3413117" lon="17.749394"><ele>374.5</ele><time>2026-04-28T15:58:52.272Z</time></trkpt><trkpt lat="43.3413758" lon="17.7495525"><ele>377.75</ele><time>2026-04-28T15:58:53.273Z</time></trkpt><trkpt lat="43.3414378" lon="17.7497096"><ele>381.0</ele><time>2026-04-28T15:58:54.273Z</time></trkpt><trkpt lat="43.3414983" lon="17.7498692"><ele>375.25</ele><time>2026-04-28T15:58:55.27Z</time></trkpt><trkpt lat="43.3415576" lon="17.7500255"><ele>369.5</ele><time>2026-04-28T15:58:56.269Z</time></trkpt><trkpt lat="43.3416184" lon="17.7501847"><ele>363.75</ele><time>2026-04-28T15:58:57.27Z</time></trkpt><trkpt lat="43.3416855" lon="17.750345"><ele>358.0</ele><time>2026-04-28T15:58:58.271Z</time></trkpt><trkpt lat="43.3417492" lon="17.7505092"><ele>358.0</ele><time>2026-04-28T15:58:59.27Z</time></trkpt><trkpt lat="43.3418113" lon="17.7506772"><ele>358.0</ele><time>2026-04-28T15:59:00.269Z</time></trkpt><trkpt lat="43.3418732" lon="17.7508473"><ele>358.0</ele><time>2026-04-28T15:59:01.27Z</time></trkpt><trkpt lat="43.3419366" lon="17.7510145"><ele>358.0</ele><time>2026-04-28T15:59:02.27Z</time></trkpt><trkpt lat="43.3419961" lon="17.7511787"><ele>359.75</ele><time>2026-04-28T15:59:03.271Z</time></trkpt><trkpt lat="43.3420511" lon="17.7513437"><ele>361.5</ele><time>2026-04-28T15:59:04.27Z</time></trkpt><trkpt lat="43.3421003" lon="17.7515112"><ele>363.25</ele><time>2026-04-28T15:59:05.271Z</time></trkpt><trkpt lat="43.3421475" lon="17.7516815"><ele>365.0</ele><time>2026-04-28T15:59:06.269Z</time></trkpt><trkpt lat="43.342184" lon="17.7518549"><ele>355.5</ele><time>2026-04-28T15:59:07.269Z</time></trkpt><trkpt lat="43.3422155" lon="17.7520378"><ele>346.0</ele><time>2026-04-28T15:59:08.27Z</time></trkpt><trkpt lat="43.3422481" lon="17.7522281"><ele>336.5</ele><time>2026-04-28T15:59:09.271Z</time></trkpt><trkpt lat="43.3422707" lon="17.7524293"><ele>327.0</ele><time>2026-04-28T15:59:10.269Z</time></trkpt><trkpt lat="43.3422833" lon="17.7526308"><ele>325.0</ele><time>2026-04-28T15:59:11.271Z</time></trkpt><trkpt lat="43.342294" lon="17.7528438"><ele>323.0</ele><time>2026-04-28T15:59:12.27Z</time></trkpt><trkpt lat="43.3422909" lon="17.7530569"><ele>321.0</ele><time>2026-04-28T15:59:13.27Z</time></trkpt><trkpt lat="43.3422837" lon="17.753262"><ele>321.0</ele><time>2026-04-28T15:59:14.271Z</time></trkpt><trkpt lat="43.342268" lon="17.7534765"><ele>321.0</ele><time>2026-04-28T15:59:15.271Z</time></trkpt><trkpt lat="43.3422478" lon="17.7536933"><ele>321.0</ele><time>2026-04-28T15:59:16.271Z</time></trkpt><trkpt lat="43.3422248" lon="17.7539177"><ele>331.3333333333333</ele><time>2026-04-28T15:59:17.271Z</time></trkpt><trkpt lat="43.3422" lon="17.7541432"><ele>341.66666666666663</ele><time>2026-04-28T15:59:18.271Z</time></trkpt><trkpt lat="43.3421824" lon="17.7543623"><ele>352.0</ele><time>2026-04-28T15:59:19.271Z</time></trkpt><trkpt lat="43.3421659" lon="17.7545815"><ele>352.0</ele><time>2026-04-28T15:59:20.27Z</time></trkpt><trkpt lat="43.3421512" lon="17.7548018"><ele>352.0</ele><time>2026-04-28T15:59:21.27Z</time></trkpt><trkpt lat="43.342144" lon="17.7550301"><ele>352.0</ele><time>2026-04-28T15:59:22.27Z</time></trkpt><trkpt lat="43.3421478" lon="17.7552589"><ele>351.0</ele><time>2026-04-28T15:59:23.268Z</time></trkpt><trkpt lat="43.3421584" lon="17.7554899"><ele>350.0</ele><time>2026-04-28T15:59:24.27Z</time></trkpt><trkpt lat="43.3421679" lon="17.7557057"><ele>349.0</ele><time>2026-04-28T15:59:25.27Z</time></trkpt><trkpt lat="43.3421897" lon="17.7559246"><ele>338.0</ele><time>2026-04-28T15:59:26.269Z</time></trkpt><trkpt lat="43.3422185" lon="17.7561379"><ele>327.0</ele><time>2026-04-28T15:59:27.27Z</time></trkpt><trkpt lat="43.342254" lon="17.7563476"><ele>316.0</ele><time>2026-04-28T15:59:28.27Z</time></trkpt><trkpt lat="43.3422944" lon="17.7565533"><ele>316.0</ele><time>2026-04-28T15:59:29.268Z</time></trkpt><trkpt lat="43.3423408" lon="17.756763"><ele>316.0</ele><time>2026-04-28T15:59:30.269Z</time></trkpt><trkpt lat="43.3423863" lon="17.7569753"><ele>316.0</ele><time>2026-04-28T15:59:31.269Z</time></trkpt><trkpt lat="43.3424326" lon="17.7571938"><ele>318.0</ele><time>2026-04-28T15:59:32.269Z</time></trkpt><trkpt lat="43.3424777" lon="17.7574088"><ele>320.0</ele><time>2026-04-28T15:59:33.268Z</time></trkpt><trkpt lat="43.3425207" lon="17.7576261"><ele>322.0</ele><time>2026-04-28T15:59:34.269Z</time></trkpt><trkpt lat="43.3425608" lon="17.7578332"><ele>322.66666666666663</ele><time>2026-04-28T15:59:35.269Z</time></trkpt><trkpt lat="43.3426073" lon="17.7580438"><ele>323.3333333333333</ele><time>2026-04-28T15:59:36.268Z</time></trkpt><trkpt lat="43.3426559" lon="17.7582502"><ele>324.0</ele><time>2026-04-28T15:59:37.269Z</time></trkpt><trkpt lat="43.3427017" lon="17.7584591"><ele>322.3333333333333</ele><time>2026-04-28T15:59:38.269Z</time></trkpt><trkpt lat="43.3427493" lon="17.7586719"><ele>320.66666666666663</ele><time>2026-04-28T15:59:39.269Z</time></trkpt><trkpt lat="43.3428001" lon="17.7588867"><ele>319.0</ele><time>2026-04-28T15:59:40.269Z</time></trkpt><trkpt lat="43.3428537" lon="17.7591094"><ele>319.0</ele><time>2026-04-28T15:59:41.267Z</time></trkpt><trkpt lat="43.3429089" lon="17.7593342"><ele>319.0</ele><time>2026-04-28T15:59:42.269Z</time></trkpt><trkpt lat="43.3429571" lon="17.7595694"><ele>319.0</ele><time>2026-04-28T15:59:43.268Z</time></trkpt><trkpt lat="43.3429944" lon="17.7598147"><ele>318.3333333333333</ele><time>2026-04-28T15:59:44.269Z</time></trkpt><trkpt lat="43.3430262" lon="17.7600623"><ele>317.6666666666667</ele><time>2026-04-28T15:59:45.267Z</time></trkpt><trkpt lat="43.3430434" lon="17.7603067"><ele>317.0</ele><time>2026-04-28T15:59:46.27Z</time></trkpt><trkpt lat="43.34305" lon="17.760547"><ele>317.0</ele><time>2026-04-28T15:59:47.27Z</time></trkpt><trkpt lat="43.3430444" lon="17.7607789"><ele>317.0</ele><time>2026-04-28T15:59:48.268Z</time></trkpt><trkpt lat="43.3430231" lon="17.7610105"><ele>317.0</ele><time>2026-04-28T15:59:49.27Z</time></trkpt><trkpt lat="43.3429898" lon="17.7612387"><ele>314.0</ele><time>2026-04-28T15:59:50.269Z</time></trkpt><trkpt lat="43.3429452" lon="17.7614586"><ele>311.0</ele><time>2026-04-28T15:59:51.27Z</time></trkpt><trkpt lat="43.3428901" lon="17.7616781"><ele>308.0</ele><time>2026-04-28T15:59:52.27Z</time></trkpt><trkpt lat="43.3428201" lon="17.761891"><ele>302.33333333333337</ele><time>2026-04-28T15:59:53.272Z</time></trkpt><trkpt lat="43.3427465" lon="17.7621053"><ele>296.6666666666667</ele><time>2026-04-28T15:59:54.27Z</time></trkpt><trkpt lat="43.3426674" lon="17.7623117"><ele>291.0</ele><time>2026-04-28T15:59:55.268Z</time></trkpt><trkpt lat="43.3425859" lon="17.7625225"><ele>288.3333333333333</ele><time>2026-04-28T15:59:56.269Z</time></trkpt><trkpt lat="43.3425064" lon="17.7627397"><ele>285.66666666666663</ele><time>2026-04-28T15:59:57.269Z</time></trkpt><trkpt lat="43.3424243" lon="17.7629576"><ele>283.0</ele><time>2026-04-28T15:59:58.269Z</time></trkpt><trkpt lat="43.3423478" lon="17.7631659"><ele>283.0</ele><time>2026-04-28T15:59:59.27Z</time></trkpt><trkpt lat="43.3422703" lon="17.7633758"><ele>283.0</ele><time>2026-04-28T16:00:00.269Z</time></trkpt><trkpt lat="43.3421938" lon="17.7635827"><ele>283.0</ele><time>2026-04-28T16:00:01.268Z</time></trkpt><trkpt lat="43.3421142" lon="17.7637982"><ele>280.66666666666663</ele><time>2026-04-28T16:00:02.269Z</time></trkpt><trkpt lat="43.3420263" lon="17.7640103"><ele>278.3333333333333</ele><time>2026-04-28T16:00:03.268Z</time></trkpt><trkpt lat="43.3419437" lon="17.7642339"><ele>276.0</ele><time>2026-04-28T16:00:04.265Z</time></trkpt><trkpt lat="43.3418606" lon="17.7644537"><ele>276.0</ele><time>2026-04-28T16:00:05.267Z</time></trkpt><trkpt lat="43.3417823" lon="17.7646603"><ele>276.0</ele><time>2026-04-28T16:00:06.265Z</time></trkpt><trkpt lat="43.341699" lon="17.7648571"><ele>276.0</ele><time>2026-04-28T16:00:07.267Z</time></trkpt><trkpt lat="43.3416111" lon="17.7650444"><ele>280.3333333333333</ele><time>2026-04-28T16:00:08.271Z</time></trkpt><trkpt lat="43.3415077" lon="17.7652187"><ele>284.66666666666663</ele><time>2026-04-28T16:00:09.269Z</time></trkpt><trkpt lat="43.3413979" lon="17.7653916"><ele>289.0</ele><time>2026-04-28T16:00:10.268Z</time></trkpt><trkpt lat="43.3412822" lon="17.7655544"><ele>289.0</ele><time>2026-04-28T16:00:11.27Z</time></trkpt><trkpt lat="43.3411676" lon="17.7657139"><ele>289.0</ele><time>2026-04-28T16:00:12.271Z</time></trkpt><trkpt lat="43.3410525" lon="17.765867"><ele>289.0</ele><time>2026-04-28T16:00:13.27Z</time></trkpt><trkpt lat="43.3409359" lon="17.7660145"><ele>278.66666666666663</ele><time>2026-04-28T16:00:14.269Z</time></trkpt><trkpt lat="43.3408155" lon="17.7661591"><ele>268.3333333333333</ele><time>2026-04-28T16:00:15.268Z</time></trkpt><trkpt lat="43.3407015" lon="17.7663083"><ele>258.0</ele><time>2026-04-28T16:00:16.269Z</time></trkpt><trkpt lat="43.3405916" lon="17.7664491"><ele>259.25</ele><time>2026-04-28T16:00:17.269Z</time></trkpt><trkpt lat="43.3404855" lon="17.7665744"><ele>260.5</ele><time>2026-04-28T16:00:18.269Z</time></trkpt><trkpt lat="43.3403834" lon="17.766707"><ele>261.75</ele><time>2026-04-28T16:00:19.27Z</time></trkpt><trkpt lat="43.3402823" lon="17.7668355"><ele>263.0</ele><time>2026-04-28T16:00:20.269Z</time></trkpt><trkpt lat="43.3401763" lon="17.7669658"><ele>263.0</ele><time>2026-04-28T16:00:21.271Z</time></trkpt><trkpt lat="43.3400617" lon="17.7671066"><ele>263.0</ele><time>2026-04-28T16:00:22.27Z</time></trkpt><trkpt lat="43.3399449" lon="17.7672456"><ele>263.0</ele><time>2026-04-28T16:00:23.27Z</time></trkpt><trkpt lat="43.3398264" lon="17.7673799"><ele>258.33333333333337</ele><time>2026-04-28T16:00:24.271Z</time></trkpt><trkpt lat="43.3397031" lon="17.7675081"><ele>253.66666666666669</ele><time>2026-04-28T16:00:25.271Z</time></trkpt><trkpt lat="43.3395615" lon="17.7676294"><ele>249.0</ele><time>2026-04-28T16:00:26.27Z</time></trkpt><trkpt lat="43.3394079" lon="17.7677312"><ele>249.0</ele><time>2026-04-28T16:00:27.271Z</time></trkpt><trkpt lat="43.3392554" lon="17.7678182"><ele>249.0</ele><time>2026-04-28T16:00:28.269Z</time></trkpt><trkpt lat="43.3390926" lon="17.7678873"><ele>249.0</ele><time>2026-04-28T16:00:29.27Z</time></trkpt><trkpt lat="43.3389309" lon="17.7679465"><ele>249.66666666666669</ele><time>2026-04-28T16:00:30.27Z</time></trkpt><trkpt lat="43.3387622" lon="17.7679952"><ele>250.33333333333334</ele><time>2026-04-28T16:00:31.271Z</time></trkpt><trkpt lat="43.3385939" lon="17.7680373"><ele>251.0</ele><time>2026-04-28T16:00:32.27Z</time></trkpt><trkpt lat="43.3384248" lon="17.7680837"><ele>251.0</ele><time>2026-04-28T16:00:33.271Z</time></trkpt><trkpt lat="43.338255" lon="17.7681253"><ele>251.0</ele><time>2026-04-28T16:00:34.271Z</time></trkpt><trkpt lat="43.3380822" lon="17.7681636"><ele>251.0</ele><time>2026-04-28T16:00:35.268Z</time></trkpt><trkpt lat="43.3379093" lon="17.7681993"><ele>251.0</ele><time>2026-04-28T16:00:36.269Z</time></trkpt><trkpt lat="43.3377395" lon="17.7682344"><ele>251.0</ele><time>2026-04-28T16:00:37.27Z</time></trkpt><trkpt lat="43.3375688" lon="17.7682741"><ele>251.0</ele><time>2026-04-28T16:00:38.269Z</time></trkpt><trkpt lat="43.3374037" lon="17.7683205"><ele>251.0</ele><time>2026-04-28T16:00:39.268Z</time></trkpt><trkpt lat="43.3372461" lon="17.7683846"><ele>251.0</ele><time>2026-04-28T16:00:40.269Z</time></trkpt><trkpt lat="43.3370931" lon="17.7684501"><ele>251.0</ele><time>2026-04-28T16:00:41.266Z</time></trkpt><trkpt lat="43.336946" lon="17.7685368"><ele>246.33333333333334</ele><time>2026-04-28T16:00:42.27Z</time></trkpt><trkpt lat="43.3368073" lon="17.7686381"><ele>241.66666666666669</ele><time>2026-04-28T16:00:43.269Z</time></trkpt><trkpt lat="43.3366778" lon="17.7687517"><ele>237.0</ele><time>2026-04-28T16:00:44.268Z</time></trkpt><trkpt lat="43.3365572" lon="17.7688742"><ele>237.0</ele><time>2026-04-28T16:00:45.269Z</time></trkpt><trkpt lat="43.3364499" lon="17.7690111"><ele>237.0</ele><time>2026-04-28T16:00:46.268Z</time></trkpt><trkpt lat="43.3363534" lon="17.7691613"><ele>237.0</ele><time>2026-04-28T16:00:47.271Z</time></trkpt><trkpt lat="43.3362674" lon="17.7693183"><ele>237.0</ele><time>2026-04-28T16:00:48.269Z</time></trkpt><trkpt lat="43.3361813" lon="17.7694877"><ele>244.0</ele><time>2026-04-28T16:00:49.268Z</time></trkpt><trkpt lat="43.3361057" lon="17.7696762"><ele>251.0</ele><time>2026-04-28T16:00:50.271Z</time></trkpt><trkpt lat="43.3360425" lon="17.7698706"><ele>258.0</ele><time>2026-04-28T16:00:51.269Z</time></trkpt><trkpt lat="43.335992" lon="17.7700652"><ele>256.5</ele><time>2026-04-28T16:00:52.268Z</time></trkpt><trkpt lat="43.335956" lon="17.7702633"><ele>255.0</ele><time>2026-04-28T16:00:53.267Z</time></trkpt><trkpt lat="43.3359318" lon="17.7704623"><ele>253.5</ele><time>2026-04-28T16:00:54.268Z</time></trkpt><trkpt lat="43.3359223" lon="17.7706622"><ele>252.0</ele><time>2026-04-28T16:00:55.269Z</time></trkpt><trkpt lat="43.3359225" lon="17.7708723"><ele>251.33333333333331</ele><time>2026-04-28T16:00:56.269Z</time></trkpt><trkpt lat="43.3359393" lon="17.7710835"><ele>250.66666666666666</ele><time>2026-04-28T16:00:57.267Z</time></trkpt><trkpt lat="43.3359692" lon="17.7712984"><ele>250.0</ele><time>2026-04-28T16:00:58.268Z</time></trkpt><trkpt lat="43.3360124" lon="17.7715095"><ele>250.0</ele><time>2026-04-28T16:00:59.269Z</time></trkpt><trkpt lat="43.3360744" lon="17.7717153"><ele>250.0</ele><time>2026-04-28T16:01:00.269Z</time></trkpt><trkpt lat="43.3361515" lon="17.7719171"><ele>250.0</ele><time>2026-04-28T16:01:01.278Z</time></trkpt><trkpt lat="43.3362345" lon="17.7721042"><ele>252.0</ele><time>2026-04-28T16:01:02.269Z</time></trkpt><trkpt lat="43.3363279" lon="17.7722792"><ele>254.0</ele><time>2026-04-28T16:01:03.269Z</time></trkpt><trkpt lat="43.3364195" lon="17.7724454"><ele>256.0</ele><time>2026-04-28T16:01:04.269Z</time></trkpt><trkpt lat="43.3365156" lon="17.7726066"><ele>253.5</ele><time>2026-04-28T16:01:05.269Z</time></trkpt><trkpt lat="43.3366116" lon="17.7727578"><ele>251.0</ele><time>2026-04-28T16:01:06.268Z</time></trkpt><trkpt lat="43.3367137" lon="17.7729097"><ele>248.5</ele><time>2026-04-28T16:01:07.271Z</time></trkpt><trkpt lat="43.336816" lon="17.7730659"><ele>246.0</ele><time>2026-04-28T16:01:08.269Z</time></trkpt><trkpt lat="43.3369067" lon="17.773214"><ele>246.0</ele><time>2026-04-28T16:01:09.268Z</time></trkpt><trkpt lat="43.3370014" lon="17.7733655"><ele>246.0</ele><time>2026-04-28T16:01:10.27Z</time></trkpt><trkpt lat="43.3370884" lon="17.7735208"><ele>246.0</ele><time>2026-04-28T16:01:11.269Z</time></trkpt><trkpt lat="43.3371683" lon="17.7736796"><ele>246.0</ele><time>2026-04-28T16:01:12.267Z</time></trkpt><trkpt lat="43.3372382" lon="17.7738417"><ele>240.25</ele><time>2026-04-28T16:01:13.268Z</time></trkpt><trkpt lat="43.337292" lon="17.7740131"><ele>234.5</ele><time>2026-04-28T16:01:14.268Z</time></trkpt><trkpt lat="43.3373283" lon="17.7741829"><ele>228.75</ele><time>2026-04-28T16:01:15.269Z</time></trkpt><trkpt lat="43.3373582" lon="17.7743567"><ele>223.0</ele><time>2026-04-28T16:01:16.27Z</time></trkpt><trkpt lat="43.3373623" lon="17.774527"><ele>223.5</ele><time>2026-04-28T16:01:17.268Z</time></trkpt><trkpt lat="43.3373644" lon="17.7746969"><ele>224.0</ele><time>2026-04-28T16:01:18.268Z</time></trkpt><trkpt lat="43.3373908" lon="17.7748771"><ele>224.5</ele><time>2026-04-28T16:01:19.27Z</time></trkpt><trkpt lat="43.3374316" lon="17.7750534"><ele>225.0</ele><time>2026-04-28T16:01:20.268Z</time></trkpt><trkpt lat="43.3374794" lon="17.775229"><ele>225.0</ele><time>2026-04-28T16:01:21.271Z</time></trkpt><trkpt lat="43.3375435" lon="17.7753928"><ele>225.0</ele><time>2026-04-28T16:01:22.269Z</time></trkpt><trkpt lat="43.3376179" lon="17.7755524"><ele>225.0</ele><time>2026-04-28T16:01:23.268Z</time></trkpt><trkpt lat="43.3376938" lon="17.7756957"><ele>225.0</ele><time>2026-04-28T16:01:24.268Z</time></trkpt><trkpt lat="43.3377812" lon="17.7758305"><ele>225.0</ele><time>2026-04-28T16:01:25.267Z</time></trkpt><trkpt lat="43.337878" lon="17.775961"><ele>225.0</ele><time>2026-04-28T16:01:26.276Z</time></trkpt><trkpt lat="43.3379762" lon="17.7760894"><ele>225.0</ele><time>2026-04-28T16:01:27.269Z</time></trkpt><trkpt lat="43.3380731" lon="17.7762193"><ele>225.0</ele><time>2026-04-28T16:01:28.269Z</time></trkpt><trkpt lat="43.3381712" lon="17.7763464"><ele>222.0</ele><time>2026-04-28T16:01:29.269Z</time></trkpt><trkpt lat="43.3382681" lon="17.7764612"><ele>219.0</ele><time>2026-04-28T16:01:30.268Z</time></trkpt><trkpt lat="43.3383703" lon="17.7765617"><ele>216.0</ele><time>2026-04-28T16:01:31.269Z</time></trkpt><trkpt lat="43.338479" lon="17.7766519"><ele>213.0</ele><time>2026-04-28T16:01:32.271Z</time></trkpt><trkpt lat="43.3385914" lon="17.7767429"><ele>213.0</ele><time>2026-04-28T16:01:33.268Z</time></trkpt><trkpt lat="43.3387015" lon="17.7768351"><ele>213.0</ele><time>2026-04-28T16:01:34.268Z</time></trkpt><trkpt lat="43.3388115" lon="17.7769246"><ele>213.0</ele><time>2026-04-28T16:01:35.267Z</time></trkpt><trkpt lat="43.3389179" lon="17.7770194"><ele>213.0</ele><time>2026-04-28T16:01:36.268Z</time></trkpt><trkpt lat="43.3390196" lon="17.7771315"><ele>213.0</ele><time>2026-04-28T16:01:37.268Z</time></trkpt><trkpt lat="43.3391082" lon="17.7772576"><ele>213.0</ele><time>2026-04-28T16:01:38.268Z</time></trkpt><trkpt lat="43.3391855" lon="17.7773997"><ele>213.0</ele><time>2026-04-28T16:01:39.269Z</time></trkpt><trkpt lat="43.3392457" lon="17.7775444"><ele>213.0</ele><time>2026-04-28T16:01:40.269Z</time></trkpt><trkpt lat="43.3392898" lon="17.7776963"><ele>213.0</ele><time>2026-04-28T16:01:41.269Z</time></trkpt><trkpt lat="43.3393227" lon="17.7778604"><ele>213.0</ele><time>2026-04-28T16:01:42.269Z</time></trkpt><trkpt lat="43.3393395" lon="17.7780237"><ele>213.0</ele><time>2026-04-28T16:01:43.27Z</time></trkpt><trkpt lat="43.3393365" lon="17.7781925"><ele>213.0</ele><time>2026-04-28T16:01:44.269Z</time></trkpt><trkpt lat="43.3393308" lon="17.7783689"><ele>211.25</ele><time>2026-04-28T16:01:45.267Z</time></trkpt><trkpt lat="43.3393168" lon="17.7785606"><ele>209.5</ele><time>2026-04-28T16:01:46.269Z</time></trkpt><trkpt lat="43.3392938" lon="17.7787577"><ele>207.75</ele><time>2026-04-28T16:01:47.268Z</time></trkpt><trkpt lat="43.3392724" lon="17.7789582"><ele>206.0</ele><time>2026-04-28T16:01:48.271Z</time></trkpt><trkpt lat="43.3392488" lon="17.7791592"><ele>203.33333333333334</ele><time>2026-04-28T16:01:49.269Z</time></trkpt><trkpt lat="43.3392254" lon="17.7793636"><ele>200.66666666666669</ele><time>2026-04-28T16:01:50.269Z</time></trkpt><trkpt lat="43.3391998" lon="17.7795745"><ele>198.0</ele><time>2026-04-28T16:01:51.27Z</time></trkpt><trkpt lat="43.3391767" lon="17.7797778"><ele>198.0</ele><time>2026-04-28T16:01:52.27Z</time></trkpt><trkpt lat="43.3391544" lon="17.7799782"><ele>198.0</ele><time>2026-04-28T16:01:53.269Z</time></trkpt><trkpt lat="43.3391395" lon="17.7801754"><ele>198.0</ele><time>2026-04-28T16:01:54.267Z</time></trkpt><trkpt lat="43.3391284" lon="17.7803712"><ele>198.0</ele><time>2026-04-28T16:01:55.269Z</time></trkpt><trkpt lat="43.3391183" lon="17.7805623"><ele>196.25</ele><time>2026-04-28T16:01:56.269Z</time></trkpt><trkpt lat="43.339116" lon="17.7807551"><ele>194.5</ele><time>2026-04-28T16:01:57.268Z</time></trkpt><trkpt lat="43.3391152" lon="17.7809371"><ele>192.75</ele><time>2026-04-28T16:01:58.268Z</time></trkpt><trkpt lat="43.3391202" lon="17.7811228"><ele>191.0</ele><time>2026-04-28T16:01:59.268Z</time></trkpt><trkpt lat="43.3391216" lon="17.781315"><ele>188.5</ele><time>2026-04-28T16:02:00.269Z</time></trkpt><trkpt lat="43.3391171" lon="17.781507"><ele>186.0</ele><time>2026-04-28T16:02:01.269Z</time></trkpt><trkpt lat="43.339099" lon="17.7816968"><ele>183.5</ele><time>2026-04-28T16:02:02.269Z</time></trkpt><trkpt lat="43.3390627" lon="17.7818706"><ele>181.0</ele><time>2026-04-28T16:02:03.268Z</time></trkpt><trkpt lat="43.3390263" lon="17.7820407"><ele>183.0</ele><time>2026-04-28T16:02:04.269Z</time></trkpt><trkpt lat="43.3389866" lon="17.7822014"><ele>185.0</ele><time>2026-04-28T16:02:05.269Z</time></trkpt><trkpt lat="43.3389416" lon="17.7823433"><ele>187.0</ele><time>2026-04-28T16:02:06.27Z</time></trkpt><trkpt lat="43.3388987" lon="17.7824743"><ele>189.0</ele><time>2026-04-28T16:02:07.268Z</time></trkpt><trkpt lat="43.3388662" lon="17.782608"><ele>191.0</ele><time>2026-04-28T16:02:08.269Z</time></trkpt><trkpt lat="43.3388336" lon="17.782738"><ele>191.0</ele><time>2026-04-28T16:02:09.268Z</time></trkpt><trkpt lat="43.3388127" lon="17.782875"><ele>191.0</ele><time>2026-04-28T16:02:10.268Z</time></trkpt><trkpt lat="43.338798" lon="17.7830169"><ele>191.0</ele><time>2026-04-28T16:02:11.269Z</time></trkpt><trkpt lat="43.3388027" lon="17.7831673"><ele>191.0</ele><time>2026-04-28T16:02:12.268Z</time></trkpt><trkpt lat="43.3388184" lon="17.7833189"><ele>191.0</ele><time>2026-04-28T16:02:13.268Z</time></trkpt><trkpt lat="43.3388487" lon="17.7834719"><ele>186.0</ele><time>2026-04-28T16:02:14.27Z</time></trkpt><trkpt lat="43.338885" lon="17.7836223"><ele>181.0</ele><time>2026-04-28T16:02:15.268Z</time></trkpt><trkpt lat="43.3389344" lon="17.7837684"><ele>176.0</ele><time>2026-04-28T16:02:16.268Z</time></trkpt><trkpt lat="43.33899" lon="17.7839084"><ele>171.0</ele><time>2026-04-28T16:02:17.269Z</time></trkpt><trkpt lat="43.3390493" lon="17.7840464"><ele>171.0</ele><time>2026-04-28T16:02:18.268Z</time></trkpt><trkpt lat="43.3391085" lon="17.7841892"><ele>171.0</ele><time>2026-04-28T16:02:19.27Z</time></trkpt><trkpt lat="43.339172" lon="17.784333"><ele>171.0</ele><time>2026-04-28T16:02:20.269Z</time></trkpt><trkpt lat="43.339242" lon="17.7844814"><ele>171.0</ele><time>2026-04-28T16:02:21.269Z</time></trkpt><trkpt lat="43.3393151" lon="17.7846357"><ele>174.25</ele><time>2026-04-28T16:02:22.269Z</time></trkpt><trkpt lat="43.339389" lon="17.7847914"><ele>177.5</ele><time>2026-04-28T16:02:23.267Z</time></trkpt><trkpt lat="43.3394651" lon="17.7849371"><ele>180.75</ele><time>2026-04-28T16:02:24.269Z</time></trkpt><trkpt lat="43.3395495" lon="17.7850789"><ele>184.0</ele><time>2026-04-28T16:02:25.267Z</time></trkpt><trkpt lat="43.3396333" lon="17.7852194"><ele>177.75</ele><time>2026-04-28T16:02:26.27Z</time></trkpt><trkpt lat="43.3397199" lon="17.7853479"><ele>171.5</ele><time>2026-04-28T16:02:27.27Z</time></trkpt><trkpt lat="43.3398039" lon="17.7854572"><ele>165.25</ele><time>2026-04-28T16:02:28.269Z</time></trkpt><trkpt lat="43.339886" lon="17.785573"><ele>159.0</ele><time>2026-04-28T16:02:29.27Z</time></trkpt><trkpt lat="43.3399616" lon="17.7857023"><ele>159.0</ele><time>2026-04-28T16:02:30.268Z</time></trkpt><trkpt lat="43.3400265" lon="17.7858519"><ele>159.0</ele><time>2026-04-28T16:02:31.269Z</time></trkpt><trkpt lat="43.3400762" lon="17.7860083"><ele>159.0</ele><time>2026-04-28T16:02:32.268Z</time></trkpt><trkpt lat="43.3401248" lon="17.786176"><ele>159.0</ele><time>2026-04-28T16:02:33.27Z</time></trkpt><trkpt lat="43.340175" lon="17.7863547"><ele>158.75</ele><time>2026-04-28T16:02:34.268Z</time></trkpt><trkpt lat="43.3401272" lon="17.7865124"><ele>158.5</ele><time>2026-04-28T16:02:35.268Z</time></trkpt><trkpt lat="43.3401245" lon="17.7866826"><ele>158.25</ele><time>2026-04-28T16:02:36.268Z</time></trkpt><trkpt lat="43.3401022" lon="17.7868428"><ele>158.0</ele><time>2026-04-28T16:02:37.27Z</time></trkpt><trkpt lat="43.3400647" lon="17.7869958"><ele>155.0</ele><time>2026-04-28T16:02:38.269Z</time></trkpt><trkpt lat="43.3400217" lon="17.7871512"><ele>152.0</ele><time>2026-04-28T16:02:39.268Z</time></trkpt><trkpt lat="43.3399644" lon="17.787301"><ele>149.0</ele><time>2026-04-28T16:02:40.268Z</time></trkpt><trkpt lat="43.3399025" lon="17.7874526"><ele>146.0</ele><time>2026-04-28T16:02:41.269Z</time></trkpt><trkpt lat="43.339833" lon="17.7876034"><ele>140.25</ele><time>2026-04-28T16:02:42.268Z</time></trkpt><trkpt lat="43.3397756" lon="17.7877621"><ele>134.5</ele><time>2026-04-28T16:02:43.267Z</time></trkpt><trkpt lat="43.3397256" lon="17.7879364"><ele>128.75</ele><time>2026-04-28T16:02:44.269Z</time></trkpt><trkpt lat="43.3396801" lon="17.788108"><ele>123.0</ele><time>2026-04-28T16:02:45.268Z</time></trkpt><trkpt lat="43.33963" lon="17.7882795"><ele>133.0</ele><time>2026-04-28T16:02:46.268Z</time></trkpt><trkpt lat="43.3395906" lon="17.788443"><ele>143.0</ele><time>2026-04-28T16:02:47.269Z</time></trkpt><trkpt lat="43.339554" lon="17.7886052"><ele>153.0</ele><time>2026-04-28T16:02:48.268Z</time></trkpt><trkpt lat="43.3395206" lon="17.7887655"><ele>163.0</ele><time>2026-04-28T16:02:49.267Z</time></trkpt><trkpt lat="43.3394944" lon="17.7889273"><ele>163.0</ele><time>2026-04-28T16:02:50.269Z</time></trkpt><trkpt lat="43.339477" lon="17.7890916"><ele>163.0</ele><time>2026-04-28T16:02:51.267Z</time></trkpt><trkpt lat="43.3394537" lon="17.7892514"><ele>163.0</ele><time>2026-04-28T16:02:52.269Z</time></trkpt><trkpt lat="43.3394358" lon="17.7894068"><ele>163.0</ele><time>2026-04-28T16:02:53.267Z</time></trkpt><trkpt lat="43.339424" lon="17.7895679"><ele>158.75</ele><time>2026-04-28T16:02:54.267Z</time></trkpt><trkpt lat="43.3394046" lon="17.7897257"><ele>154.5</ele><time>2026-04-28T16:02:55.266Z</time></trkpt><trkpt lat="43.3393796" lon="17.7898873"><ele>150.25</ele><time>2026-04-28T16:02:56.265Z</time></trkpt><trkpt lat="43.3393409" lon="17.7900307"><ele>146.0</ele><time>2026-04-28T16:02:57.269Z</time></trkpt><trkpt lat="43.3392989" lon="17.7901812"><ele>140.25</ele><time>2026-04-28T16:02:58.272Z</time></trkpt><trkpt lat="43.3392615" lon="17.7903263"><ele>134.5</ele><time>2026-04-28T16:02:59.271Z</time></trkpt><trkpt lat="43.3392163" lon="17.7904645"><ele>128.75</ele><time>2026-04-28T16:03:00.269Z</time></trkpt><trkpt lat="43.3391584" lon="17.7906036"><ele>123.0</ele><time>2026-04-28T16:03:01.269Z</time></trkpt><trkpt lat="43.3390911" lon="17.7907389"><ele>123.0</ele><time>2026-04-28T16:03:02.269Z</time></trkpt><trkpt lat="43.3390158" lon="17.7908603"><ele>123.0</ele><time>2026-04-28T16:03:03.268Z</time></trkpt><trkpt lat="43.3389262" lon="17.7909895"><ele>123.0</ele><time>2026-04-28T16:03:04.267Z</time></trkpt><trkpt lat="43.338837" lon="17.7911219"><ele>123.0</ele><time>2026-04-28T16:03:05.269Z</time></trkpt><trkpt lat="43.3387493" lon="17.7912598"><ele>120.0</ele><time>2026-04-28T16:03:06.269Z</time></trkpt><trkpt lat="43.3386602" lon="17.7914029"><ele>117.0</ele><time>2026-04-28T16:03:07.268Z</time></trkpt><trkpt lat="43.3385831" lon="17.7915501"><ele>114.0</ele><time>2026-04-28T16:03:08.271Z</time></trkpt><trkpt lat="43.3385126" lon="17.7916974"><ele>111.0</ele><time>2026-04-28T16:03:09.269Z</time></trkpt><trkpt lat="43.3384525" lon="17.7918505"><ele>111.0</ele><time>2026-04-28T16:03:10.268Z</time></trkpt><trkpt lat="43.3383891" lon="17.7920024"><ele>111.0</ele><time>2026-04-28T16:03:11.27Z</time></trkpt><trkpt lat="43.3383318" lon="17.7921529"><ele>111.0</ele><time>2026-04-28T16:03:12.267Z</time></trkpt><trkpt lat="43.3382757" lon="17.7923012"><ele>111.0</ele><time>2026-04-28T16:03:13.267Z</time></trkpt><trkpt lat="43.3382085" lon="17.792436"><ele>111.0</ele><time>2026-04-28T16:03:14.269Z</time></trkpt><trkpt lat="43.3381318" lon="17.7925569"><ele>111.0</ele><time>2026-04-28T16:03:15.268Z</time></trkpt><trkpt lat="43.3380341" lon="17.7926434"><ele>111.0</ele><time>2026-04-28T16:03:16.269Z</time></trkpt><trkpt lat="43.3379245" lon="17.7927372"><ele>111.0</ele><time>2026-04-28T16:03:17.269Z</time></trkpt><trkpt lat="43.3378102" lon="17.7928306"><ele>109.75</ele><time>2026-04-28T16:03:18.269Z</time></trkpt><trkpt lat="43.3377037" lon="17.7929281"><ele>108.5</ele><time>2026-04-28T16:03:19.27Z</time></trkpt><trkpt lat="43.3375911" lon="17.793033"><ele>107.25</ele><time>2026-04-28T16:03:20.27Z</time></trkpt><trkpt lat="43.3374793" lon="17.7931258"><ele>106.0</ele><time>2026-04-28T16:03:21.27Z</time></trkpt><trkpt lat="43.3373681" lon="17.7932344"><ele>106.0</ele><time>2026-04-28T16:03:22.27Z</time></trkpt><trkpt lat="43.3372779" lon="17.7933268"><ele>106.0</ele><time>2026-04-28T16:03:23.269Z</time></trkpt><trkpt lat="43.3371811" lon="17.793421"><ele>106.0</ele><time>2026-04-28T16:03:24.267Z</time></trkpt><trkpt lat="43.3370986" lon="17.7935164"><ele>106.0</ele><time>2026-04-28T16:03:25.269Z</time></trkpt><trkpt lat="43.33701" lon="17.7936085"><ele>104.8</ele><time>2026-04-28T16:03:26.268Z</time></trkpt><trkpt lat="43.3369147" lon="17.7937027"><ele>103.6</ele><time>2026-04-28T16:03:27.27Z</time></trkpt><trkpt lat="43.3368237" lon="17.793777"><ele>102.4</ele><time>2026-04-28T16:03:28.268Z</time></trkpt><trkpt lat="43.3367346" lon="17.7938258"><ele>101.2</ele><time>2026-04-28T16:03:29.268Z</time></trkpt><trkpt lat="43.3366431" lon="17.7938891"><ele>100.0</ele><time>2026-04-28T16:03:30.268Z</time></trkpt><trkpt lat="43.3365525" lon="17.7939505"><ele>100.0</ele><time>2026-04-28T16:03:31.268Z</time></trkpt><trkpt lat="43.3364577" lon="17.7940147"><ele>100.0</ele><time>2026-04-28T16:03:32.27Z</time></trkpt><trkpt lat="43.3363659" lon="17.7940676"><ele>100.0</ele><time>2026-04-28T16:03:33.27Z</time></trkpt><trkpt lat="43.3362775" lon="17.7941187"><ele>100.0</ele><time>2026-04-28T16:03:34.281Z</time></trkpt><trkpt lat="43.3361917" lon="17.7941856"><ele>100.0</ele><time>2026-04-28T16:03:35.269Z</time></trkpt><trkpt lat="43.3361172" lon="17.7942646"><ele>99.33333333333334</ele><time>2026-04-28T16:03:36.268Z</time></trkpt><trkpt lat="43.3360498" lon="17.7943418"><ele>98.66666666666667</ele><time>2026-04-28T16:03:37.268Z</time></trkpt><trkpt lat="43.3359863" lon="17.7944296"><ele>98.0</ele><time>2026-04-28T16:03:38.268Z</time></trkpt><trkpt lat="43.3359298" lon="17.7945117"><ele>97.33333333333334</ele><time>2026-04-28T16:03:39.268Z</time></trkpt><trkpt lat="43.3358855" lon="17.7945839"><ele>96.66666666666667</ele><time>2026-04-28T16:03:40.27Z</time></trkpt><trkpt lat="43.3358138" lon="17.7946722"><ele>96.0</ele><time>2026-04-28T16:03:42.269Z</time></trkpt><trkpt lat="43.335762" lon="17.7947539"><ele>96.0</ele><time>2026-04-28T16:03:44.266Z</time></trkpt><trkpt lat="43.3357071" lon="17.7948253"><ele>96.0</ele><time>2026-04-28T16:03:47.268Z</time></trkpt><trkpt lat="43.3356559" lon="17.7948853"><ele>96.0</ele><time>2026-04-28T16:03:49.269Z</time></trkpt><trkpt lat="43.3355832" lon="17.7949479"><ele>96.0</ele><time>2026-04-28T16:03:52.269Z</time></trkpt><trkpt lat="43.3355152" lon="17.7950441"><ele>96.0</ele><time>2026-04-28T16:06:29.269Z</time></trkpt><trkpt lat="43.3354781" lon="17.7951622"><ele>96.0</ele><time>2026-04-28T16:07:53.269Z</time></trkpt><trkpt lat="43.3354355" lon="17.7952296"><ele>96.8</ele><time>2026-04-28T16:07:54.268Z</time></trkpt><trkpt lat="43.3353679" lon="17.7953583"><ele>97.6</ele><time>2026-04-28T16:07:56.268Z</time></trkpt><trkpt lat="43.3353085" lon="17.7954562"><ele>98.4</ele><time>2026-04-28T16:07:58.268Z</time></trkpt><trkpt lat="43.3352581" lon="17.7955502"><ele>99.2</ele><time>2026-04-28T16:08:00.266Z</time></trkpt><trkpt lat="43.3352328" lon="17.795631"><ele>100.0</ele><time>2026-04-28T16:08:02.268Z</time></trkpt><trkpt lat="43.3351855" lon="17.7957857"><ele>100.00000000000001</ele><time>2026-04-28T16:08:36.268Z</time></trkpt><trkpt lat="43.3351872" lon="17.7958765"><ele>100.0</ele><time>2026-04-28T16:08:37.267Z</time></trkpt><trkpt lat="43.3351979" lon="17.7959771"><ele>100.0</ele><time>2026-04-28T16:08:38.268Z</time></trkpt><trkpt lat="43.3352168" lon="17.7960809"><ele>100.0</ele><time>2026-04-28T16:08:39.267Z</time></trkpt><trkpt lat="43.3352363" lon="17.7961852"><ele>100.00000000000001</ele><time>2026-04-28T16:08:40.267Z</time></trkpt><trkpt lat="43.3352575" lon="17.796297"><ele>100.0</ele><time>2026-04-28T16:08:41.268Z</time></trkpt><trkpt lat="43.3352758" lon="17.7964189"><ele>99.16666666666667</ele><time>2026-04-28T16:08:42.268Z</time></trkpt><trkpt lat="43.3352936" lon="17.7965411"><ele>98.33333333333334</ele><time>2026-04-28T16:08:43.267Z</time></trkpt><trkpt lat="43.3353134" lon="17.7966568"><ele>97.5</ele><time>2026-04-28T16:08:44.269Z</time></trkpt><trkpt lat="43.3353325" lon="17.7967668"><ele>96.66666666666667</ele><time>2026-04-28T16:08:45.268Z</time></trkpt><trkpt lat="43.3353593" lon="17.7968797"><ele>95.83333333333334</ele><time>2026-04-28T16:08:46.269Z</time></trkpt><trkpt lat="43.3353791" lon="17.7970012"><ele>95.0</ele><time>2026-04-28T16:08:47.267Z</time></trkpt><trkpt lat="43.3353971" lon="17.7971113"><ele>94.33333333333334</ele><time>2026-04-28T16:08:48.268Z</time></trkpt><trkpt lat="43.335425" lon="17.7972174"><ele>93.66666666666667</ele><time>2026-04-28T16:08:49.269Z</time></trkpt><trkpt lat="43.3354545" lon="17.7973214"><ele>93.0</ele><time>2026-04-28T16:08:50.271Z</time></trkpt><trkpt lat="43.3354933" lon="17.797419"><ele>92.33333333333333</ele><time>2026-04-28T16:08:51.268Z</time></trkpt><trkpt lat="43.3355467" lon="17.7975068"><ele>91.66666666666666</ele><time>2026-04-28T16:08:52.267Z</time></trkpt><trkpt lat="43.3356117" lon="17.7975799"><ele>91.0</ele><time>2026-04-28T16:08:53.267Z</time></trkpt><trkpt lat="43.3356842" lon="17.7976344"><ele>89.8</ele><time>2026-04-28T16:08:54.269Z</time></trkpt><trkpt lat="43.3357718" lon="17.7976602"><ele>88.6</ele><time>2026-04-28T16:08:55.268Z</time></trkpt><trkpt lat="43.3358609" lon="17.7976509"><ele>87.4</ele><time>2026-04-28T16:08:56.268Z</time></trkpt><trkpt lat="43.3359459" lon="17.7976087"><ele>86.2</ele><time>2026-04-28T16:08:57.267Z</time></trkpt><trkpt lat="43.3360278" lon="17.7975399"><ele>85.0</ele><time>2026-04-28T16:08:58.27Z</time></trkpt><trkpt lat="43.3360949" lon="17.7974323"><ele>85.0</ele><time>2026-04-28T16:08:59.267Z</time></trkpt><trkpt lat="43.336157" lon="17.7973102"><ele>85.0</ele><time>2026-04-28T16:09:00.267Z</time></trkpt><trkpt lat="43.3362104" lon="17.7971819"><ele>85.0</ele><time>2026-04-28T16:09:01.268Z</time></trkpt><trkpt lat="43.3362626" lon="17.7970455"><ele>85.0</ele><time>2026-04-28T16:09:02.27Z</time></trkpt><trkpt lat="43.3363131" lon="17.7969137"><ele>85.0</ele><time>2026-04-28T16:09:03.268Z</time></trkpt><trkpt lat="43.336373" lon="17.7967863"><ele>83.2</ele><time>2026-04-28T16:09:04.269Z</time></trkpt><trkpt lat="43.3364426" lon="17.7966741"><ele>81.4</ele><time>2026-04-28T16:09:05.268Z</time></trkpt><trkpt lat="43.3365192" lon="17.7965866"><ele>79.6</ele><time>2026-04-28T16:09:06.267Z</time></trkpt><trkpt lat="43.3366032" lon="17.7965133"><ele>77.8</ele><time>2026-04-28T16:09:07.267Z</time></trkpt><trkpt lat="43.3366965" lon="17.7964517"><ele>76.0</ele><time>2026-04-28T16:09:08.267Z</time></trkpt><trkpt lat="43.3367872" lon="17.7964217"><ele>76.0</ele><time>2026-04-28T16:09:09.268Z</time></trkpt><trkpt lat="43.3368858" lon="17.7963952"><ele>76.0</ele><time>2026-04-28T16:09:10.269Z</time></trkpt><trkpt lat="43.3369789" lon="17.7963869"><ele>76.0</ele><time>2026-04-28T16:09:11.267Z</time></trkpt><trkpt lat="43.3370707" lon="17.7964022"><ele>76.0</ele><time>2026-04-28T16:09:12.268Z</time></trkpt><trkpt lat="43.3371574" lon="17.7964223"><ele>76.0</ele><time>2026-04-28T16:09:13.267Z</time></trkpt><trkpt lat="43.3372412" lon="17.7964378"><ele>75.6</ele><time>2026-04-28T16:09:14.268Z</time></trkpt><trkpt lat="43.337328" lon="17.7964504"><ele>75.19999999999999</ele><time>2026-04-28T16:09:15.267Z</time></trkpt><trkpt lat="43.3374275" lon="17.7964706"><ele>74.80000000000001</ele><time>2026-04-28T16:09:16.269Z</time></trkpt><trkpt lat="43.3375222" lon="17.7964841"><ele>74.4</ele><time>2026-04-28T16:09:17.266Z</time></trkpt><trkpt lat="43.337619" lon="17.7965083"><ele>74.0</ele><time>2026-04-28T16:09:18.266Z</time></trkpt><trkpt lat="43.3377149" lon="17.7965312"><ele>74.0</ele><time>2026-04-28T16:09:19.265Z</time></trkpt><trkpt lat="43.337816" lon="17.7965557"><ele>74.0</ele><time>2026-04-28T16:09:20.266Z</time></trkpt><trkpt lat="43.3379194" lon="17.7965681"><ele>74.0</ele><time>2026-04-28T16:09:21.267Z</time></trkpt><trkpt lat="43.3380142" lon="17.7965879"><ele>74.0</ele><time>2026-04-28T16:09:22.27Z</time></trkpt><trkpt lat="43.3381107" lon="17.7966078"><ele>74.0</ele><time>2026-04-28T16:09:23.269Z</time></trkpt><trkpt lat="43.3382095" lon="17.7966169"><ele>73.2</ele><time>2026-04-28T16:09:24.267Z</time></trkpt><trkpt lat="43.3383039" lon="17.7966482"><ele>72.4</ele><time>2026-04-28T16:09:25.269Z</time></trkpt><trkpt lat="43.3383899" lon="17.7966859"><ele>71.6</ele><time>2026-04-28T16:09:26.268Z</time></trkpt><trkpt lat="43.3384814" lon="17.7967298"><ele>70.8</ele><time>2026-04-28T16:09:27.268Z</time></trkpt><trkpt lat="43.3385666" lon="17.7967915"><ele>70.0</ele><time>2026-04-28T16:09:28.266Z</time></trkpt><trkpt lat="43.3386464" lon="17.7968605"><ele>69.8</ele><time>2026-04-28T16:09:29.267Z</time></trkpt><trkpt lat="43.3387205" lon="17.7969269"><ele>69.6</ele><time>2026-04-28T16:09:30.268Z</time></trkpt><trkpt lat="43.3387965" lon="17.7970021"><ele>69.4</ele><time>2026-04-28T16:09:31.269Z</time></trkpt><trkpt lat="43.3388721" lon="17.7970763"><ele>69.2</ele><time>2026-04-28T16:09:32.267Z</time></trkpt><trkpt lat="43.3389429" lon="17.797155"><ele>69.0</ele><time>2026-04-28T16:09:33.266Z</time></trkpt><trkpt lat="43.3390166" lon="17.797241"><ele>68.8</ele><time>2026-04-28T16:09:34.266Z</time></trkpt><trkpt lat="43.3390791" lon="17.7973316"><ele>68.60000000000001</ele><time>2026-04-28T16:09:35.266Z</time></trkpt><trkpt lat="43.3391447" lon="17.7974251"><ele>68.4</ele><time>2026-04-28T16:09:36.268Z</time></trkpt><trkpt lat="43.3392096" lon="17.7975219"><ele>68.2</ele><time>2026-04-28T16:09:37.274Z</time></trkpt><trkpt lat="43.3392786" lon="17.7976141"><ele>68.0</ele><time>2026-04-28T16:09:38.267Z</time></trkpt><trkpt lat="43.3393462" lon="17.7977125"><ele>68.0</ele><time>2026-04-28T16:09:39.267Z</time></trkpt><trkpt lat="43.3394122" lon="17.7978182"><ele>68.0</ele><time>2026-04-28T16:09:40.267Z</time></trkpt><trkpt lat="43.3394686" lon="17.7979193"><ele>68.0</ele><time>2026-04-28T16:09:41.267Z</time></trkpt><trkpt lat="43.3395329" lon="17.7980152"><ele>68.0</ele><time>2026-04-28T16:09:42.267Z</time></trkpt><trkpt lat="43.3396304" lon="17.7980996"><ele>68.0</ele><time>2026-04-28T16:09:43.268Z</time></trkpt><trkpt lat="43.3397041" lon="17.7981814"><ele>68.0</ele><time>2026-04-28T16:09:44.269Z</time></trkpt><trkpt lat="43.3397909" lon="17.7982537"><ele>68.0</ele><time>2026-04-28T16:09:45.269Z</time></trkpt><trkpt lat="43.3398627" lon="17.7983054"><ele>68.0</ele><time>2026-04-28T16:09:46.267Z</time></trkpt><trkpt lat="43.3399265" lon="17.798339"><ele>68.0</ele><time>2026-04-28T16:09:47.267Z</time></trkpt><trkpt lat="43.3399794" lon="17.7983915"><ele>68.0</ele><time>2026-04-28T16:09:48.268Z</time></trkpt><trkpt lat="43.3400365" lon="17.7985174"><ele>68.0</ele><time>2026-04-28T16:09:50.266Z</time></trkpt><trkpt lat="43.3400448" lon="17.7986753"><ele>67.6</ele><time>2026-04-28T16:09:52.268Z</time></trkpt><trkpt lat="43.3400473" lon="17.7988623"><ele>67.19999999999999</ele><time>2026-04-28T16:09:54.267Z</time></trkpt><trkpt lat="43.3400759" lon="17.7989766"><ele>66.8</ele><time>2026-04-28T16:09:55.267Z</time></trkpt><trkpt lat="43.3400945" lon="17.7990839"><ele>66.39999999999999</ele><time>2026-04-28T16:09:56.268Z</time></trkpt><trkpt lat="43.3401252" lon="17.7991906"><ele>66.0</ele><time>2026-04-28T16:09:57.267Z</time></trkpt><trkpt lat="43.3401498" lon="17.799311"><ele>66.33333333333333</ele><time>2026-04-28T16:09:58.268Z</time></trkpt><trkpt lat="43.340191" lon="17.7994084"><ele>66.66666666666667</ele><time>2026-04-28T16:09:59.267Z</time></trkpt><trkpt lat="43.3402358" lon="17.7995104"><ele>67.0</ele><time>2026-04-28T16:10:00.267Z</time></trkpt><trkpt lat="43.3402705" lon="17.7996016"><ele>67.33333333333334</ele><time>2026-04-28T16:10:01.267Z</time></trkpt><trkpt lat="43.3403217" lon="17.7996931"><ele>67.66666666666667</ele><time>2026-04-28T16:10:02.267Z</time></trkpt><trkpt lat="43.3403537" lon="17.7997842"><ele>68.0</ele><time>2026-04-28T16:10:03.267Z</time></trkpt><trkpt lat="43.3403937" lon="17.7998804"><ele>68.0</ele><time>2026-04-28T16:10:04.268Z</time></trkpt><trkpt lat="43.3404291" lon="17.7999744"><ele>68.0</ele><time>2026-04-28T16:10:05.269Z</time></trkpt><trkpt lat="43.3404716" lon="17.8000786"><ele>68.0</ele><time>2026-04-28T16:10:06.267Z</time></trkpt><trkpt lat="43.3405087" lon="17.8001818"><ele>68.0</ele><time>2026-04-28T16:10:07.269Z</time></trkpt><trkpt lat="43.3405461" lon="17.8002847"><ele>68.0</ele><time>2026-04-28T16:10:08.267Z</time></trkpt><trkpt lat="43.3405798" lon="17.8003771"><ele>68.0</ele><time>2026-04-28T16:10:09.268Z</time></trkpt><trkpt lat="43.3406146" lon="17.8004771"><ele>68.5</ele><time>2026-04-28T16:10:10.267Z</time></trkpt><trkpt lat="43.3406572" lon="17.8005794"><ele>69.0</ele><time>2026-04-28T16:10:11.266Z</time></trkpt><trkpt lat="43.3406948" lon="17.8006745"><ele>69.5</ele><time>2026-04-28T16:10:12.266Z</time></trkpt><trkpt lat="43.3407551" lon="17.8008249"><ele>70.0</ele><time>2026-04-28T16:10:14.267Z</time></trkpt><trkpt lat="43.3407846" lon="17.8009178"><ele>70.5</ele><time>2026-04-28T16:10:15.267Z</time></trkpt><trkpt lat="43.3408259" lon="17.8010122"><ele>71.0</ele><time>2026-04-28T16:10:16.267Z</time></trkpt><trkpt lat="43.3408688" lon="17.8011174"><ele>71.0</ele><time>2026-04-28T16:10:17.267Z</time></trkpt><trkpt lat="43.3409045" lon="17.8012115"><ele>71.0</ele><time>2026-04-28T16:10:18.266Z</time></trkpt><trkpt lat="43.3409561" lon="17.8013267"><ele>71.0</ele><time>2026-04-28T16:10:19.267Z</time></trkpt><trkpt lat="43.3410026" lon="17.8014397"><ele>71.0</ele><time>2026-04-28T16:10:20.266Z</time></trkpt><trkpt lat="43.3410471" lon="17.8015353"><ele>71.0</ele><time>2026-04-28T16:10:21.269Z</time></trkpt><trkpt lat="43.3410838" lon="17.8016382"><ele>71.0</ele><time>2026-04-28T16:10:22.267Z</time></trkpt><trkpt lat="43.3411272" lon="17.8017579"><ele>70.8</ele><time>2026-04-28T16:10:23.267Z</time></trkpt><trkpt lat="43.3411736" lon="17.801875"><ele>70.6</ele><time>2026-04-28T16:10:24.267Z</time></trkpt><trkpt lat="43.3412114" lon="17.801975"><ele>70.4</ele><time>2026-04-28T16:10:25.269Z</time></trkpt><trkpt lat="43.3412648" lon="17.802089"><ele>70.2</ele><time>2026-04-28T16:10:26.266Z</time></trkpt><trkpt lat="43.3413129" lon="17.8022093"><ele>70.0</ele><time>2026-04-28T16:10:27.268Z</time></trkpt><trkpt lat="43.3413567" lon="17.8023269"><ele>69.6</ele><time>2026-04-28T16:10:28.267Z</time></trkpt><trkpt lat="43.341399" lon="17.8024352"><ele>69.2</ele><time>2026-04-28T16:10:29.27Z</time></trkpt><trkpt lat="43.3414333" lon="17.8025213"><ele>68.8</ele><time>2026-04-28T16:10:30.268Z</time></trkpt><trkpt lat="43.3414938" lon="17.8026668"><ele>68.4</ele><time>2026-04-28T16:10:32.267Z</time></trkpt><trkpt lat="43.3415412" lon="17.8027867"><ele>68.0</ele><time>2026-04-28T16:10:34.267Z</time></trkpt><trkpt lat="43.3415363" lon="17.802901"><ele>68.0</ele><time>2026-04-28T16:10:38.264Z</time></trkpt><trkpt lat="43.3415399" lon="17.803027"><ele>68.0</ele><time>2026-04-28T16:10:40.266Z</time></trkpt><trkpt lat="43.3415514" lon="17.8031589"><ele>68.0</ele><time>2026-04-28T16:10:42.267Z</time></trkpt><trkpt lat="43.3415532" lon="17.8033022"><ele>68.0</ele><time>2026-04-28T16:10:44.265Z</time></trkpt><trkpt lat="43.3415378" lon="17.8034625"><ele>68.0</ele><time>2026-04-28T16:10:46.267Z</time></trkpt><trkpt lat="43.3414984" lon="17.8036319"><ele>67.66666666666667</ele><time>2026-04-28T16:10:48.269Z</time></trkpt><trkpt lat="43.3414804" lon="17.8037264"><ele>67.33333333333334</ele><time>2026-04-28T16:10:49.27Z</time></trkpt><trkpt lat="43.3414504" lon="17.8038265"><ele>67.0</ele><time>2026-04-28T16:10:50.269Z</time></trkpt><trkpt lat="43.3414187" lon="17.8039422"><ele>66.66666666666667</ele><time>2026-04-28T16:10:51.267Z</time></trkpt><trkpt lat="43.3413888" lon="17.8040679"><ele>66.33333333333333</ele><time>2026-04-28T16:10:52.268Z</time></trkpt><trkpt lat="43.3413636" lon="17.804187"><ele>66.0</ele><time>2026-04-28T16:10:53.269Z</time></trkpt><trkpt lat="43.3413212" lon="17.804298"><ele>66.6</ele><time>2026-04-28T16:10:54.267Z</time></trkpt><trkpt lat="43.3412855" lon="17.8044194"><ele>67.19999999999999</ele><time>2026-04-28T16:10:55.267Z</time></trkpt><trkpt lat="43.3412508" lon="17.8045359"><ele>67.80000000000001</ele><time>2026-04-28T16:10:56.269Z</time></trkpt><trkpt lat="43.341214" lon="17.804658"><ele>68.4</ele><time>2026-04-28T16:10:57.268Z</time></trkpt><trkpt lat="43.341178" lon="17.8047752"><ele>69.0</ele><time>2026-04-28T16:10:58.267Z</time></trkpt><trkpt lat="43.341141" lon="17.8048928"><ele>69.0</ele><time>2026-04-28T16:10:59.268Z</time></trkpt><trkpt lat="43.3411107" lon="17.8050154"><ele>69.0</ele><time>2026-04-28T16:11:00.266Z</time></trkpt><trkpt lat="43.3410699" lon="17.80513"><ele>69.0</ele><time>2026-04-28T16:11:01.269Z</time></trkpt><trkpt lat="43.3410304" lon="17.8052453"><ele>69.0</ele><time>2026-04-28T16:11:02.268Z</time></trkpt><trkpt lat="43.3409913" lon="17.8053411"><ele>69.0</ele><time>2026-04-28T16:11:03.267Z</time></trkpt><trkpt lat="43.3409597" lon="17.8054638"><ele>68.8</ele><time>2026-04-28T16:11:04.269Z</time></trkpt><trkpt lat="43.3409233" lon="17.8055756"><ele>68.60000000000001</ele><time>2026-04-28T16:11:05.267Z</time></trkpt><trkpt lat="43.3408807" lon="17.8056808"><ele>68.4</ele><time>2026-04-28T16:11:06.274Z</time></trkpt><trkpt lat="43.3408487" lon="17.8058038"><ele>68.2</ele><time>2026-04-28T16:11:07.268Z</time></trkpt><trkpt lat="43.3408119" lon="17.8059212"><ele>68.0</ele><time>2026-04-28T16:11:08.267Z</time></trkpt><trkpt lat="43.3407744" lon="17.80603"><ele>67.5</ele><time>2026-04-28T16:11:09.268Z</time></trkpt><trkpt lat="43.3407318" lon="17.8061505"><ele>67.0</ele><time>2026-04-28T16:11:10.266Z</time></trkpt><trkpt lat="43.3406949" lon="17.8062652"><ele>66.5</ele><time>2026-04-28T16:11:11.268Z</time></trkpt><trkpt lat="43.3406566" lon="17.8063678"><ele>66.0</ele><time>2026-04-28T16:11:12.267Z</time></trkpt><trkpt lat="43.3406211" lon="17.8064719"><ele>65.5</ele><time>2026-04-28T16:11:13.268Z</time></trkpt><trkpt lat="43.3405864" lon="17.8065772"><ele>65.0</ele><time>2026-04-28T16:11:14.269Z</time></trkpt><trkpt lat="43.3405562" lon="17.8066762"><ele>65.0</ele><time>2026-04-28T16:11:15.267Z</time></trkpt><trkpt lat="43.3405302" lon="17.8067633"><ele>65.0</ele><time>2026-04-28T16:11:16.267Z</time></trkpt><trkpt lat="43.3405016" lon="17.8068595"><ele>65.0</ele><time>2026-04-28T16:11:17.267Z</time></trkpt><trkpt lat="43.3404707" lon="17.8069659"><ele>65.0</ele><time>2026-04-28T16:11:18.269Z</time></trkpt><trkpt lat="43.3404405" lon="17.8070746"><ele>65.0</ele><time>2026-04-28T16:11:19.269Z</time></trkpt><trkpt lat="43.3404012" lon="17.8071866"><ele>65.0</ele><time>2026-04-28T16:11:20.27Z</time></trkpt><trkpt lat="43.3403697" lon="17.8072949"><ele>65.0</ele><time>2026-04-28T16:11:21.269Z</time></trkpt><trkpt lat="43.3403354" lon="17.8073908"><ele>65.0</ele><time>2026-04-28T16:11:22.268Z</time></trkpt><trkpt lat="43.3402893" lon="17.8074971"><ele>65.0</ele><time>2026-04-28T16:11:23.267Z</time></trkpt><trkpt lat="43.3402442" lon="17.8075984"><ele>65.0</ele><time>2026-04-28T16:11:24.265Z</time></trkpt><trkpt lat="43.3402059" lon="17.8077097"><ele>65.0</ele><time>2026-04-28T16:11:25.268Z</time></trkpt><trkpt lat="43.3401686" lon="17.8078015"><ele>65.0</ele><time>2026-04-28T16:11:26.268Z</time></trkpt><trkpt lat="43.3401321" lon="17.8078851"><ele>65.0</ele><time>2026-04-28T16:11:27.27Z</time></trkpt><trkpt lat="43.3400682" lon="17.8080142"><ele>65.0</ele><time>2026-04-28T16:11:29.268Z</time></trkpt><trkpt lat="43.3400292" lon="17.808088"><ele>65.0</ele><time>2026-04-28T16:11:31.268Z</time></trkpt><trkpt lat="43.3400235" lon="17.8081802"><ele>65.0</ele><time>2026-04-28T16:11:41.265Z</time></trkpt><trkpt lat="43.3399757" lon="17.8083203"><ele>65.0</ele><time>2026-04-28T16:11:54.265Z</time></trkpt><trkpt lat="43.3399118" lon="17.8084626"><ele>64.66666666666667</ele><time>2026-04-28T16:11:56.266Z</time></trkpt><trkpt lat="43.3398641" lon="17.8085553"><ele>64.33333333333334</ele><time>2026-04-28T16:11:57.271Z</time></trkpt><trkpt lat="43.3398238" lon="17.8086392"><ele>64.0</ele><time>2026-04-28T16:11:58.267Z</time></trkpt><trkpt lat="43.3397311" lon="17.808749"><ele>63.66666666666667</ele><time>2026-04-28T16:12:00.268Z</time></trkpt><trkpt lat="43.3396688" lon="17.8087923"><ele>63.333333333333336</ele><time>2026-04-28T16:12:01.267Z</time></trkpt><trkpt lat="43.3396046" lon="17.8088304"><ele>63.0</ele><time>2026-04-28T16:12:02.269Z</time></trkpt><trkpt lat="43.3395461" lon="17.8088734"><ele>62.8</ele><time>2026-04-28T16:12:03.267Z</time></trkpt><trkpt lat="43.3394683" lon="17.8089168"><ele>62.599999999999994</ele><time>2026-04-28T16:12:04.268Z</time></trkpt><trkpt lat="43.3393918" lon="17.8089628"><ele>62.400000000000006</ele><time>2026-04-28T16:12:05.269Z</time></trkpt><trkpt lat="43.3393075" lon="17.809016"><ele>62.2</ele><time>2026-04-28T16:12:06.269Z</time></trkpt><trkpt lat="43.3392236" lon="17.8090607"><ele>62.0</ele><time>2026-04-28T16:12:07.268Z</time></trkpt><trkpt lat="43.3391278" lon="17.8091204"><ele>62.0</ele><time>2026-04-28T16:12:08.268Z</time></trkpt><trkpt lat="43.3390257" lon="17.8091854"><ele>62.0</ele><time>2026-04-28T16:12:09.269Z</time></trkpt><trkpt lat="43.3389241" lon="17.8092494"><ele>62.0</ele><time>2026-04-28T16:12:10.27Z</time></trkpt><trkpt lat="43.3388271" lon="17.8093038"><ele>62.0</ele><time>2026-04-28T16:12:11.27Z</time></trkpt><trkpt lat="43.3387268" lon="17.8093544"><ele>62.0</ele><time>2026-04-28T16:12:12.266Z</time></trkpt><trkpt lat="43.3386299" lon="17.8094188"><ele>62.2</ele><time>2026-04-28T16:12:13.267Z</time></trkpt><trkpt lat="43.3385242" lon="17.8094691"><ele>62.400000000000006</ele><time>2026-04-28T16:12:14.269Z</time></trkpt><trkpt lat="43.3384302" lon="17.8095125"><ele>62.599999999999994</ele><time>2026-04-28T16:12:15.269Z</time></trkpt><trkpt lat="43.3383408" lon="17.8095707"><ele>62.8</ele><time>2026-04-28T16:12:16.269Z</time></trkpt><trkpt lat="43.3382521" lon="17.8096288"><ele>63.0</ele><time>2026-04-28T16:12:17.269Z</time></trkpt><trkpt lat="43.3381596" lon="17.8096836"><ele>63.0</ele><time>2026-04-28T16:12:18.269Z</time></trkpt><trkpt lat="43.3380687" lon="17.8097353"><ele>63.0</ele><time>2026-04-28T16:12:19.267Z</time></trkpt><trkpt lat="43.3379864" lon="17.8097835"><ele>63.0</ele><time>2026-04-28T16:12:20.269Z</time></trkpt><trkpt lat="43.337912" lon="17.8098266"><ele>63.0</ele><time>2026-04-28T16:12:21.27Z</time></trkpt><trkpt lat="43.3378503" lon="17.8098659"><ele>63.0</ele><time>2026-04-28T16:12:22.269Z</time></trkpt><trkpt lat="43.3377617" lon="17.8099182"><ele>63.0</ele><time>2026-04-28T16:12:24.27Z</time></trkpt><trkpt lat="43.3376962" lon="17.8099588"><ele>62.833333333333336</ele><time>2026-04-28T16:12:28.268Z</time></trkpt><trkpt lat="43.3376372" lon="17.8099965"><ele>62.66666666666667</ele><time>2026-04-28T16:12:30.266Z</time></trkpt><trkpt lat="43.337555" lon="17.8100622"><ele>62.5</ele><time>2026-04-28T16:12:32.265Z</time></trkpt><trkpt lat="43.3374571" lon="17.8101289"><ele>62.333333333333336</ele><time>2026-04-28T16:12:34.267Z</time></trkpt><trkpt lat="43.3373907" lon="17.8101798"><ele>62.16666666666667</ele><time>2026-04-28T16:12:35.267Z</time></trkpt><trkpt lat="43.3373144" lon="17.8102412"><ele>62.0</ele><time>2026-04-28T16:12:36.269Z</time></trkpt><trkpt lat="43.337234" lon="17.8103079"><ele>62.2</ele><time>2026-04-28T16:12:37.267Z</time></trkpt><trkpt lat="43.3371543" lon="17.8103713"><ele>62.400000000000006</ele><time>2026-04-28T16:12:38.267Z</time></trkpt><trkpt lat="43.3370706" lon="17.8104519"><ele>62.599999999999994</ele><time>2026-04-28T16:12:39.268Z</time></trkpt><trkpt lat="43.3369845" lon="17.810528"><ele>62.8</ele><time>2026-04-28T16:12:40.268Z</time></trkpt><trkpt lat="43.3368986" lon="17.8106125"><ele>63.0</ele><time>2026-04-28T16:12:41.268Z</time></trkpt><trkpt lat="43.3368153" lon="17.8107005"><ele>63.0</ele><time>2026-04-28T16:12:42.266Z</time></trkpt><trkpt lat="43.3367305" lon="17.810791"><ele>63.0</ele><time>2026-04-28T16:12:43.27Z</time></trkpt><trkpt lat="43.3366449" lon="17.8108935"><ele>63.0</ele><time>2026-04-28T16:12:44.267Z</time></trkpt><trkpt lat="43.3365559" lon="17.8109956"><ele>63.0</ele><time>2026-04-28T16:12:45.267Z</time></trkpt><trkpt lat="43.3364676" lon="17.8111086"><ele>66.25</ele><time>2026-04-28T16:12:46.267Z</time></trkpt><trkpt lat="43.336378" lon="17.8112284"><ele>69.5</ele><time>2026-04-28T16:12:47.267Z</time></trkpt><trkpt lat="43.3362906" lon="17.8113517"><ele>72.75</ele><time>2026-04-28T16:12:48.267Z</time></trkpt><trkpt lat="43.336202" lon="17.8114774"><ele>76.0</ele><time>2026-04-28T16:12:49.268Z</time></trkpt><trkpt lat="43.336121" lon="17.8115961"><ele>76.0</ele><time>2026-04-28T16:12:50.268Z</time></trkpt><trkpt lat="43.3360331" lon="17.8117233"><ele>76.0</ele><time>2026-04-28T16:12:51.267Z</time></trkpt><trkpt lat="43.3359496" lon="17.8118529"><ele>76.0</ele><time>2026-04-28T16:12:52.268Z</time></trkpt><trkpt lat="43.3358669" lon="17.8119727"><ele>76.0</ele><time>2026-04-28T16:12:53.268Z</time></trkpt><trkpt lat="43.3357871" lon="17.8120924"><ele>73.8</ele><time>2026-04-28T16:12:54.268Z</time></trkpt><trkpt lat="43.3357087" lon="17.8122104"><ele>71.6</ele><time>2026-04-28T16:12:55.267Z</time></trkpt><trkpt lat="43.335635" lon="17.8123209"><ele>69.4</ele><time>2026-04-28T16:12:56.267Z</time></trkpt><trkpt lat="43.3355637" lon="17.8124187"><ele>67.2</ele><time>2026-04-28T16:12:57.268Z</time></trkpt><trkpt lat="43.3354977" lon="17.8125125"><ele>65.0</ele><time>2026-04-28T16:12:58.269Z</time></trkpt><trkpt lat="43.3354322" lon="17.8125962"><ele>65.16666666666667</ele><time>2026-04-28T16:12:59.268Z</time></trkpt><trkpt lat="43.3353645" lon="17.8126881"><ele>65.33333333333334</ele><time>2026-04-28T16:13:00.268Z</time></trkpt><trkpt lat="43.3353008" lon="17.8127747"><ele>65.5</ele><time>2026-04-28T16:13:01.269Z</time></trkpt><trkpt lat="43.335243" lon="17.8128521"><ele>65.66666666666667</ele><time>2026-04-28T16:13:02.27Z</time></trkpt><trkpt lat="43.335187" lon="17.8129224"><ele>65.83333333333333</ele><time>2026-04-28T16:13:03.27Z</time></trkpt><trkpt lat="43.3351378" lon="17.8129817"><ele>66.0</ele><time>2026-04-28T16:13:04.268Z</time></trkpt><trkpt lat="43.33506" lon="17.8130757"><ele>66.0</ele><time>2026-04-28T16:13:06.268Z</time></trkpt><trkpt lat="43.3350098" lon="17.8131324"><ele>66.0</ele><time>2026-04-28T16:13:08.266Z</time></trkpt><trkpt lat="43.33494" lon="17.8132041"><ele>66.0</ele><time>2026-04-28T16:13:24.268Z</time></trkpt><trkpt lat="43.3348512" lon="17.8132883"><ele>66.0</ele><time>2026-04-28T16:13:26.269Z</time></trkpt><trkpt lat="43.334782" lon="17.813388"><ele>66.0</ele><time>2026-04-28T16:13:28.277Z</time></trkpt><trkpt lat="43.334758" lon="17.8135276"><ele>65.16666666666667</ele><time>2026-04-28T16:13:30.277Z</time></trkpt><trkpt lat="43.3347702" lon="17.8136152"><ele>64.33333333333333</ele><time>2026-04-28T16:13:31.268Z</time></trkpt><trkpt lat="43.3347844" lon="17.81371"><ele>63.5</ele><time>2026-04-28T16:13:32.268Z</time></trkpt><trkpt lat="43.3348014" lon="17.8137991"><ele>62.666666666666664</ele><time>2026-04-28T16:13:33.267Z</time></trkpt><trkpt lat="43.334814" lon="17.8138849"><ele>61.83333333333333</ele><time>2026-04-28T16:13:34.268Z</time></trkpt><trkpt lat="43.3348414" lon="17.8140348"><ele>61.0</ele><time>2026-04-28T16:13:36.267Z</time></trkpt><trkpt lat="43.3348695" lon="17.8141692"><ele>60.99999999999999</ele><time>2026-04-28T16:13:38.267Z</time></trkpt><trkpt lat="43.3348906" lon="17.8142936"><ele>61.0</ele><time>2026-04-28T16:13:40.268Z</time></trkpt><trkpt lat="43.3349128" lon="17.8144151"><ele>61.0</ele><time>2026-04-28T16:13:42.268Z</time></trkpt><trkpt lat="43.334932" lon="17.8145054"><ele>61.0</ele><time>2026-04-28T16:13:44.266Z</time></trkpt><trkpt lat="43.3349525" lon="17.8145985"><ele>60.99999999999999</ele><time>2026-04-28T16:13:46.27Z</time></trkpt><trkpt lat="43.3349819" lon="17.814743"><ele>61.0</ele><time>2026-04-28T16:13:48.267Z</time></trkpt><trkpt lat="43.3349994" lon="17.814827"><ele>60.428571428571416</ele><time>2026-04-28T16:13:49.267Z</time></trkpt><trkpt lat="43.3350156" lon="17.8149195"><ele>59.857142857142854</ele><time>2026-04-28T16:13:50.268Z</time></trkpt><trkpt lat="43.335032" lon="17.8150086"><ele>59.28571428571428</ele><time>2026-04-28T16:13:51.267Z</time></trkpt><trkpt lat="43.3350511" lon="17.8151058"><ele>58.71428571428571</ele><time>2026-04-28T16:13:52.267Z</time></trkpt><trkpt lat="43.3350723" lon="17.8152031"><ele>58.14285714285714</ele><time>2026-04-28T16:13:53.267Z</time></trkpt><trkpt lat="43.335089" lon="17.8152945"><ele>57.57142857142857</ele><time>2026-04-28T16:13:54.268Z</time></trkpt><trkpt lat="43.3351032" lon="17.8153852"><ele>57.0</ele><time>2026-04-28T16:13:55.266Z</time></trkpt><trkpt lat="43.3351216" lon="17.8154868"><ele>56.14285714285714</ele><time>2026-04-28T16:13:56.268Z</time></trkpt><trkpt lat="43.3351377" lon="17.8155783"><ele>55.28571428571428</ele><time>2026-04-28T16:13:57.268Z</time></trkpt><trkpt lat="43.3351533" lon="17.8156711"><ele>54.42857142857143</ele><time>2026-04-28T16:13:58.267Z</time></trkpt><trkpt lat="43.3351646" lon="17.8157651"><ele>53.57142857142857</ele><time>2026-04-28T16:13:59.268Z</time></trkpt><trkpt lat="43.335179" lon="17.8158653"><ele>52.714285714285715</ele><time>2026-04-28T16:14:00.268Z</time></trkpt><trkpt lat="43.3351905" lon="17.8159662"><ele>51.85714285714286</ele><time>2026-04-28T16:14:01.267Z</time></trkpt><trkpt lat="43.335206" lon="17.8160674"><ele>51.0</ele><time>2026-04-28T16:14:02.268Z</time></trkpt><trkpt lat="43.3352222" lon="17.8161758"><ele>51.0</ele><time>2026-04-28T16:14:03.268Z</time></trkpt><trkpt lat="43.3352367" lon="17.8162768"><ele>51.0</ele><time>2026-04-28T16:14:04.267Z</time></trkpt><trkpt lat="43.335249" lon="17.8163726"><ele>51.0</ele><time>2026-04-28T16:14:05.269Z</time></trkpt><trkpt lat="43.3352627" lon="17.8164595"><ele>51.0</ele><time>2026-04-28T16:14:06.268Z</time></trkpt><trkpt lat="43.3352835" lon="17.8166189"><ele>51.0</ele><time>2026-04-28T16:14:08.268Z</time></trkpt><trkpt lat="43.335298" lon="17.8167474"><ele>51.0</ele><time>2026-04-28T16:14:10.267Z</time></trkpt><trkpt lat="43.3352983" lon="17.8168371"><ele>52.5</ele><time>2026-04-28T16:14:12.265Z</time></trkpt><trkpt lat="43.3352969" lon="17.8169247"><ele>54.0</ele><time>2026-04-28T16:14:14.267Z</time></trkpt><trkpt lat="43.3352639" lon="17.8170096"><ele>55.5</ele><time>2026-04-28T16:14:16.266Z</time></trkpt><trkpt lat="43.3351851" lon="17.8170774"><ele>57.0</ele><time>2026-04-28T16:14:18.274Z</time></trkpt><trkpt lat="43.3350953" lon="17.8171288"><ele>58.5</ele><time>2026-04-28T16:14:20.266Z</time></trkpt><trkpt lat="43.3349991" lon="17.817172"><ele>60.0</ele><time>2026-04-28T16:14:22.269Z</time></trkpt><trkpt lat="43.3349179" lon="17.8172016"><ele>60.0</ele><time>2026-04-28T16:14:24.265Z</time></trkpt><trkpt lat="43.3348354" lon="17.8172365"><ele>60.0</ele><time>2026-04-28T16:14:26.265Z</time></trkpt><trkpt lat="43.3347427" lon="17.8172746"><ele>60.0</ele><time>2026-04-28T16:14:28.267Z</time></trkpt><trkpt lat="43.3346378" lon="17.8173304"><ele>60.0</ele><time>2026-04-28T16:14:30.268Z</time></trkpt><trkpt lat="43.3345679" lon="17.8173353"><ele>60.0</ele><time>2026-04-28T16:14:31.274Z</time></trkpt><trkpt lat="43.3345042" lon="17.8173573"><ele>60.0</ele><time>2026-04-28T16:14:32.268Z</time></trkpt><trkpt lat="43.3344366" lon="17.8173811"><ele>59.8</ele><time>2026-04-28T16:14:33.265Z</time></trkpt><trkpt lat="43.3343747" lon="17.8174015"><ele>59.6</ele><time>2026-04-28T16:14:34.268Z</time></trkpt><trkpt lat="43.3342568" lon="17.8174423"><ele>59.400000000000006</ele><time>2026-04-28T16:14:36.267Z</time></trkpt><trkpt lat="43.3341416" lon="17.8174966"><ele>59.2</ele><time>2026-04-28T16:14:38.268Z</time></trkpt><trkpt lat="43.3340367" lon="17.8175527"><ele>59.0</ele><time>2026-04-28T16:14:40.267Z</time></trkpt><trkpt lat="43.3339743" lon="17.8175728"><ele>59.0</ele><time>2026-04-28T16:14:41.273Z</time></trkpt><trkpt lat="43.3339088" lon="17.8175973"><ele>59.0</ele><time>2026-04-28T16:14:42.266Z</time></trkpt><trkpt lat="43.3338388" lon="17.8176342"><ele>59.0</ele><time>2026-04-28T16:14:43.267Z</time></trkpt><trkpt lat="43.3337652" lon="17.8176733"><ele>59.0</ele><time>2026-04-28T16:14:44.267Z</time></trkpt><trkpt lat="43.3336922" lon="17.817703"><ele>59.0</ele><time>2026-04-28T16:14:45.28Z</time></trkpt><trkpt lat="43.333626" lon="17.8177283"><ele>59.0</ele><time>2026-04-28T16:14:46.269Z</time></trkpt><trkpt lat="43.3335505" lon="17.8177622"><ele>59.0</ele><time>2026-04-28T16:14:47.271Z</time></trkpt><trkpt lat="43.3334822" lon="17.8177912"><ele>59.16666666666667</ele><time>2026-04-28T16:14:48.271Z</time></trkpt><trkpt lat="43.3334142" lon="17.8178223"><ele>59.333333333333336</ele><time>2026-04-28T16:14:49.267Z</time></trkpt><trkpt lat="43.3332837" lon="17.8178791"><ele>59.5</ele><time>2026-04-28T16:14:51.269Z</time></trkpt><trkpt lat="43.3332152" lon="17.8179049"><ele>59.66666666666667</ele><time>2026-04-28T16:14:52.267Z</time></trkpt><trkpt lat="43.3331527" lon="17.8179203"><ele>59.833333333333336</ele><time>2026-04-28T16:14:53.267Z</time></trkpt><trkpt lat="43.3330582" lon="17.8179581"><ele>60.0</ele><time>2026-04-28T16:14:55.27Z</time></trkpt><trkpt lat="43.3329336" lon="17.8180094"><ele>60.166666666666664</ele><time>2026-04-28T16:14:57.269Z</time></trkpt><trkpt lat="43.3328683" lon="17.8180405"><ele>60.33333333333333</ele><time>2026-04-28T16:14:58.267Z</time></trkpt><trkpt lat="43.3327967" lon="17.8180587"><ele>60.5</ele><time>2026-04-28T16:14:59.267Z</time></trkpt><trkpt lat="43.3327189" lon="17.8180932"><ele>60.666666666666664</ele><time>2026-04-28T16:15:00.267Z</time></trkpt><trkpt lat="43.3326442" lon="17.8181153"><ele>60.83333333333333</ele><time>2026-04-28T16:15:01.266Z</time></trkpt><trkpt lat="43.3325638" lon="17.8181427"><ele>61.0</ele><time>2026-04-28T16:15:02.266Z</time></trkpt><trkpt lat="43.3324851" lon="17.8181755"><ele>60.99999999999999</ele><time>2026-04-28T16:15:03.267Z</time></trkpt><trkpt lat="43.3324094" lon="17.8181909"><ele>61.0</ele><time>2026-04-28T16:15:04.267Z</time></trkpt><trkpt lat="43.3323327" lon="17.8182077"><ele>61.0</ele><time>2026-04-28T16:15:05.284Z</time></trkpt><trkpt lat="43.332248" lon="17.8182229"><ele>61.0</ele><time>2026-04-28T16:15:06.267Z</time></trkpt><trkpt lat="43.332161" lon="17.8182441"><ele>60.99999999999999</ele><time>2026-04-28T16:15:07.269Z</time></trkpt><trkpt lat="43.3320834" lon="17.8182516"><ele>61.0</ele><time>2026-04-28T16:15:08.266Z</time></trkpt><trkpt lat="43.3320086" lon="17.8182702"><ele>61.33333333333333</ele><time>2026-04-28T16:15:09.266Z</time></trkpt><trkpt lat="43.331946" lon="17.8182829"><ele>61.666666666666664</ele><time>2026-04-28T16:15:10.268Z</time></trkpt><trkpt lat="43.331832" lon="17.8183338"><ele>62.0</ele><time>2026-04-28T16:15:12.267Z</time></trkpt><trkpt lat="43.331766" lon="17.8183635"><ele>62.33333333333333</ele><time>2026-04-28T16:15:13.267Z</time></trkpt><trkpt lat="43.3317017" lon="17.8184047"><ele>62.666666666666664</ele><time>2026-04-28T16:15:14.268Z</time></trkpt><trkpt lat="43.3316369" lon="17.8184448"><ele>63.0</ele><time>2026-04-28T16:15:15.268Z</time></trkpt><trkpt lat="43.3315679" lon="17.8184883"><ele>63.0</ele><time>2026-04-28T16:15:16.268Z</time></trkpt><trkpt lat="43.3315014" lon="17.8185227"><ele>63.0</ele><time>2026-04-28T16:15:17.269Z</time></trkpt><trkpt lat="43.331432" lon="17.8185633"><ele>63.0</ele><time>2026-04-28T16:15:18.268Z</time></trkpt><trkpt lat="43.331371" lon="17.8186078"><ele>63.0</ele><time>2026-04-28T16:15:19.267Z</time></trkpt><trkpt lat="43.3313073" lon="17.8186599"><ele>63.0</ele><time>2026-04-28T16:15:20.269Z</time></trkpt><trkpt lat="43.3312388" lon="17.8187014"><ele>63.0</ele><time>2026-04-28T16:15:21.269Z</time></trkpt><trkpt lat="43.3311734" lon="17.8187428"><ele>63.0</ele><time>2026-04-28T16:15:22.268Z</time></trkpt><trkpt lat="43.331115" lon="17.8187865"><ele>62.57142857142857</ele><time>2026-04-28T16:15:23.268Z</time></trkpt><trkpt lat="43.3310546" lon="17.8188307"><ele>62.14285714285714</ele><time>2026-04-28T16:15:24.268Z</time></trkpt><trkpt lat="43.3309916" lon="17.8188681"><ele>61.714285714285715</ele><time>2026-04-28T16:15:25.269Z</time></trkpt><trkpt lat="43.3309229" lon="17.8189057"><ele>61.285714285714285</ele><time>2026-04-28T16:15:26.269Z</time></trkpt><trkpt lat="43.3308612" lon="17.8189435"><ele>60.857142857142854</ele><time>2026-04-28T16:15:27.268Z</time></trkpt><trkpt lat="43.3307974" lon="17.8189822"><ele>60.42857142857143</ele><time>2026-04-28T16:15:28.268Z</time></trkpt><trkpt lat="43.3307265" lon="17.8190227"><ele>60.0</ele><time>2026-04-28T16:15:29.267Z</time></trkpt><trkpt lat="43.3306522" lon="17.8190657"><ele>60.0</ele><time>2026-04-28T16:15:30.269Z</time></trkpt><trkpt lat="43.3305746" lon="17.8191177"><ele>60.0</ele><time>2026-04-28T16:15:31.268Z</time></trkpt><trkpt lat="43.3304921" lon="17.8191712"><ele>60.0</ele><time>2026-04-28T16:15:32.267Z</time></trkpt><trkpt lat="43.3304027" lon="17.8192273"><ele>60.0</ele><time>2026-04-28T16:15:33.267Z</time></trkpt><trkpt lat="43.3303127" lon="17.8192808"><ele>60.0</ele><time>2026-04-28T16:15:34.267Z</time></trkpt><trkpt lat="43.3302207" lon="17.8193427"><ele>59.4</ele><time>2026-04-28T16:15:35.267Z</time></trkpt><trkpt lat="43.3301317" lon="17.8193986"><ele>58.8</ele><time>2026-04-28T16:15:36.267Z</time></trkpt><trkpt lat="43.3300471" lon="17.8194604"><ele>58.2</ele><time>2026-04-28T16:15:37.268Z</time></trkpt><trkpt lat="43.3299608" lon="17.8195291"><ele>57.6</ele><time>2026-04-28T16:15:38.27Z</time></trkpt><trkpt lat="43.3298709" lon="17.8196008"><ele>57.0</ele><time>2026-04-28T16:15:39.267Z</time></trkpt><trkpt lat="43.3297832" lon="17.8196784"><ele>57.0</ele><time>2026-04-28T16:15:40.267Z</time></trkpt><trkpt lat="43.3296922" lon="17.8197572"><ele>57.0</ele><time>2026-04-28T16:15:41.268Z</time></trkpt><trkpt lat="43.3296012" lon="17.8198372"><ele>57.0</ele><time>2026-04-28T16:15:42.267Z</time></trkpt><trkpt lat="43.3295101" lon="17.8199194"><ele>57.0</ele><time>2026-04-28T16:15:43.264Z</time></trkpt><trkpt lat="43.3294257" lon="17.8199978"><ele>57.0</ele><time>2026-04-28T16:15:44.264Z</time></trkpt><trkpt lat="43.3293463" lon="17.8200776"><ele>57.0</ele><time>2026-04-28T16:15:45.265Z</time></trkpt><trkpt lat="43.3292656" lon="17.8201572"><ele>57.0</ele><time>2026-04-28T16:15:46.265Z</time></trkpt><trkpt lat="43.3291825" lon="17.820243"><ele>57.0</ele><time>2026-04-28T16:15:47.271Z</time></trkpt><trkpt lat="43.3290988" lon="17.8203266"><ele>57.0</ele><time>2026-04-28T16:15:48.267Z</time></trkpt><trkpt lat="43.3290084" lon="17.8204205"><ele>57.0</ele><time>2026-04-28T16:15:49.267Z</time></trkpt><trkpt lat="43.3289241" lon="17.8205076"><ele>57.0</ele><time>2026-04-28T16:15:50.269Z</time></trkpt><trkpt lat="43.3288399" lon="17.8205918"><ele>57.0</ele><time>2026-04-28T16:15:51.268Z</time></trkpt><trkpt lat="43.3287543" lon="17.8206756"><ele>57.0</ele><time>2026-04-28T16:15:52.267Z</time></trkpt><trkpt lat="43.3286659" lon="17.8207552"><ele>57.0</ele><time>2026-04-28T16:15:53.268Z</time></trkpt><trkpt lat="43.3285832" lon="17.8208378"><ele>57.0</ele><time>2026-04-28T16:15:54.268Z</time></trkpt><trkpt lat="43.328506" lon="17.8209193"><ele>57.2</ele><time>2026-04-28T16:15:55.269Z</time></trkpt><trkpt lat="43.3284258" lon="17.8209979"><ele>57.400000000000006</ele><time>2026-04-28T16:15:56.269Z</time></trkpt><trkpt lat="43.3283399" lon="17.8210839"><ele>57.599999999999994</ele><time>2026-04-28T16:15:57.268Z</time></trkpt><trkpt lat="43.3282561" lon="17.8211592"><ele>57.8</ele><time>2026-04-28T16:15:58.267Z</time></trkpt><trkpt lat="43.3281801" lon="17.8212279"><ele>58.0</ele><time>2026-04-28T16:15:59.268Z</time></trkpt><trkpt lat="43.3281023" lon="17.8212897"><ele>57.99999999999999</ele><time>2026-04-28T16:16:00.267Z</time></trkpt><trkpt lat="43.3280151" lon="17.8213501"><ele>58.0</ele><time>2026-04-28T16:16:01.266Z</time></trkpt><trkpt lat="43.327934" lon="17.8214088"><ele>58.0</ele><time>2026-04-28T16:16:02.268Z</time></trkpt><trkpt lat="43.3278657" lon="17.8214606"><ele>58.0</ele><time>2026-04-28T16:16:03.267Z</time></trkpt><trkpt lat="43.3278084" lon="17.8215022"><ele>57.99999999999999</ele><time>2026-04-28T16:16:04.267Z</time></trkpt><trkpt lat="43.3277353" lon="17.8215503"><ele>58.0</ele><time>2026-04-28T16:16:06.267Z</time></trkpt><trkpt lat="43.3276771" lon="17.821595"><ele>58.0</ele><time>2026-04-28T16:16:45.268Z</time></trkpt><trkpt lat="43.3276071" lon="17.8216429"><ele>58.0</ele><time>2026-04-28T16:16:47.264Z</time></trkpt><trkpt lat="43.3275315" lon="17.8216899"><ele>58.0</ele><time>2026-04-28T16:16:50.265Z</time></trkpt><trkpt lat="43.3274772" lon="17.8218008"><ele>58.0</ele><time>2026-04-28T16:17:01.265Z</time></trkpt><trkpt lat="43.327467" lon="17.8219274"><ele>58.0</ele><time>2026-04-28T16:17:03.266Z</time></trkpt><trkpt lat="43.3275254" lon="17.8220933"><ele>58.4</ele><time>2026-04-28T16:17:05.267Z</time></trkpt><trkpt lat="43.3275619" lon="17.8221955"><ele>58.8</ele><time>2026-04-28T16:17:06.268Z</time></trkpt><trkpt lat="43.3276178" lon="17.8223136"><ele>59.2</ele><time>2026-04-28T16:17:07.267Z</time></trkpt><trkpt lat="43.3276708" lon="17.8224428"><ele>59.6</ele><time>2026-04-28T16:17:08.266Z</time></trkpt><trkpt lat="43.3277316" lon="17.8225828"><ele>60.0</ele><time>2026-04-28T16:17:09.266Z</time></trkpt><trkpt lat="43.3277973" lon="17.8227294"><ele>60.0</ele><time>2026-04-28T16:17:10.268Z</time></trkpt><trkpt lat="43.3278591" lon="17.8228764"><ele>60.0</ele><time>2026-04-28T16:17:11.266Z</time></trkpt><trkpt lat="43.3279212" lon="17.8230228"><ele>60.0</ele><time>2026-04-28T16:17:12.267Z</time></trkpt><trkpt lat="43.3279737" lon="17.8231477"><ele>60.0</ele><time>2026-04-28T16:17:13.265Z</time></trkpt><trkpt lat="43.3280249" lon="17.8232565"><ele>60.0</ele><time>2026-04-28T16:17:14.267Z</time></trkpt><trkpt lat="43.328061" lon="17.8233414"><ele>59.6</ele><time>2026-04-28T16:17:15.267Z</time></trkpt><trkpt lat="43.3281022" lon="17.8234174"><ele>59.2</ele><time>2026-04-28T16:17:17.266Z</time></trkpt><trkpt lat="43.3282086" lon="17.8234274"><ele>58.8</ele><time>2026-04-28T16:17:20.267Z</time></trkpt><trkpt lat="43.3282761" lon="17.8233702"><ele>58.4</ele><time>2026-04-28T16:17:21.267Z</time></trkpt><trkpt lat="43.3283729" lon="17.8232623"><ele>58.0</ele><time>2026-04-28T16:17:22.266Z</time></trkpt><trkpt lat="43.3285041" lon="17.8231103"><ele>58.0</ele><time>2026-04-28T16:17:23.27Z</time></trkpt><trkpt lat="43.3286363" lon="17.8229677"><ele>58.0</ele><time>2026-04-28T16:17:24.266Z</time></trkpt><trkpt lat="43.3287698" lon="17.8228264"><ele>58.0</ele><time>2026-04-28T16:17:25.267Z</time></trkpt><trkpt lat="43.3289112" lon="17.8226839"><ele>59.0</ele><time>2026-04-28T16:17:26.266Z</time></trkpt><trkpt lat="43.3290517" lon="17.8225445"><ele>60.0</ele><time>2026-04-28T16:17:27.268Z</time></trkpt><trkpt lat="43.3291946" lon="17.8224179"><ele>61.0</ele><time>2026-04-28T16:17:28.267Z</time></trkpt><trkpt lat="43.3293436" lon="17.8222852"><ele>61.0</ele><time>2026-04-28T16:17:29.267Z</time></trkpt><trkpt lat="43.3294982" lon="17.8221655"><ele>61.0</ele><time>2026-04-28T16:17:30.267Z</time></trkpt><trkpt lat="43.3296589" lon="17.8220497"><ele>61.0</ele><time>2026-04-28T16:17:31.266Z</time></trkpt><trkpt lat="43.3298194" lon="17.8219381"><ele>61.0</ele><time>2026-04-28T16:17:32.267Z</time></trkpt><trkpt lat="43.329984" lon="17.8218301"><ele>61.0</ele><time>2026-04-28T16:17:33.266Z</time></trkpt><trkpt lat="43.330146" lon="17.8217261"><ele>61.0</ele><time>2026-04-28T16:17:34.266Z</time></trkpt><trkpt lat="43.3303068" lon="17.8216249"><ele>61.0</ele><time>2026-04-28T16:17:35.267Z</time></trkpt><trkpt lat="43.3304526" lon="17.8215288"><ele>61.0</ele><time>2026-04-28T16:17:36.267Z</time></trkpt><trkpt lat="43.3305962" lon="17.8214447"><ele>61.0</ele><time>2026-04-28T16:17:37.268Z</time></trkpt><trkpt lat="43.3307372" lon="17.8213602"><ele>63.666666666666664</ele><time>2026-04-28T16:17:38.266Z</time></trkpt><trkpt lat="43.3308758" lon="17.8212814"><ele>66.33333333333333</ele><time>2026-04-28T16:17:39.266Z</time></trkpt><trkpt lat="43.3310149" lon="17.8211979"><ele>69.0</ele><time>2026-04-28T16:17:40.27Z</time></trkpt><trkpt lat="43.3311519" lon="17.8211138"><ele>69.0</ele><time>2026-04-28T16:17:41.268Z</time></trkpt><trkpt lat="43.3312871" lon="17.8210257"><ele>69.0</ele><time>2026-04-28T16:17:42.268Z</time></trkpt><trkpt lat="43.3314273" lon="17.8209407"><ele>69.0</ele><time>2026-04-28T16:17:43.267Z</time></trkpt><trkpt lat="43.3315703" lon="17.8208576"><ele>70.33333333333333</ele><time>2026-04-28T16:17:44.269Z</time></trkpt><trkpt lat="43.3317155" lon="17.8207714"><ele>71.66666666666666</ele><time>2026-04-28T16:17:45.271Z</time></trkpt><trkpt lat="43.3318572" lon="17.820688"><ele>73.0</ele><time>2026-04-28T16:17:46.268Z</time></trkpt><trkpt lat="43.3319958" lon="17.8206061"><ele>73.0</ele><time>2026-04-28T16:17:47.268Z</time></trkpt><trkpt lat="43.3321299" lon="17.8205312"><ele>73.0</ele><time>2026-04-28T16:17:48.27Z</time></trkpt><trkpt lat="43.3322516" lon="17.8204591"><ele>73.0</ele><time>2026-04-28T16:17:49.267Z</time></trkpt><trkpt lat="43.3323607" lon="17.8203984"><ele>73.0</ele><time>2026-04-28T16:17:50.268Z</time></trkpt><trkpt lat="43.3324588" lon="17.8203465"><ele>74.16666666666666</ele><time>2026-04-28T16:17:51.265Z</time></trkpt><trkpt lat="43.3325514" lon="17.8202987"><ele>75.33333333333333</ele><time>2026-04-28T16:17:52.266Z</time></trkpt><trkpt lat="43.332648" lon="17.8202567"><ele>76.5</ele><time>2026-04-28T16:17:54.269Z</time></trkpt><trkpt lat="43.3327216" lon="17.8202328"><ele>77.66666666666667</ele><time>2026-04-28T16:17:57.266Z</time></trkpt><trkpt lat="43.3327886" lon="17.8201691"><ele>78.83333333333334</ele><time>2026-04-28T16:23:36.265Z</time></trkpt><trkpt lat="43.3328433" lon="17.8201211"><ele>80.0</ele><time>2026-04-28T16:23:37.265Z</time></trkpt><trkpt lat="43.3329175" lon="17.8200792"><ele>80.0</ele><time>2026-04-28T16:23:38.266Z</time></trkpt><trkpt lat="43.3330085" lon="17.8200276"><ele>80.0</ele><time>2026-04-28T16:23:39.266Z</time></trkpt><trkpt lat="43.3331009" lon="17.8199725"><ele>80.0</ele><time>2026-04-28T16:23:40.266Z</time></trkpt><trkpt lat="43.333206" lon="17.8199143"><ele>80.0</ele><time>2026-04-28T16:23:41.264Z</time></trkpt><trkpt lat="43.3333117" lon="17.8198555"><ele>80.0</ele><time>2026-04-28T16:23:42.263Z</time></trkpt><trkpt lat="43.3334201" lon="17.8197956"><ele>82.75</ele><time>2026-04-28T16:23:43.263Z</time></trkpt><trkpt lat="43.3335313" lon="17.8197312"><ele>85.5</ele><time>2026-04-28T16:23:44.265Z</time></trkpt><trkpt lat="43.3336483" lon="17.8196732"><ele>88.25</ele><time>2026-04-28T16:23:45.266Z</time></trkpt><trkpt lat="43.3337609" lon="17.8196149"><ele>91.0</ele><time>2026-04-28T16:23:46.266Z</time></trkpt><trkpt lat="43.3338725" lon="17.819553"><ele>93.5</ele><time>2026-04-28T16:23:47.266Z</time></trkpt><trkpt lat="43.3339948" lon="17.8195034"><ele>96.0</ele><time>2026-04-28T16:23:48.267Z</time></trkpt><trkpt lat="43.3341169" lon="17.8194536"><ele>98.5</ele><time>2026-04-28T16:23:49.266Z</time></trkpt><trkpt lat="43.3342525" lon="17.8194152"><ele>101.0</ele><time>2026-04-28T16:23:50.267Z</time></trkpt><trkpt lat="43.3343908" lon="17.8193631"><ele>101.0</ele><time>2026-04-28T16:23:51.269Z</time></trkpt><trkpt lat="43.3345297" lon="17.8193214"><ele>101.0</ele><time>2026-04-28T16:23:52.267Z</time></trkpt><trkpt lat="43.334677" lon="17.819294"><ele>101.0</ele><time>2026-04-28T16:23:53.266Z</time></trkpt><trkpt lat="43.3348291" lon="17.8192663"><ele>101.0</ele><time>2026-04-28T16:23:54.266Z</time></trkpt><trkpt lat="43.334985" lon="17.8192452"><ele>98.33333333333333</ele><time>2026-04-28T16:23:55.266Z</time></trkpt><trkpt lat="43.3351401" lon="17.8192165"><ele>95.66666666666666</ele><time>2026-04-28T16:23:56.27Z</time></trkpt><trkpt lat="43.3352992" lon="17.8191998"><ele>93.0</ele><time>2026-04-28T16:23:57.267Z</time></trkpt><trkpt lat="43.3354429" lon="17.8191668"><ele>94.5</ele><time>2026-04-28T16:23:58.266Z</time></trkpt><trkpt lat="43.3355818" lon="17.8191449"><ele>96.0</ele><time>2026-04-28T16:23:59.267Z</time></trkpt><trkpt lat="43.3357071" lon="17.8191164"><ele>97.5</ele><time>2026-04-28T16:24:00.267Z</time></trkpt><trkpt lat="43.3358351" lon="17.8190792"><ele>99.0</ele><time>2026-04-28T16:24:01.266Z</time></trkpt><trkpt lat="43.3359634" lon="17.8190389"><ele>99.0</ele><time>2026-04-28T16:24:02.267Z</time></trkpt><trkpt lat="43.3360892" lon="17.8189922"><ele>99.0</ele><time>2026-04-28T16:24:03.268Z</time></trkpt><trkpt lat="43.3362121" lon="17.8189429"><ele>99.0</ele><time>2026-04-28T16:24:04.266Z</time></trkpt><trkpt lat="43.3363343" lon="17.8188852"><ele>99.0</ele><time>2026-04-28T16:24:05.263Z</time></trkpt><trkpt lat="43.3364529" lon="17.8188294"><ele>100.25</ele><time>2026-04-28T16:24:06.264Z</time></trkpt><trkpt lat="43.3365658" lon="17.8187706"><ele>101.5</ele><time>2026-04-28T16:24:07.267Z</time></trkpt><trkpt lat="43.3366764" lon="17.8187075"><ele>102.75</ele><time>2026-04-28T16:24:08.265Z</time></trkpt><trkpt lat="43.3367832" lon="17.8186422"><ele>104.0</ele><time>2026-04-28T16:24:09.265Z</time></trkpt><trkpt lat="43.3368959" lon="17.8185734"><ele>104.0</ele><time>2026-04-28T16:24:10.267Z</time></trkpt><trkpt lat="43.337002" lon="17.8185163"><ele>104.0</ele><time>2026-04-28T16:24:11.266Z</time></trkpt><trkpt lat="43.3371001" lon="17.8184652"><ele>104.0</ele><time>2026-04-28T16:24:12.265Z</time></trkpt><trkpt lat="43.3371933" lon="17.8184403"><ele>104.0</ele><time>2026-04-28T16:24:13.268Z</time></trkpt><trkpt lat="43.3372837" lon="17.8184316"><ele>104.0</ele><time>2026-04-28T16:24:14.266Z</time></trkpt><trkpt lat="43.3373744" lon="17.8184187"><ele>103.4</ele><time>2026-04-28T16:24:15.267Z</time></trkpt><trkpt lat="43.3374621" lon="17.8183865"><ele>102.80000000000001</ele><time>2026-04-28T16:24:16.266Z</time></trkpt><trkpt lat="43.3375574" lon="17.8183495"><ele>102.19999999999999</ele><time>2026-04-28T16:24:17.265Z</time></trkpt><trkpt lat="43.3376484" lon="17.8183125"><ele>101.6</ele><time>2026-04-28T16:24:18.265Z</time></trkpt><trkpt lat="43.3377435" lon="17.8182681"><ele>101.0</ele><time>2026-04-28T16:24:19.266Z</time></trkpt><trkpt lat="43.3378415" lon="17.8182281"><ele>100.99999999999999</ele><time>2026-04-28T16:24:20.265Z</time></trkpt><trkpt lat="43.3379321" lon="17.8181953"><ele>101.0</ele><time>2026-04-28T16:24:21.269Z</time></trkpt><trkpt lat="43.338014" lon="17.8181648"><ele>101.0</ele><time>2026-04-28T16:24:22.266Z</time></trkpt><trkpt lat="43.3380895" lon="17.8181366"><ele>101.0</ele><time>2026-04-28T16:24:23.269Z</time></trkpt><trkpt lat="43.3381657" lon="17.8181136"><ele>100.99999999999999</ele><time>2026-04-28T16:24:24.266Z</time></trkpt><trkpt lat="43.3382376" lon="17.8180951"><ele>101.0</ele><time>2026-04-28T16:24:25.267Z</time></trkpt><trkpt lat="43.3383376" lon="17.8180975"><ele>101.0</ele><time>2026-04-28T16:24:27.266Z</time></trkpt><trkpt lat="43.3384495" lon="17.8181361"><ele>101.0</ele><time>2026-04-28T16:24:29.266Z</time></trkpt><trkpt lat="43.3385412" lon="17.8182011"><ele>101.0</ele><time>2026-04-28T16:24:31.266Z</time></trkpt><trkpt lat="43.3386385" lon="17.8181985"><ele>101.0</ele><time>2026-04-28T16:24:33.266Z</time></trkpt><trkpt lat="43.3386782" lon="17.8181136"><ele>101.0</ele><time>2026-04-28T16:24:35.266Z</time></trkpt><trkpt lat="43.3386421" lon="17.8180034"><ele>101.0</ele><time>2026-04-28T16:24:37.264Z</time></trkpt><trkpt lat="43.338579" lon="17.8178966"><ele>101.0</ele><time>2026-04-28T16:24:39.266Z</time></trkpt><trkpt lat="43.3384848" lon="17.817802"><ele>101.0</ele><time>2026-04-28T16:24:41.265Z</time></trkpt><trkpt lat="43.3384224" lon="17.817654"><ele>101.0</ele><time>2026-04-28T16:24:43.267Z</time></trkpt><trkpt lat="43.3384013" lon="17.8175651"><ele>101.0</ele><time>2026-04-28T16:24:44.265Z</time></trkpt><trkpt lat="43.3383815" lon="17.8174772"><ele>98.8</ele><time>2026-04-28T16:24:45.264Z</time></trkpt><trkpt lat="43.3383427" lon="17.8173199"><ele>96.6</ele><time>2026-04-28T16:24:47.266Z</time></trkpt><trkpt lat="43.3383197" lon="17.8171805"><ele>94.4</ele><time>2026-04-28T16:24:49.267Z</time></trkpt><trkpt lat="43.3383159" lon="17.8170618"><ele>92.2</ele><time>2026-04-28T16:24:51.265Z</time></trkpt><trkpt lat="43.3383469" lon="17.8169846"><ele>90.0</ele><time>2026-04-28T16:24:53.263Z</time></trkpt><trkpt lat="43.3384205" lon="17.8169556"><ele>90.0</ele><time>2026-04-28T16:24:55.266Z</time></trkpt><trkpt lat="43.33852" lon="17.8169391"><ele>90.0</ele><time>2026-04-28T16:24:57.266Z</time></trkpt><trkpt lat="43.3386253" lon="17.8169358"><ele>90.0</ele><time>2026-04-28T16:24:59.266Z</time></trkpt><trkpt lat="43.3387404" lon="17.8169285"><ele>90.0</ele><time>2026-04-28T16:25:01.268Z</time></trkpt><trkpt lat="43.3388421" lon="17.8169156"><ele>90.0</ele><time>2026-04-28T16:25:03.265Z</time></trkpt><trkpt lat="43.3389307" lon="17.8169366"><ele>89.83333333333333</ele><time>2026-04-28T16:25:05.266Z</time></trkpt><trkpt lat="43.3390132" lon="17.8169746"><ele>89.66666666666667</ele><time>2026-04-28T16:25:20.264Z</time></trkpt><trkpt lat="43.3390905" lon="17.8169874"><ele>89.5</ele><time>2026-04-28T16:25:22.267Z</time></trkpt><trkpt lat="43.3391647" lon="17.8170018"><ele>89.33333333333334</ele><time>2026-04-28T16:25:23.265Z</time></trkpt><trkpt lat="43.339248" lon="17.8170062"><ele>89.16666666666667</ele><time>2026-04-28T16:25:24.267Z</time></trkpt><trkpt lat="43.3393169" lon="17.8170016"><ele>89.0</ele><time>2026-04-28T16:25:25.265Z</time></trkpt><trkpt lat="43.3394446" lon="17.8169973"><ele>89.0</ele><time>2026-04-28T16:25:27.266Z</time></trkpt><trkpt lat="43.3395629" lon="17.8170106"><ele>89.0</ele><time>2026-04-28T16:25:29.266Z</time></trkpt><trkpt lat="43.3396275" lon="17.8170017"><ele>89.0</ele><time>2026-04-28T16:25:30.267Z</time></trkpt><trkpt lat="43.3397435" lon="17.8170023"><ele>89.0</ele><time>2026-04-28T16:25:32.268Z</time></trkpt><trkpt lat="43.3398173" lon="17.817007"><ele>89.0</ele><time>2026-04-28T16:25:33.266Z</time></trkpt><trkpt lat="43.3398854" lon="17.8170168"><ele>89.0</ele><time>2026-04-28T16:25:34.269Z</time></trkpt><trkpt lat="43.3399518" lon="17.8170179"><ele>88.33333333333334</ele><time>2026-04-28T16:25:35.267Z</time></trkpt><trkpt lat="43.3400149" lon="17.8170135"><ele>87.66666666666667</ele><time>2026-04-28T16:25:36.265Z</time></trkpt><trkpt lat="43.3401193" lon="17.8170115"><ele>87.0</ele><time>2026-04-28T16:25:38.267Z</time></trkpt><trkpt lat="43.3402165" lon="17.8169844"><ele>86.33333333333333</ele><time>2026-04-28T16:25:40.268Z</time></trkpt><trkpt lat="43.3403084" lon="17.8169294"><ele>85.66666666666666</ele><time>2026-04-28T16:25:42.267Z</time></trkpt><trkpt lat="43.3403739" lon="17.8168673"><ele>85.0</ele><time>2026-04-28T16:25:44.266Z</time></trkpt><trkpt lat="43.3404138" lon="17.8167529"><ele>83.66666666666666</ele><time>2026-04-28T16:25:47.263Z</time></trkpt><trkpt lat="43.3403595" lon="17.8166851"><ele>82.33333333333333</ele><time>2026-04-28T16:25:50.265Z</time></trkpt><trkpt lat="43.3402755" lon="17.8166475"><ele>81.0</ele><time>2026-04-28T16:25:52.268Z</time></trkpt><trkpt lat="43.3402039" lon="17.8166186"><ele>79.66666666666667</ele><time>2026-04-28T16:25:54.264Z</time></trkpt><trkpt lat="43.3401268" lon="17.816589"><ele>78.33333333333334</ele><time>2026-04-28T16:25:57.266Z</time></trkpt><trkpt lat="43.3401077" lon="17.8165016"><ele>77.0</ele><time>2026-04-28T16:26:00.267Z</time></trkpt><trkpt lat="43.340119" lon="17.8163674"><ele>77.0</ele><time>2026-04-28T16:26:03.264Z</time></trkpt><trkpt lat="43.3401551" lon="17.8162357"><ele>77.0</ele><time>2026-04-28T16:26:05.266Z</time></trkpt><trkpt lat="43.3401869" lon="17.8160765"><ele>77.0</ele><time>2026-04-28T16:26:07.266Z</time></trkpt><trkpt lat="43.3402045" lon="17.8159848"><ele>77.0</ele><time>2026-04-28T16:26:09.267Z</time></trkpt><trkpt lat="43.3402349" lon="17.8158566"><ele>77.0</ele><time>2026-04-28T16:26:11.263Z</time></trkpt><trkpt lat="43.3402652" lon="17.8157274"><ele>75.5</ele><time>2026-04-28T16:26:13.266Z</time></trkpt><trkpt lat="43.3403156" lon="17.8156232"><ele>74.0</ele><time>2026-04-28T16:26:15.266Z</time></trkpt><trkpt lat="43.3403303" lon="17.8155231"><ele>72.5</ele><time>2026-04-28T16:26:17.265Z</time></trkpt><trkpt lat="43.3403398" lon="17.8154228"><ele>71.0</ele><time>2026-04-28T16:26:19.265Z</time></trkpt><trkpt lat="43.3403188" lon="17.8153357"><ele>69.5</ele><time>2026-04-28T16:26:21.266Z</time></trkpt><trkpt lat="43.3403254" lon="17.8152107"><ele>68.0</ele><time>2026-04-28T16:26:24.264Z</time></trkpt><trkpt lat="43.340314" lon="17.8151118"><ele>67.66666666666667</ele><time>2026-04-28T16:26:31.265Z</time></trkpt><trkpt lat="43.3403673" lon="17.81502"><ele>67.33333333333334</ele><time>2026-04-28T16:26:44.266Z</time></trkpt><trkpt lat="43.3404264" lon="17.8149834"><ele>67.0</ele><time>2026-04-28T16:26:46.267Z</time></trkpt><trkpt lat="43.3405381" lon="17.8149675"><ele>66.66666666666667</ele><time>2026-04-28T16:26:48.267Z</time></trkpt><trkpt lat="43.3406107" lon="17.8149358"><ele>66.33333333333333</ele><time>2026-04-28T16:26:49.265Z</time></trkpt><trkpt lat="43.340676" lon="17.8149138"><ele>66.0</ele><time>2026-04-28T16:26:50.265Z</time></trkpt><trkpt lat="43.3407458" lon="17.8148797"><ele>66.0</ele><time>2026-04-28T16:26:51.264Z</time></trkpt><trkpt lat="43.3408239" lon="17.8148485"><ele>66.0</ele><time>2026-04-28T16:26:52.264Z</time></trkpt><trkpt lat="43.3408998" lon="17.8148195"><ele>66.0</ele><time>2026-04-28T16:26:53.264Z</time></trkpt><trkpt lat="43.3409796" lon="17.8148001"><ele>66.0</ele><time>2026-04-28T16:26:54.265Z</time></trkpt><trkpt lat="43.3410557" lon="17.8147657"><ele>66.0</ele><time>2026-04-28T16:26:55.264Z</time></trkpt><trkpt lat="43.3411363" lon="17.8147438"><ele>66.0</ele><time>2026-04-28T16:26:56.266Z</time></trkpt><trkpt lat="43.3412073" lon="17.8147123"><ele>66.0</ele><time>2026-04-28T16:26:57.267Z</time></trkpt><trkpt lat="43.3413349" lon="17.8146774"><ele>66.0</ele><time>2026-04-28T16:26:59.267Z</time></trkpt><trkpt lat="43.3414307" lon="17.8146535"><ele>66.0</ele><time>2026-04-28T16:27:01.266Z</time></trkpt><trkpt lat="43.341476" lon="17.8147324"><ele>66.0</ele><time>2026-04-28T16:27:03.263Z</time></trkpt><trkpt lat="43.3415018" lon="17.8148715"><ele>66.0</ele><time>2026-04-28T16:27:05.266Z</time></trkpt><trkpt lat="43.3415171" lon="17.8149569"><ele>66.0</ele><time>2026-04-28T16:27:06.267Z</time></trkpt><trkpt lat="43.3415397" lon="17.8150519"><ele>66.0</ele><time>2026-04-28T16:27:07.267Z</time></trkpt><trkpt lat="43.3415566" lon="17.8151625"><ele>66.0</ele><time>2026-04-28T16:27:08.265Z</time></trkpt><trkpt lat="43.3415695" lon="17.8152501"><ele>66.0</ele><time>2026-04-28T16:27:09.265Z</time></trkpt><trkpt lat="43.341576" lon="17.8153363"><ele>66.0</ele><time>2026-04-28T16:27:10.271Z</time></trkpt><trkpt lat="43.3415951" lon="17.8154993"><ele>66.0</ele><time>2026-04-28T16:27:12.267Z</time></trkpt><trkpt lat="43.3415944" lon="17.8155884"><ele>66.8</ele><time>2026-04-28T16:27:13.266Z</time></trkpt><trkpt lat="43.3416015" lon="17.8157236"><ele>67.6</ele><time>2026-04-28T16:27:15.266Z</time></trkpt><trkpt lat="43.3416084" lon="17.8158229"><ele>68.4</ele><time>2026-04-28T16:27:18.264Z</time></trkpt><trkpt lat="43.3416185" lon="17.8159713"><ele>69.2</ele><time>2026-04-28T16:27:26.266Z</time></trkpt><trkpt lat="43.3416154" lon="17.8161091"><ele>70.0</ele><time>2026-04-28T16:27:28.27Z</time></trkpt><trkpt lat="43.34163" lon="17.8162773"><ele>70.66666666666666</ele><time>2026-04-28T16:27:30.265Z</time></trkpt><trkpt lat="43.3416388" lon="17.8164173"><ele>71.33333333333333</ele><time>2026-04-28T16:27:32.266Z</time></trkpt><trkpt lat="43.3416425" lon="17.8165047"><ele>72.0</ele><time>2026-04-28T16:27:38.264Z</time></trkpt><trkpt lat="43.3415798" lon="17.8165777"><ele>72.66666666666667</ele><time>2026-04-28T16:27:41.263Z</time></trkpt><trkpt lat="43.3415133" lon="17.8165554"><ele>73.33333333333334</ele><time>2026-04-28T16:27:42.265Z</time></trkpt><trkpt lat="43.3413918" lon="17.816571"><ele>74.0</ele><time>2026-04-28T16:27:44.266Z</time></trkpt><trkpt lat="43.3412757" lon="17.8165793"><ele>74.0</ele><time>2026-04-28T16:27:46.266Z</time></trkpt><trkpt lat="43.3411642" lon="17.816598"><ele>74.0</ele><time>2026-04-28T16:27:48.266Z</time></trkpt><trkpt lat="43.3410535" lon="17.8166286"><ele>74.0</ele><time>2026-04-28T16:27:50.267Z</time></trkpt><trkpt lat="43.3409843" lon="17.8166363"><ele>74.0</ele><time>2026-04-28T16:27:51.266Z</time></trkpt><trkpt lat="43.3408632" lon="17.8166299"><ele>74.0</ele><time>2026-04-28T16:27:53.265Z</time></trkpt><trkpt lat="43.3407505" lon="17.8166409"><ele>74.0</ele><time>2026-04-28T16:27:55.268Z</time></trkpt><trkpt lat="43.3406293" lon="17.8166462"><ele>74.0</ele><time>2026-04-28T16:27:57.264Z</time></trkpt><trkpt lat="43.3405654" lon="17.816644"><ele>74.0</ele><time>2026-04-28T16:27:58.265Z</time></trkpt><trkpt lat="43.3404784" lon="17.8166343"><ele>74.0</ele><time>2026-04-28T16:28:00.264Z</time></trkpt><trkpt lat="43.3404015" lon="17.8166089"><ele>74.0</ele><time>2026-04-28T16:28:03.265Z</time></trkpt><trkpt lat="43.3403171" lon="17.8166663"><ele>74.0</ele><time>2026-04-28T16:29:18.268Z</time></trkpt><trkpt lat="43.3402107" lon="17.8166254"><ele>74.5</ele><time>2026-04-28T16:29:20.268Z</time></trkpt><trkpt lat="43.3401368" lon="17.816603"><ele>75.0</ele><time>2026-04-28T16:29:22.263Z</time></trkpt><trkpt lat="43.3401027" lon="17.8165053"><ele>75.5</ele><time>2026-04-28T16:29:27.267Z</time></trkpt><trkpt lat="43.340118" lon="17.816398"><ele>76.0</ele><time>2026-04-28T16:29:29.263Z</time></trkpt><trkpt lat="43.3401387" lon="17.8163005"><ele>76.5</ele><time>2026-04-28T16:29:31.266Z</time></trkpt><trkpt lat="43.3401735" lon="17.8161784"><ele>77.0</ele><time>2026-04-28T16:29:34.264Z</time></trkpt><trkpt lat="43.3402114" lon="17.8160681"><ele>75.5</ele><time>2026-04-28T16:29:37.264Z</time></trkpt><trkpt lat="43.3402333" lon="17.8159665"><ele>74.0</ele><time>2026-04-28T16:29:40.265Z</time></trkpt><trkpt lat="43.3402678" lon="17.8158883"><ele>72.5</ele><time>2026-04-28T16:29:44.266Z</time></trkpt><trkpt lat="43.3402973" lon="17.8157873"><ele>71.0</ele><time>2026-04-28T16:29:48.265Z</time></trkpt><trkpt lat="43.34032" lon="17.8156658"><ele>69.5</ele><time>2026-04-28T16:29:51.265Z</time></trkpt><trkpt lat="43.340329" lon="17.8155447"><ele>68.0</ele><time>2026-04-28T16:29:54.267Z</time></trkpt><trkpt lat="43.3403224" lon="17.8154151"><ele>68.0</ele><time>2026-04-28T16:29:57.265Z</time></trkpt><trkpt lat="43.3403138" lon="17.8153124"><ele>68.0</ele><time>2026-04-28T16:29:59.265Z</time></trkpt><trkpt lat="43.3403029" lon="17.8151909"><ele>68.0</ele><time>2026-04-28T16:30:02.265Z</time></trkpt><trkpt lat="43.3403129" lon="17.8151016"><ele>68.0</ele><time>2026-04-28T16:30:06.265Z</time></trkpt><trkpt lat="43.3403903" lon="17.8150604"><ele>68.0</ele><time>2026-04-28T16:30:09.265Z</time></trkpt><trkpt lat="43.3404829" lon="17.8150023"><ele>68.0</ele><time>2026-04-28T16:30:11.266Z</time></trkpt><trkpt lat="43.3405885" lon="17.814969"><ele>67.6</ele><time>2026-04-28T16:30:13.265Z</time></trkpt><trkpt lat="43.340691" lon="17.814923"><ele>67.19999999999999</ele><time>2026-04-28T16:30:15.265Z</time></trkpt><trkpt lat="43.340796" lon="17.8148757"><ele>66.8</ele><time>2026-04-28T16:30:17.267Z</time></trkpt><trkpt lat="43.3409088" lon="17.8148426"><ele>66.39999999999999</ele><time>2026-04-28T16:30:19.268Z</time></trkpt><trkpt lat="43.3410201" lon="17.8148139"><ele>66.0</ele><time>2026-04-28T16:30:21.268Z</time></trkpt><trkpt lat="43.3410807" lon="17.81478"><ele>66.0</ele><time>2026-04-28T16:30:22.265Z</time></trkpt><trkpt lat="43.341191" lon="17.8147459"><ele>66.0</ele><time>2026-04-28T16:30:24.269Z</time></trkpt><trkpt lat="43.3412941" lon="17.8147044"><ele>66.0</ele><time>2026-04-28T16:30:26.266Z</time></trkpt><trkpt lat="43.3414007" lon="17.8146574"><ele>66.0</ele><time>2026-04-28T16:30:28.265Z</time></trkpt><trkpt lat="43.3414681" lon="17.814656"><ele>66.0</ele><time>2026-04-28T16:30:29.265Z</time></trkpt><trkpt lat="43.3415299" lon="17.814636"><ele>66.0</ele><time>2026-04-28T16:30:30.266Z</time></trkpt><trkpt lat="43.341647" lon="17.8146042"><ele>66.0</ele><time>2026-04-28T16:30:32.269Z</time></trkpt><trkpt lat="43.34177" lon="17.8145706"><ele>66.0</ele><time>2026-04-28T16:30:34.267Z</time></trkpt><trkpt lat="43.34184" lon="17.8145534"><ele>66.0</ele><time>2026-04-28T16:30:35.268Z</time></trkpt><trkpt lat="43.3419045" lon="17.8145273"><ele>66.0</ele><time>2026-04-28T16:30:36.265Z</time></trkpt><trkpt lat="43.3420279" lon="17.8144918"><ele>66.0</ele><time>2026-04-28T16:30:38.269Z</time></trkpt><trkpt lat="43.3420933" lon="17.8144785"><ele>66.0</ele><time>2026-04-28T16:30:39.265Z</time></trkpt><trkpt lat="43.3422127" lon="17.8144487"><ele>66.0</ele><time>2026-04-28T16:30:41.275Z</time></trkpt><trkpt lat="43.3422763" lon="17.8144016"><ele>66.0</ele><time>2026-04-28T16:30:42.265Z</time></trkpt><trkpt lat="43.3423948" lon="17.8143539"><ele>66.0</ele><time>2026-04-28T16:30:44.266Z</time></trkpt><trkpt lat="43.3425068" lon="17.8143061"><ele>66.2</ele><time>2026-04-28T16:30:46.267Z</time></trkpt><trkpt lat="43.3426241" lon="17.8142632"><ele>66.39999999999999</ele><time>2026-04-28T16:30:48.266Z</time></trkpt><trkpt lat="43.3427262" lon="17.8142222"><ele>66.6</ele><time>2026-04-28T16:30:50.263Z</time></trkpt><trkpt lat="43.3428268" lon="17.8141694"><ele>66.8</ele><time>2026-04-28T16:30:52.264Z</time></trkpt><trkpt lat="43.3429277" lon="17.8141153"><ele>67.0</ele><time>2026-04-28T16:30:54.267Z</time></trkpt><trkpt lat="43.34303" lon="17.8140654"><ele>66.83333333333333</ele><time>2026-04-28T16:30:56.265Z</time></trkpt><trkpt lat="43.3431216" lon="17.8140171"><ele>66.66666666666666</ele><time>2026-04-28T16:30:58.267Z</time></trkpt><trkpt lat="43.3431937" lon="17.814003"><ele>66.5</ele><time>2026-04-28T16:31:01.262Z</time></trkpt><trkpt lat="43.3432729" lon="17.8139778"><ele>66.33333333333333</ele><time>2026-04-28T16:36:29.264Z</time></trkpt><trkpt lat="43.3433407" lon="17.8139703"><ele>66.16666666666667</ele><time>2026-04-28T16:36:30.264Z</time></trkpt><trkpt lat="43.3434187" lon="17.8139376"><ele>66.0</ele><time>2026-04-28T16:36:31.266Z</time></trkpt><trkpt lat="43.3434997" lon="17.813904"><ele>66.0</ele><time>2026-04-28T16:36:32.265Z</time></trkpt><trkpt lat="43.3435955" lon="17.8138829"><ele>66.0</ele><time>2026-04-28T16:36:33.264Z</time></trkpt><trkpt lat="43.3436899" lon="17.813851"><ele>66.0</ele><time>2026-04-28T16:36:34.266Z</time></trkpt><trkpt lat="43.3437814" lon="17.81383"><ele>66.0</ele><time>2026-04-28T16:36:35.265Z</time></trkpt><trkpt lat="43.3438717" lon="17.813802"><ele>66.0</ele><time>2026-04-28T16:36:36.265Z</time></trkpt><trkpt lat="43.3439491" lon="17.8137751"><ele>66.16666666666667</ele><time>2026-04-28T16:36:37.27Z</time></trkpt><trkpt lat="43.3440171" lon="17.8137454"><ele>66.33333333333333</ele><time>2026-04-28T16:36:38.264Z</time></trkpt><trkpt lat="43.3441337" lon="17.8136937"><ele>66.5</ele><time>2026-04-28T16:36:40.266Z</time></trkpt><trkpt lat="43.3442098" lon="17.8136648"><ele>66.66666666666666</ele><time>2026-04-28T16:36:42.264Z</time></trkpt><trkpt lat="43.3442937" lon="17.81365"><ele>66.83333333333333</ele><time>2026-04-28T16:37:11.266Z</time></trkpt><trkpt lat="43.3443628" lon="17.8135778"><ele>67.0</ele><time>2026-04-28T16:37:13.264Z</time></trkpt><trkpt lat="43.3443843" lon="17.8134278"><ele>66.66666666666666</ele><time>2026-04-28T16:37:15.264Z</time></trkpt><trkpt lat="43.3443902" lon="17.8133416"><ele>66.33333333333333</ele><time>2026-04-28T16:37:16.265Z</time></trkpt><trkpt lat="43.3443857" lon="17.8132428"><ele>66.0</ele><time>2026-04-28T16:37:17.265Z</time></trkpt><trkpt lat="43.3443839" lon="17.8130817"><ele>65.66666666666667</ele><time>2026-04-28T16:37:19.266Z</time></trkpt><trkpt lat="43.3443778" lon="17.8129084"><ele>65.33333333333334</ele><time>2026-04-28T16:37:21.279Z</time></trkpt><trkpt lat="43.3443657" lon="17.8128186"><ele>65.0</ele><time>2026-04-28T16:37:22.264Z</time></trkpt><trkpt lat="43.3443643" lon="17.812727"><ele>64.4</ele><time>2026-04-28T16:37:23.265Z</time></trkpt><trkpt lat="43.3443517" lon="17.812564"><ele>63.8</ele><time>2026-04-28T16:37:25.264Z</time></trkpt><trkpt lat="43.344345" lon="17.8124284"><ele>63.2</ele><time>2026-04-28T16:37:27.266Z</time></trkpt><trkpt lat="43.3442881" lon="17.8123457"><ele>62.6</ele><time>2026-04-28T16:37:30.266Z</time></trkpt><trkpt lat="43.3442243" lon="17.8123386"><ele>62.0</ele><time>2026-04-28T16:38:07.265Z</time></trkpt><trkpt lat="43.3441243" lon="17.8123382"><ele>62.0</ele><time>2026-04-28T16:38:10.265Z</time></trkpt><trkpt lat="43.3440556" lon="17.8123269"><ele>62.00000000000001</ele><time>2026-04-28T16:38:12.266Z</time></trkpt><trkpt lat="43.3439788" lon="17.8123177"><ele>62.0</ele><time>2026-04-28T16:38:14.265Z</time></trkpt><trkpt lat="43.3439037" lon="17.8123272"><ele>62.0</ele><time>2026-04-28T16:38:16.264Z</time></trkpt><trkpt lat="43.3438379" lon="17.8123464"><ele>62.00000000000001</ele><time>2026-04-28T16:38:18.264Z</time></trkpt><trkpt lat="43.3437719" lon="17.8123586"><ele>62.0</ele><time>2026-04-28T16:38:20.264Z</time></trkpt><trkpt lat="43.3436935" lon="17.8123881"><ele>62.0</ele><time>2026-04-28T16:38:23.264Z</time></trkpt><trkpt lat="43.3436008" lon="17.8124037"><ele>62.0</ele><time>2026-04-28T16:38:26.262Z</time></trkpt><trkpt lat="43.3435248" lon="17.8124135"><ele>62.00000000000001</ele><time>2026-04-28T16:38:29.265Z</time></trkpt><trkpt lat="43.3434608" lon="17.8124379"><ele>62.0</ele><time>2026-04-28T16:38:34.261Z</time></trkpt><trkpt lat="43.3433928" lon="17.8124878"><ele>62.0</ele><time>2026-04-28T16:38:52.266Z</time></trkpt><trkpt lat="43.3433274" lon="17.8124736"><ele>62.00000000000001</ele><time>2026-04-28T16:38:55.264Z</time></trkpt><trkpt lat="43.3432947" lon="17.8123686"><ele>62.0</ele><time>2026-04-28T16:38:58.264Z</time></trkpt><trkpt lat="43.343287" lon="17.8122795"><ele>62.0</ele><time>2026-04-28T16:39:03.265Z</time></trkpt><trkpt lat="43.3433729" lon="17.8122397"><ele>62.0</ele><time>2026-04-28T16:39:09.266Z</time></trkpt><trkpt lat="43.3434496" lon="17.8122013"><ele>62.0</ele><time>2026-04-28T16:39:11.264Z</time></trkpt><trkpt lat="43.3435218" lon="17.812173"><ele>62.0</ele><time>2026-04-28T16:39:13.264Z</time></trkpt><trkpt lat="43.3436198" lon="17.8121412"><ele>62.0</ele><time>2026-04-28T16:39:15.262Z</time></trkpt><trkpt lat="43.3437539" lon="17.8120634"><ele>62.0</ele><time>2026-04-28T16:39:18.263Z</time></trkpt><trkpt lat="43.3438311" lon="17.8120532"><ele>62.0</ele><time>2026-04-28T16:39:20.265Z</time></trkpt><trkpt lat="43.3438971" lon="17.8120424"><ele>62.00000000000001</ele><time>2026-04-28T16:39:22.264Z</time></trkpt><trkpt lat="43.3439724" lon="17.8120184"><ele>62.0</ele><time>2026-04-28T16:39:24.279Z</time></trkpt><trkpt lat="43.3440483" lon="17.8119984"><ele>62.0</ele><time>2026-04-28T16:39:26.265Z</time></trkpt><trkpt lat="43.344128" lon="17.8119624"><ele>62.00000000000001</ele><time>2026-04-28T16:39:29.264Z</time></trkpt><trkpt lat="43.3441942" lon="17.8119366"><ele>62.0</ele><time>2026-04-28T16:39:31.264Z</time></trkpt><trkpt lat="43.3442483" lon="17.8118686"><ele>62.0</ele><time>2026-04-28T16:39:44.263Z</time></trkpt><trkpt lat="43.344254" lon="17.8117159"><ele>62.00000000000001</ele><time>2026-04-28T16:39:59.264Z</time></trkpt><trkpt lat="43.3442151" lon="17.8115458"><ele>62.0</ele><time>2026-04-28T16:40:01.262Z</time></trkpt><trkpt lat="43.3441881" lon="17.811467"><ele>62.0</ele><time>2026-04-28T16:40:02.265Z</time></trkpt><trkpt lat="43.3441645" lon="17.8113848"><ele>62.0</ele><time>2026-04-28T16:40:03.265Z</time></trkpt><trkpt lat="43.344136" lon="17.8112954"><ele>62.00000000000001</ele><time>2026-04-28T16:40:04.264Z</time></trkpt><trkpt lat="43.3441103" lon="17.8112005"><ele>62.0</ele><time>2026-04-28T16:40:05.263Z</time></trkpt><trkpt lat="43.344088" lon="17.8111068"><ele>62.0</ele><time>2026-04-28T16:40:06.264Z</time></trkpt><trkpt lat="43.3440694" lon="17.8110169"><ele>62.00000000000001</ele><time>2026-04-28T16:40:07.264Z</time></trkpt><trkpt lat="43.3440582" lon="17.8109102"><ele>62.0</ele><time>2026-04-28T16:40:08.265Z</time></trkpt><trkpt lat="43.344043" lon="17.8108086"><ele>62.0</ele><time>2026-04-28T16:40:09.264Z</time></trkpt><trkpt lat="43.344032" lon="17.8107068"><ele>62.00000000000001</ele><time>2026-04-28T16:40:10.263Z</time></trkpt><trkpt lat="43.3440217" lon="17.8106122"><ele>62.0</ele><time>2026-04-28T16:40:11.264Z</time></trkpt><trkpt lat="43.3440101" lon="17.8105135"><ele>62.0</ele><time>2026-04-28T16:40:12.262Z</time></trkpt><trkpt lat="43.3439991" lon="17.8104167"><ele>61.57142857142858</ele><time>2026-04-28T16:40:13.265Z</time></trkpt><trkpt lat="43.3439873" lon="17.8103198"><ele>61.14285714285715</ele><time>2026-04-28T16:40:14.265Z</time></trkpt><trkpt lat="43.3439754" lon="17.8102175"><ele>60.714285714285715</ele><time>2026-04-28T16:40:15.264Z</time></trkpt><trkpt lat="43.3439589" lon="17.8101116"><ele>60.28571428571429</ele><time>2026-04-28T16:40:16.263Z</time></trkpt><trkpt lat="43.3439453" lon="17.8100073"><ele>59.85714285714286</ele><time>2026-04-28T16:40:17.263Z</time></trkpt><trkpt lat="43.3439319" lon="17.8099108"><ele>59.42857142857143</ele><time>2026-04-28T16:40:18.264Z</time></trkpt><trkpt lat="43.3439168" lon="17.8098234"><ele>59.0</ele><time>2026-04-28T16:40:19.264Z</time></trkpt><trkpt lat="43.3439022" lon="17.809697"><ele>58.66666666666667</ele><time>2026-04-28T16:40:21.264Z</time></trkpt><trkpt lat="43.3438855" lon="17.809583"><ele>58.333333333333336</ele><time>2026-04-28T16:40:23.261Z</time></trkpt><trkpt lat="43.3438824" lon="17.8094457"><ele>58.0</ele><time>2026-04-28T16:40:25.264Z</time></trkpt><trkpt lat="43.343876" lon="17.8093413"><ele>57.66666666666667</ele><time>2026-04-28T16:40:28.261Z</time></trkpt><trkpt lat="43.3438649" lon="17.8092291"><ele>57.333333333333336</ele><time>2026-04-28T16:40:31.264Z</time></trkpt><trkpt lat="43.343844" lon="17.809128"><ele>57.0</ele><time>2026-04-28T16:40:33.267Z</time></trkpt><trkpt lat="43.3438299" lon="17.8090191"><ele>58.2</ele><time>2026-04-28T16:40:35.264Z</time></trkpt><trkpt lat="43.3438142" lon="17.8089256"><ele>59.400000000000006</ele><time>2026-04-28T16:40:37.265Z</time></trkpt><trkpt lat="43.3437864" lon="17.8088031"><ele>60.599999999999994</ele><time>2026-04-28T16:40:39.264Z</time></trkpt><trkpt lat="43.3437648" lon="17.8086709"><ele>61.8</ele><time>2026-04-28T16:40:41.266Z</time></trkpt><trkpt lat="43.3437415" lon="17.8085021"><ele>63.0</ele><time>2026-04-28T16:40:43.267Z</time></trkpt><trkpt lat="43.3437217" lon="17.8083508"><ele>63.5</ele><time>2026-04-28T16:40:45.265Z</time></trkpt><trkpt lat="43.3437096" lon="17.8082539"><ele>64.0</ele><time>2026-04-28T16:40:47.262Z</time></trkpt><trkpt lat="43.3437116" lon="17.8081484"><ele>64.5</ele><time>2026-04-28T16:40:50.263Z</time></trkpt><trkpt lat="43.3437002" lon="17.808018"><ele>65.0</ele><time>2026-04-28T16:40:58.264Z</time></trkpt><trkpt lat="43.343721" lon="17.8079101"><ele>65.5</ele><time>2026-04-28T16:41:00.263Z</time></trkpt><trkpt lat="43.3437911" lon="17.8078107"><ele>66.0</ele><time>2026-04-28T16:41:02.266Z</time></trkpt><trkpt lat="43.3438642" lon="17.8077783"><ele>65.8</ele><time>2026-04-28T16:41:03.265Z</time></trkpt><trkpt lat="43.3439543" lon="17.8077589"><ele>65.6</ele><time>2026-04-28T16:41:04.282Z</time></trkpt><trkpt lat="43.3440548" lon="17.8077518"><ele>65.4</ele><time>2026-04-28T16:41:05.263Z</time></trkpt><trkpt lat="43.3441446" lon="17.807756"><ele>65.2</ele><time>2026-04-28T16:41:06.264Z</time></trkpt><trkpt lat="43.344226" lon="17.8077631"><ele>65.0</ele><time>2026-04-28T16:41:07.265Z</time></trkpt><trkpt lat="43.3443237" lon="17.807776"><ele>65.0</ele><time>2026-04-28T16:41:09.264Z</time></trkpt><trkpt lat="43.3444112" lon="17.807709"><ele>65.0</ele><time>2026-04-28T16:44:39.263Z</time></trkpt><trkpt lat="43.3445672" lon="17.807749"><ele>65.0</ele><time>2026-04-28T16:44:41.263Z</time></trkpt><trkpt lat="43.3446578" lon="17.8077433"><ele>65.0</ele><time>2026-04-28T16:44:42.263Z</time></trkpt><trkpt lat="43.3447619" lon="17.807741"><ele>64.6</ele><time>2026-04-28T16:44:43.263Z</time></trkpt><trkpt lat="43.3448604" lon="17.8077289"><ele>64.2</ele><time>2026-04-28T16:44:44.264Z</time></trkpt><trkpt lat="43.3449593" lon="17.8077129"><ele>63.8</ele><time>2026-04-28T16:44:45.263Z</time></trkpt><trkpt lat="43.345051" lon="17.8076982"><ele>63.4</ele><time>2026-04-28T16:44:46.262Z</time></trkpt><trkpt lat="43.3451337" lon="17.8076823"><ele>63.0</ele><time>2026-04-28T16:44:47.263Z</time></trkpt><trkpt lat="43.3452117" lon="17.8076646"><ele>63.0</ele><time>2026-04-28T16:44:48.263Z</time></trkpt><trkpt lat="43.3452975" lon="17.8076432"><ele>63.0</ele><time>2026-04-28T16:44:49.262Z</time></trkpt><trkpt lat="43.3454077" lon="17.8076132"><ele>63.0</ele><time>2026-04-28T16:44:50.265Z</time></trkpt><trkpt lat="43.3455193" lon="17.8075824"><ele>63.0</ele><time>2026-04-28T16:44:51.264Z</time></trkpt><trkpt lat="43.3456458" lon="17.8075382"><ele>63.0</ele><time>2026-04-28T16:44:52.263Z</time></trkpt><trkpt lat="43.3457622" lon="17.8075018"><ele>63.75</ele><time>2026-04-28T16:44:53.263Z</time></trkpt><trkpt lat="43.3458779" lon="17.8074702"><ele>64.5</ele><time>2026-04-28T16:44:54.265Z</time></trkpt><trkpt lat="43.3459976" lon="17.8074301"><ele>65.25</ele><time>2026-04-28T16:44:55.264Z</time></trkpt><trkpt lat="43.3461116" lon="17.8073975"><ele>66.0</ele><time>2026-04-28T16:44:56.264Z</time></trkpt><trkpt lat="43.3462252" lon="17.8073639"><ele>66.0</ele><time>2026-04-28T16:44:57.263Z</time></trkpt><trkpt lat="43.346335" lon="17.8073306"><ele>66.0</ele><time>2026-04-28T16:44:58.264Z</time></trkpt><trkpt lat="43.3464445" lon="17.8072945"><ele>66.0</ele><time>2026-04-28T16:44:59.264Z</time></trkpt><trkpt lat="43.3465519" lon="17.8072661"><ele>66.0</ele><time>2026-04-28T16:45:00.263Z</time></trkpt><trkpt lat="43.3466592" lon="17.8072322"><ele>66.0</ele><time>2026-04-28T16:45:01.263Z</time></trkpt><trkpt lat="43.3467644" lon="17.8072009"><ele>66.0</ele><time>2026-04-28T16:45:02.263Z</time></trkpt><trkpt lat="43.3468676" lon="17.8071667"><ele>66.0</ele><time>2026-04-28T16:45:03.265Z</time></trkpt><trkpt lat="43.3469887" lon="17.8071546"><ele>66.0</ele><time>2026-04-28T16:45:04.263Z</time></trkpt><trkpt lat="43.3470955" lon="17.8071144"><ele>66.0</ele><time>2026-04-28T16:45:05.264Z</time></trkpt><trkpt lat="43.3472044" lon="17.8070876"><ele>66.0</ele><time>2026-04-28T16:45:06.263Z</time></trkpt><trkpt lat="43.3473116" lon="17.8070516"><ele>66.2</ele><time>2026-04-28T16:45:07.264Z</time></trkpt><trkpt lat="43.3474171" lon="17.8070212"><ele>66.39999999999999</ele><time>2026-04-28T16:45:08.263Z</time></trkpt><trkpt lat="43.3475229" lon="17.8070039"><ele>66.6</ele><time>2026-04-28T16:45:09.264Z</time></trkpt><trkpt lat="43.3476168" lon="17.8069787"><ele>66.8</ele><time>2026-04-28T16:45:10.263Z</time></trkpt><trkpt lat="43.3476965" lon="17.8069557"><ele>67.0</ele><time>2026-04-28T16:45:11.263Z</time></trkpt><trkpt lat="43.347766" lon="17.8069493"><ele>67.0</ele><time>2026-04-28T16:45:12.263Z</time></trkpt><trkpt lat="43.3478278" lon="17.8069673"><ele>67.0</ele><time>2026-04-28T16:45:13.263Z</time></trkpt><trkpt lat="43.3478927" lon="17.8070142"><ele>67.0</ele><time>2026-04-28T16:45:15.265Z</time></trkpt><trkpt lat="43.347936" lon="17.8071199"><ele>67.0</ele><time>2026-04-28T16:45:19.27Z</time></trkpt><trkpt lat="43.3479501" lon="17.8072248"><ele>67.0</ele><time>2026-04-28T16:45:20.263Z</time></trkpt><trkpt lat="43.3479513" lon="17.807405"><ele>67.0</ele><time>2026-04-28T16:45:22.264Z</time></trkpt><trkpt lat="43.347959" lon="17.8074998"><ele>67.0</ele><time>2026-04-28T16:45:23.264Z</time></trkpt><trkpt lat="43.3479708" lon="17.8075997"><ele>67.0</ele><time>2026-04-28T16:45:24.263Z</time></trkpt><trkpt lat="43.3479739" lon="17.8076907"><ele>67.0</ele><time>2026-04-28T16:45:25.265Z</time></trkpt><trkpt lat="43.3479674" lon="17.8078576"><ele>67.0</ele><time>2026-04-28T16:45:27.265Z</time></trkpt><trkpt lat="43.3479595" lon="17.8079469"><ele>67.0</ele><time>2026-04-28T16:45:28.263Z</time></trkpt><trkpt lat="43.3479964" lon="17.8081223"><ele>66.83333333333333</ele><time>2026-04-28T16:45:30.264Z</time></trkpt><trkpt lat="43.3480187" lon="17.8082321"><ele>66.66666666666666</ele><time>2026-04-28T16:45:31.263Z</time></trkpt><trkpt lat="43.3480357" lon="17.8083457"><ele>66.5</ele><time>2026-04-28T16:45:32.263Z</time></trkpt><trkpt lat="43.3480532" lon="17.8084602"><ele>66.33333333333333</ele><time>2026-04-28T16:45:33.263Z</time></trkpt><trkpt lat="43.3480646" lon="17.8085687"><ele>66.16666666666667</ele><time>2026-04-28T16:45:34.263Z</time></trkpt><trkpt lat="43.3480801" lon="17.8086824"><ele>66.0</ele><time>2026-04-28T16:45:35.264Z</time></trkpt><trkpt lat="43.3480941" lon="17.8088034"><ele>65.2</ele><time>2026-04-28T16:45:36.264Z</time></trkpt><trkpt lat="43.3481114" lon="17.8089362"><ele>64.39999999999999</ele><time>2026-04-28T16:45:37.264Z</time></trkpt><trkpt lat="43.3481277" lon="17.8090741"><ele>63.6</ele><time>2026-04-28T16:45:38.263Z</time></trkpt><trkpt lat="43.3481413" lon="17.8092141"><ele>62.8</ele><time>2026-04-28T16:45:39.263Z</time></trkpt><trkpt lat="43.3481546" lon="17.8093497"><ele>62.0</ele><time>2026-04-28T16:45:40.263Z</time></trkpt><trkpt lat="43.348169" lon="17.8094934"><ele>60.6</ele><time>2026-04-28T16:45:41.261Z</time></trkpt><trkpt lat="43.3481803" lon="17.8096304"><ele>59.2</ele><time>2026-04-28T16:45:42.263Z</time></trkpt><trkpt lat="43.3481923" lon="17.8097609"><ele>57.8</ele><time>2026-04-28T16:45:43.263Z</time></trkpt><trkpt lat="43.3482037" lon="17.8099002"><ele>56.4</ele><time>2026-04-28T16:45:44.263Z</time></trkpt><trkpt lat="43.348218" lon="17.8100576"><ele>55.0</ele><time>2026-04-28T16:45:45.263Z</time></trkpt><trkpt lat="43.3482245" lon="17.8102062"><ele>54.0</ele><time>2026-04-28T16:45:46.263Z</time></trkpt><trkpt lat="43.3482336" lon="17.8103624"><ele>53.0</ele><time>2026-04-28T16:45:47.262Z</time></trkpt><trkpt lat="43.3482421" lon="17.8105249"><ele>52.0</ele><time>2026-04-28T16:45:48.264Z</time></trkpt><trkpt lat="43.3482497" lon="17.8107008"><ele>51.0</ele><time>2026-04-28T16:45:49.263Z</time></trkpt><trkpt lat="43.3482601" lon="17.8108707"><ele>53.0</ele><time>2026-04-28T16:45:50.263Z</time></trkpt><trkpt lat="43.348273" lon="17.8110368"><ele>55.0</ele><time>2026-04-28T16:45:51.263Z</time></trkpt><trkpt lat="43.3482836" lon="17.8112048"><ele>57.0</ele><time>2026-04-28T16:45:52.263Z</time></trkpt><trkpt lat="43.3482981" lon="17.8113749"><ele>59.0</ele><time>2026-04-28T16:45:53.263Z</time></trkpt><trkpt lat="43.3483064" lon="17.8115402"><ele>59.00000000000001</ele><time>2026-04-28T16:45:54.263Z</time></trkpt><trkpt lat="43.3483186" lon="17.8116932"><ele>59.0</ele><time>2026-04-28T16:45:55.264Z</time></trkpt><trkpt lat="43.3483292" lon="17.8118179"><ele>59.0</ele><time>2026-04-28T16:45:56.264Z</time></trkpt><trkpt lat="43.3483352" lon="17.8119208"><ele>59.0</ele><time>2026-04-28T16:45:57.265Z</time></trkpt><trkpt lat="43.3483423" lon="17.8120191"><ele>59.00000000000001</ele><time>2026-04-28T16:45:58.265Z</time></trkpt><trkpt lat="43.3483484" lon="17.8121119"><ele>59.0</ele><time>2026-04-28T16:45:59.264Z</time></trkpt><trkpt lat="43.3483535" lon="17.8122155"><ele>59.833333333333336</ele><time>2026-04-28T16:46:00.262Z</time></trkpt><trkpt lat="43.3483543" lon="17.8123114"><ele>60.66666666666667</ele><time>2026-04-28T16:46:01.263Z</time></trkpt><trkpt lat="43.3483722" lon="17.8124485"><ele>61.5</ele><time>2026-04-28T16:46:03.261Z</time></trkpt><trkpt lat="43.3484006" lon="17.8125484"><ele>62.33333333333333</ele><time>2026-04-28T16:46:05.262Z</time></trkpt><trkpt lat="43.3484099" lon="17.8126441"><ele>63.166666666666664</ele><time>2026-04-28T16:46:09.265Z</time></trkpt><trkpt lat="43.3483989" lon="17.8127415"><ele>64.0</ele><time>2026-04-28T16:46:13.265Z</time></trkpt><trkpt lat="43.3483984" lon="17.8128328"><ele>64.4</ele><time>2026-04-28T16:46:15.264Z</time></trkpt><trkpt lat="43.3484316" lon="17.81293"><ele>64.80000000000001</ele><time>2026-04-28T16:46:17.263Z</time></trkpt><trkpt lat="43.3485026" lon="17.812983"><ele>65.19999999999999</ele><time>2026-04-28T16:46:19.263Z</time></trkpt><trkpt lat="43.3485962" lon="17.8129163"><ele>65.6</ele><time>2026-04-28T16:46:21.264Z</time></trkpt><trkpt lat="43.3486699" lon="17.8128438"><ele>66.0</ele><time>2026-04-28T16:46:23.265Z</time></trkpt><trkpt lat="43.3487753" lon="17.8127919"><ele>66.8</ele><time>2026-04-28T16:46:25.263Z</time></trkpt><trkpt lat="43.3488905" lon="17.8127489"><ele>67.6</ele><time>2026-04-28T16:46:27.263Z</time></trkpt><trkpt lat="43.3490179" lon="17.8127166"><ele>68.4</ele><time>2026-04-28T16:46:29.263Z</time></trkpt><trkpt lat="43.3490958" lon="17.8127011"><ele>69.2</ele><time>2026-04-28T16:46:30.267Z</time></trkpt><trkpt lat="43.3491683" lon="17.8126955"><ele>70.0</ele><time>2026-04-28T16:46:31.262Z</time></trkpt><trkpt lat="43.349241" lon="17.812687"><ele>70.0</ele><time>2026-04-28T16:46:32.264Z</time></trkpt><trkpt lat="43.3493067" lon="17.8126799"><ele>70.0</ele><time>2026-04-28T16:46:33.263Z</time></trkpt><trkpt lat="43.3493744" lon="17.8126702"><ele>70.0</ele><time>2026-04-28T16:46:34.263Z</time></trkpt><trkpt lat="43.3494982" lon="17.8126543"><ele>70.0</ele><time>2026-04-28T16:46:36.264Z</time></trkpt><trkpt lat="43.3495726" lon="17.8126358"><ele>70.0</ele><time>2026-04-28T16:46:37.264Z</time></trkpt><trkpt lat="43.3496535" lon="17.812623"><ele>70.0</ele><time>2026-04-28T16:46:38.263Z</time></trkpt><trkpt lat="43.349732" lon="17.8126101"><ele>68.83333333333333</ele><time>2026-04-28T16:46:39.264Z</time></trkpt><trkpt lat="43.3498114" lon="17.8125962"><ele>67.66666666666666</ele><time>2026-04-28T16:46:40.266Z</time></trkpt><trkpt lat="43.3498932" lon="17.8125829"><ele>66.5</ele><time>2026-04-28T16:46:41.262Z</time></trkpt><trkpt lat="43.3499799" lon="17.8125708"><ele>65.33333333333333</ele><time>2026-04-28T16:46:42.264Z</time></trkpt><trkpt lat="43.3500698" lon="17.8125652"><ele>64.16666666666667</ele><time>2026-04-28T16:46:43.263Z</time></trkpt><trkpt lat="43.3501567" lon="17.8125594"><ele>63.0</ele><time>2026-04-28T16:46:44.264Z</time></trkpt><trkpt lat="43.3502508" lon="17.8125428"><ele>63.0</ele><time>2026-04-28T16:46:45.263Z</time></trkpt><trkpt lat="43.3503488" lon="17.8125192"><ele>63.0</ele><time>2026-04-28T16:46:46.263Z</time></trkpt><trkpt lat="43.3504453" lon="17.8125036"><ele>63.0</ele><time>2026-04-28T16:46:47.263Z</time></trkpt><trkpt lat="43.3505576" lon="17.8124899"><ele>63.0</ele><time>2026-04-28T16:46:48.264Z</time></trkpt><trkpt lat="43.3506552" lon="17.8124844"><ele>63.0</ele><time>2026-04-28T16:46:49.262Z</time></trkpt><trkpt lat="43.3507525" lon="17.8124729"><ele>63.599999999999994</ele><time>2026-04-28T16:46:50.262Z</time></trkpt><trkpt lat="43.3508437" lon="17.8124719"><ele>64.19999999999999</ele><time>2026-04-28T16:46:51.264Z</time></trkpt><trkpt lat="43.3509376" lon="17.8124682"><ele>64.8</ele><time>2026-04-28T16:46:52.263Z</time></trkpt><trkpt lat="43.3510245" lon="17.8124557"><ele>65.39999999999999</ele><time>2026-04-28T16:46:53.265Z</time></trkpt><trkpt lat="43.3511235" lon="17.8124449"><ele>66.0</ele><time>2026-04-28T16:46:54.263Z</time></trkpt><trkpt lat="43.3512206" lon="17.812431"><ele>66.0</ele><time>2026-04-28T16:46:55.264Z</time></trkpt><trkpt lat="43.3513112" lon="17.8124139"><ele>66.0</ele><time>2026-04-28T16:46:56.263Z</time></trkpt><trkpt lat="43.3514143" lon="17.8124027"><ele>66.0</ele><time>2026-04-28T16:46:57.264Z</time></trkpt><trkpt lat="43.351524" lon="17.8123909"><ele>66.0</ele><time>2026-04-28T16:46:58.262Z</time></trkpt><trkpt lat="43.351628" lon="17.8123781"><ele>66.0</ele><time>2026-04-28T16:46:59.263Z</time></trkpt><trkpt lat="43.3517309" lon="17.8123673"><ele>66.0</ele><time>2026-04-28T16:47:00.263Z</time></trkpt><trkpt lat="43.3518342" lon="17.8123626"><ele>66.0</ele><time>2026-04-28T16:47:01.263Z</time></trkpt><trkpt lat="43.3519339" lon="17.8123494"><ele>66.0</ele><time>2026-04-28T16:47:02.263Z</time></trkpt><trkpt lat="43.3520346" lon="17.8123321"><ele>66.0</ele><time>2026-04-28T16:47:03.265Z</time></trkpt><trkpt lat="43.3521369" lon="17.812328"><ele>66.0</ele><time>2026-04-28T16:47:04.263Z</time></trkpt><trkpt lat="43.352231" lon="17.8123145"><ele>66.8</ele><time>2026-04-28T16:47:05.263Z</time></trkpt><trkpt lat="43.352324" lon="17.8123055"><ele>67.6</ele><time>2026-04-28T16:47:06.263Z</time></trkpt><trkpt lat="43.3523994" lon="17.8122947"><ele>68.4</ele><time>2026-04-28T16:47:07.264Z</time></trkpt><trkpt lat="43.3524863" lon="17.8122972"><ele>69.2</ele><time>2026-04-28T16:47:09.264Z</time></trkpt><trkpt lat="43.3525723" lon="17.8122887"><ele>70.0</ele><time>2026-04-28T16:47:11.261Z</time></trkpt><trkpt lat="43.3526897" lon="17.8122787"><ele>70.0</ele><time>2026-04-28T16:47:13.263Z</time></trkpt><trkpt lat="43.3527634" lon="17.8122754"><ele>70.0</ele><time>2026-04-28T16:47:14.263Z</time></trkpt><trkpt lat="43.3528472" lon="17.8122719"><ele>70.0</ele><time>2026-04-28T16:47:15.265Z</time></trkpt><trkpt lat="43.3529376" lon="17.8122815"><ele>70.0</ele><time>2026-04-28T16:47:16.264Z</time></trkpt><trkpt lat="43.3530349" lon="17.8122795"><ele>70.0</ele><time>2026-04-28T16:47:17.263Z</time></trkpt><trkpt lat="43.3531379" lon="17.8122828"><ele>70.0</ele><time>2026-04-28T16:47:18.264Z</time></trkpt><trkpt lat="43.3532458" lon="17.8122885"><ele>69.4</ele><time>2026-04-28T16:47:19.262Z</time></trkpt><trkpt lat="43.3533516" lon="17.8122885"><ele>68.8</ele><time>2026-04-28T16:47:20.264Z</time></trkpt><trkpt lat="43.353462" lon="17.8122975"><ele>68.2</ele><time>2026-04-28T16:47:21.263Z</time></trkpt><trkpt lat="43.353568" lon="17.8123016"><ele>67.6</ele><time>2026-04-28T16:47:22.265Z</time></trkpt><trkpt lat="43.353679" lon="17.8123063"><ele>67.0</ele><time>2026-04-28T16:47:23.264Z</time></trkpt><trkpt lat="43.3537869" lon="17.8123161"><ele>67.5</ele><time>2026-04-28T16:47:24.264Z</time></trkpt><trkpt lat="43.3539016" lon="17.8123226"><ele>68.0</ele><time>2026-04-28T16:47:25.264Z</time></trkpt><trkpt lat="43.3540163" lon="17.8123314"><ele>68.5</ele><time>2026-04-28T16:47:26.264Z</time></trkpt><trkpt lat="43.3541334" lon="17.8123451"><ele>69.0</ele><time>2026-04-28T16:47:27.265Z</time></trkpt><trkpt lat="43.3542473" lon="17.8123611"><ele>69.0</ele><time>2026-04-28T16:47:28.265Z</time></trkpt><trkpt lat="43.3543613" lon="17.812376"><ele>69.0</ele><time>2026-04-28T16:47:29.265Z</time></trkpt><trkpt lat="43.3544764" lon="17.8123942"><ele>69.0</ele><time>2026-04-28T16:47:30.264Z</time></trkpt><trkpt lat="43.3545832" lon="17.8124107"><ele>69.0</ele><time>2026-04-28T16:47:31.263Z</time></trkpt><trkpt lat="43.3546839" lon="17.8124276"><ele>69.0</ele><time>2026-04-28T16:47:32.263Z</time></trkpt><trkpt lat="43.3547893" lon="17.8124424"><ele>68.8</ele><time>2026-04-28T16:47:33.265Z</time></trkpt><trkpt lat="43.3548921" lon="17.8124602"><ele>68.60000000000001</ele><time>2026-04-28T16:47:34.264Z</time></trkpt><trkpt lat="43.3549988" lon="17.8124778"><ele>68.4</ele><time>2026-04-28T16:47:35.264Z</time></trkpt><trkpt lat="43.3551133" lon="17.8124978"><ele>68.2</ele><time>2026-04-28T16:47:36.264Z</time></trkpt><trkpt lat="43.355217" lon="17.8125077"><ele>68.0</ele><time>2026-04-28T16:47:37.263Z</time></trkpt><trkpt lat="43.355311" lon="17.8125184"><ele>68.0</ele><time>2026-04-28T16:47:38.263Z</time></trkpt><trkpt lat="43.3553983" lon="17.8125348"><ele>68.0</ele><time>2026-04-28T16:47:39.263Z</time></trkpt><trkpt lat="43.3554782" lon="17.8125487"><ele>68.0</ele><time>2026-04-28T16:47:40.263Z</time></trkpt><trkpt lat="43.3555526" lon="17.8125688"><ele>68.0</ele><time>2026-04-28T16:47:41.264Z</time></trkpt><trkpt lat="43.3556568" lon="17.8126408"><ele>68.0</ele><time>2026-04-28T16:47:43.262Z</time></trkpt><trkpt lat="43.3557084" lon="17.8127229"><ele>68.0</ele><time>2026-04-28T16:47:45.264Z</time></trkpt><trkpt lat="43.355743" lon="17.8128597"><ele>68.33333333333334</ele><time>2026-04-28T16:47:47.262Z</time></trkpt><trkpt lat="43.3557489" lon="17.8129541"><ele>68.66666666666667</ele><time>2026-04-28T16:47:48.262Z</time></trkpt><trkpt lat="43.3557645" lon="17.8130592"><ele>69.0</ele><time>2026-04-28T16:47:49.262Z</time></trkpt><trkpt lat="43.3557632" lon="17.8131666"><ele>69.33333333333333</ele><time>2026-04-28T16:47:50.263Z</time></trkpt><trkpt lat="43.3557726" lon="17.8132571"><ele>69.66666666666666</ele><time>2026-04-28T16:47:51.262Z</time></trkpt><trkpt lat="43.355769" lon="17.813346"><ele>70.0</ele><time>2026-04-28T16:47:52.261Z</time></trkpt><trkpt lat="43.355771" lon="17.8134826"><ele>71.0</ele><time>2026-04-28T16:47:54.262Z</time></trkpt><trkpt lat="43.3557601" lon="17.8135773"><ele>72.0</ele><time>2026-04-28T16:47:56.26Z</time></trkpt><trkpt lat="43.3557151" lon="17.8136559"><ele>73.0</ele><time>2026-04-28T16:47:58.26Z</time></trkpt><trkpt lat="43.3556231" lon="17.8136746"><ele>74.0</ele><time>2026-04-28T16:48:00.262Z</time></trkpt><trkpt lat="43.3555512" lon="17.8136709"><ele>75.0</ele><time>2026-04-28T16:48:01.264Z</time></trkpt><trkpt lat="43.3554834" lon="17.8136564"><ele>76.0</ele><time>2026-04-28T16:48:02.262Z</time></trkpt><trkpt lat="43.3554138" lon="17.8136532"><ele>77.0</ele><time>2026-04-28T16:48:03.263Z</time></trkpt><trkpt lat="43.35533" lon="17.8136351"><ele>77.4</ele><time>2026-04-28T16:48:04.264Z</time></trkpt><trkpt lat="43.355244" lon="17.8136206"><ele>77.80000000000001</ele><time>2026-04-28T16:48:05.262Z</time></trkpt><trkpt lat="43.3551537" lon="17.8136089"><ele>78.2</ele><time>2026-04-28T16:48:06.262Z</time></trkpt><trkpt lat="43.355069" lon="17.8135855"><ele>78.60000000000001</ele><time>2026-04-28T16:48:07.265Z</time></trkpt><trkpt lat="43.354967" lon="17.8135953"><ele>79.0</ele><time>2026-04-28T16:48:08.263Z</time></trkpt><trkpt lat="43.3548715" lon="17.8135829"><ele>79.0</ele><time>2026-04-28T16:48:09.263Z</time></trkpt><trkpt lat="43.354777" lon="17.8135849"><ele>79.0</ele><time>2026-04-28T16:48:10.263Z</time></trkpt><trkpt lat="43.3546885" lon="17.8136008"><ele>79.0</ele><time>2026-04-28T16:48:11.263Z</time></trkpt><trkpt lat="43.3546227" lon="17.8136137"><ele>79.0</ele><time>2026-04-28T16:48:12.263Z</time></trkpt><trkpt lat="43.3545341" lon="17.8136581"><ele>79.0</ele><time>2026-04-28T16:48:14.263Z</time></trkpt><trkpt lat="43.3544711" lon="17.813711"><ele>79.0</ele><time>2026-04-28T16:48:16.262Z</time></trkpt><trkpt lat="43.3544085" lon="17.8137732"><ele>79.16666666666666</ele><time>2026-04-28T16:48:17.264Z</time></trkpt><trkpt lat="43.354337" lon="17.8138389"><ele>79.33333333333333</ele><time>2026-04-28T16:48:18.262Z</time></trkpt><trkpt lat="43.3542663" lon="17.8139021"><ele>79.5</ele><time>2026-04-28T16:48:19.264Z</time></trkpt><trkpt lat="43.3541998" lon="17.8139635"><ele>79.66666666666667</ele><time>2026-04-28T16:48:20.263Z</time></trkpt><trkpt lat="43.354135" lon="17.8140148"><ele>79.83333333333334</ele><time>2026-04-28T16:48:21.263Z</time></trkpt><trkpt lat="43.3540674" lon="17.8140636"><ele>80.0</ele><time>2026-04-28T16:48:22.261Z</time></trkpt><trkpt lat="43.3539979" lon="17.8141144"><ele>80.0</ele><time>2026-04-28T16:48:23.262Z</time></trkpt><trkpt lat="43.3539328" lon="17.8141658"><ele>80.0</ele><time>2026-04-28T16:48:24.263Z</time></trkpt><trkpt lat="43.3538584" lon="17.8142015"><ele>80.0</ele><time>2026-04-28T16:48:25.263Z</time></trkpt><trkpt lat="43.3537787" lon="17.8142219"><ele>80.0</ele><time>2026-04-28T16:48:26.263Z</time></trkpt><trkpt lat="43.3536911" lon="17.8142288"><ele>80.0</ele><time>2026-04-28T16:48:27.263Z</time></trkpt><trkpt lat="43.3535969" lon="17.8142185"><ele>80.0</ele><time>2026-04-28T16:48:28.261Z</time></trkpt><trkpt lat="43.3535006" lon="17.8142033"><ele>82.2</ele><time>2026-04-28T16:48:29.262Z</time></trkpt><trkpt lat="43.3534006" lon="17.8141835"><ele>84.4</ele><time>2026-04-28T16:48:30.263Z</time></trkpt><trkpt lat="43.3532964" lon="17.8141676"><ele>86.6</ele><time>2026-04-28T16:48:31.262Z</time></trkpt><trkpt lat="43.353192" lon="17.8141686"><ele>88.8</ele><time>2026-04-28T16:48:32.265Z</time></trkpt><trkpt lat="43.3530826" lon="17.8141739"><ele>91.0</ele><time>2026-04-28T16:48:33.264Z</time></trkpt><trkpt lat="43.35298" lon="17.814186"><ele>91.6</ele><time>2026-04-28T16:48:34.262Z</time></trkpt><trkpt lat="43.3528878" lon="17.8141947"><ele>92.19999999999999</ele><time>2026-04-28T16:48:35.263Z</time></trkpt><trkpt lat="43.3528086" lon="17.8142007"><ele>92.80000000000001</ele><time>2026-04-28T16:48:36.263Z</time></trkpt><trkpt lat="43.3527428" lon="17.814201"><ele>93.4</ele><time>2026-04-28T16:48:37.264Z</time></trkpt><trkpt lat="43.3526661" lon="17.8142156"><ele>94.0</ele><time>2026-04-28T16:48:39.263Z</time></trkpt><trkpt lat="43.35253" lon="17.814258"><ele>94.0</ele><time>2026-04-28T16:48:41.261Z</time></trkpt><trkpt lat="43.3524482" lon="17.8142849"><ele>94.0</ele><time>2026-04-28T16:48:42.262Z</time></trkpt><trkpt lat="43.3523681" lon="17.8143079"><ele>94.0</ele><time>2026-04-28T16:48:43.263Z</time></trkpt><trkpt lat="43.3522957" lon="17.81434"><ele>94.0</ele><time>2026-04-28T16:48:44.261Z</time></trkpt><trkpt lat="43.3522284" lon="17.8143655"><ele>94.0</ele><time>2026-04-28T16:48:45.263Z</time></trkpt><trkpt lat="43.3521649" lon="17.8143957"><ele>94.0</ele><time>2026-04-28T16:48:46.262Z</time></trkpt><trkpt lat="43.3520964" lon="17.8144174"><ele>94.0</ele><time>2026-04-28T16:48:47.263Z</time></trkpt><trkpt lat="43.3520268" lon="17.8144481"><ele>95.33333333333333</ele><time>2026-04-28T16:48:48.262Z</time></trkpt><trkpt lat="43.3519534" lon="17.8144743"><ele>96.66666666666666</ele><time>2026-04-28T16:48:49.263Z</time></trkpt><trkpt lat="43.3518906" lon="17.8145013"><ele>98.0</ele><time>2026-04-28T16:48:50.263Z</time></trkpt><trkpt lat="43.3518114" lon="17.8145377"><ele>99.33333333333333</ele><time>2026-04-28T16:48:52.262Z</time></trkpt><trkpt lat="43.3517531" lon="17.8145759"><ele>100.66666666666667</ele><time>2026-04-28T16:48:54.261Z</time></trkpt><trkpt lat="43.3516552" lon="17.8146668"><ele>102.0</ele><time>2026-04-28T16:48:56.262Z</time></trkpt><trkpt lat="43.3515918" lon="17.8147214"><ele>102.0</ele><time>2026-04-28T16:48:57.262Z</time></trkpt><trkpt lat="43.3515224" lon="17.8147651"><ele>102.0</ele><time>2026-04-28T16:48:58.263Z</time></trkpt><trkpt lat="43.3514506" lon="17.8147911"><ele>102.0</ele><time>2026-04-28T16:48:59.264Z</time></trkpt><trkpt lat="43.3513966" lon="17.8148512"><ele>102.0</ele><time>2026-04-28T16:49:00.264Z</time></trkpt><trkpt lat="43.3512838" lon="17.8149416"><ele>102.0</ele><time>2026-04-28T16:49:02.263Z</time></trkpt><trkpt lat="43.3511841" lon="17.8150044"><ele>101.16666666666667</ele><time>2026-04-28T16:49:04.263Z</time></trkpt><trkpt lat="43.3510632" lon="17.8150395"><ele>100.33333333333334</ele><time>2026-04-28T16:49:06.262Z</time></trkpt><trkpt lat="43.3509984" lon="17.8150613"><ele>99.5</ele><time>2026-04-28T16:49:07.264Z</time></trkpt><trkpt lat="43.3509274" lon="17.8150861"><ele>98.66666666666667</ele><time>2026-04-28T16:49:08.265Z</time></trkpt><trkpt lat="43.3508645" lon="17.815093"><ele>97.83333333333334</ele><time>2026-04-28T16:49:09.262Z</time></trkpt><trkpt lat="43.3507999" lon="17.815103"><ele>97.0</ele><time>2026-04-28T16:49:10.263Z</time></trkpt><trkpt lat="43.3507277" lon="17.8151236"><ele>97.00000000000001</ele><time>2026-04-28T16:49:11.263Z</time></trkpt><trkpt lat="43.3506615" lon="17.8151367"><ele>97.0</ele><time>2026-04-28T16:49:12.263Z</time></trkpt><trkpt lat="43.3505907" lon="17.8151695"><ele>97.0</ele><time>2026-04-28T16:49:13.264Z</time></trkpt><trkpt lat="43.3504995" lon="17.8152468"><ele>97.0</ele><time>2026-04-28T16:49:15.263Z</time></trkpt><trkpt lat="43.3504341" lon="17.8153059"><ele>97.00000000000001</ele><time>2026-04-28T16:49:17.262Z</time></trkpt><trkpt lat="43.350358" lon="17.8153215"><ele>97.0</ele><time>2026-04-28T16:49:19.263Z</time></trkpt><trkpt lat="43.3502718" lon="17.8152986"><ele>97.66666666666667</ele><time>2026-04-28T16:49:21.263Z</time></trkpt><trkpt lat="43.3502087" lon="17.8152621"><ele>98.33333333333334</ele><time>2026-04-28T16:49:22.263Z</time></trkpt><trkpt lat="43.350097" lon="17.8152148"><ele>99.0</ele><time>2026-04-28T16:49:24.261Z</time></trkpt><trkpt lat="43.3500334" lon="17.8151911"><ele>99.66666666666666</ele><time>2026-04-28T16:49:25.262Z</time></trkpt><trkpt lat="43.3499614" lon="17.8151709"><ele>100.33333333333333</ele><time>2026-04-28T16:49:26.264Z</time></trkpt><trkpt lat="43.349888" lon="17.8151591"><ele>101.0</ele><time>2026-04-28T16:49:27.261Z</time></trkpt><trkpt lat="43.3498143" lon="17.8151496"><ele>99.49999999999999</ele><time>2026-04-28T16:49:28.264Z</time></trkpt><trkpt lat="43.3497454" lon="17.8151462"><ele>98.0</ele><time>2026-04-28T16:49:29.263Z</time></trkpt><trkpt lat="43.3496117" lon="17.8151225"><ele>96.5</ele><time>2026-04-28T16:49:31.261Z</time></trkpt><trkpt lat="43.3495424" lon="17.8151153"><ele>95.0</ele><time>2026-04-28T16:49:32.261Z</time></trkpt><trkpt lat="43.349478" lon="17.8151056"><ele>93.5</ele><time>2026-04-28T16:49:33.263Z</time></trkpt><trkpt lat="43.3494148" lon="17.8150987"><ele>92.0</ele><time>2026-04-28T16:49:34.264Z</time></trkpt><trkpt lat="43.349294" lon="17.8150709"><ele>90.6</ele><time>2026-04-28T16:49:36.263Z</time></trkpt><trkpt lat="43.3491808" lon="17.8150654"><ele>89.19999999999999</ele><time>2026-04-28T16:49:38.263Z</time></trkpt><trkpt lat="43.3490707" lon="17.8150639"><ele>87.8</ele><time>2026-04-28T16:49:40.263Z</time></trkpt><trkpt lat="43.3489857" lon="17.8150753"><ele>86.4</ele><time>2026-04-28T16:49:42.263Z</time></trkpt><trkpt lat="43.3489202" lon="17.8150496"><ele>85.0</ele><time>2026-04-28T16:49:44.261Z</time></trkpt><trkpt lat="43.3488386" lon="17.8150292"><ele>84.8</ele><time>2026-04-28T16:49:47.263Z</time></trkpt><trkpt lat="43.3487196" lon="17.8150521"><ele>84.6</ele><time>2026-04-28T16:49:49.26Z</time></trkpt><trkpt lat="43.3485979" lon="17.8150727"><ele>84.4</ele><time>2026-04-28T16:49:51.261Z</time></trkpt><trkpt lat="43.3485243" lon="17.8150883"><ele>84.2</ele><time>2026-04-28T16:49:52.263Z</time></trkpt><trkpt lat="43.3484406" lon="17.8151131"><ele>84.0</ele><time>2026-04-28T16:49:53.263Z</time></trkpt><trkpt lat="43.3483604" lon="17.8151349"><ele>86.33333333333333</ele><time>2026-04-28T16:49:54.263Z</time></trkpt><trkpt lat="43.3482741" lon="17.8151543"><ele>88.66666666666666</ele><time>2026-04-28T16:49:55.261Z</time></trkpt><trkpt lat="43.3481848" lon="17.8151762"><ele>91.0</ele><time>2026-04-28T16:49:56.263Z</time></trkpt><trkpt lat="43.3481026" lon="17.8152001"><ele>93.33333333333333</ele><time>2026-04-28T16:49:57.263Z</time></trkpt><trkpt lat="43.3480189" lon="17.8152293"><ele>95.66666666666666</ele><time>2026-04-28T16:49:58.264Z</time></trkpt><trkpt lat="43.3479355" lon="17.8152658"><ele>98.0</ele><time>2026-04-28T16:49:59.262Z</time></trkpt><trkpt lat="43.3478547" lon="17.8153069"><ele>98.66666666666666</ele><time>2026-04-28T16:50:00.263Z</time></trkpt><trkpt lat="43.3477832" lon="17.8153413"><ele>99.33333333333333</ele><time>2026-04-28T16:50:01.262Z</time></trkpt><trkpt lat="43.3477106" lon="17.8153672"><ele>100.0</ele><time>2026-04-28T16:50:02.264Z</time></trkpt><trkpt lat="43.3476411" lon="17.8153923"><ele>100.66666666666666</ele><time>2026-04-28T16:50:03.263Z</time></trkpt><trkpt lat="43.3475722" lon="17.8154163"><ele>101.33333333333333</ele><time>2026-04-28T16:50:04.263Z</time></trkpt><trkpt lat="43.3474687" lon="17.8154262"><ele>102.0</ele><time>2026-04-28T16:50:06.262Z</time></trkpt><trkpt lat="43.3473934" lon="17.8154366"><ele>102.0</ele><time>2026-04-28T16:50:08.271Z</time></trkpt><trkpt lat="43.3473313" lon="17.8154007"><ele>102.0</ele><time>2026-04-28T16:50:09.26Z</time></trkpt><trkpt lat="43.3472618" lon="17.8153857"><ele>102.0</ele><time>2026-04-28T16:50:10.264Z</time></trkpt><trkpt lat="43.3471915" lon="17.8153674"><ele>102.0</ele><time>2026-04-28T16:50:11.263Z</time></trkpt><trkpt lat="43.3471157" lon="17.8153478"><ele>102.0</ele><time>2026-04-28T16:50:12.261Z</time></trkpt><trkpt lat="43.3470342" lon="17.8153181"><ele>102.0</ele><time>2026-04-28T16:50:13.263Z</time></trkpt><trkpt lat="43.3469552" lon="17.8152854"><ele>103.0</ele><time>2026-04-28T16:50:14.263Z</time></trkpt><trkpt lat="43.3468832" lon="17.8152629"><ele>104.0</ele><time>2026-04-28T16:50:15.262Z</time></trkpt><trkpt lat="43.3467582" lon="17.8152207"><ele>105.0</ele><time>2026-04-28T16:50:17.263Z</time></trkpt><trkpt lat="43.3466814" lon="17.8151891"><ele>106.0</ele><time>2026-04-28T16:50:18.264Z</time></trkpt><trkpt lat="43.3466002" lon="17.8151623"><ele>107.0</ele><time>2026-04-28T16:50:19.263Z</time></trkpt><trkpt lat="43.3465181" lon="17.8151458"><ele>108.0</ele><time>2026-04-28T16:50:20.263Z</time></trkpt><trkpt lat="43.3464341" lon="17.81514"><ele>107.66666666666667</ele><time>2026-04-28T16:50:21.263Z</time></trkpt><trkpt lat="43.3463567" lon="17.8151476"><ele>107.33333333333334</ele><time>2026-04-28T16:50:22.263Z</time></trkpt><trkpt lat="43.3462725" lon="17.8151658"><ele>107.0</ele><time>2026-04-28T16:50:23.263Z</time></trkpt><trkpt lat="43.3461903" lon="17.8151947"><ele>106.66666666666667</ele><time>2026-04-28T16:50:24.263Z</time></trkpt><trkpt lat="43.3461178" lon="17.8152264"><ele>106.33333333333334</ele><time>2026-04-28T16:50:25.262Z</time></trkpt><trkpt lat="43.3460556" lon="17.8152636"><ele>106.0</ele><time>2026-04-28T16:50:26.264Z</time></trkpt><trkpt lat="43.3459918" lon="17.8153111"><ele>106.0</ele><time>2026-04-28T16:50:27.265Z</time></trkpt><trkpt lat="43.3459328" lon="17.8153622"><ele>106.0</ele><time>2026-04-28T16:50:28.263Z</time></trkpt><trkpt lat="43.3458307" lon="17.8154496"><ele>106.0</ele><time>2026-04-28T16:50:30.262Z</time></trkpt><trkpt lat="43.3457495" lon="17.8155171"><ele>106.0</ele><time>2026-04-28T16:50:32.263Z</time></trkpt><trkpt lat="43.3456572" lon="17.8155716"><ele>106.0</ele><time>2026-04-28T16:50:34.259Z</time></trkpt><trkpt lat="43.3455184" lon="17.8155906"><ele>105.19999999999999</ele><time>2026-04-28T16:50:36.271Z</time></trkpt><trkpt lat="43.3453806" lon="17.8155721"><ele>104.39999999999999</ele><time>2026-04-28T16:50:38.262Z</time></trkpt><trkpt lat="43.3452567" lon="17.8155444"><ele>103.6</ele><time>2026-04-28T16:50:40.265Z</time></trkpt><trkpt lat="43.3451454" lon="17.8155205"><ele>102.8</ele><time>2026-04-28T16:50:42.262Z</time></trkpt><trkpt lat="43.3450826" lon="17.8155132"><ele>102.0</ele><time>2026-04-28T16:50:43.262Z</time></trkpt><trkpt lat="43.3449627" lon="17.8154624"><ele>102.0</ele><time>2026-04-28T16:50:45.264Z</time></trkpt><trkpt lat="43.3448936" lon="17.8154438"><ele>102.0</ele><time>2026-04-28T16:50:46.263Z</time></trkpt><trkpt lat="43.3447882" lon="17.8154567"><ele>102.0</ele><time>2026-04-28T16:50:48.262Z</time></trkpt><trkpt lat="43.3447136" lon="17.8154741"><ele>102.0</ele><time>2026-04-28T16:50:49.265Z</time></trkpt><trkpt lat="43.3446359" lon="17.8155171"><ele>102.0</ele><time>2026-04-28T16:50:50.264Z</time></trkpt><trkpt lat="43.344559" lon="17.8155542"><ele>102.0</ele><time>2026-04-28T16:50:51.264Z</time></trkpt><trkpt lat="43.3444822" lon="17.8155829"><ele>100.16666666666667</ele><time>2026-04-28T16:50:52.265Z</time></trkpt><trkpt lat="43.3444111" lon="17.8156179"><ele>98.33333333333333</ele><time>2026-04-28T16:50:53.264Z</time></trkpt><trkpt lat="43.344342" lon="17.8156511"><ele>96.5</ele><time>2026-04-28T16:50:54.262Z</time></trkpt><trkpt lat="43.3442718" lon="17.8156817"><ele>94.66666666666666</ele><time>2026-04-28T16:50:55.263Z</time></trkpt><trkpt lat="43.3441994" lon="17.8157083"><ele>92.83333333333333</ele><time>2026-04-28T16:50:56.264Z</time></trkpt><trkpt lat="43.3441277" lon="17.815737"><ele>91.0</ele><time>2026-04-28T16:50:57.263Z</time></trkpt><trkpt lat="43.3440467" lon="17.8157696"><ele>91.0</ele><time>2026-04-28T16:50:58.262Z</time></trkpt><trkpt lat="43.3439702" lon="17.8158051"><ele>91.0</ele><time>2026-04-28T16:50:59.263Z</time></trkpt><trkpt lat="43.3438959" lon="17.8158399"><ele>91.0</ele><time>2026-04-28T16:51:00.263Z</time></trkpt><trkpt lat="43.3438245" lon="17.8158775"><ele>91.0</ele><time>2026-04-28T16:51:01.264Z</time></trkpt><trkpt lat="43.3437493" lon="17.8159126"><ele>91.0</ele><time>2026-04-28T16:51:02.265Z</time></trkpt><trkpt lat="43.3436824" lon="17.8159477"><ele>91.0</ele><time>2026-04-28T16:51:03.263Z</time></trkpt><trkpt lat="43.3436059" lon="17.8159814"><ele>90.85714285714286</ele><time>2026-04-28T16:51:04.262Z</time></trkpt><trkpt lat="43.3435345" lon="17.8160142"><ele>90.71428571428572</ele><time>2026-04-28T16:51:05.264Z</time></trkpt><trkpt lat="43.3434674" lon="17.8160398"><ele>90.57142857142857</ele><time>2026-04-28T16:51:06.262Z</time></trkpt><trkpt lat="43.3433957" lon="17.8160683"><ele>90.42857142857143</ele><time>2026-04-28T16:51:07.262Z</time></trkpt><trkpt lat="43.3433332" lon="17.8160799"><ele>90.28571428571429</ele><time>2026-04-28T16:51:08.263Z</time></trkpt><trkpt lat="43.3432641" lon="17.8160997"><ele>90.14285714285714</ele><time>2026-04-28T16:51:09.263Z</time></trkpt><trkpt lat="43.3431962" lon="17.8161218"><ele>90.0</ele><time>2026-04-28T16:51:10.265Z</time></trkpt><trkpt lat="43.3431343" lon="17.8161484"><ele>90.0</ele><time>2026-04-28T16:51:11.263Z</time></trkpt><trkpt lat="43.3430665" lon="17.8161658"><ele>90.0</ele><time>2026-04-28T16:51:12.263Z</time></trkpt><trkpt lat="43.3429532" lon="17.816206"><ele>90.0</ele><time>2026-04-28T16:51:14.262Z</time></trkpt><trkpt lat="43.3428883" lon="17.8162181"><ele>90.0</ele><time>2026-04-28T16:51:15.264Z</time></trkpt><trkpt lat="43.3427837" lon="17.8162502"><ele>90.0</ele><time>2026-04-28T16:51:17.263Z</time></trkpt><trkpt lat="43.342674" lon="17.8162819"><ele>88.2</ele><time>2026-04-28T16:51:19.262Z</time></trkpt><trkpt lat="43.3426114" lon="17.8162941"><ele>86.4</ele><time>2026-04-28T16:51:20.262Z</time></trkpt><trkpt lat="43.3424906" lon="17.8163028"><ele>84.6</ele><time>2026-04-28T16:51:22.263Z</time></trkpt><trkpt lat="43.342375" lon="17.8163476"><ele>82.8</ele><time>2026-04-28T16:51:24.264Z</time></trkpt><trkpt lat="43.3422627" lon="17.8163975"><ele>81.0</ele><time>2026-04-28T16:51:26.262Z</time></trkpt><trkpt lat="43.3422106" lon="17.8164465"><ele>80.0</ele><time>2026-04-28T16:51:27.264Z</time></trkpt><trkpt lat="43.3421486" lon="17.8164898"><ele>79.0</ele><time>2026-04-28T16:51:28.263Z</time></trkpt><trkpt lat="43.3420355" lon="17.8165458"><ele>78.0</ele><time>2026-04-28T16:51:30.264Z</time></trkpt><trkpt lat="43.3419837" lon="17.8165958"><ele>77.0</ele><time>2026-04-28T16:51:31.262Z</time></trkpt><trkpt lat="43.3418719" lon="17.8165912"><ele>76.0</ele><time>2026-04-28T16:51:33.262Z</time></trkpt><trkpt lat="43.3417644" lon="17.8165951"><ele>76.0</ele><time>2026-04-28T16:51:35.263Z</time></trkpt><trkpt lat="43.3416909" lon="17.8166056"><ele>76.0</ele><time>2026-04-28T16:51:37.26Z</time></trkpt><trkpt lat="43.341617" lon="17.816612"><ele>76.0</ele><time>2026-04-28T16:51:40.262Z</time></trkpt><trkpt lat="43.3415547" lon="17.81663"><ele>76.0</ele><time>2026-04-28T16:51:42.263Z</time></trkpt><trkpt lat="43.3414493" lon="17.8166124"><ele>76.0</ele><time>2026-04-28T16:51:44.262Z</time></trkpt><trkpt lat="43.3413333" lon="17.8166144"><ele>76.0</ele><time>2026-04-28T16:51:46.262Z</time></trkpt><trkpt lat="43.341219" lon="17.8166262"><ele>75.6</ele><time>2026-04-28T16:51:48.262Z</time></trkpt><trkpt lat="43.3411051" lon="17.816633"><ele>75.19999999999999</ele><time>2026-04-28T16:51:50.262Z</time></trkpt><trkpt lat="43.3410005" lon="17.8166503"><ele>74.80000000000001</ele><time>2026-04-28T16:51:52.264Z</time></trkpt><trkpt lat="43.3408959" lon="17.8166569"><ele>74.4</ele><time>2026-04-28T16:51:54.261Z</time></trkpt><trkpt lat="43.3407982" lon="17.816675"><ele>74.0</ele><time>2026-04-28T16:51:56.262Z</time></trkpt><trkpt lat="43.3407302" lon="17.8166655"><ele>74.0</ele><time>2026-04-28T16:51:57.261Z</time></trkpt><trkpt lat="43.3406454" lon="17.8166467"><ele>74.0</ele><time>2026-04-28T16:51:59.264Z</time></trkpt><trkpt lat="43.3405492" lon="17.8166475"><ele>74.0</ele><time>2026-04-28T16:52:01.263Z</time></trkpt><trkpt lat="43.3404783" lon="17.8166834"><ele>74.0</ele><time>2026-04-28T16:52:04.262Z</time></trkpt><trkpt lat="43.3404147" lon="17.8167839"><ele>74.0</ele><time>2026-04-28T16:52:06.263Z</time></trkpt><trkpt lat="43.3403527" lon="17.8168659"><ele>74.0</ele><time>2026-04-28T16:52:08.262Z</time></trkpt><trkpt lat="43.3402791" lon="17.8169368"><ele>85.0</ele><time>2026-04-28T16:52:10.262Z</time></trkpt><trkpt lat="43.3402085" lon="17.8169678"><ele>85.0</ele><time>2026-04-28T16:52:12.263Z</time></trkpt><trkpt lat="43.3401182" lon="17.8169963"><ele>85.0</ele><time>2026-04-28T16:52:35.26Z</time></trkpt><trkpt lat="43.3400482" lon="17.8169923"><ele>85.0</ele><time>2026-04-28T16:52:39.263Z</time></trkpt><trkpt lat="43.3400345" lon="17.8170772"><ele>85.0</ele><time>2026-04-28T17:08:53.257Z</time></trkpt><trkpt lat="43.3400382" lon="17.8171743"><ele>85.0</ele><time>2026-04-28T17:09:06.257Z</time></trkpt></trkseg></trk></gpx>